<?xml version='1.0' encoding='UTF-8'?><gpx version="1.1" creator="JPX - https://github.com/jenetics/jpx" xmlns="http://www.topografix.com/GPX/1/1"><trk><trkseg><trkpt lat="44.4555834" lon="11.119699"><ele>146.0</ele><time>2026-04-25T06:01:11.393Z</time></trkpt><trkpt lat="44.4555264" lon="11.1197452"><ele>146.0</ele><time>2026-04-25T06:01:21.391Z</time></trkpt><trkpt lat="44.4554383" lon="11.1196967"><ele>146.0</ele><time>2026-04-25T06:02:53.389Z</time></trkpt><trkpt lat="44.45539" lon="11.1196283"><ele>146.0</ele><time>2026-04-25T06:02:55.393Z</time></trkpt><trkpt lat="44.4553383" lon="11.1195633"><ele>146.0</ele><time>2026-04-25T06:02:58.394Z</time></trkpt><trkpt lat="44.455265" lon="11.119535"><ele>146.0</ele><time>2026-04-25T06:03:00.39Z</time></trkpt><trkpt lat="44.45513" lon="11.1195233"><ele>146.0</ele><time>2026-04-25T06:03:02.391Z</time></trkpt><trkpt lat="44.4550433" lon="11.1195217"><ele>146.0</ele><time>2026-04-25T06:03:03.39Z</time></trkpt><trkpt lat="44.4549533" lon="11.1195217"><ele>146.0</ele><time>2026-04-25T06:03:04.391Z</time></trkpt><trkpt lat="44.4548583" lon="11.11952"><ele>146.0</ele><time>2026-04-25T06:03:05.39Z</time></trkpt><trkpt lat="44.4547617" lon="11.1195183"><ele>146.0</ele><time>2026-04-25T06:03:06.391Z</time></trkpt><trkpt lat="44.45466" lon="11.1195167"><ele>145.8</ele><time>2026-04-25T06:03:07.39Z</time></trkpt><trkpt lat="44.4545567" lon="11.1195167"><ele>145.6</ele><time>2026-04-25T06:03:08.391Z</time></trkpt><trkpt lat="44.45445" lon="11.1195167"><ele>145.4</ele><time>2026-04-25T06:03:09.394Z</time></trkpt><trkpt lat="44.45434" lon="11.1195167"><ele>145.2</ele><time>2026-04-25T06:03:10.388Z</time></trkpt><trkpt lat="44.4542267" lon="11.1195183"><ele>145.0</ele><time>2026-04-25T06:03:11.399Z</time></trkpt><trkpt lat="44.4541083" lon="11.11952"><ele>145.0</ele><time>2026-04-25T06:03:12.393Z</time></trkpt><trkpt lat="44.4539867" lon="11.1195217"><ele>145.0</ele><time>2026-04-25T06:03:13.39Z</time></trkpt><trkpt lat="44.45386" lon="11.1195233"><ele>145.0</ele><time>2026-04-25T06:03:14.39Z</time></trkpt><trkpt lat="44.4537317" lon="11.119525"><ele>145.0</ele><time>2026-04-25T06:03:15.39Z</time></trkpt><trkpt lat="44.4536" lon="11.1195283"><ele>145.25</ele><time>2026-04-25T06:03:16.389Z</time></trkpt><trkpt lat="44.4534633" lon="11.11953"><ele>145.5</ele><time>2026-04-25T06:03:17.391Z</time></trkpt><trkpt lat="44.4533233" lon="11.1195333"><ele>145.75</ele><time>2026-04-25T06:03:18.391Z</time></trkpt><trkpt lat="44.4531817" lon="11.1195367"><ele>146.0</ele><time>2026-04-25T06:03:19.396Z</time></trkpt><trkpt lat="44.4530383" lon="11.1195417"><ele>146.5</ele><time>2026-04-25T06:03:20.391Z</time></trkpt><trkpt lat="44.4528983" lon="11.1195467"><ele>147.0</ele><time>2026-04-25T06:03:21.39Z</time></trkpt><trkpt lat="44.4527633" lon="11.1195533"><ele>147.5</ele><time>2026-04-25T06:03:22.392Z</time></trkpt><trkpt lat="44.4526333" lon="11.11956"><ele>148.0</ele><time>2026-04-25T06:03:23.394Z</time></trkpt><trkpt lat="44.4525017" lon="11.1195617"><ele>148.0</ele><time>2026-04-25T06:03:24.395Z</time></trkpt><trkpt lat="44.4523667" lon="11.11956"><ele>148.0</ele><time>2026-04-25T06:03:25.392Z</time></trkpt><trkpt lat="44.4522317" lon="11.11956"><ele>148.0</ele><time>2026-04-25T06:03:26.389Z</time></trkpt><trkpt lat="44.4520917" lon="11.1195633"><ele>148.0</ele><time>2026-04-25T06:03:27.392Z</time></trkpt><trkpt lat="44.4519483" lon="11.119565"><ele>148.25</ele><time>2026-04-25T06:03:28.395Z</time></trkpt><trkpt lat="44.4518067" lon="11.1195667"><ele>148.5</ele><time>2026-04-25T06:03:29.391Z</time></trkpt><trkpt lat="44.4516667" lon="11.119565"><ele>148.75</ele><time>2026-04-25T06:03:30.388Z</time></trkpt><trkpt lat="44.4515233" lon="11.119565"><ele>149.0</ele><time>2026-04-25T06:03:31.391Z</time></trkpt><trkpt lat="44.451385" lon="11.119565"><ele>149.25</ele><time>2026-04-25T06:03:32.393Z</time></trkpt><trkpt lat="44.45125" lon="11.11957"><ele>149.5</ele><time>2026-04-25T06:03:33.393Z</time></trkpt><trkpt lat="44.4511167" lon="11.119575"><ele>149.75</ele><time>2026-04-25T06:03:34.393Z</time></trkpt><trkpt lat="44.4509817" lon="11.1195767"><ele>150.0</ele><time>2026-04-25T06:03:35.391Z</time></trkpt><trkpt lat="44.4508483" lon="11.119575"><ele>150.0</ele><time>2026-04-25T06:03:36.393Z</time></trkpt><trkpt lat="44.45071" lon="11.1195717"><ele>150.0</ele><time>2026-04-25T06:03:37.392Z</time></trkpt><trkpt lat="44.4505717" lon="11.1195717"><ele>150.0</ele><time>2026-04-25T06:03:38.393Z</time></trkpt><trkpt lat="44.4504283" lon="11.1195717"><ele>150.0</ele><time>2026-04-25T06:03:39.393Z</time></trkpt><trkpt lat="44.4502833" lon="11.119575"><ele>149.75</ele><time>2026-04-25T06:03:40.391Z</time></trkpt><trkpt lat="44.4501383" lon="11.119575"><ele>149.5</ele><time>2026-04-25T06:03:41.391Z</time></trkpt><trkpt lat="44.4499933" lon="11.119575"><ele>149.25</ele><time>2026-04-25T06:03:42.391Z</time></trkpt><trkpt lat="44.4498483" lon="11.1195767"><ele>149.0</ele><time>2026-04-25T06:03:43.39Z</time></trkpt><trkpt lat="44.4497033" lon="11.1195783"><ele>149.5</ele><time>2026-04-25T06:03:44.389Z</time></trkpt><trkpt lat="44.44956" lon="11.119585"><ele>150.0</ele><time>2026-04-25T06:03:45.392Z</time></trkpt><trkpt lat="44.4494167" lon="11.1195983"><ele>150.5</ele><time>2026-04-25T06:03:46.392Z</time></trkpt><trkpt lat="44.4492733" lon="11.1196217"><ele>151.0</ele><time>2026-04-25T06:03:47.391Z</time></trkpt><trkpt lat="44.4491317" lon="11.1196617"><ele>151.0</ele><time>2026-04-25T06:03:48.394Z</time></trkpt><trkpt lat="44.4489933" lon="11.1197083"><ele>151.0</ele><time>2026-04-25T06:03:49.394Z</time></trkpt><trkpt lat="44.4488567" lon="11.11976"><ele>151.0</ele><time>2026-04-25T06:03:50.397Z</time></trkpt><trkpt lat="44.4487217" lon="11.11982"><ele>151.0</ele><time>2026-04-25T06:03:51.393Z</time></trkpt><trkpt lat="44.44859" lon="11.1198817"><ele>152.25</ele><time>2026-04-25T06:03:52.394Z</time></trkpt><trkpt lat="44.4484567" lon="11.1199467"><ele>153.5</ele><time>2026-04-25T06:03:53.397Z</time></trkpt><trkpt lat="44.4483233" lon="11.1200067"><ele>154.75</ele><time>2026-04-25T06:03:54.398Z</time></trkpt><trkpt lat="44.44819" lon="11.1200567"><ele>156.0</ele><time>2026-04-25T06:03:55.398Z</time></trkpt><trkpt lat="44.4480517" lon="11.120095"><ele>156.5</ele><time>2026-04-25T06:03:56.395Z</time></trkpt><trkpt lat="44.4479117" lon="11.1201167"><ele>157.0</ele><time>2026-04-25T06:03:57.394Z</time></trkpt><trkpt lat="44.4477683" lon="11.1201283"><ele>157.5</ele><time>2026-04-25T06:03:58.391Z</time></trkpt><trkpt lat="44.4476233" lon="11.120135"><ele>158.0</ele><time>2026-04-25T06:03:59.393Z</time></trkpt><trkpt lat="44.4474717" lon="11.1201433"><ele>158.0</ele><time>2026-04-25T06:04:00.394Z</time></trkpt><trkpt lat="44.4473217" lon="11.1201483"><ele>158.0</ele><time>2026-04-25T06:04:01.394Z</time></trkpt><trkpt lat="44.4471783" lon="11.1201417"><ele>158.0</ele><time>2026-04-25T06:04:02.393Z</time></trkpt><trkpt lat="44.4470433" lon="11.1201217"><ele>158.0</ele><time>2026-04-25T06:04:03.394Z</time></trkpt><trkpt lat="44.4469183" lon="11.1200833"><ele>157.75</ele><time>2026-04-25T06:04:04.391Z</time></trkpt><trkpt lat="44.4468017" lon="11.1200167"><ele>157.5</ele><time>2026-04-25T06:04:05.392Z</time></trkpt><trkpt lat="44.4466883" lon="11.119925"><ele>157.25</ele><time>2026-04-25T06:04:06.398Z</time></trkpt><trkpt lat="44.446575" lon="11.1198217"><ele>157.0</ele><time>2026-04-25T06:04:07.392Z</time></trkpt><trkpt lat="44.4464617" lon="11.1197083"><ele>157.0</ele><time>2026-04-25T06:04:08.393Z</time></trkpt><trkpt lat="44.44635" lon="11.119585"><ele>157.0</ele><time>2026-04-25T06:04:09.391Z</time></trkpt><trkpt lat="44.44624" lon="11.1194617"><ele>157.0</ele><time>2026-04-25T06:04:10.391Z</time></trkpt><trkpt lat="44.4461267" lon="11.1193417"><ele>157.0</ele><time>2026-04-25T06:04:11.392Z</time></trkpt><trkpt lat="44.4460067" lon="11.119225"><ele>157.0</ele><time>2026-04-25T06:04:12.39Z</time></trkpt><trkpt lat="44.4458867" lon="11.1191133"><ele>157.0</ele><time>2026-04-25T06:04:13.431Z</time></trkpt><trkpt lat="44.4457617" lon="11.1190117"><ele>157.0</ele><time>2026-04-25T06:04:14.391Z</time></trkpt><trkpt lat="44.4456333" lon="11.1189183"><ele>157.0</ele><time>2026-04-25T06:04:15.39Z</time></trkpt><trkpt lat="44.4454983" lon="11.1188267"><ele>158.33333333333334</ele><time>2026-04-25T06:04:16.391Z</time></trkpt><trkpt lat="44.4453567" lon="11.1187333"><ele>159.66666666666666</ele><time>2026-04-25T06:04:17.398Z</time></trkpt><trkpt lat="44.4452117" lon="11.1186367"><ele>161.0</ele><time>2026-04-25T06:04:18.394Z</time></trkpt><trkpt lat="44.4450683" lon="11.1185317"><ele>161.0</ele><time>2026-04-25T06:04:19.393Z</time></trkpt><trkpt lat="44.4449333" lon="11.1184317"><ele>161.0</ele><time>2026-04-25T06:04:20.398Z</time></trkpt><trkpt lat="44.4448" lon="11.1183333"><ele>161.0</ele><time>2026-04-25T06:04:21.393Z</time></trkpt><trkpt lat="44.444665" lon="11.1182433"><ele>159.66666666666666</ele><time>2026-04-25T06:04:22.395Z</time></trkpt><trkpt lat="44.4445267" lon="11.1181683"><ele>158.33333333333334</ele><time>2026-04-25T06:04:23.389Z</time></trkpt><trkpt lat="44.44438" lon="11.1181133"><ele>157.0</ele><time>2026-04-25T06:04:24.399Z</time></trkpt><trkpt lat="44.444225" lon="11.1180833"><ele>157.0</ele><time>2026-04-25T06:04:25.4Z</time></trkpt><trkpt lat="44.4440667" lon="11.118065"><ele>157.0</ele><time>2026-04-25T06:04:26.392Z</time></trkpt><trkpt lat="44.4439067" lon="11.1180517"><ele>157.0</ele><time>2026-04-25T06:04:27.39Z</time></trkpt><trkpt lat="44.4437433" lon="11.11804"><ele>157.66666666666669</ele><time>2026-04-25T06:04:28.394Z</time></trkpt><trkpt lat="44.44358" lon="11.1180317"><ele>158.33333333333334</ele><time>2026-04-25T06:04:29.391Z</time></trkpt><trkpt lat="44.4434133" lon="11.118025"><ele>159.0</ele><time>2026-04-25T06:04:30.392Z</time></trkpt><trkpt lat="44.4432483" lon="11.1180183"><ele>159.0</ele><time>2026-04-25T06:04:31.395Z</time></trkpt><trkpt lat="44.4430833" lon="11.1180083"><ele>159.0</ele><time>2026-04-25T06:04:32.393Z</time></trkpt><trkpt lat="44.4429183" lon="11.1179983"><ele>159.0</ele><time>2026-04-25T06:04:33.396Z</time></trkpt><trkpt lat="44.4427533" lon="11.1179883"><ele>159.0</ele><time>2026-04-25T06:04:34.392Z</time></trkpt><trkpt lat="44.442585" lon="11.1179783"><ele>159.0</ele><time>2026-04-25T06:04:35.393Z</time></trkpt><trkpt lat="44.4424117" lon="11.117975"><ele>159.0</ele><time>2026-04-25T06:04:36.389Z</time></trkpt><trkpt lat="44.4422367" lon="11.1179717"><ele>159.66666666666666</ele><time>2026-04-25T06:04:37.393Z</time></trkpt><trkpt lat="44.4420617" lon="11.1179617"><ele>160.33333333333331</ele><time>2026-04-25T06:04:38.401Z</time></trkpt><trkpt lat="44.4418933" lon="11.1179517"><ele>161.0</ele><time>2026-04-25T06:04:39.394Z</time></trkpt><trkpt lat="44.4417283" lon="11.1179433"><ele>161.0</ele><time>2026-04-25T06:04:40.393Z</time></trkpt><trkpt lat="44.4415633" lon="11.1179317"><ele>161.0</ele><time>2026-04-25T06:04:41.394Z</time></trkpt><trkpt lat="44.4413933" lon="11.1179233"><ele>161.0</ele><time>2026-04-25T06:04:42.392Z</time></trkpt><trkpt lat="44.4412217" lon="11.117915"><ele>161.0</ele><time>2026-04-25T06:04:43.391Z</time></trkpt><trkpt lat="44.4410483" lon="11.117905"><ele>161.0</ele><time>2026-04-25T06:04:44.4Z</time></trkpt><trkpt lat="44.4408717" lon="11.117895"><ele>161.0</ele><time>2026-04-25T06:04:45.39Z</time></trkpt><trkpt lat="44.4407017" lon="11.1178767"><ele>161.0</ele><time>2026-04-25T06:04:46.399Z</time></trkpt><trkpt lat="44.44054" lon="11.1178383"><ele>161.0</ele><time>2026-04-25T06:04:47.397Z</time></trkpt><trkpt lat="44.4403833" lon="11.1177767"><ele>161.0</ele><time>2026-04-25T06:04:48.396Z</time></trkpt><trkpt lat="44.4402233" lon="11.1176983"><ele>162.66666666666666</ele><time>2026-04-25T06:04:49.391Z</time></trkpt><trkpt lat="44.440055" lon="11.1176117"><ele>164.33333333333334</ele><time>2026-04-25T06:04:50.395Z</time></trkpt><trkpt lat="44.4398833" lon="11.1175267"><ele>166.0</ele><time>2026-04-25T06:04:51.398Z</time></trkpt><trkpt lat="44.4397067" lon="11.1174467"><ele>165.0</ele><time>2026-04-25T06:04:52.395Z</time></trkpt><trkpt lat="44.4395267" lon="11.117375"><ele>164.0</ele><time>2026-04-25T06:04:53.393Z</time></trkpt><trkpt lat="44.43935" lon="11.11731"><ele>163.0</ele><time>2026-04-25T06:04:54.392Z</time></trkpt><trkpt lat="44.4391817" lon="11.11725"><ele>163.0</ele><time>2026-04-25T06:04:55.391Z</time></trkpt><trkpt lat="44.4390183" lon="11.117185"><ele>163.0</ele><time>2026-04-25T06:04:56.395Z</time></trkpt><trkpt lat="44.4388617" lon="11.1171317"><ele>163.0</ele><time>2026-04-25T06:04:57.391Z</time></trkpt><trkpt lat="44.4387167" lon="11.1170833"><ele>163.75</ele><time>2026-04-25T06:04:58.397Z</time></trkpt><trkpt lat="44.4385817" lon="11.11704"><ele>164.5</ele><time>2026-04-25T06:04:59.395Z</time></trkpt><trkpt lat="44.4384533" lon="11.1170067"><ele>165.25</ele><time>2026-04-25T06:05:00.391Z</time></trkpt><trkpt lat="44.438345" lon="11.11697"><ele>166.0</ele><time>2026-04-25T06:05:01.388Z</time></trkpt><trkpt lat="44.4382467" lon="11.1169433"><ele>166.0</ele><time>2026-04-25T06:05:02.393Z</time></trkpt><trkpt lat="44.4381583" lon="11.116925"><ele>166.0</ele><time>2026-04-25T06:05:03.391Z</time></trkpt><trkpt lat="44.43807" lon="11.1168933"><ele>166.0</ele><time>2026-04-25T06:05:04.39Z</time></trkpt><trkpt lat="44.438" lon="11.11683"><ele>166.0</ele><time>2026-04-25T06:05:05.393Z</time></trkpt><trkpt lat="44.4379417" lon="11.1167533"><ele>166.0</ele><time>2026-04-25T06:05:06.392Z</time></trkpt><trkpt lat="44.4378967" lon="11.11666"><ele>166.0</ele><time>2026-04-25T06:05:07.393Z</time></trkpt><trkpt lat="44.4378933" lon="11.1165183"><ele>165.75</ele><time>2026-04-25T06:05:08.397Z</time></trkpt><trkpt lat="44.4379067" lon="11.1163617"><ele>165.5</ele><time>2026-04-25T06:05:09.392Z</time></trkpt><trkpt lat="44.437925" lon="11.116195"><ele>165.25</ele><time>2026-04-25T06:05:10.396Z</time></trkpt><trkpt lat="44.4379367" lon="11.1160167"><ele>165.0</ele><time>2026-04-25T06:05:11.392Z</time></trkpt><trkpt lat="44.4379283" lon="11.1158267"><ele>165.25</ele><time>2026-04-25T06:05:12.398Z</time></trkpt><trkpt lat="44.4379067" lon="11.1156283"><ele>165.5</ele><time>2026-04-25T06:05:13.392Z</time></trkpt><trkpt lat="44.4378817" lon="11.1154217"><ele>165.75</ele><time>2026-04-25T06:05:14.392Z</time></trkpt><trkpt lat="44.4378483" lon="11.11521"><ele>166.0</ele><time>2026-04-25T06:05:15.399Z</time></trkpt><trkpt lat="44.4378133" lon="11.1149867"><ele>166.33333333333334</ele><time>2026-04-25T06:05:16.401Z</time></trkpt><trkpt lat="44.43778" lon="11.1147517"><ele>166.66666666666666</ele><time>2026-04-25T06:05:17.39Z</time></trkpt><trkpt lat="44.4377517" lon="11.114515"><ele>167.0</ele><time>2026-04-25T06:05:18.392Z</time></trkpt><trkpt lat="44.4377367" lon="11.1142883"><ele>167.0</ele><time>2026-04-25T06:05:19.393Z</time></trkpt><trkpt lat="44.4377217" lon="11.114085"><ele>167.0</ele><time>2026-04-25T06:05:20.393Z</time></trkpt><trkpt lat="44.43771" lon="11.11391"><ele>167.0</ele><time>2026-04-25T06:05:21.395Z</time></trkpt><trkpt lat="44.437685" lon="11.1137533"><ele>167.0</ele><time>2026-04-25T06:05:22.399Z</time></trkpt><trkpt lat="44.4376383" lon="11.11362"><ele>168.0</ele><time>2026-04-25T06:05:23.392Z</time></trkpt><trkpt lat="44.43757" lon="11.11353"><ele>169.0</ele><time>2026-04-25T06:05:24.392Z</time></trkpt><trkpt lat="44.4374817" lon="11.1134967"><ele>170.0</ele><time>2026-04-25T06:05:25.391Z</time></trkpt><trkpt lat="44.43738" lon="11.1135133"><ele>171.0</ele><time>2026-04-25T06:05:26.39Z</time></trkpt><trkpt lat="44.43727" lon="11.11357"><ele>172.0</ele><time>2026-04-25T06:05:27.4Z</time></trkpt><trkpt lat="44.4371517" lon="11.1136417"><ele>174.25</ele><time>2026-04-25T06:05:28.391Z</time></trkpt><trkpt lat="44.437025" lon="11.113705"><ele>176.5</ele><time>2026-04-25T06:05:29.391Z</time></trkpt><trkpt lat="44.4368817" lon="11.113735"><ele>178.75</ele><time>2026-04-25T06:05:30.392Z</time></trkpt><trkpt lat="44.4367283" lon="11.11375"><ele>181.0</ele><time>2026-04-25T06:05:31.392Z</time></trkpt><trkpt lat="44.4365683" lon="11.113745"><ele>181.0</ele><time>2026-04-25T06:05:32.389Z</time></trkpt><trkpt lat="44.43641" lon="11.113735"><ele>181.0</ele><time>2026-04-25T06:05:33.394Z</time></trkpt><trkpt lat="44.43625" lon="11.1137267"><ele>181.0</ele><time>2026-04-25T06:05:34.39Z</time></trkpt><trkpt lat="44.4360917" lon="11.1137233"><ele>182.25</ele><time>2026-04-25T06:05:35.391Z</time></trkpt><trkpt lat="44.4359433" lon="11.1137183"><ele>183.5</ele><time>2026-04-25T06:05:36.394Z</time></trkpt><trkpt lat="44.4358083" lon="11.113695"><ele>184.75</ele><time>2026-04-25T06:05:37.393Z</time></trkpt><trkpt lat="44.4356917" lon="11.1136383"><ele>186.0</ele><time>2026-04-25T06:05:38.391Z</time></trkpt><trkpt lat="44.4355883" lon="11.113555"><ele>186.0</ele><time>2026-04-25T06:05:39.393Z</time></trkpt><trkpt lat="44.4355133" lon="11.1134433"><ele>186.0</ele><time>2026-04-25T06:05:40.391Z</time></trkpt><trkpt lat="44.4354617" lon="11.1133117"><ele>186.0</ele><time>2026-04-25T06:05:41.39Z</time></trkpt><trkpt lat="44.4354383" lon="11.1131517"><ele>186.0</ele><time>2026-04-25T06:05:42.391Z</time></trkpt><trkpt lat="44.4354483" lon="11.1129883"><ele>188.5</ele><time>2026-04-25T06:05:43.396Z</time></trkpt><trkpt lat="44.43548" lon="11.1128283"><ele>191.0</ele><time>2026-04-25T06:05:44.39Z</time></trkpt><trkpt lat="44.4355367" lon="11.112685"><ele>193.5</ele><time>2026-04-25T06:05:45.396Z</time></trkpt><trkpt lat="44.43563" lon="11.1125683"><ele>196.0</ele><time>2026-04-25T06:05:46.389Z</time></trkpt><trkpt lat="44.4357517" lon="11.112475"><ele>198.25</ele><time>2026-04-25T06:05:47.397Z</time></trkpt><trkpt lat="44.4358883" lon="11.1123933"><ele>200.5</ele><time>2026-04-25T06:05:48.391Z</time></trkpt><trkpt lat="44.4360183" lon="11.11231"><ele>202.75</ele><time>2026-04-25T06:05:49.396Z</time></trkpt><trkpt lat="44.4361517" lon="11.1122283"><ele>205.0</ele><time>2026-04-25T06:05:50.392Z</time></trkpt><trkpt lat="44.4362667" lon="11.1121233"><ele>204.75</ele><time>2026-04-25T06:05:51.391Z</time></trkpt><trkpt lat="44.4363517" lon="11.1119917"><ele>204.5</ele><time>2026-04-25T06:05:52.39Z</time></trkpt><trkpt lat="44.4364117" lon="11.1118383"><ele>204.25</ele><time>2026-04-25T06:05:53.395Z</time></trkpt><trkpt lat="44.4364383" lon="11.1116633"><ele>204.0</ele><time>2026-04-25T06:05:54.391Z</time></trkpt><trkpt lat="44.43644" lon="11.11148"><ele>204.0</ele><time>2026-04-25T06:05:55.393Z</time></trkpt><trkpt lat="44.436415" lon="11.1112883"><ele>204.0</ele><time>2026-04-25T06:05:56.392Z</time></trkpt><trkpt lat="44.4363717" lon="11.1111067"><ele>204.0</ele><time>2026-04-25T06:05:57.393Z</time></trkpt><trkpt lat="44.4363117" lon="11.11095"><ele>204.0</ele><time>2026-04-25T06:05:58.395Z</time></trkpt><trkpt lat="44.4362283" lon="11.110835"><ele>205.0</ele><time>2026-04-25T06:05:59.391Z</time></trkpt><trkpt lat="44.4361267" lon="11.1107517"><ele>206.0</ele><time>2026-04-25T06:06:00.399Z</time></trkpt><trkpt lat="44.4359933" lon="11.110715"><ele>207.0</ele><time>2026-04-25T06:06:01.391Z</time></trkpt><trkpt lat="44.4358433" lon="11.1106983"><ele>208.0</ele><time>2026-04-25T06:06:02.393Z</time></trkpt><trkpt lat="44.435695" lon="11.1106933"><ele>209.5</ele><time>2026-04-25T06:06:03.394Z</time></trkpt><trkpt lat="44.4355567" lon="11.1106833"><ele>211.0</ele><time>2026-04-25T06:06:04.395Z</time></trkpt><trkpt lat="44.43543" lon="11.110655"><ele>212.5</ele><time>2026-04-25T06:06:05.389Z</time></trkpt><trkpt lat="44.43532" lon="11.1105883"><ele>214.0</ele><time>2026-04-25T06:06:06.39Z</time></trkpt><trkpt lat="44.4352283" lon="11.1104783"><ele>216.25</ele><time>2026-04-25T06:06:07.395Z</time></trkpt><trkpt lat="44.4351717" lon="11.1103283"><ele>218.5</ele><time>2026-04-25T06:06:08.394Z</time></trkpt><trkpt lat="44.4351617" lon="11.110165"><ele>220.75</ele><time>2026-04-25T06:06:09.392Z</time></trkpt><trkpt lat="44.4351883" lon="11.110005"><ele>223.0</ele><time>2026-04-25T06:06:10.39Z</time></trkpt><trkpt lat="44.4352467" lon="11.1098483"><ele>222.75</ele><time>2026-04-25T06:06:11.391Z</time></trkpt><trkpt lat="44.4353333" lon="11.10969"><ele>222.5</ele><time>2026-04-25T06:06:12.392Z</time></trkpt><trkpt lat="44.4354283" lon="11.1095283"><ele>222.25</ele><time>2026-04-25T06:06:13.392Z</time></trkpt><trkpt lat="44.4355167" lon="11.1093717"><ele>222.0</ele><time>2026-04-25T06:06:14.394Z</time></trkpt><trkpt lat="44.435585" lon="11.1092217"><ele>222.0</ele><time>2026-04-25T06:06:15.39Z</time></trkpt><trkpt lat="44.43562" lon="11.1090817"><ele>222.0</ele><time>2026-04-25T06:06:16.391Z</time></trkpt><trkpt lat="44.4356367" lon="11.108955"><ele>222.0</ele><time>2026-04-25T06:06:17.397Z</time></trkpt><trkpt lat="44.4356467" lon="11.1088433"><ele>222.0</ele><time>2026-04-25T06:06:18.39Z</time></trkpt><trkpt lat="44.4356617" lon="11.10875"><ele>222.0</ele><time>2026-04-25T06:06:19.395Z</time></trkpt><trkpt lat="44.4357233" lon="11.1085833"><ele>224.75</ele><time>2026-04-25T06:06:21.39Z</time></trkpt><trkpt lat="44.4357967" lon="11.1084983"><ele>227.5</ele><time>2026-04-25T06:06:22.392Z</time></trkpt><trkpt lat="44.435895" lon="11.1083983"><ele>230.25</ele><time>2026-04-25T06:06:23.395Z</time></trkpt><trkpt lat="44.43602" lon="11.1082883"><ele>233.0</ele><time>2026-04-25T06:06:24.394Z</time></trkpt><trkpt lat="44.4361317" lon="11.1081467"><ele>232.75</ele><time>2026-04-25T06:06:25.392Z</time></trkpt><trkpt lat="44.4362233" lon="11.1079967"><ele>232.5</ele><time>2026-04-25T06:06:26.393Z</time></trkpt><trkpt lat="44.43631" lon="11.107855"><ele>232.25</ele><time>2026-04-25T06:06:27.39Z</time></trkpt><trkpt lat="44.4364017" lon="11.10771"><ele>232.0</ele><time>2026-04-25T06:06:28.392Z</time></trkpt><trkpt lat="44.43651" lon="11.10757"><ele>232.0</ele><time>2026-04-25T06:06:29.394Z</time></trkpt><trkpt lat="44.43662" lon="11.1074367"><ele>232.0</ele><time>2026-04-25T06:06:30.392Z</time></trkpt><trkpt lat="44.436735" lon="11.10732"><ele>232.0</ele><time>2026-04-25T06:06:31.393Z</time></trkpt><trkpt lat="44.43687" lon="11.1072283"><ele>232.0</ele><time>2026-04-25T06:06:32.394Z</time></trkpt><trkpt lat="44.43702" lon="11.10716"><ele>227.66666666666666</ele><time>2026-04-25T06:06:33.392Z</time></trkpt><trkpt lat="44.4371767" lon="11.107085"><ele>223.33333333333331</ele><time>2026-04-25T06:06:34.391Z</time></trkpt><trkpt lat="44.4373367" lon="11.10699"><ele>219.0</ele><time>2026-04-25T06:06:35.393Z</time></trkpt><trkpt lat="44.4375017" lon="11.1068867"><ele>219.0</ele><time>2026-04-25T06:06:36.393Z</time></trkpt><trkpt lat="44.4376767" lon="11.10679"><ele>219.0</ele><time>2026-04-25T06:06:37.394Z</time></trkpt><trkpt lat="44.4378567" lon="11.10671"><ele>219.0</ele><time>2026-04-25T06:06:38.401Z</time></trkpt><trkpt lat="44.4380333" lon="11.1066367"><ele>213.66666666666669</ele><time>2026-04-25T06:06:39.394Z</time></trkpt><trkpt lat="44.4381967" lon="11.1065683"><ele>208.33333333333334</ele><time>2026-04-25T06:06:40.393Z</time></trkpt><trkpt lat="44.43835" lon="11.1065017"><ele>203.0</ele><time>2026-04-25T06:06:41.391Z</time></trkpt><trkpt lat="44.4385017" lon="11.1064367"><ele>203.0</ele><time>2026-04-25T06:06:42.391Z</time></trkpt><trkpt lat="44.4386417" lon="11.1063333"><ele>203.0</ele><time>2026-04-25T06:06:43.39Z</time></trkpt><trkpt lat="44.4387733" lon="11.1062033"><ele>203.0</ele><time>2026-04-25T06:06:44.395Z</time></trkpt><trkpt lat="44.4389017" lon="11.1060583"><ele>201.0</ele><time>2026-04-25T06:06:45.393Z</time></trkpt><trkpt lat="44.4390383" lon="11.105915"><ele>199.0</ele><time>2026-04-25T06:06:46.397Z</time></trkpt><trkpt lat="44.439195" lon="11.1057933"><ele>197.0</ele><time>2026-04-25T06:06:47.391Z</time></trkpt><trkpt lat="44.43936" lon="11.1056717"><ele>197.0</ele><time>2026-04-25T06:06:48.393Z</time></trkpt><trkpt lat="44.4395183" lon="11.1055267"><ele>197.0</ele><time>2026-04-25T06:06:49.391Z</time></trkpt><trkpt lat="44.43967" lon="11.1053617"><ele>197.0</ele><time>2026-04-25T06:06:50.391Z</time></trkpt><trkpt lat="44.4398167" lon="11.1051983"><ele>196.33333333333334</ele><time>2026-04-25T06:06:51.394Z</time></trkpt><trkpt lat="44.439965" lon="11.1050383"><ele>195.66666666666669</ele><time>2026-04-25T06:06:52.392Z</time></trkpt><trkpt lat="44.4401117" lon="11.1048967"><ele>195.0</ele><time>2026-04-25T06:06:53.393Z</time></trkpt><trkpt lat="44.4402533" lon="11.1047717"><ele>195.0</ele><time>2026-04-25T06:06:54.39Z</time></trkpt><trkpt lat="44.4403883" lon="11.1046483"><ele>195.0</ele><time>2026-04-25T06:06:55.395Z</time></trkpt><trkpt lat="44.44052" lon="11.1045067"><ele>195.0</ele><time>2026-04-25T06:06:56.392Z</time></trkpt><trkpt lat="44.4406433" lon="11.1043517"><ele>196.66666666666669</ele><time>2026-04-25T06:06:57.393Z</time></trkpt><trkpt lat="44.440755" lon="11.10419"><ele>198.33333333333334</ele><time>2026-04-25T06:06:58.395Z</time></trkpt><trkpt lat="44.44085" lon="11.1040233"><ele>200.0</ele><time>2026-04-25T06:06:59.392Z</time></trkpt><trkpt lat="44.44095" lon="11.1038783"><ele>196.25</ele><time>2026-04-25T06:07:00.4Z</time></trkpt><trkpt lat="44.4410617" lon="11.103745"><ele>192.5</ele><time>2026-04-25T06:07:01.395Z</time></trkpt><trkpt lat="44.4411817" lon="11.103625"><ele>188.75</ele><time>2026-04-25T06:07:02.391Z</time></trkpt><trkpt lat="44.44132" lon="11.1035317"><ele>185.0</ele><time>2026-04-25T06:07:03.393Z</time></trkpt><trkpt lat="44.441475" lon="11.10349"><ele>184.75</ele><time>2026-04-25T06:07:04.394Z</time></trkpt><trkpt lat="44.441625" lon="11.1034533"><ele>184.5</ele><time>2026-04-25T06:07:05.396Z</time></trkpt><trkpt lat="44.441765" lon="11.1034317"><ele>184.25</ele><time>2026-04-25T06:07:06.393Z</time></trkpt><trkpt lat="44.4419017" lon="11.1033983"><ele>184.0</ele><time>2026-04-25T06:07:07.394Z</time></trkpt><trkpt lat="44.442035" lon="11.103325"><ele>182.25</ele><time>2026-04-25T06:07:08.394Z</time></trkpt><trkpt lat="44.4421517" lon="11.1032083"><ele>180.5</ele><time>2026-04-25T06:07:09.398Z</time></trkpt><trkpt lat="44.4422483" lon="11.1030467"><ele>178.75</ele><time>2026-04-25T06:07:10.398Z</time></trkpt><trkpt lat="44.4423333" lon="11.102865"><ele>177.0</ele><time>2026-04-25T06:07:11.393Z</time></trkpt><trkpt lat="44.4424083" lon="11.10268"><ele>177.0</ele><time>2026-04-25T06:07:12.391Z</time></trkpt><trkpt lat="44.4424717" lon="11.1025117"><ele>177.0</ele><time>2026-04-25T06:07:13.394Z</time></trkpt><trkpt lat="44.4425317" lon="11.1023633"><ele>177.0</ele><time>2026-04-25T06:07:14.395Z</time></trkpt><trkpt lat="44.4425917" lon="11.1022383"><ele>177.0</ele><time>2026-04-25T06:07:15.39Z</time></trkpt><trkpt lat="44.44266" lon="11.102135"><ele>175.2</ele><time>2026-04-25T06:07:16.396Z</time></trkpt><trkpt lat="44.4427467" lon="11.102075"><ele>173.39999999999998</ele><time>2026-04-25T06:07:17.39Z</time></trkpt><trkpt lat="44.442845" lon="11.1020517"><ele>171.60000000000002</ele><time>2026-04-25T06:07:18.395Z</time></trkpt><trkpt lat="44.4429433" lon="11.1020833"><ele>169.8</ele><time>2026-04-25T06:07:19.394Z</time></trkpt><trkpt lat="44.44303" lon="11.1021783"><ele>168.0</ele><time>2026-04-25T06:07:20.396Z</time></trkpt><trkpt lat="44.4431067" lon="11.1023383"><ele>169.0</ele><time>2026-04-25T06:07:21.393Z</time></trkpt><trkpt lat="44.443185" lon="11.10251"><ele>170.0</ele><time>2026-04-25T06:07:22.391Z</time></trkpt><trkpt lat="44.4432683" lon="11.1026917"><ele>171.0</ele><time>2026-04-25T06:07:23.392Z</time></trkpt><trkpt lat="44.4433617" lon="11.1028433"><ele>172.0</ele><time>2026-04-25T06:07:24.389Z</time></trkpt><trkpt lat="44.44346" lon="11.1029733"><ele>172.0</ele><time>2026-04-25T06:07:25.393Z</time></trkpt><trkpt lat="44.44355" lon="11.1030767"><ele>172.0</ele><time>2026-04-25T06:07:26.393Z</time></trkpt><trkpt lat="44.4436417" lon="11.10315"><ele>172.0</ele><time>2026-04-25T06:07:27.396Z</time></trkpt><trkpt lat="44.4437417" lon="11.1031767"><ele>172.0</ele><time>2026-04-25T06:07:28.389Z</time></trkpt><trkpt lat="44.44383" lon="11.1031533"><ele>172.0</ele><time>2026-04-25T06:07:29.393Z</time></trkpt><trkpt lat="44.4439067" lon="11.1030917"><ele>172.0</ele><time>2026-04-25T06:07:30.39Z</time></trkpt><trkpt lat="44.4439383" lon="11.10299"><ele>172.0</ele><time>2026-04-25T06:07:31.392Z</time></trkpt><trkpt lat="44.4439283" lon="11.1028667"><ele>172.0</ele><time>2026-04-25T06:07:32.392Z</time></trkpt><trkpt lat="44.4438867" lon="11.1027467"><ele>172.0</ele><time>2026-04-25T06:07:33.392Z</time></trkpt><trkpt lat="44.4437917" lon="11.1026267"><ele>172.0</ele><time>2026-04-25T06:07:34.398Z</time></trkpt><trkpt lat="44.4436883" lon="11.1024883"><ele>168.66666666666669</ele><time>2026-04-25T06:07:35.391Z</time></trkpt><trkpt lat="44.4435867" lon="11.1023133"><ele>165.33333333333334</ele><time>2026-04-25T06:07:36.394Z</time></trkpt><trkpt lat="44.44352" lon="11.1021"><ele>162.0</ele><time>2026-04-25T06:07:37.395Z</time></trkpt><trkpt lat="44.443475" lon="11.101885"><ele>162.0</ele><time>2026-04-25T06:07:38.39Z</time></trkpt><trkpt lat="44.4434233" lon="11.10168"><ele>162.0</ele><time>2026-04-25T06:07:39.39Z</time></trkpt><trkpt lat="44.4433533" lon="11.1014967"><ele>162.0</ele><time>2026-04-25T06:07:40.391Z</time></trkpt><trkpt lat="44.4432583" lon="11.101345"><ele>162.0</ele><time>2026-04-25T06:07:41.389Z</time></trkpt><trkpt lat="44.443135" lon="11.1012267"><ele>161.5</ele><time>2026-04-25T06:07:42.392Z</time></trkpt><trkpt lat="44.4429917" lon="11.1011367"><ele>161.0</ele><time>2026-04-25T06:07:43.394Z</time></trkpt><trkpt lat="44.44285" lon="11.1010717"><ele>160.5</ele><time>2026-04-25T06:07:44.395Z</time></trkpt><trkpt lat="44.4427217" lon="11.1010233"><ele>160.0</ele><time>2026-04-25T06:07:45.39Z</time></trkpt><trkpt lat="44.44261" lon="11.1009717"><ele>160.0</ele><time>2026-04-25T06:07:46.398Z</time></trkpt><trkpt lat="44.4425133" lon="11.1009"><ele>160.0</ele><time>2026-04-25T06:07:47.395Z</time></trkpt><trkpt lat="44.4424317" lon="11.1008017"><ele>160.0</ele><time>2026-04-25T06:07:48.391Z</time></trkpt><trkpt lat="44.4423683" lon="11.1006633"><ele>160.0</ele><time>2026-04-25T06:07:49.395Z</time></trkpt><trkpt lat="44.44234" lon="11.1004717"><ele>158.0</ele><time>2026-04-25T06:07:50.393Z</time></trkpt><trkpt lat="44.4423167" lon="11.1002683"><ele>156.0</ele><time>2026-04-25T06:07:51.392Z</time></trkpt><trkpt lat="44.4422917" lon="11.1000467"><ele>154.0</ele><time>2026-04-25T06:07:52.392Z</time></trkpt><trkpt lat="44.442255" lon="11.0998167"><ele>152.66666666666669</ele><time>2026-04-25T06:07:53.396Z</time></trkpt><trkpt lat="44.44222" lon="11.0995983"><ele>151.33333333333334</ele><time>2026-04-25T06:07:54.393Z</time></trkpt><trkpt lat="44.4421917" lon="11.09939"><ele>150.0</ele><time>2026-04-25T06:07:55.391Z</time></trkpt><trkpt lat="44.4421783" lon="11.099195"><ele>149.0</ele><time>2026-04-25T06:07:56.391Z</time></trkpt><trkpt lat="44.4421783" lon="11.09901"><ele>148.0</ele><time>2026-04-25T06:07:57.391Z</time></trkpt><trkpt lat="44.4421883" lon="11.0988383"><ele>147.0</ele><time>2026-04-25T06:07:58.395Z</time></trkpt><trkpt lat="44.4422033" lon="11.0986767"><ele>146.0</ele><time>2026-04-25T06:07:59.395Z</time></trkpt><trkpt lat="44.4422067" lon="11.0985083"><ele>146.0</ele><time>2026-04-25T06:08:00.392Z</time></trkpt><trkpt lat="44.44219" lon="11.0983283"><ele>146.0</ele><time>2026-04-25T06:08:01.393Z</time></trkpt><trkpt lat="44.4421433" lon="11.0981383"><ele>146.0</ele><time>2026-04-25T06:08:02.393Z</time></trkpt><trkpt lat="44.4420967" lon="11.0979283"><ele>146.0</ele><time>2026-04-25T06:08:03.389Z</time></trkpt><trkpt lat="44.442055" lon="11.097705"><ele>146.0</ele><time>2026-04-25T06:08:04.392Z</time></trkpt><trkpt lat="44.4420217" lon="11.0974617"><ele>146.0</ele><time>2026-04-25T06:08:05.394Z</time></trkpt><trkpt lat="44.4420033" lon="11.0972083"><ele>146.0</ele><time>2026-04-25T06:08:06.39Z</time></trkpt><trkpt lat="44.4419933" lon="11.0969417"><ele>145.66666666666666</ele><time>2026-04-25T06:08:07.389Z</time></trkpt><trkpt lat="44.4419917" lon="11.0966767"><ele>145.33333333333334</ele><time>2026-04-25T06:08:08.391Z</time></trkpt><trkpt lat="44.4419917" lon="11.09641"><ele>145.0</ele><time>2026-04-25T06:08:09.392Z</time></trkpt><trkpt lat="44.44199" lon="11.0961433"><ele>144.33333333333334</ele><time>2026-04-25T06:08:10.395Z</time></trkpt><trkpt lat="44.4419883" lon="11.0958767"><ele>143.66666666666666</ele><time>2026-04-25T06:08:11.392Z</time></trkpt><trkpt lat="44.4419933" lon="11.0956083"><ele>143.0</ele><time>2026-04-25T06:08:12.393Z</time></trkpt><trkpt lat="44.44201" lon="11.09534"><ele>142.33333333333331</ele><time>2026-04-25T06:08:13.39Z</time></trkpt><trkpt lat="44.44204" lon="11.0950717"><ele>141.66666666666666</ele><time>2026-04-25T06:08:14.395Z</time></trkpt><trkpt lat="44.442075" lon="11.0948033"><ele>141.0</ele><time>2026-04-25T06:08:15.391Z</time></trkpt><trkpt lat="44.4421133" lon="11.094535"><ele>140.66666666666666</ele><time>2026-04-25T06:08:16.391Z</time></trkpt><trkpt lat="44.44215" lon="11.0942617"><ele>140.33333333333331</ele><time>2026-04-25T06:08:17.391Z</time></trkpt><trkpt lat="44.442185" lon="11.09399"><ele>140.0</ele><time>2026-04-25T06:08:18.393Z</time></trkpt><trkpt lat="44.44222" lon="11.0937183"><ele>140.0</ele><time>2026-04-25T06:08:19.39Z</time></trkpt><trkpt lat="44.442255" lon="11.09345"><ele>140.0</ele><time>2026-04-25T06:08:20.388Z</time></trkpt><trkpt lat="44.4422917" lon="11.0931783"><ele>140.0</ele><time>2026-04-25T06:08:21.391Z</time></trkpt><trkpt lat="44.4423283" lon="11.09291"><ele>140.66666666666666</ele><time>2026-04-25T06:08:22.39Z</time></trkpt><trkpt lat="44.442365" lon="11.09264"><ele>141.33333333333334</ele><time>2026-04-25T06:08:23.39Z</time></trkpt><trkpt lat="44.4424017" lon="11.0923717"><ele>142.0</ele><time>2026-04-25T06:08:24.394Z</time></trkpt><trkpt lat="44.4424383" lon="11.0921017"><ele>143.0</ele><time>2026-04-25T06:08:25.392Z</time></trkpt><trkpt lat="44.4424767" lon="11.0918283"><ele>144.0</ele><time>2026-04-25T06:08:26.395Z</time></trkpt><trkpt lat="44.4425167" lon="11.0915517"><ele>145.0</ele><time>2026-04-25T06:08:27.39Z</time></trkpt><trkpt lat="44.442555" lon="11.0912733"><ele>145.66666666666669</ele><time>2026-04-25T06:08:28.398Z</time></trkpt><trkpt lat="44.442585" lon="11.0909967"><ele>146.33333333333334</ele><time>2026-04-25T06:08:29.394Z</time></trkpt><trkpt lat="44.4426117" lon="11.090735"><ele>147.0</ele><time>2026-04-25T06:08:30.39Z</time></trkpt><trkpt lat="44.44263" lon="11.0904833"><ele>147.66666666666666</ele><time>2026-04-25T06:08:31.394Z</time></trkpt><trkpt lat="44.4426367" lon="11.0902283"><ele>148.33333333333331</ele><time>2026-04-25T06:08:32.392Z</time></trkpt><trkpt lat="44.44262" lon="11.0899683"><ele>149.0</ele><time>2026-04-25T06:08:33.39Z</time></trkpt><trkpt lat="44.4425883" lon="11.0897067"><ele>150.33333333333331</ele><time>2026-04-25T06:08:34.395Z</time></trkpt><trkpt lat="44.4425433" lon="11.0894533"><ele>151.66666666666666</ele><time>2026-04-25T06:08:35.39Z</time></trkpt><trkpt lat="44.44249" lon="11.0891983"><ele>153.0</ele><time>2026-04-25T06:08:36.392Z</time></trkpt><trkpt lat="44.4424333" lon="11.0889433"><ele>154.33333333333334</ele><time>2026-04-25T06:08:37.394Z</time></trkpt><trkpt lat="44.4423683" lon="11.0886867"><ele>155.66666666666669</ele><time>2026-04-25T06:08:38.392Z</time></trkpt><trkpt lat="44.4423033" lon="11.0884283"><ele>157.0</ele><time>2026-04-25T06:08:39.395Z</time></trkpt><trkpt lat="44.442245" lon="11.0881683"><ele>157.0</ele><time>2026-04-25T06:08:40.395Z</time></trkpt><trkpt lat="44.4422033" lon="11.087905"><ele>157.0</ele><time>2026-04-25T06:08:41.395Z</time></trkpt><trkpt lat="44.44218" lon="11.0876383"><ele>157.0</ele><time>2026-04-25T06:08:42.394Z</time></trkpt><trkpt lat="44.442175" lon="11.0873667"><ele>158.0</ele><time>2026-04-25T06:08:43.39Z</time></trkpt><trkpt lat="44.4421767" lon="11.0871067"><ele>159.0</ele><time>2026-04-25T06:08:44.391Z</time></trkpt><trkpt lat="44.4421833" lon="11.0868717"><ele>160.0</ele><time>2026-04-25T06:08:45.389Z</time></trkpt><trkpt lat="44.44219" lon="11.08667"><ele>160.6</ele><time>2026-04-25T06:08:46.4Z</time></trkpt><trkpt lat="44.4421967" lon="11.0864983"><ele>161.2</ele><time>2026-04-25T06:08:47.392Z</time></trkpt><trkpt lat="44.4422017" lon="11.0863517"><ele>161.8</ele><time>2026-04-25T06:08:48.392Z</time></trkpt><trkpt lat="44.442205" lon="11.08622"><ele>162.4</ele><time>2026-04-25T06:08:49.389Z</time></trkpt><trkpt lat="44.4422067" lon="11.0860833"><ele>163.0</ele><time>2026-04-25T06:08:50.396Z</time></trkpt><trkpt lat="44.44221" lon="11.0859217"><ele>163.25</ele><time>2026-04-25T06:08:51.39Z</time></trkpt><trkpt lat="44.442225" lon="11.0857433"><ele>163.5</ele><time>2026-04-25T06:08:52.392Z</time></trkpt><trkpt lat="44.442235" lon="11.0855583"><ele>163.75</ele><time>2026-04-25T06:08:53.395Z</time></trkpt><trkpt lat="44.4422433" lon="11.085355"><ele>164.0</ele><time>2026-04-25T06:08:54.391Z</time></trkpt><trkpt lat="44.44225" lon="11.0851367"><ele>165.0</ele><time>2026-04-25T06:08:55.393Z</time></trkpt><trkpt lat="44.44226" lon="11.0849083"><ele>166.0</ele><time>2026-04-25T06:08:56.393Z</time></trkpt><trkpt lat="44.44226" lon="11.084665"><ele>167.0</ele><time>2026-04-25T06:08:57.392Z</time></trkpt><trkpt lat="44.44225" lon="11.084415"><ele>167.0</ele><time>2026-04-25T06:08:58.389Z</time></trkpt><trkpt lat="44.4422317" lon="11.0841583"><ele>167.0</ele><time>2026-04-25T06:08:59.39Z</time></trkpt><trkpt lat="44.4422067" lon="11.0838917"><ele>167.0</ele><time>2026-04-25T06:09:00.392Z</time></trkpt><trkpt lat="44.44218" lon="11.083615"><ele>167.33333333333331</ele><time>2026-04-25T06:09:01.388Z</time></trkpt><trkpt lat="44.4421533" lon="11.0833483"><ele>167.66666666666666</ele><time>2026-04-25T06:09:02.395Z</time></trkpt><trkpt lat="44.4421233" lon="11.0830933"><ele>168.0</ele><time>2026-04-25T06:09:03.394Z</time></trkpt><trkpt lat="44.4420883" lon="11.08284"><ele>170.66666666666666</ele><time>2026-04-25T06:09:04.391Z</time></trkpt><trkpt lat="44.442045" lon="11.08259"><ele>173.33333333333331</ele><time>2026-04-25T06:09:05.393Z</time></trkpt><trkpt lat="44.4419883" lon="11.082345"><ele>176.0</ele><time>2026-04-25T06:09:06.398Z</time></trkpt><trkpt lat="44.44192" lon="11.0821067"><ele>176.66666666666666</ele><time>2026-04-25T06:09:07.394Z</time></trkpt><trkpt lat="44.4418333" lon="11.081875"><ele>177.33333333333334</ele><time>2026-04-25T06:09:08.393Z</time></trkpt><trkpt lat="44.4417317" lon="11.08165"><ele>178.0</ele><time>2026-04-25T06:09:09.393Z</time></trkpt><trkpt lat="44.4416183" lon="11.0814317"><ele>178.0</ele><time>2026-04-25T06:09:10.391Z</time></trkpt><trkpt lat="44.4414917" lon="11.0812117"><ele>178.0</ele><time>2026-04-25T06:09:11.397Z</time></trkpt><trkpt lat="44.4413667" lon="11.08099"><ele>178.0</ele><time>2026-04-25T06:09:12.391Z</time></trkpt><trkpt lat="44.44125" lon="11.0807717"><ele>178.33333333333334</ele><time>2026-04-25T06:09:13.393Z</time></trkpt><trkpt lat="44.4411467" lon="11.08056"><ele>178.66666666666666</ele><time>2026-04-25T06:09:14.392Z</time></trkpt><trkpt lat="44.4410533" lon="11.0803483"><ele>179.0</ele><time>2026-04-25T06:09:15.395Z</time></trkpt><trkpt lat="44.4409783" lon="11.080135"><ele>179.66666666666666</ele><time>2026-04-25T06:09:16.401Z</time></trkpt><trkpt lat="44.4409233" lon="11.0799083"><ele>180.33333333333334</ele><time>2026-04-25T06:09:17.393Z</time></trkpt><trkpt lat="44.440895" lon="11.0796683"><ele>181.0</ele><time>2026-04-25T06:09:18.395Z</time></trkpt><trkpt lat="44.44089" lon="11.0794183"><ele>181.0</ele><time>2026-04-25T06:09:19.39Z</time></trkpt><trkpt lat="44.440905" lon="11.0791617"><ele>181.0</ele><time>2026-04-25T06:09:20.394Z</time></trkpt><trkpt lat="44.4409283" lon="11.0788967"><ele>181.0</ele><time>2026-04-25T06:09:21.393Z</time></trkpt><trkpt lat="44.4409567" lon="11.0786267"><ele>181.33333333333334</ele><time>2026-04-25T06:09:22.393Z</time></trkpt><trkpt lat="44.4409817" lon="11.0783567"><ele>181.66666666666666</ele><time>2026-04-25T06:09:23.39Z</time></trkpt><trkpt lat="44.441" lon="11.078095"><ele>182.0</ele><time>2026-04-25T06:09:24.392Z</time></trkpt><trkpt lat="44.441025" lon="11.0778367"><ele>182.0</ele><time>2026-04-25T06:09:25.394Z</time></trkpt><trkpt lat="44.4410517" lon="11.0775767"><ele>182.0</ele><time>2026-04-25T06:09:26.4Z</time></trkpt><trkpt lat="44.4410783" lon="11.0773117"><ele>182.0</ele><time>2026-04-25T06:09:27.391Z</time></trkpt><trkpt lat="44.4410983" lon="11.0770383"><ele>182.33333333333331</ele><time>2026-04-25T06:09:28.395Z</time></trkpt><trkpt lat="44.4411117" lon="11.07676"><ele>182.66666666666666</ele><time>2026-04-25T06:09:29.392Z</time></trkpt><trkpt lat="44.4411183" lon="11.076475"><ele>183.0</ele><time>2026-04-25T06:09:30.4Z</time></trkpt><trkpt lat="44.441115" lon="11.0761833"><ele>183.33333333333334</ele><time>2026-04-25T06:09:31.395Z</time></trkpt><trkpt lat="44.4411067" lon="11.0758917"><ele>183.66666666666669</ele><time>2026-04-25T06:09:32.392Z</time></trkpt><trkpt lat="44.441095" lon="11.0756117"><ele>184.0</ele><time>2026-04-25T06:09:33.394Z</time></trkpt><trkpt lat="44.4410867" lon="11.0753383"><ele>184.33333333333334</ele><time>2026-04-25T06:09:34.397Z</time></trkpt><trkpt lat="44.4410783" lon="11.075065"><ele>184.66666666666666</ele><time>2026-04-25T06:09:35.399Z</time></trkpt><trkpt lat="44.44107" lon="11.0747883"><ele>185.0</ele><time>2026-04-25T06:09:36.39Z</time></trkpt><trkpt lat="44.4410633" lon="11.0745083"><ele>185.33333333333331</ele><time>2026-04-25T06:09:37.398Z</time></trkpt><trkpt lat="44.4410567" lon="11.074225"><ele>185.66666666666666</ele><time>2026-04-25T06:09:38.391Z</time></trkpt><trkpt lat="44.44105" lon="11.0739533"><ele>186.0</ele><time>2026-04-25T06:09:39.394Z</time></trkpt><trkpt lat="44.441045" lon="11.0736833"><ele>186.0</ele><time>2026-04-25T06:09:40.389Z</time></trkpt><trkpt lat="44.4410417" lon="11.07341"><ele>186.0</ele><time>2026-04-25T06:09:41.392Z</time></trkpt><trkpt lat="44.4410383" lon="11.0731333"><ele>186.0</ele><time>2026-04-25T06:09:42.391Z</time></trkpt><trkpt lat="44.4410417" lon="11.0728517"><ele>185.66666666666666</ele><time>2026-04-25T06:09:43.395Z</time></trkpt><trkpt lat="44.4410467" lon="11.0725667"><ele>185.33333333333331</ele><time>2026-04-25T06:09:44.396Z</time></trkpt><trkpt lat="44.4410583" lon="11.072285"><ele>185.0</ele><time>2026-04-25T06:09:45.392Z</time></trkpt><trkpt lat="44.441075" lon="11.0720033"><ele>183.0</ele><time>2026-04-25T06:09:46.39Z</time></trkpt><trkpt lat="44.4411" lon="11.0717233"><ele>181.0</ele><time>2026-04-25T06:09:47.391Z</time></trkpt><trkpt lat="44.4411367" lon="11.0714417"><ele>179.0</ele><time>2026-04-25T06:09:48.397Z</time></trkpt><trkpt lat="44.4411767" lon="11.071155"><ele>177.66666666666666</ele><time>2026-04-25T06:09:49.395Z</time></trkpt><trkpt lat="44.4412183" lon="11.070855"><ele>176.33333333333334</ele><time>2026-04-25T06:09:50.393Z</time></trkpt><trkpt lat="44.4412617" lon="11.0705517"><ele>175.0</ele><time>2026-04-25T06:09:51.397Z</time></trkpt><trkpt lat="44.4413017" lon="11.0702567"><ele>173.66666666666669</ele><time>2026-04-25T06:09:52.394Z</time></trkpt><trkpt lat="44.4413383" lon="11.0699783"><ele>172.33333333333334</ele><time>2026-04-25T06:09:53.392Z</time></trkpt><trkpt lat="44.441375" lon="11.0697083"><ele>171.0</ele><time>2026-04-25T06:09:54.394Z</time></trkpt><trkpt lat="44.4414117" lon="11.0694433"><ele>171.0</ele><time>2026-04-25T06:09:55.395Z</time></trkpt><trkpt lat="44.4414483" lon="11.069195"><ele>171.0</ele><time>2026-04-25T06:09:56.389Z</time></trkpt><trkpt lat="44.4414783" lon="11.0689667"><ele>171.0</ele><time>2026-04-25T06:09:57.392Z</time></trkpt><trkpt lat="44.4415083" lon="11.068745"><ele>171.5</ele><time>2026-04-25T06:09:58.392Z</time></trkpt><trkpt lat="44.4415383" lon="11.06853"><ele>172.0</ele><time>2026-04-25T06:09:59.394Z</time></trkpt><trkpt lat="44.4415683" lon="11.06834"><ele>172.5</ele><time>2026-04-25T06:10:00.392Z</time></trkpt><trkpt lat="44.44159" lon="11.0681767"><ele>173.0</ele><time>2026-04-25T06:10:01.39Z</time></trkpt><trkpt lat="44.4415867" lon="11.0680333"><ele>174.5</ele><time>2026-04-25T06:10:02.394Z</time></trkpt><trkpt lat="44.4415483" lon="11.0678983"><ele>176.0</ele><time>2026-04-25T06:10:03.395Z</time></trkpt><trkpt lat="44.4414867" lon="11.0677783"><ele>177.5</ele><time>2026-04-25T06:10:04.395Z</time></trkpt><trkpt lat="44.441415" lon="11.0676533"><ele>179.0</ele><time>2026-04-25T06:10:05.393Z</time></trkpt><trkpt lat="44.4413367" lon="11.0675117"><ele>178.66666666666666</ele><time>2026-04-25T06:10:06.394Z</time></trkpt><trkpt lat="44.44125" lon="11.06735"><ele>178.33333333333334</ele><time>2026-04-25T06:10:07.391Z</time></trkpt><trkpt lat="44.4411583" lon="11.0671783"><ele>178.0</ele><time>2026-04-25T06:10:08.391Z</time></trkpt><trkpt lat="44.44106" lon="11.0670033"><ele>178.0</ele><time>2026-04-25T06:10:09.393Z</time></trkpt><trkpt lat="44.4409483" lon="11.0668317"><ele>178.0</ele><time>2026-04-25T06:10:10.391Z</time></trkpt><trkpt lat="44.4408183" lon="11.066675"><ele>178.0</ele><time>2026-04-25T06:10:11.395Z</time></trkpt><trkpt lat="44.4406717" lon="11.0665317"><ele>178.33333333333334</ele><time>2026-04-25T06:10:12.389Z</time></trkpt><trkpt lat="44.4405183" lon="11.066395"><ele>178.66666666666666</ele><time>2026-04-25T06:10:13.389Z</time></trkpt><trkpt lat="44.4403633" lon="11.06626"><ele>179.0</ele><time>2026-04-25T06:10:14.391Z</time></trkpt><trkpt lat="44.4402083" lon="11.0661217"><ele>179.0</ele><time>2026-04-25T06:10:15.392Z</time></trkpt><trkpt lat="44.4400467" lon="11.065975"><ele>179.0</ele><time>2026-04-25T06:10:16.391Z</time></trkpt><trkpt lat="44.4398817" lon="11.0658217"><ele>179.0</ele><time>2026-04-25T06:10:17.391Z</time></trkpt><trkpt lat="44.439715" lon="11.0656667"><ele>181.0</ele><time>2026-04-25T06:10:18.392Z</time></trkpt><trkpt lat="44.439555" lon="11.0655217"><ele>183.0</ele><time>2026-04-25T06:10:19.393Z</time></trkpt><trkpt lat="44.4394033" lon="11.0653883"><ele>185.0</ele><time>2026-04-25T06:10:20.393Z</time></trkpt><trkpt lat="44.4392533" lon="11.0652567"><ele>185.0</ele><time>2026-04-25T06:10:21.392Z</time></trkpt><trkpt lat="44.4390967" lon="11.06511"><ele>185.0</ele><time>2026-04-25T06:10:22.394Z</time></trkpt><trkpt lat="44.4389417" lon="11.0649517"><ele>185.0</ele><time>2026-04-25T06:10:23.395Z</time></trkpt><trkpt lat="44.4387883" lon="11.0647833"><ele>186.33333333333331</ele><time>2026-04-25T06:10:24.399Z</time></trkpt><trkpt lat="44.4386367" lon="11.0646167"><ele>187.66666666666666</ele><time>2026-04-25T06:10:25.389Z</time></trkpt><trkpt lat="44.43848" lon="11.0644483"><ele>189.0</ele><time>2026-04-25T06:10:26.393Z</time></trkpt><trkpt lat="44.4383217" lon="11.064285"><ele>189.0</ele><time>2026-04-25T06:10:27.394Z</time></trkpt><trkpt lat="44.4381633" lon="11.0641333"><ele>189.0</ele><time>2026-04-25T06:10:28.39Z</time></trkpt><trkpt lat="44.4379983" lon="11.0639883"><ele>189.0</ele><time>2026-04-25T06:10:29.393Z</time></trkpt><trkpt lat="44.437835" lon="11.06384"><ele>190.33333333333331</ele><time>2026-04-25T06:10:30.394Z</time></trkpt><trkpt lat="44.4376683" lon="11.0636933"><ele>191.66666666666666</ele><time>2026-04-25T06:10:31.391Z</time></trkpt><trkpt lat="44.4375" lon="11.0635483"><ele>193.0</ele><time>2026-04-25T06:10:32.392Z</time></trkpt><trkpt lat="44.4373267" lon="11.063405"><ele>193.0</ele><time>2026-04-25T06:10:33.389Z</time></trkpt><trkpt lat="44.4371517" lon="11.0632567"><ele>193.0</ele><time>2026-04-25T06:10:34.393Z</time></trkpt><trkpt lat="44.4369783" lon="11.0631"><ele>193.0</ele><time>2026-04-25T06:10:35.392Z</time></trkpt><trkpt lat="44.4368033" lon="11.0629383"><ele>193.0</ele><time>2026-04-25T06:10:36.394Z</time></trkpt><trkpt lat="44.4366283" lon="11.0627717"><ele>193.0</ele><time>2026-04-25T06:10:37.393Z</time></trkpt><trkpt lat="44.4364517" lon="11.0626083"><ele>193.0</ele><time>2026-04-25T06:10:38.394Z</time></trkpt><trkpt lat="44.436275" lon="11.0624433"><ele>193.66666666666666</ele><time>2026-04-25T06:10:39.388Z</time></trkpt><trkpt lat="44.436095" lon="11.0622783"><ele>194.33333333333331</ele><time>2026-04-25T06:10:40.39Z</time></trkpt><trkpt lat="44.4359183" lon="11.0621133"><ele>195.0</ele><time>2026-04-25T06:10:41.394Z</time></trkpt><trkpt lat="44.4357617" lon="11.0619533"><ele>195.0</ele><time>2026-04-25T06:10:42.389Z</time></trkpt><trkpt lat="44.435625" lon="11.061805"><ele>195.0</ele><time>2026-04-25T06:10:43.39Z</time></trkpt><trkpt lat="44.4355033" lon="11.061665"><ele>195.0</ele><time>2026-04-25T06:10:44.394Z</time></trkpt><trkpt lat="44.435395" lon="11.0615383"><ele>195.4</ele><time>2026-04-25T06:10:45.394Z</time></trkpt><trkpt lat="44.4353" lon="11.06142"><ele>195.8</ele><time>2026-04-25T06:10:46.391Z</time></trkpt><trkpt lat="44.435215" lon="11.0613117"><ele>196.2</ele><time>2026-04-25T06:10:47.392Z</time></trkpt><trkpt lat="44.4351467" lon="11.0612033"><ele>196.6</ele><time>2026-04-25T06:10:48.391Z</time></trkpt><trkpt lat="44.4351067" lon="11.0610933"><ele>197.0</ele><time>2026-04-25T06:10:49.393Z</time></trkpt><trkpt lat="44.4350867" lon="11.0609733"><ele>197.0</ele><time>2026-04-25T06:10:50.396Z</time></trkpt><trkpt lat="44.4350683" lon="11.0608333"><ele>197.0</ele><time>2026-04-25T06:10:51.393Z</time></trkpt><trkpt lat="44.43504" lon="11.060665"><ele>197.0</ele><time>2026-04-25T06:10:52.393Z</time></trkpt><trkpt lat="44.4350067" lon="11.0604817"><ele>197.0</ele><time>2026-04-25T06:10:53.39Z</time></trkpt><trkpt lat="44.4349733" lon="11.0602833"><ele>197.33333333333334</ele><time>2026-04-25T06:10:54.396Z</time></trkpt><trkpt lat="44.4349533" lon="11.0600767"><ele>197.66666666666669</ele><time>2026-04-25T06:10:55.391Z</time></trkpt><trkpt lat="44.4349467" lon="11.059865"><ele>198.0</ele><time>2026-04-25T06:10:56.392Z</time></trkpt><trkpt lat="44.4349533" lon="11.0596433"><ele>198.0</ele><time>2026-04-25T06:10:57.393Z</time></trkpt><trkpt lat="44.434975" lon="11.0594067"><ele>198.0</ele><time>2026-04-25T06:10:58.391Z</time></trkpt><trkpt lat="44.4349983" lon="11.0591583"><ele>198.0</ele><time>2026-04-25T06:10:59.394Z</time></trkpt><trkpt lat="44.435015" lon="11.058895"><ele>196.66666666666669</ele><time>2026-04-25T06:11:00.389Z</time></trkpt><trkpt lat="44.4350283" lon="11.0586317"><ele>195.33333333333334</ele><time>2026-04-25T06:11:01.393Z</time></trkpt><trkpt lat="44.4350383" lon="11.058385"><ele>194.0</ele><time>2026-04-25T06:11:02.396Z</time></trkpt><trkpt lat="44.4350483" lon="11.058145"><ele>193.66666666666669</ele><time>2026-04-25T06:11:03.392Z</time></trkpt><trkpt lat="44.4350583" lon="11.057905"><ele>193.33333333333331</ele><time>2026-04-25T06:11:04.395Z</time></trkpt><trkpt lat="44.43507" lon="11.05768"><ele>193.0</ele><time>2026-04-25T06:11:05.397Z</time></trkpt><trkpt lat="44.4350817" lon="11.0574933"><ele>192.83333333333331</ele><time>2026-04-25T06:11:06.393Z</time></trkpt><trkpt lat="44.43509" lon="11.0573533"><ele>192.66666666666666</ele><time>2026-04-25T06:11:07.392Z</time></trkpt><trkpt lat="44.4350917" lon="11.05725"><ele>192.5</ele><time>2026-04-25T06:11:08.391Z</time></trkpt><trkpt lat="44.4350567" lon="11.0571267"><ele>192.33333333333331</ele><time>2026-04-25T06:11:10.391Z</time></trkpt><trkpt lat="44.4349883" lon="11.0570633"><ele>192.16666666666666</ele><time>2026-04-25T06:11:12.391Z</time></trkpt><trkpt lat="44.434915" lon="11.0570733"><ele>192.0</ele><time>2026-04-25T06:11:15.391Z</time></trkpt><trkpt lat="44.434935" lon="11.0571583"><ele>192.0</ele><time>2026-04-25T06:16:57.391Z</time></trkpt><trkpt lat="44.4349967" lon="11.0572"><ele>192.0</ele><time>2026-04-25T06:17:00.392Z</time></trkpt><trkpt lat="44.4350683" lon="11.057235"><ele>192.0</ele><time>2026-04-25T06:17:03.391Z</time></trkpt><trkpt lat="44.4351017" lon="11.0573133"><ele>192.0</ele><time>2026-04-25T06:17:05.39Z</time></trkpt><trkpt lat="44.4350933" lon="11.0574917"><ele>192.0</ele><time>2026-04-25T06:17:07.394Z</time></trkpt><trkpt lat="44.4350783" lon="11.057615"><ele>192.0</ele><time>2026-04-25T06:17:08.391Z</time></trkpt><trkpt lat="44.43507" lon="11.0577433"><ele>192.2</ele><time>2026-04-25T06:17:09.389Z</time></trkpt><trkpt lat="44.43506" lon="11.05788"><ele>192.39999999999998</ele><time>2026-04-25T06:17:10.39Z</time></trkpt><trkpt lat="44.4350467" lon="11.058025"><ele>192.60000000000002</ele><time>2026-04-25T06:17:11.388Z</time></trkpt><trkpt lat="44.435035" lon="11.0581733"><ele>192.8</ele><time>2026-04-25T06:17:12.392Z</time></trkpt><trkpt lat="44.4350267" lon="11.0583267"><ele>193.0</ele><time>2026-04-25T06:17:13.391Z</time></trkpt><trkpt lat="44.4350217" lon="11.05848"><ele>193.25</ele><time>2026-04-25T06:17:14.388Z</time></trkpt><trkpt lat="44.4350167" lon="11.058645"><ele>193.5</ele><time>2026-04-25T06:17:15.393Z</time></trkpt><trkpt lat="44.4350067" lon="11.0588133"><ele>193.75</ele><time>2026-04-25T06:17:16.389Z</time></trkpt><trkpt lat="44.4349967" lon="11.058975"><ele>194.0</ele><time>2026-04-25T06:17:17.395Z</time></trkpt><trkpt lat="44.4349867" lon="11.0591333"><ele>195.0</ele><time>2026-04-25T06:17:18.391Z</time></trkpt><trkpt lat="44.4349767" lon="11.0592867"><ele>196.0</ele><time>2026-04-25T06:17:19.397Z</time></trkpt><trkpt lat="44.4349667" lon="11.05945"><ele>197.0</ele><time>2026-04-25T06:17:20.392Z</time></trkpt><trkpt lat="44.434955" lon="11.059625"><ele>198.0</ele><time>2026-04-25T06:17:21.393Z</time></trkpt><trkpt lat="44.4349483" lon="11.0598117"><ele>198.2</ele><time>2026-04-25T06:17:22.397Z</time></trkpt><trkpt lat="44.4349467" lon="11.0599817"><ele>198.4</ele><time>2026-04-25T06:17:23.396Z</time></trkpt><trkpt lat="44.434945" lon="11.0601317"><ele>198.6</ele><time>2026-04-25T06:17:24.394Z</time></trkpt><trkpt lat="44.4349467" lon="11.0602733"><ele>198.79999999999998</ele><time>2026-04-25T06:17:25.391Z</time></trkpt><trkpt lat="44.4349567" lon="11.0604"><ele>199.0</ele><time>2026-04-25T06:17:26.389Z</time></trkpt><trkpt lat="44.4349583" lon="11.060505"><ele>199.0</ele><time>2026-04-25T06:17:27.391Z</time></trkpt><trkpt lat="44.43491" lon="11.060645"><ele>199.0</ele><time>2026-04-25T06:17:29.39Z</time></trkpt><trkpt lat="44.4347733" lon="11.0606667"><ele>199.0</ele><time>2026-04-25T06:17:31.391Z</time></trkpt><trkpt lat="44.4346817" lon="11.06062"><ele>199.0</ele><time>2026-04-25T06:17:32.396Z</time></trkpt><trkpt lat="44.4345717" lon="11.0605433"><ele>200.5</ele><time>2026-04-25T06:17:33.391Z</time></trkpt><trkpt lat="44.4344483" lon="11.0604667"><ele>202.0</ele><time>2026-04-25T06:17:34.389Z</time></trkpt><trkpt lat="44.4343133" lon="11.0604033"><ele>203.5</ele><time>2026-04-25T06:17:35.391Z</time></trkpt><trkpt lat="44.4341717" lon="11.0603517"><ele>205.0</ele><time>2026-04-25T06:17:36.39Z</time></trkpt><trkpt lat="44.4340267" lon="11.06031"><ele>205.0</ele><time>2026-04-25T06:17:37.394Z</time></trkpt><trkpt lat="44.433885" lon="11.0602733"><ele>205.0</ele><time>2026-04-25T06:17:38.394Z</time></trkpt><trkpt lat="44.43374" lon="11.060245"><ele>205.0</ele><time>2026-04-25T06:17:39.394Z</time></trkpt><trkpt lat="44.4335917" lon="11.0602217"><ele>205.0</ele><time>2026-04-25T06:17:40.392Z</time></trkpt><trkpt lat="44.43344" lon="11.0602"><ele>206.66666666666666</ele><time>2026-04-25T06:17:41.391Z</time></trkpt><trkpt lat="44.4332917" lon="11.0601733"><ele>208.33333333333331</ele><time>2026-04-25T06:17:42.39Z</time></trkpt><trkpt lat="44.4331433" lon="11.0601417"><ele>210.0</ele><time>2026-04-25T06:17:43.392Z</time></trkpt><trkpt lat="44.4329967" lon="11.0600967"><ele>209.66666666666669</ele><time>2026-04-25T06:17:44.397Z</time></trkpt><trkpt lat="44.43285" lon="11.0600383"><ele>209.33333333333334</ele><time>2026-04-25T06:17:45.394Z</time></trkpt><trkpt lat="44.432705" lon="11.05998"><ele>209.0</ele><time>2026-04-25T06:17:46.398Z</time></trkpt><trkpt lat="44.4325633" lon="11.059925"><ele>214.0</ele><time>2026-04-25T06:17:47.39Z</time></trkpt><trkpt lat="44.4324233" lon="11.0598683"><ele>219.0</ele><time>2026-04-25T06:17:48.392Z</time></trkpt><trkpt lat="44.432275" lon="11.0598133"><ele>224.0</ele><time>2026-04-25T06:17:49.392Z</time></trkpt><trkpt lat="44.4321217" lon="11.05977"><ele>224.0</ele><time>2026-04-25T06:17:50.393Z</time></trkpt><trkpt lat="44.4319633" lon="11.0597333"><ele>224.0</ele><time>2026-04-25T06:17:51.396Z</time></trkpt><trkpt lat="44.4318067" lon="11.05969"><ele>224.0</ele><time>2026-04-25T06:17:52.398Z</time></trkpt><trkpt lat="44.4316467" lon="11.0596433"><ele>224.0</ele><time>2026-04-25T06:17:53.395Z</time></trkpt><trkpt lat="44.4314867" lon="11.0595933"><ele>224.0</ele><time>2026-04-25T06:17:54.396Z</time></trkpt><trkpt lat="44.4313333" lon="11.059535"><ele>224.0</ele><time>2026-04-25T06:17:55.398Z</time></trkpt><trkpt lat="44.4311783" lon="11.0594767"><ele>222.0</ele><time>2026-04-25T06:17:56.393Z</time></trkpt><trkpt lat="44.4310233" lon="11.059415"><ele>220.0</ele><time>2026-04-25T06:17:57.394Z</time></trkpt><trkpt lat="44.43087" lon="11.0593483"><ele>218.0</ele><time>2026-04-25T06:17:58.393Z</time></trkpt><trkpt lat="44.4307133" lon="11.059275"><ele>218.0</ele><time>2026-04-25T06:17:59.394Z</time></trkpt><trkpt lat="44.430555" lon="11.0592033"><ele>218.0</ele><time>2026-04-25T06:18:00.393Z</time></trkpt><trkpt lat="44.4303983" lon="11.0591317"><ele>218.0</ele><time>2026-04-25T06:18:01.395Z</time></trkpt><trkpt lat="44.4302417" lon="11.0590617"><ele>221.0</ele><time>2026-04-25T06:18:02.394Z</time></trkpt><trkpt lat="44.43009" lon="11.0589917"><ele>224.0</ele><time>2026-04-25T06:18:03.395Z</time></trkpt><trkpt lat="44.4299433" lon="11.058925"><ele>227.0</ele><time>2026-04-25T06:18:04.393Z</time></trkpt><trkpt lat="44.4297967" lon="11.0588533"><ele>227.0</ele><time>2026-04-25T06:18:05.393Z</time></trkpt><trkpt lat="44.4296467" lon="11.05878"><ele>227.0</ele><time>2026-04-25T06:18:06.395Z</time></trkpt><trkpt lat="44.4294933" lon="11.0587067"><ele>227.0</ele><time>2026-04-25T06:18:07.392Z</time></trkpt><trkpt lat="44.4293367" lon="11.058635"><ele>224.33333333333334</ele><time>2026-04-25T06:18:08.394Z</time></trkpt><trkpt lat="44.4291817" lon="11.05856"><ele>221.66666666666669</ele><time>2026-04-25T06:18:09.391Z</time></trkpt><trkpt lat="44.42903" lon="11.0584867"><ele>219.0</ele><time>2026-04-25T06:18:10.393Z</time></trkpt><trkpt lat="44.4288817" lon="11.058415"><ele>218.0</ele><time>2026-04-25T06:18:11.395Z</time></trkpt><trkpt lat="44.428735" lon="11.0583467"><ele>217.0</ele><time>2026-04-25T06:18:12.391Z</time></trkpt><trkpt lat="44.42859" lon="11.0582817"><ele>216.0</ele><time>2026-04-25T06:18:13.392Z</time></trkpt><trkpt lat="44.4284433" lon="11.0582217"><ele>219.33333333333331</ele><time>2026-04-25T06:18:14.396Z</time></trkpt><trkpt lat="44.4282933" lon="11.0581733"><ele>222.66666666666666</ele><time>2026-04-25T06:18:15.396Z</time></trkpt><trkpt lat="44.4281367" lon="11.058145"><ele>226.0</ele><time>2026-04-25T06:18:16.395Z</time></trkpt><trkpt lat="44.4279733" lon="11.0581367"><ele>226.0</ele><time>2026-04-25T06:18:17.396Z</time></trkpt><trkpt lat="44.4278083" lon="11.0581433"><ele>226.0</ele><time>2026-04-25T06:18:18.395Z</time></trkpt><trkpt lat="44.4276433" lon="11.0581517"><ele>226.0</ele><time>2026-04-25T06:18:19.393Z</time></trkpt><trkpt lat="44.4274867" lon="11.0581617"><ele>226.0</ele><time>2026-04-25T06:18:20.391Z</time></trkpt><trkpt lat="44.427325" lon="11.0581667"><ele>226.0</ele><time>2026-04-25T06:18:21.395Z</time></trkpt><trkpt lat="44.4271567" lon="11.058165"><ele>226.0</ele><time>2026-04-25T06:18:22.396Z</time></trkpt><trkpt lat="44.42699" lon="11.0581533"><ele>224.66666666666666</ele><time>2026-04-25T06:18:23.397Z</time></trkpt><trkpt lat="44.4268333" lon="11.05813"><ele>223.33333333333331</ele><time>2026-04-25T06:18:24.395Z</time></trkpt><trkpt lat="44.426675" lon="11.0580967"><ele>222.0</ele><time>2026-04-25T06:18:25.392Z</time></trkpt><trkpt lat="44.4265167" lon="11.0580567"><ele>222.0</ele><time>2026-04-25T06:18:26.4Z</time></trkpt><trkpt lat="44.4263533" lon="11.058015"><ele>222.0</ele><time>2026-04-25T06:18:27.393Z</time></trkpt><trkpt lat="44.4261867" lon="11.0579917"><ele>222.0</ele><time>2026-04-25T06:18:28.393Z</time></trkpt><trkpt lat="44.4260233" lon="11.0580017"><ele>221.0</ele><time>2026-04-25T06:18:29.398Z</time></trkpt><trkpt lat="44.425865" lon="11.0580267"><ele>220.0</ele><time>2026-04-25T06:18:30.394Z</time></trkpt><trkpt lat="44.4257117" lon="11.0580633"><ele>219.0</ele><time>2026-04-25T06:18:31.394Z</time></trkpt><trkpt lat="44.425565" lon="11.058105"><ele>218.75</ele><time>2026-04-25T06:18:32.395Z</time></trkpt><trkpt lat="44.4254217" lon="11.0581567"><ele>218.5</ele><time>2026-04-25T06:18:33.391Z</time></trkpt><trkpt lat="44.4252833" lon="11.05822"><ele>218.25</ele><time>2026-04-25T06:18:34.394Z</time></trkpt><trkpt lat="44.4251417" lon="11.0582883"><ele>218.0</ele><time>2026-04-25T06:18:35.394Z</time></trkpt><trkpt lat="44.425" lon="11.0583633"><ele>215.75</ele><time>2026-04-25T06:18:36.392Z</time></trkpt><trkpt lat="44.4248617" lon="11.0584367"><ele>213.5</ele><time>2026-04-25T06:18:37.394Z</time></trkpt><trkpt lat="44.424735" lon="11.0585017"><ele>211.25</ele><time>2026-04-25T06:18:38.391Z</time></trkpt><trkpt lat="44.424615" lon="11.0585667"><ele>209.0</ele><time>2026-04-25T06:18:39.394Z</time></trkpt><trkpt lat="44.4245017" lon="11.05863"><ele>208.6</ele><time>2026-04-25T06:18:40.391Z</time></trkpt><trkpt lat="44.424395" lon="11.058685"><ele>208.2</ele><time>2026-04-25T06:18:41.389Z</time></trkpt><trkpt lat="44.4242933" lon="11.058735"><ele>207.79999999999998</ele><time>2026-04-25T06:18:42.39Z</time></trkpt><trkpt lat="44.42419" lon="11.0587767"><ele>207.39999999999998</ele><time>2026-04-25T06:18:43.39Z</time></trkpt><trkpt lat="44.424085" lon="11.0587983"><ele>207.0</ele><time>2026-04-25T06:18:44.392Z</time></trkpt><trkpt lat="44.4239817" lon="11.0587933"><ele>207.0</ele><time>2026-04-25T06:18:45.39Z</time></trkpt><trkpt lat="44.4238783" lon="11.0587517"><ele>207.0</ele><time>2026-04-25T06:18:46.392Z</time></trkpt><trkpt lat="44.4237833" lon="11.058685"><ele>207.0</ele><time>2026-04-25T06:18:47.389Z</time></trkpt><trkpt lat="44.4236933" lon="11.05859"><ele>207.0</ele><time>2026-04-25T06:18:48.399Z</time></trkpt><trkpt lat="44.4235917" lon="11.0584817"><ele>207.0</ele><time>2026-04-25T06:18:49.389Z</time></trkpt><trkpt lat="44.4234783" lon="11.0583583"><ele>207.0</ele><time>2026-04-25T06:18:50.395Z</time></trkpt><trkpt lat="44.423355" lon="11.0582267"><ele>207.0</ele><time>2026-04-25T06:18:51.392Z</time></trkpt><trkpt lat="44.42323" lon="11.0580917"><ele>207.0</ele><time>2026-04-25T06:18:52.394Z</time></trkpt><trkpt lat="44.4231067" lon="11.0579433"><ele>207.0</ele><time>2026-04-25T06:18:53.391Z</time></trkpt><trkpt lat="44.4229867" lon="11.057795"><ele>207.0</ele><time>2026-04-25T06:18:54.392Z</time></trkpt><trkpt lat="44.4228633" lon="11.0576467"><ele>208.0</ele><time>2026-04-25T06:18:55.39Z</time></trkpt><trkpt lat="44.422735" lon="11.057495"><ele>209.0</ele><time>2026-04-25T06:18:56.394Z</time></trkpt><trkpt lat="44.4226133" lon="11.0573483"><ele>210.0</ele><time>2026-04-25T06:18:57.392Z</time></trkpt><trkpt lat="44.4224933" lon="11.0572133"><ele>210.25</ele><time>2026-04-25T06:18:58.388Z</time></trkpt><trkpt lat="44.42238" lon="11.057085"><ele>210.5</ele><time>2026-04-25T06:18:59.389Z</time></trkpt><trkpt lat="44.422265" lon="11.0569483"><ele>210.75</ele><time>2026-04-25T06:19:00.389Z</time></trkpt><trkpt lat="44.4221517" lon="11.05681"><ele>211.0</ele><time>2026-04-25T06:19:01.39Z</time></trkpt><trkpt lat="44.422035" lon="11.0566733"><ele>210.66666666666666</ele><time>2026-04-25T06:19:02.39Z</time></trkpt><trkpt lat="44.4219133" lon="11.056535"><ele>210.33333333333331</ele><time>2026-04-25T06:19:03.392Z</time></trkpt><trkpt lat="44.4217817" lon="11.056385"><ele>210.0</ele><time>2026-04-25T06:19:04.391Z</time></trkpt><trkpt lat="44.4216533" lon="11.056235"><ele>210.0</ele><time>2026-04-25T06:19:05.392Z</time></trkpt><trkpt lat="44.421535" lon="11.0560783"><ele>210.0</ele><time>2026-04-25T06:19:06.391Z</time></trkpt><trkpt lat="44.4214267" lon="11.055905"><ele>210.0</ele><time>2026-04-25T06:19:07.39Z</time></trkpt><trkpt lat="44.42133" lon="11.0557233"><ele>211.66666666666669</ele><time>2026-04-25T06:19:08.395Z</time></trkpt><trkpt lat="44.4212417" lon="11.05554"><ele>213.33333333333334</ele><time>2026-04-25T06:19:09.399Z</time></trkpt><trkpt lat="44.4211517" lon="11.0553667"><ele>215.0</ele><time>2026-04-25T06:19:10.391Z</time></trkpt><trkpt lat="44.4210567" lon="11.055195"><ele>215.0</ele><time>2026-04-25T06:19:11.395Z</time></trkpt><trkpt lat="44.4209467" lon="11.0550317"><ele>215.0</ele><time>2026-04-25T06:19:12.389Z</time></trkpt><trkpt lat="44.4208367" lon="11.0549"><ele>215.0</ele><time>2026-04-25T06:19:13.396Z</time></trkpt><trkpt lat="44.4207217" lon="11.0547917"><ele>215.0</ele><time>2026-04-25T06:19:14.391Z</time></trkpt><trkpt lat="44.420605" lon="11.05469"><ele>215.25</ele><time>2026-04-25T06:19:15.391Z</time></trkpt><trkpt lat="44.4204867" lon="11.0545833"><ele>215.5</ele><time>2026-04-25T06:19:16.398Z</time></trkpt><trkpt lat="44.4203767" lon="11.0544783"><ele>215.75</ele><time>2026-04-25T06:19:17.392Z</time></trkpt><trkpt lat="44.4202783" lon="11.0543833"><ele>216.0</ele><time>2026-04-25T06:19:18.388Z</time></trkpt><trkpt lat="44.4201883" lon="11.0542967"><ele>216.0</ele><time>2026-04-25T06:19:19.393Z</time></trkpt><trkpt lat="44.4200983" lon="11.054215"><ele>216.00000000000003</ele><time>2026-04-25T06:19:20.395Z</time></trkpt><trkpt lat="44.4200133" lon="11.0541383"><ele>216.00000000000003</ele><time>2026-04-25T06:19:21.392Z</time></trkpt><trkpt lat="44.4199367" lon="11.0540683"><ele>216.0</ele><time>2026-04-25T06:19:22.394Z</time></trkpt><trkpt lat="44.4198733" lon="11.054015"><ele>216.0</ele><time>2026-04-25T06:19:23.392Z</time></trkpt><trkpt lat="44.41977" lon="11.0540133"><ele>216.0</ele><time>2026-04-25T06:19:25.395Z</time></trkpt><trkpt lat="44.4197167" lon="11.05408"><ele>216.0</ele><time>2026-04-25T06:19:26.396Z</time></trkpt><trkpt lat="44.41967" lon="11.0541683"><ele>216.0</ele><time>2026-04-25T06:19:27.394Z</time></trkpt><trkpt lat="44.419625" lon="11.05425"><ele>216.0</ele><time>2026-04-25T06:19:28.39Z</time></trkpt><trkpt lat="44.4195817" lon="11.054315"><ele>216.0</ele><time>2026-04-25T06:19:29.396Z</time></trkpt><trkpt lat="44.4194767" lon="11.0543883"><ele>216.0</ele><time>2026-04-25T06:19:31.396Z</time></trkpt><trkpt lat="44.4193483" lon="11.0543733"><ele>215.8</ele><time>2026-04-25T06:19:33.39Z</time></trkpt><trkpt lat="44.419265" lon="11.054375"><ele>215.60000000000002</ele><time>2026-04-25T06:19:34.397Z</time></trkpt><trkpt lat="44.4191717" lon="11.0543667"><ele>215.4</ele><time>2026-04-25T06:19:35.394Z</time></trkpt><trkpt lat="44.4190683" lon="11.05432"><ele>215.2</ele><time>2026-04-25T06:19:36.392Z</time></trkpt><trkpt lat="44.4189633" lon="11.0542567"><ele>215.0</ele><time>2026-04-25T06:19:37.39Z</time></trkpt><trkpt lat="44.418855" lon="11.054185"><ele>215.0</ele><time>2026-04-25T06:19:38.392Z</time></trkpt><trkpt lat="44.4187533" lon="11.05412"><ele>215.0</ele><time>2026-04-25T06:19:39.391Z</time></trkpt><trkpt lat="44.4186583" lon="11.05408"><ele>215.0</ele><time>2026-04-25T06:19:40.392Z</time></trkpt><trkpt lat="44.41858" lon="11.0540483"><ele>215.0</ele><time>2026-04-25T06:19:41.393Z</time></trkpt><trkpt lat="44.4185033" lon="11.0540133"><ele>215.0</ele><time>2026-04-25T06:19:42.396Z</time></trkpt><trkpt lat="44.4184217" lon="11.0539617"><ele>215.0</ele><time>2026-04-25T06:19:43.393Z</time></trkpt><trkpt lat="44.418335" lon="11.0538733"><ele>215.0</ele><time>2026-04-25T06:19:44.394Z</time></trkpt><trkpt lat="44.4182367" lon="11.0537717"><ele>215.0</ele><time>2026-04-25T06:19:45.392Z</time></trkpt><trkpt lat="44.4181267" lon="11.0536617"><ele>215.0</ele><time>2026-04-25T06:19:46.395Z</time></trkpt><trkpt lat="44.4180117" lon="11.0535517"><ele>215.4</ele><time>2026-04-25T06:19:47.394Z</time></trkpt><trkpt lat="44.4179067" lon="11.0534517"><ele>215.8</ele><time>2026-04-25T06:19:48.392Z</time></trkpt><trkpt lat="44.4178183" lon="11.0533717"><ele>216.2</ele><time>2026-04-25T06:19:49.391Z</time></trkpt><trkpt lat="44.4177467" lon="11.0533067"><ele>216.6</ele><time>2026-04-25T06:19:50.391Z</time></trkpt><trkpt lat="44.4176933" lon="11.053255"><ele>217.0</ele><time>2026-04-25T06:19:51.392Z</time></trkpt><trkpt lat="44.4176167" lon="11.0532"><ele>216.99999999999997</ele><time>2026-04-25T06:19:53.391Z</time></trkpt><trkpt lat="44.417535" lon="11.0532817"><ele>217.0</ele><time>2026-04-25T06:19:55.393Z</time></trkpt><trkpt lat="44.417495" lon="11.0533733"><ele>217.0</ele><time>2026-04-25T06:19:56.391Z</time></trkpt><trkpt lat="44.4174567" lon="11.0534767"><ele>217.0</ele><time>2026-04-25T06:19:57.394Z</time></trkpt><trkpt lat="44.4174117" lon="11.05359"><ele>216.99999999999997</ele><time>2026-04-25T06:19:58.389Z</time></trkpt><trkpt lat="44.4173667" lon="11.0536983"><ele>217.0</ele><time>2026-04-25T06:19:59.391Z</time></trkpt><trkpt lat="44.41732" lon="11.0537967"><ele>217.39999999999998</ele><time>2026-04-25T06:20:00.391Z</time></trkpt><trkpt lat="44.4172717" lon="11.0538717"><ele>217.79999999999998</ele><time>2026-04-25T06:20:01.392Z</time></trkpt><trkpt lat="44.4171867" lon="11.0539583"><ele>218.2</ele><time>2026-04-25T06:20:03.393Z</time></trkpt><trkpt lat="44.4171083" lon="11.0541"><ele>218.6</ele><time>2026-04-25T06:20:05.393Z</time></trkpt><trkpt lat="44.417065" lon="11.0542067"><ele>219.0</ele><time>2026-04-25T06:20:06.39Z</time></trkpt><trkpt lat="44.4170167" lon="11.0543167"><ele>221.0</ele><time>2026-04-25T06:20:07.393Z</time></trkpt><trkpt lat="44.4169667" lon="11.0544283"><ele>223.0</ele><time>2026-04-25T06:20:08.395Z</time></trkpt><trkpt lat="44.4169183" lon="11.0545417"><ele>225.0</ele><time>2026-04-25T06:20:09.393Z</time></trkpt><trkpt lat="44.4168733" lon="11.0546467"><ele>227.0</ele><time>2026-04-25T06:20:10.398Z</time></trkpt><trkpt lat="44.4168333" lon="11.0547433"><ele>229.0</ele><time>2026-04-25T06:20:11.392Z</time></trkpt><trkpt lat="44.4167983" lon="11.0548317"><ele>231.0</ele><time>2026-04-25T06:20:12.391Z</time></trkpt><trkpt lat="44.4167683" lon="11.054915"><ele>233.60000000000002</ele><time>2026-04-25T06:20:13.394Z</time></trkpt><trkpt lat="44.4167083" lon="11.0550467"><ele>236.20000000000002</ele><time>2026-04-25T06:20:15.393Z</time></trkpt><trkpt lat="44.4166333" lon="11.0551483"><ele>238.79999999999998</ele><time>2026-04-25T06:20:17.394Z</time></trkpt><trkpt lat="44.4165233" lon="11.0552433"><ele>241.39999999999998</ele><time>2026-04-25T06:20:19.393Z</time></trkpt><trkpt lat="44.4164617" lon="11.0552967"><ele>244.0</ele><time>2026-04-25T06:20:20.394Z</time></trkpt><trkpt lat="44.4164033" lon="11.05535"><ele>244.0</ele><time>2026-04-25T06:20:21.391Z</time></trkpt><trkpt lat="44.41635" lon="11.055415"><ele>243.99999999999997</ele><time>2026-04-25T06:20:22.391Z</time></trkpt><trkpt lat="44.41631" lon="11.0554867"><ele>243.99999999999997</ele><time>2026-04-25T06:20:23.39Z</time></trkpt><trkpt lat="44.416255" lon="11.0556333"><ele>244.0</ele><time>2026-04-25T06:20:25.394Z</time></trkpt><trkpt lat="44.4161867" lon="11.055765"><ele>244.0</ele><time>2026-04-25T06:20:27.39Z</time></trkpt><trkpt lat="44.4161067" lon="11.0558833"><ele>247.6</ele><time>2026-04-25T06:20:29.399Z</time></trkpt><trkpt lat="44.41603" lon="11.0560067"><ele>251.2</ele><time>2026-04-25T06:20:31.389Z</time></trkpt><trkpt lat="44.4159667" lon="11.0561017"><ele>254.79999999999998</ele><time>2026-04-25T06:20:33.393Z</time></trkpt><trkpt lat="44.4158933" lon="11.0562233"><ele>258.4</ele><time>2026-04-25T06:20:35.391Z</time></trkpt><trkpt lat="44.4158517" lon="11.05629"><ele>262.0</ele><time>2026-04-25T06:20:36.39Z</time></trkpt><trkpt lat="44.415795" lon="11.0563983"><ele>262.0</ele><time>2026-04-25T06:20:38.397Z</time></trkpt><trkpt lat="44.4157667" lon="11.056545"><ele>262.0</ele><time>2026-04-25T06:20:40.392Z</time></trkpt><trkpt lat="44.4157433" lon="11.0566367"><ele>262.0</ele><time>2026-04-25T06:20:41.398Z</time></trkpt><trkpt lat="44.4157167" lon="11.05674"><ele>262.0</ele><time>2026-04-25T06:20:42.391Z</time></trkpt><trkpt lat="44.4156733" lon="11.0568567"><ele>262.0</ele><time>2026-04-25T06:20:43.395Z</time></trkpt><trkpt lat="44.4156317" lon="11.0569683"><ele>262.0</ele><time>2026-04-25T06:20:44.393Z</time></trkpt><trkpt lat="44.41559" lon="11.057075"><ele>263.6</ele><time>2026-04-25T06:20:45.393Z</time></trkpt><trkpt lat="44.41554" lon="11.0571867"><ele>265.2</ele><time>2026-04-25T06:20:46.392Z</time></trkpt><trkpt lat="44.41548" lon="11.0573033"><ele>266.8</ele><time>2026-04-25T06:20:47.39Z</time></trkpt><trkpt lat="44.415425" lon="11.0574233"><ele>268.4</ele><time>2026-04-25T06:20:48.393Z</time></trkpt><trkpt lat="44.4153667" lon="11.057535"><ele>270.0</ele><time>2026-04-25T06:20:49.394Z</time></trkpt><trkpt lat="44.4153017" lon="11.057635"><ele>273.0</ele><time>2026-04-25T06:20:50.391Z</time></trkpt><trkpt lat="44.4152283" lon="11.0577317"><ele>276.0</ele><time>2026-04-25T06:20:51.392Z</time></trkpt><trkpt lat="44.415145" lon="11.057805"><ele>279.0</ele><time>2026-04-25T06:20:52.393Z</time></trkpt><trkpt lat="44.4150483" lon="11.0578633"><ele>282.0</ele><time>2026-04-25T06:20:53.389Z</time></trkpt><trkpt lat="44.41495" lon="11.0579133"><ele>285.0</ele><time>2026-04-25T06:20:54.395Z</time></trkpt><trkpt lat="44.4148667" lon="11.0579667"><ele>285.0</ele><time>2026-04-25T06:20:55.394Z</time></trkpt><trkpt lat="44.4147917" lon="11.0580417"><ele>285.0</ele><time>2026-04-25T06:20:56.394Z</time></trkpt><trkpt lat="44.4147267" lon="11.0581317"><ele>285.0</ele><time>2026-04-25T06:20:57.391Z</time></trkpt><trkpt lat="44.4146717" lon="11.058255"><ele>285.0</ele><time>2026-04-25T06:20:58.391Z</time></trkpt><trkpt lat="44.4146217" lon="11.058375"><ele>285.0</ele><time>2026-04-25T06:20:59.39Z</time></trkpt><trkpt lat="44.4145667" lon="11.0585067"><ele>288.6</ele><time>2026-04-25T06:21:00.393Z</time></trkpt><trkpt lat="44.4145233" lon="11.0586333"><ele>292.2</ele><time>2026-04-25T06:21:01.392Z</time></trkpt><trkpt lat="44.414485" lon="11.05877"><ele>295.8</ele><time>2026-04-25T06:21:02.397Z</time></trkpt><trkpt lat="44.414445" lon="11.05891"><ele>299.4</ele><time>2026-04-25T06:21:03.395Z</time></trkpt><trkpt lat="44.4144067" lon="11.0590517"><ele>303.0</ele><time>2026-04-25T06:21:04.396Z</time></trkpt><trkpt lat="44.4143583" lon="11.059175"><ele>303.8</ele><time>2026-04-25T06:21:05.393Z</time></trkpt><trkpt lat="44.4143067" lon="11.05927"><ele>304.6</ele><time>2026-04-25T06:21:06.393Z</time></trkpt><trkpt lat="44.4142433" lon="11.0593483"><ele>305.4</ele><time>2026-04-25T06:21:07.395Z</time></trkpt><trkpt lat="44.4141583" lon="11.0594133"><ele>306.2</ele><time>2026-04-25T06:21:08.392Z</time></trkpt><trkpt lat="44.4140617" lon="11.0594783"><ele>307.0</ele><time>2026-04-25T06:21:09.393Z</time></trkpt><trkpt lat="44.413985" lon="11.059545"><ele>307.0</ele><time>2026-04-25T06:21:10.392Z</time></trkpt><trkpt lat="44.4139183" lon="11.0596183"><ele>307.0</ele><time>2026-04-25T06:21:11.389Z</time></trkpt><trkpt lat="44.413875" lon="11.059715"><ele>307.0</ele><time>2026-04-25T06:21:12.396Z</time></trkpt><trkpt lat="44.4138533" lon="11.0598283"><ele>307.0</ele><time>2026-04-25T06:21:13.39Z</time></trkpt><trkpt lat="44.413845" lon="11.0599617"><ele>307.0</ele><time>2026-04-25T06:21:14.391Z</time></trkpt><trkpt lat="44.413835" lon="11.0601"><ele>307.0</ele><time>2026-04-25T06:21:15.39Z</time></trkpt><trkpt lat="44.413815" lon="11.0602333"><ele>308.0</ele><time>2026-04-25T06:21:16.393Z</time></trkpt><trkpt lat="44.413795" lon="11.0603633"><ele>309.0</ele><time>2026-04-25T06:21:17.39Z</time></trkpt><trkpt lat="44.4137733" lon="11.0605017"><ele>310.0</ele><time>2026-04-25T06:21:18.397Z</time></trkpt><trkpt lat="44.4137517" lon="11.06064"><ele>311.0</ele><time>2026-04-25T06:21:19.391Z</time></trkpt><trkpt lat="44.41373" lon="11.060775"><ele>312.0</ele><time>2026-04-25T06:21:20.393Z</time></trkpt><trkpt lat="44.4137017" lon="11.06091"><ele>314.4</ele><time>2026-04-25T06:21:21.393Z</time></trkpt><trkpt lat="44.4136633" lon="11.0610517"><ele>316.79999999999995</ele><time>2026-04-25T06:21:22.389Z</time></trkpt><trkpt lat="44.4136183" lon="11.0611917"><ele>319.2</ele><time>2026-04-25T06:21:23.395Z</time></trkpt><trkpt lat="44.413565" lon="11.0613283"><ele>321.59999999999997</ele><time>2026-04-25T06:21:24.393Z</time></trkpt><trkpt lat="44.41351" lon="11.0614683"><ele>324.0</ele><time>2026-04-25T06:21:25.389Z</time></trkpt><trkpt lat="44.4134583" lon="11.0616117"><ele>325.0</ele><time>2026-04-25T06:21:26.395Z</time></trkpt><trkpt lat="44.4134017" lon="11.0617617"><ele>326.0</ele><time>2026-04-25T06:21:27.393Z</time></trkpt><trkpt lat="44.413345" lon="11.0619133"><ele>327.0</ele><time>2026-04-25T06:21:28.392Z</time></trkpt><trkpt lat="44.4132933" lon="11.0620617"><ele>328.0</ele><time>2026-04-25T06:21:29.396Z</time></trkpt><trkpt lat="44.413245" lon="11.0622017"><ele>328.0</ele><time>2026-04-25T06:21:30.394Z</time></trkpt><trkpt lat="44.4132067" lon="11.0623233"><ele>328.0</ele><time>2026-04-25T06:21:31.39Z</time></trkpt><trkpt lat="44.41318" lon="11.0624383"><ele>328.0</ele><time>2026-04-25T06:21:32.392Z</time></trkpt><trkpt lat="44.4131517" lon="11.0625617"><ele>328.0</ele><time>2026-04-25T06:21:33.394Z</time></trkpt><trkpt lat="44.4131217" lon="11.0626933"><ele>328.0</ele><time>2026-04-25T06:21:34.39Z</time></trkpt><trkpt lat="44.413095" lon="11.0628267"><ele>327.79999999999995</ele><time>2026-04-25T06:21:35.396Z</time></trkpt><trkpt lat="44.413065" lon="11.0629533"><ele>327.6</ele><time>2026-04-25T06:21:36.392Z</time></trkpt><trkpt lat="44.41303" lon="11.0630783"><ele>327.4</ele><time>2026-04-25T06:21:37.397Z</time></trkpt><trkpt lat="44.412985" lon="11.0631933"><ele>327.20000000000005</ele><time>2026-04-25T06:21:38.392Z</time></trkpt><trkpt lat="44.4129267" lon="11.063295"><ele>327.0</ele><time>2026-04-25T06:21:39.397Z</time></trkpt><trkpt lat="44.4128567" lon="11.0633867"><ele>330.0</ele><time>2026-04-25T06:21:40.395Z</time></trkpt><trkpt lat="44.4127833" lon="11.0634633"><ele>333.0</ele><time>2026-04-25T06:21:41.39Z</time></trkpt><trkpt lat="44.4127183" lon="11.0635433"><ele>336.0</ele><time>2026-04-25T06:21:42.394Z</time></trkpt><trkpt lat="44.4126533" lon="11.0636333"><ele>339.0</ele><time>2026-04-25T06:21:43.394Z</time></trkpt><trkpt lat="44.412585" lon="11.0637417"><ele>342.0</ele><time>2026-04-25T06:21:44.394Z</time></trkpt><trkpt lat="44.4125217" lon="11.063865"><ele>342.0</ele><time>2026-04-25T06:21:45.393Z</time></trkpt><trkpt lat="44.41246" lon="11.063985"><ele>342.0</ele><time>2026-04-25T06:21:46.389Z</time></trkpt><trkpt lat="44.4123983" lon="11.0640983"><ele>342.0</ele><time>2026-04-25T06:21:47.392Z</time></trkpt><trkpt lat="44.4123367" lon="11.064205"><ele>342.0</ele><time>2026-04-25T06:21:48.392Z</time></trkpt><trkpt lat="44.4122733" lon="11.0643167"><ele>342.0</ele><time>2026-04-25T06:21:49.394Z</time></trkpt><trkpt lat="44.4122217" lon="11.0644317"><ele>343.8333333333333</ele><time>2026-04-25T06:21:50.394Z</time></trkpt><trkpt lat="44.4121933" lon="11.064545"><ele>345.6666666666667</ele><time>2026-04-25T06:21:51.392Z</time></trkpt><trkpt lat="44.4121808" lon="11.0646634"><ele>347.5</ele><time>2026-04-25T06:21:52.392Z</time></trkpt><trkpt lat="44.4121756" lon="11.0647838"><ele>349.33333333333337</ele><time>2026-04-25T06:21:53.397Z</time></trkpt><trkpt lat="44.4121621" lon="11.0648998"><ele>351.1666666666667</ele><time>2026-04-25T06:21:54.391Z</time></trkpt><trkpt lat="44.412129" lon="11.0650066"><ele>353.0</ele><time>2026-04-25T06:21:55.398Z</time></trkpt><trkpt lat="44.412076" lon="11.0650661"><ele>353.5</ele><time>2026-04-25T06:21:56.393Z</time></trkpt><trkpt lat="44.4120103" lon="11.0651013"><ele>354.0</ele><time>2026-04-25T06:21:57.391Z</time></trkpt><trkpt lat="44.4119303" lon="11.0651163"><ele>354.5</ele><time>2026-04-25T06:21:58.394Z</time></trkpt><trkpt lat="44.4118449" lon="11.0651286"><ele>355.0</ele><time>2026-04-25T06:21:59.39Z</time></trkpt><trkpt lat="44.4117609" lon="11.0651561"><ele>355.5</ele><time>2026-04-25T06:22:00.391Z</time></trkpt><trkpt lat="44.4116867" lon="11.0652127"><ele>356.0</ele><time>2026-04-25T06:22:01.39Z</time></trkpt><trkpt lat="44.4116226" lon="11.0653094"><ele>356.0</ele><time>2026-04-25T06:22:02.391Z</time></trkpt><trkpt lat="44.4115701" lon="11.0654312"><ele>356.0</ele><time>2026-04-25T06:22:03.394Z</time></trkpt><trkpt lat="44.4115263" lon="11.0655699"><ele>356.0</ele><time>2026-04-25T06:22:04.391Z</time></trkpt><trkpt lat="44.4114812" lon="11.0657182"><ele>356.0</ele><time>2026-04-25T06:22:05.39Z</time></trkpt><trkpt lat="44.4114336" lon="11.0658618"><ele>356.0</ele><time>2026-04-25T06:22:06.39Z</time></trkpt><trkpt lat="44.4113833" lon="11.0659892"><ele>357.20000000000005</ele><time>2026-04-25T06:22:07.39Z</time></trkpt><trkpt lat="44.4113289" lon="11.066108"><ele>358.40000000000003</ele><time>2026-04-25T06:22:08.392Z</time></trkpt><trkpt lat="44.4112706" lon="11.0662235"><ele>359.6</ele><time>2026-04-25T06:22:09.392Z</time></trkpt><trkpt lat="44.4112086" lon="11.0663356"><ele>360.8</ele><time>2026-04-25T06:22:10.392Z</time></trkpt><trkpt lat="44.4111546" lon="11.0664371"><ele>362.0</ele><time>2026-04-25T06:22:11.391Z</time></trkpt><trkpt lat="44.4111169" lon="11.0665231"><ele>362.0</ele><time>2026-04-25T06:22:12.393Z</time></trkpt><trkpt lat="44.4110907" lon="11.0666059"><ele>362.0</ele><time>2026-04-25T06:22:13.395Z</time></trkpt><trkpt lat="44.4110406" lon="11.0667634"><ele>362.0</ele><time>2026-04-25T06:22:15.392Z</time></trkpt><trkpt lat="44.4110071" lon="11.0669186"><ele>362.0</ele><time>2026-04-25T06:22:17.39Z</time></trkpt><trkpt lat="44.4109535" lon="11.0670373"><ele>362.0</ele><time>2026-04-25T06:22:19.391Z</time></trkpt><trkpt lat="44.4108371" lon="11.0671043"><ele>363.40000000000003</ele><time>2026-04-25T06:22:21.393Z</time></trkpt><trkpt lat="44.4107683" lon="11.0671263"><ele>364.8</ele><time>2026-04-25T06:22:22.394Z</time></trkpt><trkpt lat="44.4106767" lon="11.0671438"><ele>366.2</ele><time>2026-04-25T06:22:23.398Z</time></trkpt><trkpt lat="44.4105624" lon="11.0671599"><ele>367.6</ele><time>2026-04-25T06:22:24.393Z</time></trkpt><trkpt lat="44.4104318" lon="11.0671917"><ele>369.0</ele><time>2026-04-25T06:22:25.391Z</time></trkpt><trkpt lat="44.410295" lon="11.0672319"><ele>369.0</ele><time>2026-04-25T06:22:26.397Z</time></trkpt><trkpt lat="44.4101664" lon="11.067279"><ele>369.0</ele><time>2026-04-25T06:22:27.391Z</time></trkpt><trkpt lat="44.4100515" lon="11.0673247"><ele>369.0</ele><time>2026-04-25T06:22:28.399Z</time></trkpt><trkpt lat="44.4099501" lon="11.0673545"><ele>369.0</ele><time>2026-04-25T06:22:29.388Z</time></trkpt><trkpt lat="44.4098601" lon="11.0673512"><ele>369.0</ele><time>2026-04-25T06:22:30.392Z</time></trkpt><trkpt lat="44.4097766" lon="11.0673189"><ele>369.0</ele><time>2026-04-25T06:22:31.395Z</time></trkpt><trkpt lat="44.4097011" lon="11.0672738"><ele>369.0</ele><time>2026-04-25T06:22:32.394Z</time></trkpt><trkpt lat="44.4096282" lon="11.0672207"><ele>369.0</ele><time>2026-04-25T06:22:33.392Z</time></trkpt><trkpt lat="44.4095485" lon="11.0671557"><ele>369.0</ele><time>2026-04-25T06:22:34.391Z</time></trkpt><trkpt lat="44.4094611" lon="11.0670802"><ele>369.0</ele><time>2026-04-25T06:22:35.392Z</time></trkpt><trkpt lat="44.4093688" lon="11.0670024"><ele>366.4</ele><time>2026-04-25T06:22:36.39Z</time></trkpt><trkpt lat="44.4092771" lon="11.0669284"><ele>363.79999999999995</ele><time>2026-04-25T06:22:37.391Z</time></trkpt><trkpt lat="44.4091893" lon="11.0668568"><ele>361.20000000000005</ele><time>2026-04-25T06:22:38.393Z</time></trkpt><trkpt lat="44.4091052" lon="11.0667924"><ele>358.6</ele><time>2026-04-25T06:22:39.391Z</time></trkpt><trkpt lat="44.4090211" lon="11.066741"><ele>356.0</ele><time>2026-04-25T06:22:40.393Z</time></trkpt><trkpt lat="44.4089292" lon="11.0667059"><ele>356.0</ele><time>2026-04-25T06:22:41.391Z</time></trkpt><trkpt lat="44.408831" lon="11.0666755"><ele>356.0</ele><time>2026-04-25T06:22:42.399Z</time></trkpt><trkpt lat="44.4087275" lon="11.0666398"><ele>356.0</ele><time>2026-04-25T06:22:43.392Z</time></trkpt><trkpt lat="44.4086084" lon="11.0666015"><ele>356.0</ele><time>2026-04-25T06:22:44.39Z</time></trkpt><trkpt lat="44.4084782" lon="11.0665604"><ele>352.5</ele><time>2026-04-25T06:22:45.392Z</time></trkpt><trkpt lat="44.4083403" lon="11.0665069"><ele>349.0</ele><time>2026-04-25T06:22:46.399Z</time></trkpt><trkpt lat="44.4082043" lon="11.0664395"><ele>345.5</ele><time>2026-04-25T06:22:47.399Z</time></trkpt><trkpt lat="44.4080716" lon="11.0663591"><ele>342.0</ele><time>2026-04-25T06:22:48.399Z</time></trkpt><trkpt lat="44.4079485" lon="11.0662664"><ele>342.0</ele><time>2026-04-25T06:22:49.393Z</time></trkpt><trkpt lat="44.4078368" lon="11.0661507"><ele>342.0</ele><time>2026-04-25T06:22:50.401Z</time></trkpt><trkpt lat="44.407735" lon="11.0660084"><ele>342.0</ele><time>2026-04-25T06:22:51.397Z</time></trkpt><trkpt lat="44.4076449" lon="11.0658479"><ele>342.0</ele><time>2026-04-25T06:22:52.4Z</time></trkpt><trkpt lat="44.4075608" lon="11.0656906"><ele>341.25</ele><time>2026-04-25T06:22:53.401Z</time></trkpt><trkpt lat="44.4074727" lon="11.0655436"><ele>340.5</ele><time>2026-04-25T06:22:54.39Z</time></trkpt><trkpt lat="44.4073686" lon="11.0654118"><ele>339.75</ele><time>2026-04-25T06:22:55.392Z</time></trkpt><trkpt lat="44.4072558" lon="11.0652892"><ele>339.0</ele><time>2026-04-25T06:22:56.397Z</time></trkpt><trkpt lat="44.4071476" lon="11.0651713"><ele>340.2</ele><time>2026-04-25T06:22:57.393Z</time></trkpt><trkpt lat="44.4070581" lon="11.0650582"><ele>341.4</ele><time>2026-04-25T06:22:58.39Z</time></trkpt><trkpt lat="44.4069803" lon="11.0649611"><ele>342.6</ele><time>2026-04-25T06:22:59.397Z</time></trkpt><trkpt lat="44.4069104" lon="11.0648915"><ele>343.8</ele><time>2026-04-25T06:23:00.39Z</time></trkpt><trkpt lat="44.4068404" lon="11.0648559"><ele>345.0</ele><time>2026-04-25T06:23:01.39Z</time></trkpt><trkpt lat="44.4067674" lon="11.064903"><ele>345.25</ele><time>2026-04-25T06:23:02.391Z</time></trkpt><trkpt lat="44.4066946" lon="11.0649943"><ele>345.5</ele><time>2026-04-25T06:23:03.391Z</time></trkpt><trkpt lat="44.4066177" lon="11.0651202"><ele>345.75</ele><time>2026-04-25T06:23:04.395Z</time></trkpt><trkpt lat="44.4065407" lon="11.0652717"><ele>346.0</ele><time>2026-04-25T06:23:05.392Z</time></trkpt><trkpt lat="44.406456" lon="11.0654275"><ele>346.0</ele><time>2026-04-25T06:23:06.392Z</time></trkpt><trkpt lat="44.4063681" lon="11.0655771"><ele>346.0</ele><time>2026-04-25T06:23:07.393Z</time></trkpt><trkpt lat="44.406282" lon="11.0657151"><ele>346.0</ele><time>2026-04-25T06:23:08.392Z</time></trkpt><trkpt lat="44.4061901" lon="11.0658516"><ele>346.0</ele><time>2026-04-25T06:23:09.392Z</time></trkpt><trkpt lat="44.4061002" lon="11.0659866"><ele>350.75</ele><time>2026-04-25T06:23:10.393Z</time></trkpt><trkpt lat="44.4060124" lon="11.0661247"><ele>355.5</ele><time>2026-04-25T06:23:11.391Z</time></trkpt><trkpt lat="44.4059264" lon="11.0662694"><ele>360.25</ele><time>2026-04-25T06:23:12.394Z</time></trkpt><trkpt lat="44.4058427" lon="11.0664199"><ele>365.0</ele><time>2026-04-25T06:23:13.392Z</time></trkpt><trkpt lat="44.4057611" lon="11.0665561"><ele>365.1666666666667</ele><time>2026-04-25T06:23:14.391Z</time></trkpt><trkpt lat="44.4056987" lon="11.0666757"><ele>365.33333333333337</ele><time>2026-04-25T06:23:15.391Z</time></trkpt><trkpt lat="44.4056429" lon="11.066767"><ele>365.5</ele><time>2026-04-25T06:23:16.395Z</time></trkpt><trkpt lat="44.4055826" lon="11.0668343"><ele>365.6666666666667</ele><time>2026-04-25T06:23:17.394Z</time></trkpt><trkpt lat="44.4055202" lon="11.0668902"><ele>365.8333333333333</ele><time>2026-04-25T06:23:18.394Z</time></trkpt><trkpt lat="44.4054517" lon="11.0669167"><ele>366.0</ele><time>2026-04-25T06:23:19.392Z</time></trkpt><trkpt lat="44.4053667" lon="11.06694"><ele>367.3333333333333</ele><time>2026-04-25T06:23:20.392Z</time></trkpt><trkpt lat="44.4052767" lon="11.066955"><ele>368.6666666666667</ele><time>2026-04-25T06:23:21.393Z</time></trkpt><trkpt lat="44.4051967" lon="11.066965"><ele>370.0</ele><time>2026-04-25T06:23:22.394Z</time></trkpt><trkpt lat="44.4051317" lon="11.066995"><ele>371.33333333333337</ele><time>2026-04-25T06:23:23.391Z</time></trkpt><trkpt lat="44.4050833" lon="11.067115"><ele>372.6666666666667</ele><time>2026-04-25T06:23:25.392Z</time></trkpt><trkpt lat="44.40509" lon="11.0672483"><ele>374.0</ele><time>2026-04-25T06:23:27.391Z</time></trkpt><trkpt lat="44.405015" lon="11.0673183"><ele>374.0</ele><time>2026-04-25T06:23:30.391Z</time></trkpt><trkpt lat="44.4049117" lon="11.067315"><ele>374.0</ele><time>2026-04-25T06:23:32.393Z</time></trkpt><trkpt lat="44.4047933" lon="11.0673133"><ele>374.0</ele><time>2026-04-25T06:23:34.392Z</time></trkpt><trkpt lat="44.4046917" lon="11.0672933"><ele>374.0</ele><time>2026-04-25T06:23:36.39Z</time></trkpt><trkpt lat="44.4046317" lon="11.06719"><ele>374.0</ele><time>2026-04-25T06:23:38.395Z</time></trkpt><trkpt lat="44.4045833" lon="11.0669933"><ele>373.79999999999995</ele><time>2026-04-25T06:23:40.391Z</time></trkpt><trkpt lat="44.4045717" lon="11.06684"><ele>373.59999999999997</ele><time>2026-04-25T06:23:41.39Z</time></trkpt><trkpt lat="44.4045533" lon="11.06668"><ele>373.4</ele><time>2026-04-25T06:23:42.392Z</time></trkpt><trkpt lat="44.4045317" lon="11.06653"><ele>373.2</ele><time>2026-04-25T06:23:43.391Z</time></trkpt><trkpt lat="44.4045133" lon="11.066395"><ele>373.0</ele><time>2026-04-25T06:23:44.395Z</time></trkpt><trkpt lat="44.4044917" lon="11.0662567"><ele>375.2</ele><time>2026-04-25T06:23:45.39Z</time></trkpt><trkpt lat="44.404465" lon="11.0661167"><ele>377.4</ele><time>2026-04-25T06:23:46.39Z</time></trkpt><trkpt lat="44.4044383" lon="11.0659767"><ele>379.59999999999997</ele><time>2026-04-25T06:23:47.397Z</time></trkpt><trkpt lat="44.40441" lon="11.0658383"><ele>381.79999999999995</ele><time>2026-04-25T06:23:48.391Z</time></trkpt><trkpt lat="44.4043867" lon="11.0656967"><ele>384.0</ele><time>2026-04-25T06:23:49.394Z</time></trkpt><trkpt lat="44.4043633" lon="11.0655617"><ele>386.79999999999995</ele><time>2026-04-25T06:23:50.396Z</time></trkpt><trkpt lat="44.40435" lon="11.0654283"><ele>389.59999999999997</ele><time>2026-04-25T06:23:51.393Z</time></trkpt><trkpt lat="44.404345" lon="11.0652983"><ele>392.4</ele><time>2026-04-25T06:23:52.396Z</time></trkpt><trkpt lat="44.4043417" lon="11.06516"><ele>395.2</ele><time>2026-04-25T06:23:53.39Z</time></trkpt><trkpt lat="44.40434" lon="11.0650233"><ele>398.0</ele><time>2026-04-25T06:23:54.392Z</time></trkpt><trkpt lat="44.4043367" lon="11.064895"><ele>399.3333333333333</ele><time>2026-04-25T06:23:55.392Z</time></trkpt><trkpt lat="44.4043167" lon="11.0647733"><ele>400.66666666666663</ele><time>2026-04-25T06:23:56.393Z</time></trkpt><trkpt lat="44.4042883" lon="11.064665"><ele>402.0</ele><time>2026-04-25T06:23:57.391Z</time></trkpt><trkpt lat="44.4042617" lon="11.0645767"><ele>403.33333333333337</ele><time>2026-04-25T06:23:58.395Z</time></trkpt><trkpt lat="44.40423" lon="11.0644817"><ele>404.6666666666667</ele><time>2026-04-25T06:24:00.393Z</time></trkpt><trkpt lat="44.4041918" lon="11.064378"><ele>406.0</ele><time>2026-04-25T06:25:36.392Z</time></trkpt><trkpt lat="44.4041416" lon="11.0642642"><ele>406.0</ele><time>2026-04-25T06:25:37.393Z</time></trkpt><trkpt lat="44.4040892" lon="11.0641702"><ele>406.0</ele><time>2026-04-25T06:25:38.393Z</time></trkpt><trkpt lat="44.4040329" lon="11.0640766"><ele>406.0</ele><time>2026-04-25T06:25:39.392Z</time></trkpt><trkpt lat="44.4039803" lon="11.0639735"><ele>406.0</ele><time>2026-04-25T06:25:40.392Z</time></trkpt><trkpt lat="44.4039324" lon="11.0638539"><ele>406.0</ele><time>2026-04-25T06:25:41.392Z</time></trkpt><trkpt lat="44.4038867" lon="11.0637083"><ele>406.4</ele><time>2026-04-25T06:25:42.394Z</time></trkpt><trkpt lat="44.4038517" lon="11.06356"><ele>406.8</ele><time>2026-04-25T06:25:43.393Z</time></trkpt><trkpt lat="44.4038117" lon="11.06343"><ele>407.2</ele><time>2026-04-25T06:25:44.39Z</time></trkpt><trkpt lat="44.4037717" lon="11.063315"><ele>407.59999999999997</ele><time>2026-04-25T06:25:45.402Z</time></trkpt><trkpt lat="44.4037283" lon="11.0632133"><ele>408.0</ele><time>2026-04-25T06:25:46.391Z</time></trkpt><trkpt lat="44.40368" lon="11.063125"><ele>410.6666666666667</ele><time>2026-04-25T06:25:47.393Z</time></trkpt><trkpt lat="44.403625" lon="11.0630483"><ele>413.33333333333337</ele><time>2026-04-25T06:25:48.391Z</time></trkpt><trkpt lat="44.403565" lon="11.0629717"><ele>416.0</ele><time>2026-04-25T06:25:49.397Z</time></trkpt><trkpt lat="44.4035133" lon="11.0628817"><ele>418.6666666666667</ele><time>2026-04-25T06:25:50.392Z</time></trkpt><trkpt lat="44.4034733" lon="11.0627767"><ele>421.33333333333337</ele><time>2026-04-25T06:25:51.393Z</time></trkpt><trkpt lat="44.4034267" lon="11.0626883"><ele>424.0</ele><time>2026-04-25T06:25:52.392Z</time></trkpt><trkpt lat="44.4033817" lon="11.062605"><ele>424.00000000000006</ele><time>2026-04-25T06:25:53.392Z</time></trkpt><trkpt lat="44.4033283" lon="11.062535"><ele>424.0</ele><time>2026-04-25T06:25:54.397Z</time></trkpt><trkpt lat="44.4032633" lon="11.0623883"><ele>424.0</ele><time>2026-04-25T06:25:56.401Z</time></trkpt><trkpt lat="44.4032333" lon="11.062295"><ele>424.0</ele><time>2026-04-25T06:25:57.396Z</time></trkpt><trkpt lat="44.40321" lon="11.0621833"><ele>424.00000000000006</ele><time>2026-04-25T06:25:58.391Z</time></trkpt><trkpt lat="44.4032" lon="11.062055"><ele>424.0</ele><time>2026-04-25T06:25:59.392Z</time></trkpt><trkpt lat="44.4031733" lon="11.06194"><ele>424.33333333333337</ele><time>2026-04-25T06:26:00.393Z</time></trkpt><trkpt lat="44.4031333" lon="11.0618233"><ele>424.6666666666667</ele><time>2026-04-25T06:26:01.395Z</time></trkpt><trkpt lat="44.4031117" lon="11.0617117"><ele>425.0</ele><time>2026-04-25T06:26:02.397Z</time></trkpt><trkpt lat="44.4030917" lon="11.0615933"><ele>425.33333333333337</ele><time>2026-04-25T06:26:03.393Z</time></trkpt><trkpt lat="44.4030683" lon="11.0614817"><ele>425.6666666666667</ele><time>2026-04-25T06:26:04.395Z</time></trkpt><trkpt lat="44.403045" lon="11.06137"><ele>426.0</ele><time>2026-04-25T06:26:05.393Z</time></trkpt><trkpt lat="44.4030117" lon="11.061275"><ele>426.0</ele><time>2026-04-25T06:26:06.396Z</time></trkpt><trkpt lat="44.4029367" lon="11.0612633"><ele>426.0</ele><time>2026-04-25T06:26:07.391Z</time></trkpt><trkpt lat="44.402855" lon="11.06127"><ele>426.0</ele><time>2026-04-25T06:26:08.39Z</time></trkpt><trkpt lat="44.40277" lon="11.0613233"><ele>426.0</ele><time>2026-04-25T06:26:09.393Z</time></trkpt><trkpt lat="44.4026833" lon="11.061375"><ele>426.0</ele><time>2026-04-25T06:26:10.391Z</time></trkpt><trkpt lat="44.4026017" lon="11.0614117"><ele>426.0</ele><time>2026-04-25T06:26:11.39Z</time></trkpt><trkpt lat="44.4025267" lon="11.0614383"><ele>426.0</ele><time>2026-04-25T06:26:12.395Z</time></trkpt><trkpt lat="44.4024067" lon="11.0614683"><ele>426.0</ele><time>2026-04-25T06:26:14.396Z</time></trkpt><trkpt lat="44.40233" lon="11.0614867"><ele>426.0</ele><time>2026-04-25T06:26:15.391Z</time></trkpt><trkpt lat="44.4022433" lon="11.0615033"><ele>426.0</ele><time>2026-04-25T06:26:16.392Z</time></trkpt><trkpt lat="44.4021567" lon="11.06152"><ele>426.0</ele><time>2026-04-25T06:26:17.394Z</time></trkpt><trkpt lat="44.4020667" lon="11.0615367"><ele>426.20000000000005</ele><time>2026-04-25T06:26:18.392Z</time></trkpt><trkpt lat="44.40198" lon="11.0615483"><ele>426.40000000000003</ele><time>2026-04-25T06:26:19.391Z</time></trkpt><trkpt lat="44.40189" lon="11.06155"><ele>426.6</ele><time>2026-04-25T06:26:20.393Z</time></trkpt><trkpt lat="44.401785" lon="11.061545"><ele>426.8</ele><time>2026-04-25T06:26:21.391Z</time></trkpt><trkpt lat="44.4016867" lon="11.0615267"><ele>427.0</ele><time>2026-04-25T06:26:22.392Z</time></trkpt><trkpt lat="44.4016" lon="11.061495"><ele>427.0</ele><time>2026-04-25T06:26:23.391Z</time></trkpt><trkpt lat="44.4015183" lon="11.061445"><ele>427.00000000000006</ele><time>2026-04-25T06:26:24.391Z</time></trkpt><trkpt lat="44.4014383" lon="11.061395"><ele>427.00000000000006</ele><time>2026-04-25T06:26:25.394Z</time></trkpt><trkpt lat="44.4013633" lon="11.0613583"><ele>427.0</ele><time>2026-04-25T06:26:26.397Z</time></trkpt><trkpt lat="44.4013" lon="11.0613267"><ele>427.0</ele><time>2026-04-25T06:26:27.391Z</time></trkpt><trkpt lat="44.401185" lon="11.0612417"><ele>428.0</ele><time>2026-04-25T06:26:29.39Z</time></trkpt><trkpt lat="44.4011267" lon="11.0611633"><ele>429.00000000000006</ele><time>2026-04-25T06:26:30.392Z</time></trkpt><trkpt lat="44.4010667" lon="11.0610833"><ele>430.00000000000006</ele><time>2026-04-25T06:26:31.39Z</time></trkpt><trkpt lat="44.4009833" lon="11.06101"><ele>431.0</ele><time>2026-04-25T06:26:32.393Z</time></trkpt><trkpt lat="44.4008783" lon="11.0609617"><ele>432.0</ele><time>2026-04-25T06:26:33.393Z</time></trkpt><trkpt lat="44.4007833" lon="11.0609217"><ele>432.0</ele><time>2026-04-25T06:26:34.391Z</time></trkpt><trkpt lat="44.4006967" lon="11.0608783"><ele>432.0</ele><time>2026-04-25T06:26:35.397Z</time></trkpt><trkpt lat="44.40062" lon="11.060835"><ele>432.0</ele><time>2026-04-25T06:26:36.394Z</time></trkpt><trkpt lat="44.4005567" lon="11.060795"><ele>432.0</ele><time>2026-04-25T06:26:37.392Z</time></trkpt><trkpt lat="44.4004933" lon="11.0607433"><ele>432.0</ele><time>2026-04-25T06:26:38.399Z</time></trkpt><trkpt lat="44.4004217" lon="11.0606717"><ele>432.0</ele><time>2026-04-25T06:26:39.4Z</time></trkpt><trkpt lat="44.4003367" lon="11.0605917"><ele>433.0</ele><time>2026-04-25T06:26:40.39Z</time></trkpt><trkpt lat="44.4002533" lon="11.060535"><ele>434.00000000000006</ele><time>2026-04-25T06:26:41.393Z</time></trkpt><trkpt lat="44.4001767" lon="11.06051"><ele>435.00000000000006</ele><time>2026-04-25T06:26:42.393Z</time></trkpt><trkpt lat="44.4001067" lon="11.0605"><ele>436.0</ele><time>2026-04-25T06:26:43.397Z</time></trkpt><trkpt lat="44.399985" lon="11.0604933"><ele>437.0</ele><time>2026-04-25T06:26:45.392Z</time></trkpt><trkpt lat="44.3998617" lon="11.0604567"><ele>436.99999999999994</ele><time>2026-04-25T06:26:47.393Z</time></trkpt><trkpt lat="44.3998" lon="11.0604383"><ele>437.0</ele><time>2026-04-25T06:26:48.391Z</time></trkpt><trkpt lat="44.3996883" lon="11.0603767"><ele>437.0</ele><time>2026-04-25T06:26:50.395Z</time></trkpt><trkpt lat="44.3996283" lon="11.060335"><ele>437.0</ele><time>2026-04-25T06:26:51.39Z</time></trkpt><trkpt lat="44.3995683" lon="11.0603017"><ele>436.99999999999994</ele><time>2026-04-25T06:26:52.392Z</time></trkpt><trkpt lat="44.3995067" lon="11.0602683"><ele>437.0</ele><time>2026-04-25T06:26:53.392Z</time></trkpt><trkpt lat="44.3994367" lon="11.06023"><ele>439.16666666666663</ele><time>2026-04-25T06:26:54.393Z</time></trkpt><trkpt lat="44.3993567" lon="11.060195"><ele>441.3333333333333</ele><time>2026-04-25T06:26:55.401Z</time></trkpt><trkpt lat="44.3992833" lon="11.0601817"><ele>443.5</ele><time>2026-04-25T06:26:56.393Z</time></trkpt><trkpt lat="44.3992167" lon="11.0601883"><ele>445.66666666666663</ele><time>2026-04-25T06:26:57.394Z</time></trkpt><trkpt lat="44.3991117" lon="11.06019"><ele>447.8333333333333</ele><time>2026-04-25T06:26:59.392Z</time></trkpt><trkpt lat="44.3990517" lon="11.0601383"><ele>450.0</ele><time>2026-04-25T06:27:01.393Z</time></trkpt><trkpt lat="44.3989917" lon="11.0600383"><ele>449.5</ele><time>2026-04-25T06:27:03.391Z</time></trkpt><trkpt lat="44.3989633" lon="11.0599"><ele>449.0</ele><time>2026-04-25T06:27:05.39Z</time></trkpt><trkpt lat="44.3989567" lon="11.05975"><ele>448.5</ele><time>2026-04-25T06:27:07.392Z</time></trkpt><trkpt lat="44.398945" lon="11.059645"><ele>448.0</ele><time>2026-04-25T06:27:08.396Z</time></trkpt><trkpt lat="44.3989267" lon="11.0595317"><ele>447.5</ele><time>2026-04-25T06:27:09.389Z</time></trkpt><trkpt lat="44.3989083" lon="11.05943"><ele>447.0</ele><time>2026-04-25T06:27:10.394Z</time></trkpt><trkpt lat="44.3988867" lon="11.0593383"><ele>447.0</ele><time>2026-04-25T06:27:11.391Z</time></trkpt><trkpt lat="44.3988633" lon="11.059245"><ele>447.0</ele><time>2026-04-25T06:27:12.392Z</time></trkpt><trkpt lat="44.3988333" lon="11.059145"><ele>447.0</ele><time>2026-04-25T06:27:13.388Z</time></trkpt><trkpt lat="44.3987933" lon="11.0590433"><ele>447.0</ele><time>2026-04-25T06:27:14.393Z</time></trkpt><trkpt lat="44.398755" lon="11.058935"><ele>447.0</ele><time>2026-04-25T06:27:15.393Z</time></trkpt><trkpt lat="44.3987083" lon="11.058805"><ele>447.0</ele><time>2026-04-25T06:27:16.39Z</time></trkpt><trkpt lat="44.3986567" lon="11.0586683"><ele>448.0</ele><time>2026-04-25T06:27:17.394Z</time></trkpt><trkpt lat="44.3986067" lon="11.0585183"><ele>449.0</ele><time>2026-04-25T06:27:18.392Z</time></trkpt><trkpt lat="44.3985583" lon="11.0583533"><ele>450.0</ele><time>2026-04-25T06:27:19.393Z</time></trkpt><trkpt lat="44.3985167" lon="11.058195"><ele>451.0</ele><time>2026-04-25T06:27:20.395Z</time></trkpt><trkpt lat="44.3984867" lon="11.058055"><ele>450.8</ele><time>2026-04-25T06:27:21.394Z</time></trkpt><trkpt lat="44.39847" lon="11.05792"><ele>450.6</ele><time>2026-04-25T06:27:22.394Z</time></trkpt><trkpt lat="44.3984617" lon="11.0577883"><ele>450.4</ele><time>2026-04-25T06:27:23.395Z</time></trkpt><trkpt lat="44.3984633" lon="11.0576617"><ele>450.2</ele><time>2026-04-25T06:27:24.398Z</time></trkpt><trkpt lat="44.3984783" lon="11.0575417"><ele>450.0</ele><time>2026-04-25T06:27:25.393Z</time></trkpt><trkpt lat="44.3985083" lon="11.0574233"><ele>450.0</ele><time>2026-04-25T06:27:26.397Z</time></trkpt><trkpt lat="44.3985517" lon="11.05731"><ele>450.0</ele><time>2026-04-25T06:27:27.392Z</time></trkpt><trkpt lat="44.3985983" lon="11.0571933"><ele>450.0</ele><time>2026-04-25T06:27:28.391Z</time></trkpt><trkpt lat="44.3986367" lon="11.0570667"><ele>450.0</ele><time>2026-04-25T06:27:29.391Z</time></trkpt><trkpt lat="44.3986683" lon="11.0569267"><ele>450.0</ele><time>2026-04-25T06:27:30.392Z</time></trkpt><trkpt lat="44.3986867" lon="11.0567783"><ele>450.0</ele><time>2026-04-25T06:27:31.397Z</time></trkpt><trkpt lat="44.3987017" lon="11.0566217"><ele>450.0</ele><time>2026-04-25T06:27:32.392Z</time></trkpt><trkpt lat="44.3987233" lon="11.0564633"><ele>450.0</ele><time>2026-04-25T06:27:33.392Z</time></trkpt><trkpt lat="44.3987517" lon="11.0563117"><ele>450.0</ele><time>2026-04-25T06:27:34.394Z</time></trkpt><trkpt lat="44.3987767" lon="11.05617"><ele>450.0</ele><time>2026-04-25T06:27:35.394Z</time></trkpt><trkpt lat="44.3987933" lon="11.05603"><ele>450.4</ele><time>2026-04-25T06:27:36.392Z</time></trkpt><trkpt lat="44.3988" lon="11.055885"><ele>450.8</ele><time>2026-04-25T06:27:37.391Z</time></trkpt><trkpt lat="44.3988" lon="11.0557367"><ele>451.20000000000005</ele><time>2026-04-25T06:27:38.393Z</time></trkpt><trkpt lat="44.39879" lon="11.0556017"><ele>451.6</ele><time>2026-04-25T06:27:39.392Z</time></trkpt><trkpt lat="44.3987683" lon="11.0554717"><ele>452.0</ele><time>2026-04-25T06:27:40.393Z</time></trkpt><trkpt lat="44.3987383" lon="11.05535"><ele>453.5</ele><time>2026-04-25T06:27:41.392Z</time></trkpt><trkpt lat="44.3987067" lon="11.05522"><ele>455.0</ele><time>2026-04-25T06:27:42.396Z</time></trkpt><trkpt lat="44.3986783" lon="11.0550717"><ele>456.5</ele><time>2026-04-25T06:27:43.392Z</time></trkpt><trkpt lat="44.3986417" lon="11.0549067"><ele>458.0</ele><time>2026-04-25T06:27:44.39Z</time></trkpt><trkpt lat="44.398605" lon="11.054735"><ele>460.25</ele><time>2026-04-25T06:27:45.392Z</time></trkpt><trkpt lat="44.3985683" lon="11.0545583"><ele>462.5</ele><time>2026-04-25T06:27:46.395Z</time></trkpt><trkpt lat="44.39853" lon="11.05439"><ele>464.75</ele><time>2026-04-25T06:27:47.394Z</time></trkpt><trkpt lat="44.3984917" lon="11.0542417"><ele>467.0</ele><time>2026-04-25T06:27:48.393Z</time></trkpt><trkpt lat="44.3984533" lon="11.05411"><ele>468.20000000000005</ele><time>2026-04-25T06:27:49.391Z</time></trkpt><trkpt lat="44.3984167" lon="11.054"><ele>469.40000000000003</ele><time>2026-04-25T06:27:50.394Z</time></trkpt><trkpt lat="44.3983883" lon="11.0538967"><ele>470.59999999999997</ele><time>2026-04-25T06:27:51.394Z</time></trkpt><trkpt lat="44.39838" lon="11.0537817"><ele>471.79999999999995</ele><time>2026-04-25T06:27:52.396Z</time></trkpt><trkpt lat="44.398375" lon="11.0536533"><ele>473.0</ele><time>2026-04-25T06:27:53.39Z</time></trkpt><trkpt lat="44.3983683" lon="11.0534983"><ele>473.0</ele><time>2026-04-25T06:27:54.399Z</time></trkpt><trkpt lat="44.39836" lon="11.053325"><ele>473.0</ele><time>2026-04-25T06:27:55.391Z</time></trkpt><trkpt lat="44.3983467" lon="11.0531367"><ele>473.0</ele><time>2026-04-25T06:27:56.394Z</time></trkpt><trkpt lat="44.3983233" lon="11.0529483"><ele>473.0</ele><time>2026-04-25T06:27:57.398Z</time></trkpt><trkpt lat="44.398295" lon="11.0527733"><ele>474.4</ele><time>2026-04-25T06:27:58.394Z</time></trkpt><trkpt lat="44.3982667" lon="11.0526117"><ele>475.79999999999995</ele><time>2026-04-25T06:27:59.393Z</time></trkpt><trkpt lat="44.3982367" lon="11.0524717"><ele>477.2</ele><time>2026-04-25T06:28:00.391Z</time></trkpt><trkpt lat="44.3982117" lon="11.0523467"><ele>478.6</ele><time>2026-04-25T06:28:01.397Z</time></trkpt><trkpt lat="44.398195" lon="11.0522367"><ele>480.0</ele><time>2026-04-25T06:28:02.392Z</time></trkpt><trkpt lat="44.39818" lon="11.05213"><ele>481.6666666666667</ele><time>2026-04-25T06:28:03.393Z</time></trkpt><trkpt lat="44.3981733" lon="11.0520333"><ele>483.33333333333337</ele><time>2026-04-25T06:28:04.392Z</time></trkpt><trkpt lat="44.3981583" lon="11.0518617"><ele>485.0</ele><time>2026-04-25T06:28:06.39Z</time></trkpt><trkpt lat="44.3981583" lon="11.05176"><ele>486.6666666666667</ele><time>2026-04-25T06:28:07.392Z</time></trkpt><trkpt lat="44.398165" lon="11.0516433"><ele>488.33333333333337</ele><time>2026-04-25T06:28:08.391Z</time></trkpt><trkpt lat="44.3981817" lon="11.05152"><ele>490.0</ele><time>2026-04-25T06:28:09.391Z</time></trkpt><trkpt lat="44.39819" lon="11.0513983"><ele>490.6666666666667</ele><time>2026-04-25T06:28:10.389Z</time></trkpt><trkpt lat="44.3981783" lon="11.0512917"><ele>491.33333333333337</ele><time>2026-04-25T06:28:11.395Z</time></trkpt><trkpt lat="44.398145" lon="11.05119"><ele>492.0</ele><time>2026-04-25T06:28:12.39Z</time></trkpt><trkpt lat="44.3981017" lon="11.0511017"><ele>492.66666666666663</ele><time>2026-04-25T06:28:13.391Z</time></trkpt><trkpt lat="44.3980483" lon="11.0510317"><ele>493.3333333333333</ele><time>2026-04-25T06:28:14.393Z</time></trkpt><trkpt lat="44.3979817" lon="11.0509617"><ele>494.0</ele><time>2026-04-25T06:28:15.392Z</time></trkpt><trkpt lat="44.3979033" lon="11.0508817"><ele>495.0</ele><time>2026-04-25T06:28:16.393Z</time></trkpt><trkpt lat="44.3978083" lon="11.0507933"><ele>496.0</ele><time>2026-04-25T06:28:17.392Z</time></trkpt><trkpt lat="44.3977133" lon="11.0507"><ele>497.0</ele><time>2026-04-25T06:28:18.399Z</time></trkpt><trkpt lat="44.397625" lon="11.0506067"><ele>498.0</ele><time>2026-04-25T06:28:19.391Z</time></trkpt><trkpt lat="44.3975533" lon="11.0504983"><ele>499.0</ele><time>2026-04-25T06:28:20.395Z</time></trkpt><trkpt lat="44.397495" lon="11.0503683"><ele>501.25</ele><time>2026-04-25T06:28:21.393Z</time></trkpt><trkpt lat="44.3974467" lon="11.0502133"><ele>503.5</ele><time>2026-04-25T06:28:22.399Z</time></trkpt><trkpt lat="44.3974033" lon="11.05004"><ele>505.75</ele><time>2026-04-25T06:28:23.392Z</time></trkpt><trkpt lat="44.3973667" lon="11.0498683"><ele>508.0</ele><time>2026-04-25T06:28:24.396Z</time></trkpt><trkpt lat="44.3973333" lon="11.0497167"><ele>508.2</ele><time>2026-04-25T06:28:25.393Z</time></trkpt><trkpt lat="44.397295" lon="11.0495767"><ele>508.4</ele><time>2026-04-25T06:28:26.397Z</time></trkpt><trkpt lat="44.397255" lon="11.0494517"><ele>508.59999999999997</ele><time>2026-04-25T06:28:27.393Z</time></trkpt><trkpt lat="44.3972117" lon="11.04933"><ele>508.79999999999995</ele><time>2026-04-25T06:28:28.391Z</time></trkpt><trkpt lat="44.3971683" lon="11.0491967"><ele>509.0</ele><time>2026-04-25T06:28:29.392Z</time></trkpt><trkpt lat="44.3971267" lon="11.0490617"><ele>510.6</ele><time>2026-04-25T06:28:30.393Z</time></trkpt><trkpt lat="44.3970833" lon="11.048935"><ele>512.2</ele><time>2026-04-25T06:28:31.391Z</time></trkpt><trkpt lat="44.39704" lon="11.04881"><ele>513.8000000000001</ele><time>2026-04-25T06:28:32.392Z</time></trkpt><trkpt lat="44.39699" lon="11.0486833"><ele>515.4</ele><time>2026-04-25T06:28:33.39Z</time></trkpt><trkpt lat="44.3969217" lon="11.0485683"><ele>517.0</ele><time>2026-04-25T06:28:34.39Z</time></trkpt><trkpt lat="44.3968317" lon="11.0484633"><ele>517.0</ele><time>2026-04-25T06:28:35.39Z</time></trkpt><trkpt lat="44.3967483" lon="11.0483767"><ele>517.0</ele><time>2026-04-25T06:28:36.389Z</time></trkpt><trkpt lat="44.39668" lon="11.0482983"><ele>517.0</ele><time>2026-04-25T06:28:37.395Z</time></trkpt><trkpt lat="44.396615" lon="11.0482167"><ele>517.0</ele><time>2026-04-25T06:28:38.393Z</time></trkpt><trkpt lat="44.3965433" lon="11.0481183"><ele>517.0</ele><time>2026-04-25T06:28:39.391Z</time></trkpt><trkpt lat="44.3964667" lon="11.0480117"><ele>516.4</ele><time>2026-04-25T06:28:40.392Z</time></trkpt><trkpt lat="44.3963867" lon="11.0479283"><ele>515.8000000000001</ele><time>2026-04-25T06:28:41.396Z</time></trkpt><trkpt lat="44.3963133" lon="11.0478567"><ele>515.2</ele><time>2026-04-25T06:28:42.393Z</time></trkpt><trkpt lat="44.396245" lon="11.0477817"><ele>514.6</ele><time>2026-04-25T06:28:43.398Z</time></trkpt><trkpt lat="44.396175" lon="11.04768"><ele>514.0</ele><time>2026-04-25T06:28:44.392Z</time></trkpt><trkpt lat="44.3961033" lon="11.0475717"><ele>514.0</ele><time>2026-04-25T06:28:45.393Z</time></trkpt><trkpt lat="44.396035" lon="11.047475"><ele>514.0</ele><time>2026-04-25T06:28:46.394Z</time></trkpt><trkpt lat="44.3959633" lon="11.047385"><ele>514.0</ele><time>2026-04-25T06:28:47.394Z</time></trkpt><trkpt lat="44.3958883" lon="11.047305"><ele>514.0</ele><time>2026-04-25T06:28:48.403Z</time></trkpt><trkpt lat="44.3958183" lon="11.0472383"><ele>514.0</ele><time>2026-04-25T06:28:49.4Z</time></trkpt><trkpt lat="44.39575" lon="11.0471917"><ele>514.0</ele><time>2026-04-25T06:28:50.394Z</time></trkpt><trkpt lat="44.39568" lon="11.0471717"><ele>511.6666666666667</ele><time>2026-04-25T06:28:51.393Z</time></trkpt><trkpt lat="44.3956033" lon="11.04718"><ele>509.33333333333337</ele><time>2026-04-25T06:28:52.398Z</time></trkpt><trkpt lat="44.3955183" lon="11.0472067"><ele>507.0</ele><time>2026-04-25T06:28:53.392Z</time></trkpt><trkpt lat="44.3954333" lon="11.0472417"><ele>504.66666666666663</ele><time>2026-04-25T06:28:54.393Z</time></trkpt><trkpt lat="44.3953533" lon="11.04728"><ele>502.3333333333333</ele><time>2026-04-25T06:28:55.392Z</time></trkpt><trkpt lat="44.395275" lon="11.0473117"><ele>500.0</ele><time>2026-04-25T06:28:56.393Z</time></trkpt><trkpt lat="44.39519" lon="11.0473467"><ele>499.6</ele><time>2026-04-25T06:28:57.394Z</time></trkpt><trkpt lat="44.3950917" lon="11.0473933"><ele>499.2</ele><time>2026-04-25T06:28:58.394Z</time></trkpt><trkpt lat="44.3949883" lon="11.0474367"><ele>498.79999999999995</ele><time>2026-04-25T06:28:59.391Z</time></trkpt><trkpt lat="44.39489" lon="11.0474817"><ele>498.4</ele><time>2026-04-25T06:29:00.394Z</time></trkpt><trkpt lat="44.3947983" lon="11.04752"><ele>498.0</ele><time>2026-04-25T06:29:01.393Z</time></trkpt><trkpt lat="44.394715" lon="11.0475433"><ele>496.5</ele><time>2026-04-25T06:29:02.392Z</time></trkpt><trkpt lat="44.3946317" lon="11.04755"><ele>495.0</ele><time>2026-04-25T06:29:03.395Z</time></trkpt><trkpt lat="44.3945467" lon="11.0475283"><ele>493.5</ele><time>2026-04-25T06:29:04.399Z</time></trkpt><trkpt lat="44.39447" lon="11.04746"><ele>492.0</ele><time>2026-04-25T06:29:05.396Z</time></trkpt><trkpt lat="44.3943917" lon="11.0473933"><ele>490.5</ele><time>2026-04-25T06:29:06.391Z</time></trkpt><trkpt lat="44.39431" lon="11.04733"><ele>489.0</ele><time>2026-04-25T06:29:07.397Z</time></trkpt><trkpt lat="44.3942383" lon="11.0472867"><ele>487.0</ele><time>2026-04-25T06:29:08.393Z</time></trkpt><trkpt lat="44.3941217" lon="11.0472333"><ele>485.0</ele><time>2026-04-25T06:29:10.391Z</time></trkpt><trkpt lat="44.394055" lon="11.0471867"><ele>483.0</ele><time>2026-04-25T06:29:11.394Z</time></trkpt><trkpt lat="44.3939933" lon="11.0471183"><ele>481.0</ele><time>2026-04-25T06:29:12.391Z</time></trkpt><trkpt lat="44.3939317" lon="11.0470633"><ele>479.0</ele><time>2026-04-25T06:29:13.392Z</time></trkpt><trkpt lat="44.3938483" lon="11.0470383"><ele>477.0</ele><time>2026-04-25T06:29:14.402Z</time></trkpt><trkpt lat="44.393735" lon="11.0470317"><ele>476.40000000000003</ele><time>2026-04-25T06:29:15.392Z</time></trkpt><trkpt lat="44.39362" lon="11.0470267"><ele>475.80000000000007</ele><time>2026-04-25T06:29:16.39Z</time></trkpt><trkpt lat="44.39351" lon="11.047025"><ele>475.2</ele><time>2026-04-25T06:29:17.391Z</time></trkpt><trkpt lat="44.3934117" lon="11.0470483"><ele>474.6</ele><time>2026-04-25T06:29:18.393Z</time></trkpt><trkpt lat="44.393315" lon="11.0470883"><ele>474.0</ele><time>2026-04-25T06:29:19.395Z</time></trkpt><trkpt lat="44.393215" lon="11.047135"><ele>474.0</ele><time>2026-04-25T06:29:20.4Z</time></trkpt><trkpt lat="44.3931067" lon="11.0471733"><ele>474.0</ele><time>2026-04-25T06:29:21.393Z</time></trkpt><trkpt lat="44.39299" lon="11.0472067"><ele>474.0</ele><time>2026-04-25T06:29:22.392Z</time></trkpt><trkpt lat="44.3928717" lon="11.0472483"><ele>474.0</ele><time>2026-04-25T06:29:23.394Z</time></trkpt><trkpt lat="44.3927617" lon="11.0472917"><ele>475.5</ele><time>2026-04-25T06:29:24.392Z</time></trkpt><trkpt lat="44.3926617" lon="11.0473267"><ele>477.0</ele><time>2026-04-25T06:29:25.397Z</time></trkpt><trkpt lat="44.3925683" lon="11.04734"><ele>478.5</ele><time>2026-04-25T06:29:26.394Z</time></trkpt><trkpt lat="44.3924867" lon="11.0473317"><ele>480.0</ele><time>2026-04-25T06:29:27.393Z</time></trkpt><trkpt lat="44.392415" lon="11.0472983"><ele>481.5</ele><time>2026-04-25T06:29:28.392Z</time></trkpt><trkpt lat="44.3923433" lon="11.0472433"><ele>483.0</ele><time>2026-04-25T06:29:29.392Z</time></trkpt><trkpt lat="44.392265" lon="11.0471783"><ele>483.0</ele><time>2026-04-25T06:29:30.393Z</time></trkpt><trkpt lat="44.3921867" lon="11.0471317"><ele>482.99999999999994</ele><time>2026-04-25T06:29:31.39Z</time></trkpt><trkpt lat="44.39211" lon="11.0471017"><ele>482.99999999999994</ele><time>2026-04-25T06:29:32.393Z</time></trkpt><trkpt lat="44.39202" lon="11.0470983"><ele>483.0</ele><time>2026-04-25T06:29:33.393Z</time></trkpt><trkpt lat="44.3919167" lon="11.0471267"><ele>483.0</ele><time>2026-04-25T06:29:34.394Z</time></trkpt><trkpt lat="44.391805" lon="11.0471717"><ele>486.0</ele><time>2026-04-25T06:29:35.391Z</time></trkpt><trkpt lat="44.3916883" lon="11.0472033"><ele>489.0</ele><time>2026-04-25T06:29:36.393Z</time></trkpt><trkpt lat="44.3915633" lon="11.0472033"><ele>492.0</ele><time>2026-04-25T06:29:37.39Z</time></trkpt><trkpt lat="44.3914417" lon="11.04719"><ele>495.0</ele><time>2026-04-25T06:29:38.394Z</time></trkpt><trkpt lat="44.3913317" lon="11.0471817"><ele>497.0</ele><time>2026-04-25T06:29:39.389Z</time></trkpt><trkpt lat="44.3912333" lon="11.0471767"><ele>499.0</ele><time>2026-04-25T06:29:40.392Z</time></trkpt><trkpt lat="44.3911433" lon="11.0471683"><ele>501.0</ele><time>2026-04-25T06:29:41.39Z</time></trkpt><trkpt lat="44.39105" lon="11.0471583"><ele>503.0</ele><time>2026-04-25T06:29:42.393Z</time></trkpt><trkpt lat="44.3909633" lon="11.0471333"><ele>505.0</ele><time>2026-04-25T06:29:43.393Z</time></trkpt><trkpt lat="44.3908767" lon="11.0470917"><ele>505.0</ele><time>2026-04-25T06:29:44.395Z</time></trkpt><trkpt lat="44.3907817" lon="11.0470533"><ele>505.0</ele><time>2026-04-25T06:29:45.391Z</time></trkpt><trkpt lat="44.3906883" lon="11.0470083"><ele>505.0</ele><time>2026-04-25T06:29:46.393Z</time></trkpt><trkpt lat="44.390605" lon="11.0469317"><ele>505.0</ele><time>2026-04-25T06:29:47.394Z</time></trkpt><trkpt lat="44.3905267" lon="11.0468217"><ele>505.0</ele><time>2026-04-25T06:29:48.393Z</time></trkpt><trkpt lat="44.3904367" lon="11.0466917"><ele>504.6</ele><time>2026-04-25T06:29:49.398Z</time></trkpt><trkpt lat="44.390335" lon="11.046565"><ele>504.2</ele><time>2026-04-25T06:29:50.396Z</time></trkpt><trkpt lat="44.3902433" lon="11.04646"><ele>503.79999999999995</ele><time>2026-04-25T06:29:51.391Z</time></trkpt><trkpt lat="44.3901733" lon="11.0463667"><ele>503.4</ele><time>2026-04-25T06:29:52.393Z</time></trkpt><trkpt lat="44.3901183" lon="11.0462867"><ele>503.0</ele><time>2026-04-25T06:29:53.391Z</time></trkpt><trkpt lat="44.39006" lon="11.0462267"><ele>502.99999999999994</ele><time>2026-04-25T06:29:54.392Z</time></trkpt><trkpt lat="44.3899933" lon="11.0461683"><ele>503.0</ele><time>2026-04-25T06:29:55.397Z</time></trkpt><trkpt lat="44.3899267" lon="11.0461033"><ele>503.0</ele><time>2026-04-25T06:29:56.393Z</time></trkpt><trkpt lat="44.3898633" lon="11.0460433"><ele>503.0</ele><time>2026-04-25T06:29:57.396Z</time></trkpt><trkpt lat="44.38981" lon="11.0459933"><ele>502.99999999999994</ele><time>2026-04-25T06:29:58.394Z</time></trkpt><trkpt lat="44.3897217" lon="11.0459317"><ele>503.0</ele><time>2026-04-25T06:30:00.391Z</time></trkpt><trkpt lat="44.3896517" lon="11.0458933"><ele>505.16666666666663</ele><time>2026-04-25T06:30:02.391Z</time></trkpt><trkpt lat="44.38958" lon="11.0458783"><ele>507.3333333333333</ele><time>2026-04-25T06:30:04.391Z</time></trkpt><trkpt lat="44.3894883" lon="11.04584"><ele>509.5</ele><time>2026-04-25T06:30:06.392Z</time></trkpt><trkpt lat="44.38941" lon="11.045755"><ele>511.66666666666663</ele><time>2026-04-25T06:30:08.393Z</time></trkpt><trkpt lat="44.38932" lon="11.045715"><ele>513.8333333333334</ele><time>2026-04-25T06:30:10.391Z</time></trkpt><trkpt lat="44.3892367" lon="11.0456783"><ele>516.0</ele><time>2026-04-25T06:30:12.393Z</time></trkpt><trkpt lat="44.3891517" lon="11.0455767"><ele>517.0</ele><time>2026-04-25T06:30:14.388Z</time></trkpt><trkpt lat="44.3890567" lon="11.0454933"><ele>518.0</ele><time>2026-04-25T06:30:16.394Z</time></trkpt><trkpt lat="44.3889433" lon="11.0454333"><ele>519.0</ele><time>2026-04-25T06:30:18.396Z</time></trkpt><trkpt lat="44.388845" lon="11.0453533"><ele>520.0</ele><time>2026-04-25T06:30:20.394Z</time></trkpt><trkpt lat="44.388785" lon="11.0452683"><ele>521.0</ele><time>2026-04-25T06:30:22.393Z</time></trkpt><trkpt lat="44.3887533" lon="11.0451567"><ele>526.0</ele><time>2026-04-25T06:30:24.394Z</time></trkpt><trkpt lat="44.38872" lon="11.04502"><ele>531.0</ele><time>2026-04-25T06:30:26.402Z</time></trkpt><trkpt lat="44.38868" lon="11.0448767"><ele>536.0</ele><time>2026-04-25T06:30:28.392Z</time></trkpt><trkpt lat="44.3886333" lon="11.0447133"><ele>541.0</ele><time>2026-04-25T06:30:30.394Z</time></trkpt><trkpt lat="44.3885917" lon="11.0445683"><ele>541.8333333333334</ele><time>2026-04-25T06:30:32.388Z</time></trkpt><trkpt lat="44.3885333" lon="11.044445"><ele>542.6666666666667</ele><time>2026-04-25T06:30:34.394Z</time></trkpt><trkpt lat="44.3884617" lon="11.04438"><ele>543.5</ele><time>2026-04-25T06:30:36.391Z</time></trkpt><trkpt lat="44.38835" lon="11.0444017"><ele>544.3333333333334</ele><time>2026-04-25T06:30:38.389Z</time></trkpt><trkpt lat="44.388285" lon="11.0444183"><ele>545.1666666666666</ele><time>2026-04-25T06:30:39.394Z</time></trkpt><trkpt lat="44.38822" lon="11.044425"><ele>546.0</ele><time>2026-04-25T06:30:40.39Z</time></trkpt><trkpt lat="44.3881567" lon="11.044415"><ele>546.0</ele><time>2026-04-25T06:30:41.394Z</time></trkpt><trkpt lat="44.38809" lon="11.0443867"><ele>546.0</ele><time>2026-04-25T06:30:42.392Z</time></trkpt><trkpt lat="44.388015" lon="11.0443483"><ele>546.0</ele><time>2026-04-25T06:30:43.389Z</time></trkpt><trkpt lat="44.3879267" lon="11.0442967"><ele>546.0</ele><time>2026-04-25T06:30:44.391Z</time></trkpt><trkpt lat="44.387825" lon="11.0442467"><ele>546.0</ele><time>2026-04-25T06:30:45.39Z</time></trkpt><trkpt lat="44.38771" lon="11.0442067"><ele>550.75</ele><time>2026-04-25T06:30:46.396Z</time></trkpt><trkpt lat="44.3875867" lon="11.0441867"><ele>555.5</ele><time>2026-04-25T06:30:47.395Z</time></trkpt><trkpt lat="44.38747" lon="11.044185"><ele>560.25</ele><time>2026-04-25T06:30:48.392Z</time></trkpt><trkpt lat="44.3873583" lon="11.0441783"><ele>565.0</ele><time>2026-04-25T06:30:49.393Z</time></trkpt><trkpt lat="44.3872417" lon="11.04417"><ele>565.25</ele><time>2026-04-25T06:30:50.399Z</time></trkpt><trkpt lat="44.3871167" lon="11.0441533"><ele>565.5</ele><time>2026-04-25T06:30:51.389Z</time></trkpt><trkpt lat="44.3869933" lon="11.0441417"><ele>565.75</ele><time>2026-04-25T06:30:52.392Z</time></trkpt><trkpt lat="44.3868667" lon="11.044135"><ele>566.0</ele><time>2026-04-25T06:30:53.391Z</time></trkpt><trkpt lat="44.38674" lon="11.0441233"><ele>564.75</ele><time>2026-04-25T06:30:54.393Z</time></trkpt><trkpt lat="44.386615" lon="11.0441133"><ele>563.5</ele><time>2026-04-25T06:30:55.392Z</time></trkpt><trkpt lat="44.3865017" lon="11.0441"><ele>562.25</ele><time>2026-04-25T06:30:56.395Z</time></trkpt><trkpt lat="44.3863917" lon="11.044075"><ele>561.0</ele><time>2026-04-25T06:30:57.397Z</time></trkpt><trkpt lat="44.3862833" lon="11.0440333"><ele>561.0</ele><time>2026-04-25T06:30:58.391Z</time></trkpt><trkpt lat="44.3861883" lon="11.0439883"><ele>561.0</ele><time>2026-04-25T06:30:59.404Z</time></trkpt><trkpt lat="44.3861067" lon="11.0439383"><ele>561.0</ele><time>2026-04-25T06:31:00.397Z</time></trkpt><trkpt lat="44.3860333" lon="11.0438883"><ele>561.0</ele><time>2026-04-25T06:31:01.392Z</time></trkpt><trkpt lat="44.3859733" lon="11.0438383"><ele>561.0</ele><time>2026-04-25T06:31:02.395Z</time></trkpt><trkpt lat="44.3858883" lon="11.0437117"><ele>561.0</ele><time>2026-04-25T06:31:04.396Z</time></trkpt><trkpt lat="44.3858217" lon="11.0435733"><ele>561.0</ele><time>2026-04-25T06:31:06.399Z</time></trkpt><trkpt lat="44.38579" lon="11.0434967"><ele>561.0</ele><time>2026-04-25T06:31:07.392Z</time></trkpt><trkpt lat="44.3857533" lon="11.0434083"><ele>561.0</ele><time>2026-04-25T06:31:08.399Z</time></trkpt><trkpt lat="44.3857167" lon="11.0433083"><ele>561.0</ele><time>2026-04-25T06:31:09.394Z</time></trkpt><trkpt lat="44.3856767" lon="11.0431933"><ele>561.0</ele><time>2026-04-25T06:31:10.393Z</time></trkpt><trkpt lat="44.3856267" lon="11.0430567"><ele>560.25</ele><time>2026-04-25T06:31:11.393Z</time></trkpt><trkpt lat="44.3855683" lon="11.0428917"><ele>559.5</ele><time>2026-04-25T06:31:12.395Z</time></trkpt><trkpt lat="44.3855033" lon="11.0427233"><ele>558.75</ele><time>2026-04-25T06:31:13.394Z</time></trkpt><trkpt lat="44.3854333" lon="11.0425633"><ele>558.0</ele><time>2026-04-25T06:31:14.397Z</time></trkpt><trkpt lat="44.3853467" lon="11.0424183"><ele>558.0</ele><time>2026-04-25T06:31:15.392Z</time></trkpt><trkpt lat="44.3852517" lon="11.0422983"><ele>558.0</ele><time>2026-04-25T06:31:16.392Z</time></trkpt><trkpt lat="44.3851533" lon="11.0421867"><ele>558.0</ele><time>2026-04-25T06:31:17.392Z</time></trkpt><trkpt lat="44.3850483" lon="11.042085"><ele>558.0</ele><time>2026-04-25T06:31:18.394Z</time></trkpt><trkpt lat="44.3849267" lon="11.042"><ele>558.0</ele><time>2026-04-25T06:31:19.39Z</time></trkpt><trkpt lat="44.3847933" lon="11.0419233"><ele>558.0</ele><time>2026-04-25T06:31:20.396Z</time></trkpt><trkpt lat="44.3846617" lon="11.04184"><ele>558.0</ele><time>2026-04-25T06:31:21.393Z</time></trkpt><trkpt lat="44.38454" lon="11.041745"><ele>558.0</ele><time>2026-04-25T06:31:22.394Z</time></trkpt><trkpt lat="44.384405" lon="11.0416533"><ele>559.0</ele><time>2026-04-25T06:31:23.396Z</time></trkpt><trkpt lat="44.3842533" lon="11.0415617"><ele>560.0</ele><time>2026-04-25T06:31:24.395Z</time></trkpt><trkpt lat="44.384095" lon="11.0414733"><ele>561.0</ele><time>2026-04-25T06:31:25.398Z</time></trkpt><trkpt lat="44.3839367" lon="11.04138"><ele>566.6666666666666</ele><time>2026-04-25T06:31:26.393Z</time></trkpt><trkpt lat="44.3837917" lon="11.04128"><ele>572.3333333333333</ele><time>2026-04-25T06:31:27.391Z</time></trkpt><trkpt lat="44.3836567" lon="11.0411767"><ele>578.0</ele><time>2026-04-25T06:31:28.392Z</time></trkpt><trkpt lat="44.3835317" lon="11.041065"><ele>578.0</ele><time>2026-04-25T06:31:29.394Z</time></trkpt><trkpt lat="44.3834083" lon="11.0409633"><ele>578.0</ele><time>2026-04-25T06:31:30.391Z</time></trkpt><trkpt lat="44.3832733" lon="11.04088"><ele>578.0</ele><time>2026-04-25T06:31:31.397Z</time></trkpt><trkpt lat="44.3831367" lon="11.0407967"><ele>578.0</ele><time>2026-04-25T06:31:32.393Z</time></trkpt><trkpt lat="44.3830133" lon="11.0407183"><ele>582.75</ele><time>2026-04-25T06:31:33.4Z</time></trkpt><trkpt lat="44.38291" lon="11.0406333"><ele>587.5</ele><time>2026-04-25T06:31:34.399Z</time></trkpt><trkpt lat="44.3828033" lon="11.0405433"><ele>592.25</ele><time>2026-04-25T06:31:35.39Z</time></trkpt><trkpt lat="44.382695" lon="11.040465"><ele>597.0</ele><time>2026-04-25T06:31:36.393Z</time></trkpt><trkpt lat="44.3826" lon="11.0404083"><ele>597.0</ele><time>2026-04-25T06:31:37.394Z</time></trkpt><trkpt lat="44.3825183" lon="11.0403583"><ele>597.0</ele><time>2026-04-25T06:31:38.39Z</time></trkpt><trkpt lat="44.3824517" lon="11.0403183"><ele>597.0</ele><time>2026-04-25T06:31:39.396Z</time></trkpt><trkpt lat="44.3823633" lon="11.040215"><ele>597.0</ele><time>2026-04-25T06:31:41.399Z</time></trkpt><trkpt lat="44.3824167" lon="11.0399583"><ele>595.6</ele><time>2026-04-25T06:31:43.389Z</time></trkpt><trkpt lat="44.3824567" lon="11.0398283"><ele>594.2</ele><time>2026-04-25T06:31:44.393Z</time></trkpt><trkpt lat="44.382485" lon="11.0397317"><ele>592.8</ele><time>2026-04-25T06:31:45.393Z</time></trkpt><trkpt lat="44.38245" lon="11.0396017"><ele>591.4</ele><time>2026-04-25T06:31:47.397Z</time></trkpt><trkpt lat="44.382315" lon="11.0395767"><ele>590.0</ele><time>2026-04-25T06:31:49.39Z</time></trkpt><trkpt lat="44.382235" lon="11.0395933"><ele>593.4</ele><time>2026-04-25T06:31:50.397Z</time></trkpt><trkpt lat="44.3821617" lon="11.0395933"><ele>596.8</ele><time>2026-04-25T06:31:51.393Z</time></trkpt><trkpt lat="44.3820983" lon="11.0395883"><ele>600.2</ele><time>2026-04-25T06:31:52.389Z</time></trkpt><trkpt lat="44.3819883" lon="11.0395667"><ele>603.6</ele><time>2026-04-25T06:31:54.395Z</time></trkpt><trkpt lat="44.38185" lon="11.0395533"><ele>607.0</ele><time>2026-04-25T06:31:56.395Z</time></trkpt><trkpt lat="44.38176" lon="11.0395117"><ele>607.0</ele><time>2026-04-25T06:31:57.395Z</time></trkpt><trkpt lat="44.3816683" lon="11.0394517"><ele>607.0</ele><time>2026-04-25T06:31:58.393Z</time></trkpt><trkpt lat="44.3816" lon="11.0394067"><ele>607.0</ele><time>2026-04-25T06:31:59.398Z</time></trkpt><trkpt lat="44.381525" lon="11.03935"><ele>607.0</ele><time>2026-04-25T06:32:00.395Z</time></trkpt><trkpt lat="44.3814383" lon="11.039285"><ele>607.0</ele><time>2026-04-25T06:32:01.394Z</time></trkpt><trkpt lat="44.3813567" lon="11.0392217"><ele>607.5</ele><time>2026-04-25T06:32:02.392Z</time></trkpt><trkpt lat="44.38128" lon="11.03916"><ele>608.0</ele><time>2026-04-25T06:32:03.392Z</time></trkpt><trkpt lat="44.3812" lon="11.0391217"><ele>608.5</ele><time>2026-04-25T06:32:04.395Z</time></trkpt><trkpt lat="44.3811183" lon="11.03908"><ele>609.0</ele><time>2026-04-25T06:32:05.391Z</time></trkpt><trkpt lat="44.3810417" lon="11.0390367"><ele>609.5</ele><time>2026-04-25T06:32:06.397Z</time></trkpt><trkpt lat="44.38097" lon="11.0389917"><ele>610.0</ele><time>2026-04-25T06:32:07.404Z</time></trkpt><trkpt lat="44.380885" lon="11.0389517"><ele>610.5</ele><time>2026-04-25T06:32:08.397Z</time></trkpt><trkpt lat="44.3807967" lon="11.0389267"><ele>611.0</ele><time>2026-04-25T06:32:09.391Z</time></trkpt><trkpt lat="44.3807167" lon="11.03892"><ele>611.5</ele><time>2026-04-25T06:32:10.395Z</time></trkpt><trkpt lat="44.3806133" lon="11.0389217"><ele>612.0</ele><time>2026-04-25T06:32:12.392Z</time></trkpt><trkpt lat="44.3805317" lon="11.038955"><ele>612.5</ele><time>2026-04-25T06:32:14.392Z</time></trkpt><trkpt lat="44.38046" lon="11.0389883"><ele>613.0</ele><time>2026-04-25T06:32:16.396Z</time></trkpt><trkpt lat="44.3803917" lon="11.0389867"><ele>613.0</ele><time>2026-04-25T06:32:18.394Z</time></trkpt><trkpt lat="44.38029" lon="11.0389717"><ele>613.0</ele><time>2026-04-25T06:32:21.393Z</time></trkpt><trkpt lat="44.3801967" lon="11.0389667"><ele>613.0</ele><time>2026-04-25T06:32:23.393Z</time></trkpt><trkpt lat="44.3800933" lon="11.0389433"><ele>613.0</ele><time>2026-04-25T06:32:25.391Z</time></trkpt><trkpt lat="44.38" lon="11.038885"><ele>613.0</ele><time>2026-04-25T06:32:27.395Z</time></trkpt><trkpt lat="44.3799067" lon="11.0388333"><ele>613.0</ele><time>2026-04-25T06:32:29.392Z</time></trkpt><trkpt lat="44.379795" lon="11.0388017"><ele>613.0</ele><time>2026-04-25T06:32:31.393Z</time></trkpt><trkpt lat="44.3796833" lon="11.0388033"><ele>613.0</ele><time>2026-04-25T06:32:33.393Z</time></trkpt><trkpt lat="44.3795667" lon="11.038765"><ele>613.0</ele><time>2026-04-25T06:32:35.401Z</time></trkpt><trkpt lat="44.3794983" lon="11.038735"><ele>613.0</ele><time>2026-04-25T06:32:36.391Z</time></trkpt><trkpt lat="44.37943" lon="11.038715"><ele>615.0</ele><time>2026-04-25T06:32:37.401Z</time></trkpt><trkpt lat="44.3793683" lon="11.0386883"><ele>617.0</ele><time>2026-04-25T06:32:38.397Z</time></trkpt><trkpt lat="44.379245" lon="11.03863"><ele>619.0</ele><time>2026-04-25T06:32:40.396Z</time></trkpt><trkpt lat="44.3791833" lon="11.0386017"><ele>621.0</ele><time>2026-04-25T06:32:41.392Z</time></trkpt><trkpt lat="44.379075" lon="11.0385533"><ele>623.0</ele><time>2026-04-25T06:32:43.392Z</time></trkpt><trkpt lat="44.3789983" lon="11.03851"><ele>623.0</ele><time>2026-04-25T06:32:45.391Z</time></trkpt><trkpt lat="44.3789083" lon="11.03848"><ele>623.0</ele><time>2026-04-25T06:32:48.393Z</time></trkpt><trkpt lat="44.3788433" lon="11.0384833"><ele>623.0</ele><time>2026-04-25T06:32:50.39Z</time></trkpt><trkpt lat="44.3787717" lon="11.0384617"><ele>623.0</ele><time>2026-04-25T06:32:52.391Z</time></trkpt><trkpt lat="44.3787067" lon="11.0384217"><ele>623.0</ele><time>2026-04-25T06:32:54.393Z</time></trkpt><trkpt lat="44.378635" lon="11.0383917"><ele>623.0</ele><time>2026-04-25T06:32:56.397Z</time></trkpt><trkpt lat="44.3785683" lon="11.0383517"><ele>623.0</ele><time>2026-04-25T06:32:58.396Z</time></trkpt><trkpt lat="44.3784983" lon="11.0382967"><ele>625.1999999999999</ele><time>2026-04-25T06:33:01.398Z</time></trkpt><trkpt lat="44.3784517" lon="11.0382317"><ele>627.4</ele><time>2026-04-25T06:33:05.394Z</time></trkpt><trkpt lat="44.3783683" lon="11.0381967"><ele>629.5999999999999</ele><time>2026-04-25T06:37:36.39Z</time></trkpt><trkpt lat="44.3783167" lon="11.0380717"><ele>631.8</ele><time>2026-04-25T06:44:22.395Z</time></trkpt><trkpt lat="44.378205" lon="11.0379533"><ele>634.0</ele><time>2026-04-25T06:46:02.395Z</time></trkpt><trkpt lat="44.3781367" lon="11.0379467"><ele>634.0</ele><time>2026-04-25T06:46:05.395Z</time></trkpt><trkpt lat="44.37805" lon="11.0379767"><ele>634.0</ele><time>2026-04-25T06:46:07.395Z</time></trkpt><trkpt lat="44.3779483" lon="11.03803"><ele>634.0</ele><time>2026-04-25T06:46:09.398Z</time></trkpt><trkpt lat="44.3778833" lon="11.0380667"><ele>634.0</ele><time>2026-04-25T06:46:11.395Z</time></trkpt><trkpt lat="44.3778017" lon="11.0381"><ele>634.0</ele><time>2026-04-25T06:50:01.393Z</time></trkpt><trkpt lat="44.3776733" lon="11.0381283"><ele>634.8333333333334</ele><time>2026-04-25T06:50:03.395Z</time></trkpt><trkpt lat="44.3775967" lon="11.038135"><ele>635.6666666666667</ele><time>2026-04-25T06:50:04.394Z</time></trkpt><trkpt lat="44.37752" lon="11.0381417"><ele>636.5</ele><time>2026-04-25T06:50:05.39Z</time></trkpt><trkpt lat="44.3774383" lon="11.0381467"><ele>637.3333333333334</ele><time>2026-04-25T06:50:06.397Z</time></trkpt><trkpt lat="44.3773583" lon="11.0381417"><ele>638.1666666666666</ele><time>2026-04-25T06:50:07.397Z</time></trkpt><trkpt lat="44.3772867" lon="11.0381367"><ele>639.0</ele><time>2026-04-25T06:50:08.395Z</time></trkpt><trkpt lat="44.3772167" lon="11.0381417"><ele>640.4285714285714</ele><time>2026-04-25T06:50:09.395Z</time></trkpt><trkpt lat="44.3771483" lon="11.0381617"><ele>641.8571428571429</ele><time>2026-04-25T06:50:10.394Z</time></trkpt><trkpt lat="44.37708" lon="11.0381817"><ele>643.2857142857142</ele><time>2026-04-25T06:50:11.392Z</time></trkpt><trkpt lat="44.37701" lon="11.0381933"><ele>644.7142857142858</ele><time>2026-04-25T06:50:12.393Z</time></trkpt><trkpt lat="44.3769433" lon="11.038185"><ele>646.1428571428571</ele><time>2026-04-25T06:50:13.393Z</time></trkpt><trkpt lat="44.37688" lon="11.0381633"><ele>647.5714285714286</ele><time>2026-04-25T06:50:14.399Z</time></trkpt><trkpt lat="44.376815" lon="11.038115"><ele>649.0</ele><time>2026-04-25T06:50:15.394Z</time></trkpt><trkpt lat="44.37675" lon="11.038045"><ele>649.0</ele><time>2026-04-25T06:50:16.395Z</time></trkpt><trkpt lat="44.3766967" lon="11.0379733"><ele>649.0</ele><time>2026-04-25T06:50:17.396Z</time></trkpt><trkpt lat="44.3766333" lon="11.0378417"><ele>649.0</ele><time>2026-04-25T06:50:19.397Z</time></trkpt><trkpt lat="44.3765783" lon="11.03771"><ele>649.0</ele><time>2026-04-25T06:50:21.399Z</time></trkpt><trkpt lat="44.3765033" lon="11.037595"><ele>649.0</ele><time>2026-04-25T06:50:23.393Z</time></trkpt><trkpt lat="44.3764583" lon="11.0375317"><ele>648.3333333333334</ele><time>2026-04-25T06:50:24.395Z</time></trkpt><trkpt lat="44.3764217" lon="11.0374483"><ele>647.6666666666667</ele><time>2026-04-25T06:50:25.392Z</time></trkpt><trkpt lat="44.376395" lon="11.0373567"><ele>647.0</ele><time>2026-04-25T06:50:26.395Z</time></trkpt><trkpt lat="44.3763767" lon="11.03725"><ele>646.3333333333334</ele><time>2026-04-25T06:50:27.394Z</time></trkpt><trkpt lat="44.3763633" lon="11.037135"><ele>645.6666666666666</ele><time>2026-04-25T06:50:28.393Z</time></trkpt><trkpt lat="44.376355" lon="11.03701"><ele>645.0</ele><time>2026-04-25T06:50:29.396Z</time></trkpt><trkpt lat="44.3763517" lon="11.0368833"><ele>644.4</ele><time>2026-04-25T06:50:30.394Z</time></trkpt><trkpt lat="44.3763467" lon="11.0367567"><ele>643.8</ele><time>2026-04-25T06:50:31.393Z</time></trkpt><trkpt lat="44.3763367" lon="11.03662"><ele>643.2</ele><time>2026-04-25T06:50:32.396Z</time></trkpt><trkpt lat="44.3763267" lon="11.0364817"><ele>642.6</ele><time>2026-04-25T06:50:33.393Z</time></trkpt><trkpt lat="44.376315" lon="11.0363533"><ele>642.0</ele><time>2026-04-25T06:50:34.395Z</time></trkpt><trkpt lat="44.3763083" lon="11.036245"><ele>643.3333333333334</ele><time>2026-04-25T06:50:35.394Z</time></trkpt><trkpt lat="44.3763033" lon="11.0361567"><ele>644.6666666666666</ele><time>2026-04-25T06:50:36.393Z</time></trkpt><trkpt lat="44.376295" lon="11.036055"><ele>646.0</ele><time>2026-04-25T06:50:38.394Z</time></trkpt><trkpt lat="44.3762967" lon="11.035945"><ele>647.3333333333333</ele><time>2026-04-25T06:50:41.394Z</time></trkpt><trkpt lat="44.3762883" lon="11.0358"><ele>648.6666666666666</ele><time>2026-04-25T06:50:43.396Z</time></trkpt><trkpt lat="44.37627" lon="11.0357133"><ele>650.0</ele><time>2026-04-25T06:50:44.395Z</time></trkpt><trkpt lat="44.376235" lon="11.0356283"><ele>651.4285714285714</ele><time>2026-04-25T06:50:45.396Z</time></trkpt><trkpt lat="44.3762017" lon="11.0355517"><ele>652.8571428571429</ele><time>2026-04-25T06:50:46.393Z</time></trkpt><trkpt lat="44.37617" lon="11.035475"><ele>654.2857142857143</ele><time>2026-04-25T06:50:47.395Z</time></trkpt><trkpt lat="44.3761383" lon="11.0353967"><ele>655.7142857142858</ele><time>2026-04-25T06:50:48.393Z</time></trkpt><trkpt lat="44.3760983" lon="11.0353233"><ele>657.1428571428571</ele><time>2026-04-25T06:50:49.395Z</time></trkpt><trkpt lat="44.3760567" lon="11.0352483"><ele>658.5714285714287</ele><time>2026-04-25T06:50:50.394Z</time></trkpt><trkpt lat="44.3760183" lon="11.0351667"><ele>660.0</ele><time>2026-04-25T06:50:51.394Z</time></trkpt><trkpt lat="44.3759767" lon="11.03508"><ele>660.0000000000001</ele><time>2026-04-25T06:50:52.394Z</time></trkpt><trkpt lat="44.37594" lon="11.0349917"><ele>660.0</ele><time>2026-04-25T06:50:53.393Z</time></trkpt><trkpt lat="44.3759083" lon="11.0349067"><ele>660.0</ele><time>2026-04-25T06:50:54.394Z</time></trkpt><trkpt lat="44.3758817" lon="11.0348167"><ele>660.0</ele><time>2026-04-25T06:50:55.394Z</time></trkpt><trkpt lat="44.3758617" lon="11.0347183"><ele>660.0</ele><time>2026-04-25T06:50:56.396Z</time></trkpt><trkpt lat="44.375835" lon="11.0346117"><ele>660.0000000000001</ele><time>2026-04-25T06:50:57.396Z</time></trkpt><trkpt lat="44.3757983" lon="11.03451"><ele>660.0</ele><time>2026-04-25T06:50:58.395Z</time></trkpt><trkpt lat="44.37576" lon="11.03442"><ele>661.6</ele><time>2026-04-25T06:50:59.393Z</time></trkpt><trkpt lat="44.3757117" lon="11.0343033"><ele>663.2</ele><time>2026-04-25T06:51:01.396Z</time></trkpt><trkpt lat="44.375675" lon="11.0341567"><ele>664.8</ele><time>2026-04-25T06:51:03.394Z</time></trkpt><trkpt lat="44.3756483" lon="11.03405"><ele>666.4</ele><time>2026-04-25T06:51:04.393Z</time></trkpt><trkpt lat="44.3756083" lon="11.03394"><ele>668.0</ele><time>2026-04-25T06:51:05.396Z</time></trkpt><trkpt lat="44.3755583" lon="11.03384"><ele>669.2</ele><time>2026-04-25T06:51:06.394Z</time></trkpt><trkpt lat="44.375505" lon="11.0337417"><ele>670.4</ele><time>2026-04-25T06:51:07.394Z</time></trkpt><trkpt lat="44.3754433" lon="11.0336483"><ele>671.6</ele><time>2026-04-25T06:51:08.395Z</time></trkpt><trkpt lat="44.375385" lon="11.0335417"><ele>672.8000000000001</ele><time>2026-04-25T06:51:09.393Z</time></trkpt><trkpt lat="44.3753367" lon="11.033425"><ele>674.0</ele><time>2026-04-25T06:51:10.393Z</time></trkpt><trkpt lat="44.375295" lon="11.0333083"><ele>674.0000000000001</ele><time>2026-04-25T06:51:11.394Z</time></trkpt><trkpt lat="44.3752483" lon="11.0332117"><ele>674.0</ele><time>2026-04-25T06:51:12.392Z</time></trkpt><trkpt lat="44.3752033" lon="11.0331267"><ele>674.0</ele><time>2026-04-25T06:51:13.393Z</time></trkpt><trkpt lat="44.3751633" lon="11.0330367"><ele>674.0</ele><time>2026-04-25T06:51:14.396Z</time></trkpt><trkpt lat="44.375125" lon="11.0329483"><ele>674.0</ele><time>2026-04-25T06:51:15.394Z</time></trkpt><trkpt lat="44.3750833" lon="11.0328717"><ele>674.0000000000001</ele><time>2026-04-25T06:51:16.393Z</time></trkpt><trkpt lat="44.37504" lon="11.0328033"><ele>674.0</ele><time>2026-04-25T06:51:17.393Z</time></trkpt><trkpt lat="44.3750033" lon="11.0327317"><ele>674.0</ele><time>2026-04-25T06:51:18.393Z</time></trkpt><trkpt lat="44.3749767" lon="11.03265"><ele>674.0</ele><time>2026-04-25T06:51:19.394Z</time></trkpt><trkpt lat="44.3749283" lon="11.032515"><ele>674.0</ele><time>2026-04-25T06:51:21.389Z</time></trkpt><trkpt lat="44.37486" lon="11.0324083"><ele>674.0</ele><time>2026-04-25T06:51:23.394Z</time></trkpt><trkpt lat="44.374805" lon="11.03224"><ele>674.0</ele><time>2026-04-25T06:51:25.395Z</time></trkpt><trkpt lat="44.37478" lon="11.03213"><ele>673.6</ele><time>2026-04-25T06:51:26.395Z</time></trkpt><trkpt lat="44.3747533" lon="11.0319983"><ele>673.2</ele><time>2026-04-25T06:51:27.394Z</time></trkpt><trkpt lat="44.3747117" lon="11.031865"><ele>672.8000000000001</ele><time>2026-04-25T06:51:28.395Z</time></trkpt><trkpt lat="44.3746583" lon="11.0317517"><ele>672.4000000000001</ele><time>2026-04-25T06:51:29.393Z</time></trkpt><trkpt lat="44.37459" lon="11.03165"><ele>672.0</ele><time>2026-04-25T06:51:30.394Z</time></trkpt><trkpt lat="44.37451" lon="11.0315583"><ele>674.2</ele><time>2026-04-25T06:51:31.392Z</time></trkpt><trkpt lat="44.37443" lon="11.0314783"><ele>676.4000000000001</ele><time>2026-04-25T06:51:32.397Z</time></trkpt><trkpt lat="44.3743433" lon="11.0314067"><ele>678.5999999999999</ele><time>2026-04-25T06:51:33.395Z</time></trkpt><trkpt lat="44.3742567" lon="11.03133"><ele>680.8</ele><time>2026-04-25T06:51:34.394Z</time></trkpt><trkpt lat="44.3741633" lon="11.0312533"><ele>683.0</ele><time>2026-04-25T06:51:35.394Z</time></trkpt><trkpt lat="44.374075" lon="11.0311717"><ele>683.0</ele><time>2026-04-25T06:51:36.394Z</time></trkpt><trkpt lat="44.3739983" lon="11.0310867"><ele>683.0</ele><time>2026-04-25T06:51:37.394Z</time></trkpt><trkpt lat="44.3739317" lon="11.03099"><ele>683.0</ele><time>2026-04-25T06:51:38.394Z</time></trkpt><trkpt lat="44.3738733" lon="11.0308883"><ele>683.0</ele><time>2026-04-25T06:51:39.395Z</time></trkpt><trkpt lat="44.3738183" lon="11.03079"><ele>683.0</ele><time>2026-04-25T06:51:40.395Z</time></trkpt><trkpt lat="44.37376" lon="11.030705"><ele>685.2</ele><time>2026-04-25T06:51:41.393Z</time></trkpt><trkpt lat="44.3737067" lon="11.0306167"><ele>687.4</ele><time>2026-04-25T06:51:42.395Z</time></trkpt><trkpt lat="44.373655" lon="11.0305083"><ele>689.6</ele><time>2026-04-25T06:51:43.392Z</time></trkpt><trkpt lat="44.3736033" lon="11.0303833"><ele>691.8000000000001</ele><time>2026-04-25T06:51:44.396Z</time></trkpt><trkpt lat="44.3735633" lon="11.0302467"><ele>694.0</ele><time>2026-04-25T06:51:45.394Z</time></trkpt><trkpt lat="44.3735317" lon="11.0301033"><ele>694.6</ele><time>2026-04-25T06:51:46.396Z</time></trkpt><trkpt lat="44.3734983" lon="11.029955"><ele>695.2</ele><time>2026-04-25T06:51:47.395Z</time></trkpt><trkpt lat="44.373475" lon="11.029815"><ele>695.8000000000001</ele><time>2026-04-25T06:51:48.397Z</time></trkpt><trkpt lat="44.37346" lon="11.0296867"><ele>696.4000000000001</ele><time>2026-04-25T06:51:49.396Z</time></trkpt><trkpt lat="44.3734667" lon="11.029565"><ele>697.0</ele><time>2026-04-25T06:51:50.394Z</time></trkpt><trkpt lat="44.373495" lon="11.029435"><ele>697.0</ele><time>2026-04-25T06:51:51.395Z</time></trkpt><trkpt lat="44.3735267" lon="11.0293067"><ele>697.0</ele><time>2026-04-25T06:51:52.393Z</time></trkpt><trkpt lat="44.373545" lon="11.0291767"><ele>697.0</ele><time>2026-04-25T06:51:53.394Z</time></trkpt><trkpt lat="44.3735483" lon="11.0290467"><ele>697.0</ele><time>2026-04-25T06:51:54.397Z</time></trkpt><trkpt lat="44.3735383" lon="11.028915"><ele>697.0</ele><time>2026-04-25T06:51:55.396Z</time></trkpt><trkpt lat="44.3735317" lon="11.02878"><ele>697.6</ele><time>2026-04-25T06:51:56.397Z</time></trkpt><trkpt lat="44.3735267" lon="11.028635"><ele>698.2</ele><time>2026-04-25T06:51:57.396Z</time></trkpt><trkpt lat="44.3735267" lon="11.028485"><ele>698.8</ele><time>2026-04-25T06:51:58.394Z</time></trkpt><trkpt lat="44.3735283" lon="11.0283467"><ele>699.4</ele><time>2026-04-25T06:51:59.396Z</time></trkpt><trkpt lat="44.373535" lon="11.028215"><ele>700.0</ele><time>2026-04-25T06:52:00.395Z</time></trkpt><trkpt lat="44.3735483" lon="11.02809"><ele>700.5</ele><time>2026-04-25T06:52:01.394Z</time></trkpt><trkpt lat="44.3735617" lon="11.027965"><ele>701.0</ele><time>2026-04-25T06:52:02.393Z</time></trkpt><trkpt lat="44.3735783" lon="11.02784"><ele>701.5</ele><time>2026-04-25T06:52:03.393Z</time></trkpt><trkpt lat="44.3736" lon="11.02772"><ele>702.0</ele><time>2026-04-25T06:52:04.392Z</time></trkpt><trkpt lat="44.3736233" lon="11.0276017"><ele>702.5</ele><time>2026-04-25T06:52:05.395Z</time></trkpt><trkpt lat="44.373645" lon="11.027495"><ele>703.0</ele><time>2026-04-25T06:52:06.398Z</time></trkpt><trkpt lat="44.3736683" lon="11.0274"><ele>703.8333333333334</ele><time>2026-04-25T06:52:07.395Z</time></trkpt><trkpt lat="44.37369" lon="11.02731"><ele>704.6666666666667</ele><time>2026-04-25T06:52:08.394Z</time></trkpt><trkpt lat="44.373715" lon="11.027225"><ele>705.5</ele><time>2026-04-25T06:52:09.395Z</time></trkpt><trkpt lat="44.3737583" lon="11.0270883"><ele>706.3333333333334</ele><time>2026-04-25T06:52:11.392Z</time></trkpt><trkpt lat="44.373755" lon="11.0269383"><ele>707.1666666666666</ele><time>2026-04-25T06:52:13.399Z</time></trkpt><trkpt lat="44.3737533" lon="11.0268433"><ele>708.0</ele><time>2026-04-25T06:52:14.389Z</time></trkpt><trkpt lat="44.3737533" lon="11.0267367"><ele>708.5</ele><time>2026-04-25T06:52:15.394Z</time></trkpt><trkpt lat="44.3737617" lon="11.0266283"><ele>709.0</ele><time>2026-04-25T06:52:16.395Z</time></trkpt><trkpt lat="44.3737733" lon="11.0265117"><ele>709.5</ele><time>2026-04-25T06:52:17.396Z</time></trkpt><trkpt lat="44.373785" lon="11.0263967"><ele>710.0</ele><time>2026-04-25T06:52:18.398Z</time></trkpt><trkpt lat="44.37379" lon="11.0262833"><ele>710.5</ele><time>2026-04-25T06:52:19.391Z</time></trkpt><trkpt lat="44.3737933" lon="11.0261733"><ele>711.0</ele><time>2026-04-25T06:52:20.397Z</time></trkpt><trkpt lat="44.3738017" lon="11.0260667"><ele>711.0</ele><time>2026-04-25T06:52:21.397Z</time></trkpt><trkpt lat="44.373815" lon="11.02597"><ele>711.0</ele><time>2026-04-25T06:52:22.393Z</time></trkpt><trkpt lat="44.373825" lon="11.0258683"><ele>711.0</ele><time>2026-04-25T06:52:23.395Z</time></trkpt><trkpt lat="44.3738233" lon="11.025755"><ele>711.0</ele><time>2026-04-25T06:52:24.396Z</time></trkpt><trkpt lat="44.37382" lon="11.02565"><ele>711.0</ele><time>2026-04-25T06:52:25.393Z</time></trkpt><trkpt lat="44.3738033" lon="11.0254917"><ele>711.0</ele><time>2026-04-25T06:52:27.396Z</time></trkpt><trkpt lat="44.373775" lon="11.0253417"><ele>712.4</ele><time>2026-04-25T06:52:29.394Z</time></trkpt><trkpt lat="44.3737517" lon="11.02519"><ele>713.8</ele><time>2026-04-25T06:52:31.397Z</time></trkpt><trkpt lat="44.373745" lon="11.0250983"><ele>715.1999999999999</ele><time>2026-04-25T06:52:33.393Z</time></trkpt><trkpt lat="44.37376" lon="11.025"><ele>716.5999999999999</ele><time>2026-04-25T06:52:50.395Z</time></trkpt><trkpt lat="44.37377" lon="11.0248133"><ele>718.0</ele><time>2026-04-25T06:52:52.399Z</time></trkpt><trkpt lat="44.3737633" lon="11.0246833"><ele>719.5</ele><time>2026-04-25T06:52:53.395Z</time></trkpt><trkpt lat="44.3737567" lon="11.0245517"><ele>721.0</ele><time>2026-04-25T06:52:54.394Z</time></trkpt><trkpt lat="44.3737567" lon="11.0244317"><ele>722.5</ele><time>2026-04-25T06:52:55.39Z</time></trkpt><trkpt lat="44.3737583" lon="11.0243233"><ele>724.0</ele><time>2026-04-25T06:52:56.389Z</time></trkpt><trkpt lat="44.3737633" lon="11.0242283"><ele>725.5</ele><time>2026-04-25T06:52:57.398Z</time></trkpt><trkpt lat="44.3737833" lon="11.0240833"><ele>727.0</ele><time>2026-04-25T06:52:59.395Z</time></trkpt><trkpt lat="44.3738083" lon="11.0239483"><ele>729.8333333333334</ele><time>2026-04-25T06:53:01.393Z</time></trkpt><trkpt lat="44.3738217" lon="11.0238267"><ele>732.6666666666667</ele><time>2026-04-25T06:53:03.392Z</time></trkpt><trkpt lat="44.3738567" lon="11.0237333"><ele>735.5</ele><time>2026-04-25T06:53:06.392Z</time></trkpt><trkpt lat="44.3738883" lon="11.02365"><ele>738.3333333333334</ele><time>2026-04-25T06:53:08.394Z</time></trkpt><trkpt lat="44.3738783" lon="11.0235017"><ele>741.1666666666666</ele><time>2026-04-25T06:53:10.394Z</time></trkpt><trkpt lat="44.3738617" lon="11.0234017"><ele>744.0</ele><time>2026-04-25T06:53:11.394Z</time></trkpt><trkpt lat="44.3738417" lon="11.02329"><ele>746.3333333333334</ele><time>2026-04-25T06:53:12.394Z</time></trkpt><trkpt lat="44.3738233" lon="11.0231683"><ele>748.6666666666666</ele><time>2026-04-25T06:53:13.394Z</time></trkpt><trkpt lat="44.3738033" lon="11.023055"><ele>751.0</ele><time>2026-04-25T06:53:14.394Z</time></trkpt><trkpt lat="44.3737817" lon="11.0229517"><ele>753.3333333333333</ele><time>2026-04-25T06:53:15.393Z</time></trkpt><trkpt lat="44.37375" lon="11.0228433"><ele>755.6666666666666</ele><time>2026-04-25T06:53:16.394Z</time></trkpt><trkpt lat="44.373715" lon="11.0227433"><ele>758.0</ele><time>2026-04-25T06:53:17.393Z</time></trkpt><trkpt lat="44.3736833" lon="11.0226517"><ele>758.0</ele><time>2026-04-25T06:53:18.397Z</time></trkpt><trkpt lat="44.3736333" lon="11.0225717"><ele>758.0</ele><time>2026-04-25T06:53:19.39Z</time></trkpt><trkpt lat="44.373585" lon="11.022505"><ele>758.0</ele><time>2026-04-25T06:53:20.389Z</time></trkpt><trkpt lat="44.3734733" lon="11.02242"><ele>758.0</ele><time>2026-04-25T06:53:22.392Z</time></trkpt><trkpt lat="44.3733717" lon="11.0223633"><ele>758.0</ele><time>2026-04-25T06:53:24.397Z</time></trkpt><trkpt lat="44.3732817" lon="11.0223533"><ele>757.1666666666666</ele><time>2026-04-25T06:53:26.395Z</time></trkpt><trkpt lat="44.3731967" lon="11.0224083"><ele>756.3333333333333</ele><time>2026-04-25T06:53:28.391Z</time></trkpt><trkpt lat="44.3731183" lon="11.022445"><ele>755.5</ele><time>2026-04-25T06:53:30.393Z</time></trkpt><trkpt lat="44.373036" lon="11.0224754"><ele>754.6666666666666</ele><time>2026-04-25T06:53:33.395Z</time></trkpt><trkpt lat="44.3729566" lon="11.0224882"><ele>753.8333333333334</ele><time>2026-04-25T06:53:37.396Z</time></trkpt><trkpt lat="44.37289" lon="11.022535"><ele>753.0</ele><time>2026-04-25T06:53:40.398Z</time></trkpt><trkpt lat="44.3728233" lon="11.022605"><ele>749.6666666666666</ele><time>2026-04-25T06:53:43.396Z</time></trkpt><trkpt lat="44.37276" lon="11.0226333"><ele>746.3333333333334</ele><time>2026-04-25T06:53:45.396Z</time></trkpt><trkpt lat="44.3727017" lon="11.0226667"><ele>743.0</ele><time>2026-04-25T06:53:47.396Z</time></trkpt><trkpt lat="44.3726317" lon="11.022715"><ele>739.6666666666667</ele><time>2026-04-25T06:53:49.395Z</time></trkpt><trkpt lat="44.3725583" lon="11.0227683"><ele>736.3333333333334</ele><time>2026-04-25T06:53:51.395Z</time></trkpt><trkpt lat="44.3724783" lon="11.0228117"><ele>733.0</ele><time>2026-04-25T06:53:53.394Z</time></trkpt><trkpt lat="44.37239" lon="11.0228633"><ele>733.0</ele><time>2026-04-25T06:53:55.395Z</time></trkpt><trkpt lat="44.372315" lon="11.02288"><ele>733.0</ele><time>2026-04-25T06:53:57.393Z</time></trkpt><trkpt lat="44.372245" lon="11.0228767"><ele>733.0</ele><time>2026-04-25T06:53:59.396Z</time></trkpt><trkpt lat="44.37217" lon="11.02287"><ele>733.0</ele><time>2026-04-25T06:54:01.394Z</time></trkpt><trkpt lat="44.3720983" lon="11.0228567"><ele>733.0</ele><time>2026-04-25T06:54:03.395Z</time></trkpt><trkpt lat="44.372015" lon="11.0228483"><ele>733.0</ele><time>2026-04-25T06:54:05.395Z</time></trkpt><trkpt lat="44.3719333" lon="11.02285"><ele>729.0</ele><time>2026-04-25T06:54:07.393Z</time></trkpt><trkpt lat="44.3718633" lon="11.0228467"><ele>725.0</ele><time>2026-04-25T06:54:09.394Z</time></trkpt><trkpt lat="44.3717867" lon="11.0227983"><ele>721.0</ele><time>2026-04-25T06:54:12.395Z</time></trkpt><trkpt lat="44.3717283" lon="11.022725"><ele>717.0</ele><time>2026-04-25T06:54:14.394Z</time></trkpt><trkpt lat="44.37166" lon="11.0226483"><ele>713.0</ele><time>2026-04-25T06:54:16.393Z</time></trkpt><trkpt lat="44.3715933" lon="11.022615"><ele>709.0</ele><time>2026-04-25T06:54:18.395Z</time></trkpt><trkpt lat="44.37153" lon="11.02269"><ele>709.0</ele><time>2026-04-25T06:54:21.395Z</time></trkpt><trkpt lat="44.3715267" lon="11.0228317"><ele>709.0</ele><time>2026-04-25T06:54:23.393Z</time></trkpt><trkpt lat="44.3715183" lon="11.023"><ele>709.0</ele><time>2026-04-25T06:54:25.393Z</time></trkpt><trkpt lat="44.371505" lon="11.02316"><ele>709.0</ele><time>2026-04-25T06:54:27.395Z</time></trkpt><trkpt lat="44.3714767" lon="11.0233"><ele>709.0</ele><time>2026-04-25T06:54:29.393Z</time></trkpt><trkpt lat="44.3714283" lon="11.0234217"><ele>709.8000000000001</ele><time>2026-04-25T06:54:31.392Z</time></trkpt><trkpt lat="44.3713617" lon="11.0235017"><ele>710.6</ele><time>2026-04-25T06:54:33.393Z</time></trkpt><trkpt lat="44.3713" lon="11.02359"><ele>711.4</ele><time>2026-04-25T06:54:35.393Z</time></trkpt><trkpt lat="44.3712567" lon="11.0237017"><ele>712.2</ele><time>2026-04-25T06:54:37.393Z</time></trkpt><trkpt lat="44.371205" lon="11.0238117"><ele>713.0</ele><time>2026-04-25T06:54:39.394Z</time></trkpt><trkpt lat="44.37118" lon="11.0239333"><ele>706.8</ele><time>2026-04-25T06:54:41.393Z</time></trkpt><trkpt lat="44.3711717" lon="11.0240917"><ele>700.5999999999999</ele><time>2026-04-25T06:54:43.395Z</time></trkpt><trkpt lat="44.3711683" lon="11.0242567"><ele>694.4000000000001</ele><time>2026-04-25T06:54:45.395Z</time></trkpt><trkpt lat="44.37113" lon="11.0244267"><ele>688.2</ele><time>2026-04-25T06:54:47.395Z</time></trkpt><trkpt lat="44.3711" lon="11.0245133"><ele>682.0</ele><time>2026-04-25T06:54:48.397Z</time></trkpt><trkpt lat="44.3710633" lon="11.0246667"><ele>682.0</ele><time>2026-04-25T06:54:50.395Z</time></trkpt><trkpt lat="44.3710433" lon="11.0248267"><ele>682.0</ele><time>2026-04-25T06:54:52.394Z</time></trkpt><trkpt lat="44.3710067" lon="11.0249667"><ele>682.0</ele><time>2026-04-25T06:54:54.394Z</time></trkpt><trkpt lat="44.3709817" lon="11.0250517"><ele>682.0</ele><time>2026-04-25T06:54:55.394Z</time></trkpt><trkpt lat="44.3709617" lon="11.0251467"><ele>682.0</ele><time>2026-04-25T06:54:56.395Z</time></trkpt><trkpt lat="44.3709417" lon="11.0252517"><ele>682.0</ele><time>2026-04-25T06:54:57.394Z</time></trkpt><trkpt lat="44.3709133" lon="11.0253517"><ele>682.5714285714286</ele><time>2026-04-25T06:54:58.393Z</time></trkpt><trkpt lat="44.3708767" lon="11.0254433"><ele>683.1428571428571</ele><time>2026-04-25T06:54:59.395Z</time></trkpt><trkpt lat="44.3708383" lon="11.0255217"><ele>683.7142857142858</ele><time>2026-04-25T06:55:00.396Z</time></trkpt><trkpt lat="44.3708067" lon="11.0256"><ele>684.2857142857142</ele><time>2026-04-25T06:55:01.395Z</time></trkpt><trkpt lat="44.37078" lon="11.0256883"><ele>684.8571428571429</ele><time>2026-04-25T06:55:02.397Z</time></trkpt><trkpt lat="44.3707533" lon="11.025785"><ele>685.4285714285714</ele><time>2026-04-25T06:55:03.395Z</time></trkpt><trkpt lat="44.37073" lon="11.0258717"><ele>686.0</ele><time>2026-04-25T06:55:04.394Z</time></trkpt><trkpt lat="44.3707067" lon="11.02596"><ele>686.0</ele><time>2026-04-25T06:55:05.395Z</time></trkpt><trkpt lat="44.37066" lon="11.0261117"><ele>686.0</ele><time>2026-04-25T06:55:07.398Z</time></trkpt><trkpt lat="44.3706317" lon="11.0262217"><ele>686.0</ele><time>2026-04-25T06:55:09.391Z</time></trkpt><trkpt lat="44.370615" lon="11.0263117"><ele>686.0</ele><time>2026-04-25T06:55:11.393Z</time></trkpt><trkpt lat="44.370575" lon="11.0263983"><ele>686.0</ele><time>2026-04-25T06:55:13.394Z</time></trkpt><trkpt lat="44.37054" lon="11.0265133"><ele>686.0</ele><time>2026-04-25T06:55:15.393Z</time></trkpt><trkpt lat="44.3705033" lon="11.0266667"><ele>679.5</ele><time>2026-04-25T06:55:17.395Z</time></trkpt><trkpt lat="44.3704783" lon="11.0267483"><ele>673.0</ele><time>2026-04-25T06:55:18.395Z</time></trkpt><trkpt lat="44.37044" lon="11.02683"><ele>666.5</ele><time>2026-04-25T06:55:19.397Z</time></trkpt><trkpt lat="44.370395" lon="11.026915"><ele>660.0</ele><time>2026-04-25T06:55:20.396Z</time></trkpt><trkpt lat="44.370335" lon="11.0270533"><ele>653.5</ele><time>2026-04-25T06:55:22.393Z</time></trkpt><trkpt lat="44.3702783" lon="11.0271417"><ele>647.0</ele><time>2026-04-25T06:55:24.395Z</time></trkpt><trkpt lat="44.3702183" lon="11.027045"><ele>647.0</ele><time>2026-04-25T06:55:27.393Z</time></trkpt><trkpt lat="44.3701767" lon="11.02691"><ele>647.0</ele><time>2026-04-25T06:55:29.393Z</time></trkpt><trkpt lat="44.370145" lon="11.0267667"><ele>647.0</ele><time>2026-04-25T06:55:31.394Z</time></trkpt><trkpt lat="44.37011" lon="11.026615"><ele>647.0</ele><time>2026-04-25T06:55:33.393Z</time></trkpt><trkpt lat="44.3700833" lon="11.0264517"><ele>647.0</ele><time>2026-04-25T06:55:35.395Z</time></trkpt><trkpt lat="44.3700533" lon="11.0263217"><ele>647.0</ele><time>2026-04-25T06:55:37.393Z</time></trkpt><trkpt lat="44.3700067" lon="11.0262017"><ele>647.0</ele><time>2026-04-25T06:55:39.393Z</time></trkpt><trkpt lat="44.3699583" lon="11.0260867"><ele>647.0</ele><time>2026-04-25T06:55:41.395Z</time></trkpt><trkpt lat="44.3699333" lon="11.0259783"><ele>647.0</ele><time>2026-04-25T06:55:43.389Z</time></trkpt><trkpt lat="44.3699067" lon="11.02589"><ele>647.0</ele><time>2026-04-25T06:55:46.393Z</time></trkpt><trkpt lat="44.36984" lon="11.0259283"><ele>647.0</ele><time>2026-04-25T06:55:53.393Z</time></trkpt><trkpt lat="44.3698133" lon="11.0258383"><ele>647.5</ele><time>2026-04-25T06:55:57.396Z</time></trkpt><trkpt lat="44.3698233" lon="11.0257283"><ele>648.0</ele><time>2026-04-25T06:55:59.393Z</time></trkpt><trkpt lat="44.3698517" lon="11.0255583"><ele>648.5</ele><time>2026-04-25T06:56:01.395Z</time></trkpt><trkpt lat="44.36987" lon="11.02547"><ele>649.0</ele><time>2026-04-25T06:56:02.394Z</time></trkpt><trkpt lat="44.3698933" lon="11.0253767"><ele>649.5</ele><time>2026-04-25T06:56:03.394Z</time></trkpt><trkpt lat="44.3699" lon="11.0252783"><ele>650.0</ele><time>2026-04-25T06:56:04.393Z</time></trkpt><trkpt lat="44.3698967" lon="11.0251867"><ele>650.0</ele><time>2026-04-25T06:56:05.395Z</time></trkpt><trkpt lat="44.36988" lon="11.02509"><ele>650.0</ele><time>2026-04-25T06:56:06.393Z</time></trkpt><trkpt lat="44.3698517" lon="11.025"><ele>650.0</ele><time>2026-04-25T06:56:07.393Z</time></trkpt><trkpt lat="44.3698217" lon="11.0249217"><ele>650.0</ele><time>2026-04-25T06:56:08.393Z</time></trkpt><trkpt lat="44.3697817" lon="11.0247617"><ele>650.0</ele><time>2026-04-25T06:56:10.394Z</time></trkpt><trkpt lat="44.36978" lon="11.0246683"><ele>650.0</ele><time>2026-04-25T06:56:11.395Z</time></trkpt><trkpt lat="44.3697833" lon="11.0245683"><ele>648.6666666666666</ele><time>2026-04-25T06:56:12.394Z</time></trkpt><trkpt lat="44.3697883" lon="11.0244733"><ele>647.3333333333333</ele><time>2026-04-25T06:56:13.394Z</time></trkpt><trkpt lat="44.3697917" lon="11.024375"><ele>646.0</ele><time>2026-04-25T06:56:14.395Z</time></trkpt><trkpt lat="44.3698033" lon="11.02428"><ele>644.6666666666666</ele><time>2026-04-25T06:56:15.395Z</time></trkpt><trkpt lat="44.3698483" lon="11.0241083"><ele>643.3333333333334</ele><time>2026-04-25T06:56:17.392Z</time></trkpt><trkpt lat="44.3698767" lon="11.02401"><ele>642.0</ele><time>2026-04-25T06:56:18.393Z</time></trkpt><trkpt lat="44.3699067" lon="11.023905"><ele>639.8333333333334</ele><time>2026-04-25T06:56:19.394Z</time></trkpt><trkpt lat="44.369945" lon="11.0238017"><ele>637.6666666666666</ele><time>2026-04-25T06:56:20.394Z</time></trkpt><trkpt lat="44.3699867" lon="11.023705"><ele>635.5</ele><time>2026-04-25T06:56:21.393Z</time></trkpt><trkpt lat="44.3700233" lon="11.0236"><ele>633.3333333333333</ele><time>2026-04-25T06:56:22.393Z</time></trkpt><trkpt lat="44.3700583" lon="11.0235067"><ele>631.1666666666666</ele><time>2026-04-25T06:56:23.395Z</time></trkpt><trkpt lat="44.3700833" lon="11.0234133"><ele>629.0</ele><time>2026-04-25T06:56:24.393Z</time></trkpt><trkpt lat="44.3700983" lon="11.023315"><ele>628.3333333333333</ele><time>2026-04-25T06:56:25.393Z</time></trkpt><trkpt lat="44.3701117" lon="11.0232217"><ele>627.6666666666666</ele><time>2026-04-25T06:56:26.394Z</time></trkpt><trkpt lat="44.3701317" lon="11.0231317"><ele>627.0</ele><time>2026-04-25T06:56:27.394Z</time></trkpt><trkpt lat="44.370155" lon="11.023045"><ele>626.3333333333334</ele><time>2026-04-25T06:56:28.393Z</time></trkpt><trkpt lat="44.37018" lon="11.022895"><ele>625.6666666666667</ele><time>2026-04-25T06:56:30.394Z</time></trkpt><trkpt lat="44.370175" lon="11.022745"><ele>625.0</ele><time>2026-04-25T06:56:32.393Z</time></trkpt><trkpt lat="44.3701533" lon="11.0225783"><ele>627.0</ele><time>2026-04-25T06:56:34.392Z</time></trkpt><trkpt lat="44.37013" lon="11.02247"><ele>629.0</ele><time>2026-04-25T06:56:36.395Z</time></trkpt><trkpt lat="44.3700917" lon="11.02236"><ele>631.0</ele><time>2026-04-25T06:56:58.394Z</time></trkpt><trkpt lat="44.37005" lon="11.0222733"><ele>633.0</ele><time>2026-04-25T06:57:03.395Z</time></trkpt><trkpt lat="44.369925" lon="11.0221633"><ele>635.0</ele><time>2026-04-25T06:57:15.395Z</time></trkpt><trkpt lat="44.3698933" lon="11.0220467"><ele>635.0</ele><time>2026-04-25T06:57:18.395Z</time></trkpt><trkpt lat="44.3698883" lon="11.0219583"><ele>635.0</ele><time>2026-04-25T06:57:21.394Z</time></trkpt><trkpt lat="44.369895" lon="11.0218117"><ele>635.0</ele><time>2026-04-25T06:57:56.396Z</time></trkpt><trkpt lat="44.3698633" lon="11.021725"><ele>635.0</ele><time>2026-04-25T06:58:01.397Z</time></trkpt><trkpt lat="44.3698283" lon="11.02163"><ele>635.0</ele><time>2026-04-25T06:58:05.394Z</time></trkpt><trkpt lat="44.3697983" lon="11.0215333"><ele>635.0</ele><time>2026-04-25T07:01:35.394Z</time></trkpt><trkpt lat="44.3698417" lon="11.02162"><ele>635.0</ele><time>2026-04-25T07:02:48.394Z</time></trkpt><trkpt lat="44.369865" lon="11.021705"><ele>635.0</ele><time>2026-04-25T07:02:52.392Z</time></trkpt><trkpt lat="44.3699133" lon="11.0218583"><ele>635.0</ele><time>2026-04-25T07:06:12.394Z</time></trkpt><trkpt lat="44.3699283" lon="11.021975"><ele>635.0</ele><time>2026-04-25T07:06:19.393Z</time></trkpt><trkpt lat="44.3699517" lon="11.02208"><ele>635.0</ele><time>2026-04-25T07:08:46.393Z</time></trkpt><trkpt lat="44.369915" lon="11.0221767"><ele>635.0</ele><time>2026-04-25T07:28:17.394Z</time></trkpt><trkpt lat="44.36991" lon="11.021965"><ele>635.0</ele><time>2026-04-25T07:32:42.393Z</time></trkpt><trkpt lat="44.3699033" lon="11.0218717"><ele>635.0</ele><time>2026-04-25T07:32:46.392Z</time></trkpt><trkpt lat="44.3698883" lon="11.021755"><ele>635.0</ele><time>2026-04-25T07:33:00.394Z</time></trkpt><trkpt lat="44.3698617" lon="11.0216583"><ele>635.0</ele><time>2026-04-25T07:33:12.393Z</time></trkpt><trkpt lat="44.369825" lon="11.0215817"><ele>635.0</ele><time>2026-04-25T07:33:18.396Z</time></trkpt><trkpt lat="44.3697883" lon="11.0216617"><ele>635.0</ele><time>2026-04-25T07:36:21.393Z</time></trkpt><trkpt lat="44.36989" lon="11.0217367"><ele>635.0</ele><time>2026-04-25T07:38:51.394Z</time></trkpt><trkpt lat="44.3698667" lon="11.02186"><ele>635.0</ele><time>2026-04-25T07:48:22.393Z</time></trkpt><trkpt lat="44.369895" lon="11.021955"><ele>635.0</ele><time>2026-04-25T07:48:37.394Z</time></trkpt><trkpt lat="44.3699133" lon="11.0220583"><ele>635.0</ele><time>2026-04-25T08:06:30.394Z</time></trkpt><trkpt lat="44.36995" lon="11.02217"><ele>635.0</ele><time>2026-04-25T08:12:31.393Z</time></trkpt><trkpt lat="44.370055" lon="11.0222467"><ele>635.0</ele><time>2026-04-25T08:13:18.395Z</time></trkpt><trkpt lat="44.3700383" lon="11.0223383"><ele>635.0</ele><time>2026-04-25T08:13:38.395Z</time></trkpt><trkpt lat="44.3700417" lon="11.022465"><ele>635.0</ele><time>2026-04-25T08:13:41.394Z</time></trkpt><trkpt lat="44.3700483" lon="11.0225833"><ele>635.0</ele><time>2026-04-25T08:13:43.394Z</time></trkpt><trkpt lat="44.3700833" lon="11.0227333"><ele>635.0</ele><time>2026-04-25T08:13:45.394Z</time></trkpt><trkpt lat="44.3700883" lon="11.0228517"><ele>635.0</ele><time>2026-04-25T08:13:47.395Z</time></trkpt><trkpt lat="44.370055" lon="11.0229517"><ele>633.8</ele><time>2026-04-25T08:13:49.395Z</time></trkpt><trkpt lat="44.3700117" lon="11.0230433"><ele>632.6</ele><time>2026-04-25T08:13:51.394Z</time></trkpt><trkpt lat="44.3699883" lon="11.0231583"><ele>631.4</ele><time>2026-04-25T08:13:53.391Z</time></trkpt><trkpt lat="44.369985" lon="11.0233083"><ele>630.2</ele><time>2026-04-25T08:13:55.393Z</time></trkpt><trkpt lat="44.369975" lon="11.0234517"><ele>629.0</ele><time>2026-04-25T08:13:57.393Z</time></trkpt><trkpt lat="44.3699383" lon="11.023585"><ele>629.0</ele><time>2026-04-25T08:13:59.395Z</time></trkpt><trkpt lat="44.3698967" lon="11.0237517"><ele>629.0</ele><time>2026-04-25T08:14:01.393Z</time></trkpt><trkpt lat="44.3698633" lon="11.0239033"><ele>629.0</ele><time>2026-04-25T08:14:03.394Z</time></trkpt><trkpt lat="44.369815" lon="11.024045"><ele>629.0</ele><time>2026-04-25T08:14:05.397Z</time></trkpt><trkpt lat="44.3697883" lon="11.0241983"><ele>631.6</ele><time>2026-04-25T08:14:07.393Z</time></trkpt><trkpt lat="44.369785" lon="11.0243483"><ele>634.2</ele><time>2026-04-25T08:14:09.39Z</time></trkpt><trkpt lat="44.3697833" lon="11.024485"><ele>636.8000000000001</ele><time>2026-04-25T08:14:11.392Z</time></trkpt><trkpt lat="44.3697833" lon="11.024625"><ele>639.4</ele><time>2026-04-25T08:14:13.398Z</time></trkpt><trkpt lat="44.3697833" lon="11.0247367"><ele>642.0</ele><time>2026-04-25T08:14:15.394Z</time></trkpt><trkpt lat="44.36981" lon="11.024825"><ele>642.0</ele><time>2026-04-25T08:14:17.395Z</time></trkpt><trkpt lat="44.369835" lon="11.0249267"><ele>642.0</ele><time>2026-04-25T08:14:19.39Z</time></trkpt><trkpt lat="44.3698583" lon="11.0250433"><ele>642.0</ele><time>2026-04-25T08:14:21.393Z</time></trkpt><trkpt lat="44.3698667" lon="11.0251683"><ele>642.0</ele><time>2026-04-25T08:14:23.394Z</time></trkpt><trkpt lat="44.3698833" lon="11.0252767"><ele>642.0</ele><time>2026-04-25T08:14:25.394Z</time></trkpt><trkpt lat="44.36988" lon="11.0253817"><ele>642.0</ele><time>2026-04-25T08:14:27.39Z</time></trkpt><trkpt lat="44.3698583" lon="11.025505"><ele>642.8333333333334</ele><time>2026-04-25T08:14:29.393Z</time></trkpt><trkpt lat="44.3698167" lon="11.0256367"><ele>643.6666666666666</ele><time>2026-04-25T08:14:31.393Z</time></trkpt><trkpt lat="44.3697883" lon="11.02576"><ele>644.5</ele><time>2026-04-25T08:14:33.398Z</time></trkpt><trkpt lat="44.3697567" lon="11.02586"><ele>645.3333333333333</ele><time>2026-04-25T08:14:35.393Z</time></trkpt><trkpt lat="44.3697683" lon="11.0259567"><ele>646.1666666666666</ele><time>2026-04-25T08:19:58.392Z</time></trkpt><trkpt lat="44.3697283" lon="11.0260733"><ele>647.0</ele><time>2026-04-25T08:20:00.391Z</time></trkpt><trkpt lat="44.369675" lon="11.0261883"><ele>647.0</ele><time>2026-04-25T08:20:02.394Z</time></trkpt><trkpt lat="44.3696267" lon="11.0263083"><ele>647.0</ele><time>2026-04-25T08:20:04.393Z</time></trkpt><trkpt lat="44.3695767" lon="11.0263767"><ele>647.0</ele><time>2026-04-25T08:20:06.393Z</time></trkpt><trkpt lat="44.369645" lon="11.02628"><ele>647.0</ele><time>2026-04-25T08:20:14.395Z</time></trkpt><trkpt lat="44.36971" lon="11.02617"><ele>647.0</ele><time>2026-04-25T08:20:16.394Z</time></trkpt><trkpt lat="44.3697583" lon="11.02605"><ele>647.0</ele><time>2026-04-25T08:20:18.395Z</time></trkpt><trkpt lat="44.3697967" lon="11.0259333"><ele>647.0</ele><time>2026-04-25T08:20:20.393Z</time></trkpt><trkpt lat="44.369825" lon="11.025825"><ele>647.0</ele><time>2026-04-25T08:20:22.387Z</time></trkpt><trkpt lat="44.36986" lon="11.0256783"><ele>647.0</ele><time>2026-04-25T08:20:24.395Z</time></trkpt><trkpt lat="44.3698933" lon="11.025535"><ele>647.0</ele><time>2026-04-25T08:20:26.395Z</time></trkpt><trkpt lat="44.3699217" lon="11.0254183"><ele>647.5</ele><time>2026-04-25T08:20:28.394Z</time></trkpt><trkpt lat="44.3699283" lon="11.02528"><ele>648.0</ele><time>2026-04-25T08:20:30.392Z</time></trkpt><trkpt lat="44.3699167" lon="11.025165"><ele>648.5</ele><time>2026-04-25T08:20:32.394Z</time></trkpt><trkpt lat="44.3698817" lon="11.0250383"><ele>649.0</ele><time>2026-04-25T08:20:34.394Z</time></trkpt><trkpt lat="44.3698383" lon="11.02494"><ele>649.5</ele><time>2026-04-25T08:20:36.395Z</time></trkpt><trkpt lat="44.3697917" lon="11.0248633"><ele>650.0</ele><time>2026-04-25T08:20:38.395Z</time></trkpt><trkpt lat="44.3697467" lon="11.0247767"><ele>648.6666666666666</ele><time>2026-04-25T08:20:40.395Z</time></trkpt><trkpt lat="44.3697383" lon="11.0246683"><ele>647.3333333333333</ele><time>2026-04-25T08:20:42.391Z</time></trkpt><trkpt lat="44.3697483" lon="11.0245467"><ele>646.0</ele><time>2026-04-25T08:20:44.395Z</time></trkpt><trkpt lat="44.3697467" lon="11.0244367"><ele>644.6666666666666</ele><time>2026-04-25T08:20:46.392Z</time></trkpt><trkpt lat="44.3697567" lon="11.0243417"><ele>643.3333333333334</ele><time>2026-04-25T08:20:48.394Z</time></trkpt><trkpt lat="44.369785" lon="11.0242517"><ele>642.0</ele><time>2026-04-25T08:20:50.396Z</time></trkpt><trkpt lat="44.36982" lon="11.0241533"><ele>639.4</ele><time>2026-04-25T08:20:52.393Z</time></trkpt><trkpt lat="44.3698533" lon="11.0240267"><ele>636.8000000000001</ele><time>2026-04-25T08:20:54.395Z</time></trkpt><trkpt lat="44.3698717" lon="11.0239083"><ele>634.2</ele><time>2026-04-25T08:20:56.395Z</time></trkpt><trkpt lat="44.3699167" lon="11.023805"><ele>631.6</ele><time>2026-04-25T08:20:58.393Z</time></trkpt><trkpt lat="44.3699617" lon="11.023675"><ele>629.0</ele><time>2026-04-25T08:21:00.394Z</time></trkpt><trkpt lat="44.3699917" lon="11.0235317"><ele>629.0</ele><time>2026-04-25T08:21:02.392Z</time></trkpt><trkpt lat="44.3700067" lon="11.0233867"><ele>629.0</ele><time>2026-04-25T08:21:04.394Z</time></trkpt><trkpt lat="44.370035" lon="11.0232433"><ele>629.0</ele><time>2026-04-25T08:21:06.397Z</time></trkpt><trkpt lat="44.3700933" lon="11.0231083"><ele>629.0</ele><time>2026-04-25T08:21:08.395Z</time></trkpt><trkpt lat="44.370135" lon="11.0229783"><ele>629.0</ele><time>2026-04-25T08:21:10.395Z</time></trkpt><trkpt lat="44.37014" lon="11.0228867"><ele>628.2</ele><time>2026-04-25T08:21:12.394Z</time></trkpt><trkpt lat="44.3701267" lon="11.022715"><ele>627.4</ele><time>2026-04-25T08:21:35.393Z</time></trkpt><trkpt lat="44.370125" lon="11.0226217"><ele>626.6</ele><time>2026-04-25T08:21:40.393Z</time></trkpt><trkpt lat="44.3701517" lon="11.022435"><ele>625.8</ele><time>2026-04-25T08:22:11.394Z</time></trkpt><trkpt lat="44.3701017" lon="11.0225133"><ele>625.0</ele><time>2026-04-25T08:22:28.393Z</time></trkpt><trkpt lat="44.3701217" lon="11.02265"><ele>625.0</ele><time>2026-04-25T08:22:31.393Z</time></trkpt><trkpt lat="44.3701383" lon="11.0227567"><ele>625.0</ele><time>2026-04-25T08:22:33.398Z</time></trkpt><trkpt lat="44.37014" lon="11.0228683"><ele>625.0</ele><time>2026-04-25T08:22:35.394Z</time></trkpt><trkpt lat="44.3701" lon="11.0229833"><ele>625.0</ele><time>2026-04-25T08:22:37.395Z</time></trkpt><trkpt lat="44.3700533" lon="11.0231033"><ele>625.0</ele><time>2026-04-25T08:22:39.393Z</time></trkpt><trkpt lat="44.3700333" lon="11.0232467"><ele>626.0</ele><time>2026-04-25T08:22:41.393Z</time></trkpt><trkpt lat="44.3700167" lon="11.023405"><ele>627.0</ele><time>2026-04-25T08:22:43.393Z</time></trkpt><trkpt lat="44.369975" lon="11.0235483"><ele>628.0</ele><time>2026-04-25T08:22:45.393Z</time></trkpt><trkpt lat="44.3699167" lon="11.0237067"><ele>629.0</ele><time>2026-04-25T08:22:47.397Z</time></trkpt><trkpt lat="44.36988" lon="11.0238717"><ele>629.0</ele><time>2026-04-25T08:22:49.395Z</time></trkpt><trkpt lat="44.3698333" lon="11.02403"><ele>629.0</ele><time>2026-04-25T08:22:51.395Z</time></trkpt><trkpt lat="44.369795" lon="11.02418"><ele>629.0</ele><time>2026-04-25T08:22:53.395Z</time></trkpt><trkpt lat="44.3697767" lon="11.0243417"><ele>629.0</ele><time>2026-04-25T08:22:55.394Z</time></trkpt><trkpt lat="44.3697667" lon="11.02451"><ele>631.6</ele><time>2026-04-25T08:22:57.393Z</time></trkpt><trkpt lat="44.3697683" lon="11.02465"><ele>634.2</ele><time>2026-04-25T08:22:59.392Z</time></trkpt><trkpt lat="44.3698067" lon="11.0247733"><ele>636.8000000000001</ele><time>2026-04-25T08:23:01.395Z</time></trkpt><trkpt lat="44.3698483" lon="11.0249367"><ele>639.4</ele><time>2026-04-25T08:23:03.393Z</time></trkpt><trkpt lat="44.3698583" lon="11.0250817"><ele>642.0</ele><time>2026-04-25T08:23:05.393Z</time></trkpt><trkpt lat="44.3698633" lon="11.0251767"><ele>642.8333333333334</ele><time>2026-04-25T08:23:07.393Z</time></trkpt><trkpt lat="44.36983" lon="11.0252917"><ele>643.6666666666666</ele><time>2026-04-25T08:23:16.391Z</time></trkpt><trkpt lat="44.3697933" lon="11.0254067"><ele>644.5</ele><time>2026-04-25T08:23:18.394Z</time></trkpt><trkpt lat="44.3697717" lon="11.0255317"><ele>645.3333333333333</ele><time>2026-04-25T08:23:20.394Z</time></trkpt><trkpt lat="44.3697567" lon="11.0256517"><ele>646.1666666666666</ele><time>2026-04-25T08:23:22.394Z</time></trkpt><trkpt lat="44.3697317" lon="11.02574"><ele>647.0</ele><time>2026-04-25T08:23:24.393Z</time></trkpt><trkpt lat="44.36977" lon="11.0258833"><ele>647.0</ele><time>2026-04-25T08:24:32.396Z</time></trkpt><trkpt lat="44.3697317" lon="11.0259817"><ele>647.0</ele><time>2026-04-25T08:24:35.395Z</time></trkpt><trkpt lat="44.36969" lon="11.026075"><ele>647.0</ele><time>2026-04-25T08:24:37.394Z</time></trkpt><trkpt lat="44.3696383" lon="11.0261883"><ele>647.0</ele><time>2026-04-25T08:24:39.392Z</time></trkpt><trkpt lat="44.369595" lon="11.0263"><ele>647.0</ele><time>2026-04-25T08:24:41.393Z</time></trkpt><trkpt lat="44.3695283" lon="11.0263017"><ele>647.0</ele><time>2026-04-25T08:24:46.396Z</time></trkpt><trkpt lat="44.36951" lon="11.02621"><ele>640.6666666666666</ele><time>2026-04-25T08:24:48.396Z</time></trkpt><trkpt lat="44.369485" lon="11.0261033"><ele>634.3333333333333</ele><time>2026-04-25T08:24:50.397Z</time></trkpt><trkpt lat="44.3694517" lon="11.026"><ele>628.0</ele><time>2026-04-25T08:24:52.395Z</time></trkpt><trkpt lat="44.3693917" lon="11.0258867"><ele>621.6666666666666</ele><time>2026-04-25T08:24:54.392Z</time></trkpt><trkpt lat="44.3693383" lon="11.02574"><ele>615.3333333333334</ele><time>2026-04-25T08:24:56.397Z</time></trkpt><trkpt lat="44.3693083" lon="11.0256583"><ele>609.0</ele><time>2026-04-25T08:24:57.396Z</time></trkpt><trkpt lat="44.3692783" lon="11.02557"><ele>609.0</ele><time>2026-04-25T08:24:58.395Z</time></trkpt><trkpt lat="44.3692367" lon="11.025485"><ele>609.0</ele><time>2026-04-25T08:24:59.397Z</time></trkpt><trkpt lat="44.3692017" lon="11.0254033"><ele>609.0</ele><time>2026-04-25T08:25:00.398Z</time></trkpt><trkpt lat="44.3691533" lon="11.0253117"><ele>609.0</ele><time>2026-04-25T08:25:01.395Z</time></trkpt><trkpt lat="44.369105" lon="11.0252117"><ele>609.0</ele><time>2026-04-25T08:25:02.396Z</time></trkpt><trkpt lat="44.36906" lon="11.0251117"><ele>609.0</ele><time>2026-04-25T08:25:03.396Z</time></trkpt><trkpt lat="44.3690067" lon="11.0250167"><ele>607.6</ele><time>2026-04-25T08:25:04.396Z</time></trkpt><trkpt lat="44.3689233" lon="11.0249317"><ele>606.2</ele><time>2026-04-25T08:25:06.394Z</time></trkpt><trkpt lat="44.3688417" lon="11.0248583"><ele>604.8000000000001</ele><time>2026-04-25T08:25:08.392Z</time></trkpt><trkpt lat="44.3688" lon="11.0247667"><ele>603.4</ele><time>2026-04-25T08:25:10.394Z</time></trkpt><trkpt lat="44.36879" lon="11.0246067"><ele>602.0</ele><time>2026-04-25T08:25:12.393Z</time></trkpt><trkpt lat="44.3687933" lon="11.02451"><ele>600.0</ele><time>2026-04-25T08:25:13.393Z</time></trkpt><trkpt lat="44.3688183" lon="11.024335"><ele>598.0</ele><time>2026-04-25T08:25:15.397Z</time></trkpt><trkpt lat="44.3688417" lon="11.0242383"><ele>596.0</ele><time>2026-04-25T08:25:16.395Z</time></trkpt><trkpt lat="44.368855" lon="11.0241433"><ele>594.0</ele><time>2026-04-25T08:25:17.391Z</time></trkpt><trkpt lat="44.368865" lon="11.0240533"><ele>592.0</ele><time>2026-04-25T08:25:18.389Z</time></trkpt><trkpt lat="44.368855" lon="11.0238917"><ele>586.6</ele><time>2026-04-25T08:25:20.396Z</time></trkpt><trkpt lat="44.3688433" lon="11.0237867"><ele>581.2</ele><time>2026-04-25T08:25:22.396Z</time></trkpt><trkpt lat="44.368775" lon="11.0237033"><ele>575.8</ele><time>2026-04-25T08:25:25.392Z</time></trkpt><trkpt lat="44.3686667" lon="11.0236833"><ele>570.4</ele><time>2026-04-25T08:25:27.397Z</time></trkpt><trkpt lat="44.3685567" lon="11.02369"><ele>565.0</ele><time>2026-04-25T08:25:29.397Z</time></trkpt><trkpt lat="44.3684383" lon="11.02371"><ele>565.0</ele><time>2026-04-25T08:25:31.395Z</time></trkpt><trkpt lat="44.368325" lon="11.0236817"><ele>565.0</ele><time>2026-04-25T08:25:33.394Z</time></trkpt><trkpt lat="44.36821" lon="11.0236433"><ele>565.0</ele><time>2026-04-25T08:25:35.394Z</time></trkpt><trkpt lat="44.3681017" lon="11.02364"><ele>565.0</ele><time>2026-04-25T08:25:37.396Z</time></trkpt><trkpt lat="44.3680283" lon="11.0236167"><ele>565.0</ele><time>2026-04-25T08:25:40.393Z</time></trkpt><trkpt lat="44.3681117" lon="11.02353"><ele>564.9999999999999</ele><time>2026-04-25T08:25:44.394Z</time></trkpt><trkpt lat="44.368165" lon="11.023475"><ele>565.0</ele><time>2026-04-25T08:25:45.397Z</time></trkpt><trkpt lat="44.3682317" lon="11.0233867"><ele>565.0</ele><time>2026-04-25T08:25:46.396Z</time></trkpt><trkpt lat="44.3682783" lon="11.0233017"><ele>565.0</ele><time>2026-04-25T08:25:47.399Z</time></trkpt><trkpt lat="44.3683217" lon="11.0232183"><ele>565.0</ele><time>2026-04-25T08:25:48.397Z</time></trkpt><trkpt lat="44.3683517" lon="11.0231367"><ele>564.9999999999999</ele><time>2026-04-25T08:25:49.391Z</time></trkpt><trkpt lat="44.3683717" lon="11.0230483"><ele>565.0</ele><time>2026-04-25T08:25:50.396Z</time></trkpt><trkpt lat="44.3683733" lon="11.02294"><ele>564.8333333333334</ele><time>2026-04-25T08:25:51.393Z</time></trkpt><trkpt lat="44.3683717" lon="11.0228233"><ele>564.6666666666667</ele><time>2026-04-25T08:25:52.396Z</time></trkpt><trkpt lat="44.36837" lon="11.02272"><ele>564.5</ele><time>2026-04-25T08:25:53.395Z</time></trkpt><trkpt lat="44.368385" lon="11.02257"><ele>564.3333333333334</ele><time>2026-04-25T08:25:55.396Z</time></trkpt><trkpt lat="44.3684617" lon="11.0224533"><ele>564.1666666666666</ele><time>2026-04-25T08:25:57.394Z</time></trkpt><trkpt lat="44.3685067" lon="11.0223833"><ele>564.0</ele><time>2026-04-25T08:25:58.393Z</time></trkpt><trkpt lat="44.3685483" lon="11.0223017"><ele>565.5</ele><time>2026-04-25T08:25:59.397Z</time></trkpt><trkpt lat="44.3685917" lon="11.0222217"><ele>567.0</ele><time>2026-04-25T08:26:00.395Z</time></trkpt><trkpt lat="44.368655" lon="11.0221017"><ele>568.5</ele><time>2026-04-25T08:26:02.397Z</time></trkpt><trkpt lat="44.3687233" lon="11.0220733"><ele>570.0</ele><time>2026-04-25T08:26:04.394Z</time></trkpt><trkpt lat="44.368655" lon="11.02217"><ele>571.5</ele><time>2026-04-25T08:26:22.392Z</time></trkpt><trkpt lat="44.3685867" lon="11.022215"><ele>573.0</ele><time>2026-04-25T08:26:24.401Z</time></trkpt><trkpt lat="44.3685233" lon="11.0223383"><ele>573.0</ele><time>2026-04-25T08:26:26.397Z</time></trkpt><trkpt lat="44.3684817" lon="11.0224117"><ele>573.0</ele><time>2026-04-25T08:26:27.394Z</time></trkpt><trkpt lat="44.368435" lon="11.0224717"><ele>573.0</ele><time>2026-04-25T08:26:28.393Z</time></trkpt><trkpt lat="44.368365" lon="11.022535"><ele>573.0</ele><time>2026-04-25T08:26:30.393Z</time></trkpt><trkpt lat="44.3683" lon="11.0224633"><ele>573.0</ele><time>2026-04-25T08:26:39.394Z</time></trkpt><trkpt lat="44.3682367" lon="11.0223733"><ele>573.0</ele><time>2026-04-25T08:26:41.393Z</time></trkpt><trkpt lat="44.3681667" lon="11.022335"><ele>573.0</ele><time>2026-04-25T08:26:43.393Z</time></trkpt><trkpt lat="44.368095" lon="11.0223433"><ele>573.0</ele><time>2026-04-25T08:26:45.394Z</time></trkpt><trkpt lat="44.3680283" lon="11.0223633"><ele>573.0</ele><time>2026-04-25T08:26:47.393Z</time></trkpt><trkpt lat="44.367955" lon="11.0222967"><ele>573.0</ele><time>2026-04-25T08:26:49.393Z</time></trkpt><trkpt lat="44.3679017" lon="11.0222417"><ele>573.0</ele><time>2026-04-25T08:26:50.395Z</time></trkpt><trkpt lat="44.367845" lon="11.0221833"><ele>573.0</ele><time>2026-04-25T08:26:51.392Z</time></trkpt><trkpt lat="44.3677833" lon="11.0221283"><ele>573.0</ele><time>2026-04-25T08:26:52.393Z</time></trkpt><trkpt lat="44.367725" lon="11.02207"><ele>571.8333333333334</ele><time>2026-04-25T08:26:53.393Z</time></trkpt><trkpt lat="44.367665" lon="11.0219917"><ele>570.6666666666666</ele><time>2026-04-25T08:26:54.394Z</time></trkpt><trkpt lat="44.367605" lon="11.0219017"><ele>569.5</ele><time>2026-04-25T08:26:55.394Z</time></trkpt><trkpt lat="44.3675367" lon="11.0218133"><ele>568.3333333333333</ele><time>2026-04-25T08:26:56.395Z</time></trkpt><trkpt lat="44.36747" lon="11.02172"><ele>567.1666666666666</ele><time>2026-04-25T08:26:57.4Z</time></trkpt><trkpt lat="44.3674133" lon="11.02162"><ele>566.0</ele><time>2026-04-25T08:26:58.398Z</time></trkpt><trkpt lat="44.3673583" lon="11.02152"><ele>566.0</ele><time>2026-04-25T08:26:59.394Z</time></trkpt><trkpt lat="44.3672967" lon="11.0214417"><ele>566.0</ele><time>2026-04-25T08:27:00.395Z</time></trkpt><trkpt lat="44.367225" lon="11.021375"><ele>566.0</ele><time>2026-04-25T08:27:01.395Z</time></trkpt><trkpt lat="44.3671517" lon="11.0213233"><ele>566.0</ele><time>2026-04-25T08:27:02.397Z</time></trkpt><trkpt lat="44.3670783" lon="11.0212733"><ele>566.0</ele><time>2026-04-25T08:27:03.393Z</time></trkpt><trkpt lat="44.36701" lon="11.0212"><ele>566.0</ele><time>2026-04-25T08:27:04.394Z</time></trkpt><trkpt lat="44.3669417" lon="11.0211117"><ele>561.6</ele><time>2026-04-25T08:27:05.393Z</time></trkpt><trkpt lat="44.3668783" lon="11.0210117"><ele>557.2</ele><time>2026-04-25T08:27:06.395Z</time></trkpt><trkpt lat="44.36683" lon="11.0209133"><ele>552.8</ele><time>2026-04-25T08:27:07.4Z</time></trkpt><trkpt lat="44.36679" lon="11.02081"><ele>548.4</ele><time>2026-04-25T08:27:08.395Z</time></trkpt><trkpt lat="44.3667617" lon="11.0206883"><ele>544.0</ele><time>2026-04-25T08:27:09.392Z</time></trkpt><trkpt lat="44.3667483" lon="11.0205567"><ele>544.0</ele><time>2026-04-25T08:27:10.393Z</time></trkpt><trkpt lat="44.3667283" lon="11.0204317"><ele>544.0</ele><time>2026-04-25T08:27:11.395Z</time></trkpt><trkpt lat="44.3667" lon="11.0203017"><ele>544.0</ele><time>2026-04-25T08:27:12.395Z</time></trkpt><trkpt lat="44.36666" lon="11.02019"><ele>544.0</ele><time>2026-04-25T08:27:13.397Z</time></trkpt><trkpt lat="44.3666117" lon="11.02009"><ele>544.0</ele><time>2026-04-25T08:27:14.394Z</time></trkpt><trkpt lat="44.36655" lon="11.0200017"><ele>543.3333333333334</ele><time>2026-04-25T08:27:15.393Z</time></trkpt><trkpt lat="44.366495" lon="11.01992"><ele>542.6666666666667</ele><time>2026-04-25T08:27:16.394Z</time></trkpt><trkpt lat="44.366445" lon="11.0198433"><ele>542.0</ele><time>2026-04-25T08:27:17.395Z</time></trkpt><trkpt lat="44.36641" lon="11.01977"><ele>541.3333333333334</ele><time>2026-04-25T08:27:18.396Z</time></trkpt><trkpt lat="44.366395" lon="11.0196367"><ele>540.6666666666666</ele><time>2026-04-25T08:27:20.395Z</time></trkpt><trkpt lat="44.3664617" lon="11.0195183"><ele>540.0</ele><time>2026-04-25T08:27:22.399Z</time></trkpt><trkpt lat="44.3665133" lon="11.019465"><ele>540.0</ele><time>2026-04-25T08:27:23.396Z</time></trkpt><trkpt lat="44.36657" lon="11.0194217"><ele>540.0</ele><time>2026-04-25T08:27:24.396Z</time></trkpt><trkpt lat="44.3666233" lon="11.0193667"><ele>540.0</ele><time>2026-04-25T08:27:25.395Z</time></trkpt><trkpt lat="44.3667033" lon="11.0192367"><ele>540.0</ele><time>2026-04-25T08:27:27.394Z</time></trkpt><trkpt lat="44.36673" lon="11.0191567"><ele>540.0</ele><time>2026-04-25T08:27:28.395Z</time></trkpt><trkpt lat="44.3667467" lon="11.01907"><ele>540.0</ele><time>2026-04-25T08:27:29.396Z</time></trkpt><trkpt lat="44.366765" lon="11.018935"><ele>540.0</ele><time>2026-04-25T08:27:31.395Z</time></trkpt><trkpt lat="44.3667867" lon="11.0188367"><ele>540.0</ele><time>2026-04-25T08:27:34.394Z</time></trkpt><trkpt lat="44.3667533" lon="11.0189283"><ele>540.0</ele><time>2026-04-25T08:27:40.393Z</time></trkpt><trkpt lat="44.3667383" lon="11.0191"><ele>540.0</ele><time>2026-04-25T08:27:42.394Z</time></trkpt><trkpt lat="44.3666933" lon="11.0192617"><ele>540.0</ele><time>2026-04-25T08:27:44.394Z</time></trkpt><trkpt lat="44.3666" lon="11.0193917"><ele>540.0</ele><time>2026-04-25T08:27:46.395Z</time></trkpt><trkpt lat="44.3665433" lon="11.0194517"><ele>540.0</ele><time>2026-04-25T08:27:47.396Z</time></trkpt><trkpt lat="44.3664933" lon="11.019515"><ele>540.0</ele><time>2026-04-25T08:27:48.395Z</time></trkpt><trkpt lat="44.3664217" lon="11.0196383"><ele>540.0</ele><time>2026-04-25T08:27:50.396Z</time></trkpt><trkpt lat="44.3663633" lon="11.0197217"><ele>540.0</ele><time>2026-04-25T08:27:52.393Z</time></trkpt><trkpt lat="44.3662967" lon="11.01977"><ele>540.0</ele><time>2026-04-25T08:27:55.391Z</time></trkpt><trkpt lat="44.36626" lon="11.0198633"><ele>536.1666666666666</ele><time>2026-04-25T08:27:57.394Z</time></trkpt><trkpt lat="44.36624" lon="11.01999"><ele>532.3333333333334</ele><time>2026-04-25T08:27:59.393Z</time></trkpt><trkpt lat="44.36624" lon="11.020115"><ele>528.5</ele><time>2026-04-25T08:28:01.394Z</time></trkpt><trkpt lat="44.366255" lon="11.0202467"><ele>524.6666666666667</ele><time>2026-04-25T08:28:03.394Z</time></trkpt><trkpt lat="44.3662533" lon="11.020365"><ele>520.8333333333334</ele><time>2026-04-25T08:28:05.393Z</time></trkpt><trkpt lat="44.366215" lon="11.0204617"><ele>517.0</ele><time>2026-04-25T08:28:07.395Z</time></trkpt><trkpt lat="44.3661517" lon="11.0205267"><ele>517.0</ele><time>2026-04-25T08:28:09.396Z</time></trkpt><trkpt lat="44.36607" lon="11.020555"><ele>517.0</ele><time>2026-04-25T08:28:11.393Z</time></trkpt><trkpt lat="44.3659767" lon="11.0205433"><ele>517.0</ele><time>2026-04-25T08:28:13.395Z</time></trkpt><trkpt lat="44.36589" lon="11.0205383"><ele>517.0</ele><time>2026-04-25T08:28:15.399Z</time></trkpt><trkpt lat="44.3658083" lon="11.0205883"><ele>517.0</ele><time>2026-04-25T08:28:17.392Z</time></trkpt><trkpt lat="44.3657783" lon="11.020715"><ele>517.0</ele><time>2026-04-25T08:28:19.394Z</time></trkpt><trkpt lat="44.365745" lon="11.0208367"><ele>516.5</ele><time>2026-04-25T08:28:21.393Z</time></trkpt><trkpt lat="44.3657167" lon="11.0209483"><ele>516.0</ele><time>2026-04-25T08:28:23.395Z</time></trkpt><trkpt lat="44.3656633" lon="11.0210483"><ele>515.5</ele><time>2026-04-25T08:28:25.395Z</time></trkpt><trkpt lat="44.3656117" lon="11.021115"><ele>515.0</ele><time>2026-04-25T08:28:27.395Z</time></trkpt><trkpt lat="44.365545" lon="11.0210433"><ele>514.5</ele><time>2026-04-25T08:28:33.394Z</time></trkpt><trkpt lat="44.3654867" lon="11.0210067"><ele>514.0</ele><time>2026-04-25T08:28:36.392Z</time></trkpt><trkpt lat="44.36541" lon="11.0210233"><ele>509.00000000000006</ele><time>2026-04-25T08:28:39.393Z</time></trkpt><trkpt lat="44.365325" lon="11.0210017"><ele>504.0</ele><time>2026-04-25T08:28:42.393Z</time></trkpt><trkpt lat="44.3652533" lon="11.0209567"><ele>499.0</ele><time>2026-04-25T08:28:44.394Z</time></trkpt><trkpt lat="44.3651717" lon="11.020935"><ele>494.0</ele><time>2026-04-25T08:28:46.392Z</time></trkpt><trkpt lat="44.3650983" lon="11.02092"><ele>489.00000000000006</ele><time>2026-04-25T08:28:48.393Z</time></trkpt><trkpt lat="44.3650483" lon="11.0209967"><ele>484.0</ele><time>2026-04-25T08:28:51.393Z</time></trkpt><trkpt lat="44.36501" lon="11.0211"><ele>484.00000000000006</ele><time>2026-04-25T08:28:54.395Z</time></trkpt><trkpt lat="44.3649767" lon="11.021185"><ele>484.0</ele><time>2026-04-25T08:28:56.39Z</time></trkpt><trkpt lat="44.3649683" lon="11.021295"><ele>484.0</ele><time>2026-04-25T08:28:58.393Z</time></trkpt><trkpt lat="44.3649867" lon="11.0214617"><ele>484.0</ele><time>2026-04-25T08:29:00.395Z</time></trkpt><trkpt lat="44.3650033" lon="11.0215467"><ele>484.00000000000006</ele><time>2026-04-25T08:29:01.393Z</time></trkpt><trkpt lat="44.3650133" lon="11.021675"><ele>484.0</ele><time>2026-04-25T08:29:03.393Z</time></trkpt><trkpt lat="44.364945" lon="11.0217083"><ele>484.0</ele><time>2026-04-25T08:29:06.393Z</time></trkpt><trkpt lat="44.3648983" lon="11.0216217"><ele>484.0</ele><time>2026-04-25T08:29:08.396Z</time></trkpt><trkpt lat="44.3648167" lon="11.0216083"><ele>484.0</ele><time>2026-04-25T08:29:11.391Z</time></trkpt><trkpt lat="44.3647517" lon="11.0216967"><ele>484.0</ele><time>2026-04-25T08:29:13.392Z</time></trkpt><trkpt lat="44.36469" lon="11.02183"><ele>484.0</ele><time>2026-04-25T08:29:15.392Z</time></trkpt><trkpt lat="44.3646583" lon="11.0219683"><ele>478.4</ele><time>2026-04-25T08:29:17.392Z</time></trkpt><trkpt lat="44.3646467" lon="11.0221083"><ele>472.79999999999995</ele><time>2026-04-25T08:29:19.394Z</time></trkpt><trkpt lat="44.364615" lon="11.0222567"><ele>467.20000000000005</ele><time>2026-04-25T08:29:21.395Z</time></trkpt><trkpt lat="44.364575" lon="11.02233"><ele>461.6</ele><time>2026-04-25T08:29:22.394Z</time></trkpt><trkpt lat="44.36449" lon="11.022455"><ele>456.0</ele><time>2026-04-25T08:29:24.395Z</time></trkpt><trkpt lat="44.3644283" lon="11.022515"><ele>455.6</ele><time>2026-04-25T08:29:25.392Z</time></trkpt><trkpt lat="44.3643317" lon="11.0226383"><ele>455.20000000000005</ele><time>2026-04-25T08:29:27.393Z</time></trkpt><trkpt lat="44.364255" lon="11.0227583"><ele>454.79999999999995</ele><time>2026-04-25T08:29:29.395Z</time></trkpt><trkpt lat="44.3642117" lon="11.02292"><ele>454.4</ele><time>2026-04-25T08:29:31.395Z</time></trkpt><trkpt lat="44.3641817" lon="11.02301"><ele>454.0</ele><time>2026-04-25T08:29:32.396Z</time></trkpt><trkpt lat="44.364145" lon="11.0230983"><ele>454.00000000000006</ele><time>2026-04-25T08:29:33.396Z</time></trkpt><trkpt lat="44.3641067" lon="11.0231883"><ele>454.0</ele><time>2026-04-25T08:29:34.393Z</time></trkpt><trkpt lat="44.36407" lon="11.0232683"><ele>454.0</ele><time>2026-04-25T08:29:35.395Z</time></trkpt><trkpt lat="44.3640217" lon="11.023385"><ele>454.0</ele><time>2026-04-25T08:29:37.395Z</time></trkpt><trkpt lat="44.363955" lon="11.0234267"><ele>454.00000000000006</ele><time>2026-04-25T08:29:40.393Z</time></trkpt><trkpt lat="44.363915" lon="11.023355"><ele>454.0</ele><time>2026-04-25T08:29:42.396Z</time></trkpt><trkpt lat="44.3638567" lon="11.0232833"><ele>456.00000000000006</ele><time>2026-04-25T08:29:44.397Z</time></trkpt><trkpt lat="44.3637983" lon="11.0232317"><ele>458.0</ele><time>2026-04-25T08:29:46.392Z</time></trkpt><trkpt lat="44.36377" lon="11.0231333"><ele>460.0</ele><time>2026-04-25T08:29:54.394Z</time></trkpt><trkpt lat="44.3637117" lon="11.0229833"><ele>462.0</ele><time>2026-04-25T08:29:56.394Z</time></trkpt><trkpt lat="44.363685" lon="11.02289"><ele>464.00000000000006</ele><time>2026-04-25T08:29:57.396Z</time></trkpt><trkpt lat="44.36366" lon="11.0227967"><ele>466.0</ele><time>2026-04-25T08:29:58.392Z</time></trkpt><trkpt lat="44.3636367" lon="11.0227"><ele>466.00000000000006</ele><time>2026-04-25T08:29:59.391Z</time></trkpt><trkpt lat="44.3636217" lon="11.0226083"><ele>466.0</ele><time>2026-04-25T08:30:00.394Z</time></trkpt><trkpt lat="44.3635883" lon="11.0224633"><ele>466.0</ele><time>2026-04-25T08:30:02.395Z</time></trkpt><trkpt lat="44.36356" lon="11.0223733"><ele>466.0</ele><time>2026-04-25T08:30:04.394Z</time></trkpt><trkpt lat="44.3634783" lon="11.022375"><ele>466.00000000000006</ele><time>2026-04-25T08:30:07.393Z</time></trkpt><trkpt lat="44.3633967" lon="11.0224283"><ele>466.0</ele><time>2026-04-25T08:30:09.393Z</time></trkpt><trkpt lat="44.3633117" lon="11.0224917"><ele>466.0</ele><time>2026-04-25T08:30:11.394Z</time></trkpt><trkpt lat="44.3632283" lon="11.022535"><ele>466.0</ele><time>2026-04-25T08:30:13.395Z</time></trkpt><trkpt lat="44.3631467" lon="11.0225217"><ele>466.0</ele><time>2026-04-25T08:30:15.393Z</time></trkpt><trkpt lat="44.3630567" lon="11.0224883"><ele>466.0</ele><time>2026-04-25T08:30:17.394Z</time></trkpt><trkpt lat="44.3629733" lon="11.0224317"><ele>466.0</ele><time>2026-04-25T08:30:19.394Z</time></trkpt><trkpt lat="44.3628867" lon="11.0223117"><ele>472.8</ele><time>2026-04-25T08:30:21.396Z</time></trkpt><trkpt lat="44.3628467" lon="11.0221617"><ele>479.6</ele><time>2026-04-25T08:30:23.393Z</time></trkpt><trkpt lat="44.3627917" lon="11.02198"><ele>486.4</ele><time>2026-04-25T08:30:52.394Z</time></trkpt><trkpt lat="44.362825" lon="11.02207"><ele>493.2</ele><time>2026-04-25T08:30:57.393Z</time></trkpt><trkpt lat="44.3628667" lon="11.0221533"><ele>500.0</ele><time>2026-04-25T08:30:59.396Z</time></trkpt><trkpt lat="44.3629067" lon="11.02223"><ele>499.99999999999994</ele><time>2026-04-25T08:31:01.395Z</time></trkpt><trkpt lat="44.3629433" lon="11.0223033"><ele>500.0</ele><time>2026-04-25T08:31:03.397Z</time></trkpt><trkpt lat="44.3629983" lon="11.0223683"><ele>500.0</ele><time>2026-04-25T08:31:05.394Z</time></trkpt><trkpt lat="44.363075" lon="11.022435"><ele>500.0</ele><time>2026-04-25T08:31:08.395Z</time></trkpt><trkpt lat="44.36316" lon="11.0224783"><ele>499.99999999999994</ele><time>2026-04-25T08:31:11.394Z</time></trkpt><trkpt lat="44.3632383" lon="11.0225117"><ele>500.0</ele><time>2026-04-25T08:31:13.392Z</time></trkpt><trkpt lat="44.3633367" lon="11.02248"><ele>495.3333333333333</ele><time>2026-04-25T08:31:15.392Z</time></trkpt><trkpt lat="44.3634333" lon="11.0224267"><ele>490.66666666666663</ele><time>2026-04-25T08:31:17.394Z</time></trkpt><trkpt lat="44.363505" lon="11.0223983"><ele>486.0</ele><time>2026-04-25T08:31:19.393Z</time></trkpt><trkpt lat="44.3635683" lon="11.0223917"><ele>481.33333333333337</ele><time>2026-04-25T08:31:21.389Z</time></trkpt><trkpt lat="44.36362" lon="11.0224767"><ele>476.6666666666667</ele><time>2026-04-25T08:31:24.396Z</time></trkpt><trkpt lat="44.3636417" lon="11.0225767"><ele>472.0</ele><time>2026-04-25T08:31:26.394Z</time></trkpt><trkpt lat="44.3636733" lon="11.0226917"><ele>471.00000000000006</ele><time>2026-04-25T08:31:28.393Z</time></trkpt><trkpt lat="44.3637067" lon="11.022805"><ele>470.0</ele><time>2026-04-25T08:31:30.395Z</time></trkpt><trkpt lat="44.3637417" lon="11.0228967"><ele>469.0</ele><time>2026-04-25T08:31:32.395Z</time></trkpt><trkpt lat="44.3637583" lon="11.0229933"><ele>468.0</ele><time>2026-04-25T08:31:34.393Z</time></trkpt><trkpt lat="44.3637917" lon="11.02309"><ele>467.00000000000006</ele><time>2026-04-25T08:31:36.395Z</time></trkpt><trkpt lat="44.3638333" lon="11.0231867"><ele>466.0</ele><time>2026-04-25T08:31:38.395Z</time></trkpt><trkpt lat="44.3638883" lon="11.0232767"><ele>463.6</ele><time>2026-04-25T08:31:40.395Z</time></trkpt><trkpt lat="44.3639583" lon="11.0233683"><ele>461.20000000000005</ele><time>2026-04-25T08:31:42.392Z</time></trkpt><trkpt lat="44.364005" lon="11.0234333"><ele>458.79999999999995</ele><time>2026-04-25T08:31:44.393Z</time></trkpt><trkpt lat="44.36407" lon="11.02331"><ele>456.4</ele><time>2026-04-25T08:31:47.392Z</time></trkpt><trkpt lat="44.3641317" lon="11.0231617"><ele>454.0</ele><time>2026-04-25T08:31:49.393Z</time></trkpt><trkpt lat="44.36417" lon="11.0230767"><ele>454.00000000000006</ele><time>2026-04-25T08:31:50.395Z</time></trkpt><trkpt lat="44.3642" lon="11.022985"><ele>454.0</ele><time>2026-04-25T08:31:51.393Z</time></trkpt><trkpt lat="44.3642183" lon="11.0228967"><ele>454.0</ele><time>2026-04-25T08:31:52.395Z</time></trkpt><trkpt lat="44.3642683" lon="11.0227383"><ele>454.0</ele><time>2026-04-25T08:31:54.395Z</time></trkpt><trkpt lat="44.3643033" lon="11.0226483"><ele>454.00000000000006</ele><time>2026-04-25T08:31:55.394Z</time></trkpt><trkpt lat="44.3643517" lon="11.0225683"><ele>454.0</ele><time>2026-04-25T08:31:56.397Z</time></trkpt><trkpt lat="44.3644133" lon="11.0224983"><ele>454.28571428571433</ele><time>2026-04-25T08:31:57.393Z</time></trkpt><trkpt lat="44.3644817" lon="11.022425"><ele>454.5714285714286</ele><time>2026-04-25T08:31:58.393Z</time></trkpt><trkpt lat="44.3645317" lon="11.0223533"><ele>454.8571428571429</ele><time>2026-04-25T08:31:59.395Z</time></trkpt><trkpt lat="44.3645817" lon="11.02228"><ele>455.1428571428571</ele><time>2026-04-25T08:32:00.396Z</time></trkpt><trkpt lat="44.36462" lon="11.02221"><ele>455.4285714285714</ele><time>2026-04-25T08:32:01.396Z</time></trkpt><trkpt lat="44.3646467" lon="11.0221267"><ele>455.71428571428567</ele><time>2026-04-25T08:32:02.397Z</time></trkpt><trkpt lat="44.3646583" lon="11.0220383"><ele>456.0</ele><time>2026-04-25T08:32:03.394Z</time></trkpt><trkpt lat="44.3646633" lon="11.02195"><ele>456.0</ele><time>2026-04-25T08:32:04.393Z</time></trkpt><trkpt lat="44.3646917" lon="11.0218417"><ele>456.0</ele><time>2026-04-25T08:32:05.401Z</time></trkpt><trkpt lat="44.3647367" lon="11.0217367"><ele>456.0</ele><time>2026-04-25T08:32:06.393Z</time></trkpt><trkpt lat="44.364765" lon="11.02165"><ele>456.0</ele><time>2026-04-25T08:32:07.395Z</time></trkpt><trkpt lat="44.364845" lon="11.0215917"><ele>456.0</ele><time>2026-04-25T08:32:09.395Z</time></trkpt><trkpt lat="44.3648667" lon="11.0216883"><ele>456.0</ele><time>2026-04-25T08:32:10.397Z</time></trkpt><trkpt lat="44.3649517" lon="11.021795"><ele>461.0</ele><time>2026-04-25T08:32:12.393Z</time></trkpt><trkpt lat="44.3650017" lon="11.021915"><ele>466.0</ele><time>2026-04-25T08:32:14.397Z</time></trkpt><trkpt lat="44.3650367" lon="11.0220833"><ele>471.0</ele><time>2026-04-25T08:32:16.397Z</time></trkpt><trkpt lat="44.36506" lon="11.0221717"><ele>476.0</ele><time>2026-04-25T08:32:17.395Z</time></trkpt><trkpt lat="44.3650717" lon="11.0222767"><ele>481.0</ele><time>2026-04-25T08:32:18.397Z</time></trkpt><trkpt lat="44.3650933" lon="11.02239"><ele>480.0</ele><time>2026-04-25T08:32:19.395Z</time></trkpt><trkpt lat="44.3650967" lon="11.0225167"><ele>479.0</ele><time>2026-04-25T08:32:20.397Z</time></trkpt><trkpt lat="44.3650717" lon="11.0226567"><ele>478.0</ele><time>2026-04-25T08:32:21.395Z</time></trkpt><trkpt lat="44.3650483" lon="11.0228183"><ele>477.0</ele><time>2026-04-25T08:32:22.399Z</time></trkpt><trkpt lat="44.3650167" lon="11.0229667"><ele>476.0</ele><time>2026-04-25T08:32:23.396Z</time></trkpt><trkpt lat="44.3649867" lon="11.0230917"><ele>476.0</ele><time>2026-04-25T08:32:24.395Z</time></trkpt><trkpt lat="44.36495" lon="11.0232067"><ele>476.0</ele><time>2026-04-25T08:32:25.394Z</time></trkpt><trkpt lat="44.36493" lon="11.023305"><ele>476.0</ele><time>2026-04-25T08:32:26.394Z</time></trkpt><trkpt lat="44.3649167" lon="11.02341"><ele>476.0</ele><time>2026-04-25T08:32:27.394Z</time></trkpt><trkpt lat="44.364915" lon="11.0235067"><ele>476.0</ele><time>2026-04-25T08:32:28.392Z</time></trkpt><trkpt lat="44.3649183" lon="11.0236017"><ele>476.0</ele><time>2026-04-25T08:32:29.389Z</time></trkpt><trkpt lat="44.364935" lon="11.02369"><ele>476.0</ele><time>2026-04-25T08:32:30.396Z</time></trkpt><trkpt lat="44.3649533" lon="11.02378"><ele>475.8333333333333</ele><time>2026-04-25T08:32:31.396Z</time></trkpt><trkpt lat="44.3649783" lon="11.023865"><ele>475.66666666666663</ele><time>2026-04-25T08:32:32.395Z</time></trkpt><trkpt lat="44.3650467" lon="11.0240117"><ele>475.5</ele><time>2026-04-25T08:32:34.394Z</time></trkpt><trkpt lat="44.3650983" lon="11.0240717"><ele>475.33333333333337</ele><time>2026-04-25T08:32:35.394Z</time></trkpt><trkpt lat="44.365145" lon="11.0241333"><ele>475.1666666666667</ele><time>2026-04-25T08:32:36.393Z</time></trkpt><trkpt lat="44.3651983" lon="11.0241933"><ele>475.0</ele><time>2026-04-25T08:32:37.393Z</time></trkpt><trkpt lat="44.36525" lon="11.0242517"><ele>474.5714285714286</ele><time>2026-04-25T08:32:38.394Z</time></trkpt><trkpt lat="44.3653033" lon="11.0243083"><ele>474.1428571428572</ele><time>2026-04-25T08:32:39.392Z</time></trkpt><trkpt lat="44.365355" lon="11.0243667"><ele>473.7142857142857</ele><time>2026-04-25T08:32:40.393Z</time></trkpt><trkpt lat="44.365405" lon="11.0244317"><ele>473.28571428571433</ele><time>2026-04-25T08:32:41.393Z</time></trkpt><trkpt lat="44.3654583" lon="11.0245017"><ele>472.8571428571429</ele><time>2026-04-25T08:32:42.393Z</time></trkpt><trkpt lat="44.3655133" lon="11.0245767"><ele>472.42857142857144</ele><time>2026-04-25T08:32:43.393Z</time></trkpt><trkpt lat="44.36556" lon="11.0246633"><ele>472.0</ele><time>2026-04-25T08:32:44.396Z</time></trkpt><trkpt lat="44.3655967" lon="11.0247533"><ele>473.6666666666667</ele><time>2026-04-25T08:32:45.395Z</time></trkpt><trkpt lat="44.365625" lon="11.0248383"><ele>475.33333333333337</ele><time>2026-04-25T08:32:46.393Z</time></trkpt><trkpt lat="44.3656483" lon="11.0249217"><ele>477.0</ele><time>2026-04-25T08:32:47.393Z</time></trkpt><trkpt lat="44.365655" lon="11.0250917"><ele>478.66666666666663</ele><time>2026-04-25T08:32:49.393Z</time></trkpt><trkpt lat="44.3656367" lon="11.02518"><ele>480.3333333333333</ele><time>2026-04-25T08:32:50.394Z</time></trkpt><trkpt lat="44.3655933" lon="11.02533"><ele>482.0</ele><time>2026-04-25T08:32:52.395Z</time></trkpt><trkpt lat="44.3655733" lon="11.0254567"><ele>482.0</ele><time>2026-04-25T08:32:54.394Z</time></trkpt><trkpt lat="44.36561" lon="11.0255533"><ele>482.00000000000006</ele><time>2026-04-25T08:32:56.394Z</time></trkpt><trkpt lat="44.3656833" lon="11.0256583"><ele>482.00000000000006</ele><time>2026-04-25T08:32:58.393Z</time></trkpt><trkpt lat="44.3657083" lon="11.0258317"><ele>482.0</ele><time>2026-04-25T08:33:00.392Z</time></trkpt><trkpt lat="44.3657017" lon="11.0259433"><ele>482.0</ele><time>2026-04-25T08:33:01.396Z</time></trkpt><trkpt lat="44.3656983" lon="11.0260483"><ele>481.8333333333333</ele><time>2026-04-25T08:33:02.396Z</time></trkpt><trkpt lat="44.3657117" lon="11.0261483"><ele>481.66666666666663</ele><time>2026-04-25T08:33:03.395Z</time></trkpt><trkpt lat="44.3657483" lon="11.026245"><ele>481.5</ele><time>2026-04-25T08:33:04.395Z</time></trkpt><trkpt lat="44.3657967" lon="11.0263417"><ele>481.33333333333337</ele><time>2026-04-25T08:33:05.399Z</time></trkpt><trkpt lat="44.3658433" lon="11.026435"><ele>481.1666666666667</ele><time>2026-04-25T08:33:06.397Z</time></trkpt><trkpt lat="44.3658867" lon="11.026525"><ele>481.0</ele><time>2026-04-25T08:33:07.4Z</time></trkpt><trkpt lat="44.3659283" lon="11.0266083"><ele>481.71428571428567</ele><time>2026-04-25T08:33:08.396Z</time></trkpt><trkpt lat="44.3659633" lon="11.02669"><ele>482.42857142857144</ele><time>2026-04-25T08:33:09.396Z</time></trkpt><trkpt lat="44.3659917" lon="11.0267733"><ele>483.1428571428571</ele><time>2026-04-25T08:33:10.394Z</time></trkpt><trkpt lat="44.3660217" lon="11.02686"><ele>483.85714285714283</ele><time>2026-04-25T08:33:11.397Z</time></trkpt><trkpt lat="44.3660567" lon="11.0269483"><ele>484.57142857142856</ele><time>2026-04-25T08:33:12.395Z</time></trkpt><trkpt lat="44.366095" lon="11.0270417"><ele>485.2857142857143</ele><time>2026-04-25T08:33:13.393Z</time></trkpt><trkpt lat="44.366135" lon="11.027135"><ele>486.0</ele><time>2026-04-25T08:33:14.394Z</time></trkpt><trkpt lat="44.36617" lon="11.0272267"><ele>486.0</ele><time>2026-04-25T08:33:15.393Z</time></trkpt><trkpt lat="44.3662067" lon="11.0273183"><ele>486.0</ele><time>2026-04-25T08:33:16.392Z</time></trkpt><trkpt lat="44.3662517" lon="11.0274217"><ele>486.0</ele><time>2026-04-25T08:33:17.395Z</time></trkpt><trkpt lat="44.3663033" lon="11.0275233"><ele>486.0</ele><time>2026-04-25T08:33:18.397Z</time></trkpt><trkpt lat="44.3663517" lon="11.027625"><ele>486.0</ele><time>2026-04-25T08:33:19.392Z</time></trkpt><trkpt lat="44.3664017" lon="11.0277217"><ele>486.0</ele><time>2026-04-25T08:33:20.399Z</time></trkpt><trkpt lat="44.3664617" lon="11.027805"><ele>492.20000000000005</ele><time>2026-04-25T08:33:21.394Z</time></trkpt><trkpt lat="44.366525" lon="11.027895"><ele>498.40000000000003</ele><time>2026-04-25T08:33:22.399Z</time></trkpt><trkpt lat="44.3665917" lon="11.0279833"><ele>504.6</ele><time>2026-04-25T08:33:23.394Z</time></trkpt><trkpt lat="44.36667" lon="11.0280767"><ele>510.8</ele><time>2026-04-25T08:33:24.397Z</time></trkpt><trkpt lat="44.366745" lon="11.0281667"><ele>517.0</ele><time>2026-04-25T08:33:25.39Z</time></trkpt><trkpt lat="44.3668267" lon="11.0282483"><ele>516.1666666666667</ele><time>2026-04-25T08:33:26.394Z</time></trkpt><trkpt lat="44.366905" lon="11.02832"><ele>515.3333333333334</ele><time>2026-04-25T08:33:27.394Z</time></trkpt><trkpt lat="44.3669633" lon="11.0283783"><ele>514.5</ele><time>2026-04-25T08:33:28.392Z</time></trkpt><trkpt lat="44.3670183" lon="11.0284433"><ele>513.6666666666666</ele><time>2026-04-25T08:33:30.393Z</time></trkpt><trkpt lat="44.36707" lon="11.0285317"><ele>512.8333333333333</ele><time>2026-04-25T08:33:32.394Z</time></trkpt><trkpt lat="44.3670967" lon="11.0286133"><ele>512.0</ele><time>2026-04-25T08:33:33.393Z</time></trkpt><trkpt lat="44.36712" lon="11.028725"><ele>512.0</ele><time>2026-04-25T08:33:34.393Z</time></trkpt><trkpt lat="44.3671433" lon="11.0288517"><ele>512.0</ele><time>2026-04-25T08:33:35.394Z</time></trkpt><trkpt lat="44.3671683" lon="11.02899"><ele>512.0</ele><time>2026-04-25T08:33:36.393Z</time></trkpt><trkpt lat="44.3671933" lon="11.0291317"><ele>512.0</ele><time>2026-04-25T08:33:37.392Z</time></trkpt><trkpt lat="44.3672183" lon="11.0292517"><ele>512.0</ele><time>2026-04-25T08:33:38.394Z</time></trkpt><trkpt lat="44.3672417" lon="11.02936"><ele>514.5</ele><time>2026-04-25T08:33:39.394Z</time></trkpt><trkpt lat="44.3672683" lon="11.0294483"><ele>517.0</ele><time>2026-04-25T08:33:40.392Z</time></trkpt><trkpt lat="44.3673033" lon="11.0295417"><ele>519.5</ele><time>2026-04-25T08:33:41.395Z</time></trkpt><trkpt lat="44.3673583" lon="11.0296367"><ele>522.0</ele><time>2026-04-25T08:33:42.398Z</time></trkpt><trkpt lat="44.3674183" lon="11.02972"><ele>524.5</ele><time>2026-04-25T08:33:43.392Z</time></trkpt><trkpt lat="44.3674817" lon="11.0297917"><ele>527.0</ele><time>2026-04-25T08:33:44.393Z</time></trkpt><trkpt lat="44.3675317" lon="11.02985"><ele>527.0</ele><time>2026-04-25T08:33:45.394Z</time></trkpt><trkpt lat="44.3676233" lon="11.0299167"><ele>527.0</ele><time>2026-04-25T08:33:47.397Z</time></trkpt><trkpt lat="44.3676817" lon="11.0300083"><ele>527.0</ele><time>2026-04-25T08:33:49.394Z</time></trkpt><trkpt lat="44.3676733" lon="11.030115"><ele>527.0</ele><time>2026-04-25T08:33:51.394Z</time></trkpt><trkpt lat="44.3675933" lon="11.030255"><ele>527.0</ele><time>2026-04-25T08:33:53.39Z</time></trkpt><trkpt lat="44.367555" lon="11.0303433"><ele>526.1666666666666</ele><time>2026-04-25T08:33:54.393Z</time></trkpt><trkpt lat="44.367525" lon="11.0304467"><ele>525.3333333333333</ele><time>2026-04-25T08:33:55.392Z</time></trkpt><trkpt lat="44.3674933" lon="11.0305567"><ele>524.5</ele><time>2026-04-25T08:33:56.396Z</time></trkpt><trkpt lat="44.3674583" lon="11.0306633"><ele>523.6666666666666</ele><time>2026-04-25T08:33:57.391Z</time></trkpt><trkpt lat="44.36741" lon="11.0307533"><ele>522.8333333333334</ele><time>2026-04-25T08:33:58.392Z</time></trkpt><trkpt lat="44.3673417" lon="11.0308267"><ele>522.0</ele><time>2026-04-25T08:33:59.392Z</time></trkpt><trkpt lat="44.3672633" lon="11.0308717"><ele>517.1666666666666</ele><time>2026-04-25T08:34:00.394Z</time></trkpt><trkpt lat="44.3671833" lon="11.030925"><ele>512.3333333333334</ele><time>2026-04-25T08:34:01.392Z</time></trkpt><trkpt lat="44.3671133" lon="11.0309867"><ele>507.5</ele><time>2026-04-25T08:34:02.398Z</time></trkpt><trkpt lat="44.3670517" lon="11.0310483"><ele>502.6666666666667</ele><time>2026-04-25T08:34:03.391Z</time></trkpt><trkpt lat="44.3670017" lon="11.03112"><ele>497.83333333333337</ele><time>2026-04-25T08:34:04.395Z</time></trkpt><trkpt lat="44.3669583" lon="11.0312083"><ele>493.0</ele><time>2026-04-25T08:34:05.39Z</time></trkpt><trkpt lat="44.3669283" lon="11.0313033"><ele>493.00000000000006</ele><time>2026-04-25T08:34:06.392Z</time></trkpt><trkpt lat="44.366915" lon="11.0314067"><ele>493.0</ele><time>2026-04-25T08:34:07.389Z</time></trkpt><trkpt lat="44.36691" lon="11.0315267"><ele>493.0</ele><time>2026-04-25T08:34:08.393Z</time></trkpt><trkpt lat="44.3669183" lon="11.0316517"><ele>493.0</ele><time>2026-04-25T08:34:09.391Z</time></trkpt><trkpt lat="44.3669333" lon="11.0317817"><ele>493.00000000000006</ele><time>2026-04-25T08:34:10.393Z</time></trkpt><trkpt lat="44.3669467" lon="11.0319067"><ele>493.0</ele><time>2026-04-25T08:34:11.393Z</time></trkpt><trkpt lat="44.3669683" lon="11.0320317"><ele>492.79999999999995</ele><time>2026-04-25T08:34:12.39Z</time></trkpt><trkpt lat="44.3669983" lon="11.0321583"><ele>492.59999999999997</ele><time>2026-04-25T08:34:13.389Z</time></trkpt><trkpt lat="44.3670317" lon="11.03229"><ele>492.40000000000003</ele><time>2026-04-25T08:34:14.392Z</time></trkpt><trkpt lat="44.3670633" lon="11.03243"><ele>492.20000000000005</ele><time>2026-04-25T08:34:15.391Z</time></trkpt><trkpt lat="44.3670967" lon="11.0325717"><ele>492.0</ele><time>2026-04-25T08:34:16.393Z</time></trkpt><trkpt lat="44.3671183" lon="11.03271"><ele>491.8333333333333</ele><time>2026-04-25T08:34:17.396Z</time></trkpt><trkpt lat="44.36714" lon="11.0328383"><ele>491.66666666666663</ele><time>2026-04-25T08:34:18.389Z</time></trkpt><trkpt lat="44.3671667" lon="11.0329517"><ele>491.5</ele><time>2026-04-25T08:34:19.391Z</time></trkpt><trkpt lat="44.3672017" lon="11.0330517"><ele>491.3333333333333</ele><time>2026-04-25T08:34:20.39Z</time></trkpt><trkpt lat="44.367235" lon="11.0331383"><ele>491.16666666666663</ele><time>2026-04-25T08:34:21.391Z</time></trkpt><trkpt lat="44.3672683" lon="11.0332617"><ele>491.0</ele><time>2026-04-25T08:34:23.392Z</time></trkpt><trkpt lat="44.3672983" lon="11.03344"><ele>495.6</ele><time>2026-04-25T08:35:16.392Z</time></trkpt><trkpt lat="44.3673333" lon="11.0335633"><ele>500.20000000000005</ele><time>2026-04-25T08:35:19.394Z</time></trkpt><trkpt lat="44.36737" lon="11.0337317"><ele>504.79999999999995</ele><time>2026-04-25T08:35:21.394Z</time></trkpt><trkpt lat="44.367405" lon="11.0338267"><ele>509.4</ele><time>2026-04-25T08:35:22.391Z</time></trkpt><trkpt lat="44.3674517" lon="11.0339233"><ele>514.0</ele><time>2026-04-25T08:35:23.395Z</time></trkpt><trkpt lat="44.3675017" lon="11.0340167"><ele>514.0</ele><time>2026-04-25T08:35:24.391Z</time></trkpt><trkpt lat="44.3675517" lon="11.034095"><ele>514.0</ele><time>2026-04-25T08:35:25.388Z</time></trkpt><trkpt lat="44.3676017" lon="11.03416"><ele>514.0</ele><time>2026-04-25T08:35:26.394Z</time></trkpt><trkpt lat="44.367645" lon="11.0342283"><ele>514.0</ele><time>2026-04-25T08:35:27.391Z</time></trkpt><trkpt lat="44.3676783" lon="11.0343033"><ele>514.0</ele><time>2026-04-25T08:35:28.389Z</time></trkpt><trkpt lat="44.3676933" lon="11.03439"><ele>514.0</ele><time>2026-04-25T08:35:29.391Z</time></trkpt><trkpt lat="44.3676933" lon="11.0344783"><ele>514.0</ele><time>2026-04-25T08:35:30.391Z</time></trkpt><trkpt lat="44.3676717" lon="11.0346283"><ele>512.4</ele><time>2026-04-25T08:35:32.391Z</time></trkpt><trkpt lat="44.367655" lon="11.0347467"><ele>510.79999999999995</ele><time>2026-04-25T08:35:34.393Z</time></trkpt><trkpt lat="44.3676383" lon="11.034895"><ele>509.20000000000005</ele><time>2026-04-25T08:35:36.39Z</time></trkpt><trkpt lat="44.3676417" lon="11.03507"><ele>507.6</ele><time>2026-04-25T08:35:38.391Z</time></trkpt><trkpt lat="44.3676583" lon="11.03517"><ele>506.0</ele><time>2026-04-25T08:35:39.39Z</time></trkpt><trkpt lat="44.3676767" lon="11.0352733"><ele>505.16666666666663</ele><time>2026-04-25T08:35:40.392Z</time></trkpt><trkpt lat="44.3676983" lon="11.0353667"><ele>504.3333333333333</ele><time>2026-04-25T08:35:41.391Z</time></trkpt><trkpt lat="44.36772" lon="11.0354983"><ele>503.5</ele><time>2026-04-25T08:35:43.392Z</time></trkpt><trkpt lat="44.36772" lon="11.0353967"><ele>502.66666666666663</ele><time>2026-04-25T08:35:51.393Z</time></trkpt><trkpt lat="44.3676933" lon="11.03531"><ele>501.8333333333333</ele><time>2026-04-25T08:35:54.393Z</time></trkpt><trkpt lat="44.36766" lon="11.0352033"><ele>501.0</ele><time>2026-04-25T08:35:57.394Z</time></trkpt><trkpt lat="44.3676467" lon="11.0350967"><ele>501.0</ele><time>2026-04-25T08:35:59.395Z</time></trkpt><trkpt lat="44.36764" lon="11.0349817"><ele>501.0</ele><time>2026-04-25T08:36:01.395Z</time></trkpt><trkpt lat="44.3676433" lon="11.0348267"><ele>501.0</ele><time>2026-04-25T08:36:03.391Z</time></trkpt><trkpt lat="44.367665" lon="11.0346433"><ele>501.0</ele><time>2026-04-25T08:36:05.395Z</time></trkpt><trkpt lat="44.36768" lon="11.0345433"><ele>501.0</ele><time>2026-04-25T08:36:06.393Z</time></trkpt><trkpt lat="44.3676933" lon="11.03444"><ele>502.0</ele><time>2026-04-25T08:36:07.395Z</time></trkpt><trkpt lat="44.3676867" lon="11.0342783"><ele>503.0</ele><time>2026-04-25T08:36:09.392Z</time></trkpt><trkpt lat="44.3676167" lon="11.0341667"><ele>504.0</ele><time>2026-04-25T08:36:11.393Z</time></trkpt><trkpt lat="44.3675567" lon="11.0340883"><ele>505.0</ele><time>2026-04-25T08:36:12.395Z</time></trkpt><trkpt lat="44.367495" lon="11.0339833"><ele>506.0</ele><time>2026-04-25T08:36:13.39Z</time></trkpt><trkpt lat="44.3674383" lon="11.033865"><ele>507.6</ele><time>2026-04-25T08:36:14.395Z</time></trkpt><trkpt lat="44.3673917" lon="11.03373"><ele>509.20000000000005</ele><time>2026-04-25T08:36:15.392Z</time></trkpt><trkpt lat="44.3673483" lon="11.0335817"><ele>510.79999999999995</ele><time>2026-04-25T08:36:16.393Z</time></trkpt><trkpt lat="44.367305" lon="11.0334333"><ele>512.4</ele><time>2026-04-25T08:36:17.393Z</time></trkpt><trkpt lat="44.3672633" lon="11.0332917"><ele>514.0</ele><time>2026-04-25T08:36:18.394Z</time></trkpt><trkpt lat="44.3672317" lon="11.0331483"><ele>515.0</ele><time>2026-04-25T08:36:19.395Z</time></trkpt><trkpt lat="44.3672" lon="11.0329983"><ele>516.0</ele><time>2026-04-25T08:36:20.395Z</time></trkpt><trkpt lat="44.367165" lon="11.0328533"><ele>517.0</ele><time>2026-04-25T08:36:21.391Z</time></trkpt><trkpt lat="44.3671383" lon="11.0326933"><ele>518.0</ele><time>2026-04-25T08:36:22.393Z</time></trkpt><trkpt lat="44.3671133" lon="11.032535"><ele>511.5</ele><time>2026-04-25T08:36:23.395Z</time></trkpt><trkpt lat="44.36707" lon="11.0323817"><ele>505.0</ele><time>2026-04-25T08:36:24.397Z</time></trkpt><trkpt lat="44.3670267" lon="11.032235"><ele>498.5</ele><time>2026-04-25T08:36:25.394Z</time></trkpt><trkpt lat="44.366985" lon="11.0320883"><ele>492.0</ele><time>2026-04-25T08:36:26.395Z</time></trkpt><trkpt lat="44.3669567" lon="11.031945"><ele>492.0</ele><time>2026-04-25T08:36:27.392Z</time></trkpt><trkpt lat="44.3669433" lon="11.0317917"><ele>492.00000000000006</ele><time>2026-04-25T08:36:28.394Z</time></trkpt><trkpt lat="44.3669383" lon="11.031635"><ele>492.00000000000006</ele><time>2026-04-25T08:36:29.394Z</time></trkpt><trkpt lat="44.36694" lon="11.0314883"><ele>492.0</ele><time>2026-04-25T08:36:30.394Z</time></trkpt><trkpt lat="44.3669517" lon="11.03135"><ele>492.0</ele><time>2026-04-25T08:36:31.394Z</time></trkpt><trkpt lat="44.36698" lon="11.0312267"><ele>492.20000000000005</ele><time>2026-04-25T08:36:32.394Z</time></trkpt><trkpt lat="44.3670083" lon="11.0311117"><ele>492.40000000000003</ele><time>2026-04-25T08:36:33.39Z</time></trkpt><trkpt lat="44.367045" lon="11.0310017"><ele>492.59999999999997</ele><time>2026-04-25T08:36:34.394Z</time></trkpt><trkpt lat="44.367105" lon="11.0309183"><ele>492.79999999999995</ele><time>2026-04-25T08:36:35.394Z</time></trkpt><trkpt lat="44.3671833" lon="11.0308383"><ele>493.0</ele><time>2026-04-25T08:36:36.39Z</time></trkpt><trkpt lat="44.3672833" lon="11.03079"><ele>497.0</ele><time>2026-04-25T08:36:37.393Z</time></trkpt><trkpt lat="44.3673767" lon="11.03073"><ele>500.99999999999994</ele><time>2026-04-25T08:36:38.393Z</time></trkpt><trkpt lat="44.3674517" lon="11.030635"><ele>504.99999999999994</ele><time>2026-04-25T08:36:39.392Z</time></trkpt><trkpt lat="44.367505" lon="11.0305117"><ele>509.0</ele><time>2026-04-25T08:36:40.394Z</time></trkpt><trkpt lat="44.3675533" lon="11.0303883"><ele>513.0</ele><time>2026-04-25T08:36:41.39Z</time></trkpt><trkpt lat="44.367605" lon="11.03028"><ele>513.0</ele><time>2026-04-25T08:36:42.393Z</time></trkpt><trkpt lat="44.36766" lon="11.0301933"><ele>513.0</ele><time>2026-04-25T08:36:43.394Z</time></trkpt><trkpt lat="44.367705" lon="11.0301067"><ele>513.0</ele><time>2026-04-25T08:36:44.394Z</time></trkpt><trkpt lat="44.3676833" lon="11.0299433"><ele>513.0</ele><time>2026-04-25T08:36:46.392Z</time></trkpt><trkpt lat="44.36762" lon="11.0298667"><ele>513.0</ele><time>2026-04-25T08:36:47.394Z</time></trkpt><trkpt lat="44.3675367" lon="11.02978"><ele>515.8</ele><time>2026-04-25T08:36:48.393Z</time></trkpt><trkpt lat="44.3674367" lon="11.029665"><ele>518.5999999999999</ele><time>2026-04-25T08:36:49.39Z</time></trkpt><trkpt lat="44.3673517" lon="11.0295533"><ele>521.4000000000001</ele><time>2026-04-25T08:36:50.391Z</time></trkpt><trkpt lat="44.3672883" lon="11.0294483"><ele>524.2</ele><time>2026-04-25T08:36:51.394Z</time></trkpt><trkpt lat="44.367245" lon="11.0293233"><ele>527.0</ele><time>2026-04-25T08:36:52.391Z</time></trkpt><trkpt lat="44.36721" lon="11.0291767"><ele>523.25</ele><time>2026-04-25T08:36:53.393Z</time></trkpt><trkpt lat="44.3671767" lon="11.0290183"><ele>519.5</ele><time>2026-04-25T08:36:54.395Z</time></trkpt><trkpt lat="44.3671417" lon="11.0288567"><ele>515.75</ele><time>2026-04-25T08:36:55.395Z</time></trkpt><trkpt lat="44.3670933" lon="11.0286933"><ele>512.0</ele><time>2026-04-25T08:36:56.396Z</time></trkpt><trkpt lat="44.3670467" lon="11.0285433"><ele>512.0</ele><time>2026-04-25T08:36:57.394Z</time></trkpt><trkpt lat="44.3670033" lon="11.0284183"><ele>512.0</ele><time>2026-04-25T08:36:58.391Z</time></trkpt><trkpt lat="44.3669633" lon="11.0282967"><ele>512.0</ele><time>2026-04-25T08:36:59.395Z</time></trkpt><trkpt lat="44.36693" lon="11.028175"><ele>512.0</ele><time>2026-04-25T08:37:00.394Z</time></trkpt><trkpt lat="44.36691" lon="11.0280483"><ele>512.0</ele><time>2026-04-25T08:37:01.391Z</time></trkpt><trkpt lat="44.366905" lon="11.0279083"><ele>512.4</ele><time>2026-04-25T08:37:02.393Z</time></trkpt><trkpt lat="44.36692" lon="11.0277717"><ele>512.8000000000001</ele><time>2026-04-25T08:37:03.391Z</time></trkpt><trkpt lat="44.3669433" lon="11.027645"><ele>513.2</ele><time>2026-04-25T08:37:04.393Z</time></trkpt><trkpt lat="44.3669667" lon="11.0275217"><ele>513.6</ele><time>2026-04-25T08:37:05.396Z</time></trkpt><trkpt lat="44.366965" lon="11.0273733"><ele>514.0</ele><time>2026-04-25T08:37:06.396Z</time></trkpt><trkpt lat="44.366945" lon="11.0272133"><ele>514.0</ele><time>2026-04-25T08:37:07.392Z</time></trkpt><trkpt lat="44.3669267" lon="11.0270567"><ele>514.0</ele><time>2026-04-25T08:37:08.396Z</time></trkpt><trkpt lat="44.36692" lon="11.0269083"><ele>514.0</ele><time>2026-04-25T08:37:09.397Z</time></trkpt><trkpt lat="44.3669217" lon="11.0267767"><ele>514.0</ele><time>2026-04-25T08:37:10.398Z</time></trkpt><trkpt lat="44.3669417" lon="11.026655"><ele>514.0</ele><time>2026-04-25T08:37:11.397Z</time></trkpt><trkpt lat="44.3669817" lon="11.0265417"><ele>514.3333333333334</ele><time>2026-04-25T08:37:12.393Z</time></trkpt><trkpt lat="44.36703" lon="11.0264367"><ele>514.6666666666667</ele><time>2026-04-25T08:37:13.394Z</time></trkpt><trkpt lat="44.36708" lon="11.0263383"><ele>515.0</ele><time>2026-04-25T08:37:14.42Z</time></trkpt><trkpt lat="44.36713" lon="11.02625"><ele>515.3333333333334</ele><time>2026-04-25T08:37:15.393Z</time></trkpt><trkpt lat="44.3671717" lon="11.0261617"><ele>515.6666666666666</ele><time>2026-04-25T08:37:16.393Z</time></trkpt><trkpt lat="44.36721" lon="11.0260633"><ele>516.0</ele><time>2026-04-25T08:37:17.396Z</time></trkpt><trkpt lat="44.3672383" lon="11.0259417"><ele>522.8</ele><time>2026-04-25T08:37:18.398Z</time></trkpt><trkpt lat="44.3672633" lon="11.0258033"><ele>529.6</ele><time>2026-04-25T08:37:19.395Z</time></trkpt><trkpt lat="44.3672867" lon="11.025665"><ele>536.4</ele><time>2026-04-25T08:37:20.394Z</time></trkpt><trkpt lat="44.3673117" lon="11.0255217"><ele>543.2</ele><time>2026-04-25T08:37:21.396Z</time></trkpt><trkpt lat="44.3673417" lon="11.0253767"><ele>550.0</ele><time>2026-04-25T08:37:22.394Z</time></trkpt><trkpt lat="44.36739" lon="11.0252283"><ele>550.0</ele><time>2026-04-25T08:37:23.394Z</time></trkpt><trkpt lat="44.36744" lon="11.025075"><ele>550.0</ele><time>2026-04-25T08:37:24.394Z</time></trkpt><trkpt lat="44.3674933" lon="11.0249033"><ele>550.0</ele><time>2026-04-25T08:37:25.395Z</time></trkpt><trkpt lat="44.3675433" lon="11.0247267"><ele>550.0</ele><time>2026-04-25T08:37:26.392Z</time></trkpt><trkpt lat="44.3675933" lon="11.0245467"><ele>549.0</ele><time>2026-04-25T08:37:27.393Z</time></trkpt><trkpt lat="44.3676367" lon="11.0243683"><ele>548.0</ele><time>2026-04-25T08:37:28.393Z</time></trkpt><trkpt lat="44.367685" lon="11.0242017"><ele>547.0</ele><time>2026-04-25T08:37:29.394Z</time></trkpt><trkpt lat="44.3677317" lon="11.0240483"><ele>546.0</ele><time>2026-04-25T08:37:30.393Z</time></trkpt><trkpt lat="44.3677783" lon="11.02391"><ele>545.6666666666666</ele><time>2026-04-25T08:37:31.396Z</time></trkpt><trkpt lat="44.3678317" lon="11.0237933"><ele>545.3333333333334</ele><time>2026-04-25T08:37:32.395Z</time></trkpt><trkpt lat="44.3678967" lon="11.0237033"><ele>545.0</ele><time>2026-04-25T08:37:33.394Z</time></trkpt><trkpt lat="44.3679633" lon="11.0236333"><ele>544.6666666666667</ele><time>2026-04-25T08:37:34.394Z</time></trkpt><trkpt lat="44.36802" lon="11.0235867"><ele>544.3333333333334</ele><time>2026-04-25T08:37:35.394Z</time></trkpt><trkpt lat="44.3680883" lon="11.0235367"><ele>544.0</ele><time>2026-04-25T08:37:37.393Z</time></trkpt><trkpt lat="44.3681717" lon="11.023465"><ele>546.8571428571428</ele><time>2026-04-25T08:37:39.394Z</time></trkpt><trkpt lat="44.3682233" lon="11.0234017"><ele>549.7142857142857</ele><time>2026-04-25T08:37:40.394Z</time></trkpt><trkpt lat="44.3682683" lon="11.0233283"><ele>552.5714285714286</ele><time>2026-04-25T08:37:41.395Z</time></trkpt><trkpt lat="44.36831" lon="11.0232567"><ele>555.4285714285713</ele><time>2026-04-25T08:37:42.395Z</time></trkpt><trkpt lat="44.3683433" lon="11.0231633"><ele>558.2857142857142</ele><time>2026-04-25T08:37:43.392Z</time></trkpt><trkpt lat="44.3683583" lon="11.0230583"><ele>561.1428571428571</ele><time>2026-04-25T08:37:44.396Z</time></trkpt><trkpt lat="44.3683633" lon="11.02293"><ele>564.0</ele><time>2026-04-25T08:37:45.395Z</time></trkpt><trkpt lat="44.368355" lon="11.0228067"><ele>564.0</ele><time>2026-04-25T08:37:46.396Z</time></trkpt><trkpt lat="44.3683483" lon="11.0227"><ele>564.0</ele><time>2026-04-25T08:37:47.395Z</time></trkpt><trkpt lat="44.3683533" lon="11.022555"><ele>564.0</ele><time>2026-04-25T08:37:49.395Z</time></trkpt><trkpt lat="44.36845" lon="11.0224117"><ele>564.0</ele><time>2026-04-25T08:37:51.393Z</time></trkpt><trkpt lat="44.3685067" lon="11.0223217"><ele>564.0</ele><time>2026-04-25T08:37:52.393Z</time></trkpt><trkpt lat="44.3685617" lon="11.02224"><ele>565.8</ele><time>2026-04-25T08:37:53.399Z</time></trkpt><trkpt lat="44.36865" lon="11.02214"><ele>567.5999999999999</ele><time>2026-04-25T08:37:55.397Z</time></trkpt><trkpt lat="44.3687317" lon="11.0221083"><ele>569.4</ele><time>2026-04-25T08:37:57.395Z</time></trkpt><trkpt lat="44.3687783" lon="11.0220017"><ele>571.1999999999999</ele><time>2026-04-25T08:38:00.396Z</time></trkpt><trkpt lat="44.3687817" lon="11.0218767"><ele>573.0</ele><time>2026-04-25T08:38:02.402Z</time></trkpt><trkpt lat="44.368785" lon="11.0217467"><ele>576.1999999999999</ele><time>2026-04-25T08:38:04.394Z</time></trkpt><trkpt lat="44.368765" lon="11.0216033"><ele>579.4</ele><time>2026-04-25T08:38:06.395Z</time></trkpt><trkpt lat="44.3687083" lon="11.0214783"><ele>582.5999999999999</ele><time>2026-04-25T08:38:08.396Z</time></trkpt><trkpt lat="44.3686683" lon="11.0213567"><ele>585.8</ele><time>2026-04-25T08:38:10.396Z</time></trkpt><trkpt lat="44.3686683" lon="11.0212333"><ele>589.0</ele><time>2026-04-25T08:38:12.397Z</time></trkpt><trkpt lat="44.3686533" lon="11.0210983"><ele>589.0</ele><time>2026-04-25T08:38:14.396Z</time></trkpt><trkpt lat="44.368605" lon="11.02093"><ele>589.0</ele><time>2026-04-25T08:38:16.396Z</time></trkpt><trkpt lat="44.3685833" lon="11.0208467"><ele>589.0</ele><time>2026-04-25T08:38:17.397Z</time></trkpt><trkpt lat="44.368575" lon="11.0207583"><ele>589.0</ele><time>2026-04-25T08:38:18.402Z</time></trkpt><trkpt lat="44.3685717" lon="11.0206683"><ele>589.0</ele><time>2026-04-25T08:38:19.397Z</time></trkpt><trkpt lat="44.3685817" lon="11.0204983"><ele>589.0</ele><time>2026-04-25T08:38:21.395Z</time></trkpt><trkpt lat="44.3686333" lon="11.020355"><ele>588.5</ele><time>2026-04-25T08:38:23.4Z</time></trkpt><trkpt lat="44.3687117" lon="11.0202333"><ele>588.0</ele><time>2026-04-25T08:38:25.399Z</time></trkpt><trkpt lat="44.3687767" lon="11.0201633"><ele>587.5</ele><time>2026-04-25T08:38:26.4Z</time></trkpt><trkpt lat="44.3688433" lon="11.02009"><ele>587.0</ele><time>2026-04-25T08:38:27.396Z</time></trkpt><trkpt lat="44.3688983" lon="11.0200083"><ele>586.5</ele><time>2026-04-25T08:38:28.395Z</time></trkpt><trkpt lat="44.368955" lon="11.0199233"><ele>586.0</ele><time>2026-04-25T08:38:29.397Z</time></trkpt><trkpt lat="44.3690183" lon="11.019835"><ele>588.8</ele><time>2026-04-25T08:38:30.394Z</time></trkpt><trkpt lat="44.369085" lon="11.019745"><ele>591.6</ele><time>2026-04-25T08:38:31.395Z</time></trkpt><trkpt lat="44.3691567" lon="11.0196633"><ele>594.4</ele><time>2026-04-25T08:38:32.396Z</time></trkpt><trkpt lat="44.3692367" lon="11.0195767"><ele>597.2</ele><time>2026-04-25T08:38:33.397Z</time></trkpt><trkpt lat="44.36932" lon="11.0194867"><ele>600.0</ele><time>2026-04-25T08:38:34.396Z</time></trkpt><trkpt lat="44.3694" lon="11.01939"><ele>600.0</ele><time>2026-04-25T08:38:35.397Z</time></trkpt><trkpt lat="44.3694817" lon="11.01928"><ele>600.0</ele><time>2026-04-25T08:38:36.396Z</time></trkpt><trkpt lat="44.3695533" lon="11.0191617"><ele>600.0</ele><time>2026-04-25T08:38:37.397Z</time></trkpt><trkpt lat="44.36963" lon="11.0190517"><ele>600.0</ele><time>2026-04-25T08:38:38.4Z</time></trkpt><trkpt lat="44.3697" lon="11.0189433"><ele>600.0</ele><time>2026-04-25T08:38:39.397Z</time></trkpt><trkpt lat="44.369765" lon="11.01884"><ele>603.8</ele><time>2026-04-25T08:38:40.398Z</time></trkpt><trkpt lat="44.3698317" lon="11.0187467"><ele>607.6</ele><time>2026-04-25T08:38:41.398Z</time></trkpt><trkpt lat="44.369905" lon="11.0186517"><ele>611.4</ele><time>2026-04-25T08:38:42.4Z</time></trkpt><trkpt lat="44.369975" lon="11.01856"><ele>615.2</ele><time>2026-04-25T08:38:43.398Z</time></trkpt><trkpt lat="44.3700433" lon="11.0184817"><ele>619.0</ele><time>2026-04-25T08:38:44.398Z</time></trkpt><trkpt lat="44.3701117" lon="11.0183983"><ele>620.2</ele><time>2026-04-25T08:38:45.396Z</time></trkpt><trkpt lat="44.37016" lon="11.0182683"><ele>621.4</ele><time>2026-04-25T08:38:46.395Z</time></trkpt><trkpt lat="44.3702" lon="11.0181267"><ele>622.6</ele><time>2026-04-25T08:38:47.397Z</time></trkpt><trkpt lat="44.3702217" lon="11.01799"><ele>623.8</ele><time>2026-04-25T08:38:48.398Z</time></trkpt><trkpt lat="44.370215" lon="11.0178583"><ele>625.0</ele><time>2026-04-25T08:38:49.39Z</time></trkpt><trkpt lat="44.3701783" lon="11.0177267"><ele>625.0</ele><time>2026-04-25T08:38:50.397Z</time></trkpt><trkpt lat="44.3701133" lon="11.0175867"><ele>625.0</ele><time>2026-04-25T08:38:51.396Z</time></trkpt><trkpt lat="44.3700283" lon="11.017445"><ele>625.0</ele><time>2026-04-25T08:38:52.395Z</time></trkpt><trkpt lat="44.3699367" lon="11.0172983"><ele>625.0</ele><time>2026-04-25T08:38:53.395Z</time></trkpt><trkpt lat="44.3698433" lon="11.01717"><ele>626.5</ele><time>2026-04-25T08:38:54.394Z</time></trkpt><trkpt lat="44.3697567" lon="11.0170633"><ele>628.0</ele><time>2026-04-25T08:38:55.391Z</time></trkpt><trkpt lat="44.3696883" lon="11.01697"><ele>629.5</ele><time>2026-04-25T08:38:56.394Z</time></trkpt><trkpt lat="44.36964" lon="11.016885"><ele>631.0</ele><time>2026-04-25T08:38:57.393Z</time></trkpt><trkpt lat="44.3696183" lon="11.0167967"><ele>632.5</ele><time>2026-04-25T08:38:58.395Z</time></trkpt><trkpt lat="44.36962" lon="11.0167017"><ele>634.0</ele><time>2026-04-25T08:38:59.395Z</time></trkpt><trkpt lat="44.3696367" lon="11.0165917"><ele>633.3333333333334</ele><time>2026-04-25T08:39:00.392Z</time></trkpt><trkpt lat="44.3696567" lon="11.0164967"><ele>632.6666666666667</ele><time>2026-04-25T08:39:01.394Z</time></trkpt><trkpt lat="44.369725" lon="11.0163833"><ele>632.0</ele><time>2026-04-25T08:39:03.393Z</time></trkpt><trkpt lat="44.3697833" lon="11.0163333"><ele>631.3333333333334</ele><time>2026-04-25T08:39:04.396Z</time></trkpt><trkpt lat="44.3698533" lon="11.0162583"><ele>630.6666666666666</ele><time>2026-04-25T08:39:05.395Z</time></trkpt><trkpt lat="44.3699317" lon="11.016165"><ele>630.0</ele><time>2026-04-25T08:39:06.394Z</time></trkpt><trkpt lat="44.3700217" lon="11.0160217"><ele>630.0</ele><time>2026-04-25T08:39:07.394Z</time></trkpt><trkpt lat="44.3700967" lon="11.0158767"><ele>630.0</ele><time>2026-04-25T08:39:08.4Z</time></trkpt><trkpt lat="44.3701583" lon="11.0157433"><ele>630.0</ele><time>2026-04-25T08:39:09.395Z</time></trkpt><trkpt lat="44.3702233" lon="11.01564"><ele>630.0</ele><time>2026-04-25T08:39:10.398Z</time></trkpt><trkpt lat="44.3703083" lon="11.0155583"><ele>630.0</ele><time>2026-04-25T08:39:11.396Z</time></trkpt><trkpt lat="44.37041" lon="11.0154867"><ele>629.8</ele><time>2026-04-25T08:39:12.394Z</time></trkpt><trkpt lat="44.3705067" lon="11.015425"><ele>629.6</ele><time>2026-04-25T08:39:13.396Z</time></trkpt><trkpt lat="44.37059" lon="11.0153433"><ele>629.4</ele><time>2026-04-25T08:39:14.396Z</time></trkpt><trkpt lat="44.3706583" lon="11.01522"><ele>629.2</ele><time>2026-04-25T08:39:15.395Z</time></trkpt><trkpt lat="44.3707183" lon="11.015065"><ele>629.0</ele><time>2026-04-25T08:39:16.395Z</time></trkpt><trkpt lat="44.370785" lon="11.0148917"><ele>629.0</ele><time>2026-04-25T08:39:17.396Z</time></trkpt><trkpt lat="44.3708533" lon="11.014705"><ele>629.0</ele><time>2026-04-25T08:39:18.395Z</time></trkpt><trkpt lat="44.370925" lon="11.0145217"><ele>629.0</ele><time>2026-04-25T08:39:19.396Z</time></trkpt><trkpt lat="44.370995" lon="11.0143517"><ele>629.0</ele><time>2026-04-25T08:39:20.397Z</time></trkpt><trkpt lat="44.371065" lon="11.0141917"><ele>629.5</ele><time>2026-04-25T08:39:21.393Z</time></trkpt><trkpt lat="44.3711317" lon="11.0140533"><ele>630.0</ele><time>2026-04-25T08:39:22.395Z</time></trkpt><trkpt lat="44.37118" lon="11.013915"><ele>630.5</ele><time>2026-04-25T08:39:23.395Z</time></trkpt><trkpt lat="44.3712083" lon="11.0137517"><ele>631.0</ele><time>2026-04-25T08:39:24.396Z</time></trkpt><trkpt lat="44.3712217" lon="11.0135533"><ele>631.0</ele><time>2026-04-25T08:39:25.393Z</time></trkpt><trkpt lat="44.3712283" lon="11.0133467"><ele>631.0</ele><time>2026-04-25T08:39:26.395Z</time></trkpt><trkpt lat="44.37123" lon="11.0131517"><ele>631.0</ele><time>2026-04-25T08:39:27.394Z</time></trkpt><trkpt lat="44.3712267" lon="11.012965"><ele>631.0</ele><time>2026-04-25T08:39:28.39Z</time></trkpt><trkpt lat="44.3712183" lon="11.012795"><ele>632.0</ele><time>2026-04-25T08:39:29.394Z</time></trkpt><trkpt lat="44.3712117" lon="11.01264"><ele>633.0</ele><time>2026-04-25T08:39:30.394Z</time></trkpt><trkpt lat="44.3712133" lon="11.0124867"><ele>634.0</ele><time>2026-04-25T08:39:31.396Z</time></trkpt><trkpt lat="44.3712283" lon="11.0123267"><ele>635.0</ele><time>2026-04-25T08:39:32.395Z</time></trkpt><trkpt lat="44.371265" lon="11.0121583"><ele>635.25</ele><time>2026-04-25T08:39:33.393Z</time></trkpt><trkpt lat="44.3713117" lon="11.0119867"><ele>635.5</ele><time>2026-04-25T08:39:34.393Z</time></trkpt><trkpt lat="44.3713517" lon="11.0118033"><ele>635.75</ele><time>2026-04-25T08:39:35.394Z</time></trkpt><trkpt lat="44.37139" lon="11.01162"><ele>636.0</ele><time>2026-04-25T08:39:36.396Z</time></trkpt><trkpt lat="44.371425" lon="11.01144"><ele>642.0</ele><time>2026-04-25T08:39:37.395Z</time></trkpt><trkpt lat="44.3714383" lon="11.01127"><ele>648.0</ele><time>2026-04-25T08:39:38.397Z</time></trkpt><trkpt lat="44.3714317" lon="11.0111167"><ele>654.0</ele><time>2026-04-25T08:39:39.397Z</time></trkpt><trkpt lat="44.3714067" lon="11.01095"><ele>660.0</ele><time>2026-04-25T08:39:40.396Z</time></trkpt><trkpt lat="44.37137" lon="11.0107983"><ele>660.4</ele><time>2026-04-25T08:39:41.395Z</time></trkpt><trkpt lat="44.3713483" lon="11.0106517"><ele>660.8</ele><time>2026-04-25T08:39:42.397Z</time></trkpt><trkpt lat="44.3713583" lon="11.0105067"><ele>661.2</ele><time>2026-04-25T08:39:43.397Z</time></trkpt><trkpt lat="44.37138" lon="11.01036"><ele>661.6</ele><time>2026-04-25T08:39:44.397Z</time></trkpt><trkpt lat="44.3713833" lon="11.0102083"><ele>662.0</ele><time>2026-04-25T08:39:45.394Z</time></trkpt><trkpt lat="44.371375" lon="11.0100683"><ele>661.1666666666666</ele><time>2026-04-25T08:39:46.396Z</time></trkpt><trkpt lat="44.3713633" lon="11.009945"><ele>660.3333333333333</ele><time>2026-04-25T08:39:47.399Z</time></trkpt><trkpt lat="44.3713533" lon="11.0098517"><ele>659.5</ele><time>2026-04-25T08:39:48.398Z</time></trkpt><trkpt lat="44.3713383" lon="11.0097433"><ele>658.6666666666666</ele><time>2026-04-25T08:39:50.397Z</time></trkpt><trkpt lat="44.3712833" lon="11.0096567"><ele>657.8333333333334</ele><time>2026-04-25T08:39:53.394Z</time></trkpt><trkpt lat="44.371175" lon="11.0096367"><ele>657.0</ele><time>2026-04-25T08:39:55.397Z</time></trkpt><trkpt lat="44.3711117" lon="11.009625"><ele>655.2857142857142</ele><time>2026-04-25T08:39:56.394Z</time></trkpt><trkpt lat="44.371045" lon="11.0096033"><ele>653.5714285714287</ele><time>2026-04-25T08:39:57.395Z</time></trkpt><trkpt lat="44.3709783" lon="11.00958"><ele>651.8571428571429</ele><time>2026-04-25T08:39:58.395Z</time></trkpt><trkpt lat="44.3709117" lon="11.00955"><ele>650.1428571428571</ele><time>2026-04-25T08:39:59.394Z</time></trkpt><trkpt lat="44.3708433" lon="11.0095167"><ele>648.4285714285713</ele><time>2026-04-25T08:40:00.396Z</time></trkpt><trkpt lat="44.370775" lon="11.0094833"><ele>646.7142857142858</ele><time>2026-04-25T08:40:01.401Z</time></trkpt><trkpt lat="44.3706983" lon="11.0094567"><ele>645.0</ele><time>2026-04-25T08:40:02.398Z</time></trkpt><trkpt lat="44.3706117" lon="11.00943"><ele>641.8</ele><time>2026-04-25T08:40:03.396Z</time></trkpt><trkpt lat="44.3705183" lon="11.0094083"><ele>638.6</ele><time>2026-04-25T08:40:04.395Z</time></trkpt><trkpt lat="44.370425" lon="11.0093967"><ele>635.4</ele><time>2026-04-25T08:40:05.396Z</time></trkpt><trkpt lat="44.370335" lon="11.009395"><ele>632.2</ele><time>2026-04-25T08:40:06.397Z</time></trkpt><trkpt lat="44.3702417" lon="11.0094067"><ele>629.0</ele><time>2026-04-25T08:40:07.395Z</time></trkpt><trkpt lat="44.370135" lon="11.0094533"><ele>629.0</ele><time>2026-04-25T08:40:08.399Z</time></trkpt><trkpt lat="44.3700333" lon="11.0095083"><ele>629.0</ele><time>2026-04-25T08:40:09.394Z</time></trkpt><trkpt lat="44.36992" lon="11.0095633"><ele>629.0</ele><time>2026-04-25T08:40:10.394Z</time></trkpt><trkpt lat="44.369815" lon="11.0096167"><ele>629.0</ele><time>2026-04-25T08:40:11.398Z</time></trkpt><trkpt lat="44.3697067" lon="11.00965"><ele>624.0</ele><time>2026-04-25T08:40:12.397Z</time></trkpt><trkpt lat="44.3695933" lon="11.0096567"><ele>619.0</ele><time>2026-04-25T08:40:13.394Z</time></trkpt><trkpt lat="44.36947" lon="11.00966"><ele>614.0</ele><time>2026-04-25T08:40:14.395Z</time></trkpt><trkpt lat="44.3693483" lon="11.0096733"><ele>609.0</ele><time>2026-04-25T08:40:15.397Z</time></trkpt><trkpt lat="44.3692267" lon="11.0096817"><ele>609.0</ele><time>2026-04-25T08:40:16.396Z</time></trkpt><trkpt lat="44.3691067" lon="11.0096867"><ele>609.0</ele><time>2026-04-25T08:40:17.395Z</time></trkpt><trkpt lat="44.3689917" lon="11.0096867"><ele>609.0</ele><time>2026-04-25T08:40:18.397Z</time></trkpt><trkpt lat="44.36888" lon="11.0096767"><ele>609.0</ele><time>2026-04-25T08:40:19.396Z</time></trkpt><trkpt lat="44.36877" lon="11.00967"><ele>605.0</ele><time>2026-04-25T08:40:20.4Z</time></trkpt><trkpt lat="44.3686583" lon="11.0096767"><ele>601.0</ele><time>2026-04-25T08:40:21.397Z</time></trkpt><trkpt lat="44.3685433" lon="11.009695"><ele>597.0</ele><time>2026-04-25T08:40:22.394Z</time></trkpt><trkpt lat="44.3684233" lon="11.009705"><ele>593.0</ele><time>2026-04-25T08:40:23.398Z</time></trkpt><trkpt lat="44.3683083" lon="11.0096983"><ele>593.0</ele><time>2026-04-25T08:40:24.397Z</time></trkpt><trkpt lat="44.3681933" lon="11.009695"><ele>593.0</ele><time>2026-04-25T08:40:25.397Z</time></trkpt><trkpt lat="44.3680817" lon="11.0096933"><ele>593.0</ele><time>2026-04-25T08:40:26.396Z</time></trkpt><trkpt lat="44.367975" lon="11.0096933"><ele>593.0</ele><time>2026-04-25T08:40:27.397Z</time></trkpt><trkpt lat="44.36788" lon="11.0096817"><ele>593.0</ele><time>2026-04-25T08:40:28.394Z</time></trkpt><trkpt lat="44.367785" lon="11.0096517"><ele>590.0</ele><time>2026-04-25T08:40:29.396Z</time></trkpt><trkpt lat="44.3677067" lon="11.0096017"><ele>587.0</ele><time>2026-04-25T08:40:30.395Z</time></trkpt><trkpt lat="44.3676433" lon="11.009535"><ele>584.0</ele><time>2026-04-25T08:40:31.396Z</time></trkpt><trkpt lat="44.3675933" lon="11.009435"><ele>581.0</ele><time>2026-04-25T08:40:32.395Z</time></trkpt><trkpt lat="44.3675533" lon="11.0093133"><ele>578.0</ele><time>2026-04-25T08:40:33.394Z</time></trkpt><trkpt lat="44.3675083" lon="11.0091633"><ele>577.0</ele><time>2026-04-25T08:40:34.393Z</time></trkpt><trkpt lat="44.3674567" lon="11.009005"><ele>576.0</ele><time>2026-04-25T08:40:35.395Z</time></trkpt><trkpt lat="44.3673967" lon="11.00885"><ele>575.0</ele><time>2026-04-25T08:40:36.392Z</time></trkpt><trkpt lat="44.3673317" lon="11.0087"><ele>574.0</ele><time>2026-04-25T08:40:37.393Z</time></trkpt><trkpt lat="44.36727" lon="11.0085517"><ele>574.0</ele><time>2026-04-25T08:40:38.397Z</time></trkpt><trkpt lat="44.3672033" lon="11.0084167"><ele>574.0</ele><time>2026-04-25T08:40:39.392Z</time></trkpt><trkpt lat="44.3671317" lon="11.008285"><ele>574.0</ele><time>2026-04-25T08:40:40.394Z</time></trkpt><trkpt lat="44.3670583" lon="11.0081467"><ele>574.0</ele><time>2026-04-25T08:40:41.394Z</time></trkpt><trkpt lat="44.3669867" lon="11.0080133"><ele>575.0</ele><time>2026-04-25T08:40:42.393Z</time></trkpt><trkpt lat="44.366925" lon="11.0078867"><ele>576.0</ele><time>2026-04-25T08:40:43.394Z</time></trkpt><trkpt lat="44.3668733" lon="11.00777"><ele>577.0</ele><time>2026-04-25T08:40:44.395Z</time></trkpt><trkpt lat="44.3668217" lon="11.0076617"><ele>578.0</ele><time>2026-04-25T08:40:45.397Z</time></trkpt><trkpt lat="44.36677" lon="11.0075667"><ele>579.0</ele><time>2026-04-25T08:40:46.396Z</time></trkpt><trkpt lat="44.366715" lon="11.0074833"><ele>579.0</ele><time>2026-04-25T08:40:47.394Z</time></trkpt><trkpt lat="44.3666583" lon="11.0074167"><ele>579.0</ele><time>2026-04-25T08:40:48.396Z</time></trkpt><trkpt lat="44.3665933" lon="11.007365"><ele>579.0</ele><time>2026-04-25T08:40:49.396Z</time></trkpt><trkpt lat="44.36652" lon="11.00733"><ele>579.0</ele><time>2026-04-25T08:40:50.401Z</time></trkpt><trkpt lat="44.3664367" lon="11.0073117"><ele>579.0</ele><time>2026-04-25T08:40:51.397Z</time></trkpt><trkpt lat="44.36635" lon="11.0072983"><ele>579.0</ele><time>2026-04-25T08:40:52.394Z</time></trkpt><trkpt lat="44.366265" lon="11.0072883"><ele>576.0</ele><time>2026-04-25T08:40:53.398Z</time></trkpt><trkpt lat="44.3661667" lon="11.0072983"><ele>573.0</ele><time>2026-04-25T08:40:54.393Z</time></trkpt><trkpt lat="44.3660617" lon="11.0073067"><ele>570.0</ele><time>2026-04-25T08:40:55.395Z</time></trkpt><trkpt lat="44.3659617" lon="11.0073283"><ele>567.0</ele><time>2026-04-25T08:40:56.395Z</time></trkpt><trkpt lat="44.36587" lon="11.0073583"><ele>564.0</ele><time>2026-04-25T08:40:57.393Z</time></trkpt><trkpt lat="44.36578" lon="11.0073833"><ele>564.0</ele><time>2026-04-25T08:40:58.394Z</time></trkpt><trkpt lat="44.3656867" lon="11.0074083"><ele>564.0</ele><time>2026-04-25T08:40:59.396Z</time></trkpt><trkpt lat="44.3656" lon="11.0074167"><ele>564.0</ele><time>2026-04-25T08:41:00.396Z</time></trkpt><trkpt lat="44.36551" lon="11.00743"><ele>564.0</ele><time>2026-04-25T08:41:01.399Z</time></trkpt><trkpt lat="44.36542" lon="11.0074483"><ele>564.0</ele><time>2026-04-25T08:41:02.401Z</time></trkpt><trkpt lat="44.365325" lon="11.0074567"><ele>560.5</ele><time>2026-04-25T08:41:03.396Z</time></trkpt><trkpt lat="44.3652383" lon="11.0074733"><ele>557.0</ele><time>2026-04-25T08:41:04.4Z</time></trkpt><trkpt lat="44.3651583" lon="11.0074817"><ele>553.5</ele><time>2026-04-25T08:41:05.395Z</time></trkpt><trkpt lat="44.3650833" lon="11.0075017"><ele>550.0</ele><time>2026-04-25T08:41:06.4Z</time></trkpt><trkpt lat="44.3650117" lon="11.0075133"><ele>546.5</ele><time>2026-04-25T08:41:07.399Z</time></trkpt><trkpt lat="44.36494" lon="11.007515"><ele>543.0</ele><time>2026-04-25T08:41:08.397Z</time></trkpt><trkpt lat="44.3648717" lon="11.0075067"><ele>542.1999999999999</ele><time>2026-04-25T08:41:09.4Z</time></trkpt><trkpt lat="44.3648067" lon="11.0074983"><ele>541.4</ele><time>2026-04-25T08:41:10.397Z</time></trkpt><trkpt lat="44.364695" lon="11.0074517"><ele>540.5999999999999</ele><time>2026-04-25T08:41:12.396Z</time></trkpt><trkpt lat="44.3646" lon="11.00739"><ele>539.8</ele><time>2026-04-25T08:41:14.397Z</time></trkpt><trkpt lat="44.36451" lon="11.0073583"><ele>539.0</ele><time>2026-04-25T08:41:16.394Z</time></trkpt><trkpt lat="44.3644333" lon="11.0073433"><ele>537.2857142857143</ele><time>2026-04-25T08:41:18.397Z</time></trkpt><trkpt lat="44.3643767" lon="11.0072833"><ele>535.5714285714286</ele><time>2026-04-25T08:41:20.395Z</time></trkpt><trkpt lat="44.3643667" lon="11.0071717"><ele>533.8571428571429</ele><time>2026-04-25T08:41:22.395Z</time></trkpt><trkpt lat="44.3643883" lon="11.0070883"><ele>532.1428571428571</ele><time>2026-04-25T08:41:24.395Z</time></trkpt><trkpt lat="44.36431" lon="11.0070733"><ele>530.4285714285714</ele><time>2026-04-25T08:41:28.394Z</time></trkpt><trkpt lat="44.3642633" lon="11.0071433"><ele>528.7142857142858</ele><time>2026-04-25T08:41:30.392Z</time></trkpt><trkpt lat="44.36422" lon="11.007215"><ele>527.0</ele><time>2026-04-25T08:41:32.396Z</time></trkpt><trkpt lat="44.3641517" lon="11.0072083"><ele>527.0</ele><time>2026-04-25T08:41:35.396Z</time></trkpt><trkpt lat="44.3641217" lon="11.007095"><ele>527.0</ele><time>2026-04-25T08:41:38.394Z</time></trkpt><trkpt lat="44.3640667" lon="11.007045"><ele>527.0</ele><time>2026-04-25T08:41:41.395Z</time></trkpt><trkpt lat="44.3639867" lon="11.0071133"><ele>527.0</ele><time>2026-04-25T08:41:44.394Z</time></trkpt><trkpt lat="44.363945" lon="11.0071833"><ele>527.0</ele><time>2026-04-25T08:41:46.394Z</time></trkpt><trkpt lat="44.363885" lon="11.007235"><ele>527.0</ele><time>2026-04-25T08:41:48.394Z</time></trkpt><trkpt lat="44.3638" lon="11.00727"><ele>531.2</ele><time>2026-04-25T08:41:50.395Z</time></trkpt><trkpt lat="44.3637183" lon="11.007275"><ele>535.4000000000001</ele><time>2026-04-25T08:41:52.393Z</time></trkpt><trkpt lat="44.3636483" lon="11.00725"><ele>539.5999999999999</ele><time>2026-04-25T08:42:32.393Z</time></trkpt><trkpt lat="44.3635517" lon="11.0072933"><ele>543.8</ele><time>2026-04-25T08:42:34.392Z</time></trkpt><trkpt lat="44.3634417" lon="11.0073433"><ele>548.0</ele><time>2026-04-25T08:42:36.393Z</time></trkpt><trkpt lat="44.3633333" lon="11.0073783"><ele>548.0</ele><time>2026-04-25T08:42:38.396Z</time></trkpt><trkpt lat="44.3632333" lon="11.007415"><ele>548.0</ele><time>2026-04-25T08:42:40.394Z</time></trkpt><trkpt lat="44.3631417" lon="11.007445"><ele>548.0</ele><time>2026-04-25T08:42:42.392Z</time></trkpt><trkpt lat="44.36307" lon="11.0074733"><ele>548.0</ele><time>2026-04-25T08:42:44.393Z</time></trkpt><trkpt lat="44.3629933" lon="11.0075367"><ele>548.0</ele><time>2026-04-25T08:42:46.394Z</time></trkpt><trkpt lat="44.3629083" lon="11.007615"><ele>550.1666666666666</ele><time>2026-04-25T08:42:48.396Z</time></trkpt><trkpt lat="44.3628117" lon="11.007695"><ele>552.3333333333333</ele><time>2026-04-25T08:42:50.395Z</time></trkpt><trkpt lat="44.3627067" lon="11.0077783"><ele>554.5</ele><time>2026-04-25T08:42:52.396Z</time></trkpt><trkpt lat="44.3626467" lon="11.0078217"><ele>556.6666666666666</ele><time>2026-04-25T08:42:53.392Z</time></trkpt><trkpt lat="44.362585" lon="11.007875"><ele>558.8333333333334</ele><time>2026-04-25T08:42:54.393Z</time></trkpt><trkpt lat="44.3625333" lon="11.00795"><ele>561.0</ele><time>2026-04-25T08:42:55.393Z</time></trkpt><trkpt lat="44.3624833" lon="11.0080383"><ele>561.0</ele><time>2026-04-25T08:42:56.393Z</time></trkpt><trkpt lat="44.36244" lon="11.0081283"><ele>561.0</ele><time>2026-04-25T08:42:57.397Z</time></trkpt><trkpt lat="44.3624067" lon="11.0082133"><ele>561.0</ele><time>2026-04-25T08:42:58.392Z</time></trkpt><trkpt lat="44.36238" lon="11.0082967"><ele>561.0</ele><time>2026-04-25T08:42:59.393Z</time></trkpt><trkpt lat="44.3623617" lon="11.0083833"><ele>561.0</ele><time>2026-04-25T08:43:00.397Z</time></trkpt><trkpt lat="44.3623233" lon="11.0085433"><ele>561.0</ele><time>2026-04-25T08:43:02.393Z</time></trkpt><trkpt lat="44.3622883" lon="11.0086183"><ele>559.4</ele><time>2026-04-25T08:43:03.396Z</time></trkpt><trkpt lat="44.36225" lon="11.008695"><ele>557.8</ele><time>2026-04-25T08:43:04.392Z</time></trkpt><trkpt lat="44.362215" lon="11.00877"><ele>556.1999999999999</ele><time>2026-04-25T08:43:05.396Z</time></trkpt><trkpt lat="44.36219" lon="11.0089417"><ele>554.6</ele><time>2026-04-25T08:43:07.395Z</time></trkpt><trkpt lat="44.3621817" lon="11.0091033"><ele>553.0</ele><time>2026-04-25T08:43:09.396Z</time></trkpt><trkpt lat="44.3621783" lon="11.00927"><ele>556.6666666666667</ele><time>2026-04-25T08:43:11.392Z</time></trkpt><trkpt lat="44.362185" lon="11.009405"><ele>560.3333333333334</ele><time>2026-04-25T08:43:13.395Z</time></trkpt><trkpt lat="44.3621083" lon="11.0094883"><ele>564.0</ele><time>2026-04-25T08:43:15.394Z</time></trkpt><trkpt lat="44.362055" lon="11.0095433"><ele>567.6666666666666</ele><time>2026-04-25T08:43:16.395Z</time></trkpt><trkpt lat="44.3620083" lon="11.009615"><ele>571.3333333333333</ele><time>2026-04-25T08:43:17.396Z</time></trkpt><trkpt lat="44.3619883" lon="11.00972"><ele>575.0</ele><time>2026-04-25T08:43:18.395Z</time></trkpt><trkpt lat="44.3619583" lon="11.00987"><ele>575.0</ele><time>2026-04-25T08:43:20.395Z</time></trkpt><trkpt lat="44.3619017" lon="11.009935"><ele>575.0</ele><time>2026-04-25T08:43:22.396Z</time></trkpt><trkpt lat="44.3618167" lon="11.0098967"><ele>575.0</ele><time>2026-04-25T08:43:24.393Z</time></trkpt><trkpt lat="44.361755" lon="11.0097867"><ele>575.0</ele><time>2026-04-25T08:43:26.398Z</time></trkpt><trkpt lat="44.3616683" lon="11.009645"><ele>575.0</ele><time>2026-04-25T08:43:28.396Z</time></trkpt><trkpt lat="44.36161" lon="11.0095467"><ele>575.0</ele><time>2026-04-25T08:43:29.388Z</time></trkpt><trkpt lat="44.3615533" lon="11.0094533"><ele>575.0</ele><time>2026-04-25T08:43:30.396Z</time></trkpt><trkpt lat="44.3615" lon="11.009355"><ele>575.0</ele><time>2026-04-25T08:43:31.393Z</time></trkpt><trkpt lat="44.361455" lon="11.0092517"><ele>575.0</ele><time>2026-04-25T08:43:32.398Z</time></trkpt><trkpt lat="44.361415" lon="11.0091683"><ele>575.0</ele><time>2026-04-25T08:43:33.395Z</time></trkpt><trkpt lat="44.36133" lon="11.00909"><ele>575.0</ele><time>2026-04-25T08:43:35.401Z</time></trkpt><trkpt lat="44.3612517" lon="11.0091517"><ele>579.1666666666666</ele><time>2026-04-25T08:43:37.395Z</time></trkpt><trkpt lat="44.3612033" lon="11.00922"><ele>583.3333333333333</ele><time>2026-04-25T08:43:38.396Z</time></trkpt><trkpt lat="44.36116" lon="11.0092983"><ele>587.5</ele><time>2026-04-25T08:43:39.394Z</time></trkpt><trkpt lat="44.3611167" lon="11.009375"><ele>591.6666666666666</ele><time>2026-04-25T08:43:40.397Z</time></trkpt><trkpt lat="44.3610733" lon="11.0094583"><ele>595.8333333333334</ele><time>2026-04-25T08:43:41.396Z</time></trkpt><trkpt lat="44.36103" lon="11.0095283"><ele>600.0</ele><time>2026-04-25T08:43:42.402Z</time></trkpt><trkpt lat="44.3609433" lon="11.0096117"><ele>600.0</ele><time>2026-04-25T08:43:44.396Z</time></trkpt><trkpt lat="44.3608583" lon="11.0096333"><ele>600.0</ele><time>2026-04-25T08:43:46.393Z</time></trkpt><trkpt lat="44.3607883" lon="11.0095617"><ele>600.0</ele><time>2026-04-25T08:43:48.394Z</time></trkpt><trkpt lat="44.3607283" lon="11.0093933"><ele>600.0</ele><time>2026-04-25T08:43:50.396Z</time></trkpt><trkpt lat="44.360665" lon="11.0092967"><ele>600.0</ele><time>2026-04-25T08:43:51.39Z</time></trkpt><trkpt lat="44.3606117" lon="11.0092"><ele>600.5</ele><time>2026-04-25T08:43:52.393Z</time></trkpt><trkpt lat="44.360555" lon="11.0090983"><ele>601.0</ele><time>2026-04-25T08:43:53.394Z</time></trkpt><trkpt lat="44.3605017" lon="11.0089967"><ele>601.5</ele><time>2026-04-25T08:43:54.395Z</time></trkpt><trkpt lat="44.360455" lon="11.00888"><ele>602.0</ele><time>2026-04-25T08:43:55.395Z</time></trkpt><trkpt lat="44.3604217" lon="11.0087667"><ele>602.5</ele><time>2026-04-25T08:43:56.397Z</time></trkpt><trkpt lat="44.3604117" lon="11.0086533"><ele>603.0</ele><time>2026-04-25T08:43:57.398Z</time></trkpt><trkpt lat="44.3604217" lon="11.00854"><ele>604.1666666666666</ele><time>2026-04-25T08:43:58.4Z</time></trkpt><trkpt lat="44.3604483" lon="11.0084283"><ele>605.3333333333334</ele><time>2026-04-25T08:43:59.397Z</time></trkpt><trkpt lat="44.36048" lon="11.008315"><ele>606.5</ele><time>2026-04-25T08:44:00.397Z</time></trkpt><trkpt lat="44.36051" lon="11.0081933"><ele>607.6666666666667</ele><time>2026-04-25T08:44:01.396Z</time></trkpt><trkpt lat="44.3605283" lon="11.0080717"><ele>608.8333333333334</ele><time>2026-04-25T08:44:02.395Z</time></trkpt><trkpt lat="44.3605333" lon="11.0079567"><ele>610.0</ele><time>2026-04-25T08:44:03.394Z</time></trkpt><trkpt lat="44.3605183" lon="11.0078417"><ele>614.8</ele><time>2026-04-25T08:44:04.396Z</time></trkpt><trkpt lat="44.36048" lon="11.00773"><ele>619.6</ele><time>2026-04-25T08:44:05.399Z</time></trkpt><trkpt lat="44.36043" lon="11.0076183"><ele>624.4</ele><time>2026-04-25T08:44:06.393Z</time></trkpt><trkpt lat="44.3603617" lon="11.0075133"><ele>629.2</ele><time>2026-04-25T08:44:07.394Z</time></trkpt><trkpt lat="44.3602833" lon="11.0074217"><ele>634.0</ele><time>2026-04-25T08:44:08.396Z</time></trkpt><trkpt lat="44.360205" lon="11.0073267"><ele>634.2</ele><time>2026-04-25T08:44:09.395Z</time></trkpt><trkpt lat="44.3601283" lon="11.0072367"><ele>634.4</ele><time>2026-04-25T08:44:10.394Z</time></trkpt><trkpt lat="44.3600417" lon="11.0071383"><ele>634.6</ele><time>2026-04-25T08:44:11.394Z</time></trkpt><trkpt lat="44.3599733" lon="11.0070733"><ele>634.8</ele><time>2026-04-25T08:44:12.392Z</time></trkpt><trkpt lat="44.3598717" lon="11.0070083"><ele>635.0</ele><time>2026-04-25T08:44:14.398Z</time></trkpt><trkpt lat="44.3597667" lon="11.007035"><ele>638.0</ele><time>2026-04-25T08:44:16.393Z</time></trkpt><trkpt lat="44.3596883" lon="11.007185"><ele>641.0</ele><time>2026-04-25T08:44:18.394Z</time></trkpt><trkpt lat="44.3596567" lon="11.0072933"><ele>644.0</ele><time>2026-04-25T08:44:19.389Z</time></trkpt><trkpt lat="44.3596317" lon="11.00741"><ele>647.0</ele><time>2026-04-25T08:44:20.395Z</time></trkpt><trkpt lat="44.3596067" lon="11.00753"><ele>650.0</ele><time>2026-04-25T08:44:21.394Z</time></trkpt><trkpt lat="44.3595817" lon="11.0076483"><ele>650.0</ele><time>2026-04-25T08:44:22.396Z</time></trkpt><trkpt lat="44.3595633" lon="11.007765"><ele>650.0</ele><time>2026-04-25T08:44:23.392Z</time></trkpt><trkpt lat="44.3595433" lon="11.0078667"><ele>650.0</ele><time>2026-04-25T08:44:24.397Z</time></trkpt><trkpt lat="44.3594833" lon="11.007985"><ele>650.0</ele><time>2026-04-25T08:44:26.399Z</time></trkpt><trkpt lat="44.3594" lon="11.007985"><ele>650.0</ele><time>2026-04-25T08:44:28.394Z</time></trkpt><trkpt lat="44.3593117" lon="11.0079133"><ele>650.0</ele><time>2026-04-25T08:44:30.394Z</time></trkpt><trkpt lat="44.3592533" lon="11.0078583"><ele>650.0</ele><time>2026-04-25T08:44:31.391Z</time></trkpt><trkpt lat="44.3592017" lon="11.00779"><ele>650.0</ele><time>2026-04-25T08:44:32.397Z</time></trkpt><trkpt lat="44.3591517" lon="11.00771"><ele>650.0</ele><time>2026-04-25T08:44:33.394Z</time></trkpt><trkpt lat="44.3590967" lon="11.0076167"><ele>650.0</ele><time>2026-04-25T08:44:34.394Z</time></trkpt><trkpt lat="44.3590467" lon="11.0075317"><ele>650.0</ele><time>2026-04-25T08:44:35.395Z</time></trkpt><trkpt lat="44.35899" lon="11.007455"><ele>651.0</ele><time>2026-04-25T08:44:36.392Z</time></trkpt><trkpt lat="44.3589333" lon="11.00739"><ele>652.0</ele><time>2026-04-25T08:44:37.391Z</time></trkpt><trkpt lat="44.3588817" lon="11.0073267"><ele>653.0</ele><time>2026-04-25T08:44:38.393Z</time></trkpt><trkpt lat="44.35883" lon="11.0072683"><ele>654.0</ele><time>2026-04-25T08:44:39.387Z</time></trkpt><trkpt lat="44.3587767" lon="11.0072117"><ele>655.0</ele><time>2026-04-25T08:44:40.388Z</time></trkpt><trkpt lat="44.3587217" lon="11.0071383"><ele>656.0</ele><time>2026-04-25T08:44:41.392Z</time></trkpt><trkpt lat="44.3586567" lon="11.007045"><ele>657.0</ele><time>2026-04-25T08:44:42.39Z</time></trkpt><trkpt lat="44.358595" lon="11.0069517"><ele>659.8333333333334</ele><time>2026-04-25T08:44:43.396Z</time></trkpt><trkpt lat="44.3585133" lon="11.0068833"><ele>662.6666666666666</ele><time>2026-04-25T08:44:44.391Z</time></trkpt><trkpt lat="44.3584367" lon="11.0068117"><ele>665.5</ele><time>2026-04-25T08:44:45.391Z</time></trkpt><trkpt lat="44.3583667" lon="11.0067583"><ele>668.3333333333333</ele><time>2026-04-25T08:44:46.391Z</time></trkpt><trkpt lat="44.358285" lon="11.0067183"><ele>671.1666666666666</ele><time>2026-04-25T08:44:47.392Z</time></trkpt><trkpt lat="44.3582083" lon="11.0066617"><ele>674.0</ele><time>2026-04-25T08:44:48.388Z</time></trkpt><trkpt lat="44.35814" lon="11.0065883"><ele>674.0</ele><time>2026-04-25T08:44:49.392Z</time></trkpt><trkpt lat="44.358085" lon="11.0065067"><ele>674.0</ele><time>2026-04-25T08:44:50.393Z</time></trkpt><trkpt lat="44.358035" lon="11.0064317"><ele>674.0</ele><time>2026-04-25T08:44:51.389Z</time></trkpt><trkpt lat="44.35799" lon="11.0063683"><ele>674.0</ele><time>2026-04-25T08:44:52.391Z</time></trkpt><trkpt lat="44.3578933" lon="11.0063283"><ele>674.0</ele><time>2026-04-25T08:44:54.392Z</time></trkpt><trkpt lat="44.3578183" lon="11.0063817"><ele>674.0</ele><time>2026-04-25T08:44:55.391Z</time></trkpt><trkpt lat="44.3577217" lon="11.0064217"><ele>674.0</ele><time>2026-04-25T08:44:56.392Z</time></trkpt><trkpt lat="44.357615" lon="11.0064467"><ele>674.0</ele><time>2026-04-25T08:44:57.388Z</time></trkpt><trkpt lat="44.357495" lon="11.0064717"><ele>674.0</ele><time>2026-04-25T08:44:58.391Z</time></trkpt><trkpt lat="44.3573783" lon="11.0065233"><ele>674.0</ele><time>2026-04-25T08:44:59.39Z</time></trkpt><trkpt lat="44.3572583" lon="11.0065817"><ele>676.0</ele><time>2026-04-25T08:45:00.393Z</time></trkpt><trkpt lat="44.357135" lon="11.00664"><ele>678.0</ele><time>2026-04-25T08:45:01.392Z</time></trkpt><trkpt lat="44.357015" lon="11.0066933"><ele>680.0</ele><time>2026-04-25T08:45:02.392Z</time></trkpt><trkpt lat="44.3569" lon="11.006735"><ele>682.0</ele><time>2026-04-25T08:45:03.392Z</time></trkpt><trkpt lat="44.3567983" lon="11.0067617"><ele>683.1666666666667</ele><time>2026-04-25T08:45:04.393Z</time></trkpt><trkpt lat="44.356715" lon="11.0067667"><ele>684.3333333333334</ele><time>2026-04-25T08:45:05.393Z</time></trkpt><trkpt lat="44.356605" lon="11.0067733"><ele>685.5</ele><time>2026-04-25T08:45:07.39Z</time></trkpt><trkpt lat="44.3564983" lon="11.006785"><ele>686.6666666666666</ele><time>2026-04-25T08:45:09.392Z</time></trkpt><trkpt lat="44.356435" lon="11.00678"><ele>687.8333333333333</ele><time>2026-04-25T08:45:10.391Z</time></trkpt><trkpt lat="44.35637" lon="11.00679"><ele>689.0</ele><time>2026-04-25T08:45:11.392Z</time></trkpt><trkpt lat="44.3563067" lon="11.006815"><ele>691.5</ele><time>2026-04-25T08:45:12.391Z</time></trkpt><trkpt lat="44.3562467" lon="11.0068517"><ele>694.0</ele><time>2026-04-25T08:45:13.391Z</time></trkpt><trkpt lat="44.35618" lon="11.0068967"><ele>696.5</ele><time>2026-04-25T08:45:14.389Z</time></trkpt><trkpt lat="44.3560983" lon="11.0069233"><ele>699.0</ele><time>2026-04-25T08:45:15.39Z</time></trkpt><trkpt lat="44.3560317" lon="11.0069433"><ele>701.5</ele><time>2026-04-25T08:45:16.392Z</time></trkpt><trkpt lat="44.3559283" lon="11.0069967"><ele>704.0</ele><time>2026-04-25T08:45:18.391Z</time></trkpt><trkpt lat="44.35583" lon="11.0069483"><ele>704.0</ele><time>2026-04-25T08:45:20.392Z</time></trkpt><trkpt lat="44.3557383" lon="11.00693"><ele>704.0</ele><time>2026-04-25T08:45:22.394Z</time></trkpt><trkpt lat="44.3556467" lon="11.00701"><ele>704.0</ele><time>2026-04-25T08:45:24.397Z</time></trkpt><trkpt lat="44.35559" lon="11.0070667"><ele>704.0</ele><time>2026-04-25T08:45:25.393Z</time></trkpt><trkpt lat="44.355525" lon="11.0071017"><ele>704.0</ele><time>2026-04-25T08:45:26.395Z</time></trkpt><trkpt lat="44.3554383" lon="11.0071267"><ele>704.0</ele><time>2026-04-25T08:45:27.392Z</time></trkpt><trkpt lat="44.3553567" lon="11.0071533"><ele>705.6</ele><time>2026-04-25T08:45:28.397Z</time></trkpt><trkpt lat="44.3552733" lon="11.007175"><ele>707.2</ele><time>2026-04-25T08:45:29.393Z</time></trkpt><trkpt lat="44.3551833" lon="11.0071783"><ele>708.8000000000001</ele><time>2026-04-25T08:45:30.394Z</time></trkpt><trkpt lat="44.3550883" lon="11.00719"><ele>710.4000000000001</ele><time>2026-04-25T08:45:31.393Z</time></trkpt><trkpt lat="44.354985" lon="11.0071983"><ele>712.0</ele><time>2026-04-25T08:45:32.395Z</time></trkpt><trkpt lat="44.3548933" lon="11.007205"><ele>712.0</ele><time>2026-04-25T08:45:33.395Z</time></trkpt><trkpt lat="44.3548183" lon="11.007205"><ele>712.0</ele><time>2026-04-25T08:45:34.394Z</time></trkpt><trkpt lat="44.3547267" lon="11.00723"><ele>712.0</ele><time>2026-04-25T08:45:36.394Z</time></trkpt><trkpt lat="44.3546817" lon="11.0073217"><ele>712.0</ele><time>2026-04-25T08:45:38.396Z</time></trkpt><trkpt lat="44.3546417" lon="11.0074433"><ele>712.0</ele><time>2026-04-25T08:45:40.393Z</time></trkpt><trkpt lat="44.3545633" lon="11.00751"><ele>712.0</ele><time>2026-04-25T08:45:42.395Z</time></trkpt><trkpt lat="44.3545017" lon="11.00753"><ele>717.2</ele><time>2026-04-25T08:45:43.394Z</time></trkpt><trkpt lat="44.3544267" lon="11.007545"><ele>722.4000000000001</ele><time>2026-04-25T08:45:44.395Z</time></trkpt><trkpt lat="44.3543433" lon="11.0075617"><ele>727.5999999999999</ele><time>2026-04-25T08:45:45.393Z</time></trkpt><trkpt lat="44.3542433" lon="11.0075883"><ele>732.8</ele><time>2026-04-25T08:45:46.393Z</time></trkpt><trkpt lat="44.3541167" lon="11.0076317"><ele>738.0</ele><time>2026-04-25T08:45:47.396Z</time></trkpt><trkpt lat="44.3539783" lon="11.007695"><ele>740.75</ele><time>2026-04-25T08:45:48.395Z</time></trkpt><trkpt lat="44.3538417" lon="11.00775"><ele>743.5</ele><time>2026-04-25T08:45:49.393Z</time></trkpt><trkpt lat="44.3537183" lon="11.007805"><ele>746.25</ele><time>2026-04-25T08:45:50.395Z</time></trkpt><trkpt lat="44.353615" lon="11.0078517"><ele>749.0</ele><time>2026-04-25T08:45:51.393Z</time></trkpt><trkpt lat="44.3535267" lon="11.0078817"><ele>749.0</ele><time>2026-04-25T08:45:52.394Z</time></trkpt><trkpt lat="44.35344" lon="11.0078833"><ele>749.0</ele><time>2026-04-25T08:45:53.394Z</time></trkpt><trkpt lat="44.353355" lon="11.0078667"><ele>749.0</ele><time>2026-04-25T08:45:54.393Z</time></trkpt><trkpt lat="44.35327" lon="11.0078367"><ele>749.0</ele><time>2026-04-25T08:45:55.392Z</time></trkpt><trkpt lat="44.35318" lon="11.007815"><ele>749.0</ele><time>2026-04-25T08:45:56.392Z</time></trkpt><trkpt lat="44.3530967" lon="11.0078367"><ele>749.0</ele><time>2026-04-25T08:45:57.394Z</time></trkpt><trkpt lat="44.353005" lon="11.0079017"><ele>749.0</ele><time>2026-04-25T08:45:58.394Z</time></trkpt><trkpt lat="44.3529117" lon="11.00801"><ele>749.0</ele><time>2026-04-25T08:45:59.395Z</time></trkpt><trkpt lat="44.3528117" lon="11.0081217"><ele>749.0</ele><time>2026-04-25T08:46:00.391Z</time></trkpt><trkpt lat="44.352705" lon="11.0082333"><ele>749.0</ele><time>2026-04-25T08:46:01.394Z</time></trkpt><trkpt lat="44.3526017" lon="11.0083417"><ele>752.0</ele><time>2026-04-25T08:46:02.393Z</time></trkpt><trkpt lat="44.3525033" lon="11.00843"><ele>755.0</ele><time>2026-04-25T08:46:03.394Z</time></trkpt><trkpt lat="44.3524033" lon="11.0084883"><ele>758.0</ele><time>2026-04-25T08:46:04.393Z</time></trkpt><trkpt lat="44.352295" lon="11.0085217"><ele>761.0</ele><time>2026-04-25T08:46:05.393Z</time></trkpt><trkpt lat="44.35217" lon="11.0085333"><ele>763.0</ele><time>2026-04-25T08:46:06.393Z</time></trkpt><trkpt lat="44.35204" lon="11.0085533"><ele>765.0</ele><time>2026-04-25T08:46:07.392Z</time></trkpt><trkpt lat="44.3519067" lon="11.0085933"><ele>767.0</ele><time>2026-04-25T08:46:08.397Z</time></trkpt><trkpt lat="44.3517733" lon="11.008655"><ele>769.0</ele><time>2026-04-25T08:46:09.395Z</time></trkpt><trkpt lat="44.351645" lon="11.0087333"><ele>769.0</ele><time>2026-04-25T08:46:10.397Z</time></trkpt><trkpt lat="44.3515083" lon="11.0088133"><ele>769.0</ele><time>2026-04-25T08:46:11.392Z</time></trkpt><trkpt lat="44.3513617" lon="11.0088867"><ele>769.0</ele><time>2026-04-25T08:46:12.397Z</time></trkpt><trkpt lat="44.3512067" lon="11.00895"><ele>770.3333333333333</ele><time>2026-04-25T08:46:13.39Z</time></trkpt><trkpt lat="44.3510467" lon="11.00902"><ele>771.6666666666667</ele><time>2026-04-25T08:46:14.394Z</time></trkpt><trkpt lat="44.350875" lon="11.0090933"><ele>773.0</ele><time>2026-04-25T08:46:15.392Z</time></trkpt><trkpt lat="44.35072" lon="11.00917"><ele>775.6666666666667</ele><time>2026-04-25T08:46:16.396Z</time></trkpt><trkpt lat="44.3505717" lon="11.0092317"><ele>778.3333333333333</ele><time>2026-04-25T08:46:17.397Z</time></trkpt><trkpt lat="44.3504183" lon="11.0092817"><ele>781.0</ele><time>2026-04-25T08:46:18.395Z</time></trkpt><trkpt lat="44.3502683" lon="11.0093183"><ele>781.75</ele><time>2026-04-25T08:46:19.393Z</time></trkpt><trkpt lat="44.3501233" lon="11.0093383"><ele>782.5</ele><time>2026-04-25T08:46:20.394Z</time></trkpt><trkpt lat="44.3499783" lon="11.0093483"><ele>783.25</ele><time>2026-04-25T08:46:21.394Z</time></trkpt><trkpt lat="44.3498267" lon="11.0093617"><ele>784.0</ele><time>2026-04-25T08:46:22.392Z</time></trkpt><trkpt lat="44.349685" lon="11.00939"><ele>785.5</ele><time>2026-04-25T08:46:23.396Z</time></trkpt><trkpt lat="44.34955" lon="11.0094183"><ele>787.0</ele><time>2026-04-25T08:46:24.392Z</time></trkpt><trkpt lat="44.3494067" lon="11.009445"><ele>788.5</ele><time>2026-04-25T08:46:25.395Z</time></trkpt><trkpt lat="44.34927" lon="11.0094683"><ele>790.0</ele><time>2026-04-25T08:46:26.394Z</time></trkpt><trkpt lat="44.3491417" lon="11.0094933"><ele>790.0</ele><time>2026-04-25T08:46:27.395Z</time></trkpt><trkpt lat="44.34901" lon="11.0095233"><ele>790.0</ele><time>2026-04-25T08:46:28.395Z</time></trkpt><trkpt lat="44.348875" lon="11.0095567"><ele>790.0</ele><time>2026-04-25T08:46:29.395Z</time></trkpt><trkpt lat="44.3487483" lon="11.009585"><ele>790.0</ele><time>2026-04-25T08:46:30.395Z</time></trkpt><trkpt lat="44.3486217" lon="11.0096133"><ele>792.25</ele><time>2026-04-25T08:46:31.392Z</time></trkpt><trkpt lat="44.3484883" lon="11.0096383"><ele>794.5</ele><time>2026-04-25T08:46:32.397Z</time></trkpt><trkpt lat="44.34835" lon="11.00966"><ele>796.75</ele><time>2026-04-25T08:46:33.393Z</time></trkpt><trkpt lat="44.3482217" lon="11.0096817"><ele>799.0</ele><time>2026-04-25T08:46:34.392Z</time></trkpt><trkpt lat="44.3480933" lon="11.0097133"><ele>799.75</ele><time>2026-04-25T08:46:35.397Z</time></trkpt><trkpt lat="44.34797" lon="11.0097717"><ele>800.5</ele><time>2026-04-25T08:46:36.394Z</time></trkpt><trkpt lat="44.3478567" lon="11.00987"><ele>801.25</ele><time>2026-04-25T08:46:37.397Z</time></trkpt><trkpt lat="44.3477533" lon="11.0099883"><ele>802.0</ele><time>2026-04-25T08:46:38.389Z</time></trkpt><trkpt lat="44.3476567" lon="11.0101033"><ele>803.0</ele><time>2026-04-25T08:46:39.397Z</time></trkpt><trkpt lat="44.347555" lon="11.0102017"><ele>804.0</ele><time>2026-04-25T08:46:40.392Z</time></trkpt><trkpt lat="44.3474583" lon="11.0102967"><ele>805.0</ele><time>2026-04-25T08:46:41.393Z</time></trkpt><trkpt lat="44.3473883" lon="11.0103683"><ele>806.0</ele><time>2026-04-25T08:46:42.395Z</time></trkpt><trkpt lat="44.34731" lon="11.010445"><ele>807.0</ele><time>2026-04-25T08:46:44.393Z</time></trkpt><trkpt lat="44.347265" lon="11.0105083"><ele>806.8333333333334</ele><time>2026-04-25T08:46:48.39Z</time></trkpt><trkpt lat="44.34718" lon="11.0105717"><ele>806.6666666666667</ele><time>2026-04-25T08:46:56.396Z</time></trkpt><trkpt lat="44.3471267" lon="11.0106417"><ele>806.5</ele><time>2026-04-25T08:46:58.394Z</time></trkpt><trkpt lat="44.3470367" lon="11.0107417"><ele>806.3333333333334</ele><time>2026-04-25T08:47:00.395Z</time></trkpt><trkpt lat="44.34698" lon="11.01081"><ele>806.1666666666667</ele><time>2026-04-25T08:47:01.393Z</time></trkpt><trkpt lat="44.3469167" lon="11.010885"><ele>806.0</ele><time>2026-04-25T08:47:02.393Z</time></trkpt><trkpt lat="44.3468483" lon="11.010955"><ele>807.0</ele><time>2026-04-25T08:47:03.392Z</time></trkpt><trkpt lat="44.3467733" lon="11.011025"><ele>808.0</ele><time>2026-04-25T08:47:04.391Z</time></trkpt><trkpt lat="44.3466917" lon="11.0110983"><ele>809.0</ele><time>2026-04-25T08:47:05.393Z</time></trkpt><trkpt lat="44.3466033" lon="11.01117"><ele>810.0</ele><time>2026-04-25T08:47:06.396Z</time></trkpt><trkpt lat="44.3465067" lon="11.0112367"><ele>811.0</ele><time>2026-04-25T08:47:07.395Z</time></trkpt><trkpt lat="44.3464067" lon="11.01129"><ele>811.4</ele><time>2026-04-25T08:47:08.395Z</time></trkpt><trkpt lat="44.3463117" lon="11.0113383"><ele>811.8</ele><time>2026-04-25T08:47:09.396Z</time></trkpt><trkpt lat="44.346225" lon="11.0113967"><ele>812.1999999999999</ele><time>2026-04-25T08:47:10.396Z</time></trkpt><trkpt lat="44.3461483" lon="11.0114717"><ele>812.5999999999999</ele><time>2026-04-25T08:47:11.393Z</time></trkpt><trkpt lat="44.3460883" lon="11.0115783"><ele>813.0</ele><time>2026-04-25T08:47:12.395Z</time></trkpt><trkpt lat="44.3460467" lon="11.0117217"><ele>813.0</ele><time>2026-04-25T08:47:13.393Z</time></trkpt><trkpt lat="44.3460083" lon="11.0118833"><ele>813.0</ele><time>2026-04-25T08:47:14.394Z</time></trkpt><trkpt lat="44.3459667" lon="11.0120617"><ele>813.0</ele><time>2026-04-25T08:47:15.394Z</time></trkpt><trkpt lat="44.34592" lon="11.01224"><ele>813.0</ele><time>2026-04-25T08:47:16.395Z</time></trkpt><trkpt lat="44.3458717" lon="11.012405"><ele>814.5</ele><time>2026-04-25T08:47:17.4Z</time></trkpt><trkpt lat="44.3458267" lon="11.012575"><ele>816.0</ele><time>2026-04-25T08:47:18.397Z</time></trkpt><trkpt lat="44.3457833" lon="11.0127517"><ele>817.5</ele><time>2026-04-25T08:47:19.393Z</time></trkpt><trkpt lat="44.345745" lon="11.012925"><ele>819.0</ele><time>2026-04-25T08:47:20.401Z</time></trkpt><trkpt lat="44.3457233" lon="11.0130967"><ele>819.0</ele><time>2026-04-25T08:47:21.396Z</time></trkpt><trkpt lat="44.3457217" lon="11.013275"><ele>819.0</ele><time>2026-04-25T08:47:22.397Z</time></trkpt><trkpt lat="44.34574" lon="11.0134617"><ele>819.0</ele><time>2026-04-25T08:47:23.393Z</time></trkpt><trkpt lat="44.3457717" lon="11.0136583"><ele>819.0</ele><time>2026-04-25T08:47:24.398Z</time></trkpt><trkpt lat="44.3458083" lon="11.0138467"><ele>819.8000000000001</ele><time>2026-04-25T08:47:25.395Z</time></trkpt><trkpt lat="44.345845" lon="11.0140083"><ele>820.6</ele><time>2026-04-25T08:47:26.393Z</time></trkpt><trkpt lat="44.3458617" lon="11.01415"><ele>821.4</ele><time>2026-04-25T08:47:27.397Z</time></trkpt><trkpt lat="44.345845" lon="11.0142767"><ele>822.2</ele><time>2026-04-25T08:47:28.39Z</time></trkpt><trkpt lat="44.3457983" lon="11.0143867"><ele>823.0</ele><time>2026-04-25T08:47:29.392Z</time></trkpt><trkpt lat="44.3457233" lon="11.014485"><ele>823.75</ele><time>2026-04-25T08:47:30.394Z</time></trkpt><trkpt lat="44.3456267" lon="11.0145783"><ele>824.5</ele><time>2026-04-25T08:47:31.394Z</time></trkpt><trkpt lat="44.3455317" lon="11.01467"><ele>825.25</ele><time>2026-04-25T08:47:32.394Z</time></trkpt><trkpt lat="44.3454317" lon="11.0147567"><ele>826.0</ele><time>2026-04-25T08:47:33.393Z</time></trkpt><trkpt lat="44.345325" lon="11.0148317"><ele>826.0</ele><time>2026-04-25T08:47:34.394Z</time></trkpt><trkpt lat="44.3452167" lon="11.0148933"><ele>826.0</ele><time>2026-04-25T08:47:35.394Z</time></trkpt><trkpt lat="44.345115" lon="11.0149433"><ele>826.0</ele><time>2026-04-25T08:47:36.392Z</time></trkpt><trkpt lat="44.3450217" lon="11.01499"><ele>826.0</ele><time>2026-04-25T08:47:37.398Z</time></trkpt><trkpt lat="44.3449367" lon="11.0150633"><ele>826.0</ele><time>2026-04-25T08:47:38.4Z</time></trkpt><trkpt lat="44.34487" lon="11.0151667"><ele>826.0</ele><time>2026-04-25T08:47:39.394Z</time></trkpt><trkpt lat="44.344815" lon="11.0152983"><ele>826.0</ele><time>2026-04-25T08:47:40.392Z</time></trkpt><trkpt lat="44.3447617" lon="11.0154533"><ele>826.0</ele><time>2026-04-25T08:47:41.393Z</time></trkpt><trkpt lat="44.344695" lon="11.0156083"><ele>826.0</ele><time>2026-04-25T08:47:42.395Z</time></trkpt><trkpt lat="44.34461" lon="11.015745"><ele>827.0</ele><time>2026-04-25T08:47:43.396Z</time></trkpt><trkpt lat="44.3445083" lon="11.015865"><ele>828.0</ele><time>2026-04-25T08:47:44.396Z</time></trkpt><trkpt lat="44.3444017" lon="11.015985"><ele>829.0</ele><time>2026-04-25T08:47:45.395Z</time></trkpt><trkpt lat="44.3443017" lon="11.0161"><ele>830.0</ele><time>2026-04-25T08:47:46.395Z</time></trkpt><trkpt lat="44.344215" lon="11.0162233"><ele>830.0</ele><time>2026-04-25T08:47:47.394Z</time></trkpt><trkpt lat="44.3441367" lon="11.0163717"><ele>830.0</ele><time>2026-04-25T08:47:48.397Z</time></trkpt><trkpt lat="44.3440567" lon="11.0165367"><ele>830.0</ele><time>2026-04-25T08:47:49.398Z</time></trkpt><trkpt lat="44.343985" lon="11.0167117"><ele>830.0</ele><time>2026-04-25T08:47:50.393Z</time></trkpt><trkpt lat="44.3439117" lon="11.016895"><ele>827.6666666666667</ele><time>2026-04-25T08:47:51.397Z</time></trkpt><trkpt lat="44.343835" lon="11.0170767"><ele>825.3333333333333</ele><time>2026-04-25T08:47:52.397Z</time></trkpt><trkpt lat="44.3437533" lon="11.017265"><ele>823.0</ele><time>2026-04-25T08:47:53.394Z</time></trkpt><trkpt lat="44.343675" lon="11.0174567"><ele>824.0</ele><time>2026-04-25T08:47:54.392Z</time></trkpt><trkpt lat="44.3436" lon="11.0176517"><ele>825.0</ele><time>2026-04-25T08:47:55.395Z</time></trkpt><trkpt lat="44.3435333" lon="11.0178483"><ele>826.0</ele><time>2026-04-25T08:47:56.398Z</time></trkpt><trkpt lat="44.34347" lon="11.01804"><ele>826.0</ele><time>2026-04-25T08:47:57.393Z</time></trkpt><trkpt lat="44.3434017" lon="11.018225"><ele>826.0</ele><time>2026-04-25T08:47:58.396Z</time></trkpt><trkpt lat="44.343325" lon="11.0183967"><ele>826.0</ele><time>2026-04-25T08:47:59.393Z</time></trkpt><trkpt lat="44.3432283" lon="11.0185517"><ele>826.0</ele><time>2026-04-25T08:48:00.394Z</time></trkpt><trkpt lat="44.3431167" lon="11.018685"><ele>824.25</ele><time>2026-04-25T08:48:01.395Z</time></trkpt><trkpt lat="44.3430017" lon="11.0187983"><ele>822.5</ele><time>2026-04-25T08:48:02.394Z</time></trkpt><trkpt lat="44.3429" lon="11.0189117"><ele>820.75</ele><time>2026-04-25T08:48:03.396Z</time></trkpt><trkpt lat="44.3428133" lon="11.01902"><ele>819.0</ele><time>2026-04-25T08:48:04.393Z</time></trkpt><trkpt lat="44.3427267" lon="11.019125"><ele>819.75</ele><time>2026-04-25T08:48:05.399Z</time></trkpt><trkpt lat="44.3426367" lon="11.019225"><ele>820.5</ele><time>2026-04-25T08:48:06.397Z</time></trkpt><trkpt lat="44.34253" lon="11.0193033"><ele>821.25</ele><time>2026-04-25T08:48:07.397Z</time></trkpt><trkpt lat="44.3424117" lon="11.0193617"><ele>822.0</ele><time>2026-04-25T08:48:08.397Z</time></trkpt><trkpt lat="44.3422833" lon="11.0193967"><ele>823.75</ele><time>2026-04-25T08:48:09.395Z</time></trkpt><trkpt lat="44.3421383" lon="11.0194083"><ele>825.5</ele><time>2026-04-25T08:48:10.393Z</time></trkpt><trkpt lat="44.3420067" lon="11.0194133"><ele>827.25</ele><time>2026-04-25T08:48:11.392Z</time></trkpt><trkpt lat="44.3418917" lon="11.0194183"><ele>829.0</ele><time>2026-04-25T08:48:12.398Z</time></trkpt><trkpt lat="44.3418033" lon="11.019415"><ele>829.0</ele><time>2026-04-25T08:48:13.397Z</time></trkpt><trkpt lat="44.3417283" lon="11.0193883"><ele>829.0</ele><time>2026-04-25T08:48:14.4Z</time></trkpt><trkpt lat="44.3416567" lon="11.0192617"><ele>829.0</ele><time>2026-04-25T08:48:16.397Z</time></trkpt><trkpt lat="44.3416317" lon="11.0190783"><ele>829.0</ele><time>2026-04-25T08:48:18.396Z</time></trkpt><trkpt lat="44.3416283" lon="11.01896"><ele>829.0</ele><time>2026-04-25T08:48:19.397Z</time></trkpt><trkpt lat="44.3416267" lon="11.01883"><ele>828.1666666666666</ele><time>2026-04-25T08:48:20.401Z</time></trkpt><trkpt lat="44.3416267" lon="11.0187033"><ele>827.3333333333333</ele><time>2026-04-25T08:48:21.402Z</time></trkpt><trkpt lat="44.3416267" lon="11.018585"><ele>826.5</ele><time>2026-04-25T08:48:22.394Z</time></trkpt><trkpt lat="44.3416217" lon="11.0184767"><ele>825.6666666666667</ele><time>2026-04-25T08:48:23.393Z</time></trkpt><trkpt lat="44.3416167" lon="11.0183733"><ele>824.8333333333334</ele><time>2026-04-25T08:48:24.393Z</time></trkpt><trkpt lat="44.34162" lon="11.0182667"><ele>824.0</ele><time>2026-04-25T08:48:25.393Z</time></trkpt><trkpt lat="44.34162" lon="11.0181633"><ele>824.0000000000001</ele><time>2026-04-25T08:48:26.395Z</time></trkpt><trkpt lat="44.34162" lon="11.0180617"><ele>824.0</ele><time>2026-04-25T08:48:27.395Z</time></trkpt><trkpt lat="44.3416133" lon="11.017955"><ele>824.0</ele><time>2026-04-25T08:48:28.397Z</time></trkpt><trkpt lat="44.34161" lon="11.0178417"><ele>824.0</ele><time>2026-04-25T08:48:29.393Z</time></trkpt><trkpt lat="44.3415967" lon="11.0177383"><ele>824.0000000000001</ele><time>2026-04-25T08:48:30.391Z</time></trkpt><trkpt lat="44.34158" lon="11.0176533"><ele>824.0</ele><time>2026-04-25T08:48:31.399Z</time></trkpt><trkpt lat="44.34155" lon="11.0175367"><ele>824.0000000000001</ele><time>2026-04-25T08:48:33.394Z</time></trkpt><trkpt lat="44.3414833" lon="11.0174867"><ele>824.0</ele><time>2026-04-25T08:48:37.393Z</time></trkpt><trkpt lat="44.3414768" lon="11.0173787"><ele>824.0</ele><time>2026-04-25T09:04:21.395Z</time></trkpt><trkpt lat="44.3414332" lon="11.0172684"><ele>824.0</ele><time>2026-04-25T09:04:24.399Z</time></trkpt><trkpt lat="44.3413633" lon="11.0172"><ele>824.0000000000001</ele><time>2026-04-25T09:04:26.394Z</time></trkpt><trkpt lat="44.3412817" lon="11.0171383"><ele>824.0</ele><time>2026-04-25T09:04:29.396Z</time></trkpt><trkpt lat="44.3412083" lon="11.01709"><ele>821.4000000000001</ele><time>2026-04-25T09:04:31.392Z</time></trkpt><trkpt lat="44.3411" lon="11.0170133"><ele>818.8</ele><time>2026-04-25T09:04:33.391Z</time></trkpt><trkpt lat="44.3410183" lon="11.0169583"><ele>816.2</ele><time>2026-04-25T09:04:34.392Z</time></trkpt><trkpt lat="44.34093" lon="11.0168933"><ele>813.5999999999999</ele><time>2026-04-25T09:04:35.391Z</time></trkpt><trkpt lat="44.3408367" lon="11.0168267"><ele>811.0</ele><time>2026-04-25T09:04:36.393Z</time></trkpt><trkpt lat="44.3407367" lon="11.0167567"><ele>811.0</ele><time>2026-04-25T09:04:37.389Z</time></trkpt><trkpt lat="44.3406333" lon="11.016685"><ele>811.0</ele><time>2026-04-25T09:04:38.391Z</time></trkpt><trkpt lat="44.3405283" lon="11.016615"><ele>811.0</ele><time>2026-04-25T09:04:39.393Z</time></trkpt><trkpt lat="44.3404283" lon="11.01655"><ele>811.0</ele><time>2026-04-25T09:04:40.391Z</time></trkpt><trkpt lat="44.340335" lon="11.01649"><ele>811.0</ele><time>2026-04-25T09:04:41.393Z</time></trkpt><trkpt lat="44.3402467" lon="11.0164483"><ele>810.25</ele><time>2026-04-25T09:04:42.389Z</time></trkpt><trkpt lat="44.3401467" lon="11.0164267"><ele>809.5</ele><time>2026-04-25T09:04:43.393Z</time></trkpt><trkpt lat="44.340025" lon="11.0164083"><ele>808.75</ele><time>2026-04-25T09:04:44.393Z</time></trkpt><trkpt lat="44.3398983" lon="11.016385"><ele>808.0</ele><time>2026-04-25T09:04:45.394Z</time></trkpt><trkpt lat="44.3397683" lon="11.0163583"><ele>805.75</ele><time>2026-04-25T09:04:46.39Z</time></trkpt><trkpt lat="44.3396417" lon="11.01633"><ele>803.5</ele><time>2026-04-25T09:04:47.391Z</time></trkpt><trkpt lat="44.3395183" lon="11.0162983"><ele>801.25</ele><time>2026-04-25T09:04:48.393Z</time></trkpt><trkpt lat="44.3394" lon="11.0162633"><ele>799.0</ele><time>2026-04-25T09:04:49.396Z</time></trkpt><trkpt lat="44.33929" lon="11.016225"><ele>799.0</ele><time>2026-04-25T09:04:50.396Z</time></trkpt><trkpt lat="44.3391833" lon="11.0161667"><ele>799.0</ele><time>2026-04-25T09:04:51.393Z</time></trkpt><trkpt lat="44.339075" lon="11.0160917"><ele>799.0</ele><time>2026-04-25T09:04:52.394Z</time></trkpt><trkpt lat="44.33897" lon="11.016"><ele>799.0</ele><time>2026-04-25T09:04:53.392Z</time></trkpt><trkpt lat="44.3388717" lon="11.015895"><ele>796.0</ele><time>2026-04-25T09:04:54.392Z</time></trkpt><trkpt lat="44.338775" lon="11.0157883"><ele>793.0</ele><time>2026-04-25T09:04:55.397Z</time></trkpt><trkpt lat="44.3386833" lon="11.01569"><ele>790.0</ele><time>2026-04-25T09:04:56.394Z</time></trkpt><trkpt lat="44.3385917" lon="11.0155917"><ele>787.0</ele><time>2026-04-25T09:04:57.395Z</time></trkpt><trkpt lat="44.338505" lon="11.0154767"><ele>787.0</ele><time>2026-04-25T09:04:58.402Z</time></trkpt><trkpt lat="44.3384183" lon="11.01534"><ele>787.0</ele><time>2026-04-25T09:04:59.394Z</time></trkpt><trkpt lat="44.33834" lon="11.015175"><ele>787.0</ele><time>2026-04-25T09:05:00.391Z</time></trkpt><trkpt lat="44.3382667" lon="11.0150117"><ele>787.0</ele><time>2026-04-25T09:05:01.391Z</time></trkpt><trkpt lat="44.3381917" lon="11.014855"><ele>786.5</ele><time>2026-04-25T09:05:02.393Z</time></trkpt><trkpt lat="44.3381167" lon="11.0147033"><ele>786.0</ele><time>2026-04-25T09:05:03.391Z</time></trkpt><trkpt lat="44.3380333" lon="11.0145617"><ele>785.5</ele><time>2026-04-25T09:05:04.393Z</time></trkpt><trkpt lat="44.337955" lon="11.014415"><ele>785.0</ele><time>2026-04-25T09:05:05.389Z</time></trkpt><trkpt lat="44.3378883" lon="11.0142667"><ele>780.25</ele><time>2026-04-25T09:05:06.391Z</time></trkpt><trkpt lat="44.33783" lon="11.0141133"><ele>775.5</ele><time>2026-04-25T09:05:07.393Z</time></trkpt><trkpt lat="44.3377767" lon="11.0139567"><ele>770.75</ele><time>2026-04-25T09:05:08.394Z</time></trkpt><trkpt lat="44.3377183" lon="11.01378"><ele>766.0</ele><time>2026-04-25T09:05:09.391Z</time></trkpt><trkpt lat="44.3376417" lon="11.0136083"><ele>766.0</ele><time>2026-04-25T09:05:10.392Z</time></trkpt><trkpt lat="44.3375517" lon="11.0134383"><ele>766.0</ele><time>2026-04-25T09:05:11.389Z</time></trkpt><trkpt lat="44.3374633" lon="11.0132833"><ele>766.0</ele><time>2026-04-25T09:05:12.392Z</time></trkpt><trkpt lat="44.3373667" lon="11.013135"><ele>766.0</ele><time>2026-04-25T09:05:13.393Z</time></trkpt><trkpt lat="44.33727" lon="11.0130017"><ele>766.0</ele><time>2026-04-25T09:05:14.392Z</time></trkpt><trkpt lat="44.3371767" lon="11.0128817"><ele>766.0</ele><time>2026-04-25T09:05:15.397Z</time></trkpt><trkpt lat="44.3370783" lon="11.0127667"><ele>766.0</ele><time>2026-04-25T09:05:16.389Z</time></trkpt><trkpt lat="44.3369817" lon="11.0126567"><ele>766.0</ele><time>2026-04-25T09:05:17.395Z</time></trkpt><trkpt lat="44.3368767" lon="11.0125483"><ele>767.5</ele><time>2026-04-25T09:05:18.395Z</time></trkpt><trkpt lat="44.3367717" lon="11.0124433"><ele>769.0</ele><time>2026-04-25T09:05:19.396Z</time></trkpt><trkpt lat="44.3366717" lon="11.0123483"><ele>770.5</ele><time>2026-04-25T09:05:20.396Z</time></trkpt><trkpt lat="44.336575" lon="11.01225"><ele>772.0</ele><time>2026-04-25T09:05:21.401Z</time></trkpt><trkpt lat="44.3364817" lon="11.0121533"><ele>771.5</ele><time>2026-04-25T09:05:22.394Z</time></trkpt><trkpt lat="44.336385" lon="11.0120617"><ele>771.0</ele><time>2026-04-25T09:05:23.393Z</time></trkpt><trkpt lat="44.3362817" lon="11.01198"><ele>770.5</ele><time>2026-04-25T09:05:24.391Z</time></trkpt><trkpt lat="44.3361683" lon="11.0119117"><ele>770.0</ele><time>2026-04-25T09:05:25.391Z</time></trkpt><trkpt lat="44.3360433" lon="11.01185"><ele>770.0</ele><time>2026-04-25T09:05:26.392Z</time></trkpt><trkpt lat="44.3359083" lon="11.0117933"><ele>770.0</ele><time>2026-04-25T09:05:27.39Z</time></trkpt><trkpt lat="44.33578" lon="11.011745"><ele>770.0</ele><time>2026-04-25T09:05:28.391Z</time></trkpt><trkpt lat="44.335665" lon="11.01171"><ele>770.0</ele><time>2026-04-25T09:05:29.393Z</time></trkpt><trkpt lat="44.3355683" lon="11.01169"><ele>769.6</ele><time>2026-04-25T09:05:30.392Z</time></trkpt><trkpt lat="44.33548" lon="11.0116767"><ele>769.2</ele><time>2026-04-25T09:05:31.392Z</time></trkpt><trkpt lat="44.33541" lon="11.0116717"><ele>768.8</ele><time>2026-04-25T09:05:32.39Z</time></trkpt><trkpt lat="44.3353267" lon="11.01167"><ele>768.4</ele><time>2026-04-25T09:05:34.393Z</time></trkpt><trkpt lat="44.335245" lon="11.0117317"><ele>768.0</ele><time>2026-04-25T09:05:37.388Z</time></trkpt><trkpt lat="44.33512" lon="11.01183"><ele>768.0</ele><time>2026-04-25T09:05:39.391Z</time></trkpt><trkpt lat="44.3350317" lon="11.0118867"><ele>768.0</ele><time>2026-04-25T09:05:40.392Z</time></trkpt><trkpt lat="44.3349333" lon="11.0119517"><ele>768.0</ele><time>2026-04-25T09:05:41.394Z</time></trkpt><trkpt lat="44.3348333" lon="11.0120267"><ele>768.0</ele><time>2026-04-25T09:05:42.398Z</time></trkpt><trkpt lat="44.33473" lon="11.0121033"><ele>768.0</ele><time>2026-04-25T09:05:43.392Z</time></trkpt><trkpt lat="44.3346233" lon="11.0121733"><ele>768.75</ele><time>2026-04-25T09:05:44.392Z</time></trkpt><trkpt lat="44.3345217" lon="11.0122367"><ele>769.5</ele><time>2026-04-25T09:05:45.392Z</time></trkpt><trkpt lat="44.334425" lon="11.0123117"><ele>770.25</ele><time>2026-04-25T09:05:46.39Z</time></trkpt><trkpt lat="44.3343333" lon="11.0124067"><ele>771.0</ele><time>2026-04-25T09:05:47.393Z</time></trkpt><trkpt lat="44.3342417" lon="11.0125217"><ele>771.0</ele><time>2026-04-25T09:05:48.393Z</time></trkpt><trkpt lat="44.3341467" lon="11.0126467"><ele>771.0</ele><time>2026-04-25T09:05:49.391Z</time></trkpt><trkpt lat="44.3340583" lon="11.0127667"><ele>771.0</ele><time>2026-04-25T09:05:50.392Z</time></trkpt><trkpt lat="44.3339683" lon="11.01287"><ele>771.0</ele><time>2026-04-25T09:05:51.391Z</time></trkpt><trkpt lat="44.3338667" lon="11.01295"><ele>771.25</ele><time>2026-04-25T09:05:52.394Z</time></trkpt><trkpt lat="44.3337517" lon="11.0130033"><ele>771.5</ele><time>2026-04-25T09:05:53.391Z</time></trkpt><trkpt lat="44.3336317" lon="11.0130283"><ele>771.75</ele><time>2026-04-25T09:05:54.391Z</time></trkpt><trkpt lat="44.3335083" lon="11.013035"><ele>772.0</ele><time>2026-04-25T09:05:55.391Z</time></trkpt><trkpt lat="44.3333833" lon="11.013025"><ele>772.0</ele><time>2026-04-25T09:05:56.398Z</time></trkpt><trkpt lat="44.3332617" lon="11.0130017"><ele>772.0</ele><time>2026-04-25T09:05:57.398Z</time></trkpt><trkpt lat="44.333135" lon="11.012965"><ele>772.0</ele><time>2026-04-25T09:05:58.393Z</time></trkpt><trkpt lat="44.333015" lon="11.0129133"><ele>772.0</ele><time>2026-04-25T09:05:59.387Z</time></trkpt><trkpt lat="44.3329" lon="11.0128583"><ele>773.5</ele><time>2026-04-25T09:06:00.389Z</time></trkpt><trkpt lat="44.332785" lon="11.0127983"><ele>775.0</ele><time>2026-04-25T09:06:01.391Z</time></trkpt><trkpt lat="44.3326683" lon="11.0127333"><ele>776.5</ele><time>2026-04-25T09:06:02.393Z</time></trkpt><trkpt lat="44.332545" lon="11.0126767"><ele>778.0</ele><time>2026-04-25T09:06:03.39Z</time></trkpt><trkpt lat="44.3324183" lon="11.0126233"><ele>778.0</ele><time>2026-04-25T09:06:04.391Z</time></trkpt><trkpt lat="44.3322883" lon="11.012565"><ele>778.0</ele><time>2026-04-25T09:06:05.393Z</time></trkpt><trkpt lat="44.3321533" lon="11.01251"><ele>778.0</ele><time>2026-04-25T09:06:06.388Z</time></trkpt><trkpt lat="44.3320283" lon="11.0124633"><ele>778.0</ele><time>2026-04-25T09:06:07.39Z</time></trkpt><trkpt lat="44.3319167" lon="11.012435"><ele>778.4</ele><time>2026-04-25T09:06:08.391Z</time></trkpt><trkpt lat="44.3318117" lon="11.01242"><ele>778.8</ele><time>2026-04-25T09:06:09.387Z</time></trkpt><trkpt lat="44.3317067" lon="11.0124283"><ele>779.2</ele><time>2026-04-25T09:06:10.393Z</time></trkpt><trkpt lat="44.3315967" lon="11.0124567"><ele>779.6</ele><time>2026-04-25T09:06:11.391Z</time></trkpt><trkpt lat="44.3314867" lon="11.0124833"><ele>780.0</ele><time>2026-04-25T09:06:12.396Z</time></trkpt><trkpt lat="44.3313733" lon="11.0124917"><ele>786.75</ele><time>2026-04-25T09:06:13.396Z</time></trkpt><trkpt lat="44.331255" lon="11.0124667"><ele>793.5</ele><time>2026-04-25T09:06:14.392Z</time></trkpt><trkpt lat="44.3311317" lon="11.0124317"><ele>800.25</ele><time>2026-04-25T09:06:15.392Z</time></trkpt><trkpt lat="44.3310167" lon="11.0123883"><ele>807.0</ele><time>2026-04-25T09:06:16.389Z</time></trkpt><trkpt lat="44.3309167" lon="11.0123783"><ele>807.0</ele><time>2026-04-25T09:06:17.391Z</time></trkpt><trkpt lat="44.3308283" lon="11.0124033"><ele>807.0</ele><time>2026-04-25T09:06:18.394Z</time></trkpt><trkpt lat="44.330755" lon="11.012435"><ele>807.0</ele><time>2026-04-25T09:06:19.393Z</time></trkpt><trkpt lat="44.3306933" lon="11.0124583"><ele>807.0</ele><time>2026-04-25T09:06:20.388Z</time></trkpt><trkpt lat="44.3305867" lon="11.012425"><ele>807.0</ele><time>2026-04-25T09:06:22.391Z</time></trkpt><trkpt lat="44.330505" lon="11.0122617"><ele>809.0</ele><time>2026-04-25T09:06:24.391Z</time></trkpt><trkpt lat="44.3304567" lon="11.01216"><ele>811.0</ele><time>2026-04-25T09:06:25.39Z</time></trkpt><trkpt lat="44.330405" lon="11.0120517"><ele>813.0</ele><time>2026-04-25T09:06:26.393Z</time></trkpt><trkpt lat="44.33034" lon="11.0119567"><ele>815.0</ele><time>2026-04-25T09:06:27.394Z</time></trkpt><trkpt lat="44.3302633" lon="11.01188"><ele>817.0</ele><time>2026-04-25T09:06:28.392Z</time></trkpt><trkpt lat="44.3301667" lon="11.0118183"><ele>817.0</ele><time>2026-04-25T09:06:29.397Z</time></trkpt><trkpt lat="44.3300683" lon="11.0117667"><ele>817.0</ele><time>2026-04-25T09:06:30.398Z</time></trkpt><trkpt lat="44.32998" lon="11.011725"><ele>817.0</ele><time>2026-04-25T09:06:31.392Z</time></trkpt><trkpt lat="44.329895" lon="11.0116833"><ele>817.0</ele><time>2026-04-25T09:06:32.392Z</time></trkpt><trkpt lat="44.3298083" lon="11.011625"><ele>817.0</ele><time>2026-04-25T09:06:33.395Z</time></trkpt><trkpt lat="44.3297167" lon="11.01156"><ele>815.2</ele><time>2026-04-25T09:06:34.396Z</time></trkpt><trkpt lat="44.3296217" lon="11.011505"><ele>813.4000000000001</ele><time>2026-04-25T09:06:35.39Z</time></trkpt><trkpt lat="44.3295217" lon="11.01145"><ele>811.5999999999999</ele><time>2026-04-25T09:06:36.392Z</time></trkpt><trkpt lat="44.3294167" lon="11.01141"><ele>809.8</ele><time>2026-04-25T09:06:37.392Z</time></trkpt><trkpt lat="44.32931" lon="11.0113833"><ele>808.0</ele><time>2026-04-25T09:06:38.391Z</time></trkpt><trkpt lat="44.329205" lon="11.0113667"><ele>808.0</ele><time>2026-04-25T09:06:39.396Z</time></trkpt><trkpt lat="44.3290917" lon="11.0113583"><ele>808.0</ele><time>2026-04-25T09:06:40.392Z</time></trkpt><trkpt lat="44.3289733" lon="11.01135"><ele>808.0</ele><time>2026-04-25T09:06:41.391Z</time></trkpt><trkpt lat="44.328865" lon="11.01135"><ele>808.0</ele><time>2026-04-25T09:06:42.394Z</time></trkpt><trkpt lat="44.32877" lon="11.011355"><ele>808.0</ele><time>2026-04-25T09:06:43.393Z</time></trkpt><trkpt lat="44.32869" lon="11.0113833"><ele>809.5999999999999</ele><time>2026-04-25T09:06:44.399Z</time></trkpt><trkpt lat="44.3286133" lon="11.01143"><ele>811.1999999999999</ele><time>2026-04-25T09:06:45.393Z</time></trkpt><trkpt lat="44.328545" lon="11.011495"><ele>812.8</ele><time>2026-04-25T09:06:46.393Z</time></trkpt><trkpt lat="44.328475" lon="11.0115633"><ele>814.4</ele><time>2026-04-25T09:06:47.393Z</time></trkpt><trkpt lat="44.3284017" lon="11.01165"><ele>816.0</ele><time>2026-04-25T09:06:48.392Z</time></trkpt><trkpt lat="44.3283217" lon="11.0117383"><ele>817.6666666666666</ele><time>2026-04-25T09:06:49.392Z</time></trkpt><trkpt lat="44.3282467" lon="11.0118283"><ele>819.3333333333333</ele><time>2026-04-25T09:06:50.392Z</time></trkpt><trkpt lat="44.3281867" lon="11.0119217"><ele>821.0</ele><time>2026-04-25T09:06:51.394Z</time></trkpt><trkpt lat="44.3281333" lon="11.0120083"><ele>822.6666666666666</ele><time>2026-04-25T09:06:52.393Z</time></trkpt><trkpt lat="44.32809" lon="11.0120833"><ele>824.3333333333333</ele><time>2026-04-25T09:06:53.392Z</time></trkpt><trkpt lat="44.32801" lon="11.0120183"><ele>826.0</ele><time>2026-04-25T09:06:55.393Z</time></trkpt><trkpt lat="44.3279467" lon="11.0118217"><ele>826.3333333333333</ele><time>2026-04-25T09:06:57.393Z</time></trkpt><trkpt lat="44.3279267" lon="11.0116983"><ele>826.6666666666666</ele><time>2026-04-25T09:06:58.392Z</time></trkpt><trkpt lat="44.3278967" lon="11.0116017"><ele>827.0</ele><time>2026-04-25T09:06:59.391Z</time></trkpt><trkpt lat="44.3278533" lon="11.01152"><ele>827.3333333333333</ele><time>2026-04-25T09:07:00.399Z</time></trkpt><trkpt lat="44.3277933" lon="11.0114517"><ele>827.6666666666666</ele><time>2026-04-25T09:07:01.391Z</time></trkpt><trkpt lat="44.3277217" lon="11.0114083"><ele>828.0</ele><time>2026-04-25T09:07:02.396Z</time></trkpt><trkpt lat="44.3276417" lon="11.0113883"><ele>828.1666666666666</ele><time>2026-04-25T09:07:03.393Z</time></trkpt><trkpt lat="44.3275633" lon="11.0113917"><ele>828.3333333333333</ele><time>2026-04-25T09:07:04.393Z</time></trkpt><trkpt lat="44.3274783" lon="11.011375"><ele>828.5</ele><time>2026-04-25T09:07:06.391Z</time></trkpt><trkpt lat="44.32743" lon="11.0112817"><ele>828.6666666666666</ele><time>2026-04-25T09:07:08.392Z</time></trkpt><trkpt lat="44.3273633" lon="11.011135"><ele>828.8333333333333</ele><time>2026-04-25T09:07:10.392Z</time></trkpt><trkpt lat="44.3273217" lon="11.01106"><ele>829.0</ele><time>2026-04-25T09:07:11.394Z</time></trkpt><trkpt lat="44.327275" lon="11.0109783"><ele>828.9999999999999</ele><time>2026-04-25T09:07:12.393Z</time></trkpt><trkpt lat="44.32723" lon="11.0108883"><ele>829.0</ele><time>2026-04-25T09:07:13.395Z</time></trkpt><trkpt lat="44.3271817" lon="11.0107917"><ele>829.0</ele><time>2026-04-25T09:07:14.403Z</time></trkpt><trkpt lat="44.32713" lon="11.0106933"><ele>829.0</ele><time>2026-04-25T09:07:15.394Z</time></trkpt><trkpt lat="44.3270833" lon="11.0106"><ele>828.9999999999999</ele><time>2026-04-25T09:07:16.392Z</time></trkpt><trkpt lat="44.32704" lon="11.0104967"><ele>829.0</ele><time>2026-04-25T09:07:17.391Z</time></trkpt><trkpt lat="44.3270067" lon="11.0103867"><ele>829.6666666666666</ele><time>2026-04-25T09:07:18.392Z</time></trkpt><trkpt lat="44.3269667" lon="11.0102683"><ele>830.3333333333333</ele><time>2026-04-25T09:07:19.395Z</time></trkpt><trkpt lat="44.32693" lon="11.0101483"><ele>831.0</ele><time>2026-04-25T09:07:20.4Z</time></trkpt><trkpt lat="44.3268867" lon="11.01004"><ele>831.6666666666667</ele><time>2026-04-25T09:07:21.399Z</time></trkpt><trkpt lat="44.32684" lon="11.009935"><ele>832.3333333333334</ele><time>2026-04-25T09:07:22.391Z</time></trkpt><trkpt lat="44.3267967" lon="11.0098367"><ele>833.0</ele><time>2026-04-25T09:07:23.392Z</time></trkpt><trkpt lat="44.3267483" lon="11.0097617"><ele>833.0000000000001</ele><time>2026-04-25T09:07:24.394Z</time></trkpt><trkpt lat="44.32669" lon="11.0096983"><ele>833.0</ele><time>2026-04-25T09:07:25.391Z</time></trkpt><trkpt lat="44.3266217" lon="11.0096583"><ele>833.0</ele><time>2026-04-25T09:07:26.393Z</time></trkpt><trkpt lat="44.3265433" lon="11.00964"><ele>833.0</ele><time>2026-04-25T09:07:27.392Z</time></trkpt><trkpt lat="44.32645" lon="11.009635"><ele>833.0000000000001</ele><time>2026-04-25T09:07:28.394Z</time></trkpt><trkpt lat="44.3263667" lon="11.00963"><ele>833.0</ele><time>2026-04-25T09:07:29.392Z</time></trkpt><trkpt lat="44.3262933" lon="11.0096383"><ele>837.1666666666667</ele><time>2026-04-25T09:07:30.394Z</time></trkpt><trkpt lat="44.3262183" lon="11.009635"><ele>841.3333333333334</ele><time>2026-04-25T09:07:31.398Z</time></trkpt><trkpt lat="44.326135" lon="11.00963"><ele>845.5</ele><time>2026-04-25T09:07:32.394Z</time></trkpt><trkpt lat="44.3260517" lon="11.0096067"><ele>849.6666666666667</ele><time>2026-04-25T09:07:33.393Z</time></trkpt><trkpt lat="44.3259667" lon="11.0095883"><ele>853.8333333333334</ele><time>2026-04-25T09:07:34.392Z</time></trkpt><trkpt lat="44.3258833" lon="11.0095733"><ele>858.0</ele><time>2026-04-25T09:07:35.396Z</time></trkpt><trkpt lat="44.3258117" lon="11.00956"><ele>858.0</ele><time>2026-04-25T09:07:36.394Z</time></trkpt><trkpt lat="44.3257467" lon="11.0095233"><ele>858.0</ele><time>2026-04-25T09:07:37.397Z</time></trkpt><trkpt lat="44.3256867" lon="11.0094767"><ele>858.0</ele><time>2026-04-25T09:07:38.393Z</time></trkpt><trkpt lat="44.3256267" lon="11.0094283"><ele>858.0</ele><time>2026-04-25T09:07:39.399Z</time></trkpt><trkpt lat="44.3255667" lon="11.0093683"><ele>858.0</ele><time>2026-04-25T09:07:40.39Z</time></trkpt><trkpt lat="44.3254717" lon="11.009295"><ele>858.0</ele><time>2026-04-25T09:07:42.393Z</time></trkpt><trkpt lat="44.3254033" lon="11.0093217"><ele>858.5</ele><time>2026-04-25T09:07:44.402Z</time></trkpt><trkpt lat="44.3253517" lon="11.0094017"><ele>859.0</ele><time>2026-04-25T09:07:46.393Z</time></trkpt><trkpt lat="44.3253033" lon="11.009465"><ele>859.5</ele><time>2026-04-25T09:07:48.394Z</time></trkpt><trkpt lat="44.32523" lon="11.0094817"><ele>860.0</ele><time>2026-04-25T09:07:50.4Z</time></trkpt><trkpt lat="44.32511" lon="11.0094617"><ele>860.5</ele><time>2026-04-25T09:07:52.394Z</time></trkpt><trkpt lat="44.3250467" lon="11.009435"><ele>861.0</ele><time>2026-04-25T09:07:53.401Z</time></trkpt><trkpt lat="44.32498" lon="11.0093833"><ele>861.0</ele><time>2026-04-25T09:07:54.395Z</time></trkpt><trkpt lat="44.3249117" lon="11.0093433"><ele>861.0</ele><time>2026-04-25T09:07:55.393Z</time></trkpt><trkpt lat="44.3248367" lon="11.0093133"><ele>861.0</ele><time>2026-04-25T09:07:56.392Z</time></trkpt><trkpt lat="44.3247533" lon="11.0092917"><ele>861.0</ele><time>2026-04-25T09:07:57.397Z</time></trkpt><trkpt lat="44.3246667" lon="11.0092767"><ele>861.0</ele><time>2026-04-25T09:07:58.394Z</time></trkpt><trkpt lat="44.3245767" lon="11.0092617"><ele>861.0</ele><time>2026-04-25T09:07:59.392Z</time></trkpt><trkpt lat="44.3244917" lon="11.009235"><ele>859.3333333333334</ele><time>2026-04-25T09:08:00.391Z</time></trkpt><trkpt lat="44.32441" lon="11.0092083"><ele>857.6666666666667</ele><time>2026-04-25T09:08:01.389Z</time></trkpt><trkpt lat="44.32433" lon="11.0091967"><ele>856.0</ele><time>2026-04-25T09:08:02.396Z</time></trkpt><trkpt lat="44.324255" lon="11.00918"><ele>854.3333333333334</ele><time>2026-04-25T09:08:03.391Z</time></trkpt><trkpt lat="44.3241917" lon="11.0091533"><ele>852.6666666666667</ele><time>2026-04-25T09:08:04.39Z</time></trkpt><trkpt lat="44.3241267" lon="11.00911"><ele>851.0</ele><time>2026-04-25T09:08:05.392Z</time></trkpt><trkpt lat="44.324055" lon="11.0090717"><ele>851.0</ele><time>2026-04-25T09:08:06.393Z</time></trkpt><trkpt lat="44.3239767" lon="11.00905"><ele>851.0</ele><time>2026-04-25T09:08:07.394Z</time></trkpt><trkpt lat="44.32389" lon="11.0090417"><ele>851.0</ele><time>2026-04-25T09:08:08.393Z</time></trkpt><trkpt lat="44.3237967" lon="11.00905"><ele>851.0</ele><time>2026-04-25T09:08:09.395Z</time></trkpt><trkpt lat="44.3236983" lon="11.0090733"><ele>851.0</ele><time>2026-04-25T09:08:10.392Z</time></trkpt><trkpt lat="44.3236" lon="11.0091033"><ele>849.0</ele><time>2026-04-25T09:08:11.39Z</time></trkpt><trkpt lat="44.3235" lon="11.0091433"><ele>847.0</ele><time>2026-04-25T09:08:12.391Z</time></trkpt><trkpt lat="44.3233983" lon="11.0091767"><ele>845.0</ele><time>2026-04-25T09:08:13.391Z</time></trkpt><trkpt lat="44.3233033" lon="11.0091967"><ele>843.0</ele><time>2026-04-25T09:08:14.395Z</time></trkpt><trkpt lat="44.3232083" lon="11.0092117"><ele>841.0</ele><time>2026-04-25T09:08:15.401Z</time></trkpt><trkpt lat="44.32312" lon="11.0092267"><ele>838.8333333333333</ele><time>2026-04-25T09:08:16.396Z</time></trkpt><trkpt lat="44.3230467" lon="11.0092417"><ele>836.6666666666666</ele><time>2026-04-25T09:08:17.392Z</time></trkpt><trkpt lat="44.322975" lon="11.0092533"><ele>834.5</ele><time>2026-04-25T09:08:18.389Z</time></trkpt><trkpt lat="44.3229083" lon="11.0092667"><ele>832.3333333333333</ele><time>2026-04-25T09:08:19.392Z</time></trkpt><trkpt lat="44.3228033" lon="11.0092967"><ele>830.1666666666666</ele><time>2026-04-25T09:08:21.394Z</time></trkpt><trkpt lat="44.3227367" lon="11.0093017"><ele>828.0</ele><time>2026-04-25T09:08:23.393Z</time></trkpt><trkpt lat="44.3228167" lon="11.009315"><ele>828.0</ele><time>2026-04-25T09:08:30.394Z</time></trkpt><trkpt lat="44.3229417" lon="11.0092483"><ele>828.0</ele><time>2026-04-25T09:08:32.399Z</time></trkpt><trkpt lat="44.3230317" lon="11.0092283"><ele>828.0</ele><time>2026-04-25T09:08:33.39Z</time></trkpt><trkpt lat="44.3231367" lon="11.0092083"><ele>828.0</ele><time>2026-04-25T09:08:34.391Z</time></trkpt><trkpt lat="44.32325" lon="11.0091983"><ele>828.0</ele><time>2026-04-25T09:08:35.389Z</time></trkpt><trkpt lat="44.3233717" lon="11.0091733"><ele>830.25</ele><time>2026-04-25T09:08:36.396Z</time></trkpt><trkpt lat="44.32349" lon="11.0091383"><ele>832.5</ele><time>2026-04-25T09:08:37.391Z</time></trkpt><trkpt lat="44.3236017" lon="11.0090933"><ele>834.75</ele><time>2026-04-25T09:08:38.395Z</time></trkpt><trkpt lat="44.3237117" lon="11.0090617"><ele>837.0</ele><time>2026-04-25T09:08:39.39Z</time></trkpt><trkpt lat="44.3238217" lon="11.0090433"><ele>839.8</ele><time>2026-04-25T09:08:40.397Z</time></trkpt><trkpt lat="44.3239333" lon="11.009035"><ele>842.6</ele><time>2026-04-25T09:08:41.39Z</time></trkpt><trkpt lat="44.3240383" lon="11.0090433"><ele>845.4</ele><time>2026-04-25T09:08:42.396Z</time></trkpt><trkpt lat="44.3241267" lon="11.00907"><ele>848.1999999999999</ele><time>2026-04-25T09:08:43.391Z</time></trkpt><trkpt lat="44.3242067" lon="11.0091067"><ele>851.0</ele><time>2026-04-25T09:08:44.391Z</time></trkpt><trkpt lat="44.32427" lon="11.00914"><ele>851.0</ele><time>2026-04-25T09:08:45.391Z</time></trkpt><trkpt lat="44.324365" lon="11.009135"><ele>851.0</ele><time>2026-04-25T09:08:47.391Z</time></trkpt><trkpt lat="44.3244183" lon="11.0089983"><ele>851.0</ele><time>2026-04-25T09:08:49.392Z</time></trkpt><trkpt lat="44.32442" lon="11.008885"><ele>851.0</ele><time>2026-04-25T09:08:50.398Z</time></trkpt><trkpt lat="44.3244233" lon="11.0087517"><ele>851.0</ele><time>2026-04-25T09:08:51.393Z</time></trkpt><trkpt lat="44.3244233" lon="11.0086083"><ele>851.0</ele><time>2026-04-25T09:08:52.393Z</time></trkpt><trkpt lat="44.3244133" lon="11.0084683"><ele>851.0</ele><time>2026-04-25T09:08:53.389Z</time></trkpt><trkpt lat="44.3244017" lon="11.0083183"><ele>851.0</ele><time>2026-04-25T09:08:54.391Z</time></trkpt><trkpt lat="44.3243817" lon="11.008175"><ele>851.0</ele><time>2026-04-25T09:08:55.391Z</time></trkpt><trkpt lat="44.324355" lon="11.0080317"><ele>851.0</ele><time>2026-04-25T09:08:56.391Z</time></trkpt><trkpt lat="44.3243283" lon="11.0078867"><ele>851.0</ele><time>2026-04-25T09:08:57.391Z</time></trkpt><trkpt lat="44.3243083" lon="11.0077467"><ele>851.0</ele><time>2026-04-25T09:08:58.391Z</time></trkpt><trkpt lat="44.324305" lon="11.0076117"><ele>851.0</ele><time>2026-04-25T09:08:59.39Z</time></trkpt><trkpt lat="44.3243217" lon="11.0074783"><ele>851.0</ele><time>2026-04-25T09:09:00.391Z</time></trkpt><trkpt lat="44.3243567" lon="11.0073367"><ele>851.0</ele><time>2026-04-25T09:09:01.394Z</time></trkpt><trkpt lat="44.3244083" lon="11.007195"><ele>851.0</ele><time>2026-04-25T09:09:02.393Z</time></trkpt><trkpt lat="44.3244667" lon="11.00705"><ele>851.0</ele><time>2026-04-25T09:09:03.394Z</time></trkpt><trkpt lat="44.3245217" lon="11.0069167"><ele>851.0</ele><time>2026-04-25T09:09:04.399Z</time></trkpt><trkpt lat="44.3245617" lon="11.0068067"><ele>851.0</ele><time>2026-04-25T09:09:05.396Z</time></trkpt><trkpt lat="44.324595" lon="11.00671"><ele>851.0</ele><time>2026-04-25T09:09:06.39Z</time></trkpt><trkpt lat="44.3246183" lon="11.006625"><ele>851.8</ele><time>2026-04-25T09:09:07.393Z</time></trkpt><trkpt lat="44.324625" lon="11.0064433"><ele>852.5999999999999</ele><time>2026-04-25T09:09:09.392Z</time></trkpt><trkpt lat="44.3246083" lon="11.0063333"><ele>853.4</ele><time>2026-04-25T09:09:10.389Z</time></trkpt><trkpt lat="44.3245783" lon="11.00622"><ele>854.2</ele><time>2026-04-25T09:09:11.388Z</time></trkpt><trkpt lat="44.3245367" lon="11.0061067"><ele>855.0</ele><time>2026-04-25T09:09:12.39Z</time></trkpt><trkpt lat="44.3244817" lon="11.0059967"><ele>855.0</ele><time>2026-04-25T09:09:13.399Z</time></trkpt><trkpt lat="44.3244233" lon="11.005895"><ele>855.0</ele><time>2026-04-25T09:09:14.393Z</time></trkpt><trkpt lat="44.3243683" lon="11.0058133"><ele>855.0</ele><time>2026-04-25T09:09:15.4Z</time></trkpt><trkpt lat="44.32431" lon="11.00574"><ele>855.0</ele><time>2026-04-25T09:09:16.402Z</time></trkpt><trkpt lat="44.3242483" lon="11.0056717"><ele>855.0</ele><time>2026-04-25T09:09:17.392Z</time></trkpt><trkpt lat="44.3241883" lon="11.005605"><ele>855.0</ele><time>2026-04-25T09:09:18.39Z</time></trkpt><trkpt lat="44.3241283" lon="11.0055383"><ele>855.5</ele><time>2026-04-25T09:09:19.391Z</time></trkpt><trkpt lat="44.3240717" lon="11.0054767"><ele>856.0</ele><time>2026-04-25T09:09:20.39Z</time></trkpt><trkpt lat="44.3240133" lon="11.0054183"><ele>856.5</ele><time>2026-04-25T09:09:21.392Z</time></trkpt><trkpt lat="44.32395" lon="11.0053633"><ele>857.0</ele><time>2026-04-25T09:09:22.393Z</time></trkpt><trkpt lat="44.3238717" lon="11.00532"><ele>857.5</ele><time>2026-04-25T09:09:23.39Z</time></trkpt><trkpt lat="44.3237867" lon="11.0053"><ele>858.0</ele><time>2026-04-25T09:09:24.391Z</time></trkpt><trkpt lat="44.3236967" lon="11.0052767"><ele>858.5999999999999</ele><time>2026-04-25T09:09:25.394Z</time></trkpt><trkpt lat="44.323605" lon="11.0052433"><ele>859.1999999999999</ele><time>2026-04-25T09:09:26.391Z</time></trkpt><trkpt lat="44.32352" lon="11.00518"><ele>859.8</ele><time>2026-04-25T09:09:27.388Z</time></trkpt><trkpt lat="44.3234333" lon="11.0051167"><ele>860.4</ele><time>2026-04-25T09:09:28.392Z</time></trkpt><trkpt lat="44.3233433" lon="11.0050583"><ele>861.0</ele><time>2026-04-25T09:09:29.391Z</time></trkpt><trkpt lat="44.3232517" lon="11.0050217"><ele>861.5999999999999</ele><time>2026-04-25T09:09:30.397Z</time></trkpt><trkpt lat="44.32316" lon="11.0049867"><ele>862.1999999999999</ele><time>2026-04-25T09:09:31.39Z</time></trkpt><trkpt lat="44.3230733" lon="11.0049617"><ele>862.8000000000001</ele><time>2026-04-25T09:09:32.39Z</time></trkpt><trkpt lat="44.3229883" lon="11.0049283"><ele>863.4000000000001</ele><time>2026-04-25T09:09:33.391Z</time></trkpt><trkpt lat="44.322905" lon="11.004875"><ele>864.0</ele><time>2026-04-25T09:09:34.391Z</time></trkpt><trkpt lat="44.3228317" lon="11.00479"><ele>864.0</ele><time>2026-04-25T09:09:35.401Z</time></trkpt><trkpt lat="44.3227533" lon="11.00469"><ele>864.0000000000001</ele><time>2026-04-25T09:09:36.389Z</time></trkpt><trkpt lat="44.3226617" lon="11.0045967"><ele>864.0000000000001</ele><time>2026-04-25T09:09:37.392Z</time></trkpt><trkpt lat="44.32257" lon="11.0044983"><ele>864.0</ele><time>2026-04-25T09:09:38.393Z</time></trkpt><trkpt lat="44.322485" lon="11.0044133"><ele>864.0</ele><time>2026-04-25T09:09:39.391Z</time></trkpt><trkpt lat="44.322415" lon="11.004325"><ele>864.0</ele><time>2026-04-25T09:09:40.39Z</time></trkpt><trkpt lat="44.3223683" lon="11.00424"><ele>864.0</ele><time>2026-04-25T09:09:41.389Z</time></trkpt><trkpt lat="44.32233" lon="11.00416"><ele>864.0</ele><time>2026-04-25T09:09:42.391Z</time></trkpt><trkpt lat="44.3223067" lon="11.00407"><ele>864.0</ele><time>2026-04-25T09:09:43.396Z</time></trkpt><trkpt lat="44.3223217" lon="11.0039683"><ele>864.0</ele><time>2026-04-25T09:09:44.39Z</time></trkpt><trkpt lat="44.3223433" lon="11.0038783"><ele>864.0</ele><time>2026-04-25T09:09:45.395Z</time></trkpt><trkpt lat="44.3224033" lon="11.00375"><ele>863.4000000000001</ele><time>2026-04-25T09:09:47.394Z</time></trkpt><trkpt lat="44.3224567" lon="11.0037"><ele>862.8000000000001</ele><time>2026-04-25T09:09:48.395Z</time></trkpt><trkpt lat="44.3225183" lon="11.0036167"><ele>862.1999999999999</ele><time>2026-04-25T09:09:50.395Z</time></trkpt><trkpt lat="44.32258" lon="11.003495"><ele>861.5999999999999</ele><time>2026-04-25T09:09:52.389Z</time></trkpt><trkpt lat="44.3226533" lon="11.003355"><ele>861.0</ele><time>2026-04-25T09:09:54.397Z</time></trkpt><trkpt lat="44.3226967" lon="11.00328"><ele>860.5</ele><time>2026-04-25T09:09:55.39Z</time></trkpt><trkpt lat="44.32274" lon="11.0032017"><ele>860.0</ele><time>2026-04-25T09:09:56.39Z</time></trkpt><trkpt lat="44.322785" lon="11.003115"><ele>859.5</ele><time>2026-04-25T09:09:57.39Z</time></trkpt><trkpt lat="44.3228317" lon="11.0030133"><ele>859.0</ele><time>2026-04-25T09:09:58.391Z</time></trkpt><trkpt lat="44.322865" lon="11.0028967"><ele>858.5</ele><time>2026-04-25T09:09:59.395Z</time></trkpt><trkpt lat="44.3228883" lon="11.0027767"><ele>858.0</ele><time>2026-04-25T09:10:00.394Z</time></trkpt><trkpt lat="44.322905" lon="11.00266"><ele>858.0</ele><time>2026-04-25T09:10:01.39Z</time></trkpt><trkpt lat="44.322905" lon="11.0025483"><ele>858.0</ele><time>2026-04-25T09:10:02.396Z</time></trkpt><trkpt lat="44.322895" lon="11.00244"><ele>858.0</ele><time>2026-04-25T09:10:03.39Z</time></trkpt><trkpt lat="44.3228783" lon="11.0023467"><ele>858.0</ele><time>2026-04-25T09:10:04.389Z</time></trkpt><trkpt lat="44.32284" lon="11.00221"><ele>858.0</ele><time>2026-04-25T09:10:06.391Z</time></trkpt><trkpt lat="44.322805" lon="11.002125"><ele>858.0</ele><time>2026-04-25T09:10:08.395Z</time></trkpt><trkpt lat="44.3227733" lon="11.002015"><ele>858.0</ele><time>2026-04-25T09:10:10.394Z</time></trkpt><trkpt lat="44.3227183" lon="11.0018617"><ele>858.0</ele><time>2026-04-25T09:10:12.397Z</time></trkpt><trkpt lat="44.322675" lon="11.0017767"><ele>858.0</ele><time>2026-04-25T09:10:13.393Z</time></trkpt><trkpt lat="44.322625" lon="11.0016833"><ele>858.0</ele><time>2026-04-25T09:10:14.39Z</time></trkpt><trkpt lat="44.322565" lon="11.0015883"><ele>858.0</ele><time>2026-04-25T09:10:15.388Z</time></trkpt><trkpt lat="44.3224983" lon="11.0014867"><ele>858.0</ele><time>2026-04-25T09:10:16.392Z</time></trkpt><trkpt lat="44.322435" lon="11.001385"><ele>858.0</ele><time>2026-04-25T09:10:17.393Z</time></trkpt><trkpt lat="44.3223767" lon="11.0012817"><ele>858.0</ele><time>2026-04-25T09:10:18.39Z</time></trkpt><trkpt lat="44.322315" lon="11.0011933"><ele>858.0</ele><time>2026-04-25T09:10:19.392Z</time></trkpt><trkpt lat="44.3222517" lon="11.001115"><ele>858.0</ele><time>2026-04-25T09:10:20.389Z</time></trkpt><trkpt lat="44.3221933" lon="11.00106"><ele>858.0</ele><time>2026-04-25T09:10:21.391Z</time></trkpt><trkpt lat="44.3221383" lon="11.001015"><ele>858.1666666666666</ele><time>2026-04-25T09:10:22.39Z</time></trkpt><trkpt lat="44.3220633" lon="11.0009233"><ele>858.3333333333333</ele><time>2026-04-25T09:10:24.39Z</time></trkpt><trkpt lat="44.3219983" lon="11.000775"><ele>858.5</ele><time>2026-04-25T09:10:26.391Z</time></trkpt><trkpt lat="44.3219617" lon="11.0007"><ele>858.6666666666666</ele><time>2026-04-25T09:10:27.39Z</time></trkpt><trkpt lat="44.3219267" lon="11.00062"><ele>858.8333333333333</ele><time>2026-04-25T09:10:28.394Z</time></trkpt><trkpt lat="44.32189" lon="11.0005333"><ele>859.0</ele><time>2026-04-25T09:10:29.393Z</time></trkpt><trkpt lat="44.3218517" lon="11.00044"><ele>858.4000000000001</ele><time>2026-04-25T09:10:30.393Z</time></trkpt><trkpt lat="44.3218083" lon="11.0003417"><ele>857.8000000000001</ele><time>2026-04-25T09:10:31.39Z</time></trkpt><trkpt lat="44.3217667" lon="11.000235"><ele>857.1999999999999</ele><time>2026-04-25T09:10:32.393Z</time></trkpt><trkpt lat="44.3217267" lon="11.0001183"><ele>856.5999999999999</ele><time>2026-04-25T09:10:33.392Z</time></trkpt><trkpt lat="44.3216883" lon="10.99999"><ele>856.0</ele><time>2026-04-25T09:10:34.39Z</time></trkpt><trkpt lat="44.32164" lon="10.9998767"><ele>856.0</ele><time>2026-04-25T09:10:35.389Z</time></trkpt><trkpt lat="44.3215783" lon="10.9997667"><ele>855.9999999999999</ele><time>2026-04-25T09:10:36.394Z</time></trkpt><trkpt lat="44.32151" lon="10.99966"><ele>855.9999999999999</ele><time>2026-04-25T09:10:37.391Z</time></trkpt><trkpt lat="44.3214317" lon="10.99956"><ele>856.0</ele><time>2026-04-25T09:10:38.395Z</time></trkpt><trkpt lat="44.3213583" lon="10.9994817"><ele>856.0</ele><time>2026-04-25T09:10:39.392Z</time></trkpt><trkpt lat="44.3212983" lon="10.9994133"><ele>856.1666666666666</ele><time>2026-04-25T09:10:40.392Z</time></trkpt><trkpt lat="44.32124" lon="10.999355"><ele>856.3333333333333</ele><time>2026-04-25T09:10:41.39Z</time></trkpt><trkpt lat="44.3211717" lon="10.9993067"><ele>856.5</ele><time>2026-04-25T09:10:42.396Z</time></trkpt><trkpt lat="44.3210983" lon="10.9992733"><ele>856.6666666666667</ele><time>2026-04-25T09:10:43.39Z</time></trkpt><trkpt lat="44.3210167" lon="10.99926"><ele>856.8333333333334</ele><time>2026-04-25T09:10:44.398Z</time></trkpt><trkpt lat="44.320945" lon="10.9992683"><ele>857.0</ele><time>2026-04-25T09:10:45.394Z</time></trkpt><trkpt lat="44.320865" lon="10.9992583"><ele>857.0000000000001</ele><time>2026-04-25T09:10:46.394Z</time></trkpt><trkpt lat="44.320785" lon="10.99924"><ele>857.0</ele><time>2026-04-25T09:10:47.392Z</time></trkpt><trkpt lat="44.3207217" lon="10.99919"><ele>857.0</ele><time>2026-04-25T09:10:48.393Z</time></trkpt><trkpt lat="44.3206667" lon="10.9991233"><ele>857.0</ele><time>2026-04-25T09:10:49.391Z</time></trkpt><trkpt lat="44.3206517" lon="10.999025"><ele>857.0000000000001</ele><time>2026-04-25T09:10:50.39Z</time></trkpt><trkpt lat="44.3206867" lon="10.9989017"><ele>857.0</ele><time>2026-04-25T09:10:51.39Z</time></trkpt><trkpt lat="44.3206983" lon="10.9987883"><ele>854.6</ele><time>2026-04-25T09:10:52.392Z</time></trkpt><trkpt lat="44.3207167" lon="10.998655"><ele>852.2</ele><time>2026-04-25T09:10:53.396Z</time></trkpt><trkpt lat="44.3207317" lon="10.9985"><ele>849.8</ele><time>2026-04-25T09:10:54.392Z</time></trkpt><trkpt lat="44.32074" lon="10.9983617"><ele>847.4</ele><time>2026-04-25T09:10:55.396Z</time></trkpt><trkpt lat="44.3207517" lon="10.9982367"><ele>845.0</ele><time>2026-04-25T09:10:56.392Z</time></trkpt><trkpt lat="44.3207717" lon="10.9981133"><ele>843.0</ele><time>2026-04-25T09:10:57.398Z</time></trkpt><trkpt lat="44.3207933" lon="10.9980267"><ele>841.0</ele><time>2026-04-25T09:10:58.393Z</time></trkpt><trkpt lat="44.3208167" lon="10.9979283"><ele>839.0</ele><time>2026-04-25T09:10:59.397Z</time></trkpt><trkpt lat="44.3209433" lon="10.9978567"><ele>837.0</ele><time>2026-04-25T09:11:01.391Z</time></trkpt><trkpt lat="44.321035" lon="10.9978283"><ele>835.0</ele><time>2026-04-25T09:11:02.393Z</time></trkpt><trkpt lat="44.3211333" lon="10.99781"><ele>834.9999999999999</ele><time>2026-04-25T09:11:03.394Z</time></trkpt><trkpt lat="44.3212233" lon="10.99779"><ele>835.0</ele><time>2026-04-25T09:11:04.394Z</time></trkpt><trkpt lat="44.3213067" lon="10.997755"><ele>835.0</ele><time>2026-04-25T09:11:05.391Z</time></trkpt><trkpt lat="44.3213817" lon="10.9977017"><ele>835.0</ele><time>2026-04-25T09:11:06.391Z</time></trkpt><trkpt lat="44.3214433" lon="10.9976367"><ele>834.9999999999999</ele><time>2026-04-25T09:11:07.391Z</time></trkpt><trkpt lat="44.3214917" lon="10.99753"><ele>835.0</ele><time>2026-04-25T09:11:08.396Z</time></trkpt><trkpt lat="44.3215267" lon="10.9974067"><ele>835.6</ele><time>2026-04-25T09:11:09.391Z</time></trkpt><trkpt lat="44.3215533" lon="10.99729"><ele>836.2</ele><time>2026-04-25T09:11:10.39Z</time></trkpt><trkpt lat="44.3215617" lon="10.9971717"><ele>836.8</ele><time>2026-04-25T09:11:11.391Z</time></trkpt><trkpt lat="44.3215617" lon="10.9970483"><ele>837.4</ele><time>2026-04-25T09:11:12.391Z</time></trkpt><trkpt lat="44.3215417" lon="10.996915"><ele>838.0</ele><time>2026-04-25T09:11:13.392Z</time></trkpt><trkpt lat="44.3215167" lon="10.9967783"><ele>838.0</ele><time>2026-04-25T09:11:14.391Z</time></trkpt><trkpt lat="44.3215033" lon="10.99664"><ele>838.0</ele><time>2026-04-25T09:11:15.392Z</time></trkpt><trkpt lat="44.3214867" lon="10.9965017"><ele>838.0</ele><time>2026-04-25T09:11:16.395Z</time></trkpt><trkpt lat="44.321465" lon="10.9963617"><ele>838.0</ele><time>2026-04-25T09:11:17.401Z</time></trkpt><trkpt lat="44.321445" lon="10.9962567"><ele>838.0</ele><time>2026-04-25T09:11:18.392Z</time></trkpt><trkpt lat="44.3214233" lon="10.99612"><ele>837.0</ele><time>2026-04-25T09:11:19.4Z</time></trkpt><trkpt lat="44.321385" lon="10.995975"><ele>836.0</ele><time>2026-04-25T09:11:20.391Z</time></trkpt><trkpt lat="44.3213467" lon="10.9958567"><ele>835.0</ele><time>2026-04-25T09:11:21.394Z</time></trkpt><trkpt lat="44.3212983" lon="10.9957417"><ele>834.0</ele><time>2026-04-25T09:11:22.392Z</time></trkpt><trkpt lat="44.32127" lon="10.9956183"><ele>833.0</ele><time>2026-04-25T09:11:23.39Z</time></trkpt><trkpt lat="44.3212333" lon="10.995485"><ele>831.6666666666667</ele><time>2026-04-25T09:11:24.394Z</time></trkpt><trkpt lat="44.32119" lon="10.9953717"><ele>830.3333333333334</ele><time>2026-04-25T09:11:25.394Z</time></trkpt><trkpt lat="44.3211333" lon="10.9952717"><ele>829.0</ele><time>2026-04-25T09:11:26.402Z</time></trkpt><trkpt lat="44.3210683" lon="10.9951883"><ele>827.6666666666667</ele><time>2026-04-25T09:11:27.391Z</time></trkpt><trkpt lat="44.3210083" lon="10.9951217"><ele>826.3333333333334</ele><time>2026-04-25T09:11:28.391Z</time></trkpt><trkpt lat="44.3209617" lon="10.9950617"><ele>825.0</ele><time>2026-04-25T09:11:29.391Z</time></trkpt><trkpt lat="44.32092" lon="10.99497"><ele>822.8</ele><time>2026-04-25T09:11:31.393Z</time></trkpt><trkpt lat="44.3209567" lon="10.99485"><ele>820.6</ele><time>2026-04-25T09:11:33.391Z</time></trkpt><trkpt lat="44.3210483" lon="10.994725"><ele>818.4000000000001</ele><time>2026-04-25T09:11:35.394Z</time></trkpt><trkpt lat="44.3211033" lon="10.99468"><ele>816.2</ele><time>2026-04-25T09:11:36.391Z</time></trkpt><trkpt lat="44.3212117" lon="10.994675"><ele>814.0</ele><time>2026-04-25T09:11:38.39Z</time></trkpt><trkpt lat="44.3213217" lon="10.99477"><ele>813.9999999999999</ele><time>2026-04-25T09:11:40.391Z</time></trkpt><trkpt lat="44.3213817" lon="10.9948167"><ele>814.0</ele><time>2026-04-25T09:11:41.401Z</time></trkpt><trkpt lat="44.3214517" lon="10.9948783"><ele>814.0</ele><time>2026-04-25T09:11:42.391Z</time></trkpt><trkpt lat="44.3215267" lon="10.9949367"><ele>814.0</ele><time>2026-04-25T09:11:43.392Z</time></trkpt><trkpt lat="44.3216" lon="10.995005"><ele>813.9999999999999</ele><time>2026-04-25T09:11:44.395Z</time></trkpt><trkpt lat="44.321665" lon="10.9950783"><ele>814.0</ele><time>2026-04-25T09:11:45.392Z</time></trkpt><trkpt lat="44.3217233" lon="10.9951517"><ele>814.4999999999999</ele><time>2026-04-25T09:11:46.392Z</time></trkpt><trkpt lat="44.3217717" lon="10.99522"><ele>815.0</ele><time>2026-04-25T09:11:47.395Z</time></trkpt><trkpt lat="44.3218567" lon="10.9953217"><ele>815.5</ele><time>2026-04-25T09:11:49.391Z</time></trkpt><trkpt lat="44.32192" lon="10.99531"><ele>816.0</ele><time>2026-04-25T09:11:51.393Z</time></trkpt><trkpt lat="44.321975" lon="10.9951717"><ele>816.4999999999999</ele><time>2026-04-25T09:11:53.391Z</time></trkpt><trkpt lat="44.32199" lon="10.9950733"><ele>817.0</ele><time>2026-04-25T09:11:54.392Z</time></trkpt><trkpt lat="44.321995" lon="10.994975"><ele>816.9999999999999</ele><time>2026-04-25T09:11:55.395Z</time></trkpt><trkpt lat="44.3219883" lon="10.9948767"><ele>817.0</ele><time>2026-04-25T09:11:56.39Z</time></trkpt><trkpt lat="44.3219683" lon="10.99478"><ele>817.0</ele><time>2026-04-25T09:11:57.394Z</time></trkpt><trkpt lat="44.3219133" lon="10.994635"><ele>817.0</ele><time>2026-04-25T09:11:59.391Z</time></trkpt><trkpt lat="44.3218533" lon="10.9945167"><ele>816.9999999999999</ele><time>2026-04-25T09:12:01.394Z</time></trkpt><trkpt lat="44.3218083" lon="10.9944483"><ele>817.0</ele><time>2026-04-25T09:12:03.393Z</time></trkpt><trkpt lat="44.3217683" lon="10.9943633"><ele>816.9999999999999</ele><time>2026-04-25T09:12:06.396Z</time></trkpt><trkpt lat="44.32172" lon="10.9942967"><ele>817.0</ele><time>2026-04-25T09:12:10.393Z</time></trkpt><trkpt lat="44.3216767" lon="10.9942167"><ele>817.0</ele><time>2026-04-25T09:12:13.392Z</time></trkpt><trkpt lat="44.32163" lon="10.9941083"><ele>817.0</ele><time>2026-04-25T09:12:15.394Z</time></trkpt><trkpt lat="44.3215733" lon="10.9940283"><ele>816.9999999999999</ele><time>2026-04-25T09:12:16.388Z</time></trkpt><trkpt lat="44.3214933" lon="10.9939533"><ele>817.0</ele><time>2026-04-25T09:12:17.389Z</time></trkpt><trkpt lat="44.3214" lon="10.99387"><ele>813.2</ele><time>2026-04-25T09:12:18.394Z</time></trkpt><trkpt lat="44.3213017" lon="10.9937883"><ele>809.4000000000001</ele><time>2026-04-25T09:12:19.389Z</time></trkpt><trkpt lat="44.3212017" lon="10.9937133"><ele>805.5999999999999</ele><time>2026-04-25T09:12:20.391Z</time></trkpt><trkpt lat="44.3211033" lon="10.9936417"><ele>801.8</ele><time>2026-04-25T09:12:21.402Z</time></trkpt><trkpt lat="44.32102" lon="10.99358"><ele>798.0</ele><time>2026-04-25T09:12:22.391Z</time></trkpt><trkpt lat="44.32095" lon="10.9935333"><ele>798.0</ele><time>2026-04-25T09:12:23.39Z</time></trkpt><trkpt lat="44.320885" lon="10.993505"><ele>798.0</ele><time>2026-04-25T09:12:24.392Z</time></trkpt><trkpt lat="44.3208217" lon="10.9934917"><ele>798.0</ele><time>2026-04-25T09:12:25.391Z</time></trkpt><trkpt lat="44.3207233" lon="10.9935317"><ele>798.0</ele><time>2026-04-25T09:12:27.391Z</time></trkpt><trkpt lat="44.3206617" lon="10.9935833"><ele>798.0</ele><time>2026-04-25T09:12:30.396Z</time></trkpt><trkpt lat="44.3207367" lon="10.9934583"><ele>798.0</ele><time>2026-04-25T09:13:08.39Z</time></trkpt><trkpt lat="44.320845" lon="10.99341"><ele>798.0</ele><time>2026-04-25T09:13:10.394Z</time></trkpt><trkpt lat="44.3209583" lon="10.99345"><ele>798.0</ele><time>2026-04-25T09:13:12.391Z</time></trkpt><trkpt lat="44.321025" lon="10.993515"><ele>798.0</ele><time>2026-04-25T09:13:13.39Z</time></trkpt><trkpt lat="44.3211017" lon="10.9935867"><ele>798.0</ele><time>2026-04-25T09:13:14.396Z</time></trkpt><trkpt lat="44.3211717" lon="10.99365"><ele>798.0</ele><time>2026-04-25T09:13:15.395Z</time></trkpt><trkpt lat="44.3212383" lon="10.993705"><ele>798.0</ele><time>2026-04-25T09:13:16.392Z</time></trkpt><trkpt lat="44.3213" lon="10.9937467"><ele>798.0</ele><time>2026-04-25T09:13:17.389Z</time></trkpt><trkpt lat="44.3213633" lon="10.993755"><ele>798.0</ele><time>2026-04-25T09:13:18.392Z</time></trkpt><trkpt lat="44.3214717" lon="10.993785"><ele>798.0</ele><time>2026-04-25T09:13:20.39Z</time></trkpt><trkpt lat="44.3215517" lon="10.9938033"><ele>798.0</ele><time>2026-04-25T09:13:22.394Z</time></trkpt><trkpt lat="44.3216067" lon="10.9937567"><ele>798.0</ele><time>2026-04-25T09:13:24.395Z</time></trkpt><trkpt lat="44.32166" lon="10.9936417"><ele>798.3333333333334</ele><time>2026-04-25T09:13:26.391Z</time></trkpt><trkpt lat="44.3216267" lon="10.9935283"><ele>798.6666666666667</ele><time>2026-04-25T09:13:28.394Z</time></trkpt><trkpt lat="44.3215733" lon="10.9933817"><ele>799.0</ele><time>2026-04-25T09:13:30.394Z</time></trkpt><trkpt lat="44.32155" lon="10.9932933"><ele>799.3333333333334</ele><time>2026-04-25T09:13:31.392Z</time></trkpt><trkpt lat="44.3215283" lon="10.99319"><ele>799.6666666666667</ele><time>2026-04-25T09:13:32.392Z</time></trkpt><trkpt lat="44.3215083" lon="10.9930733"><ele>800.0</ele><time>2026-04-25T09:13:33.394Z</time></trkpt><trkpt lat="44.3214883" lon="10.9929633"><ele>798.1666666666667</ele><time>2026-04-25T09:13:34.39Z</time></trkpt><trkpt lat="44.3214683" lon="10.9928583"><ele>796.3333333333334</ele><time>2026-04-25T09:13:35.393Z</time></trkpt><trkpt lat="44.32145" lon="10.992745"><ele>794.5</ele><time>2026-04-25T09:13:36.391Z</time></trkpt><trkpt lat="44.3214467" lon="10.9926517"><ele>792.6666666666667</ele><time>2026-04-25T09:13:37.391Z</time></trkpt><trkpt lat="44.3214383" lon="10.9925533"><ele>790.8333333333334</ele><time>2026-04-25T09:13:38.392Z</time></trkpt><trkpt lat="44.3214383" lon="10.992445"><ele>789.0</ele><time>2026-04-25T09:13:39.388Z</time></trkpt><trkpt lat="44.3214383" lon="10.9923417"><ele>788.6</ele><time>2026-04-25T09:13:40.393Z</time></trkpt><trkpt lat="44.32143" lon="10.9922417"><ele>788.2</ele><time>2026-04-25T09:13:41.388Z</time></trkpt><trkpt lat="44.32143" lon="10.9921467"><ele>787.8000000000001</ele><time>2026-04-25T09:13:42.392Z</time></trkpt><trkpt lat="44.321445" lon="10.991985"><ele>787.4000000000001</ele><time>2026-04-25T09:13:44.39Z</time></trkpt><trkpt lat="44.321485" lon="10.9918417"><ele>787.0</ele><time>2026-04-25T09:13:46.39Z</time></trkpt><trkpt lat="44.3215033" lon="10.9916917"><ele>785.0</ele><time>2026-04-25T09:13:48.395Z</time></trkpt><trkpt lat="44.32152" lon="10.99155"><ele>783.0</ele><time>2026-04-25T09:13:50.399Z</time></trkpt><trkpt lat="44.3215833" lon="10.9914183"><ele>781.0</ele><time>2026-04-25T09:13:52.39Z</time></trkpt><trkpt lat="44.3216417" lon="10.9913017"><ele>779.0</ele><time>2026-04-25T09:13:54.39Z</time></trkpt><trkpt lat="44.3216917" lon="10.9912283"><ele>777.0</ele><time>2026-04-25T09:13:56.39Z</time></trkpt><trkpt lat="44.3217417" lon="10.9911583"><ele>777.0</ele><time>2026-04-25T09:13:58.391Z</time></trkpt><trkpt lat="44.321805" lon="10.9910817"><ele>777.0</ele><time>2026-04-25T09:14:00.395Z</time></trkpt><trkpt lat="44.321875" lon="10.9910383"><ele>777.0</ele><time>2026-04-25T09:14:02.39Z</time></trkpt><trkpt lat="44.32194" lon="10.9910433"><ele>777.0</ele><time>2026-04-25T09:14:04.391Z</time></trkpt><trkpt lat="44.32201" lon="10.9910283"><ele>777.0</ele><time>2026-04-25T09:14:06.395Z</time></trkpt><trkpt lat="44.3221183" lon="10.9909933"><ele>777.0</ele><time>2026-04-25T09:14:08.394Z</time></trkpt><trkpt lat="44.3222167" lon="10.9909667"><ele>774.3333333333334</ele><time>2026-04-25T09:14:10.391Z</time></trkpt><trkpt lat="44.322295" lon="10.990975"><ele>771.6666666666666</ele><time>2026-04-25T09:14:12.393Z</time></trkpt><trkpt lat="44.3223867" lon="10.990985"><ele>769.0</ele><time>2026-04-25T09:14:14.393Z</time></trkpt><trkpt lat="44.3224867" lon="10.9909917"><ele>766.3333333333333</ele><time>2026-04-25T09:14:16.393Z</time></trkpt><trkpt lat="44.3225683" lon="10.9909983"><ele>763.6666666666666</ele><time>2026-04-25T09:14:18.392Z</time></trkpt><trkpt lat="44.3226483" lon="10.99102"><ele>761.0</ele><time>2026-04-25T09:14:21.389Z</time></trkpt><trkpt lat="44.3227133" lon="10.9910683"><ele>761.0</ele><time>2026-04-25T09:14:24.394Z</time></trkpt><trkpt lat="44.322775" lon="10.9910883"><ele>761.0</ele><time>2026-04-25T09:14:26.395Z</time></trkpt><trkpt lat="44.3228633" lon="10.9910783"><ele>761.0</ele><time>2026-04-25T09:14:28.393Z</time></trkpt><trkpt lat="44.3229533" lon="10.9910967"><ele>761.0</ele><time>2026-04-25T09:14:30.395Z</time></trkpt><trkpt lat="44.3229683" lon="10.9912183"><ele>761.0</ele><time>2026-04-25T09:14:34.389Z</time></trkpt><trkpt lat="44.3229902" lon="10.9913147"><ele>761.0</ele><time>2026-04-25T09:14:36.386Z</time></trkpt><trkpt lat="44.3230352" lon="10.9914041"><ele>758.4285714285713</ele><time>2026-04-25T09:14:38.391Z</time></trkpt><trkpt lat="44.3231054" lon="10.9915024"><ele>755.8571428571429</ele><time>2026-04-25T09:14:40.392Z</time></trkpt><trkpt lat="44.3231585" lon="10.9915561"><ele>753.2857142857142</ele><time>2026-04-25T09:14:41.4Z</time></trkpt><trkpt lat="44.3232185" lon="10.9916048"><ele>750.7142857142857</ele><time>2026-04-25T09:14:42.39Z</time></trkpt><trkpt lat="44.3232742" lon="10.9916499"><ele>748.1428571428571</ele><time>2026-04-25T09:14:43.389Z</time></trkpt><trkpt lat="44.3233318" lon="10.9916875"><ele>745.5714285714286</ele><time>2026-04-25T09:14:44.395Z</time></trkpt><trkpt lat="44.323396" lon="10.9917172"><ele>743.0</ele><time>2026-04-25T09:14:45.39Z</time></trkpt><trkpt lat="44.3234721" lon="10.9917367"><ele>743.0</ele><time>2026-04-25T09:14:46.391Z</time></trkpt><trkpt lat="44.3235493" lon="10.9917474"><ele>743.0</ele><time>2026-04-25T09:14:47.389Z</time></trkpt><trkpt lat="44.3236244" lon="10.9917534"><ele>743.0</ele><time>2026-04-25T09:14:48.389Z</time></trkpt><trkpt lat="44.3237048" lon="10.9917534"><ele>743.0</ele><time>2026-04-25T09:14:49.393Z</time></trkpt><trkpt lat="44.3237866" lon="10.9917447"><ele>743.0</ele><time>2026-04-25T09:14:50.392Z</time></trkpt><trkpt lat="44.3238659" lon="10.9917281"><ele>743.0</ele><time>2026-04-25T09:14:51.392Z</time></trkpt><trkpt lat="44.3239364" lon="10.9917034"><ele>740.3333333333333</ele><time>2026-04-25T09:14:52.389Z</time></trkpt><trkpt lat="44.3239988" lon="10.9916756"><ele>737.6666666666666</ele><time>2026-04-25T09:14:53.388Z</time></trkpt><trkpt lat="44.324095" lon="10.9916467"><ele>735.0</ele><time>2026-04-25T09:14:55.392Z</time></trkpt><trkpt lat="44.3242017" lon="10.99162"><ele>732.3333333333334</ele><time>2026-04-25T09:14:57.392Z</time></trkpt><trkpt lat="44.324265" lon="10.9915967"><ele>729.6666666666667</ele><time>2026-04-25T09:14:58.391Z</time></trkpt><trkpt lat="44.3243317" lon="10.9915617"><ele>727.0</ele><time>2026-04-25T09:14:59.393Z</time></trkpt><trkpt lat="44.3243933" lon="10.991535"><ele>725.8333333333334</ele><time>2026-04-25T09:15:00.395Z</time></trkpt><trkpt lat="44.3244583" lon="10.9915233"><ele>724.6666666666667</ele><time>2026-04-25T09:15:01.39Z</time></trkpt><trkpt lat="44.324555" lon="10.9915767"><ele>723.5</ele><time>2026-04-25T09:15:03.393Z</time></trkpt><trkpt lat="44.32463" lon="10.991545"><ele>722.3333333333334</ele><time>2026-04-25T09:15:05.392Z</time></trkpt><trkpt lat="44.3246283" lon="10.9914167"><ele>721.1666666666666</ele><time>2026-04-25T09:15:07.393Z</time></trkpt><trkpt lat="44.3246333" lon="10.9913267"><ele>720.0</ele><time>2026-04-25T09:15:09.397Z</time></trkpt><trkpt lat="44.3246883" lon="10.9912217"><ele>717.25</ele><time>2026-04-25T09:15:11.394Z</time></trkpt><trkpt lat="44.3247683" lon="10.9910833"><ele>714.5</ele><time>2026-04-25T09:15:13.389Z</time></trkpt><trkpt lat="44.3248617" lon="10.990965"><ele>711.75</ele><time>2026-04-25T09:15:15.393Z</time></trkpt><trkpt lat="44.3249467" lon="10.990865"><ele>709.0</ele><time>2026-04-25T09:15:17.397Z</time></trkpt><trkpt lat="44.3249617" lon="10.9907333"><ele>708.1666666666667</ele><time>2026-04-25T09:15:19.392Z</time></trkpt><trkpt lat="44.3249267" lon="10.9906"><ele>707.3333333333334</ele><time>2026-04-25T09:15:21.39Z</time></trkpt><trkpt lat="44.3249083" lon="10.9905117"><ele>706.5</ele><time>2026-04-25T09:15:23.392Z</time></trkpt><trkpt lat="44.3249033" lon="10.9904167"><ele>705.6666666666666</ele><time>2026-04-25T09:15:26.395Z</time></trkpt><trkpt lat="44.32492" lon="10.9903217"><ele>704.8333333333333</ele><time>2026-04-25T09:15:29.394Z</time></trkpt><trkpt lat="44.3249233" lon="10.9902083"><ele>704.0</ele><time>2026-04-25T09:15:33.397Z</time></trkpt><trkpt lat="44.324905" lon="10.9900933"><ele>702.3333333333333</ele><time>2026-04-25T09:15:36.396Z</time></trkpt><trkpt lat="44.3248783" lon="10.9899933"><ele>700.6666666666666</ele><time>2026-04-25T09:15:38.394Z</time></trkpt><trkpt lat="44.3248117" lon="10.98982"><ele>699.0</ele><time>2026-04-25T09:16:05.393Z</time></trkpt><trkpt lat="44.3248117" lon="10.9897183"><ele>697.3333333333334</ele><time>2026-04-25T09:16:08.391Z</time></trkpt><trkpt lat="44.3248267" lon="10.9896233"><ele>695.6666666666667</ele><time>2026-04-25T09:16:11.392Z</time></trkpt><trkpt lat="44.32485" lon="10.9895317"><ele>694.0</ele><time>2026-04-25T09:16:14.395Z</time></trkpt><trkpt lat="44.3248767" lon="10.9893933"><ele>694.0</ele><time>2026-04-25T09:16:16.391Z</time></trkpt><trkpt lat="44.3249233" lon="10.9892317"><ele>694.0</ele><time>2026-04-25T09:16:18.389Z</time></trkpt><trkpt lat="44.3249933" lon="10.9890867"><ele>694.0</ele><time>2026-04-25T09:16:20.394Z</time></trkpt><trkpt lat="44.32504" lon="10.9890033"><ele>694.0</ele><time>2026-04-25T09:16:21.391Z</time></trkpt><trkpt lat="44.3250883" lon="10.9889267"><ele>694.0</ele><time>2026-04-25T09:16:22.392Z</time></trkpt><trkpt lat="44.325135" lon="10.9888617"><ele>692.6</ele><time>2026-04-25T09:16:23.394Z</time></trkpt><trkpt lat="44.3251867" lon="10.9888067"><ele>691.2</ele><time>2026-04-25T09:16:24.394Z</time></trkpt><trkpt lat="44.3252467" lon="10.9887733"><ele>689.8000000000001</ele><time>2026-04-25T09:16:25.396Z</time></trkpt><trkpt lat="44.3253583" lon="10.9887967"><ele>688.4000000000001</ele><time>2026-04-25T09:16:27.393Z</time></trkpt><trkpt lat="44.325425" lon="10.9888967"><ele>687.0</ele><time>2026-04-25T09:16:29.392Z</time></trkpt><trkpt lat="44.3254717" lon="10.9890367"><ele>687.0</ele><time>2026-04-25T09:16:31.393Z</time></trkpt><trkpt lat="44.32548" lon="10.989125"><ele>687.0</ele><time>2026-04-25T09:16:32.391Z</time></trkpt><trkpt lat="44.3254717" lon="10.989285"><ele>687.0</ele><time>2026-04-25T09:16:34.395Z</time></trkpt><trkpt lat="44.3254733" lon="10.9894483"><ele>687.0</ele><time>2026-04-25T09:16:36.39Z</time></trkpt><trkpt lat="44.325485" lon="10.9895433"><ele>687.0</ele><time>2026-04-25T09:16:37.393Z</time></trkpt><trkpt lat="44.3255283" lon="10.9896833"><ele>685.6666666666666</ele><time>2026-04-25T09:16:39.397Z</time></trkpt><trkpt lat="44.325595" lon="10.9896833"><ele>684.3333333333334</ele><time>2026-04-25T09:16:41.391Z</time></trkpt><trkpt lat="44.325655" lon="10.9895717"><ele>683.0</ele><time>2026-04-25T09:16:43.393Z</time></trkpt><trkpt lat="44.3257083" lon="10.9894517"><ele>681.6666666666667</ele><time>2026-04-25T09:16:45.39Z</time></trkpt><trkpt lat="44.3257583" lon="10.9893533"><ele>680.3333333333334</ele><time>2026-04-25T09:16:47.393Z</time></trkpt><trkpt lat="44.3257967" lon="10.9892667"><ele>679.0</ele><time>2026-04-25T09:16:49.39Z</time></trkpt><trkpt lat="44.3258483" lon="10.9891833"><ele>677.5</ele><time>2026-04-25T09:16:51.395Z</time></trkpt><trkpt lat="44.3258933" lon="10.9890517"><ele>676.0</ele><time>2026-04-25T09:17:04.389Z</time></trkpt><trkpt lat="44.3258667" lon="10.9889567"><ele>674.5</ele><time>2026-04-25T09:17:08.394Z</time></trkpt><trkpt lat="44.32582" lon="10.9888967"><ele>673.0</ele><time>2026-04-25T09:17:10.393Z</time></trkpt><trkpt lat="44.3257683" lon="10.9888233"><ele>671.5</ele><time>2026-04-25T09:17:12.397Z</time></trkpt><trkpt lat="44.325705" lon="10.988735"><ele>670.0</ele><time>2026-04-25T09:17:14.389Z</time></trkpt><trkpt lat="44.3256733" lon="10.9885817"><ele>670.0</ele><time>2026-04-25T09:17:16.394Z</time></trkpt><trkpt lat="44.3256283" lon="10.9884267"><ele>670.0</ele><time>2026-04-25T09:17:18.39Z</time></trkpt><trkpt lat="44.32558" lon="10.988285"><ele>670.0</ele><time>2026-04-25T09:17:20.39Z</time></trkpt><trkpt lat="44.3255367" lon="10.9881867"><ele>670.0</ele><time>2026-04-25T09:17:22.39Z</time></trkpt><trkpt lat="44.325585" lon="10.9881233"><ele>670.0</ele><time>2026-04-25T09:17:25.395Z</time></trkpt><trkpt lat="44.3256533" lon="10.988125"><ele>670.0</ele><time>2026-04-25T09:17:27.394Z</time></trkpt><trkpt lat="44.325705" lon="10.988065"><ele>669.0</ele><time>2026-04-25T09:17:29.392Z</time></trkpt><trkpt lat="44.325695" lon="10.98794"><ele>668.0</ele><time>2026-04-25T09:17:31.393Z</time></trkpt><trkpt lat="44.325665" lon="10.9877917"><ele>667.0</ele><time>2026-04-25T09:17:33.392Z</time></trkpt><trkpt lat="44.3256467" lon="10.9877067"><ele>666.0</ele><time>2026-04-25T09:17:34.389Z</time></trkpt><trkpt lat="44.3256333" lon="10.987545"><ele>665.0</ele><time>2026-04-25T09:17:36.391Z</time></trkpt><trkpt lat="44.3256483" lon="10.9874383"><ele>664.5</ele><time>2026-04-25T09:17:37.394Z</time></trkpt><trkpt lat="44.3256667" lon="10.98734"><ele>664.0</ele><time>2026-04-25T09:17:38.4Z</time></trkpt><trkpt lat="44.3256867" lon="10.9872483"><ele>663.5</ele><time>2026-04-25T09:17:39.391Z</time></trkpt><trkpt lat="44.325745" lon="10.9871617"><ele>663.0</ele><time>2026-04-25T09:17:40.391Z</time></trkpt><trkpt lat="44.3257967" lon="10.987075"><ele>662.5</ele><time>2026-04-25T09:17:41.391Z</time></trkpt><trkpt lat="44.3258483" lon="10.9869867"><ele>662.0</ele><time>2026-04-25T09:17:42.392Z</time></trkpt><trkpt lat="44.325905" lon="10.9868767"><ele>662.0</ele><time>2026-04-25T09:17:43.395Z</time></trkpt><trkpt lat="44.3259783" lon="10.9867767"><ele>662.0</ele><time>2026-04-25T09:17:44.391Z</time></trkpt><trkpt lat="44.3260533" lon="10.9866933"><ele>662.0</ele><time>2026-04-25T09:17:45.392Z</time></trkpt><trkpt lat="44.3261083" lon="10.9866117"><ele>662.0</ele><time>2026-04-25T09:17:46.394Z</time></trkpt><trkpt lat="44.326155" lon="10.986535"><ele>662.0</ele><time>2026-04-25T09:17:47.394Z</time></trkpt><trkpt lat="44.3261983" lon="10.9864467"><ele>662.0</ele><time>2026-04-25T09:17:48.391Z</time></trkpt><trkpt lat="44.3262433" lon="10.9863567"><ele>661.6</ele><time>2026-04-25T09:17:49.394Z</time></trkpt><trkpt lat="44.326285" lon="10.9862767"><ele>661.2</ele><time>2026-04-25T09:17:50.395Z</time></trkpt><trkpt lat="44.3263317" lon="10.986205"><ele>660.8</ele><time>2026-04-25T09:17:51.391Z</time></trkpt><trkpt lat="44.3264083" lon="10.98609"><ele>660.4</ele><time>2026-04-25T09:17:53.393Z</time></trkpt><trkpt lat="44.3264617" lon="10.9859733"><ele>660.0</ele><time>2026-04-25T09:17:55.39Z</time></trkpt><trkpt lat="44.32651" lon="10.98583"><ele>662.8</ele><time>2026-04-25T09:17:57.392Z</time></trkpt><trkpt lat="44.3265667" lon="10.98568"><ele>665.6</ele><time>2026-04-25T09:17:59.392Z</time></trkpt><trkpt lat="44.3266167" lon="10.9856067"><ele>668.4000000000001</ele><time>2026-04-25T09:18:00.39Z</time></trkpt><trkpt lat="44.3266933" lon="10.9855233"><ele>671.2</ele><time>2026-04-25T09:18:01.391Z</time></trkpt><trkpt lat="44.326765" lon="10.9854367"><ele>674.0</ele><time>2026-04-25T09:18:02.396Z</time></trkpt><trkpt lat="44.32683" lon="10.9853533"><ele>674.0</ele><time>2026-04-25T09:18:03.393Z</time></trkpt><trkpt lat="44.3268883" lon="10.985275"><ele>674.0</ele><time>2026-04-25T09:18:04.391Z</time></trkpt><trkpt lat="44.3269433" lon="10.985195"><ele>674.0</ele><time>2026-04-25T09:18:05.39Z</time></trkpt><trkpt lat="44.3270017" lon="10.9851067"><ele>674.0</ele><time>2026-04-25T09:18:06.393Z</time></trkpt><trkpt lat="44.3270683" lon="10.985015"><ele>674.0</ele><time>2026-04-25T09:18:07.394Z</time></trkpt><trkpt lat="44.3271367" lon="10.984945"><ele>674.0</ele><time>2026-04-25T09:18:08.392Z</time></trkpt><trkpt lat="44.3272083" lon="10.984885"><ele>676.8333333333333</ele><time>2026-04-25T09:18:09.39Z</time></trkpt><trkpt lat="44.3272917" lon="10.98484"><ele>679.6666666666666</ele><time>2026-04-25T09:18:10.39Z</time></trkpt><trkpt lat="44.3273633" lon="10.9847917"><ele>682.5</ele><time>2026-04-25T09:18:11.39Z</time></trkpt><trkpt lat="44.3274233" lon="10.984725"><ele>685.3333333333334</ele><time>2026-04-25T09:18:12.392Z</time></trkpt><trkpt lat="44.3274767" lon="10.98464"><ele>688.1666666666667</ele><time>2026-04-25T09:18:13.392Z</time></trkpt><trkpt lat="44.3275383" lon="10.9845533"><ele>691.0</ele><time>2026-04-25T09:18:14.394Z</time></trkpt><trkpt lat="44.3276067" lon="10.9844717"><ele>691.0</ele><time>2026-04-25T09:18:15.389Z</time></trkpt><trkpt lat="44.327675" lon="10.9844017"><ele>691.0</ele><time>2026-04-25T09:18:16.392Z</time></trkpt><trkpt lat="44.32774" lon="10.9843333"><ele>691.0</ele><time>2026-04-25T09:18:17.39Z</time></trkpt><trkpt lat="44.3277983" lon="10.9842633"><ele>691.0</ele><time>2026-04-25T09:18:18.394Z</time></trkpt><trkpt lat="44.327865" lon="10.984185"><ele>691.0</ele><time>2026-04-25T09:18:19.393Z</time></trkpt><trkpt lat="44.327935" lon="10.98413"><ele>691.0</ele><time>2026-04-25T09:18:20.396Z</time></trkpt><trkpt lat="44.3280017" lon="10.98408"><ele>690.0</ele><time>2026-04-25T09:18:21.39Z</time></trkpt><trkpt lat="44.32806" lon="10.9840433"><ele>689.0</ele><time>2026-04-25T09:18:22.393Z</time></trkpt><trkpt lat="44.328135" lon="10.9840067"><ele>688.0</ele><time>2026-04-25T09:18:33.396Z</time></trkpt><trkpt lat="44.3281183" lon="10.9839067"><ele>687.0</ele><time>2026-04-25T09:29:41.392Z</time></trkpt><trkpt lat="44.3280917" lon="10.9837683"><ele>686.0</ele><time>2026-04-25T09:35:47.392Z</time></trkpt><trkpt lat="44.328025" lon="10.9837"><ele>685.0</ele><time>2026-04-25T09:35:49.392Z</time></trkpt><trkpt lat="44.327945" lon="10.9836067"><ele>685.0</ele><time>2026-04-25T09:35:51.393Z</time></trkpt><trkpt lat="44.3278567" lon="10.98349"><ele>685.0</ele><time>2026-04-25T09:35:53.393Z</time></trkpt><trkpt lat="44.3278117" lon="10.9834283"><ele>685.0</ele><time>2026-04-25T09:35:54.394Z</time></trkpt><trkpt lat="44.3277683" lon="10.9833617"><ele>685.0</ele><time>2026-04-25T09:35:55.392Z</time></trkpt><trkpt lat="44.3277317" lon="10.9832867"><ele>685.0</ele><time>2026-04-25T09:35:56.393Z</time></trkpt><trkpt lat="44.3276733" lon="10.9831617"><ele>685.0</ele><time>2026-04-25T09:35:58.391Z</time></trkpt><trkpt lat="44.3275883" lon="10.9830967"><ele>686.6</ele><time>2026-04-25T09:36:00.394Z</time></trkpt><trkpt lat="44.3274867" lon="10.9830783"><ele>688.2</ele><time>2026-04-25T09:36:02.395Z</time></trkpt><trkpt lat="44.3274133" lon="10.9830833"><ele>689.8</ele><time>2026-04-25T09:36:04.397Z</time></trkpt><trkpt lat="44.3273417" lon="10.98306"><ele>691.4</ele><time>2026-04-25T09:36:14.394Z</time></trkpt><trkpt lat="44.3272367" lon="10.9829733"><ele>693.0</ele><time>2026-04-25T09:36:16.393Z</time></trkpt><trkpt lat="44.3271683" lon="10.9829067"><ele>693.0</ele><time>2026-04-25T09:36:17.394Z</time></trkpt><trkpt lat="44.327095" lon="10.9828433"><ele>693.0</ele><time>2026-04-25T09:36:18.396Z</time></trkpt><trkpt lat="44.32703" lon="10.9827817"><ele>693.0</ele><time>2026-04-25T09:36:19.393Z</time></trkpt><trkpt lat="44.326965" lon="10.9827317"><ele>693.0</ele><time>2026-04-25T09:36:20.396Z</time></trkpt><trkpt lat="44.3269" lon="10.982695"><ele>693.0</ele><time>2026-04-25T09:36:21.395Z</time></trkpt><trkpt lat="44.3268367" lon="10.982645"><ele>693.0</ele><time>2026-04-25T09:36:22.393Z</time></trkpt><trkpt lat="44.326775" lon="10.9825917"><ele>693.0</ele><time>2026-04-25T09:36:23.395Z</time></trkpt><trkpt lat="44.32672" lon="10.9825333"><ele>693.0</ele><time>2026-04-25T09:36:24.392Z</time></trkpt><trkpt lat="44.3266733" lon="10.98246"><ele>693.0</ele><time>2026-04-25T09:36:25.394Z</time></trkpt><trkpt lat="44.3266333" lon="10.9823767"><ele>693.0</ele><time>2026-04-25T09:36:26.394Z</time></trkpt><trkpt lat="44.3266067" lon="10.9822833"><ele>693.0</ele><time>2026-04-25T09:36:27.393Z</time></trkpt><trkpt lat="44.326595" lon="10.982175"><ele>693.0</ele><time>2026-04-25T09:36:28.393Z</time></trkpt><trkpt lat="44.326595" lon="10.9820567"><ele>693.0</ele><time>2026-04-25T09:36:29.393Z</time></trkpt><trkpt lat="44.3265883" lon="10.9819567"><ele>692.5</ele><time>2026-04-25T09:36:30.394Z</time></trkpt><trkpt lat="44.3265683" lon="10.9818717"><ele>692.0</ele><time>2026-04-25T09:36:31.392Z</time></trkpt><trkpt lat="44.3264883" lon="10.9817617"><ele>691.5</ele><time>2026-04-25T09:36:33.393Z</time></trkpt><trkpt lat="44.32641" lon="10.98163"><ele>691.0</ele><time>2026-04-25T09:36:35.394Z</time></trkpt><trkpt lat="44.326375" lon="10.9815383"><ele>690.5</ele><time>2026-04-25T09:36:36.394Z</time></trkpt><trkpt lat="44.32634" lon="10.9814467"><ele>690.0</ele><time>2026-04-25T09:36:37.394Z</time></trkpt><trkpt lat="44.3263167" lon="10.9813617"><ele>690.0</ele><time>2026-04-25T09:36:38.392Z</time></trkpt><trkpt lat="44.3262717" lon="10.9812083"><ele>690.0</ele><time>2026-04-25T09:36:40.392Z</time></trkpt><trkpt lat="44.3262367" lon="10.9811283"><ele>690.0</ele><time>2026-04-25T09:36:41.393Z</time></trkpt><trkpt lat="44.3262033" lon="10.9810467"><ele>690.0</ele><time>2026-04-25T09:36:42.392Z</time></trkpt><trkpt lat="44.3261767" lon="10.980955"><ele>690.0</ele><time>2026-04-25T09:36:43.393Z</time></trkpt><trkpt lat="44.3261533" lon="10.980855"><ele>690.0</ele><time>2026-04-25T09:36:44.39Z</time></trkpt><trkpt lat="44.3261367" lon="10.9807567"><ele>691.6666666666666</ele><time>2026-04-25T09:36:45.394Z</time></trkpt><trkpt lat="44.32612" lon="10.98067"><ele>693.3333333333334</ele><time>2026-04-25T09:36:46.39Z</time></trkpt><trkpt lat="44.3260983" lon="10.98053"><ele>695.0</ele><time>2026-04-25T09:36:48.388Z</time></trkpt><trkpt lat="44.32609" lon="10.98042"><ele>696.6666666666667</ele><time>2026-04-25T09:36:50.394Z</time></trkpt><trkpt lat="44.326115" lon="10.9802933"><ele>698.3333333333334</ele><time>2026-04-25T09:36:53.394Z</time></trkpt><trkpt lat="44.3261383" lon="10.9801717"><ele>700.0</ele><time>2026-04-25T09:36:55.39Z</time></trkpt><trkpt lat="44.326175" lon="10.9800017"><ele>700.1428571428571</ele><time>2026-04-25T09:36:57.392Z</time></trkpt><trkpt lat="44.3261933" lon="10.9799167"><ele>700.2857142857142</ele><time>2026-04-25T09:36:58.393Z</time></trkpt><trkpt lat="44.3262133" lon="10.979825"><ele>700.4285714285714</ele><time>2026-04-25T09:36:59.392Z</time></trkpt><trkpt lat="44.326225" lon="10.9797317"><ele>700.5714285714286</ele><time>2026-04-25T09:37:00.393Z</time></trkpt><trkpt lat="44.326235" lon="10.9796317"><ele>700.7142857142857</ele><time>2026-04-25T09:37:01.393Z</time></trkpt><trkpt lat="44.3262383" lon="10.9795283"><ele>700.8571428571429</ele><time>2026-04-25T09:37:02.392Z</time></trkpt><trkpt lat="44.3262367" lon="10.979425"><ele>701.0</ele><time>2026-04-25T09:37:03.392Z</time></trkpt><trkpt lat="44.3262383" lon="10.9793267"><ele>701.0</ele><time>2026-04-25T09:37:04.391Z</time></trkpt><trkpt lat="44.32625" lon="10.9791933"><ele>701.0</ele><time>2026-04-25T09:37:06.393Z</time></trkpt><trkpt lat="44.3262567" lon="10.9791017"><ele>701.0</ele><time>2026-04-25T09:37:08.395Z</time></trkpt><trkpt lat="44.3262467" lon="10.9789867"><ele>701.0</ele><time>2026-04-25T09:37:10.393Z</time></trkpt><trkpt lat="44.3262533" lon="10.9788733"><ele>701.0</ele><time>2026-04-25T09:37:12.393Z</time></trkpt><trkpt lat="44.3262883" lon="10.9787367"><ele>701.0</ele><time>2026-04-25T09:37:14.394Z</time></trkpt><trkpt lat="44.3263517" lon="10.9785733"><ele>700.6666666666666</ele><time>2026-04-25T09:37:16.393Z</time></trkpt><trkpt lat="44.3263883" lon="10.9784883"><ele>700.3333333333333</ele><time>2026-04-25T09:37:17.396Z</time></trkpt><trkpt lat="44.32643" lon="10.9783867"><ele>700.0</ele><time>2026-04-25T09:37:18.392Z</time></trkpt><trkpt lat="44.3264567" lon="10.9782833"><ele>699.6666666666666</ele><time>2026-04-25T09:37:19.394Z</time></trkpt><trkpt lat="44.3264817" lon="10.9781733"><ele>699.3333333333334</ele><time>2026-04-25T09:37:20.395Z</time></trkpt><trkpt lat="44.326495" lon="10.978065"><ele>699.0</ele><time>2026-04-25T09:37:21.393Z</time></trkpt><trkpt lat="44.3264933" lon="10.9779583"><ele>698.8571428571428</ele><time>2026-04-25T09:37:22.392Z</time></trkpt><trkpt lat="44.32648" lon="10.9778583"><ele>698.7142857142858</ele><time>2026-04-25T09:37:23.392Z</time></trkpt><trkpt lat="44.3264683" lon="10.9777583"><ele>698.5714285714286</ele><time>2026-04-25T09:37:24.392Z</time></trkpt><trkpt lat="44.3264633" lon="10.9776583"><ele>698.4285714285713</ele><time>2026-04-25T09:37:25.392Z</time></trkpt><trkpt lat="44.3264533" lon="10.977555"><ele>698.2857142857142</ele><time>2026-04-25T09:37:26.393Z</time></trkpt><trkpt lat="44.3264433" lon="10.977455"><ele>698.1428571428571</ele><time>2026-04-25T09:37:27.392Z</time></trkpt><trkpt lat="44.326435" lon="10.9773583"><ele>698.0</ele><time>2026-04-25T09:37:28.391Z</time></trkpt><trkpt lat="44.326415" lon="10.97719"><ele>698.8</ele><time>2026-04-25T09:37:30.394Z</time></trkpt><trkpt lat="44.326395" lon="10.977035"><ele>699.5999999999999</ele><time>2026-04-25T09:37:32.393Z</time></trkpt><trkpt lat="44.3263367" lon="10.97695"><ele>700.4000000000001</ele><time>2026-04-25T09:37:34.393Z</time></trkpt><trkpt lat="44.3262367" lon="10.9769217"><ele>701.2</ele><time>2026-04-25T09:37:36.394Z</time></trkpt><trkpt lat="44.3261733" lon="10.976915"><ele>702.0</ele><time>2026-04-25T09:37:37.394Z</time></trkpt><trkpt lat="44.32608" lon="10.9769133"><ele>698.3333333333334</ele><time>2026-04-25T09:37:39.393Z</time></trkpt><trkpt lat="44.3260067" lon="10.9769033"><ele>694.6666666666666</ele><time>2026-04-25T09:37:41.393Z</time></trkpt><trkpt lat="44.3259317" lon="10.9769333"><ele>691.0</ele><time>2026-04-25T09:37:44.394Z</time></trkpt><trkpt lat="44.3259167" lon="10.9770283"><ele>687.3333333333333</ele><time>2026-04-25T09:37:46.39Z</time></trkpt><trkpt lat="44.3259017" lon="10.9771467"><ele>683.6666666666666</ele><time>2026-04-25T09:37:48.394Z</time></trkpt><trkpt lat="44.3258533" lon="10.977235"><ele>680.0</ele><time>2026-04-25T09:37:50.395Z</time></trkpt><trkpt lat="44.3257883" lon="10.9772983"><ele>680.0</ele><time>2026-04-25T09:37:52.393Z</time></trkpt><trkpt lat="44.3257233" lon="10.9773683"><ele>680.0</ele><time>2026-04-25T09:37:55.394Z</time></trkpt><trkpt lat="44.3256467" lon="10.97734"><ele>680.0</ele><time>2026-04-25T09:37:57.394Z</time></trkpt><trkpt lat="44.3255567" lon="10.9772767"><ele>680.0</ele><time>2026-04-25T09:37:59.394Z</time></trkpt><trkpt lat="44.3254683" lon="10.9772117"><ele>680.0</ele><time>2026-04-25T09:38:01.394Z</time></trkpt><trkpt lat="44.325405" lon="10.9771067"><ele>676.0</ele><time>2026-04-25T09:38:03.393Z</time></trkpt><trkpt lat="44.3253567" lon="10.9769783"><ele>672.0</ele><time>2026-04-25T09:38:05.392Z</time></trkpt><trkpt lat="44.3252883" lon="10.9769083"><ele>668.0</ele><time>2026-04-25T09:38:07.392Z</time></trkpt><trkpt lat="44.32524" lon="10.9768083"><ele>664.0</ele><time>2026-04-25T09:38:10.393Z</time></trkpt><trkpt lat="44.3252483" lon="10.9766933"><ele>660.0</ele><time>2026-04-25T09:38:12.392Z</time></trkpt><trkpt lat="44.3252483" lon="10.9765067"><ele>658.4285714285714</ele><time>2026-04-25T09:38:14.395Z</time></trkpt><trkpt lat="44.325245" lon="10.9764083"><ele>656.8571428571429</ele><time>2026-04-25T09:38:15.393Z</time></trkpt><trkpt lat="44.3252517" lon="10.9763083"><ele>655.2857142857142</ele><time>2026-04-25T09:38:16.394Z</time></trkpt><trkpt lat="44.3252583" lon="10.9762"><ele>653.7142857142858</ele><time>2026-04-25T09:38:17.393Z</time></trkpt><trkpt lat="44.3252617" lon="10.976095"><ele>652.1428571428571</ele><time>2026-04-25T09:38:18.394Z</time></trkpt><trkpt lat="44.325265" lon="10.975985"><ele>650.5714285714286</ele><time>2026-04-25T09:38:19.392Z</time></trkpt><trkpt lat="44.3252683" lon="10.97589"><ele>649.0</ele><time>2026-04-25T09:38:20.395Z</time></trkpt><trkpt lat="44.3252717" lon="10.9757967"><ele>648.1666666666667</ele><time>2026-04-25T09:38:21.393Z</time></trkpt><trkpt lat="44.3252833" lon="10.9756983"><ele>647.3333333333334</ele><time>2026-04-25T09:38:22.394Z</time></trkpt><trkpt lat="44.32529" lon="10.9755933"><ele>646.5</ele><time>2026-04-25T09:38:23.394Z</time></trkpt><trkpt lat="44.3252783" lon="10.9754883"><ele>645.6666666666666</ele><time>2026-04-25T09:38:24.393Z</time></trkpt><trkpt lat="44.325245" lon="10.9753833"><ele>644.8333333333333</ele><time>2026-04-25T09:38:25.392Z</time></trkpt><trkpt lat="44.3251967" lon="10.975285"><ele>644.0</ele><time>2026-04-25T09:38:26.394Z</time></trkpt><trkpt lat="44.325145" lon="10.9751817"><ele>644.0</ele><time>2026-04-25T09:38:27.394Z</time></trkpt><trkpt lat="44.325085" lon="10.9750833"><ele>644.0</ele><time>2026-04-25T09:38:28.392Z</time></trkpt><trkpt lat="44.3250183" lon="10.9749917"><ele>644.0</ele><time>2026-04-25T09:38:29.392Z</time></trkpt><trkpt lat="44.3249517" lon="10.9749067"><ele>644.0</ele><time>2026-04-25T09:38:30.393Z</time></trkpt><trkpt lat="44.3248967" lon="10.9748267"><ele>644.0</ele><time>2026-04-25T09:38:31.392Z</time></trkpt><trkpt lat="44.3248417" lon="10.974745"><ele>644.0</ele><time>2026-04-25T09:38:32.393Z</time></trkpt><trkpt lat="44.32479" lon="10.9746633"><ele>645.1428571428571</ele><time>2026-04-25T09:38:33.393Z</time></trkpt><trkpt lat="44.324745" lon="10.9745817"><ele>646.2857142857142</ele><time>2026-04-25T09:38:34.393Z</time></trkpt><trkpt lat="44.3247083" lon="10.97449"><ele>647.4285714285714</ele><time>2026-04-25T09:38:35.393Z</time></trkpt><trkpt lat="44.3246783" lon="10.9744017"><ele>648.5714285714286</ele><time>2026-04-25T09:38:36.394Z</time></trkpt><trkpt lat="44.32466" lon="10.9743083"><ele>649.7142857142857</ele><time>2026-04-25T09:38:37.391Z</time></trkpt><trkpt lat="44.3246533" lon="10.97421"><ele>650.8571428571429</ele><time>2026-04-25T09:38:38.393Z</time></trkpt><trkpt lat="44.3246483" lon="10.9741"><ele>652.0</ele><time>2026-04-25T09:38:39.394Z</time></trkpt><trkpt lat="44.32464" lon="10.974"><ele>648.0</ele><time>2026-04-25T09:38:40.392Z</time></trkpt><trkpt lat="44.32462" lon="10.97391"><ele>644.0</ele><time>2026-04-25T09:38:41.393Z</time></trkpt><trkpt lat="44.3245883" lon="10.9738267"><ele>640.0</ele><time>2026-04-25T09:38:42.393Z</time></trkpt><trkpt lat="44.3245417" lon="10.973685"><ele>636.0</ele><time>2026-04-25T09:38:44.393Z</time></trkpt><trkpt lat="44.324545" lon="10.9735467"><ele>632.0</ele><time>2026-04-25T09:38:46.393Z</time></trkpt><trkpt lat="44.32457" lon="10.9733633"><ele>634.5</ele><time>2026-04-25T09:38:48.393Z</time></trkpt><trkpt lat="44.3245867" lon="10.973265"><ele>637.0</ele><time>2026-04-25T09:38:49.392Z</time></trkpt><trkpt lat="44.3245917" lon="10.973165"><ele>639.5</ele><time>2026-04-25T09:38:50.395Z</time></trkpt><trkpt lat="44.3246" lon="10.9730583"><ele>642.0</ele><time>2026-04-25T09:38:51.392Z</time></trkpt><trkpt lat="44.3246083" lon="10.9729533"><ele>644.5</ele><time>2026-04-25T09:38:52.394Z</time></trkpt><trkpt lat="44.32462" lon="10.9728567"><ele>647.0</ele><time>2026-04-25T09:38:53.392Z</time></trkpt><trkpt lat="44.324655" lon="10.9727"><ele>647.0</ele><time>2026-04-25T09:38:55.393Z</time></trkpt><trkpt lat="44.324715" lon="10.972575"><ele>647.0</ele><time>2026-04-25T09:38:57.394Z</time></trkpt><trkpt lat="44.32482" lon="10.9724867"><ele>647.0</ele><time>2026-04-25T09:38:59.394Z</time></trkpt><trkpt lat="44.3248933" lon="10.9724417"><ele>647.0</ele><time>2026-04-25T09:39:00.393Z</time></trkpt><trkpt lat="44.3249683" lon="10.9723717"><ele>647.0</ele><time>2026-04-25T09:39:01.393Z</time></trkpt><trkpt lat="44.3250533" lon="10.972295"><ele>650.0</ele><time>2026-04-25T09:39:02.392Z</time></trkpt><trkpt lat="44.325145" lon="10.972225"><ele>653.0</ele><time>2026-04-25T09:39:03.392Z</time></trkpt><trkpt lat="44.3252217" lon="10.972165"><ele>656.0</ele><time>2026-04-25T09:39:04.391Z</time></trkpt><trkpt lat="44.3252917" lon="10.9721033"><ele>659.0</ele><time>2026-04-25T09:39:05.393Z</time></trkpt><trkpt lat="44.3253567" lon="10.9720267"><ele>662.0</ele><time>2026-04-25T09:39:06.393Z</time></trkpt><trkpt lat="44.325415" lon="10.9719267"><ele>662.0</ele><time>2026-04-25T09:39:07.393Z</time></trkpt><trkpt lat="44.3254633" lon="10.9718083"><ele>662.0</ele><time>2026-04-25T09:39:08.394Z</time></trkpt><trkpt lat="44.3255017" lon="10.971685"><ele>662.0</ele><time>2026-04-25T09:39:09.391Z</time></trkpt><trkpt lat="44.3255367" lon="10.9715567"><ele>662.0</ele><time>2026-04-25T09:39:10.393Z</time></trkpt><trkpt lat="44.325565" lon="10.9714267"><ele>662.0</ele><time>2026-04-25T09:39:11.394Z</time></trkpt><trkpt lat="44.3255817" lon="10.9712933"><ele>664.0</ele><time>2026-04-25T09:39:12.392Z</time></trkpt><trkpt lat="44.3255917" lon="10.971155"><ele>666.0</ele><time>2026-04-25T09:39:13.393Z</time></trkpt><trkpt lat="44.325595" lon="10.971005"><ele>668.0</ele><time>2026-04-25T09:39:14.394Z</time></trkpt><trkpt lat="44.325595" lon="10.9708567"><ele>670.0</ele><time>2026-04-25T09:39:15.395Z</time></trkpt><trkpt lat="44.3255967" lon="10.9707217"><ele>672.0</ele><time>2026-04-25T09:39:16.392Z</time></trkpt><trkpt lat="44.3255917" lon="10.9706017"><ele>672.3333333333334</ele><time>2026-04-25T09:39:17.394Z</time></trkpt><trkpt lat="44.3255967" lon="10.9705067"><ele>672.6666666666666</ele><time>2026-04-25T09:39:18.394Z</time></trkpt><trkpt lat="44.3256267" lon="10.97037"><ele>673.0</ele><time>2026-04-25T09:39:20.394Z</time></trkpt><trkpt lat="44.3257067" lon="10.97025"><ele>673.3333333333333</ele><time>2026-04-25T09:39:22.393Z</time></trkpt><trkpt lat="44.3257667" lon="10.9701917"><ele>673.6666666666666</ele><time>2026-04-25T09:39:23.394Z</time></trkpt><trkpt lat="44.3258383" lon="10.9701317"><ele>674.0</ele><time>2026-04-25T09:39:24.393Z</time></trkpt><trkpt lat="44.3259167" lon="10.9700633"><ele>674.6</ele><time>2026-04-25T09:39:25.394Z</time></trkpt><trkpt lat="44.3260017" lon="10.9699883"><ele>675.2</ele><time>2026-04-25T09:39:26.392Z</time></trkpt><trkpt lat="44.3260817" lon="10.96992"><ele>675.8000000000001</ele><time>2026-04-25T09:39:27.394Z</time></trkpt><trkpt lat="44.32615" lon="10.9698567"><ele>676.4000000000001</ele><time>2026-04-25T09:39:28.392Z</time></trkpt><trkpt lat="44.3262067" lon="10.9698067"><ele>677.0</ele><time>2026-04-25T09:39:29.391Z</time></trkpt><trkpt lat="44.3262817" lon="10.9696867"><ele>677.0</ele><time>2026-04-25T09:39:31.394Z</time></trkpt><trkpt lat="44.326305" lon="10.9695933"><ele>677.0</ele><time>2026-04-25T09:39:32.392Z</time></trkpt><trkpt lat="44.326325" lon="10.9694867"><ele>677.0</ele><time>2026-04-25T09:39:33.392Z</time></trkpt><trkpt lat="44.3263533" lon="10.9693683"><ele>677.0</ele><time>2026-04-25T09:39:34.395Z</time></trkpt><trkpt lat="44.326385" lon="10.9692467"><ele>677.0</ele><time>2026-04-25T09:39:35.393Z</time></trkpt><trkpt lat="44.32641" lon="10.9691167"><ele>677.0</ele><time>2026-04-25T09:39:36.393Z</time></trkpt><trkpt lat="44.326425" lon="10.968975"><ele>676.8</ele><time>2026-04-25T09:39:37.392Z</time></trkpt><trkpt lat="44.3264217" lon="10.9688267"><ele>676.6</ele><time>2026-04-25T09:39:38.393Z</time></trkpt><trkpt lat="44.3264067" lon="10.96868"><ele>676.4</ele><time>2026-04-25T09:39:39.393Z</time></trkpt><trkpt lat="44.3263867" lon="10.96853"><ele>676.1999999999999</ele><time>2026-04-25T09:39:40.392Z</time></trkpt><trkpt lat="44.3263683" lon="10.9683883"><ele>676.0</ele><time>2026-04-25T09:39:41.392Z</time></trkpt><trkpt lat="44.3263367" lon="10.968255"><ele>675.4</ele><time>2026-04-25T09:39:42.394Z</time></trkpt><trkpt lat="44.3262883" lon="10.9681267"><ele>674.8</ele><time>2026-04-25T09:39:43.393Z</time></trkpt><trkpt lat="44.3262433" lon="10.9680117"><ele>674.1999999999999</ele><time>2026-04-25T09:39:44.394Z</time></trkpt><trkpt lat="44.3261983" lon="10.9679"><ele>673.5999999999999</ele><time>2026-04-25T09:39:45.393Z</time></trkpt><trkpt lat="44.3261617" lon="10.967785"><ele>673.0</ele><time>2026-04-25T09:39:46.393Z</time></trkpt><trkpt lat="44.3261417" lon="10.9676733"><ele>673.0</ele><time>2026-04-25T09:39:47.392Z</time></trkpt><trkpt lat="44.3261283" lon="10.967565"><ele>673.0</ele><time>2026-04-25T09:39:48.393Z</time></trkpt><trkpt lat="44.3261267" lon="10.96746"><ele>673.0</ele><time>2026-04-25T09:39:49.394Z</time></trkpt><trkpt lat="44.32613" lon="10.9673583"><ele>673.0</ele><time>2026-04-25T09:39:50.394Z</time></trkpt><trkpt lat="44.3261433" lon="10.96726"><ele>673.0</ele><time>2026-04-25T09:39:51.393Z</time></trkpt><trkpt lat="44.32616" lon="10.9671583"><ele>673.0</ele><time>2026-04-25T09:39:52.393Z</time></trkpt><trkpt lat="44.32618" lon="10.9670467"><ele>672.6666666666667</ele><time>2026-04-25T09:39:53.393Z</time></trkpt><trkpt lat="44.32621" lon="10.9669367"><ele>672.3333333333334</ele><time>2026-04-25T09:39:54.393Z</time></trkpt><trkpt lat="44.3262417" lon="10.96683"><ele>672.0</ele><time>2026-04-25T09:39:55.393Z</time></trkpt><trkpt lat="44.3262767" lon="10.9667183"><ele>671.6666666666666</ele><time>2026-04-25T09:39:56.393Z</time></trkpt><trkpt lat="44.32632" lon="10.9666017"><ele>671.3333333333333</ele><time>2026-04-25T09:39:57.393Z</time></trkpt><trkpt lat="44.3263683" lon="10.9664917"><ele>671.0</ele><time>2026-04-25T09:39:58.393Z</time></trkpt><trkpt lat="44.3264233" lon="10.966395"><ele>672.5</ele><time>2026-04-25T09:39:59.393Z</time></trkpt><trkpt lat="44.3264883" lon="10.9663083"><ele>674.0</ele><time>2026-04-25T09:40:00.394Z</time></trkpt><trkpt lat="44.32656" lon="10.9662283"><ele>675.5</ele><time>2026-04-25T09:40:01.395Z</time></trkpt><trkpt lat="44.3266333" lon="10.9661533"><ele>677.0</ele><time>2026-04-25T09:40:02.395Z</time></trkpt><trkpt lat="44.326705" lon="10.9660883"><ele>678.5</ele><time>2026-04-25T09:40:03.394Z</time></trkpt><trkpt lat="44.3267733" lon="10.9660217"><ele>680.0</ele><time>2026-04-25T09:40:04.394Z</time></trkpt><trkpt lat="44.3268367" lon="10.96596"><ele>680.0</ele><time>2026-04-25T09:40:05.393Z</time></trkpt><trkpt lat="44.3269" lon="10.9659067"><ele>680.0</ele><time>2026-04-25T09:40:06.394Z</time></trkpt><trkpt lat="44.3269567" lon="10.9658517"><ele>680.0</ele><time>2026-04-25T09:40:07.394Z</time></trkpt><trkpt lat="44.327005" lon="10.9657917"><ele>680.0</ele><time>2026-04-25T09:40:08.393Z</time></trkpt><trkpt lat="44.327035" lon="10.96564"><ele>680.0</ele><time>2026-04-25T09:40:10.393Z</time></trkpt><trkpt lat="44.32701" lon="10.96546"><ele>677.6666666666666</ele><time>2026-04-25T09:40:12.394Z</time></trkpt><trkpt lat="44.3270033" lon="10.9653533"><ele>675.3333333333333</ele><time>2026-04-25T09:40:13.392Z</time></trkpt><trkpt lat="44.32701" lon="10.9652367"><ele>673.0</ele><time>2026-04-25T09:40:14.393Z</time></trkpt><trkpt lat="44.327025" lon="10.9651117"><ele>670.6666666666666</ele><time>2026-04-25T09:40:15.393Z</time></trkpt><trkpt lat="44.327055" lon="10.964985"><ele>668.3333333333334</ele><time>2026-04-25T09:40:16.392Z</time></trkpt><trkpt lat="44.3270933" lon="10.96486"><ele>666.0</ele><time>2026-04-25T09:40:17.392Z</time></trkpt><trkpt lat="44.3271383" lon="10.9647317"><ele>664.0</ele><time>2026-04-25T09:40:18.397Z</time></trkpt><trkpt lat="44.3271917" lon="10.9646033"><ele>662.0</ele><time>2026-04-25T09:40:19.393Z</time></trkpt><trkpt lat="44.3272433" lon="10.9644683"><ele>660.0</ele><time>2026-04-25T09:40:20.393Z</time></trkpt><trkpt lat="44.3272883" lon="10.9643317"><ele>658.0</ele><time>2026-04-25T09:40:21.394Z</time></trkpt><trkpt lat="44.3273167" lon="10.9642033"><ele>656.0</ele><time>2026-04-25T09:40:22.393Z</time></trkpt><trkpt lat="44.3273383" lon="10.964095"><ele>658.8571428571428</ele><time>2026-04-25T09:40:23.394Z</time></trkpt><trkpt lat="44.32736" lon="10.9640017"><ele>661.7142857142857</ele><time>2026-04-25T09:40:24.394Z</time></trkpt><trkpt lat="44.3273783" lon="10.9639117"><ele>664.5714285714286</ele><time>2026-04-25T09:40:25.392Z</time></trkpt><trkpt lat="44.3273967" lon="10.963825"><ele>667.4285714285713</ele><time>2026-04-25T09:40:26.389Z</time></trkpt><trkpt lat="44.3274167" lon="10.9637317"><ele>670.2857142857142</ele><time>2026-04-25T09:40:27.393Z</time></trkpt><trkpt lat="44.3274417" lon="10.96363"><ele>673.1428571428571</ele><time>2026-04-25T09:40:28.394Z</time></trkpt><trkpt lat="44.32747" lon="10.96352"><ele>676.0</ele><time>2026-04-25T09:40:29.392Z</time></trkpt><trkpt lat="44.3275" lon="10.9634033"><ele>675.1999999999999</ele><time>2026-04-25T09:40:30.394Z</time></trkpt><trkpt lat="44.32754" lon="10.9632817"><ele>674.4</ele><time>2026-04-25T09:40:31.393Z</time></trkpt><trkpt lat="44.32758" lon="10.9631633"><ele>673.6</ele><time>2026-04-25T09:40:32.394Z</time></trkpt><trkpt lat="44.3276217" lon="10.9630483"><ele>672.8</ele><time>2026-04-25T09:40:33.393Z</time></trkpt><trkpt lat="44.3276617" lon="10.9629283"><ele>672.0</ele><time>2026-04-25T09:40:34.392Z</time></trkpt><trkpt lat="44.3276967" lon="10.9628033"><ele>672.0</ele><time>2026-04-25T09:40:35.393Z</time></trkpt><trkpt lat="44.32772" lon="10.9626733"><ele>672.0</ele><time>2026-04-25T09:40:36.395Z</time></trkpt><trkpt lat="44.3277383" lon="10.9625333"><ele>672.0</ele><time>2026-04-25T09:40:37.393Z</time></trkpt><trkpt lat="44.327755" lon="10.9623883"><ele>672.0</ele><time>2026-04-25T09:40:38.394Z</time></trkpt><trkpt lat="44.327775" lon="10.9622483"><ele>672.0</ele><time>2026-04-25T09:40:39.392Z</time></trkpt><trkpt lat="44.3277967" lon="10.962115"><ele>671.8333333333334</ele><time>2026-04-25T09:40:40.393Z</time></trkpt><trkpt lat="44.327825" lon="10.9619917"><ele>671.6666666666666</ele><time>2026-04-25T09:40:41.394Z</time></trkpt><trkpt lat="44.32786" lon="10.9618817"><ele>671.5</ele><time>2026-04-25T09:40:42.394Z</time></trkpt><trkpt lat="44.3279033" lon="10.9617867"><ele>671.3333333333333</ele><time>2026-04-25T09:40:43.39Z</time></trkpt><trkpt lat="44.3279483" lon="10.9617017"><ele>671.1666666666666</ele><time>2026-04-25T09:40:44.394Z</time></trkpt><trkpt lat="44.327985" lon="10.9616233"><ele>671.0</ele><time>2026-04-25T09:40:45.396Z</time></trkpt><trkpt lat="44.3280033" lon="10.9614633"><ele>671.0</ele><time>2026-04-25T09:40:47.396Z</time></trkpt><trkpt lat="44.32798" lon="10.9613033"><ele>671.0</ele><time>2026-04-25T09:40:49.395Z</time></trkpt><trkpt lat="44.3279417" lon="10.961135"><ele>671.0</ele><time>2026-04-25T09:40:51.396Z</time></trkpt><trkpt lat="44.3279133" lon="10.9610383"><ele>671.0</ele><time>2026-04-25T09:40:52.395Z</time></trkpt><trkpt lat="44.327875" lon="10.9609317"><ele>671.0</ele><time>2026-04-25T09:40:53.395Z</time></trkpt><trkpt lat="44.327845" lon="10.96082"><ele>670.8333333333333</ele><time>2026-04-25T09:40:54.394Z</time></trkpt><trkpt lat="44.3278133" lon="10.9607133"><ele>670.6666666666666</ele><time>2026-04-25T09:40:55.396Z</time></trkpt><trkpt lat="44.3277867" lon="10.96062"><ele>670.5</ele><time>2026-04-25T09:40:56.395Z</time></trkpt><trkpt lat="44.327765" lon="10.9605333"><ele>670.3333333333334</ele><time>2026-04-25T09:40:57.395Z</time></trkpt><trkpt lat="44.327735" lon="10.960375"><ele>670.1666666666667</ele><time>2026-04-25T09:40:59.394Z</time></trkpt><trkpt lat="44.3277183" lon="10.9602283"><ele>670.0</ele><time>2026-04-25T09:41:01.393Z</time></trkpt><trkpt lat="44.3277067" lon="10.9600833"><ele>669.0</ele><time>2026-04-25T09:41:03.392Z</time></trkpt><trkpt lat="44.3276983" lon="10.9599417"><ele>668.0</ele><time>2026-04-25T09:41:05.394Z</time></trkpt><trkpt lat="44.3276933" lon="10.959785"><ele>667.0</ele><time>2026-04-25T09:41:07.394Z</time></trkpt><trkpt lat="44.3276883" lon="10.959695"><ele>666.0</ele><time>2026-04-25T09:41:08.395Z</time></trkpt><trkpt lat="44.3276817" lon="10.95959"><ele>665.0</ele><time>2026-04-25T09:41:09.394Z</time></trkpt><trkpt lat="44.3276733" lon="10.9594717"><ele>664.0</ele><time>2026-04-25T09:41:10.391Z</time></trkpt><trkpt lat="44.3276633" lon="10.9593367"><ele>662.6</ele><time>2026-04-25T09:41:11.395Z</time></trkpt><trkpt lat="44.3276467" lon="10.95919"><ele>661.2</ele><time>2026-04-25T09:41:12.394Z</time></trkpt><trkpt lat="44.327625" lon="10.9590367"><ele>659.8000000000001</ele><time>2026-04-25T09:41:13.394Z</time></trkpt><trkpt lat="44.3276" lon="10.9588817"><ele>658.4000000000001</ele><time>2026-04-25T09:41:14.395Z</time></trkpt><trkpt lat="44.3275667" lon="10.9587283"><ele>657.0</ele><time>2026-04-25T09:41:15.395Z</time></trkpt><trkpt lat="44.3275217" lon="10.9585817"><ele>657.0</ele><time>2026-04-25T09:41:16.395Z</time></trkpt><trkpt lat="44.3274783" lon="10.9584333"><ele>657.0</ele><time>2026-04-25T09:41:17.395Z</time></trkpt><trkpt lat="44.327435" lon="10.958285"><ele>657.0</ele><time>2026-04-25T09:41:18.395Z</time></trkpt><trkpt lat="44.3273983" lon="10.9581383"><ele>657.0</ele><time>2026-04-25T09:41:19.395Z</time></trkpt><trkpt lat="44.3273583" lon="10.9579983"><ele>657.0</ele><time>2026-04-25T09:41:20.395Z</time></trkpt><trkpt lat="44.327315" lon="10.9578617"><ele>656.0</ele><time>2026-04-25T09:41:21.395Z</time></trkpt><trkpt lat="44.3272683" lon="10.9577283"><ele>655.0</ele><time>2026-04-25T09:41:22.395Z</time></trkpt><trkpt lat="44.3272233" lon="10.95759"><ele>654.0</ele><time>2026-04-25T09:41:23.394Z</time></trkpt><trkpt lat="44.32718" lon="10.9574417"><ele>653.0</ele><time>2026-04-25T09:41:24.393Z</time></trkpt><trkpt lat="44.327145" lon="10.9572833"><ele>652.0</ele><time>2026-04-25T09:41:25.394Z</time></trkpt><trkpt lat="44.3271217" lon="10.95712"><ele>650.0</ele><time>2026-04-25T09:41:26.394Z</time></trkpt><trkpt lat="44.3270967" lon="10.95696"><ele>648.0</ele><time>2026-04-25T09:41:27.394Z</time></trkpt><trkpt lat="44.32708" lon="10.9568133"><ele>646.0</ele><time>2026-04-25T09:41:28.393Z</time></trkpt><trkpt lat="44.3270717" lon="10.9566667"><ele>644.0</ele><time>2026-04-25T09:41:29.394Z</time></trkpt><trkpt lat="44.3270733" lon="10.9565267"><ele>642.0</ele><time>2026-04-25T09:41:30.395Z</time></trkpt><trkpt lat="44.3270967" lon="10.9563883"><ele>642.0</ele><time>2026-04-25T09:41:31.393Z</time></trkpt><trkpt lat="44.3271417" lon="10.9562583"><ele>642.0</ele><time>2026-04-25T09:41:32.395Z</time></trkpt><trkpt lat="44.3271867" lon="10.9561367"><ele>642.0</ele><time>2026-04-25T09:41:33.393Z</time></trkpt><trkpt lat="44.3272067" lon="10.9559967"><ele>642.0</ele><time>2026-04-25T09:41:34.393Z</time></trkpt><trkpt lat="44.32719" lon="10.9558467"><ele>642.0</ele><time>2026-04-25T09:41:35.394Z</time></trkpt><trkpt lat="44.327155" lon="10.955695"><ele>643.25</ele><time>2026-04-25T09:41:36.393Z</time></trkpt><trkpt lat="44.3271167" lon="10.9555317"><ele>644.5</ele><time>2026-04-25T09:41:37.393Z</time></trkpt><trkpt lat="44.3270783" lon="10.9553733"><ele>645.75</ele><time>2026-04-25T09:41:38.394Z</time></trkpt><trkpt lat="44.3270483" lon="10.95522"><ele>647.0</ele><time>2026-04-25T09:41:39.393Z</time></trkpt><trkpt lat="44.3270233" lon="10.9550767"><ele>647.4000000000001</ele><time>2026-04-25T09:41:40.393Z</time></trkpt><trkpt lat="44.3270017" lon="10.9549467"><ele>647.8000000000001</ele><time>2026-04-25T09:41:41.393Z</time></trkpt><trkpt lat="44.3269833" lon="10.9548267"><ele>648.2</ele><time>2026-04-25T09:41:42.392Z</time></trkpt><trkpt lat="44.32697" lon="10.9547033"><ele>648.6</ele><time>2026-04-25T09:41:43.392Z</time></trkpt><trkpt lat="44.3269617" lon="10.9545617"><ele>649.0</ele><time>2026-04-25T09:41:44.394Z</time></trkpt><trkpt lat="44.3269683" lon="10.9544083"><ele>649.0</ele><time>2026-04-25T09:41:45.393Z</time></trkpt><trkpt lat="44.326975" lon="10.9542533"><ele>649.0</ele><time>2026-04-25T09:41:46.392Z</time></trkpt><trkpt lat="44.3269783" lon="10.9541"><ele>649.0</ele><time>2026-04-25T09:41:47.394Z</time></trkpt><trkpt lat="44.3269733" lon="10.9539533"><ele>649.0</ele><time>2026-04-25T09:41:48.393Z</time></trkpt><trkpt lat="44.3269567" lon="10.9538117"><ele>649.0</ele><time>2026-04-25T09:41:49.394Z</time></trkpt><trkpt lat="44.3269333" lon="10.9536783"><ele>647.1666666666667</ele><time>2026-04-25T09:41:50.394Z</time></trkpt><trkpt lat="44.3269133" lon="10.9535517"><ele>645.3333333333334</ele><time>2026-04-25T09:41:51.394Z</time></trkpt><trkpt lat="44.3269067" lon="10.9534217"><ele>643.5</ele><time>2026-04-25T09:41:52.393Z</time></trkpt><trkpt lat="44.3269167" lon="10.9532917"><ele>641.6666666666666</ele><time>2026-04-25T09:41:53.395Z</time></trkpt><trkpt lat="44.3269383" lon="10.9531733"><ele>639.8333333333333</ele><time>2026-04-25T09:41:54.393Z</time></trkpt><trkpt lat="44.3269533" lon="10.9530683"><ele>638.0</ele><time>2026-04-25T09:41:55.393Z</time></trkpt><trkpt lat="44.3269533" lon="10.952965"><ele>636.1666666666666</ele><time>2026-04-25T09:41:56.393Z</time></trkpt><trkpt lat="44.32693" lon="10.95287"><ele>634.3333333333333</ele><time>2026-04-25T09:41:57.392Z</time></trkpt><trkpt lat="44.3268767" lon="10.95279"><ele>632.5</ele><time>2026-04-25T09:41:58.394Z</time></trkpt><trkpt lat="44.3267983" lon="10.95273"><ele>630.6666666666666</ele><time>2026-04-25T09:41:59.394Z</time></trkpt><trkpt lat="44.32671" lon="10.9527033"><ele>628.8333333333334</ele><time>2026-04-25T09:42:00.393Z</time></trkpt><trkpt lat="44.3266283" lon="10.952705"><ele>627.0</ele><time>2026-04-25T09:42:01.393Z</time></trkpt><trkpt lat="44.3265533" lon="10.9527183"><ele>627.0</ele><time>2026-04-25T09:42:02.394Z</time></trkpt><trkpt lat="44.326485" lon="10.9527333"><ele>627.0</ele><time>2026-04-25T09:42:03.393Z</time></trkpt><trkpt lat="44.3263783" lon="10.9527233"><ele>627.0</ele><time>2026-04-25T09:42:05.393Z</time></trkpt><trkpt lat="44.326325" lon="10.9525933"><ele>627.0</ele><time>2026-04-25T09:42:07.393Z</time></trkpt><trkpt lat="44.3263767" lon="10.9525033"><ele>627.0</ele><time>2026-04-25T09:42:08.394Z</time></trkpt><trkpt lat="44.3264467" lon="10.9524233"><ele>625.0</ele><time>2026-04-25T09:42:09.393Z</time></trkpt><trkpt lat="44.3265233" lon="10.9523633"><ele>623.0</ele><time>2026-04-25T09:42:10.392Z</time></trkpt><trkpt lat="44.3266" lon="10.9523067"><ele>621.0</ele><time>2026-04-25T09:42:11.393Z</time></trkpt><trkpt lat="44.3266683" lon="10.952255"><ele>619.0</ele><time>2026-04-25T09:42:12.393Z</time></trkpt><trkpt lat="44.3267317" lon="10.9522133"><ele>617.0</ele><time>2026-04-25T09:42:13.392Z</time></trkpt><trkpt lat="44.326795" lon="10.952175"><ele>615.0</ele><time>2026-04-25T09:42:14.395Z</time></trkpt><trkpt lat="44.3268583" lon="10.9521383"><ele>615.0</ele><time>2026-04-25T09:42:15.393Z</time></trkpt><trkpt lat="44.3269233" lon="10.9521083"><ele>615.0</ele><time>2026-04-25T09:42:16.393Z</time></trkpt><trkpt lat="44.3269867" lon="10.952085"><ele>615.0</ele><time>2026-04-25T09:42:17.393Z</time></trkpt><trkpt lat="44.3270683" lon="10.95198"><ele>615.0</ele><time>2026-04-25T09:42:19.392Z</time></trkpt><trkpt lat="44.3270067" lon="10.9518367"><ele>615.0</ele><time>2026-04-25T09:42:21.394Z</time></trkpt><trkpt lat="44.3269283" lon="10.9517817"><ele>615.0</ele><time>2026-04-25T09:42:22.392Z</time></trkpt><trkpt lat="44.326835" lon="10.951715"><ele>615.0</ele><time>2026-04-25T09:42:23.392Z</time></trkpt><trkpt lat="44.3267467" lon="10.9516383"><ele>615.0</ele><time>2026-04-25T09:42:24.394Z</time></trkpt><trkpt lat="44.32666" lon="10.9515517"><ele>615.0</ele><time>2026-04-25T09:42:25.392Z</time></trkpt><trkpt lat="44.3265817" lon="10.95144"><ele>615.0</ele><time>2026-04-25T09:42:26.392Z</time></trkpt><trkpt lat="44.32652" lon="10.95131"><ele>611.75</ele><time>2026-04-25T09:42:27.393Z</time></trkpt><trkpt lat="44.3264567" lon="10.9511783"><ele>608.5</ele><time>2026-04-25T09:42:28.401Z</time></trkpt><trkpt lat="44.3263833" lon="10.951055"><ele>605.25</ele><time>2026-04-25T09:42:29.394Z</time></trkpt><trkpt lat="44.326295" lon="10.9509533"><ele>602.0</ele><time>2026-04-25T09:42:30.393Z</time></trkpt><trkpt lat="44.3262" lon="10.9508583"><ele>597.8000000000001</ele><time>2026-04-25T09:42:31.393Z</time></trkpt><trkpt lat="44.3261033" lon="10.95076"><ele>593.6</ele><time>2026-04-25T09:42:32.393Z</time></trkpt><trkpt lat="44.32601" lon="10.9506567"><ele>589.4000000000001</ele><time>2026-04-25T09:42:33.393Z</time></trkpt><trkpt lat="44.325925" lon="10.9505567"><ele>585.2</ele><time>2026-04-25T09:42:34.393Z</time></trkpt><trkpt lat="44.32585" lon="10.950465"><ele>581.0</ele><time>2026-04-25T09:42:35.393Z</time></trkpt><trkpt lat="44.3257867" lon="10.950375"><ele>581.0</ele><time>2026-04-25T09:42:36.392Z</time></trkpt><trkpt lat="44.3257383" lon="10.9502817"><ele>581.0</ele><time>2026-04-25T09:42:37.393Z</time></trkpt><trkpt lat="44.32571" lon="10.9501883"><ele>581.0</ele><time>2026-04-25T09:42:38.396Z</time></trkpt><trkpt lat="44.325705" lon="10.9501"><ele>581.0</ele><time>2026-04-25T09:42:39.394Z</time></trkpt><trkpt lat="44.3257367" lon="10.9499317"><ele>581.0</ele><time>2026-04-25T09:42:41.393Z</time></trkpt><trkpt lat="44.3257567" lon="10.9498367"><ele>581.0</ele><time>2026-04-25T09:42:42.392Z</time></trkpt><trkpt lat="44.325775" lon="10.9497283"><ele>579.7142857142857</ele><time>2026-04-25T09:42:43.393Z</time></trkpt><trkpt lat="44.3257833" lon="10.949615"><ele>578.4285714285714</ele><time>2026-04-25T09:42:44.393Z</time></trkpt><trkpt lat="44.3257767" lon="10.9495117"><ele>577.1428571428571</ele><time>2026-04-25T09:42:45.392Z</time></trkpt><trkpt lat="44.325755" lon="10.9494183"><ele>575.8571428571429</ele><time>2026-04-25T09:42:46.392Z</time></trkpt><trkpt lat="44.3257283" lon="10.9493333"><ele>574.5714285714286</ele><time>2026-04-25T09:42:47.392Z</time></trkpt><trkpt lat="44.3256917" lon="10.9492517"><ele>573.2857142857142</ele><time>2026-04-25T09:42:48.393Z</time></trkpt><trkpt lat="44.3256517" lon="10.9491683"><ele>572.0</ele><time>2026-04-25T09:42:49.393Z</time></trkpt><trkpt lat="44.3256017" lon="10.9490883"><ele>568.5</ele><time>2026-04-25T09:42:50.394Z</time></trkpt><trkpt lat="44.325555" lon="10.94902"><ele>565.0</ele><time>2026-04-25T09:42:51.393Z</time></trkpt><trkpt lat="44.3255033" lon="10.948855"><ele>561.5</ele><time>2026-04-25T09:42:53.392Z</time></trkpt><trkpt lat="44.3255017" lon="10.9487567"><ele>558.0</ele><time>2026-04-25T09:42:54.394Z</time></trkpt><trkpt lat="44.3254967" lon="10.9486683"><ele>554.5</ele><time>2026-04-25T09:42:55.394Z</time></trkpt><trkpt lat="44.325475" lon="10.9485817"><ele>551.0</ele><time>2026-04-25T09:42:56.394Z</time></trkpt><trkpt lat="44.3254467" lon="10.9484867"><ele>551.0</ele><time>2026-04-25T09:42:57.393Z</time></trkpt><trkpt lat="44.3254133" lon="10.9483817"><ele>551.0</ele><time>2026-04-25T09:42:58.389Z</time></trkpt><trkpt lat="44.3253783" lon="10.9482767"><ele>551.0</ele><time>2026-04-25T09:42:59.39Z</time></trkpt><trkpt lat="44.325345" lon="10.9481617"><ele>551.0</ele><time>2026-04-25T09:43:00.395Z</time></trkpt><trkpt lat="44.325305" lon="10.9480317"><ele>551.0</ele><time>2026-04-25T09:43:01.393Z</time></trkpt><trkpt lat="44.3252733" lon="10.947895"><ele>550.8</ele><time>2026-04-25T09:43:02.393Z</time></trkpt><trkpt lat="44.3252467" lon="10.9477617"><ele>550.6</ele><time>2026-04-25T09:43:03.394Z</time></trkpt><trkpt lat="44.3252317" lon="10.947625"><ele>550.4</ele><time>2026-04-25T09:43:04.393Z</time></trkpt><trkpt lat="44.325225" lon="10.9474933"><ele>550.2</ele><time>2026-04-25T09:43:05.392Z</time></trkpt><trkpt lat="44.3252083" lon="10.947385"><ele>550.0</ele><time>2026-04-25T09:43:06.394Z</time></trkpt><trkpt lat="44.3251767" lon="10.94728"><ele>549.0</ele><time>2026-04-25T09:43:07.393Z</time></trkpt><trkpt lat="44.3251333" lon="10.947175"><ele>548.0</ele><time>2026-04-25T09:43:08.394Z</time></trkpt><trkpt lat="44.3250833" lon="10.9470683"><ele>547.0</ele><time>2026-04-25T09:43:09.393Z</time></trkpt><trkpt lat="44.325025" lon="10.94697"><ele>546.0</ele><time>2026-04-25T09:43:10.393Z</time></trkpt><trkpt lat="44.32496" lon="10.9468817"><ele>545.0</ele><time>2026-04-25T09:43:11.393Z</time></trkpt><trkpt lat="44.3249" lon="10.9467883"><ele>543.5</ele><time>2026-04-25T09:43:12.394Z</time></trkpt><trkpt lat="44.3248467" lon="10.9466967"><ele>542.0</ele><time>2026-04-25T09:43:13.391Z</time></trkpt><trkpt lat="44.3248" lon="10.9466033"><ele>540.5</ele><time>2026-04-25T09:43:14.391Z</time></trkpt><trkpt lat="44.324765" lon="10.94651"><ele>539.0</ele><time>2026-04-25T09:43:15.393Z</time></trkpt><trkpt lat="44.3247333" lon="10.94642"><ele>537.5</ele><time>2026-04-25T09:43:16.393Z</time></trkpt><trkpt lat="44.3247067" lon="10.9463283"><ele>536.0</ele><time>2026-04-25T09:43:17.393Z</time></trkpt><trkpt lat="44.3246833" lon="10.9462367"><ele>531.6</ele><time>2026-04-25T09:43:18.394Z</time></trkpt><trkpt lat="44.3246683" lon="10.9461483"><ele>527.2</ele><time>2026-04-25T09:43:19.394Z</time></trkpt><trkpt lat="44.3246533" lon="10.94598"><ele>522.8</ele><time>2026-04-25T09:43:21.391Z</time></trkpt><trkpt lat="44.32468" lon="10.9458183"><ele>518.4</ele><time>2026-04-25T09:43:23.392Z</time></trkpt><trkpt lat="44.3247183" lon="10.9456717"><ele>514.0</ele><time>2026-04-25T09:43:25.393Z</time></trkpt><trkpt lat="44.3247217" lon="10.94553"><ele>514.0</ele><time>2026-04-25T09:43:27.392Z</time></trkpt><trkpt lat="44.3247183" lon="10.9453967"><ele>514.0</ele><time>2026-04-25T09:43:29.394Z</time></trkpt><trkpt lat="44.3247233" lon="10.9453017"><ele>514.0</ele><time>2026-04-25T09:43:31.396Z</time></trkpt><trkpt lat="44.3247667" lon="10.9452017"><ele>514.0</ele><time>2026-04-25T09:43:33.394Z</time></trkpt><trkpt lat="44.32482" lon="10.9450583"><ele>514.0</ele><time>2026-04-25T09:43:35.396Z</time></trkpt><trkpt lat="44.3248367" lon="10.94491"><ele>514.0</ele><time>2026-04-25T09:43:37.393Z</time></trkpt><trkpt lat="44.3248533" lon="10.944725"><ele>514.0</ele><time>2026-04-25T09:43:39.394Z</time></trkpt><trkpt lat="44.3248667" lon="10.9446117"><ele>514.0</ele><time>2026-04-25T09:43:40.392Z</time></trkpt><trkpt lat="44.3248817" lon="10.944495"><ele>514.0</ele><time>2026-04-25T09:43:41.394Z</time></trkpt><trkpt lat="44.3248983" lon="10.94439"><ele>514.0</ele><time>2026-04-25T09:43:42.392Z</time></trkpt><trkpt lat="44.3249117" lon="10.94429"><ele>512.5</ele><time>2026-04-25T09:43:43.391Z</time></trkpt><trkpt lat="44.3249233" lon="10.9441833"><ele>511.0</ele><time>2026-04-25T09:43:44.393Z</time></trkpt><trkpt lat="44.32493" lon="10.944075"><ele>509.5</ele><time>2026-04-25T09:43:45.394Z</time></trkpt><trkpt lat="44.3249233" lon="10.94397"><ele>508.0</ele><time>2026-04-25T09:43:46.392Z</time></trkpt><trkpt lat="44.3248983" lon="10.9438667"><ele>506.50000000000006</ele><time>2026-04-25T09:43:47.393Z</time></trkpt><trkpt lat="44.3248733" lon="10.943755"><ele>505.0</ele><time>2026-04-25T09:43:48.394Z</time></trkpt><trkpt lat="44.3248583" lon="10.9436533"><ele>505.00000000000006</ele><time>2026-04-25T09:43:49.393Z</time></trkpt><trkpt lat="44.324835" lon="10.94348"><ele>505.0</ele><time>2026-04-25T09:43:51.393Z</time></trkpt><trkpt lat="44.3248117" lon="10.943385"><ele>505.0</ele><time>2026-04-25T09:43:52.393Z</time></trkpt><trkpt lat="44.32478" lon="10.9432867"><ele>505.0</ele><time>2026-04-25T09:43:53.395Z</time></trkpt><trkpt lat="44.3247517" lon="10.943185"><ele>505.00000000000006</ele><time>2026-04-25T09:43:54.394Z</time></trkpt><trkpt lat="44.3247367" lon="10.9430883"><ele>505.0</ele><time>2026-04-25T09:43:55.395Z</time></trkpt><trkpt lat="44.3247533" lon="10.9429367"><ele>504.83333333333337</ele><time>2026-04-25T09:43:57.393Z</time></trkpt><trkpt lat="44.3247867" lon="10.9428567"><ele>504.6666666666667</ele><time>2026-04-25T09:43:58.393Z</time></trkpt><trkpt lat="44.32482" lon="10.942765"><ele>504.5</ele><time>2026-04-25T09:43:59.393Z</time></trkpt><trkpt lat="44.3248517" lon="10.9426717"><ele>504.33333333333337</ele><time>2026-04-25T09:44:00.394Z</time></trkpt><trkpt lat="44.3248933" lon="10.942515"><ele>504.1666666666667</ele><time>2026-04-25T09:44:02.393Z</time></trkpt><trkpt lat="44.324935" lon="10.9423883"><ele>504.0</ele><time>2026-04-25T09:44:04.393Z</time></trkpt><trkpt lat="44.3249617" lon="10.94226"><ele>503.79999999999995</ele><time>2026-04-25T09:44:06.392Z</time></trkpt><trkpt lat="44.3249483" lon="10.942145"><ele>503.59999999999997</ele><time>2026-04-25T09:44:08.395Z</time></trkpt><trkpt lat="44.3248617" lon="10.94211"><ele>503.4</ele><time>2026-04-25T09:44:10.394Z</time></trkpt><trkpt lat="44.324775" lon="10.9421817"><ele>503.2</ele><time>2026-04-25T09:44:12.393Z</time></trkpt><trkpt lat="44.32468" lon="10.942235"><ele>503.0</ele><time>2026-04-25T09:44:14.394Z</time></trkpt><trkpt lat="44.3245983" lon="10.942265"><ele>499.5714285714286</ele><time>2026-04-25T09:44:16.394Z</time></trkpt><trkpt lat="44.32453" lon="10.9422733"><ele>496.1428571428572</ele><time>2026-04-25T09:44:18.395Z</time></trkpt><trkpt lat="44.3244717" lon="10.94224"><ele>492.7142857142857</ele><time>2026-04-25T09:44:20.396Z</time></trkpt><trkpt lat="44.3244317" lon="10.9421267"><ele>489.28571428571433</ele><time>2026-04-25T09:44:23.394Z</time></trkpt><trkpt lat="44.3244517" lon="10.9420333"><ele>485.8571428571429</ele><time>2026-04-25T09:44:25.395Z</time></trkpt><trkpt lat="44.3244733" lon="10.9419317"><ele>482.42857142857144</ele><time>2026-04-25T09:44:27.393Z</time></trkpt><trkpt lat="44.3244733" lon="10.9418233"><ele>479.0</ele><time>2026-04-25T09:44:29.394Z</time></trkpt><trkpt lat="44.324485" lon="10.9417033"><ele>477.0</ele><time>2026-04-25T09:44:31.394Z</time></trkpt><trkpt lat="44.3245317" lon="10.94155"><ele>475.0</ele><time>2026-04-25T09:44:33.393Z</time></trkpt><trkpt lat="44.3245533" lon="10.9414633"><ele>473.0</ele><time>2026-04-25T09:44:34.393Z</time></trkpt><trkpt lat="44.3245667" lon="10.9413767"><ele>471.0</ele><time>2026-04-25T09:44:35.393Z</time></trkpt><trkpt lat="44.324575" lon="10.9412167"><ele>469.0</ele><time>2026-04-25T09:44:37.394Z</time></trkpt><trkpt lat="44.3245767" lon="10.94107"><ele>469.0</ele><time>2026-04-25T09:44:39.393Z</time></trkpt><trkpt lat="44.3245467" lon="10.9409467"><ele>469.0</ele><time>2026-04-25T09:44:41.393Z</time></trkpt><trkpt lat="44.3245233" lon="10.940815"><ele>469.0</ele><time>2026-04-25T09:44:43.394Z</time></trkpt><trkpt lat="44.3244883" lon="10.940685"><ele>469.0</ele><time>2026-04-25T09:44:45.392Z</time></trkpt><trkpt lat="44.3244533" lon="10.94055"><ele>469.0</ele><time>2026-04-25T09:44:47.394Z</time></trkpt><trkpt lat="44.32441" lon="10.94039"><ele>466.79999999999995</ele><time>2026-04-25T09:44:49.393Z</time></trkpt><trkpt lat="44.3243683" lon="10.94023"><ele>464.59999999999997</ele><time>2026-04-25T09:44:51.392Z</time></trkpt><trkpt lat="44.3243233" lon="10.9401217"><ele>462.4</ele><time>2026-04-25T09:44:53.392Z</time></trkpt><trkpt lat="44.3242667" lon="10.9400283"><ele>460.2</ele><time>2026-04-25T09:44:55.392Z</time></trkpt><trkpt lat="44.3242317" lon="10.9399333"><ele>458.0</ele><time>2026-04-25T09:44:57.394Z</time></trkpt><trkpt lat="44.3242217" lon="10.9398117"><ele>456.0</ele><time>2026-04-25T09:44:59.391Z</time></trkpt><trkpt lat="44.3242133" lon="10.9396733"><ele>453.99999999999994</ele><time>2026-04-25T09:45:01.391Z</time></trkpt><trkpt lat="44.3242267" lon="10.9395383"><ele>451.99999999999994</ele><time>2026-04-25T09:45:03.395Z</time></trkpt><trkpt lat="44.324225" lon="10.9393883"><ele>450.0</ele><time>2026-04-25T09:45:05.393Z</time></trkpt><trkpt lat="44.3242067" lon="10.9392283"><ele>448.0</ele><time>2026-04-25T09:45:07.393Z</time></trkpt><trkpt lat="44.32419" lon="10.9390733"><ele>445.4</ele><time>2026-04-25T09:45:09.392Z</time></trkpt><trkpt lat="44.324175" lon="10.938915"><ele>442.79999999999995</ele><time>2026-04-25T09:45:11.393Z</time></trkpt><trkpt lat="44.324145" lon="10.9387483"><ele>440.2</ele><time>2026-04-25T09:45:13.391Z</time></trkpt><trkpt lat="44.3241183" lon="10.9386633"><ele>437.6</ele><time>2026-04-25T09:45:14.393Z</time></trkpt><trkpt lat="44.324095" lon="10.9385583"><ele>435.0</ele><time>2026-04-25T09:45:15.393Z</time></trkpt><trkpt lat="44.3240783" lon="10.9384533"><ele>432.8333333333333</ele><time>2026-04-25T09:45:16.393Z</time></trkpt><trkpt lat="44.3240683" lon="10.93833"><ele>430.66666666666663</ele><time>2026-04-25T09:45:17.392Z</time></trkpt><trkpt lat="44.32407" lon="10.93821"><ele>428.5</ele><time>2026-04-25T09:45:18.392Z</time></trkpt><trkpt lat="44.3240783" lon="10.9380983"><ele>426.3333333333333</ele><time>2026-04-25T09:45:19.392Z</time></trkpt><trkpt lat="44.324085" lon="10.937995"><ele>424.16666666666663</ele><time>2026-04-25T09:45:20.393Z</time></trkpt><trkpt lat="44.3240683" lon="10.9378317"><ele>422.0</ele><time>2026-04-25T09:45:22.391Z</time></trkpt><trkpt lat="44.3239983" lon="10.9376583"><ele>420.0</ele><time>2026-04-25T09:45:24.393Z</time></trkpt><trkpt lat="44.3239633" lon="10.9375517"><ele>418.0</ele><time>2026-04-25T09:45:25.394Z</time></trkpt><trkpt lat="44.323925" lon="10.9374367"><ele>416.0</ele><time>2026-04-25T09:45:26.393Z</time></trkpt><trkpt lat="44.323905" lon="10.9373117"><ele>414.0</ele><time>2026-04-25T09:45:27.395Z</time></trkpt><trkpt lat="44.3238983" lon="10.9371733"><ele>412.0</ele><time>2026-04-25T09:45:28.392Z</time></trkpt><trkpt lat="44.3238917" lon="10.9370333"><ele>410.83333333333337</ele><time>2026-04-25T09:45:29.397Z</time></trkpt><trkpt lat="44.3238867" lon="10.9369067"><ele>409.6666666666667</ele><time>2026-04-25T09:45:30.394Z</time></trkpt><trkpt lat="44.3238767" lon="10.9367917"><ele>408.5</ele><time>2026-04-25T09:45:31.396Z</time></trkpt><trkpt lat="44.323855" lon="10.9366817"><ele>407.33333333333337</ele><time>2026-04-25T09:45:32.394Z</time></trkpt><trkpt lat="44.3238367" lon="10.9365833"><ele>406.1666666666667</ele><time>2026-04-25T09:45:33.392Z</time></trkpt><trkpt lat="44.3237683" lon="10.9364433"><ele>405.0</ele><time>2026-04-25T09:45:35.397Z</time></trkpt><trkpt lat="44.3237167" lon="10.93639"><ele>405.0</ele><time>2026-04-25T09:45:36.39Z</time></trkpt><trkpt lat="44.323655" lon="10.93633"><ele>405.0</ele><time>2026-04-25T09:45:37.394Z</time></trkpt><trkpt lat="44.3235783" lon="10.9362867"><ele>405.0</ele><time>2026-04-25T09:45:38.397Z</time></trkpt><trkpt lat="44.3235117" lon="10.9362483"><ele>405.0</ele><time>2026-04-25T09:45:39.392Z</time></trkpt><trkpt lat="44.3234133" lon="10.9361517"><ele>405.0</ele><time>2026-04-25T09:45:41.392Z</time></trkpt><trkpt lat="44.32338" lon="10.9359967"><ele>404.99999999999994</ele><time>2026-04-25T09:45:43.395Z</time></trkpt><trkpt lat="44.323385" lon="10.935905"><ele>405.0</ele><time>2026-04-25T09:45:44.396Z</time></trkpt><trkpt lat="44.3233933" lon="10.9358167"><ele>405.0</ele><time>2026-04-25T09:45:45.392Z</time></trkpt><trkpt lat="44.3234017" lon="10.9357267"><ele>405.0</ele><time>2026-04-25T09:45:46.393Z</time></trkpt><trkpt lat="44.323405" lon="10.935635"><ele>405.0</ele><time>2026-04-25T09:45:47.392Z</time></trkpt><trkpt lat="44.3234067" lon="10.9355467"><ele>404.99999999999994</ele><time>2026-04-25T09:45:48.392Z</time></trkpt><trkpt lat="44.3234067" lon="10.9354583"><ele>405.0</ele><time>2026-04-25T09:45:49.393Z</time></trkpt><trkpt lat="44.3234117" lon="10.9352883"><ele>403.75</ele><time>2026-04-25T09:45:51.393Z</time></trkpt><trkpt lat="44.3234267" lon="10.9351217"><ele>402.5</ele><time>2026-04-25T09:45:53.393Z</time></trkpt><trkpt lat="44.32344" lon="10.9349517"><ele>401.25</ele><time>2026-04-25T09:45:55.395Z</time></trkpt><trkpt lat="44.323445" lon="10.9347867"><ele>400.0</ele><time>2026-04-25T09:45:57.395Z</time></trkpt><trkpt lat="44.32346" lon="10.9346533"><ele>398.2</ele><time>2026-04-25T09:45:59.398Z</time></trkpt><trkpt lat="44.32347" lon="10.9345017"><ele>396.4</ele><time>2026-04-25T09:46:01.394Z</time></trkpt><trkpt lat="44.3234733" lon="10.9344133"><ele>394.6</ele><time>2026-04-25T09:46:02.396Z</time></trkpt><trkpt lat="44.323485" lon="10.93425"><ele>392.8</ele><time>2026-04-25T09:46:04.397Z</time></trkpt><trkpt lat="44.3235" lon="10.93409"><ele>391.0</ele><time>2026-04-25T09:46:06.393Z</time></trkpt><trkpt lat="44.3235" lon="10.93392"><ele>389.33333333333337</ele><time>2026-04-25T09:46:08.394Z</time></trkpt><trkpt lat="44.32349" lon="10.93383"><ele>387.6666666666667</ele><time>2026-04-25T09:46:09.394Z</time></trkpt><trkpt lat="44.3234717" lon="10.933745"><ele>386.0</ele><time>2026-04-25T09:46:10.394Z</time></trkpt><trkpt lat="44.3234517" lon="10.9336583"><ele>384.33333333333337</ele><time>2026-04-25T09:46:11.394Z</time></trkpt><trkpt lat="44.3234133" lon="10.93351"><ele>382.6666666666667</ele><time>2026-04-25T09:46:13.394Z</time></trkpt><trkpt lat="44.32339" lon="10.9334"><ele>381.0</ele><time>2026-04-25T09:46:15.394Z</time></trkpt><trkpt lat="44.32338" lon="10.933285"><ele>377.8333333333333</ele><time>2026-04-25T09:46:17.394Z</time></trkpt><trkpt lat="44.3233683" lon="10.9331717"><ele>374.6666666666667</ele><time>2026-04-25T09:46:19.393Z</time></trkpt><trkpt lat="44.3233567" lon="10.9330667"><ele>371.5</ele><time>2026-04-25T09:46:21.394Z</time></trkpt><trkpt lat="44.3233467" lon="10.9329683"><ele>368.33333333333337</ele><time>2026-04-25T09:46:23.394Z</time></trkpt><trkpt lat="44.3233183" lon="10.9328717"><ele>365.1666666666667</ele><time>2026-04-25T09:46:25.394Z</time></trkpt><trkpt lat="44.3232717" lon="10.9327233"><ele>362.0</ele><time>2026-04-25T09:46:27.394Z</time></trkpt><trkpt lat="44.3232483" lon="10.93264"><ele>360.5</ele><time>2026-04-25T09:46:28.392Z</time></trkpt><trkpt lat="44.3232067" lon="10.9325067"><ele>359.0</ele><time>2026-04-25T09:46:30.392Z</time></trkpt><trkpt lat="44.3231133" lon="10.9324783"><ele>357.5</ele><time>2026-04-25T09:46:32.395Z</time></trkpt><trkpt lat="44.3230483" lon="10.9325017"><ele>356.0</ele><time>2026-04-25T09:46:33.392Z</time></trkpt><trkpt lat="44.3229833" lon="10.932525"><ele>354.5</ele><time>2026-04-25T09:46:34.393Z</time></trkpt><trkpt lat="44.3229217" lon="10.9325517"><ele>353.0</ele><time>2026-04-25T09:46:35.393Z</time></trkpt><trkpt lat="44.32281" lon="10.9326183"><ele>353.0</ele><time>2026-04-25T09:46:37.393Z</time></trkpt><trkpt lat="44.3227483" lon="10.932645"><ele>353.0</ele><time>2026-04-25T09:46:38.394Z</time></trkpt><trkpt lat="44.32264" lon="10.932625"><ele>353.0</ele><time>2026-04-25T09:46:40.394Z</time></trkpt><trkpt lat="44.3225717" lon="10.9325267"><ele>353.0</ele><time>2026-04-25T09:46:42.393Z</time></trkpt><trkpt lat="44.322545" lon="10.93239"><ele>353.0</ele><time>2026-04-25T09:46:44.393Z</time></trkpt><trkpt lat="44.322515" lon="10.932265"><ele>348.75</ele><time>2026-04-25T09:46:46.394Z</time></trkpt><trkpt lat="44.32245" lon="10.932135"><ele>344.5</ele><time>2026-04-25T09:46:48.393Z</time></trkpt><trkpt lat="44.322355" lon="10.9320233"><ele>340.25</ele><time>2026-04-25T09:46:50.394Z</time></trkpt><trkpt lat="44.3222683" lon="10.9318983"><ele>336.0</ele><time>2026-04-25T09:46:52.393Z</time></trkpt><trkpt lat="44.3222217" lon="10.9317733"><ele>330.0</ele><time>2026-04-25T09:46:54.391Z</time></trkpt><trkpt lat="44.3222294" lon="10.9316557"><ele>324.0</ele><time>2026-04-25T09:47:37.434Z</time></trkpt><trkpt lat="44.3221567" lon="10.9315667"><ele>318.0</ele><time>2026-04-25T09:47:40.395Z</time></trkpt><trkpt lat="44.322075" lon="10.9315083"><ele>312.0</ele><time>2026-04-25T09:47:43.392Z</time></trkpt><trkpt lat="44.3220317" lon="10.93144"><ele>306.0</ele><time>2026-04-25T09:47:45.393Z</time></trkpt><trkpt lat="44.3219733" lon="10.9313483"><ele>300.0</ele><time>2026-04-25T09:47:48.391Z</time></trkpt><trkpt lat="44.321905" lon="10.9312783"><ele>299.99999999999994</ele><time>2026-04-25T09:47:51.393Z</time></trkpt><trkpt lat="44.32182" lon="10.93123"><ele>300.0</ele><time>2026-04-25T09:47:54.394Z</time></trkpt><trkpt lat="44.32176" lon="10.93118"><ele>300.0</ele><time>2026-04-25T09:47:56.393Z</time></trkpt><trkpt lat="44.32172" lon="10.931105"><ele>300.0</ele><time>2026-04-25T09:47:58.392Z</time></trkpt><trkpt lat="44.3216833" lon="10.9310217"><ele>300.0</ele><time>2026-04-25T09:48:00.394Z</time></trkpt><trkpt lat="44.3216617" lon="10.9309317"><ele>299.99999999999994</ele><time>2026-04-25T09:48:02.395Z</time></trkpt><trkpt lat="44.3216217" lon="10.9308317"><ele>300.0</ele><time>2026-04-25T09:48:04.394Z</time></trkpt><trkpt lat="44.321545" lon="10.9307617"><ele>297.0</ele><time>2026-04-25T09:48:06.392Z</time></trkpt><trkpt lat="44.3214567" lon="10.9307333"><ele>294.0</ele><time>2026-04-25T09:48:08.391Z</time></trkpt><trkpt lat="44.3213667" lon="10.9307533"><ele>291.0</ele><time>2026-04-25T09:48:10.392Z</time></trkpt><trkpt lat="44.3213017" lon="10.9308433"><ele>288.0</ele><time>2026-04-25T09:48:12.39Z</time></trkpt><trkpt lat="44.3212633" lon="10.930965"><ele>285.0</ele><time>2026-04-25T09:48:14.394Z</time></trkpt><trkpt lat="44.3212217" lon="10.9310683"><ele>283.3333333333333</ele><time>2026-04-25T09:48:16.394Z</time></trkpt><trkpt lat="44.3211667" lon="10.931155"><ele>281.6666666666667</ele><time>2026-04-25T09:48:18.394Z</time></trkpt><trkpt lat="44.3211117" lon="10.9312533"><ele>280.0</ele><time>2026-04-25T09:48:20.396Z</time></trkpt><trkpt lat="44.32104" lon="10.9312917"><ele>278.33333333333337</ele><time>2026-04-25T09:48:22.396Z</time></trkpt><trkpt lat="44.3209517" lon="10.93128"><ele>276.6666666666667</ele><time>2026-04-25T09:48:24.396Z</time></trkpt><trkpt lat="44.3208633" lon="10.931295"><ele>275.0</ele><time>2026-04-25T09:48:26.396Z</time></trkpt><trkpt lat="44.32078" lon="10.931295"><ele>275.0</ele><time>2026-04-25T09:48:28.392Z</time></trkpt><trkpt lat="44.320725" lon="10.9312417"><ele>275.0</ele><time>2026-04-25T09:48:30.393Z</time></trkpt><trkpt lat="44.3206983" lon="10.93114"><ele>275.0</ele><time>2026-04-25T09:48:32.393Z</time></trkpt><trkpt lat="44.3207" lon="10.931025"><ele>275.0</ele><time>2026-04-25T09:48:34.393Z</time></trkpt><trkpt lat="44.3207017" lon="10.9309017"><ele>275.0</ele><time>2026-04-25T09:48:36.392Z</time></trkpt><trkpt lat="44.32064" lon="10.9308517"><ele>275.0</ele><time>2026-04-25T09:48:40.393Z</time></trkpt><trkpt lat="44.320575" lon="10.9309033"><ele>271.83333333333337</ele><time>2026-04-25T09:48:42.393Z</time></trkpt><trkpt lat="44.3205117" lon="10.9309917"><ele>268.6666666666667</ele><time>2026-04-25T09:48:44.394Z</time></trkpt><trkpt lat="44.3204533" lon="10.93109"><ele>265.5</ele><time>2026-04-25T09:48:46.392Z</time></trkpt><trkpt lat="44.3203917" lon="10.9311633"><ele>262.3333333333333</ele><time>2026-04-25T09:48:48.394Z</time></trkpt><trkpt lat="44.3203383" lon="10.931285"><ele>259.16666666666663</ele><time>2026-04-25T09:48:56.394Z</time></trkpt><trkpt lat="44.32029" lon="10.9313433"><ele>256.0</ele><time>2026-04-25T09:48:59.393Z</time></trkpt><trkpt lat="44.3202317" lon="10.9313867"><ele>256.0</ele><time>2026-04-25T09:49:02.398Z</time></trkpt><trkpt lat="44.3201233" lon="10.9313367"><ele>256.0</ele><time>2026-04-25T09:51:36.393Z</time></trkpt><trkpt lat="44.3200317" lon="10.9313117"><ele>256.0</ele><time>2026-04-25T09:52:34.392Z</time></trkpt><trkpt lat="44.3199783" lon="10.9312317"><ele>256.0</ele><time>2026-04-25T09:52:37.395Z</time></trkpt><trkpt lat="44.319985" lon="10.9311117"><ele>256.0</ele><time>2026-04-25T09:52:39.394Z</time></trkpt><trkpt lat="44.320025" lon="10.9309667"><ele>255.60000000000002</ele><time>2026-04-25T09:52:41.394Z</time></trkpt><trkpt lat="44.3200433" lon="10.93081"><ele>255.20000000000002</ele><time>2026-04-25T09:52:43.394Z</time></trkpt><trkpt lat="44.3200083" lon="10.93068"><ele>254.79999999999998</ele><time>2026-04-25T09:52:45.395Z</time></trkpt><trkpt lat="44.3199783" lon="10.930575"><ele>254.39999999999998</ele><time>2026-04-25T09:52:47.395Z</time></trkpt><trkpt lat="44.31998" lon="10.93046"><ele>254.0</ele><time>2026-04-25T09:52:49.393Z</time></trkpt><trkpt lat="44.32002" lon="10.9302767"><ele>254.00000000000003</ele><time>2026-04-25T09:52:51.393Z</time></trkpt><trkpt lat="44.3200583" lon="10.93017"><ele>254.0</ele><time>2026-04-25T09:52:52.393Z</time></trkpt><trkpt lat="44.320105" lon="10.9300567"><ele>254.0</ele><time>2026-04-25T09:52:53.393Z</time></trkpt><trkpt lat="44.3201517" lon="10.9299383"><ele>254.0</ele><time>2026-04-25T09:52:54.393Z</time></trkpt><trkpt lat="44.3201883" lon="10.929825"><ele>254.00000000000003</ele><time>2026-04-25T09:52:55.393Z</time></trkpt><trkpt lat="44.32022" lon="10.92972"><ele>254.0</ele><time>2026-04-25T09:52:56.394Z</time></trkpt><trkpt lat="44.3202383" lon="10.92962"><ele>254.33333333333334</ele><time>2026-04-25T09:52:57.393Z</time></trkpt><trkpt lat="44.320235" lon="10.9295183"><ele>254.66666666666669</ele><time>2026-04-25T09:52:58.393Z</time></trkpt><trkpt lat="44.3202133" lon="10.929415"><ele>255.0</ele><time>2026-04-25T09:52:59.393Z</time></trkpt><trkpt lat="44.32017" lon="10.9293133"><ele>255.33333333333331</ele><time>2026-04-25T09:53:00.392Z</time></trkpt><trkpt lat="44.320125" lon="10.9292183"><ele>255.66666666666666</ele><time>2026-04-25T09:53:01.394Z</time></trkpt><trkpt lat="44.3200833" lon="10.929125"><ele>256.0</ele><time>2026-04-25T09:53:02.395Z</time></trkpt><trkpt lat="44.3200567" lon="10.9290283"><ele>256.0</ele><time>2026-04-25T09:53:03.393Z</time></trkpt><trkpt lat="44.3200483" lon="10.92891"><ele>256.0</ele><time>2026-04-25T09:53:04.392Z</time></trkpt><trkpt lat="44.32006" lon="10.92878"><ele>256.0</ele><time>2026-04-25T09:53:05.393Z</time></trkpt><trkpt lat="44.32007" lon="10.9286483"><ele>256.0</ele><time>2026-04-25T09:53:06.393Z</time></trkpt><trkpt lat="44.32007" lon="10.9285233"><ele>256.0</ele><time>2026-04-25T09:53:07.393Z</time></trkpt><trkpt lat="44.320045" lon="10.9284033"><ele>254.60000000000002</ele><time>2026-04-25T09:53:08.393Z</time></trkpt><trkpt lat="44.3200033" lon="10.9282833"><ele>253.20000000000002</ele><time>2026-04-25T09:53:09.394Z</time></trkpt><trkpt lat="44.3199417" lon="10.9281683"><ele>251.79999999999998</ele><time>2026-04-25T09:53:10.392Z</time></trkpt><trkpt lat="44.3198783" lon="10.9280467"><ele>250.39999999999998</ele><time>2026-04-25T09:53:11.392Z</time></trkpt><trkpt lat="44.3198183" lon="10.927925"><ele>249.0</ele><time>2026-04-25T09:53:12.394Z</time></trkpt><trkpt lat="44.319765" lon="10.9278067"><ele>249.0</ele><time>2026-04-25T09:53:13.394Z</time></trkpt><trkpt lat="44.31972" lon="10.9276933"><ele>249.0</ele><time>2026-04-25T09:53:14.391Z</time></trkpt><trkpt lat="44.3196733" lon="10.9275883"><ele>249.0</ele><time>2026-04-25T09:53:15.391Z</time></trkpt><trkpt lat="44.3196267" lon="10.92749"><ele>249.0</ele><time>2026-04-25T09:53:16.393Z</time></trkpt><trkpt lat="44.3195767" lon="10.927405"><ele>249.0</ele><time>2026-04-25T09:53:17.393Z</time></trkpt><trkpt lat="44.3195183" lon="10.9273333"><ele>249.0</ele><time>2026-04-25T09:53:18.394Z</time></trkpt><trkpt lat="44.31944" lon="10.9272667"><ele>249.0</ele><time>2026-04-25T09:53:19.391Z</time></trkpt><trkpt lat="44.3193417" lon="10.927205"><ele>248.99999999999997</ele><time>2026-04-25T09:53:20.394Z</time></trkpt><trkpt lat="44.3192467" lon="10.9271367"><ele>248.99999999999997</ele><time>2026-04-25T09:53:21.395Z</time></trkpt><trkpt lat="44.3191583" lon="10.9270667"><ele>249.0</ele><time>2026-04-25T09:53:22.392Z</time></trkpt><trkpt lat="44.319065" lon="10.9269983"><ele>249.0</ele><time>2026-04-25T09:53:23.394Z</time></trkpt><trkpt lat="44.31897" lon="10.926935"><ele>249.39999999999998</ele><time>2026-04-25T09:53:24.393Z</time></trkpt><trkpt lat="44.3188783" lon="10.926865"><ele>249.79999999999998</ele><time>2026-04-25T09:53:25.393Z</time></trkpt><trkpt lat="44.318795" lon="10.926785"><ele>250.20000000000002</ele><time>2026-04-25T09:53:26.394Z</time></trkpt><trkpt lat="44.318715" lon="10.9267017"><ele>250.60000000000002</ele><time>2026-04-25T09:53:27.393Z</time></trkpt><trkpt lat="44.31863" lon="10.9266333"><ele>251.0</ele><time>2026-04-25T09:53:28.393Z</time></trkpt><trkpt lat="44.3185333" lon="10.92658"><ele>251.0</ele><time>2026-04-25T09:53:29.393Z</time></trkpt><trkpt lat="44.31843" lon="10.926535"><ele>251.00000000000003</ele><time>2026-04-25T09:53:30.393Z</time></trkpt><trkpt lat="44.3183267" lon="10.926485"><ele>251.00000000000003</ele><time>2026-04-25T09:53:31.393Z</time></trkpt><trkpt lat="44.31823" lon="10.9264167"><ele>251.0</ele><time>2026-04-25T09:53:32.398Z</time></trkpt><trkpt lat="44.318135" lon="10.9263383"><ele>251.0</ele><time>2026-04-25T09:53:33.394Z</time></trkpt><trkpt lat="44.3180433" lon="10.926245"><ele>251.0</ele><time>2026-04-25T09:53:34.392Z</time></trkpt><trkpt lat="44.317955" lon="10.9261483"><ele>251.00000000000003</ele><time>2026-04-25T09:53:35.397Z</time></trkpt><trkpt lat="44.3178633" lon="10.92605"><ele>251.00000000000003</ele><time>2026-04-25T09:53:36.394Z</time></trkpt><trkpt lat="44.3177733" lon="10.925955"><ele>251.0</ele><time>2026-04-25T09:53:37.393Z</time></trkpt><trkpt lat="44.31769" lon="10.9258583"><ele>251.0</ele><time>2026-04-25T09:53:38.395Z</time></trkpt><trkpt lat="44.3176033" lon="10.9257567"><ele>251.0</ele><time>2026-04-25T09:53:39.392Z</time></trkpt><trkpt lat="44.3175183" lon="10.9256467"><ele>251.0</ele><time>2026-04-25T09:53:40.393Z</time></trkpt><trkpt lat="44.3174333" lon="10.9255317"><ele>251.0</ele><time>2026-04-25T09:53:41.392Z</time></trkpt><trkpt lat="44.3173467" lon="10.9254067"><ele>251.0</ele><time>2026-04-25T09:53:42.394Z</time></trkpt><trkpt lat="44.317255" lon="10.92528"><ele>251.25</ele><time>2026-04-25T09:53:43.395Z</time></trkpt><trkpt lat="44.3171633" lon="10.9251483"><ele>251.5</ele><time>2026-04-25T09:53:44.395Z</time></trkpt><trkpt lat="44.3170717" lon="10.9250167"><ele>251.75</ele><time>2026-04-25T09:53:45.393Z</time></trkpt><trkpt lat="44.3169783" lon="10.924885"><ele>252.0</ele><time>2026-04-25T09:53:46.392Z</time></trkpt><trkpt lat="44.3168833" lon="10.9247467"><ele>252.0</ele><time>2026-04-25T09:53:47.393Z</time></trkpt><trkpt lat="44.3167867" lon="10.9246117"><ele>252.0</ele><time>2026-04-25T09:53:48.393Z</time></trkpt><trkpt lat="44.3166767" lon="10.9244883"><ele>252.0</ele><time>2026-04-25T09:53:49.393Z</time></trkpt><trkpt lat="44.3165583" lon="10.9243767"><ele>252.0</ele><time>2026-04-25T09:53:50.393Z</time></trkpt><trkpt lat="44.31644" lon="10.9242683"><ele>254.0</ele><time>2026-04-25T09:53:51.395Z</time></trkpt><trkpt lat="44.3163283" lon="10.9241567"><ele>256.0</ele><time>2026-04-25T09:53:52.393Z</time></trkpt><trkpt lat="44.3162217" lon="10.924035"><ele>258.0</ele><time>2026-04-25T09:53:53.394Z</time></trkpt><trkpt lat="44.3161167" lon="10.9239"><ele>260.0</ele><time>2026-04-25T09:53:54.392Z</time></trkpt><trkpt lat="44.3160117" lon="10.92375"><ele>260.0</ele><time>2026-04-25T09:53:55.393Z</time></trkpt><trkpt lat="44.315915" lon="10.9235967"><ele>260.0</ele><time>2026-04-25T09:53:56.394Z</time></trkpt><trkpt lat="44.315835" lon="10.9234533"><ele>260.0</ele><time>2026-04-25T09:53:57.394Z</time></trkpt><trkpt lat="44.31576" lon="10.923325"><ele>260.0</ele><time>2026-04-25T09:53:58.393Z</time></trkpt><trkpt lat="44.31569" lon="10.9232"><ele>259.0</ele><time>2026-04-25T09:53:59.394Z</time></trkpt><trkpt lat="44.3156467" lon="10.9230783"><ele>258.0</ele><time>2026-04-25T09:54:00.395Z</time></trkpt><trkpt lat="44.315615" lon="10.922955"><ele>257.0</ele><time>2026-04-25T09:54:01.395Z</time></trkpt><trkpt lat="44.3155917" lon="10.9228383"><ele>256.0</ele><time>2026-04-25T09:54:02.394Z</time></trkpt><trkpt lat="44.3155533" lon="10.9227333"><ele>255.0</ele><time>2026-04-25T09:54:03.394Z</time></trkpt><trkpt lat="44.3154967" lon="10.9226283"><ele>255.5</ele><time>2026-04-25T09:54:04.393Z</time></trkpt><trkpt lat="44.31541" lon="10.9225133"><ele>256.0</ele><time>2026-04-25T09:54:05.394Z</time></trkpt><trkpt lat="44.31531" lon="10.9223883"><ele>256.5</ele><time>2026-04-25T09:54:06.393Z</time></trkpt><trkpt lat="44.3152017" lon="10.9222667"><ele>257.0</ele><time>2026-04-25T09:54:07.393Z</time></trkpt><trkpt lat="44.3150983" lon="10.9221433"><ele>257.0</ele><time>2026-04-25T09:54:08.394Z</time></trkpt><trkpt lat="44.315" lon="10.92202"><ele>257.0</ele><time>2026-04-25T09:54:09.392Z</time></trkpt><trkpt lat="44.3149083" lon="10.9219017"><ele>257.0</ele><time>2026-04-25T09:54:10.393Z</time></trkpt><trkpt lat="44.3148167" lon="10.9217817"><ele>257.0</ele><time>2026-04-25T09:54:11.393Z</time></trkpt><trkpt lat="44.3147267" lon="10.9216617"><ele>257.2</ele><time>2026-04-25T09:54:12.394Z</time></trkpt><trkpt lat="44.3146467" lon="10.9215517"><ele>257.4</ele><time>2026-04-25T09:54:13.393Z</time></trkpt><trkpt lat="44.314575" lon="10.92147"><ele>257.6</ele><time>2026-04-25T09:54:14.394Z</time></trkpt><trkpt lat="44.3144967" lon="10.921405"><ele>257.8</ele><time>2026-04-25T09:54:15.393Z</time></trkpt><trkpt lat="44.31442" lon="10.921345"><ele>258.0</ele><time>2026-04-25T09:54:16.393Z</time></trkpt><trkpt lat="44.3143467" lon="10.9212967"><ele>258.0</ele><time>2026-04-25T09:54:17.392Z</time></trkpt><trkpt lat="44.3142817" lon="10.9212633"><ele>258.0</ele><time>2026-04-25T09:54:18.393Z</time></trkpt><trkpt lat="44.3141883" lon="10.9212083"><ele>258.0</ele><time>2026-04-25T09:54:20.393Z</time></trkpt><trkpt lat="44.3141267" lon="10.9211433"><ele>258.0</ele><time>2026-04-25T09:54:22.393Z</time></trkpt><trkpt lat="44.3140533" lon="10.921075"><ele>258.0</ele><time>2026-04-25T09:55:00.393Z</time></trkpt><trkpt lat="44.31399" lon="10.92106"><ele>258.0</ele><time>2026-04-25T09:55:02.394Z</time></trkpt><trkpt lat="44.3139117" lon="10.9210517"><ele>258.0</ele><time>2026-04-25T09:55:05.394Z</time></trkpt><trkpt lat="44.3139967" lon="10.9210567"><ele>258.0</ele><time>2026-04-25T09:55:13.394Z</time></trkpt><trkpt lat="44.31406" lon="10.9210667"><ele>258.0</ele><time>2026-04-25T09:55:16.393Z</time></trkpt><trkpt lat="44.3141283" lon="10.921125"><ele>258.0</ele><time>2026-04-25T09:55:19.394Z</time></trkpt><trkpt lat="44.314185" lon="10.9211767"><ele>258.0</ele><time>2026-04-25T09:55:21.393Z</time></trkpt><trkpt lat="44.314275" lon="10.9212283"><ele>258.0</ele><time>2026-04-25T09:55:23.391Z</time></trkpt><trkpt lat="44.3143617" lon="10.92128"><ele>258.0</ele><time>2026-04-25T09:55:25.394Z</time></trkpt><trkpt lat="44.314445" lon="10.9213317"><ele>258.0</ele><time>2026-04-25T09:55:27.393Z</time></trkpt><trkpt lat="44.3145117" lon="10.9213817"><ele>258.0</ele><time>2026-04-25T09:55:29.395Z</time></trkpt><trkpt lat="44.3144433" lon="10.9213583"><ele>258.0</ele><time>2026-04-25T09:57:07.395Z</time></trkpt><trkpt lat="44.3143783" lon="10.9213283"><ele>258.0</ele><time>2026-04-25T09:57:12.392Z</time></trkpt><trkpt lat="44.3143104" lon="10.9212802"><ele>258.0</ele><time>2026-04-25T09:57:20.395Z</time></trkpt><trkpt lat="44.3142425" lon="10.9212427"><ele>257.99999999999994</ele><time>2026-04-25T09:57:27.419Z</time></trkpt><trkpt lat="44.3141775" lon="10.921205"><ele>258.0</ele><time>2026-04-25T09:57:31.393Z</time></trkpt><trkpt lat="44.3141105" lon="10.9211452"><ele>258.0</ele><time>2026-04-25T09:57:36.32Z</time></trkpt><trkpt lat="44.3140532" lon="10.9210826"><ele>258.0</ele><time>2026-04-25T09:57:42.411Z</time></trkpt><trkpt lat="44.313985" lon="10.9210627"><ele>258.0</ele><time>2026-04-25T09:57:50.438Z</time></trkpt><trkpt lat="44.3139204" lon="10.9210627"><ele>257.99999999999994</ele><time>2026-04-25T09:57:56.423Z</time></trkpt><trkpt lat="44.3138579" lon="10.9210762"><ele>258.0</ele><time>2026-04-25T09:58:02.42Z</time></trkpt><trkpt lat="44.3139197" lon="10.9210455"><ele>257.99999999999994</ele><time>2026-04-25T10:01:05.395Z</time></trkpt><trkpt lat="44.3139899" lon="10.9210424"><ele>258.0</ele><time>2026-04-25T10:01:37.394Z</time></trkpt><trkpt lat="44.3140563" lon="10.9210505"><ele>258.0</ele><time>2026-04-25T10:01:43.391Z</time></trkpt><trkpt lat="44.3141187" lon="10.921087"><ele>258.0</ele><time>2026-04-25T10:01:49.424Z</time></trkpt><trkpt lat="44.3141626" lon="10.9211567"><ele>258.0</ele><time>2026-04-25T10:01:55.393Z</time></trkpt><trkpt lat="44.3142203" lon="10.9211959"><ele>257.99999999999994</ele><time>2026-04-25T10:02:02.307Z</time></trkpt><trkpt lat="44.3142803" lon="10.9212301"><ele>258.0</ele><time>2026-04-25T10:02:08.396Z</time></trkpt><trkpt lat="44.3143216" lon="10.9212998"><ele>258.0</ele><time>2026-04-25T10:02:27.393Z</time></trkpt><trkpt lat="44.3143913" lon="10.9213241"><ele>258.0</ele><time>2026-04-25T10:02:33.391Z</time></trkpt><trkpt lat="44.314456" lon="10.9213565"><ele>258.0</ele><time>2026-04-25T10:02:39.397Z</time></trkpt><trkpt lat="44.3145128" lon="10.9214066"><ele>258.0</ele><time>2026-04-25T10:03:42.394Z</time></trkpt><trkpt lat="44.3145767" lon="10.9214833"><ele>258.0</ele><time>2026-04-25T10:26:51.392Z</time></trkpt><trkpt lat="44.314655" lon="10.9215583"><ele>258.0</ele><time>2026-04-25T10:26:53.392Z</time></trkpt><trkpt lat="44.3147033" lon="10.921615"><ele>257.8</ele><time>2026-04-25T10:26:54.391Z</time></trkpt><trkpt lat="44.31477" lon="10.92169"><ele>257.6</ele><time>2026-04-25T10:26:55.392Z</time></trkpt><trkpt lat="44.314835" lon="10.9217783"><ele>257.4</ele><time>2026-04-25T10:26:56.395Z</time></trkpt><trkpt lat="44.3148933" lon="10.9218717"><ele>257.2</ele><time>2026-04-25T10:26:57.392Z</time></trkpt><trkpt lat="44.3149567" lon="10.9219667"><ele>257.0</ele><time>2026-04-25T10:26:58.394Z</time></trkpt><trkpt lat="44.315025" lon="10.922055"><ele>257.0</ele><time>2026-04-25T10:26:59.394Z</time></trkpt><trkpt lat="44.3150967" lon="10.9221433"><ele>257.0</ele><time>2026-04-25T10:27:00.391Z</time></trkpt><trkpt lat="44.3151733" lon="10.9222367"><ele>257.0</ele><time>2026-04-25T10:27:01.396Z</time></trkpt><trkpt lat="44.31525" lon="10.9223333"><ele>257.0</ele><time>2026-04-25T10:27:02.393Z</time></trkpt><trkpt lat="44.3153283" lon="10.922435"><ele>257.0</ele><time>2026-04-25T10:27:03.393Z</time></trkpt><trkpt lat="44.3154017" lon="10.9225333"><ele>256.6666666666667</ele><time>2026-04-25T10:27:04.392Z</time></trkpt><trkpt lat="44.315465" lon="10.9226167"><ele>256.33333333333337</ele><time>2026-04-25T10:27:05.391Z</time></trkpt><trkpt lat="44.3155167" lon="10.9226917"><ele>256.0</ele><time>2026-04-25T10:27:06.392Z</time></trkpt><trkpt lat="44.3155617" lon="10.9227733"><ele>255.66666666666669</ele><time>2026-04-25T10:27:07.392Z</time></trkpt><trkpt lat="44.3155983" lon="10.922875"><ele>255.33333333333334</ele><time>2026-04-25T10:27:08.395Z</time></trkpt><trkpt lat="44.3156317" lon="10.9229867"><ele>255.0</ele><time>2026-04-25T10:27:09.393Z</time></trkpt><trkpt lat="44.3156683" lon="10.9231133"><ele>255.0</ele><time>2026-04-25T10:27:10.393Z</time></trkpt><trkpt lat="44.3157167" lon="10.92325"><ele>255.0</ele><time>2026-04-25T10:27:11.393Z</time></trkpt><trkpt lat="44.3157867" lon="10.9233933"><ele>255.0</ele><time>2026-04-25T10:27:12.391Z</time></trkpt><trkpt lat="44.3158633" lon="10.9235333"><ele>255.0</ele><time>2026-04-25T10:27:13.391Z</time></trkpt><trkpt lat="44.315945" lon="10.9236767"><ele>256.25</ele><time>2026-04-25T10:27:14.394Z</time></trkpt><trkpt lat="44.3160317" lon="10.9238117"><ele>257.5</ele><time>2026-04-25T10:27:15.391Z</time></trkpt><trkpt lat="44.3161233" lon="10.9239417"><ele>258.75</ele><time>2026-04-25T10:27:16.393Z</time></trkpt><trkpt lat="44.3162183" lon="10.92406"><ele>260.0</ele><time>2026-04-25T10:27:17.391Z</time></trkpt><trkpt lat="44.3163133" lon="10.9241733"><ele>258.0</ele><time>2026-04-25T10:27:18.393Z</time></trkpt><trkpt lat="44.31641" lon="10.9242767"><ele>256.0</ele><time>2026-04-25T10:27:19.393Z</time></trkpt><trkpt lat="44.3165133" lon="10.9243767"><ele>254.0</ele><time>2026-04-25T10:27:20.394Z</time></trkpt><trkpt lat="44.3166167" lon="10.9244733"><ele>252.0</ele><time>2026-04-25T10:27:21.393Z</time></trkpt><trkpt lat="44.31672" lon="10.9245717"><ele>252.0</ele><time>2026-04-25T10:27:22.392Z</time></trkpt><trkpt lat="44.316815" lon="10.924685"><ele>252.0</ele><time>2026-04-25T10:27:23.393Z</time></trkpt><trkpt lat="44.3169017" lon="10.9248067"><ele>252.0</ele><time>2026-04-25T10:27:24.394Z</time></trkpt><trkpt lat="44.31698" lon="10.9249233"><ele>252.0</ele><time>2026-04-25T10:27:25.389Z</time></trkpt><trkpt lat="44.3170583" lon="10.925035"><ele>251.75</ele><time>2026-04-25T10:27:26.395Z</time></trkpt><trkpt lat="44.3171383" lon="10.925145"><ele>251.5</ele><time>2026-04-25T10:27:27.392Z</time></trkpt><trkpt lat="44.3172167" lon="10.925255"><ele>251.25</ele><time>2026-04-25T10:27:28.394Z</time></trkpt><trkpt lat="44.3172967" lon="10.925365"><ele>251.0</ele><time>2026-04-25T10:27:29.394Z</time></trkpt><trkpt lat="44.3173817" lon="10.9254817"><ele>251.0</ele><time>2026-04-25T10:27:30.394Z</time></trkpt><trkpt lat="44.3174717" lon="10.9255983"><ele>251.0</ele><time>2026-04-25T10:27:31.392Z</time></trkpt><trkpt lat="44.317565" lon="10.925715"><ele>251.0</ele><time>2026-04-25T10:27:32.395Z</time></trkpt><trkpt lat="44.3176633" lon="10.925835"><ele>251.0</ele><time>2026-04-25T10:27:33.393Z</time></trkpt><trkpt lat="44.31776" lon="10.9259517"><ele>251.0</ele><time>2026-04-25T10:27:34.393Z</time></trkpt><trkpt lat="44.317855" lon="10.9260617"><ele>251.0</ele><time>2026-04-25T10:27:35.394Z</time></trkpt><trkpt lat="44.3179483" lon="10.92616"><ele>251.0</ele><time>2026-04-25T10:27:36.394Z</time></trkpt><trkpt lat="44.318035" lon="10.926255"><ele>251.0</ele><time>2026-04-25T10:27:37.394Z</time></trkpt><trkpt lat="44.3181167" lon="10.9263433"><ele>251.0</ele><time>2026-04-25T10:27:38.394Z</time></trkpt><trkpt lat="44.3182033" lon="10.926425"><ele>251.00000000000003</ele><time>2026-04-25T10:27:39.391Z</time></trkpt><trkpt lat="44.3182967" lon="10.9265017"><ele>251.00000000000003</ele><time>2026-04-25T10:27:40.393Z</time></trkpt><trkpt lat="44.3183967" lon="10.9265633"><ele>251.0</ele><time>2026-04-25T10:27:41.392Z</time></trkpt><trkpt lat="44.3184983" lon="10.9266067"><ele>251.0</ele><time>2026-04-25T10:27:42.393Z</time></trkpt><trkpt lat="44.318595" lon="10.92665"><ele>251.0</ele><time>2026-04-25T10:27:43.393Z</time></trkpt><trkpt lat="44.3186883" lon="10.9267117"><ele>251.00000000000003</ele><time>2026-04-25T10:27:44.394Z</time></trkpt><trkpt lat="44.3187817" lon="10.9267867"><ele>251.00000000000003</ele><time>2026-04-25T10:27:45.393Z</time></trkpt><trkpt lat="44.3188733" lon="10.9268667"><ele>251.0</ele><time>2026-04-25T10:27:46.393Z</time></trkpt><trkpt lat="44.318965" lon="10.9269483"><ele>251.0</ele><time>2026-04-25T10:27:47.393Z</time></trkpt><trkpt lat="44.3190583" lon="10.9270267"><ele>250.60000000000002</ele><time>2026-04-25T10:27:48.393Z</time></trkpt><trkpt lat="44.3191567" lon="10.9271"><ele>250.20000000000002</ele><time>2026-04-25T10:27:49.395Z</time></trkpt><trkpt lat="44.31926" lon="10.9271783"><ele>249.79999999999998</ele><time>2026-04-25T10:27:50.394Z</time></trkpt><trkpt lat="44.3193533" lon="10.9272533"><ele>249.39999999999998</ele><time>2026-04-25T10:27:51.393Z</time></trkpt><trkpt lat="44.3194333" lon="10.9273083"><ele>249.0</ele><time>2026-04-25T10:27:52.39Z</time></trkpt><trkpt lat="44.31951" lon="10.9273583"><ele>249.0</ele><time>2026-04-25T10:27:53.394Z</time></trkpt><trkpt lat="44.319575" lon="10.9274183"><ele>248.99999999999997</ele><time>2026-04-25T10:27:54.392Z</time></trkpt><trkpt lat="44.3196383" lon="10.92749"><ele>248.99999999999997</ele><time>2026-04-25T10:27:55.393Z</time></trkpt><trkpt lat="44.31969" lon="10.9275833"><ele>249.0</ele><time>2026-04-25T10:27:56.393Z</time></trkpt><trkpt lat="44.3197383" lon="10.9277083"><ele>249.0</ele><time>2026-04-25T10:27:57.394Z</time></trkpt><trkpt lat="44.3197883" lon="10.9278617"><ele>249.0</ele><time>2026-04-25T10:27:58.393Z</time></trkpt><trkpt lat="44.31984" lon="10.928005"><ele>248.99999999999997</ele><time>2026-04-25T10:27:59.394Z</time></trkpt><trkpt lat="44.3198917" lon="10.9281383"><ele>248.99999999999997</ele><time>2026-04-25T10:28:00.394Z</time></trkpt><trkpt lat="44.3199483" lon="10.9282567"><ele>249.0</ele><time>2026-04-25T10:28:01.393Z</time></trkpt><trkpt lat="44.3200033" lon="10.928365"><ele>249.0</ele><time>2026-04-25T10:28:02.394Z</time></trkpt><trkpt lat="44.32005" lon="10.9284683"><ele>250.16666666666666</ele><time>2026-04-25T10:28:03.395Z</time></trkpt><trkpt lat="44.32008" lon="10.9285717"><ele>251.33333333333331</ele><time>2026-04-25T10:28:04.393Z</time></trkpt><trkpt lat="44.320095" lon="10.928675"><ele>252.5</ele><time>2026-04-25T10:28:05.394Z</time></trkpt><trkpt lat="44.320085" lon="10.9287683"><ele>253.66666666666666</ele><time>2026-04-25T10:28:06.399Z</time></trkpt><trkpt lat="44.3200717" lon="10.9288617"><ele>254.83333333333331</ele><time>2026-04-25T10:28:07.393Z</time></trkpt><trkpt lat="44.3200633" lon="10.928955"><ele>256.0</ele><time>2026-04-25T10:28:08.395Z</time></trkpt><trkpt lat="44.3200617" lon="10.9291083"><ele>256.5</ele><time>2026-04-25T10:28:10.393Z</time></trkpt><trkpt lat="44.3201133" lon="10.9292483"><ele>257.0</ele><time>2026-04-25T10:28:12.393Z</time></trkpt><trkpt lat="44.3201517" lon="10.9293233"><ele>257.5</ele><time>2026-04-25T10:28:13.394Z</time></trkpt><trkpt lat="44.3201883" lon="10.9293967"><ele>258.0</ele><time>2026-04-25T10:28:14.394Z</time></trkpt><trkpt lat="44.3202417" lon="10.9295467"><ele>258.5</ele><time>2026-04-25T10:28:16.392Z</time></trkpt><trkpt lat="44.3202467" lon="10.929635"><ele>259.0</ele><time>2026-04-25T10:28:17.392Z</time></trkpt><trkpt lat="44.3202317" lon="10.9297283"><ele>259.0</ele><time>2026-04-25T10:28:18.393Z</time></trkpt><trkpt lat="44.3202" lon="10.9298217"><ele>259.0</ele><time>2026-04-25T10:28:19.394Z</time></trkpt><trkpt lat="44.320165" lon="10.929915"><ele>259.0</ele><time>2026-04-25T10:28:20.395Z</time></trkpt><trkpt lat="44.3201317" lon="10.930005"><ele>259.0</ele><time>2026-04-25T10:28:21.393Z</time></trkpt><trkpt lat="44.3200967" lon="10.9300933"><ele>259.0</ele><time>2026-04-25T10:28:22.393Z</time></trkpt><trkpt lat="44.3200617" lon="10.9301817"><ele>259.0</ele><time>2026-04-25T10:28:23.393Z</time></trkpt><trkpt lat="44.32003" lon="10.93027"><ele>259.0</ele><time>2026-04-25T10:28:24.393Z</time></trkpt><trkpt lat="44.3199917" lon="10.930405"><ele>258.57142857142856</ele><time>2026-04-25T10:28:26.388Z</time></trkpt><trkpt lat="44.3199967" lon="10.9305117"><ele>258.1428571428571</ele><time>2026-04-25T10:28:28.391Z</time></trkpt><trkpt lat="44.3200383" lon="10.9306067"><ele>257.7142857142857</ele><time>2026-04-25T10:28:30.392Z</time></trkpt><trkpt lat="44.3200633" lon="10.93071"><ele>257.2857142857143</ele><time>2026-04-25T10:28:32.393Z</time></trkpt><trkpt lat="44.3200667" lon="10.9308067"><ele>256.85714285714283</ele><time>2026-04-25T10:28:34.393Z</time></trkpt><trkpt lat="44.3200483" lon="10.9309083"><ele>256.42857142857144</ele><time>2026-04-25T10:28:36.393Z</time></trkpt><trkpt lat="44.320025" lon="10.9309967"><ele>256.0</ele><time>2026-04-25T10:28:38.393Z</time></trkpt><trkpt lat="44.3200133" lon="10.931115"><ele>255.99999999999997</ele><time>2026-04-25T10:28:41.392Z</time></trkpt><trkpt lat="44.320015" lon="10.931245"><ele>256.0</ele><time>2026-04-25T10:28:44.394Z</time></trkpt><trkpt lat="44.32" lon="10.9313417"><ele>256.0</ele><time>2026-04-25T10:28:46.394Z</time></trkpt><trkpt lat="44.3199767" lon="10.9314333"><ele>256.0</ele><time>2026-04-25T10:28:48.393Z</time></trkpt><trkpt lat="44.3199717" lon="10.9315433"><ele>255.99999999999997</ele><time>2026-04-25T10:28:51.391Z</time></trkpt><trkpt lat="44.32002" lon="10.9316267"><ele>256.0</ele><time>2026-04-25T10:28:54.394Z</time></trkpt><trkpt lat="44.3200833" lon="10.9316883"><ele>256.0</ele><time>2026-04-25T10:28:56.394Z</time></trkpt><trkpt lat="44.3201467" lon="10.9317183"><ele>255.99999999999997</ele><time>2026-04-25T10:28:58.392Z</time></trkpt><trkpt lat="44.320215" lon="10.9316617"><ele>256.0</ele><time>2026-04-25T10:29:01.394Z</time></trkpt><trkpt lat="44.320275" lon="10.931555"><ele>256.0</ele><time>2026-04-25T10:29:04.393Z</time></trkpt><trkpt lat="44.32031" lon="10.9314767"><ele>255.99999999999997</ele><time>2026-04-25T10:29:06.393Z</time></trkpt><trkpt lat="44.320335" lon="10.931395"><ele>256.0</ele><time>2026-04-25T10:29:08.394Z</time></trkpt><trkpt lat="44.32036" lon="10.9312983"><ele>256.0</ele><time>2026-04-25T10:29:10.391Z</time></trkpt><trkpt lat="44.3204017" lon="10.93119"><ele>255.99999999999997</ele><time>2026-04-25T10:29:12.394Z</time></trkpt><trkpt lat="44.320465" lon="10.931085"><ele>256.0</ele><time>2026-04-25T10:29:14.394Z</time></trkpt><trkpt lat="44.3205317" lon="10.9309783"><ele>256.0</ele><time>2026-04-25T10:29:16.392Z</time></trkpt><trkpt lat="44.3206117" lon="10.9308867"><ele>256.0</ele><time>2026-04-25T10:29:18.392Z</time></trkpt><trkpt lat="44.3206717" lon="10.9308467"><ele>255.99999999999997</ele><time>2026-04-25T10:29:20.394Z</time></trkpt><trkpt lat="44.3207183" lon="10.9309167"><ele>256.0</ele><time>2026-04-25T10:29:23.394Z</time></trkpt><trkpt lat="44.320735" lon="10.9310067"><ele>258.7142857142857</ele><time>2026-04-25T10:29:25.393Z</time></trkpt><trkpt lat="44.320725" lon="10.9310967"><ele>261.4285714285714</ele><time>2026-04-25T10:29:27.394Z</time></trkpt><trkpt lat="44.3207283" lon="10.9311867"><ele>264.1428571428571</ele><time>2026-04-25T10:29:29.392Z</time></trkpt><trkpt lat="44.320765" lon="10.9312583"><ele>266.85714285714283</ele><time>2026-04-25T10:29:31.394Z</time></trkpt><trkpt lat="44.32083" lon="10.93129"><ele>269.57142857142856</ele><time>2026-04-25T10:29:33.388Z</time></trkpt><trkpt lat="44.3209067" lon="10.93129"><ele>272.2857142857143</ele><time>2026-04-25T10:29:35.391Z</time></trkpt><trkpt lat="44.3209833" lon="10.9312683"><ele>275.0</ele><time>2026-04-25T10:29:37.391Z</time></trkpt><trkpt lat="44.32107" lon="10.9312783"><ele>275.0</ele><time>2026-04-25T10:29:39.392Z</time></trkpt><trkpt lat="44.3211483" lon="10.9312233"><ele>275.0</ele><time>2026-04-25T10:29:41.394Z</time></trkpt><trkpt lat="44.32119" lon="10.9311067"><ele>275.0</ele><time>2026-04-25T10:29:43.393Z</time></trkpt><trkpt lat="44.32124" lon="10.9310117"><ele>275.0</ele><time>2026-04-25T10:29:45.392Z</time></trkpt><trkpt lat="44.3212917" lon="10.930905"><ele>275.0</ele><time>2026-04-25T10:29:47.394Z</time></trkpt><trkpt lat="44.3213517" lon="10.9307833"><ele>277.0</ele><time>2026-04-25T10:29:49.394Z</time></trkpt><trkpt lat="44.32144" lon="10.9307267"><ele>279.0</ele><time>2026-04-25T10:29:51.393Z</time></trkpt><trkpt lat="44.3215383" lon="10.930725"><ele>281.0</ele><time>2026-04-25T10:29:53.396Z</time></trkpt><trkpt lat="44.32163" lon="10.93079"><ele>283.0</ele><time>2026-04-25T10:29:55.393Z</time></trkpt><trkpt lat="44.3216833" lon="10.9308983"><ele>285.0</ele><time>2026-04-25T10:29:57.393Z</time></trkpt><trkpt lat="44.3217033" lon="10.9310117"><ele>288.0</ele><time>2026-04-25T10:29:59.394Z</time></trkpt><trkpt lat="44.321755" lon="10.9311283"><ele>291.0</ele><time>2026-04-25T10:30:01.394Z</time></trkpt><trkpt lat="44.3218267" lon="10.9312167"><ele>294.0</ele><time>2026-04-25T10:30:03.393Z</time></trkpt><trkpt lat="44.321915" lon="10.93127"><ele>297.0</ele><time>2026-04-25T10:30:05.392Z</time></trkpt><trkpt lat="44.3220017" lon="10.9313483"><ele>300.0</ele><time>2026-04-25T10:30:07.394Z</time></trkpt><trkpt lat="44.3220667" lon="10.93145"><ele>300.0</ele><time>2026-04-25T10:30:09.395Z</time></trkpt><trkpt lat="44.322125" lon="10.9315383"><ele>300.0</ele><time>2026-04-25T10:30:11.393Z</time></trkpt><trkpt lat="44.3221933" lon="10.931585"><ele>300.0</ele><time>2026-04-25T10:30:13.394Z</time></trkpt><trkpt lat="44.3222433" lon="10.9316467"><ele>300.0</ele><time>2026-04-25T10:30:15.392Z</time></trkpt><trkpt lat="44.3222617" lon="10.9317633"><ele>300.0</ele><time>2026-04-25T10:30:19.392Z</time></trkpt><trkpt lat="44.32229" lon="10.9318633"><ele>300.0</ele><time>2026-04-25T10:30:21.393Z</time></trkpt><trkpt lat="44.3223383" lon="10.9319617"><ele>307.2</ele><time>2026-04-25T10:30:23.392Z</time></trkpt><trkpt lat="44.3223983" lon="10.9320483"><ele>314.4</ele><time>2026-04-25T10:30:25.394Z</time></trkpt><trkpt lat="44.3224617" lon="10.93215"><ele>321.6</ele><time>2026-04-25T10:30:27.393Z</time></trkpt><trkpt lat="44.3225183" lon="10.9322667"><ele>328.8</ele><time>2026-04-25T10:30:29.395Z</time></trkpt><trkpt lat="44.3225533" lon="10.9323967"><ele>336.0</ele><time>2026-04-25T10:30:31.393Z</time></trkpt><trkpt lat="44.322585" lon="10.932535"><ele>336.0</ele><time>2026-04-25T10:30:33.393Z</time></trkpt><trkpt lat="44.3226367" lon="10.932625"><ele>336.0</ele><time>2026-04-25T10:30:35.393Z</time></trkpt><trkpt lat="44.3227417" lon="10.93266"><ele>336.0</ele><time>2026-04-25T10:30:37.394Z</time></trkpt><trkpt lat="44.3228017" lon="10.9326333"><ele>336.0</ele><time>2026-04-25T10:30:38.394Z</time></trkpt><trkpt lat="44.32286" lon="10.9325983"><ele>336.0</ele><time>2026-04-25T10:30:39.392Z</time></trkpt><trkpt lat="44.322965" lon="10.9325367"><ele>336.0</ele><time>2026-04-25T10:30:41.393Z</time></trkpt><trkpt lat="44.3230817" lon="10.9324933"><ele>337.6</ele><time>2026-04-25T10:30:43.393Z</time></trkpt><trkpt lat="44.3231917" lon="10.932485"><ele>339.20000000000005</ele><time>2026-04-25T10:30:45.392Z</time></trkpt><trkpt lat="44.32327" lon="10.9325783"><ele>340.79999999999995</ele><time>2026-04-25T10:30:47.392Z</time></trkpt><trkpt lat="44.3233033" lon="10.9327367"><ele>342.4</ele><time>2026-04-25T10:30:49.393Z</time></trkpt><trkpt lat="44.3233333" lon="10.9328967"><ele>344.0</ele><time>2026-04-25T10:30:51.393Z</time></trkpt><trkpt lat="44.3233617" lon="10.9330367"><ele>347.6</ele><time>2026-04-25T10:30:53.393Z</time></trkpt><trkpt lat="44.3233717" lon="10.93319"><ele>351.2</ele><time>2026-04-25T10:30:55.393Z</time></trkpt><trkpt lat="44.3233833" lon="10.93336"><ele>354.8</ele><time>2026-04-25T10:30:57.391Z</time></trkpt><trkpt lat="44.3234083" lon="10.9335383"><ele>358.40000000000003</ele><time>2026-04-25T10:30:59.392Z</time></trkpt><trkpt lat="44.323425" lon="10.9336383"><ele>362.0</ele><time>2026-04-25T10:31:00.393Z</time></trkpt><trkpt lat="44.3234483" lon="10.9337467"><ele>365.1666666666667</ele><time>2026-04-25T10:31:01.393Z</time></trkpt><trkpt lat="44.3234683" lon="10.9338517"><ele>368.33333333333337</ele><time>2026-04-25T10:31:02.394Z</time></trkpt><trkpt lat="44.323485" lon="10.93395"><ele>371.5</ele><time>2026-04-25T10:31:03.392Z</time></trkpt><trkpt lat="44.323495" lon="10.9340383"><ele>374.6666666666667</ele><time>2026-04-25T10:31:04.392Z</time></trkpt><trkpt lat="44.32349" lon="10.934205"><ele>377.8333333333333</ele><time>2026-04-25T10:31:06.393Z</time></trkpt><trkpt lat="44.3234717" lon="10.934345"><ele>381.0</ele><time>2026-04-25T10:31:08.395Z</time></trkpt><trkpt lat="44.3234683" lon="10.9345017"><ele>382.6666666666667</ele><time>2026-04-25T10:31:10.394Z</time></trkpt><trkpt lat="44.3234633" lon="10.9346717"><ele>384.33333333333337</ele><time>2026-04-25T10:31:12.394Z</time></trkpt><trkpt lat="44.323455" lon="10.934765"><ele>386.0</ele><time>2026-04-25T10:31:13.394Z</time></trkpt><trkpt lat="44.3234467" lon="10.9348617"><ele>387.6666666666667</ele><time>2026-04-25T10:31:14.396Z</time></trkpt><trkpt lat="44.3234433" lon="10.9349617"><ele>389.33333333333337</ele><time>2026-04-25T10:31:15.394Z</time></trkpt><trkpt lat="44.3234433" lon="10.9350667"><ele>391.0</ele><time>2026-04-25T10:31:16.393Z</time></trkpt><trkpt lat="44.3234417" lon="10.9351683"><ele>392.50000000000006</ele><time>2026-04-25T10:31:17.394Z</time></trkpt><trkpt lat="44.3234333" lon="10.9352733"><ele>394.0</ele><time>2026-04-25T10:31:18.393Z</time></trkpt><trkpt lat="44.3234217" lon="10.9353733"><ele>395.5</ele><time>2026-04-25T10:31:19.394Z</time></trkpt><trkpt lat="44.323415" lon="10.935475"><ele>397.0</ele><time>2026-04-25T10:31:20.395Z</time></trkpt><trkpt lat="44.3234117" lon="10.9355683"><ele>398.50000000000006</ele><time>2026-04-25T10:31:21.393Z</time></trkpt><trkpt lat="44.3234067" lon="10.93573"><ele>400.0</ele><time>2026-04-25T10:31:23.392Z</time></trkpt><trkpt lat="44.3233967" lon="10.935905"><ele>400.83333333333337</ele><time>2026-04-25T10:31:25.392Z</time></trkpt><trkpt lat="44.32339" lon="10.9359983"><ele>401.6666666666667</ele><time>2026-04-25T10:31:26.393Z</time></trkpt><trkpt lat="44.32339" lon="10.9360867"><ele>402.5</ele><time>2026-04-25T10:31:27.394Z</time></trkpt><trkpt lat="44.3234467" lon="10.936245"><ele>403.33333333333337</ele><time>2026-04-25T10:31:29.392Z</time></trkpt><trkpt lat="44.3235133" lon="10.93631"><ele>404.1666666666667</ele><time>2026-04-25T10:31:30.394Z</time></trkpt><trkpt lat="44.3235917" lon="10.9363517"><ele>405.0</ele><time>2026-04-25T10:31:31.394Z</time></trkpt><trkpt lat="44.3236617" lon="10.936395"><ele>405.0</ele><time>2026-04-25T10:31:32.394Z</time></trkpt><trkpt lat="44.3237217" lon="10.9364483"><ele>405.0</ele><time>2026-04-25T10:31:33.394Z</time></trkpt><trkpt lat="44.3237717" lon="10.936505"><ele>405.0</ele><time>2026-04-25T10:31:34.392Z</time></trkpt><trkpt lat="44.3238567" lon="10.936635"><ele>405.0</ele><time>2026-04-25T10:31:36.394Z</time></trkpt><trkpt lat="44.323885" lon="10.9367217"><ele>405.0</ele><time>2026-04-25T10:31:37.393Z</time></trkpt><trkpt lat="44.3239017" lon="10.9368083"><ele>405.0</ele><time>2026-04-25T10:31:38.395Z</time></trkpt><trkpt lat="44.3239117" lon="10.9369"><ele>406.1666666666667</ele><time>2026-04-25T10:31:39.393Z</time></trkpt><trkpt lat="44.3239167" lon="10.9370167"><ele>407.33333333333337</ele><time>2026-04-25T10:31:40.392Z</time></trkpt><trkpt lat="44.323915" lon="10.9371383"><ele>408.5</ele><time>2026-04-25T10:31:41.395Z</time></trkpt><trkpt lat="44.3239133" lon="10.937255"><ele>409.6666666666667</ele><time>2026-04-25T10:31:42.395Z</time></trkpt><trkpt lat="44.3239167" lon="10.937355"><ele>410.83333333333337</ele><time>2026-04-25T10:31:43.394Z</time></trkpt><trkpt lat="44.3239217" lon="10.9374533"><ele>412.0</ele><time>2026-04-25T10:31:44.394Z</time></trkpt><trkpt lat="44.323935" lon="10.93755"><ele>413.6666666666667</ele><time>2026-04-25T10:31:45.391Z</time></trkpt><trkpt lat="44.3239617" lon="10.937645"><ele>415.33333333333337</ele><time>2026-04-25T10:31:46.392Z</time></trkpt><trkpt lat="44.3239967" lon="10.9377417"><ele>417.0</ele><time>2026-04-25T10:31:47.392Z</time></trkpt><trkpt lat="44.324035" lon="10.9378383"><ele>418.66666666666663</ele><time>2026-04-25T10:31:48.393Z</time></trkpt><trkpt lat="44.3240633" lon="10.9379217"><ele>420.3333333333333</ele><time>2026-04-25T10:31:49.393Z</time></trkpt><trkpt lat="44.32408" lon="10.9380967"><ele>422.0</ele><time>2026-04-25T10:31:51.394Z</time></trkpt><trkpt lat="44.3240783" lon="10.938205"><ele>421.99999999999994</ele><time>2026-04-25T10:31:52.392Z</time></trkpt><trkpt lat="44.3240767" lon="10.9383167"><ele>422.0</ele><time>2026-04-25T10:31:53.393Z</time></trkpt><trkpt lat="44.3240783" lon="10.9384333"><ele>422.0</ele><time>2026-04-25T10:31:54.394Z</time></trkpt><trkpt lat="44.3240917" lon="10.9385417"><ele>422.0</ele><time>2026-04-25T10:31:55.389Z</time></trkpt><trkpt lat="44.3241117" lon="10.93864"><ele>421.99999999999994</ele><time>2026-04-25T10:31:56.395Z</time></trkpt><trkpt lat="44.3241367" lon="10.93873"><ele>422.0</ele><time>2026-04-25T10:31:57.393Z</time></trkpt><trkpt lat="44.3241567" lon="10.93882"><ele>424.16666666666663</ele><time>2026-04-25T10:31:58.393Z</time></trkpt><trkpt lat="44.32417" lon="10.9389117"><ele>426.3333333333333</ele><time>2026-04-25T10:31:59.394Z</time></trkpt><trkpt lat="44.324175" lon="10.9390033"><ele>428.5</ele><time>2026-04-25T10:32:00.394Z</time></trkpt><trkpt lat="44.3241783" lon="10.9390933"><ele>430.66666666666663</ele><time>2026-04-25T10:32:01.394Z</time></trkpt><trkpt lat="44.324185" lon="10.9391917"><ele>432.8333333333333</ele><time>2026-04-25T10:32:02.394Z</time></trkpt><trkpt lat="44.3241983" lon="10.9392833"><ele>435.0</ele><time>2026-04-25T10:32:03.394Z</time></trkpt><trkpt lat="44.3242133" lon="10.9394533"><ele>437.6</ele><time>2026-04-25T10:32:05.394Z</time></trkpt><trkpt lat="44.3242183" lon="10.9395433"><ele>440.2</ele><time>2026-04-25T10:32:06.394Z</time></trkpt><trkpt lat="44.32422" lon="10.9396317"><ele>442.79999999999995</ele><time>2026-04-25T10:32:07.393Z</time></trkpt><trkpt lat="44.3242267" lon="10.9398067"><ele>445.4</ele><time>2026-04-25T10:32:09.394Z</time></trkpt><trkpt lat="44.324245" lon="10.9399617"><ele>448.0</ele><time>2026-04-25T10:32:11.392Z</time></trkpt><trkpt lat="44.3242983" lon="10.9400817"><ele>450.0</ele><time>2026-04-25T10:32:13.393Z</time></trkpt><trkpt lat="44.3243517" lon="10.94018"><ele>451.99999999999994</ele><time>2026-04-25T10:32:15.392Z</time></trkpt><trkpt lat="44.3243967" lon="10.940295"><ele>453.99999999999994</ele><time>2026-04-25T10:32:17.392Z</time></trkpt><trkpt lat="44.3244333" lon="10.9404367"><ele>456.0</ele><time>2026-04-25T10:32:19.393Z</time></trkpt><trkpt lat="44.3244683" lon="10.9405867"><ele>458.0</ele><time>2026-04-25T10:32:21.392Z</time></trkpt><trkpt lat="44.3245" lon="10.9407183"><ele>457.99999999999994</ele><time>2026-04-25T10:32:23.393Z</time></trkpt><trkpt lat="44.3245317" lon="10.9408617"><ele>458.0</ele><time>2026-04-25T10:32:25.392Z</time></trkpt><trkpt lat="44.32457" lon="10.9409933"><ele>458.0</ele><time>2026-04-25T10:32:27.394Z</time></trkpt><trkpt lat="44.3245933" lon="10.9411283"><ele>458.0</ele><time>2026-04-25T10:32:29.394Z</time></trkpt><trkpt lat="44.32459" lon="10.9412167"><ele>457.99999999999994</ele><time>2026-04-25T10:32:30.394Z</time></trkpt><trkpt lat="44.3245833" lon="10.941305"><ele>458.0</ele><time>2026-04-25T10:32:31.394Z</time></trkpt><trkpt lat="44.3245767" lon="10.9413967"><ele>460.2</ele><time>2026-04-25T10:32:32.395Z</time></trkpt><trkpt lat="44.324565" lon="10.9414833"><ele>462.4</ele><time>2026-04-25T10:32:33.393Z</time></trkpt><trkpt lat="44.32454" lon="10.9415683"><ele>464.59999999999997</ele><time>2026-04-25T10:32:34.393Z</time></trkpt><trkpt lat="44.324495" lon="10.941725"><ele>466.79999999999995</ele><time>2026-04-25T10:32:36.394Z</time></trkpt><trkpt lat="44.3244817" lon="10.9418967"><ele>469.0</ele><time>2026-04-25T10:32:38.394Z</time></trkpt><trkpt lat="44.3244717" lon="10.9420583"><ele>470.6666666666667</ele><time>2026-04-25T10:32:40.393Z</time></trkpt><trkpt lat="44.324475" lon="10.94218"><ele>472.33333333333337</ele><time>2026-04-25T10:32:42.392Z</time></trkpt><trkpt lat="44.3244933" lon="10.9422767"><ele>474.0</ele><time>2026-04-25T10:32:44.394Z</time></trkpt><trkpt lat="44.3245717" lon="10.942305"><ele>475.66666666666663</ele><time>2026-04-25T10:33:10.393Z</time></trkpt><trkpt lat="44.3246467" lon="10.94225"><ele>477.3333333333333</ele><time>2026-04-25T10:33:12.396Z</time></trkpt><trkpt lat="44.3247333" lon="10.9422333"><ele>479.0</ele><time>2026-04-25T10:33:14.393Z</time></trkpt><trkpt lat="44.32481" lon="10.9422333"><ele>483.79999999999995</ele><time>2026-04-25T10:33:16.392Z</time></trkpt><trkpt lat="44.32488" lon="10.94229"><ele>488.59999999999997</ele><time>2026-04-25T10:33:18.393Z</time></trkpt><trkpt lat="44.3249233" lon="10.94238"><ele>493.4</ele><time>2026-04-25T10:33:20.395Z</time></trkpt><trkpt lat="44.3249133" lon="10.9424967"><ele>498.2</ele><time>2026-04-25T10:33:22.394Z</time></trkpt><trkpt lat="44.3248633" lon="10.9426667"><ele>503.0</ele><time>2026-04-25T10:33:24.394Z</time></trkpt><trkpt lat="44.3248317" lon="10.9427683"><ele>503.16666666666663</ele><time>2026-04-25T10:33:25.393Z</time></trkpt><trkpt lat="44.3248017" lon="10.9428583"><ele>503.3333333333333</ele><time>2026-04-25T10:33:26.394Z</time></trkpt><trkpt lat="44.3247733" lon="10.94294"><ele>503.5</ele><time>2026-04-25T10:33:27.393Z</time></trkpt><trkpt lat="44.324755" lon="10.943085"><ele>503.66666666666663</ele><time>2026-04-25T10:33:29.393Z</time></trkpt><trkpt lat="44.3247667" lon="10.9431767"><ele>503.8333333333333</ele><time>2026-04-25T10:33:30.394Z</time></trkpt><trkpt lat="44.324785" lon="10.94328"><ele>504.0</ele><time>2026-04-25T10:33:31.395Z</time></trkpt><trkpt lat="44.3248133" lon="10.943385"><ele>504.1428571428571</ele><time>2026-04-25T10:33:32.394Z</time></trkpt><trkpt lat="44.324845" lon="10.943485"><ele>504.2857142857143</ele><time>2026-04-25T10:33:33.393Z</time></trkpt><trkpt lat="44.3248683" lon="10.9435733"><ele>504.42857142857144</ele><time>2026-04-25T10:33:34.394Z</time></trkpt><trkpt lat="44.3248783" lon="10.9436617"><ele>504.57142857142856</ele><time>2026-04-25T10:33:35.393Z</time></trkpt><trkpt lat="44.3248867" lon="10.943755"><ele>504.71428571428567</ele><time>2026-04-25T10:33:36.395Z</time></trkpt><trkpt lat="44.3249" lon="10.9438567"><ele>504.85714285714283</ele><time>2026-04-25T10:33:37.397Z</time></trkpt><trkpt lat="44.3249233" lon="10.9439583"><ele>505.0</ele><time>2026-04-25T10:33:38.395Z</time></trkpt><trkpt lat="44.3249367" lon="10.9440567"><ele>505.00000000000006</ele><time>2026-04-25T10:33:39.395Z</time></trkpt><trkpt lat="44.3249333" lon="10.9441583"><ele>505.0</ele><time>2026-04-25T10:33:40.393Z</time></trkpt><trkpt lat="44.324925" lon="10.94427"><ele>505.0</ele><time>2026-04-25T10:33:41.393Z</time></trkpt><trkpt lat="44.3249133" lon="10.9443767"><ele>505.0</ele><time>2026-04-25T10:33:42.393Z</time></trkpt><trkpt lat="44.3248933" lon="10.9444817"><ele>505.00000000000006</ele><time>2026-04-25T10:33:43.393Z</time></trkpt><trkpt lat="44.3248767" lon="10.9445967"><ele>505.0</ele><time>2026-04-25T10:33:44.395Z</time></trkpt><trkpt lat="44.3248633" lon="10.9447017"><ele>506.50000000000006</ele><time>2026-04-25T10:33:45.391Z</time></trkpt><trkpt lat="44.32485" lon="10.9447983"><ele>508.0</ele><time>2026-04-25T10:33:46.393Z</time></trkpt><trkpt lat="44.3248383" lon="10.94489"><ele>509.5</ele><time>2026-04-25T10:33:47.394Z</time></trkpt><trkpt lat="44.3248167" lon="10.9450567"><ele>511.0</ele><time>2026-04-25T10:33:49.393Z</time></trkpt><trkpt lat="44.324815" lon="10.9452267"><ele>512.5</ele><time>2026-04-25T10:33:51.393Z</time></trkpt><trkpt lat="44.3248233" lon="10.9453217"><ele>514.0</ele><time>2026-04-25T10:33:52.393Z</time></trkpt><trkpt lat="44.324825" lon="10.94542"><ele>514.0</ele><time>2026-04-25T10:33:53.393Z</time></trkpt><trkpt lat="44.3248183" lon="10.9455167"><ele>514.0</ele><time>2026-04-25T10:33:54.393Z</time></trkpt><trkpt lat="44.3248" lon="10.9456067"><ele>514.0</ele><time>2026-04-25T10:33:55.393Z</time></trkpt><trkpt lat="44.3247667" lon="10.9456867"><ele>514.0</ele><time>2026-04-25T10:33:56.394Z</time></trkpt><trkpt lat="44.3247333" lon="10.945765"><ele>514.0</ele><time>2026-04-25T10:33:57.394Z</time></trkpt><trkpt lat="44.3247017" lon="10.9459233"><ele>514.0</ele><time>2026-04-25T10:33:59.394Z</time></trkpt><trkpt lat="44.3246967" lon="10.9460783"><ele>514.0</ele><time>2026-04-25T10:34:01.394Z</time></trkpt><trkpt lat="44.3247183" lon="10.9462217"><ele>514.0</ele><time>2026-04-25T10:34:03.394Z</time></trkpt><trkpt lat="44.3247517" lon="10.9463783"><ele>514.0</ele><time>2026-04-25T10:34:05.393Z</time></trkpt><trkpt lat="44.3247817" lon="10.9465083"><ele>514.0</ele><time>2026-04-25T10:34:07.394Z</time></trkpt><trkpt lat="44.3248317" lon="10.9466617"><ele>514.0</ele><time>2026-04-25T10:34:09.392Z</time></trkpt><trkpt lat="44.3248683" lon="10.94675"><ele>519.1666666666667</ele><time>2026-04-25T10:34:10.394Z</time></trkpt><trkpt lat="44.3249117" lon="10.946835"><ele>524.3333333333334</ele><time>2026-04-25T10:34:11.391Z</time></trkpt><trkpt lat="44.3249683" lon="10.9469133"><ele>529.5</ele><time>2026-04-25T10:34:12.395Z</time></trkpt><trkpt lat="44.325025" lon="10.9469917"><ele>534.6666666666666</ele><time>2026-04-25T10:34:13.394Z</time></trkpt><trkpt lat="44.32508" lon="10.9470767"><ele>539.8333333333333</ele><time>2026-04-25T10:34:14.394Z</time></trkpt><trkpt lat="44.32513" lon="10.947165"><ele>545.0</ele><time>2026-04-25T10:34:15.393Z</time></trkpt><trkpt lat="44.3251767" lon="10.9472567"><ele>545.0</ele><time>2026-04-25T10:34:16.394Z</time></trkpt><trkpt lat="44.3252133" lon="10.947345"><ele>545.0</ele><time>2026-04-25T10:34:17.393Z</time></trkpt><trkpt lat="44.3252383" lon="10.947435"><ele>545.0</ele><time>2026-04-25T10:34:18.391Z</time></trkpt><trkpt lat="44.3252533" lon="10.94754"><ele>545.0</ele><time>2026-04-25T10:34:19.391Z</time></trkpt><trkpt lat="44.32526" lon="10.947665"><ele>545.0</ele><time>2026-04-25T10:34:20.393Z</time></trkpt><trkpt lat="44.3252683" lon="10.947795"><ele>545.0</ele><time>2026-04-25T10:34:21.392Z</time></trkpt><trkpt lat="44.3252883" lon="10.9479283"><ele>546.0</ele><time>2026-04-25T10:34:22.392Z</time></trkpt><trkpt lat="44.3253117" lon="10.94806"><ele>547.0</ele><time>2026-04-25T10:34:23.394Z</time></trkpt><trkpt lat="44.32534" lon="10.94819"><ele>548.0</ele><time>2026-04-25T10:34:24.392Z</time></trkpt><trkpt lat="44.3253717" lon="10.9483067"><ele>549.0</ele><time>2026-04-25T10:34:25.393Z</time></trkpt><trkpt lat="44.3254067" lon="10.948415"><ele>550.0</ele><time>2026-04-25T10:34:26.392Z</time></trkpt><trkpt lat="44.32544" lon="10.9485217"><ele>550.1428571428571</ele><time>2026-04-25T10:34:27.394Z</time></trkpt><trkpt lat="44.3254683" lon="10.9486233"><ele>550.2857142857142</ele><time>2026-04-25T10:34:28.393Z</time></trkpt><trkpt lat="44.325485" lon="10.9487133"><ele>550.4285714285713</ele><time>2026-04-25T10:34:29.394Z</time></trkpt><trkpt lat="44.3254933" lon="10.9488033"><ele>550.5714285714286</ele><time>2026-04-25T10:34:30.394Z</time></trkpt><trkpt lat="44.3254967" lon="10.9488983"><ele>550.7142857142857</ele><time>2026-04-25T10:34:31.393Z</time></trkpt><trkpt lat="44.325515" lon="10.9489983"><ele>550.8571428571428</ele><time>2026-04-25T10:34:32.395Z</time></trkpt><trkpt lat="44.32555" lon="10.9490883"><ele>551.0</ele><time>2026-04-25T10:34:33.395Z</time></trkpt><trkpt lat="44.3256017" lon="10.9491717"><ele>554.5</ele><time>2026-04-25T10:34:34.394Z</time></trkpt><trkpt lat="44.3256533" lon="10.9492533"><ele>558.0</ele><time>2026-04-25T10:34:35.392Z</time></trkpt><trkpt lat="44.3256967" lon="10.949335"><ele>561.5</ele><time>2026-04-25T10:34:36.394Z</time></trkpt><trkpt lat="44.32573" lon="10.9494283"><ele>565.0</ele><time>2026-04-25T10:34:37.394Z</time></trkpt><trkpt lat="44.3257533" lon="10.9495333"><ele>568.5</ele><time>2026-04-25T10:34:38.395Z</time></trkpt><trkpt lat="44.325765" lon="10.94965"><ele>572.0</ele><time>2026-04-25T10:34:39.392Z</time></trkpt><trkpt lat="44.3257633" lon="10.9497683"><ele>572.0</ele><time>2026-04-25T10:34:40.393Z</time></trkpt><trkpt lat="44.32575" lon="10.9498783"><ele>572.0</ele><time>2026-04-25T10:34:41.394Z</time></trkpt><trkpt lat="44.3257333" lon="10.9499783"><ele>572.0</ele><time>2026-04-25T10:34:42.392Z</time></trkpt><trkpt lat="44.3257033" lon="10.9501183"><ele>572.0</ele><time>2026-04-25T10:34:44.393Z</time></trkpt><trkpt lat="44.3257817" lon="10.950075"><ele>572.0</ele><time>2026-04-25T10:35:33.395Z</time></trkpt><trkpt lat="44.3258517" lon="10.950015"><ele>572.0</ele><time>2026-04-25T10:35:35.393Z</time></trkpt><trkpt lat="44.32592" lon="10.9499617"><ele>571.9999999999999</ele><time>2026-04-25T10:35:37.395Z</time></trkpt><trkpt lat="44.3259967" lon="10.949915"><ele>572.0</ele><time>2026-04-25T10:35:39.394Z</time></trkpt><trkpt lat="44.326065" lon="10.9498583"><ele>572.0</ele><time>2026-04-25T10:35:41.394Z</time></trkpt><trkpt lat="44.3261283" lon="10.9498117"><ele>572.0</ele><time>2026-04-25T10:35:43.393Z</time></trkpt><trkpt lat="44.3261883" lon="10.9497733"><ele>572.0</ele><time>2026-04-25T10:35:45.393Z</time></trkpt><trkpt lat="44.3262567" lon="10.94975"><ele>571.9999999999999</ele><time>2026-04-25T10:35:47.394Z</time></trkpt><trkpt lat="44.32633" lon="10.9497567"><ele>572.0</ele><time>2026-04-25T10:35:49.393Z</time></trkpt><trkpt lat="44.3264317" lon="10.9498233"><ele>572.0</ele><time>2026-04-25T10:35:51.392Z</time></trkpt><trkpt lat="44.32653" lon="10.9498983"><ele>572.0</ele><time>2026-04-25T10:35:53.393Z</time></trkpt><trkpt lat="44.3265983" lon="10.94994"><ele>572.0</ele><time>2026-04-25T10:35:56.392Z</time></trkpt><trkpt lat="44.3265083" lon="10.9498483"><ele>572.0</ele><time>2026-04-25T10:36:03.392Z</time></trkpt><trkpt lat="44.3264233" lon="10.9498"><ele>572.0</ele><time>2026-04-25T10:36:04.392Z</time></trkpt><trkpt lat="44.32634" lon="10.94976"><ele>572.0</ele><time>2026-04-25T10:36:05.393Z</time></trkpt><trkpt lat="44.326255" lon="10.9497483"><ele>572.0</ele><time>2026-04-25T10:36:06.394Z</time></trkpt><trkpt lat="44.32616" lon="10.9497733"><ele>572.0</ele><time>2026-04-25T10:36:07.393Z</time></trkpt><trkpt lat="44.326055" lon="10.949835"><ele>572.0</ele><time>2026-04-25T10:36:08.394Z</time></trkpt><trkpt lat="44.3259467" lon="10.9499083"><ele>572.0</ele><time>2026-04-25T10:36:09.393Z</time></trkpt><trkpt lat="44.3258533" lon="10.9499733"><ele>572.0</ele><time>2026-04-25T10:36:10.393Z</time></trkpt><trkpt lat="44.3257817" lon="10.95004"><ele>572.0</ele><time>2026-04-25T10:36:11.392Z</time></trkpt><trkpt lat="44.3257383" lon="10.9501067"><ele>572.0</ele><time>2026-04-25T10:36:12.393Z</time></trkpt><trkpt lat="44.3257367" lon="10.9502733"><ele>572.0</ele><time>2026-04-25T10:36:14.394Z</time></trkpt><trkpt lat="44.3257917" lon="10.95037"><ele>572.0</ele><time>2026-04-25T10:36:15.392Z</time></trkpt><trkpt lat="44.3258717" lon="10.9504717"><ele>574.25</ele><time>2026-04-25T10:36:16.392Z</time></trkpt><trkpt lat="44.325965" lon="10.9505783"><ele>576.5</ele><time>2026-04-25T10:36:17.392Z</time></trkpt><trkpt lat="44.3260567" lon="10.9506833"><ele>578.75</ele><time>2026-04-25T10:36:18.395Z</time></trkpt><trkpt lat="44.32615" lon="10.950785"><ele>581.0</ele><time>2026-04-25T10:36:19.393Z</time></trkpt><trkpt lat="44.3262467" lon="10.9508833"><ele>583.25</ele><time>2026-04-25T10:36:20.395Z</time></trkpt><trkpt lat="44.3263417" lon="10.95098"><ele>585.5</ele><time>2026-04-25T10:36:21.393Z</time></trkpt><trkpt lat="44.3264267" lon="10.951085"><ele>587.75</ele><time>2026-04-25T10:36:22.394Z</time></trkpt><trkpt lat="44.326495" lon="10.9512117"><ele>590.0</ele><time>2026-04-25T10:36:23.394Z</time></trkpt><trkpt lat="44.326555" lon="10.9513517"><ele>592.4</ele><time>2026-04-25T10:36:24.394Z</time></trkpt><trkpt lat="44.3266183" lon="10.9514833"><ele>594.8</ele><time>2026-04-25T10:36:25.392Z</time></trkpt><trkpt lat="44.326695" lon="10.95159"><ele>597.2</ele><time>2026-04-25T10:36:26.395Z</time></trkpt><trkpt lat="44.3267817" lon="10.9516783"><ele>599.6</ele><time>2026-04-25T10:36:27.393Z</time></trkpt><trkpt lat="44.326865" lon="10.951755"><ele>602.0</ele><time>2026-04-25T10:36:28.393Z</time></trkpt><trkpt lat="44.3269383" lon="10.9518117"><ele>604.6</ele><time>2026-04-25T10:36:29.392Z</time></trkpt><trkpt lat="44.3269967" lon="10.95186"><ele>607.2</ele><time>2026-04-25T10:36:30.391Z</time></trkpt><trkpt lat="44.32706" lon="10.9519817"><ele>609.8</ele><time>2026-04-25T10:36:32.393Z</time></trkpt><trkpt lat="44.3269967" lon="10.95212"><ele>612.4</ele><time>2026-04-25T10:36:34.392Z</time></trkpt><trkpt lat="44.32693" lon="10.95217"><ele>615.0</ele><time>2026-04-25T10:36:35.392Z</time></trkpt><trkpt lat="44.326835" lon="10.95221"><ele>615.0</ele><time>2026-04-25T10:36:36.393Z</time></trkpt><trkpt lat="44.32674" lon="10.9522517"><ele>615.0</ele><time>2026-04-25T10:36:37.391Z</time></trkpt><trkpt lat="44.3266617" lon="10.952295"><ele>615.0</ele><time>2026-04-25T10:36:38.394Z</time></trkpt><trkpt lat="44.326585" lon="10.952345"><ele>615.0</ele><time>2026-04-25T10:36:39.392Z</time></trkpt><trkpt lat="44.32651" lon="10.9523933"><ele>615.0</ele><time>2026-04-25T10:36:40.391Z</time></trkpt><trkpt lat="44.3264433" lon="10.9524433"><ele>615.0</ele><time>2026-04-25T10:36:41.393Z</time></trkpt><trkpt lat="44.3263917" lon="10.9525"><ele>616.3333333333334</ele><time>2026-04-25T10:36:42.392Z</time></trkpt><trkpt lat="44.326345" lon="10.952635"><ele>617.6666666666666</ele><time>2026-04-25T10:36:44.394Z</time></trkpt><trkpt lat="44.32639" lon="10.95275"><ele>619.0</ele><time>2026-04-25T10:36:46.394Z</time></trkpt><trkpt lat="44.3264533" lon="10.9527633"><ele>620.3333333333333</ele><time>2026-04-25T10:36:47.393Z</time></trkpt><trkpt lat="44.3265333" lon="10.9527517"><ele>621.6666666666666</ele><time>2026-04-25T10:36:48.394Z</time></trkpt><trkpt lat="44.3266217" lon="10.9527417"><ele>623.0</ele><time>2026-04-25T10:36:49.395Z</time></trkpt><trkpt lat="44.32671" lon="10.952745"><ele>623.6666666666666</ele><time>2026-04-25T10:36:50.394Z</time></trkpt><trkpt lat="44.3267917" lon="10.9527717"><ele>624.3333333333333</ele><time>2026-04-25T10:36:51.394Z</time></trkpt><trkpt lat="44.3268733" lon="10.9528233"><ele>625.0</ele><time>2026-04-25T10:36:52.393Z</time></trkpt><trkpt lat="44.32692" lon="10.95291"><ele>625.6666666666666</ele><time>2026-04-25T10:36:53.393Z</time></trkpt><trkpt lat="44.3269517" lon="10.9530033"><ele>626.3333333333334</ele><time>2026-04-25T10:36:54.392Z</time></trkpt><trkpt lat="44.3269483" lon="10.95314"><ele>627.0</ele><time>2026-04-25T10:36:56.394Z</time></trkpt><trkpt lat="44.3269117" lon="10.9532283"><ele>627.0</ele><time>2026-04-25T10:36:59.392Z</time></trkpt><trkpt lat="44.3268933" lon="10.9533483"><ele>627.0</ele><time>2026-04-25T10:37:03.391Z</time></trkpt><trkpt lat="44.3268967" lon="10.9535"><ele>627.0</ele><time>2026-04-25T10:37:05.391Z</time></trkpt><trkpt lat="44.3269033" lon="10.953595"><ele>627.0</ele><time>2026-04-25T10:37:06.392Z</time></trkpt><trkpt lat="44.3269217" lon="10.9536933"><ele>627.0</ele><time>2026-04-25T10:37:07.392Z</time></trkpt><trkpt lat="44.32694" lon="10.9537983"><ele>627.0</ele><time>2026-04-25T10:37:08.394Z</time></trkpt><trkpt lat="44.326955" lon="10.9539083"><ele>629.2</ele><time>2026-04-25T10:37:09.392Z</time></trkpt><trkpt lat="44.3269617" lon="10.95403"><ele>631.4000000000001</ele><time>2026-04-25T10:37:10.394Z</time></trkpt><trkpt lat="44.3269633" lon="10.9541583"><ele>633.5999999999999</ele><time>2026-04-25T10:37:11.392Z</time></trkpt><trkpt lat="44.3269567" lon="10.9542867"><ele>635.8</ele><time>2026-04-25T10:37:12.391Z</time></trkpt><trkpt lat="44.3269483" lon="10.954415"><ele>638.0</ele><time>2026-04-25T10:37:13.394Z</time></trkpt><trkpt lat="44.3269433" lon="10.9545433"><ele>639.8</ele><time>2026-04-25T10:37:14.393Z</time></trkpt><trkpt lat="44.3269483" lon="10.954675"><ele>641.5999999999999</ele><time>2026-04-25T10:37:15.392Z</time></trkpt><trkpt lat="44.3269617" lon="10.9548083"><ele>643.4000000000001</ele><time>2026-04-25T10:37:16.393Z</time></trkpt><trkpt lat="44.3269817" lon="10.9549417"><ele>645.2</ele><time>2026-04-25T10:37:17.392Z</time></trkpt><trkpt lat="44.3270083" lon="10.9550783"><ele>647.0</ele><time>2026-04-25T10:37:18.394Z</time></trkpt><trkpt lat="44.3270367" lon="10.9552233"><ele>647.0</ele><time>2026-04-25T10:37:19.394Z</time></trkpt><trkpt lat="44.3270683" lon="10.9553733"><ele>647.0</ele><time>2026-04-25T10:37:20.397Z</time></trkpt><trkpt lat="44.3271" lon="10.9555267"><ele>647.0</ele><time>2026-04-25T10:37:21.391Z</time></trkpt><trkpt lat="44.3271367" lon="10.9556817"><ele>647.0</ele><time>2026-04-25T10:37:22.394Z</time></trkpt><trkpt lat="44.3271717" lon="10.955825"><ele>646.0</ele><time>2026-04-25T10:37:23.393Z</time></trkpt><trkpt lat="44.32719" lon="10.9559583"><ele>645.0</ele><time>2026-04-25T10:37:24.392Z</time></trkpt><trkpt lat="44.3271933" lon="10.9560783"><ele>644.0</ele><time>2026-04-25T10:37:25.392Z</time></trkpt><trkpt lat="44.32717" lon="10.9562"><ele>643.0</ele><time>2026-04-25T10:37:26.394Z</time></trkpt><trkpt lat="44.3271283" lon="10.9563267"><ele>642.0</ele><time>2026-04-25T10:37:27.394Z</time></trkpt><trkpt lat="44.327085" lon="10.9564517"><ele>642.0</ele><time>2026-04-25T10:37:28.393Z</time></trkpt><trkpt lat="44.3270667" lon="10.9565867"><ele>642.0</ele><time>2026-04-25T10:37:29.392Z</time></trkpt><trkpt lat="44.3270733" lon="10.9567417"><ele>642.0</ele><time>2026-04-25T10:37:30.392Z</time></trkpt><trkpt lat="44.3270917" lon="10.9569067"><ele>642.0</ele><time>2026-04-25T10:37:31.393Z</time></trkpt><trkpt lat="44.3271167" lon="10.9570783"><ele>642.0</ele><time>2026-04-25T10:37:32.393Z</time></trkpt><trkpt lat="44.3271417" lon="10.9572583"><ele>642.0</ele><time>2026-04-25T10:37:33.392Z</time></trkpt><trkpt lat="44.3271683" lon="10.9574333"><ele>642.0</ele><time>2026-04-25T10:37:34.392Z</time></trkpt><trkpt lat="44.32721" lon="10.957595"><ele>642.0</ele><time>2026-04-25T10:37:35.392Z</time></trkpt><trkpt lat="44.3272617" lon="10.9577517"><ele>644.5</ele><time>2026-04-25T10:37:36.392Z</time></trkpt><trkpt lat="44.327315" lon="10.95791"><ele>647.0</ele><time>2026-04-25T10:37:37.392Z</time></trkpt><trkpt lat="44.327365" lon="10.958075"><ele>649.5</ele><time>2026-04-25T10:37:38.394Z</time></trkpt><trkpt lat="44.327415" lon="10.9582433"><ele>652.0</ele><time>2026-04-25T10:37:39.392Z</time></trkpt><trkpt lat="44.3274633" lon="10.958415"><ele>653.25</ele><time>2026-04-25T10:37:40.389Z</time></trkpt><trkpt lat="44.3275133" lon="10.95859"><ele>654.5</ele><time>2026-04-25T10:37:41.392Z</time></trkpt><trkpt lat="44.3275633" lon="10.95877"><ele>655.75</ele><time>2026-04-25T10:37:42.392Z</time></trkpt><trkpt lat="44.3276083" lon="10.9589617"><ele>657.0</ele><time>2026-04-25T10:37:43.391Z</time></trkpt><trkpt lat="44.3276433" lon="10.9591617"><ele>659.3333333333334</ele><time>2026-04-25T10:37:44.393Z</time></trkpt><trkpt lat="44.3276667" lon="10.9593667"><ele>661.6666666666667</ele><time>2026-04-25T10:37:45.396Z</time></trkpt><trkpt lat="44.3276833" lon="10.9595783"><ele>664.0</ele><time>2026-04-25T10:37:46.392Z</time></trkpt><trkpt lat="44.3276917" lon="10.95979"><ele>664.0</ele><time>2026-04-25T10:37:47.393Z</time></trkpt><trkpt lat="44.3277" lon="10.959985"><ele>664.0</ele><time>2026-04-25T10:37:48.393Z</time></trkpt><trkpt lat="44.327715" lon="10.9601683"><ele>664.0</ele><time>2026-04-25T10:37:49.391Z</time></trkpt><trkpt lat="44.3277367" lon="10.9603433"><ele>664.0</ele><time>2026-04-25T10:37:50.393Z</time></trkpt><trkpt lat="44.3277633" lon="10.960515"><ele>665.5</ele><time>2026-04-25T10:37:51.392Z</time></trkpt><trkpt lat="44.3278033" lon="10.96069"><ele>667.0</ele><time>2026-04-25T10:37:52.392Z</time></trkpt><trkpt lat="44.3278483" lon="10.9608683"><ele>668.5</ele><time>2026-04-25T10:37:53.392Z</time></trkpt><trkpt lat="44.3278933" lon="10.9610333"><ele>670.0</ele><time>2026-04-25T10:37:54.393Z</time></trkpt><trkpt lat="44.3279317" lon="10.9611833"><ele>670.0</ele><time>2026-04-25T10:37:55.392Z</time></trkpt><trkpt lat="44.3279617" lon="10.9613117"><ele>670.0</ele><time>2026-04-25T10:37:56.395Z</time></trkpt><trkpt lat="44.3279833" lon="10.961425"><ele>670.0</ele><time>2026-04-25T10:37:57.391Z</time></trkpt><trkpt lat="44.3279933" lon="10.96153"><ele>670.0</ele><time>2026-04-25T10:37:58.392Z</time></trkpt><trkpt lat="44.3279733" lon="10.9616333"><ele>670.0</ele><time>2026-04-25T10:37:59.392Z</time></trkpt><trkpt lat="44.327935" lon="10.9617467"><ele>670.0</ele><time>2026-04-25T10:38:00.392Z</time></trkpt><trkpt lat="44.3278883" lon="10.9618833"><ele>670.0</ele><time>2026-04-25T10:38:01.393Z</time></trkpt><trkpt lat="44.3278483" lon="10.9620317"><ele>670.0</ele><time>2026-04-25T10:38:02.394Z</time></trkpt><trkpt lat="44.3278167" lon="10.9621833"><ele>670.0</ele><time>2026-04-25T10:38:03.392Z</time></trkpt><trkpt lat="44.3277883" lon="10.962345"><ele>670.0</ele><time>2026-04-25T10:38:04.392Z</time></trkpt><trkpt lat="44.3277633" lon="10.96251"><ele>670.4</ele><time>2026-04-25T10:38:05.391Z</time></trkpt><trkpt lat="44.3277417" lon="10.9626667"><ele>670.8</ele><time>2026-04-25T10:38:06.392Z</time></trkpt><trkpt lat="44.327715" lon="10.9628133"><ele>671.2</ele><time>2026-04-25T10:38:07.391Z</time></trkpt><trkpt lat="44.3276733" lon="10.9629517"><ele>671.6</ele><time>2026-04-25T10:38:08.393Z</time></trkpt><trkpt lat="44.32762" lon="10.9630833"><ele>672.0</ele><time>2026-04-25T10:38:09.391Z</time></trkpt><trkpt lat="44.327565" lon="10.9632183"><ele>672.8</ele><time>2026-04-25T10:38:10.393Z</time></trkpt><trkpt lat="44.3275133" lon="10.963365"><ele>673.6</ele><time>2026-04-25T10:38:11.392Z</time></trkpt><trkpt lat="44.3274683" lon="10.9635083"><ele>674.4</ele><time>2026-04-25T10:38:12.391Z</time></trkpt><trkpt lat="44.3274317" lon="10.9636467"><ele>675.1999999999999</ele><time>2026-04-25T10:38:13.39Z</time></trkpt><trkpt lat="44.3273967" lon="10.9637983"><ele>676.0</ele><time>2026-04-25T10:38:14.393Z</time></trkpt><trkpt lat="44.3273567" lon="10.9639633"><ele>676.0</ele><time>2026-04-25T10:38:15.391Z</time></trkpt><trkpt lat="44.327315" lon="10.9641333"><ele>676.0</ele><time>2026-04-25T10:38:16.393Z</time></trkpt><trkpt lat="44.3272767" lon="10.9643033"><ele>676.0</ele><time>2026-04-25T10:38:17.39Z</time></trkpt><trkpt lat="44.3272267" lon="10.964465"><ele>676.0</ele><time>2026-04-25T10:38:18.392Z</time></trkpt><trkpt lat="44.32717" lon="10.9646133"><ele>674.0</ele><time>2026-04-25T10:38:19.393Z</time></trkpt><trkpt lat="44.3271133" lon="10.964755"><ele>672.0</ele><time>2026-04-25T10:38:20.393Z</time></trkpt><trkpt lat="44.3270633" lon="10.964895"><ele>670.0</ele><time>2026-04-25T10:38:21.393Z</time></trkpt><trkpt lat="44.327025" lon="10.9650333"><ele>668.0</ele><time>2026-04-25T10:38:22.392Z</time></trkpt><trkpt lat="44.3270017" lon="10.965165"><ele>666.0</ele><time>2026-04-25T10:38:23.392Z</time></trkpt><trkpt lat="44.3269917" lon="10.9652917"><ele>666.0</ele><time>2026-04-25T10:38:24.392Z</time></trkpt><trkpt lat="44.3269983" lon="10.965415"><ele>666.0</ele><time>2026-04-25T10:38:25.393Z</time></trkpt><trkpt lat="44.3270117" lon="10.965525"><ele>666.0</ele><time>2026-04-25T10:38:26.393Z</time></trkpt><trkpt lat="44.3270217" lon="10.965635"><ele>666.0</ele><time>2026-04-25T10:38:27.391Z</time></trkpt><trkpt lat="44.3270217" lon="10.9657533"><ele>666.0</ele><time>2026-04-25T10:38:28.391Z</time></trkpt><trkpt lat="44.3270033" lon="10.9658667"><ele>666.0</ele><time>2026-04-25T10:38:29.39Z</time></trkpt><trkpt lat="44.326915" lon="10.965945"><ele>669.5</ele><time>2026-04-25T10:38:30.392Z</time></trkpt><trkpt lat="44.32681" lon="10.9660233"><ele>673.0</ele><time>2026-04-25T10:38:31.391Z</time></trkpt><trkpt lat="44.3266967" lon="10.9661067"><ele>676.5</ele><time>2026-04-25T10:38:32.393Z</time></trkpt><trkpt lat="44.32659" lon="10.9662017"><ele>680.0</ele><time>2026-04-25T10:38:33.392Z</time></trkpt><trkpt lat="44.3265017" lon="10.9662967"><ele>680.0</ele><time>2026-04-25T10:38:34.392Z</time></trkpt><trkpt lat="44.3264333" lon="10.966385"><ele>680.0</ele><time>2026-04-25T10:38:35.391Z</time></trkpt><trkpt lat="44.3263817" lon="10.966465"><ele>680.0</ele><time>2026-04-25T10:38:36.392Z</time></trkpt><trkpt lat="44.3263383" lon="10.96654"><ele>680.0</ele><time>2026-04-25T10:38:37.393Z</time></trkpt><trkpt lat="44.3263017" lon="10.9666317"><ele>680.0</ele><time>2026-04-25T10:38:38.396Z</time></trkpt><trkpt lat="44.326265" lon="10.9667383"><ele>680.0</ele><time>2026-04-25T10:38:39.394Z</time></trkpt><trkpt lat="44.32623" lon="10.966855"><ele>678.6</ele><time>2026-04-25T10:38:40.395Z</time></trkpt><trkpt lat="44.326195" lon="10.96698"><ele>677.2</ele><time>2026-04-25T10:38:41.395Z</time></trkpt><trkpt lat="44.326165" lon="10.9671183"><ele>675.8</ele><time>2026-04-25T10:38:42.394Z</time></trkpt><trkpt lat="44.32614" lon="10.9672683"><ele>674.4</ele><time>2026-04-25T10:38:43.396Z</time></trkpt><trkpt lat="44.326125" lon="10.9674283"><ele>673.0</ele><time>2026-04-25T10:38:44.396Z</time></trkpt><trkpt lat="44.3261283" lon="10.9675967"><ele>673.0</ele><time>2026-04-25T10:38:45.393Z</time></trkpt><trkpt lat="44.3261483" lon="10.9677617"><ele>673.0</ele><time>2026-04-25T10:38:46.393Z</time></trkpt><trkpt lat="44.32619" lon="10.9679117"><ele>673.0</ele><time>2026-04-25T10:38:47.394Z</time></trkpt><trkpt lat="44.326245" lon="10.968045"><ele>673.0</ele><time>2026-04-25T10:38:48.394Z</time></trkpt><trkpt lat="44.3262917" lon="10.9681683"><ele>673.0</ele><time>2026-04-25T10:38:49.394Z</time></trkpt><trkpt lat="44.3263233" lon="10.96829"><ele>673.5</ele><time>2026-04-25T10:38:50.394Z</time></trkpt><trkpt lat="44.3263467" lon="10.9684083"><ele>674.0</ele><time>2026-04-25T10:38:51.394Z</time></trkpt><trkpt lat="44.326365" lon="10.96853"><ele>674.5</ele><time>2026-04-25T10:38:52.393Z</time></trkpt><trkpt lat="44.3263767" lon="10.96865"><ele>675.0</ele><time>2026-04-25T10:38:53.393Z</time></trkpt><trkpt lat="44.326385" lon="10.9687583"><ele>675.5</ele><time>2026-04-25T10:38:54.394Z</time></trkpt><trkpt lat="44.32639" lon="10.9688533"><ele>676.0</ele><time>2026-04-25T10:38:55.393Z</time></trkpt><trkpt lat="44.3263917" lon="10.9690083"><ele>676.0</ele><time>2026-04-25T10:38:57.393Z</time></trkpt><trkpt lat="44.3263867" lon="10.9691267"><ele>676.0</ele><time>2026-04-25T10:38:59.393Z</time></trkpt><trkpt lat="44.3263567" lon="10.9692467"><ele>676.0</ele><time>2026-04-25T10:39:01.389Z</time></trkpt><trkpt lat="44.326305" lon="10.9694067"><ele>676.0</ele><time>2026-04-25T10:39:03.394Z</time></trkpt><trkpt lat="44.3262617" lon="10.9695517"><ele>676.0</ele><time>2026-04-25T10:39:05.394Z</time></trkpt><trkpt lat="44.3262467" lon="10.9696467"><ele>676.1999999999999</ele><time>2026-04-25T10:39:07.394Z</time></trkpt><trkpt lat="44.32619" lon="10.9697967"><ele>676.4</ele><time>2026-04-25T10:40:12.393Z</time></trkpt><trkpt lat="44.326095" lon="10.9698583"><ele>676.6</ele><time>2026-04-25T10:40:26.395Z</time></trkpt><trkpt lat="44.3260167" lon="10.96993"><ele>676.8</ele><time>2026-04-25T10:40:28.394Z</time></trkpt><trkpt lat="44.32592" lon="10.9700283"><ele>677.0</ele><time>2026-04-25T10:40:30.394Z</time></trkpt><trkpt lat="44.325845" lon="10.970115"><ele>676.5</ele><time>2026-04-25T10:40:32.395Z</time></trkpt><trkpt lat="44.3257783" lon="10.9701683"><ele>676.0</ele><time>2026-04-25T10:40:35.395Z</time></trkpt><trkpt lat="44.32571" lon="10.9702183"><ele>675.5</ele><time>2026-04-25T10:40:38.395Z</time></trkpt><trkpt lat="44.3256383" lon="10.9702733"><ele>675.0</ele><time>2026-04-25T10:40:41.393Z</time></trkpt><trkpt lat="44.32559" lon="10.9703467"><ele>674.5</ele><time>2026-04-25T10:40:43.393Z</time></trkpt><trkpt lat="44.3255617" lon="10.97049"><ele>674.0</ele><time>2026-04-25T10:40:45.394Z</time></trkpt><trkpt lat="44.3255583" lon="10.9705967"><ele>674.0</ele><time>2026-04-25T10:40:46.393Z</time></trkpt><trkpt lat="44.3255633" lon="10.9707283"><ele>674.0</ele><time>2026-04-25T10:40:47.394Z</time></trkpt><trkpt lat="44.32557" lon="10.970875"><ele>674.0</ele><time>2026-04-25T10:40:48.394Z</time></trkpt><trkpt lat="44.3255783" lon="10.9710283"><ele>674.0</ele><time>2026-04-25T10:40:49.394Z</time></trkpt><trkpt lat="44.3255783" lon="10.9711567"><ele>674.0</ele><time>2026-04-25T10:40:50.395Z</time></trkpt><trkpt lat="44.3255733" lon="10.9712767"><ele>673.8333333333333</ele><time>2026-04-25T10:40:51.393Z</time></trkpt><trkpt lat="44.3255617" lon="10.9713883"><ele>673.6666666666666</ele><time>2026-04-25T10:40:52.394Z</time></trkpt><trkpt lat="44.3255417" lon="10.9715017"><ele>673.5</ele><time>2026-04-25T10:40:53.394Z</time></trkpt><trkpt lat="44.3255133" lon="10.9716133"><ele>673.3333333333334</ele><time>2026-04-25T10:40:54.394Z</time></trkpt><trkpt lat="44.3254833" lon="10.9717183"><ele>673.1666666666667</ele><time>2026-04-25T10:40:55.395Z</time></trkpt><trkpt lat="44.32545" lon="10.97182"><ele>673.0</ele><time>2026-04-25T10:40:56.394Z</time></trkpt><trkpt lat="44.3254183" lon="10.97192"><ele>671.1666666666667</ele><time>2026-04-25T10:40:57.394Z</time></trkpt><trkpt lat="44.325375" lon="10.9720117"><ele>669.3333333333334</ele><time>2026-04-25T10:40:58.393Z</time></trkpt><trkpt lat="44.3253167" lon="10.9720967"><ele>667.5</ele><time>2026-04-25T10:40:59.394Z</time></trkpt><trkpt lat="44.32525" lon="10.97217"><ele>665.6666666666666</ele><time>2026-04-25T10:41:00.394Z</time></trkpt><trkpt lat="44.325175" lon="10.9722283"><ele>663.8333333333333</ele><time>2026-04-25T10:41:01.394Z</time></trkpt><trkpt lat="44.3250983" lon="10.9722933"><ele>662.0</ele><time>2026-04-25T10:41:02.395Z</time></trkpt><trkpt lat="44.3250317" lon="10.97236"><ele>662.0</ele><time>2026-04-25T10:41:03.393Z</time></trkpt><trkpt lat="44.3249583" lon="10.9724233"><ele>662.0</ele><time>2026-04-25T10:41:04.393Z</time></trkpt><trkpt lat="44.3248883" lon="10.9724683"><ele>662.0</ele><time>2026-04-25T10:41:05.394Z</time></trkpt><trkpt lat="44.3248183" lon="10.9724967"><ele>662.0</ele><time>2026-04-25T10:41:06.393Z</time></trkpt><trkpt lat="44.324755" lon="10.9725317"><ele>662.0</ele><time>2026-04-25T10:41:07.394Z</time></trkpt><trkpt lat="44.3246983" lon="10.97257"><ele>662.0</ele><time>2026-04-25T10:41:08.395Z</time></trkpt><trkpt lat="44.324605" lon="10.9726617"><ele>659.0</ele><time>2026-04-25T10:41:10.393Z</time></trkpt><trkpt lat="44.3245617" lon="10.9727667"><ele>656.0</ele><time>2026-04-25T10:41:12.395Z</time></trkpt><trkpt lat="44.3245317" lon="10.97292"><ele>653.0</ele><time>2026-04-25T10:41:14.395Z</time></trkpt><trkpt lat="44.324535" lon="10.973085"><ele>650.0</ele><time>2026-04-25T10:41:16.395Z</time></trkpt><trkpt lat="44.324535" lon="10.9732583"><ele>647.0</ele><time>2026-04-25T10:41:18.394Z</time></trkpt><trkpt lat="44.3245283" lon="10.9734217"><ele>644.0</ele><time>2026-04-25T10:41:20.395Z</time></trkpt><trkpt lat="44.3245033" lon="10.9735733"><ele>641.0</ele><time>2026-04-25T10:41:22.393Z</time></trkpt><trkpt lat="44.3244967" lon="10.9737217"><ele>638.0</ele><time>2026-04-25T10:41:24.394Z</time></trkpt><trkpt lat="44.32455" lon="10.973875"><ele>635.0</ele><time>2026-04-25T10:41:26.395Z</time></trkpt><trkpt lat="44.3245917" lon="10.9739483"><ele>632.0</ele><time>2026-04-25T10:41:27.394Z</time></trkpt><trkpt lat="44.3246383" lon="10.9741067"><ele>631.3333333333333</ele><time>2026-04-25T10:41:29.394Z</time></trkpt><trkpt lat="44.324645" lon="10.9742"><ele>630.6666666666666</ele><time>2026-04-25T10:41:30.393Z</time></trkpt><trkpt lat="44.3246533" lon="10.9742933"><ele>630.0</ele><time>2026-04-25T10:41:31.393Z</time></trkpt><trkpt lat="44.3246683" lon="10.97438"><ele>629.3333333333334</ele><time>2026-04-25T10:41:32.395Z</time></trkpt><trkpt lat="44.3247217" lon="10.9745283"><ele>628.6666666666667</ele><time>2026-04-25T10:41:34.393Z</time></trkpt><trkpt lat="44.3247883" lon="10.9746467"><ele>628.0</ele><time>2026-04-25T10:41:36.394Z</time></trkpt><trkpt lat="44.3248367" lon="10.9747167"><ele>630.6666666666667</ele><time>2026-04-25T10:41:37.394Z</time></trkpt><trkpt lat="44.3248883" lon="10.9747933"><ele>633.3333333333334</ele><time>2026-04-25T10:41:38.395Z</time></trkpt><trkpt lat="44.3249433" lon="10.9748667"><ele>636.0</ele><time>2026-04-25T10:41:39.394Z</time></trkpt><trkpt lat="44.3249967" lon="10.97494"><ele>638.6666666666666</ele><time>2026-04-25T10:41:40.392Z</time></trkpt><trkpt lat="44.325055" lon="10.9750217"><ele>641.3333333333333</ele><time>2026-04-25T10:41:41.392Z</time></trkpt><trkpt lat="44.325115" lon="10.9751133"><ele>644.0</ele><time>2026-04-25T10:41:42.394Z</time></trkpt><trkpt lat="44.3251633" lon="10.975205"><ele>644.0</ele><time>2026-04-25T10:41:43.394Z</time></trkpt><trkpt lat="44.3252017" lon="10.9752917"><ele>644.0</ele><time>2026-04-25T10:41:44.394Z</time></trkpt><trkpt lat="44.3252367" lon="10.97538"><ele>644.0</ele><time>2026-04-25T10:41:45.395Z</time></trkpt><trkpt lat="44.325265" lon="10.975465"><ele>644.0</ele><time>2026-04-25T10:41:46.392Z</time></trkpt><trkpt lat="44.325275" lon="10.9755533"><ele>644.0</ele><time>2026-04-25T10:41:47.394Z</time></trkpt><trkpt lat="44.3252733" lon="10.9756433"><ele>644.0</ele><time>2026-04-25T10:41:48.393Z</time></trkpt><trkpt lat="44.32526" lon="10.97581"><ele>644.7142857142857</ele><time>2026-04-25T10:41:50.394Z</time></trkpt><trkpt lat="44.3252567" lon="10.975915"><ele>645.4285714285714</ele><time>2026-04-25T10:41:51.394Z</time></trkpt><trkpt lat="44.3252633" lon="10.97602"><ele>646.1428571428571</ele><time>2026-04-25T10:41:52.392Z</time></trkpt><trkpt lat="44.3252667" lon="10.97612"><ele>646.8571428571429</ele><time>2026-04-25T10:41:53.394Z</time></trkpt><trkpt lat="44.325255" lon="10.9762233"><ele>647.5714285714286</ele><time>2026-04-25T10:41:54.391Z</time></trkpt><trkpt lat="44.3252483" lon="10.976325"><ele>648.2857142857142</ele><time>2026-04-25T10:41:55.394Z</time></trkpt><trkpt lat="44.3252467" lon="10.9764183"><ele>649.0</ele><time>2026-04-25T10:41:56.394Z</time></trkpt><trkpt lat="44.3252483" lon="10.976515"><ele>649.0</ele><time>2026-04-25T10:41:57.392Z</time></trkpt><trkpt lat="44.32525" lon="10.9766117"><ele>649.0</ele><time>2026-04-25T10:41:58.392Z</time></trkpt><trkpt lat="44.32524" lon="10.9767033"><ele>649.0</ele><time>2026-04-25T10:41:59.394Z</time></trkpt><trkpt lat="44.3252283" lon="10.9768233"><ele>649.0</ele><time>2026-04-25T10:42:01.393Z</time></trkpt><trkpt lat="44.3252717" lon="10.976895"><ele>649.0</ele><time>2026-04-25T10:42:04.395Z</time></trkpt><trkpt lat="44.3253217" lon="10.977005"><ele>649.0</ele><time>2026-04-25T10:42:06.392Z</time></trkpt><trkpt lat="44.3253883" lon="10.9771283"><ele>651.2</ele><time>2026-04-25T10:42:08.396Z</time></trkpt><trkpt lat="44.3254717" lon="10.9772067"><ele>653.4000000000001</ele><time>2026-04-25T10:42:10.394Z</time></trkpt><trkpt lat="44.3255283" lon="10.97725"><ele>655.6</ele><time>2026-04-25T10:42:11.394Z</time></trkpt><trkpt lat="44.32563" lon="10.9773233"><ele>657.8</ele><time>2026-04-25T10:42:13.394Z</time></trkpt><trkpt lat="44.3257183" lon="10.9773333"><ele>660.0</ele><time>2026-04-25T10:42:15.393Z</time></trkpt><trkpt lat="44.325785" lon="10.9772483"><ele>663.3333333333334</ele><time>2026-04-25T10:42:17.394Z</time></trkpt><trkpt lat="44.32585" lon="10.9771733"><ele>666.6666666666666</ele><time>2026-04-25T10:42:19.394Z</time></trkpt><trkpt lat="44.3258983" lon="10.9770867"><ele>670.0</ele><time>2026-04-25T10:42:21.394Z</time></trkpt><trkpt lat="44.3259133" lon="10.9769683"><ele>673.3333333333333</ele><time>2026-04-25T10:42:23.393Z</time></trkpt><trkpt lat="44.3259617" lon="10.9768983"><ele>676.6666666666666</ele><time>2026-04-25T10:42:26.396Z</time></trkpt><trkpt lat="44.326055" lon="10.9768717"><ele>680.0</ele><time>2026-04-25T10:42:43.395Z</time></trkpt><trkpt lat="44.3261133" lon="10.976905"><ele>680.0</ele><time>2026-04-25T10:42:45.402Z</time></trkpt><trkpt lat="44.3261967" lon="10.9769283"><ele>680.0</ele><time>2026-04-25T10:42:47.395Z</time></trkpt><trkpt lat="44.3262717" lon="10.9769783"><ele>680.0</ele><time>2026-04-25T10:42:49.396Z</time></trkpt><trkpt lat="44.3263183" lon="10.977095"><ele>680.0</ele><time>2026-04-25T10:42:51.395Z</time></trkpt><trkpt lat="44.3263433" lon="10.9771767"><ele>680.0</ele><time>2026-04-25T10:42:52.395Z</time></trkpt><trkpt lat="44.3263867" lon="10.97733"><ele>680.0</ele><time>2026-04-25T10:42:54.396Z</time></trkpt><trkpt lat="44.3264167" lon="10.9775"><ele>683.0</ele><time>2026-04-25T10:42:56.395Z</time></trkpt><trkpt lat="44.326425" lon="10.97759"><ele>686.0</ele><time>2026-04-25T10:42:57.394Z</time></trkpt><trkpt lat="44.3264367" lon="10.9776883"><ele>689.0</ele><time>2026-04-25T10:42:58.394Z</time></trkpt><trkpt lat="44.3264433" lon="10.977795"><ele>692.0</ele><time>2026-04-25T10:42:59.393Z</time></trkpt><trkpt lat="44.3264517" lon="10.977905"><ele>695.0</ele><time>2026-04-25T10:43:00.394Z</time></trkpt><trkpt lat="44.32644" lon="10.9780283"><ele>698.0</ele><time>2026-04-25T10:43:01.394Z</time></trkpt><trkpt lat="44.3264267" lon="10.97815"><ele>698.0</ele><time>2026-04-25T10:43:02.396Z</time></trkpt><trkpt lat="44.3264083" lon="10.97827"><ele>698.0</ele><time>2026-04-25T10:43:03.395Z</time></trkpt><trkpt lat="44.3263783" lon="10.9783733"><ele>698.0</ele><time>2026-04-25T10:43:04.392Z</time></trkpt><trkpt lat="44.3263433" lon="10.9784733"><ele>698.0</ele><time>2026-04-25T10:43:05.393Z</time></trkpt><trkpt lat="44.3262883" lon="10.9786317"><ele>698.0</ele><time>2026-04-25T10:43:07.394Z</time></trkpt><trkpt lat="44.32625" lon="10.97878"><ele>698.5999999999999</ele><time>2026-04-25T10:43:09.392Z</time></trkpt><trkpt lat="44.3262467" lon="10.9789633"><ele>699.1999999999999</ele><time>2026-04-25T10:43:11.393Z</time></trkpt><trkpt lat="44.3262517" lon="10.9790833"><ele>699.8</ele><time>2026-04-25T10:43:12.395Z</time></trkpt><trkpt lat="44.3262533" lon="10.97921"><ele>700.4</ele><time>2026-04-25T10:43:13.395Z</time></trkpt><trkpt lat="44.326255" lon="10.9793433"><ele>701.0</ele><time>2026-04-25T10:43:14.395Z</time></trkpt><trkpt lat="44.32625" lon="10.9794867"><ele>701.0</ele><time>2026-04-25T10:43:15.393Z</time></trkpt><trkpt lat="44.3262383" lon="10.9796217"><ele>701.0</ele><time>2026-04-25T10:43:16.393Z</time></trkpt><trkpt lat="44.3262233" lon="10.979745"><ele>701.0</ele><time>2026-04-25T10:43:17.393Z</time></trkpt><trkpt lat="44.326205" lon="10.979865"><ele>701.0</ele><time>2026-04-25T10:43:18.392Z</time></trkpt><trkpt lat="44.326185" lon="10.97997"><ele>701.0</ele><time>2026-04-25T10:43:19.393Z</time></trkpt><trkpt lat="44.3261633" lon="10.9800717"><ele>701.0</ele><time>2026-04-25T10:43:20.394Z</time></trkpt><trkpt lat="44.326145" lon="10.9801733"><ele>700.8333333333333</ele><time>2026-04-25T10:43:21.393Z</time></trkpt><trkpt lat="44.3261317" lon="10.980265"><ele>700.6666666666666</ele><time>2026-04-25T10:43:22.393Z</time></trkpt><trkpt lat="44.3261117" lon="10.9804133"><ele>700.5</ele><time>2026-04-25T10:43:24.394Z</time></trkpt><trkpt lat="44.3261183" lon="10.980555"><ele>700.3333333333334</ele><time>2026-04-25T10:43:26.394Z</time></trkpt><trkpt lat="44.3261383" lon="10.98064"><ele>700.1666666666667</ele><time>2026-04-25T10:43:27.393Z</time></trkpt><trkpt lat="44.326155" lon="10.9807267"><ele>700.0</ele><time>2026-04-25T10:43:28.393Z</time></trkpt><trkpt lat="44.3261717" lon="10.9808117"><ele>698.3333333333334</ele><time>2026-04-25T10:43:29.393Z</time></trkpt><trkpt lat="44.3261917" lon="10.9809033"><ele>696.6666666666667</ele><time>2026-04-25T10:43:30.393Z</time></trkpt><trkpt lat="44.3262117" lon="10.9809917"><ele>695.0</ele><time>2026-04-25T10:43:31.393Z</time></trkpt><trkpt lat="44.326235" lon="10.9810833"><ele>693.3333333333334</ele><time>2026-04-25T10:43:32.395Z</time></trkpt><trkpt lat="44.3262917" lon="10.981225"><ele>691.6666666666666</ele><time>2026-04-25T10:43:34.394Z</time></trkpt><trkpt lat="44.326335" lon="10.9813583"><ele>690.0</ele><time>2026-04-25T10:43:36.392Z</time></trkpt><trkpt lat="44.3263717" lon="10.9815017"><ele>692.1666666666666</ele><time>2026-04-25T10:43:38.394Z</time></trkpt><trkpt lat="44.3264" lon="10.9815867"><ele>694.3333333333334</ele><time>2026-04-25T10:43:39.393Z</time></trkpt><trkpt lat="44.3264667" lon="10.9817283"><ele>696.5</ele><time>2026-04-25T10:43:41.395Z</time></trkpt><trkpt lat="44.3265117" lon="10.98179"><ele>698.6666666666667</ele><time>2026-04-25T10:43:42.394Z</time></trkpt><trkpt lat="44.3265633" lon="10.98185"><ele>700.8333333333334</ele><time>2026-04-25T10:43:43.393Z</time></trkpt><trkpt lat="44.3266283" lon="10.9819833"><ele>703.0</ele><time>2026-04-25T10:43:45.395Z</time></trkpt><trkpt lat="44.326635" lon="10.9821417"><ele>703.0</ele><time>2026-04-25T10:43:47.394Z</time></trkpt><trkpt lat="44.3266383" lon="10.9822467"><ele>703.0</ele><time>2026-04-25T10:43:48.393Z</time></trkpt><trkpt lat="44.3266517" lon="10.9823433"><ele>703.0</ele><time>2026-04-25T10:43:49.395Z</time></trkpt><trkpt lat="44.326675" lon="10.9824367"><ele>703.0</ele><time>2026-04-25T10:43:50.394Z</time></trkpt><trkpt lat="44.3267117" lon="10.9825133"><ele>703.0</ele><time>2026-04-25T10:43:51.393Z</time></trkpt><trkpt lat="44.3267633" lon="10.9825767"><ele>703.0</ele><time>2026-04-25T10:43:52.393Z</time></trkpt><trkpt lat="44.3268233" lon="10.9826317"><ele>703.0</ele><time>2026-04-25T10:43:53.392Z</time></trkpt><trkpt lat="44.3268883" lon="10.9826667"><ele>702.5714285714286</ele><time>2026-04-25T10:43:54.393Z</time></trkpt><trkpt lat="44.326955" lon="10.9827033"><ele>702.1428571428571</ele><time>2026-04-25T10:43:55.394Z</time></trkpt><trkpt lat="44.3270217" lon="10.9827517"><ele>701.7142857142858</ele><time>2026-04-25T10:43:56.394Z</time></trkpt><trkpt lat="44.32708" lon="10.98281"><ele>701.2857142857142</ele><time>2026-04-25T10:43:57.394Z</time></trkpt><trkpt lat="44.3271383" lon="10.9828733"><ele>700.8571428571429</ele><time>2026-04-25T10:43:58.393Z</time></trkpt><trkpt lat="44.3271917" lon="10.9829383"><ele>700.4285714285714</ele><time>2026-04-25T10:43:59.396Z</time></trkpt><trkpt lat="44.32726" lon="10.9829967"><ele>700.0</ele><time>2026-04-25T10:44:00.394Z</time></trkpt><trkpt lat="44.3273317" lon="10.98305"><ele>700.0</ele><time>2026-04-25T10:44:01.394Z</time></trkpt><trkpt lat="44.3274017" lon="10.9830867"><ele>700.0</ele><time>2026-04-25T10:44:02.395Z</time></trkpt><trkpt lat="44.32747" lon="10.98309"><ele>700.0</ele><time>2026-04-25T10:44:03.392Z</time></trkpt><trkpt lat="44.32754" lon="10.9831033"><ele>700.0</ele><time>2026-04-25T10:44:04.393Z</time></trkpt><trkpt lat="44.3276033" lon="10.983115"><ele>700.0</ele><time>2026-04-25T10:44:05.395Z</time></trkpt><trkpt lat="44.32771" lon="10.9832"><ele>700.0</ele><time>2026-04-25T10:44:07.394Z</time></trkpt><trkpt lat="44.3277383" lon="10.9832833"><ele>700.4285714285714</ele><time>2026-04-25T10:44:08.394Z</time></trkpt><trkpt lat="44.3277633" lon="10.9833733"><ele>700.8571428571429</ele><time>2026-04-25T10:44:09.393Z</time></trkpt><trkpt lat="44.3278033" lon="10.983455"><ele>701.2857142857142</ele><time>2026-04-25T10:44:10.393Z</time></trkpt><trkpt lat="44.3278567" lon="10.9835317"><ele>701.7142857142858</ele><time>2026-04-25T10:44:11.394Z</time></trkpt><trkpt lat="44.3279117" lon="10.9836017"><ele>702.1428571428571</ele><time>2026-04-25T10:44:12.393Z</time></trkpt><trkpt lat="44.3279717" lon="10.983675"><ele>702.5714285714286</ele><time>2026-04-25T10:44:13.393Z</time></trkpt><trkpt lat="44.32803" lon="10.9837467"><ele>703.0</ele><time>2026-04-25T10:44:14.396Z</time></trkpt><trkpt lat="44.3281033" lon="10.9838617"><ele>703.0</ele><time>2026-04-25T10:44:16.393Z</time></trkpt><trkpt lat="44.3281117" lon="10.9839583"><ele>703.0</ele><time>2026-04-25T10:44:18.394Z</time></trkpt><trkpt lat="44.3280467" lon="10.9840333"><ele>703.0</ele><time>2026-04-25T10:44:21.392Z</time></trkpt><trkpt lat="44.32798" lon="10.9840617"><ele>703.0</ele><time>2026-04-25T10:44:23.396Z</time></trkpt><trkpt lat="44.327905" lon="10.9841133"><ele>703.0</ele><time>2026-04-25T10:44:25.392Z</time></trkpt><trkpt lat="44.3278017" lon="10.9842217"><ele>703.0</ele><time>2026-04-25T10:44:27.393Z</time></trkpt><trkpt lat="44.3277483" lon="10.984285"><ele>701.0</ele><time>2026-04-25T10:44:28.392Z</time></trkpt><trkpt lat="44.3276933" lon="10.98435"><ele>699.0</ele><time>2026-04-25T10:44:29.392Z</time></trkpt><trkpt lat="44.327635" lon="10.984415"><ele>697.0</ele><time>2026-04-25T10:44:30.392Z</time></trkpt><trkpt lat="44.3275717" lon="10.9844833"><ele>695.0</ele><time>2026-04-25T10:44:31.393Z</time></trkpt><trkpt lat="44.3275133" lon="10.9845533"><ele>693.0</ele><time>2026-04-25T10:44:32.394Z</time></trkpt><trkpt lat="44.3274583" lon="10.98463"><ele>691.0</ele><time>2026-04-25T10:44:33.394Z</time></trkpt><trkpt lat="44.3274083" lon="10.9847183"><ele>690.9999999999999</ele><time>2026-04-25T10:44:34.391Z</time></trkpt><trkpt lat="44.327355" lon="10.984795"><ele>691.0</ele><time>2026-04-25T10:44:35.394Z</time></trkpt><trkpt lat="44.3272917" lon="10.98485"><ele>691.0</ele><time>2026-04-25T10:44:36.394Z</time></trkpt><trkpt lat="44.327225" lon="10.9848867"><ele>691.0</ele><time>2026-04-25T10:44:37.392Z</time></trkpt><trkpt lat="44.3271583" lon="10.9849317"><ele>691.0</ele><time>2026-04-25T10:44:38.394Z</time></trkpt><trkpt lat="44.3270933" lon="10.9849783"><ele>690.9999999999999</ele><time>2026-04-25T10:44:39.394Z</time></trkpt><trkpt lat="44.3270367" lon="10.98504"><ele>691.0</ele><time>2026-04-25T10:44:40.394Z</time></trkpt><trkpt lat="44.3269833" lon="10.9851067"><ele>688.1666666666667</ele><time>2026-04-25T10:44:41.394Z</time></trkpt><trkpt lat="44.32693" lon="10.985185"><ele>685.3333333333334</ele><time>2026-04-25T10:44:42.393Z</time></trkpt><trkpt lat="44.326875" lon="10.98527"><ele>682.5</ele><time>2026-04-25T10:44:43.394Z</time></trkpt><trkpt lat="44.3268183" lon="10.9853517"><ele>679.6666666666666</ele><time>2026-04-25T10:44:44.394Z</time></trkpt><trkpt lat="44.3267617" lon="10.9854267"><ele>676.8333333333333</ele><time>2026-04-25T10:44:45.393Z</time></trkpt><trkpt lat="44.326705" lon="10.985505"><ele>674.0</ele><time>2026-04-25T10:44:46.392Z</time></trkpt><trkpt lat="44.32664" lon="10.9855883"><ele>674.0000000000001</ele><time>2026-04-25T10:44:47.394Z</time></trkpt><trkpt lat="44.3265833" lon="10.9856617"><ele>674.0</ele><time>2026-04-25T10:44:48.394Z</time></trkpt><trkpt lat="44.3265367" lon="10.9857283"><ele>674.0</ele><time>2026-04-25T10:44:49.393Z</time></trkpt><trkpt lat="44.3265" lon="10.9858"><ele>674.0</ele><time>2026-04-25T10:44:50.394Z</time></trkpt><trkpt lat="44.32648" lon="10.985885"><ele>674.0</ele><time>2026-04-25T10:44:51.393Z</time></trkpt><trkpt lat="44.326465" lon="10.9859717"><ele>674.0000000000001</ele><time>2026-04-25T10:44:52.392Z</time></trkpt><trkpt lat="44.3264167" lon="10.9861"><ele>674.0</ele><time>2026-04-25T10:44:54.393Z</time></trkpt><trkpt lat="44.32634" lon="10.986235"><ele>672.2857142857143</ele><time>2026-04-25T10:44:56.394Z</time></trkpt><trkpt lat="44.3262983" lon="10.9863133"><ele>670.5714285714286</ele><time>2026-04-25T10:44:57.393Z</time></trkpt><trkpt lat="44.3262583" lon="10.9863983"><ele>668.8571428571429</ele><time>2026-04-25T10:44:58.392Z</time></trkpt><trkpt lat="44.3262217" lon="10.9864767"><ele>667.1428571428571</ele><time>2026-04-25T10:44:59.393Z</time></trkpt><trkpt lat="44.32618" lon="10.9865467"><ele>665.4285714285714</ele><time>2026-04-25T10:45:00.394Z</time></trkpt><trkpt lat="44.3261283" lon="10.9866117"><ele>663.7142857142858</ele><time>2026-04-25T10:45:01.393Z</time></trkpt><trkpt lat="44.32606" lon="10.9866817"><ele>662.0</ele><time>2026-04-25T10:45:02.394Z</time></trkpt><trkpt lat="44.32599" lon="10.9867683"><ele>662.0</ele><time>2026-04-25T10:45:03.393Z</time></trkpt><trkpt lat="44.3259233" lon="10.98686"><ele>662.0</ele><time>2026-04-25T10:45:04.392Z</time></trkpt><trkpt lat="44.32587" lon="10.9869567"><ele>662.0</ele><time>2026-04-25T10:45:05.392Z</time></trkpt><trkpt lat="44.3258167" lon="10.987055"><ele>662.0</ele><time>2026-04-25T10:45:06.395Z</time></trkpt><trkpt lat="44.3257667" lon="10.9871417"><ele>662.0</ele><time>2026-04-25T10:45:07.394Z</time></trkpt><trkpt lat="44.3257167" lon="10.9872183"><ele>662.0</ele><time>2026-04-25T10:45:08.395Z</time></trkpt><trkpt lat="44.325675" lon="10.987295"><ele>662.0</ele><time>2026-04-25T10:45:09.394Z</time></trkpt><trkpt lat="44.325645" lon="10.9873833"><ele>662.0</ele><time>2026-04-25T10:45:10.394Z</time></trkpt><trkpt lat="44.3256267" lon="10.9874833"><ele>662.0</ele><time>2026-04-25T10:45:11.393Z</time></trkpt><trkpt lat="44.3256167" lon="10.9875867"><ele>662.0</ele><time>2026-04-25T10:45:12.392Z</time></trkpt><trkpt lat="44.3256233" lon="10.9876817"><ele>662.0</ele><time>2026-04-25T10:45:13.393Z</time></trkpt><trkpt lat="44.325645" lon="10.9877733"><ele>662.0</ele><time>2026-04-25T10:45:14.393Z</time></trkpt><trkpt lat="44.325665" lon="10.987865"><ele>662.0</ele><time>2026-04-25T10:45:15.393Z</time></trkpt><trkpt lat="44.325695" lon="10.9880017"><ele>662.5</ele><time>2026-04-25T10:45:17.394Z</time></trkpt><trkpt lat="44.325655" lon="10.9880983"><ele>663.0</ele><time>2026-04-25T10:45:20.394Z</time></trkpt><trkpt lat="44.3255683" lon="10.9880967"><ele>663.5</ele><time>2026-04-25T10:45:22.394Z</time></trkpt><trkpt lat="44.32551" lon="10.9881817"><ele>664.0</ele><time>2026-04-25T10:45:25.394Z</time></trkpt><trkpt lat="44.325545" lon="10.98826"><ele>664.5</ele><time>2026-04-25T10:45:26.393Z</time></trkpt><trkpt lat="44.3255717" lon="10.9883467"><ele>665.0</ele><time>2026-04-25T10:45:27.394Z</time></trkpt><trkpt lat="44.3256" lon="10.988435"><ele>665.8333333333333</ele><time>2026-04-25T10:45:28.393Z</time></trkpt><trkpt lat="44.3256183" lon="10.9885267"><ele>666.6666666666666</ele><time>2026-04-25T10:45:29.394Z</time></trkpt><trkpt lat="44.32563" lon="10.9886133"><ele>667.5</ele><time>2026-04-25T10:45:30.394Z</time></trkpt><trkpt lat="44.325675" lon="10.988745"><ele>668.3333333333334</ele><time>2026-04-25T10:45:32.393Z</time></trkpt><trkpt lat="44.3257367" lon="10.9888333"><ele>669.1666666666667</ele><time>2026-04-25T10:45:34.393Z</time></trkpt><trkpt lat="44.3257817" lon="10.9889483"><ele>670.0</ele><time>2026-04-25T10:45:37.394Z</time></trkpt><trkpt lat="44.3258333" lon="10.98902"><ele>670.0</ele><time>2026-04-25T10:45:39.393Z</time></trkpt><trkpt lat="44.3258383" lon="10.9891317"><ele>670.0</ele><time>2026-04-25T10:45:42.391Z</time></trkpt><trkpt lat="44.3257867" lon="10.9892283"><ele>670.0</ele><time>2026-04-25T10:45:45.394Z</time></trkpt><trkpt lat="44.3257583" lon="10.9893167"><ele>670.0</ele><time>2026-04-25T10:45:47.393Z</time></trkpt><trkpt lat="44.3257233" lon="10.9894283"><ele>670.0</ele><time>2026-04-25T10:45:49.393Z</time></trkpt><trkpt lat="44.3256767" lon="10.9895667"><ele>670.0</ele><time>2026-04-25T10:45:51.394Z</time></trkpt><trkpt lat="44.3256067" lon="10.9896917"><ele>674.8</ele><time>2026-04-25T10:45:53.394Z</time></trkpt><trkpt lat="44.3255183" lon="10.9897283"><ele>679.6</ele><time>2026-04-25T10:45:55.393Z</time></trkpt><trkpt lat="44.3254633" lon="10.989625"><ele>684.4000000000001</ele><time>2026-04-25T10:45:57.394Z</time></trkpt><trkpt lat="44.32545" lon="10.9895283"><ele>689.2</ele><time>2026-04-25T10:45:58.393Z</time></trkpt><trkpt lat="44.325445" lon="10.9893883"><ele>694.0</ele><time>2026-04-25T10:46:00.393Z</time></trkpt><trkpt lat="44.32546" lon="10.98925"><ele>692.8333333333334</ele><time>2026-04-25T10:46:02.393Z</time></trkpt><trkpt lat="44.3254583" lon="10.9890983"><ele>691.6666666666667</ele><time>2026-04-25T10:46:04.393Z</time></trkpt><trkpt lat="44.32542" lon="10.988945"><ele>690.5</ele><time>2026-04-25T10:46:06.395Z</time></trkpt><trkpt lat="44.325375" lon="10.9888733"><ele>689.3333333333334</ele><time>2026-04-25T10:46:07.396Z</time></trkpt><trkpt lat="44.325315" lon="10.98882"><ele>688.1666666666666</ele><time>2026-04-25T10:46:08.395Z</time></trkpt><trkpt lat="44.325255" lon="10.9887833"><ele>687.0</ele><time>2026-04-25T10:46:09.393Z</time></trkpt><trkpt lat="44.3251333" lon="10.9887933"><ele>687.0</ele><time>2026-04-25T10:46:11.393Z</time></trkpt><trkpt lat="44.32508" lon="10.9888533"><ele>687.0</ele><time>2026-04-25T10:46:12.394Z</time></trkpt><trkpt lat="44.3250233" lon="10.9889267"><ele>687.0</ele><time>2026-04-25T10:46:13.393Z</time></trkpt><trkpt lat="44.3249683" lon="10.9889917"><ele>687.0</ele><time>2026-04-25T10:46:14.395Z</time></trkpt><trkpt lat="44.3249133" lon="10.9890517"><ele>687.0</ele><time>2026-04-25T10:46:15.394Z</time></trkpt><trkpt lat="44.3248583" lon="10.989125"><ele>687.0</ele><time>2026-04-25T10:46:16.393Z</time></trkpt><trkpt lat="44.3248167" lon="10.989205"><ele>687.0</ele><time>2026-04-25T10:46:17.393Z</time></trkpt><trkpt lat="44.32479" lon="10.9892967"><ele>688.4000000000001</ele><time>2026-04-25T10:46:18.393Z</time></trkpt><trkpt lat="44.324785" lon="10.989385"><ele>689.8000000000001</ele><time>2026-04-25T10:46:19.393Z</time></trkpt><trkpt lat="44.3248017" lon="10.9895483"><ele>691.2</ele><time>2026-04-25T10:46:21.393Z</time></trkpt><trkpt lat="44.3248067" lon="10.9897083"><ele>692.6</ele><time>2026-04-25T10:46:23.394Z</time></trkpt><trkpt lat="44.3247933" lon="10.989865"><ele>694.0</ele><time>2026-04-25T10:46:25.393Z</time></trkpt><trkpt lat="44.3247883" lon="10.98996"><ele>695.4285714285714</ele><time>2026-04-25T10:46:26.395Z</time></trkpt><trkpt lat="44.3247667" lon="10.9900617"><ele>696.8571428571428</ele><time>2026-04-25T10:46:27.394Z</time></trkpt><trkpt lat="44.32475" lon="10.9901633"><ele>698.2857142857142</ele><time>2026-04-25T10:46:28.393Z</time></trkpt><trkpt lat="44.3247367" lon="10.990255"><ele>699.7142857142858</ele><time>2026-04-25T10:46:29.394Z</time></trkpt><trkpt lat="44.32472" lon="10.9903417"><ele>701.1428571428571</ele><time>2026-04-25T10:46:30.394Z</time></trkpt><trkpt lat="44.3246917" lon="10.99043"><ele>702.5714285714286</ele><time>2026-04-25T10:46:31.394Z</time></trkpt><trkpt lat="44.3246567" lon="10.99051"><ele>704.0</ele><time>2026-04-25T10:46:32.394Z</time></trkpt><trkpt lat="44.3246017" lon="10.99065"><ele>705.8333333333333</ele><time>2026-04-25T10:46:34.394Z</time></trkpt><trkpt lat="44.3245783" lon="10.9907967"><ele>707.6666666666666</ele><time>2026-04-25T10:46:36.394Z</time></trkpt><trkpt lat="44.3245917" lon="10.990885"><ele>709.5</ele><time>2026-04-25T10:46:37.393Z</time></trkpt><trkpt lat="44.3246117" lon="10.990985"><ele>711.3333333333334</ele><time>2026-04-25T10:46:38.392Z</time></trkpt><trkpt lat="44.32463" lon="10.9910883"><ele>713.1666666666667</ele><time>2026-04-25T10:46:39.394Z</time></trkpt><trkpt lat="44.3246417" lon="10.991195"><ele>715.0</ele><time>2026-04-25T10:46:40.393Z</time></trkpt><trkpt lat="44.3246567" lon="10.9912967"><ele>715.8333333333334</ele><time>2026-04-25T10:46:41.393Z</time></trkpt><trkpt lat="44.32467" lon="10.99139"><ele>716.6666666666667</ele><time>2026-04-25T10:46:42.395Z</time></trkpt><trkpt lat="44.3246667" lon="10.9915483"><ele>717.5</ele><time>2026-04-25T10:46:44.395Z</time></trkpt><trkpt lat="44.3245783" lon="10.99158"><ele>718.3333333333334</ele><time>2026-04-25T10:46:46.393Z</time></trkpt><trkpt lat="44.3245067" lon="10.9915667"><ele>719.1666666666666</ele><time>2026-04-25T10:46:47.394Z</time></trkpt><trkpt lat="44.3244333" lon="10.99156"><ele>720.0</ele><time>2026-04-25T10:46:48.394Z</time></trkpt><trkpt lat="44.3243517" lon="10.99158"><ele>720.0</ele><time>2026-04-25T10:46:49.394Z</time></trkpt><trkpt lat="44.3242783" lon="10.991625"><ele>720.0</ele><time>2026-04-25T10:46:50.395Z</time></trkpt><trkpt lat="44.3242033" lon="10.991655"><ele>720.0</ele><time>2026-04-25T10:46:51.393Z</time></trkpt><trkpt lat="44.32414" lon="10.991665"><ele>720.0</ele><time>2026-04-25T10:46:52.39Z</time></trkpt><trkpt lat="44.3240317" lon="10.9917033"><ele>720.0</ele><time>2026-04-25T10:46:54.391Z</time></trkpt><trkpt lat="44.3239083" lon="10.9917417"><ele>723.2857142857142</ele><time>2026-04-25T10:46:56.394Z</time></trkpt><trkpt lat="44.3238383" lon="10.9917567"><ele>726.5714285714287</ele><time>2026-04-25T10:46:57.394Z</time></trkpt><trkpt lat="44.3237683" lon="10.9917617"><ele>729.8571428571429</ele><time>2026-04-25T10:46:58.393Z</time></trkpt><trkpt lat="44.323695" lon="10.9917617"><ele>733.1428571428571</ele><time>2026-04-25T10:46:59.394Z</time></trkpt><trkpt lat="44.3236217" lon="10.9917583"><ele>736.4285714285713</ele><time>2026-04-25T10:47:00.396Z</time></trkpt><trkpt lat="44.3235467" lon="10.99175"><ele>739.7142857142858</ele><time>2026-04-25T10:47:01.393Z</time></trkpt><trkpt lat="44.3234717" lon="10.9917333"><ele>743.0</ele><time>2026-04-25T10:47:02.395Z</time></trkpt><trkpt lat="44.323395" lon="10.99171"><ele>743.0</ele><time>2026-04-25T10:47:03.394Z</time></trkpt><trkpt lat="44.3233217" lon="10.99168"><ele>743.0</ele><time>2026-04-25T10:47:04.395Z</time></trkpt><trkpt lat="44.3232567" lon="10.991635"><ele>743.0</ele><time>2026-04-25T10:47:05.394Z</time></trkpt><trkpt lat="44.3231933" lon="10.9915767"><ele>743.0</ele><time>2026-04-25T10:47:06.396Z</time></trkpt><trkpt lat="44.3231283" lon="10.9915133"><ele>743.0</ele><time>2026-04-25T10:47:07.394Z</time></trkpt><trkpt lat="44.3230683" lon="10.991455"><ele>743.0</ele><time>2026-04-25T10:47:08.395Z</time></trkpt><trkpt lat="44.3230067" lon="10.9913233"><ele>746.0</ele><time>2026-04-25T10:47:10.394Z</time></trkpt><trkpt lat="44.323035" lon="10.9911833"><ele>749.0</ele><time>2026-04-25T10:47:12.395Z</time></trkpt><trkpt lat="44.3230367" lon="10.9910833"><ele>752.0</ele><time>2026-04-25T10:47:14.395Z</time></trkpt><trkpt lat="44.3229767" lon="10.9910167"><ele>755.0</ele><time>2026-04-25T10:47:17.396Z</time></trkpt><trkpt lat="44.322895" lon="10.9910283"><ele>758.0</ele><time>2026-04-25T10:47:19.394Z</time></trkpt><trkpt lat="44.3228133" lon="10.99101"><ele>761.0</ele><time>2026-04-25T10:48:34.393Z</time></trkpt><trkpt lat="44.3227333" lon="10.9909833"><ele>761.0</ele><time>2026-04-25T10:48:37.393Z</time></trkpt><trkpt lat="44.3226483" lon="10.990975"><ele>761.0</ele><time>2026-04-25T10:48:40.393Z</time></trkpt><trkpt lat="44.3225767" lon="10.9909733"><ele>761.0</ele><time>2026-04-25T10:48:42.394Z</time></trkpt><trkpt lat="44.3224933" lon="10.9909717"><ele>761.0</ele><time>2026-04-25T10:48:44.394Z</time></trkpt><trkpt lat="44.3224033" lon="10.9909483"><ele>761.0</ele><time>2026-04-25T10:48:46.395Z</time></trkpt><trkpt lat="44.3223083" lon="10.990945"><ele>761.0</ele><time>2026-04-25T10:48:48.394Z</time></trkpt><trkpt lat="44.3221917" lon="10.9909683"><ele>764.1999999999999</ele><time>2026-04-25T10:48:50.394Z</time></trkpt><trkpt lat="44.3220917" lon="10.9909983"><ele>767.4</ele><time>2026-04-25T10:48:52.393Z</time></trkpt><trkpt lat="44.321995" lon="10.9910417"><ele>770.6</ele><time>2026-04-25T10:48:54.395Z</time></trkpt><trkpt lat="44.3219117" lon="10.991025"><ele>773.8</ele><time>2026-04-25T10:48:56.395Z</time></trkpt><trkpt lat="44.3218317" lon="10.99104"><ele>777.0</ele><time>2026-04-25T10:48:58.395Z</time></trkpt><trkpt lat="44.3217633" lon="10.9911033"><ele>777.0</ele><time>2026-04-25T10:49:00.394Z</time></trkpt><trkpt lat="44.321695" lon="10.991165"><ele>777.0</ele><time>2026-04-25T10:49:02.394Z</time></trkpt><trkpt lat="44.321635" lon="10.9912467"><ele>777.0</ele><time>2026-04-25T10:49:04.392Z</time></trkpt><trkpt lat="44.3215717" lon="10.9913583"><ele>777.0</ele><time>2026-04-25T10:49:06.393Z</time></trkpt><trkpt lat="44.3214967" lon="10.9914967"><ele>777.0</ele><time>2026-04-25T10:49:08.392Z</time></trkpt><trkpt lat="44.3214767" lon="10.991665"><ele>778.6666666666666</ele><time>2026-04-25T10:49:10.395Z</time></trkpt><trkpt lat="44.3214483" lon="10.9918167"><ele>780.3333333333333</ele><time>2026-04-25T10:49:12.393Z</time></trkpt><trkpt lat="44.3214083" lon="10.9919417"><ele>782.0</ele><time>2026-04-25T10:49:14.395Z</time></trkpt><trkpt lat="44.3213967" lon="10.99209"><ele>783.6666666666666</ele><time>2026-04-25T10:49:16.393Z</time></trkpt><trkpt lat="44.3214" lon="10.9921783"><ele>785.3333333333333</ele><time>2026-04-25T10:49:17.394Z</time></trkpt><trkpt lat="44.3214033" lon="10.9922667"><ele>787.0</ele><time>2026-04-25T10:49:18.394Z</time></trkpt><trkpt lat="44.32141" lon="10.99244"><ele>787.2857142857142</ele><time>2026-04-25T10:49:20.394Z</time></trkpt><trkpt lat="44.32142" lon="10.9925283"><ele>787.5714285714286</ele><time>2026-04-25T10:49:21.394Z</time></trkpt><trkpt lat="44.3214333" lon="10.9926167"><ele>787.8571428571429</ele><time>2026-04-25T10:49:22.392Z</time></trkpt><trkpt lat="44.3214483" lon="10.9927117"><ele>788.1428571428571</ele><time>2026-04-25T10:49:23.394Z</time></trkpt><trkpt lat="44.3214667" lon="10.9928117"><ele>788.4285714285714</ele><time>2026-04-25T10:49:24.392Z</time></trkpt><trkpt lat="44.3214833" lon="10.99291"><ele>788.7142857142857</ele><time>2026-04-25T10:49:25.392Z</time></trkpt><trkpt lat="44.3215" lon="10.9929983"><ele>789.0</ele><time>2026-04-25T10:49:26.396Z</time></trkpt><trkpt lat="44.3215183" lon="10.9930833"><ele>789.0</ele><time>2026-04-25T10:49:27.392Z</time></trkpt><trkpt lat="44.3215683" lon="10.9932283"><ele>789.0</ele><time>2026-04-25T10:49:29.401Z</time></trkpt><trkpt lat="44.3216217" lon="10.9933433"><ele>789.0</ele><time>2026-04-25T10:49:31.394Z</time></trkpt><trkpt lat="44.321665" lon="10.9934667"><ele>789.0</ele><time>2026-04-25T10:49:33.393Z</time></trkpt><trkpt lat="44.3217" lon="10.9935983"><ele>789.0</ele><time>2026-04-25T10:49:35.393Z</time></trkpt><trkpt lat="44.3217017" lon="10.9937067"><ele>790.8333333333334</ele><time>2026-04-25T10:49:37.392Z</time></trkpt><trkpt lat="44.3216433" lon="10.993765"><ele>792.6666666666667</ele><time>2026-04-25T10:49:39.393Z</time></trkpt><trkpt lat="44.3215417" lon="10.9937533"><ele>794.5</ele><time>2026-04-25T10:49:41.393Z</time></trkpt><trkpt lat="44.3214683" lon="10.9937517"><ele>796.3333333333334</ele><time>2026-04-25T10:49:43.393Z</time></trkpt><trkpt lat="44.3215083" lon="10.9938717"><ele>798.1666666666667</ele><time>2026-04-25T10:50:02.395Z</time></trkpt><trkpt lat="44.3215567" lon="10.9939333"><ele>800.0</ele><time>2026-04-25T10:50:03.392Z</time></trkpt><trkpt lat="44.3216117" lon="10.9940017"><ele>800.0000000000001</ele><time>2026-04-25T10:50:04.393Z</time></trkpt><trkpt lat="44.321655" lon="10.9940717"><ele>800.0</ele><time>2026-04-25T10:50:05.395Z</time></trkpt><trkpt lat="44.32172" lon="10.9942"><ele>800.0</ele><time>2026-04-25T10:50:07.398Z</time></trkpt><trkpt lat="44.3217517" lon="10.9942883"><ele>800.0</ele><time>2026-04-25T10:50:09.396Z</time></trkpt><trkpt lat="44.3218233" lon="10.9943767"><ele>800.0000000000001</ele><time>2026-04-25T10:50:33.394Z</time></trkpt><trkpt lat="44.32189" lon="10.9944683"><ele>800.0</ele><time>2026-04-25T10:50:35.395Z</time></trkpt><trkpt lat="44.32194" lon="10.9945933"><ele>803.4</ele><time>2026-04-25T10:50:37.394Z</time></trkpt><trkpt lat="44.3219833" lon="10.9946967"><ele>806.8</ele><time>2026-04-25T10:50:39.394Z</time></trkpt><trkpt lat="44.322005" lon="10.99481"><ele>810.2</ele><time>2026-04-25T10:51:03.392Z</time></trkpt><trkpt lat="44.3219917" lon="10.9949833"><ele>813.6</ele><time>2026-04-25T10:51:05.394Z</time></trkpt><trkpt lat="44.3219717" lon="10.9950783"><ele>817.0</ele><time>2026-04-25T10:51:06.396Z</time></trkpt><trkpt lat="44.3219283" lon="10.9952217"><ele>819.1666666666666</ele><time>2026-04-25T10:51:08.394Z</time></trkpt><trkpt lat="44.321885" lon="10.9953117"><ele>821.3333333333333</ele><time>2026-04-25T10:51:10.393Z</time></trkpt><trkpt lat="44.32181" lon="10.9953083"><ele>823.5</ele><time>2026-04-25T10:51:12.394Z</time></trkpt><trkpt lat="44.3217517" lon="10.9952367"><ele>825.6666666666667</ele><time>2026-04-25T10:51:13.395Z</time></trkpt><trkpt lat="44.3216883" lon="10.9951583"><ele>827.8333333333334</ele><time>2026-04-25T10:51:14.393Z</time></trkpt><trkpt lat="44.3216167" lon="10.99508"><ele>830.0</ele><time>2026-04-25T10:51:15.391Z</time></trkpt><trkpt lat="44.3215383" lon="10.9950133"><ele>827.8333333333334</ele><time>2026-04-25T10:51:16.393Z</time></trkpt><trkpt lat="44.3214617" lon="10.9949533"><ele>825.6666666666667</ele><time>2026-04-25T10:51:17.395Z</time></trkpt><trkpt lat="44.32138" lon="10.9949033"><ele>823.5</ele><time>2026-04-25T10:51:18.394Z</time></trkpt><trkpt lat="44.3212967" lon="10.9948383"><ele>821.3333333333333</ele><time>2026-04-25T10:51:19.393Z</time></trkpt><trkpt lat="44.3212217" lon="10.9947783"><ele>819.1666666666666</ele><time>2026-04-25T10:51:20.393Z</time></trkpt><trkpt lat="44.3211583" lon="10.9947283"><ele>817.0</ele><time>2026-04-25T10:51:21.393Z</time></trkpt><trkpt lat="44.321065" lon="10.9946833"><ele>816.4999999999999</ele><time>2026-04-25T10:51:23.393Z</time></trkpt><trkpt lat="44.3209667" lon="10.9947483"><ele>816.0</ele><time>2026-04-25T10:51:25.393Z</time></trkpt><trkpt lat="44.320975" lon="10.9949067"><ele>815.5</ele><time>2026-04-25T10:51:27.394Z</time></trkpt><trkpt lat="44.3210217" lon="10.9949867"><ele>815.0</ele><time>2026-04-25T10:51:28.395Z</time></trkpt><trkpt lat="44.3210833" lon="10.9950467"><ele>814.4999999999999</ele><time>2026-04-25T10:51:29.395Z</time></trkpt><trkpt lat="44.321145" lon="10.9951083"><ele>814.0</ele><time>2026-04-25T10:51:30.394Z</time></trkpt><trkpt lat="44.321195" lon="10.9951867"><ele>815.8333333333333</ele><time>2026-04-25T10:51:31.394Z</time></trkpt><trkpt lat="44.321235" lon="10.9952833"><ele>817.6666666666666</ele><time>2026-04-25T10:51:32.394Z</time></trkpt><trkpt lat="44.3212767" lon="10.99539"><ele>819.5</ele><time>2026-04-25T10:51:33.393Z</time></trkpt><trkpt lat="44.3213117" lon="10.9955017"><ele>821.3333333333333</ele><time>2026-04-25T10:51:34.395Z</time></trkpt><trkpt lat="44.32134" lon="10.9956217"><ele>823.1666666666666</ele><time>2026-04-25T10:51:35.394Z</time></trkpt><trkpt lat="44.3213617" lon="10.9957533"><ele>825.0</ele><time>2026-04-25T10:51:36.395Z</time></trkpt><trkpt lat="44.3213883" lon="10.9958867"><ele>827.6</ele><time>2026-04-25T10:51:37.393Z</time></trkpt><trkpt lat="44.3214133" lon="10.9960217"><ele>830.2</ele><time>2026-04-25T10:51:38.395Z</time></trkpt><trkpt lat="44.3214367" lon="10.9961533"><ele>832.8</ele><time>2026-04-25T10:51:39.394Z</time></trkpt><trkpt lat="44.321465" lon="10.99628"><ele>835.4</ele><time>2026-04-25T10:51:40.394Z</time></trkpt><trkpt lat="44.3214883" lon="10.996405"><ele>838.0</ele><time>2026-04-25T10:51:41.394Z</time></trkpt><trkpt lat="44.3215083" lon="10.9965317"><ele>838.0</ele><time>2026-04-25T10:51:42.393Z</time></trkpt><trkpt lat="44.3215217" lon="10.99667"><ele>838.0</ele><time>2026-04-25T10:51:43.393Z</time></trkpt><trkpt lat="44.3215317" lon="10.9968083"><ele>838.0</ele><time>2026-04-25T10:51:44.394Z</time></trkpt><trkpt lat="44.321545" lon="10.9969383"><ele>838.0</ele><time>2026-04-25T10:51:45.393Z</time></trkpt><trkpt lat="44.3215633" lon="10.99705"><ele>838.0</ele><time>2026-04-25T10:51:46.393Z</time></trkpt><trkpt lat="44.3215717" lon="10.9971617"><ele>837.9999999999999</ele><time>2026-04-25T10:51:47.392Z</time></trkpt><trkpt lat="44.3215683" lon="10.99727"><ele>838.0</ele><time>2026-04-25T10:51:48.395Z</time></trkpt><trkpt lat="44.3215483" lon="10.9973733"><ele>838.0</ele><time>2026-04-25T10:51:49.393Z</time></trkpt><trkpt lat="44.32151" lon="10.9974817"><ele>838.0</ele><time>2026-04-25T10:51:50.395Z</time></trkpt><trkpt lat="44.3214517" lon="10.99759"><ele>837.9999999999999</ele><time>2026-04-25T10:51:51.399Z</time></trkpt><trkpt lat="44.3214017" lon="10.9976733"><ele>838.0</ele><time>2026-04-25T10:51:52.393Z</time></trkpt><trkpt lat="44.3213483" lon="10.9977533"><ele>837.4</ele><time>2026-04-25T10:51:53.392Z</time></trkpt><trkpt lat="44.3212867" lon="10.9978167"><ele>836.8</ele><time>2026-04-25T10:51:54.394Z</time></trkpt><trkpt lat="44.32119" lon="10.9978133"><ele>836.2</ele><time>2026-04-25T10:51:55.393Z</time></trkpt><trkpt lat="44.3210867" lon="10.9978133"><ele>835.6</ele><time>2026-04-25T10:51:56.395Z</time></trkpt><trkpt lat="44.3209833" lon="10.9978233"><ele>835.0</ele><time>2026-04-25T10:51:57.394Z</time></trkpt><trkpt lat="44.3208983" lon="10.9978517"><ele>834.9999999999999</ele><time>2026-04-25T10:51:58.396Z</time></trkpt><trkpt lat="44.320835" lon="10.997895"><ele>835.0</ele><time>2026-04-25T10:51:59.395Z</time></trkpt><trkpt lat="44.3207883" lon="10.99796"><ele>835.0</ele><time>2026-04-25T10:52:00.395Z</time></trkpt><trkpt lat="44.3207617" lon="10.9980517"><ele>835.0</ele><time>2026-04-25T10:52:01.395Z</time></trkpt><trkpt lat="44.3207517" lon="10.9981767"><ele>834.9999999999999</ele><time>2026-04-25T10:52:02.397Z</time></trkpt><trkpt lat="44.3207517" lon="10.9982883"><ele>835.0</ele><time>2026-04-25T10:52:03.396Z</time></trkpt><trkpt lat="44.3207467" lon="10.998415"><ele>836.6666666666666</ele><time>2026-04-25T10:52:04.396Z</time></trkpt><trkpt lat="44.3207367" lon="10.9985417"><ele>838.3333333333333</ele><time>2026-04-25T10:52:05.397Z</time></trkpt><trkpt lat="44.3207267" lon="10.9986717"><ele>840.0</ele><time>2026-04-25T10:52:06.404Z</time></trkpt><trkpt lat="44.3207133" lon="10.9987983"><ele>841.6666666666667</ele><time>2026-04-25T10:52:07.396Z</time></trkpt><trkpt lat="44.3207" lon="10.9989167"><ele>843.3333333333334</ele><time>2026-04-25T10:52:08.395Z</time></trkpt><trkpt lat="44.3206967" lon="10.99902"><ele>845.0</ele><time>2026-04-25T10:52:09.394Z</time></trkpt><trkpt lat="44.320715" lon="10.9991167"><ele>847.0000000000001</ele><time>2026-04-25T10:52:10.394Z</time></trkpt><trkpt lat="44.3207633" lon="10.9992033"><ele>849.0</ele><time>2026-04-25T10:52:11.393Z</time></trkpt><trkpt lat="44.3208283" lon="10.99927"><ele>851.0</ele><time>2026-04-25T10:52:12.394Z</time></trkpt><trkpt lat="44.3209017" lon="10.9993017"><ele>853.0</ele><time>2026-04-25T10:52:13.393Z</time></trkpt><trkpt lat="44.32099" lon="10.9993067"><ele>855.0000000000001</ele><time>2026-04-25T10:52:14.394Z</time></trkpt><trkpt lat="44.321075" lon="10.9993167"><ele>857.0</ele><time>2026-04-25T10:52:15.393Z</time></trkpt><trkpt lat="44.3211533" lon="10.9993283"><ele>857.0000000000001</ele><time>2026-04-25T10:52:16.394Z</time></trkpt><trkpt lat="44.321225" lon="10.9993483"><ele>857.0</ele><time>2026-04-25T10:52:17.395Z</time></trkpt><trkpt lat="44.3212917" lon="10.9993767"><ele>857.0</ele><time>2026-04-25T10:52:18.394Z</time></trkpt><trkpt lat="44.3213583" lon="10.9994217"><ele>857.0</ele><time>2026-04-25T10:52:19.394Z</time></trkpt><trkpt lat="44.3214217" lon="10.9994733"><ele>857.0000000000001</ele><time>2026-04-25T10:52:20.395Z</time></trkpt><trkpt lat="44.32149" lon="10.9995517"><ele>857.0</ele><time>2026-04-25T10:52:21.394Z</time></trkpt><trkpt lat="44.3215633" lon="10.9996433"><ele>856.8</ele><time>2026-04-25T10:52:22.394Z</time></trkpt><trkpt lat="44.32164" lon="10.9997433"><ele>856.6</ele><time>2026-04-25T10:52:23.395Z</time></trkpt><trkpt lat="44.3217" lon="10.9998667"><ele>856.3999999999999</ele><time>2026-04-25T10:52:24.394Z</time></trkpt><trkpt lat="44.3217433" lon="10.9999917"><ele>856.1999999999999</ele><time>2026-04-25T10:52:25.394Z</time></trkpt><trkpt lat="44.3217817" lon="11.00012"><ele>856.0</ele><time>2026-04-25T10:52:26.396Z</time></trkpt><trkpt lat="44.32182" lon="11.0002467"><ele>856.0</ele><time>2026-04-25T10:52:27.393Z</time></trkpt><trkpt lat="44.32186" lon="11.000365"><ele>855.9999999999999</ele><time>2026-04-25T10:52:28.393Z</time></trkpt><trkpt lat="44.3219017" lon="11.00048"><ele>855.9999999999999</ele><time>2026-04-25T10:52:29.393Z</time></trkpt><trkpt lat="44.3219517" lon="11.0005833"><ele>856.0</ele><time>2026-04-25T10:52:30.394Z</time></trkpt><trkpt lat="44.3220033" lon="11.000695"><ele>856.0</ele><time>2026-04-25T10:52:31.394Z</time></trkpt><trkpt lat="44.3220517" lon="11.0008017"><ele>856.3333333333333</ele><time>2026-04-25T10:52:32.394Z</time></trkpt><trkpt lat="44.3220833" lon="11.0008867"><ele>856.6666666666666</ele><time>2026-04-25T10:52:33.389Z</time></trkpt><trkpt lat="44.3221517" lon="11.00101"><ele>857.0</ele><time>2026-04-25T10:52:35.4Z</time></trkpt><trkpt lat="44.3222083" lon="11.00108"><ele>857.3333333333333</ele><time>2026-04-25T10:52:36.397Z</time></trkpt><trkpt lat="44.3222783" lon="11.0011567"><ele>857.6666666666666</ele><time>2026-04-25T10:52:37.396Z</time></trkpt><trkpt lat="44.3223483" lon="11.001255"><ele>858.0</ele><time>2026-04-25T10:52:38.389Z</time></trkpt><trkpt lat="44.3224133" lon="11.0013717"><ele>858.0</ele><time>2026-04-25T10:52:39.396Z</time></trkpt><trkpt lat="44.3224883" lon="11.0014983"><ele>858.0</ele><time>2026-04-25T10:52:40.394Z</time></trkpt><trkpt lat="44.3225667" lon="11.0016183"><ele>858.0</ele><time>2026-04-25T10:52:41.394Z</time></trkpt><trkpt lat="44.32264" lon="11.0017267"><ele>858.0</ele><time>2026-04-25T10:52:42.391Z</time></trkpt><trkpt lat="44.3227017" lon="11.0018333"><ele>858.0</ele><time>2026-04-25T10:52:43.393Z</time></trkpt><trkpt lat="44.3227533" lon="11.00194"><ele>858.0</ele><time>2026-04-25T10:52:44.395Z</time></trkpt><trkpt lat="44.3227917" lon="11.0020583"><ele>858.0</ele><time>2026-04-25T10:52:45.392Z</time></trkpt><trkpt lat="44.32283" lon="11.002185"><ele>858.0</ele><time>2026-04-25T10:52:46.393Z</time></trkpt><trkpt lat="44.3228633" lon="11.0023183"><ele>858.0</ele><time>2026-04-25T10:52:47.393Z</time></trkpt><trkpt lat="44.32289" lon="11.00245"><ele>858.0</ele><time>2026-04-25T10:52:48.395Z</time></trkpt><trkpt lat="44.3229" lon="11.0025833"><ele>858.0</ele><time>2026-04-25T10:52:49.393Z</time></trkpt><trkpt lat="44.322895" lon="11.002725"><ele>858.0</ele><time>2026-04-25T10:52:50.396Z</time></trkpt><trkpt lat="44.3228817" lon="11.0028567"><ele>858.0</ele><time>2026-04-25T10:52:51.394Z</time></trkpt><trkpt lat="44.32284" lon="11.0029717"><ele>858.0</ele><time>2026-04-25T10:52:52.393Z</time></trkpt><trkpt lat="44.3227867" lon="11.0030867"><ele>858.0</ele><time>2026-04-25T10:52:53.393Z</time></trkpt><trkpt lat="44.32272" lon="11.0032183"><ele>858.5999999999999</ele><time>2026-04-25T10:52:54.394Z</time></trkpt><trkpt lat="44.32265" lon="11.003365"><ele>859.1999999999999</ele><time>2026-04-25T10:52:55.393Z</time></trkpt><trkpt lat="44.3225767" lon="11.0034833"><ele>859.8</ele><time>2026-04-25T10:52:56.394Z</time></trkpt><trkpt lat="44.322515" lon="11.0035933"><ele>860.4</ele><time>2026-04-25T10:52:57.394Z</time></trkpt><trkpt lat="44.3224567" lon="11.0036967"><ele>861.0</ele><time>2026-04-25T10:52:58.394Z</time></trkpt><trkpt lat="44.32241" lon="11.0038067"><ele>861.0</ele><time>2026-04-25T10:52:59.394Z</time></trkpt><trkpt lat="44.3223767" lon="11.0039233"><ele>860.9999999999999</ele><time>2026-04-25T10:53:00.393Z</time></trkpt><trkpt lat="44.32236" lon="11.0040467"><ele>860.9999999999999</ele><time>2026-04-25T10:53:01.394Z</time></trkpt><trkpt lat="44.3223667" lon="11.004175"><ele>861.0</ele><time>2026-04-25T10:53:02.395Z</time></trkpt><trkpt lat="44.3224033" lon="11.0042883"><ele>861.0</ele><time>2026-04-25T10:53:03.394Z</time></trkpt><trkpt lat="44.3224533" lon="11.0043933"><ele>861.5999999999999</ele><time>2026-04-25T10:53:04.393Z</time></trkpt><trkpt lat="44.32252" lon="11.0044883"><ele>862.1999999999999</ele><time>2026-04-25T10:53:05.393Z</time></trkpt><trkpt lat="44.3226117" lon="11.004565"><ele>862.8000000000001</ele><time>2026-04-25T10:53:06.394Z</time></trkpt><trkpt lat="44.3227033" lon="11.0046533"><ele>863.4000000000001</ele><time>2026-04-25T10:53:07.393Z</time></trkpt><trkpt lat="44.3227817" lon="11.0047617"><ele>864.0</ele><time>2026-04-25T10:53:08.393Z</time></trkpt><trkpt lat="44.3228617" lon="11.0048617"><ele>864.0</ele><time>2026-04-25T10:53:09.394Z</time></trkpt><trkpt lat="44.3229433" lon="11.0049433"><ele>864.0000000000001</ele><time>2026-04-25T10:53:10.392Z</time></trkpt><trkpt lat="44.3230233" lon="11.0050033"><ele>864.0000000000001</ele><time>2026-04-25T10:53:11.393Z</time></trkpt><trkpt lat="44.3231133" lon="11.00505"><ele>864.0</ele><time>2026-04-25T10:53:12.393Z</time></trkpt><trkpt lat="44.323215" lon="11.0050917"><ele>864.0</ele><time>2026-04-25T10:53:13.393Z</time></trkpt><trkpt lat="44.3233183" lon="11.0051483"><ele>863.25</ele><time>2026-04-25T10:53:14.395Z</time></trkpt><trkpt lat="44.3234367" lon="11.00521"><ele>862.5</ele><time>2026-04-25T10:53:15.394Z</time></trkpt><trkpt lat="44.32356" lon="11.00526"><ele>861.75</ele><time>2026-04-25T10:53:16.394Z</time></trkpt><trkpt lat="44.3236717" lon="11.0052933"><ele>861.0</ele><time>2026-04-25T10:53:17.395Z</time></trkpt><trkpt lat="44.3237767" lon="11.0053267"><ele>861.0</ele><time>2026-04-25T10:53:18.395Z</time></trkpt><trkpt lat="44.323875" lon="11.0053717"><ele>860.9999999999999</ele><time>2026-04-25T10:53:19.395Z</time></trkpt><trkpt lat="44.32397" lon="11.0054283"><ele>860.9999999999999</ele><time>2026-04-25T10:53:20.396Z</time></trkpt><trkpt lat="44.324065" lon="11.0055117"><ele>861.0</ele><time>2026-04-25T10:53:21.395Z</time></trkpt><trkpt lat="44.32416" lon="11.0056133"><ele>861.0</ele><time>2026-04-25T10:53:22.393Z</time></trkpt><trkpt lat="44.324245" lon="11.0057067"><ele>860.4</ele><time>2026-04-25T10:53:23.391Z</time></trkpt><trkpt lat="44.324325" lon="11.0058"><ele>859.8</ele><time>2026-04-25T10:53:24.393Z</time></trkpt><trkpt lat="44.3244" lon="11.0059067"><ele>859.1999999999999</ele><time>2026-04-25T10:53:25.395Z</time></trkpt><trkpt lat="44.3244683" lon="11.00602"><ele>858.5999999999999</ele><time>2026-04-25T10:53:26.395Z</time></trkpt><trkpt lat="44.3245267" lon="11.00614"><ele>858.0</ele><time>2026-04-25T10:53:27.395Z</time></trkpt><trkpt lat="44.32457" lon="11.00627"><ele>857.4</ele><time>2026-04-25T10:53:28.394Z</time></trkpt><trkpt lat="44.3245917" lon="11.00641"><ele>856.8</ele><time>2026-04-25T10:53:29.396Z</time></trkpt><trkpt lat="44.3245933" lon="11.00656"><ele>856.2</ele><time>2026-04-25T10:53:30.395Z</time></trkpt><trkpt lat="44.324575" lon="11.00671"><ele>855.6</ele><time>2026-04-25T10:53:31.397Z</time></trkpt><trkpt lat="44.3245367" lon="11.0068667"><ele>855.0</ele><time>2026-04-25T10:53:32.399Z</time></trkpt><trkpt lat="44.3244817" lon="11.0070233"><ele>854.25</ele><time>2026-04-25T10:53:33.397Z</time></trkpt><trkpt lat="44.3244217" lon="11.0071783"><ele>853.5</ele><time>2026-04-25T10:53:34.394Z</time></trkpt><trkpt lat="44.32437" lon="11.0073233"><ele>852.75</ele><time>2026-04-25T10:53:35.394Z</time></trkpt><trkpt lat="44.3243283" lon="11.0074667"><ele>852.0</ele><time>2026-04-25T10:53:36.394Z</time></trkpt><trkpt lat="44.324305" lon="11.0076167"><ele>852.0</ele><time>2026-04-25T10:53:37.393Z</time></trkpt><trkpt lat="44.3243" lon="11.00777"><ele>852.0</ele><time>2026-04-25T10:53:38.394Z</time></trkpt><trkpt lat="44.3243183" lon="11.0079183"><ele>852.0</ele><time>2026-04-25T10:53:39.394Z</time></trkpt><trkpt lat="44.3243433" lon="11.0080833"><ele>852.0</ele><time>2026-04-25T10:53:40.394Z</time></trkpt><trkpt lat="44.32437" lon="11.00824"><ele>851.8</ele><time>2026-04-25T10:53:41.395Z</time></trkpt><trkpt lat="44.324385" lon="11.0084"><ele>851.6</ele><time>2026-04-25T10:53:42.393Z</time></trkpt><trkpt lat="44.32439" lon="11.008555"><ele>851.4</ele><time>2026-04-25T10:53:43.393Z</time></trkpt><trkpt lat="44.3243883" lon="11.0086967"><ele>851.1999999999999</ele><time>2026-04-25T10:53:44.394Z</time></trkpt><trkpt lat="44.3243817" lon="11.00883"><ele>851.0</ele><time>2026-04-25T10:53:45.391Z</time></trkpt><trkpt lat="44.324375" lon="11.008945"><ele>851.0000000000001</ele><time>2026-04-25T10:53:46.394Z</time></trkpt><trkpt lat="44.3243733" lon="11.00904"><ele>851.0</ele><time>2026-04-25T10:53:47.393Z</time></trkpt><trkpt lat="44.3243883" lon="11.0091633"><ele>851.0</ele><time>2026-04-25T10:53:49.394Z</time></trkpt><trkpt lat="44.3244483" lon="11.0092267"><ele>851.0</ele><time>2026-04-25T10:53:51.395Z</time></trkpt><trkpt lat="44.324575" lon="11.0092733"><ele>851.0000000000001</ele><time>2026-04-25T10:53:53.395Z</time></trkpt><trkpt lat="44.3246517" lon="11.00929"><ele>851.0</ele><time>2026-04-25T10:53:54.394Z</time></trkpt><trkpt lat="44.3247283" lon="11.0093017"><ele>852.4285714285714</ele><time>2026-04-25T10:53:55.393Z</time></trkpt><trkpt lat="44.3248017" lon="11.009315"><ele>853.8571428571429</ele><time>2026-04-25T10:53:56.394Z</time></trkpt><trkpt lat="44.3248733" lon="11.0093417"><ele>855.2857142857142</ele><time>2026-04-25T10:53:57.392Z</time></trkpt><trkpt lat="44.324945" lon="11.0093733"><ele>856.7142857142858</ele><time>2026-04-25T10:53:58.394Z</time></trkpt><trkpt lat="44.3250167" lon="11.0094067"><ele>858.1428571428571</ele><time>2026-04-25T10:53:59.394Z</time></trkpt><trkpt lat="44.3250883" lon="11.0094467"><ele>859.5714285714286</ele><time>2026-04-25T10:54:00.394Z</time></trkpt><trkpt lat="44.32515" lon="11.0094867"><ele>861.0</ele><time>2026-04-25T10:54:01.393Z</time></trkpt><trkpt lat="44.325255" lon="11.0095417"><ele>861.0</ele><time>2026-04-25T10:54:03.394Z</time></trkpt><trkpt lat="44.3253433" lon="11.0095567"><ele>861.0</ele><time>2026-04-25T10:54:26.394Z</time></trkpt><trkpt lat="44.3254233" lon="11.00961"><ele>861.0</ele><time>2026-04-25T10:54:29.392Z</time></trkpt><trkpt lat="44.32551" lon="11.0095983"><ele>861.0</ele><time>2026-04-25T10:54:32.394Z</time></trkpt><trkpt lat="44.3255967" lon="11.0095267"><ele>861.0</ele><time>2026-04-25T10:54:35.395Z</time></trkpt><trkpt lat="44.3256567" lon="11.0094983"><ele>861.0</ele><time>2026-04-25T10:54:37.398Z</time></trkpt><trkpt lat="44.3257333" lon="11.00954"><ele>860.4</ele><time>2026-04-25T10:54:39.4Z</time></trkpt><trkpt lat="44.3258383" lon="11.0095933"><ele>859.8</ele><time>2026-04-25T10:54:41.394Z</time></trkpt><trkpt lat="44.3259683" lon="11.0096233"><ele>859.1999999999999</ele><time>2026-04-25T10:54:43.393Z</time></trkpt><trkpt lat="44.3260433" lon="11.00965"><ele>858.5999999999999</ele><time>2026-04-25T10:54:44.395Z</time></trkpt><trkpt lat="44.3261267" lon="11.009675"><ele>858.0</ele><time>2026-04-25T10:54:45.394Z</time></trkpt><trkpt lat="44.3262033" lon="11.0096917"><ele>858.0</ele><time>2026-04-25T10:54:46.394Z</time></trkpt><trkpt lat="44.32628" lon="11.00969"><ele>858.0</ele><time>2026-04-25T10:54:47.394Z</time></trkpt><trkpt lat="44.3263667" lon="11.0097"><ele>858.0</ele><time>2026-04-25T10:54:48.394Z</time></trkpt><trkpt lat="44.3264667" lon="11.0097117"><ele>858.0</ele><time>2026-04-25T10:54:49.395Z</time></trkpt><trkpt lat="44.3265483" lon="11.0097267"><ele>858.0</ele><time>2026-04-25T10:54:50.393Z</time></trkpt><trkpt lat="44.32664" lon="11.009745"><ele>858.0</ele><time>2026-04-25T10:54:51.393Z</time></trkpt><trkpt lat="44.32672" lon="11.009775"><ele>855.8333333333334</ele><time>2026-04-25T10:54:52.393Z</time></trkpt><trkpt lat="44.326795" lon="11.0098117"><ele>853.6666666666667</ele><time>2026-04-25T10:54:53.394Z</time></trkpt><trkpt lat="44.32686" lon="11.0098683"><ele>851.5</ele><time>2026-04-25T10:54:54.391Z</time></trkpt><trkpt lat="44.3269217" lon="11.0099517"><ele>849.3333333333334</ele><time>2026-04-25T10:54:55.393Z</time></trkpt><trkpt lat="44.32697" lon="11.0100733"><ele>847.1666666666667</ele><time>2026-04-25T10:54:56.396Z</time></trkpt><trkpt lat="44.3270183" lon="11.0101967"><ele>845.0</ele><time>2026-04-25T10:54:57.395Z</time></trkpt><trkpt lat="44.3270583" lon="11.010315"><ele>845.0</ele><time>2026-04-25T10:54:58.394Z</time></trkpt><trkpt lat="44.32709" lon="11.0104383"><ele>845.0</ele><time>2026-04-25T10:54:59.393Z</time></trkpt><trkpt lat="44.3271233" lon="11.010565"><ele>845.0</ele><time>2026-04-25T10:55:00.395Z</time></trkpt><trkpt lat="44.3271367" lon="11.01068"><ele>845.0</ele><time>2026-04-25T10:55:01.394Z</time></trkpt><trkpt lat="44.3271833" lon="11.0108"><ele>845.0</ele><time>2026-04-25T10:55:02.396Z</time></trkpt><trkpt lat="44.3272367" lon="11.0109233"><ele>842.3333333333334</ele><time>2026-04-25T10:55:03.393Z</time></trkpt><trkpt lat="44.3272867" lon="11.01102"><ele>839.6666666666667</ele><time>2026-04-25T10:55:04.391Z</time></trkpt><trkpt lat="44.3273333" lon="11.0110917"><ele>837.0</ele><time>2026-04-25T10:55:05.395Z</time></trkpt><trkpt lat="44.32738" lon="11.0111617"><ele>834.3333333333333</ele><time>2026-04-25T10:55:06.393Z</time></trkpt><trkpt lat="44.3274467" lon="11.0113067"><ele>831.6666666666666</ele><time>2026-04-25T10:55:08.396Z</time></trkpt><trkpt lat="44.3275067" lon="11.011415"><ele>829.0</ele><time>2026-04-25T10:55:10.392Z</time></trkpt><trkpt lat="44.3276083" lon="11.0114333"><ele>829.0</ele><time>2026-04-25T10:55:12.393Z</time></trkpt><trkpt lat="44.3276783" lon="11.0114383"><ele>829.0</ele><time>2026-04-25T10:55:13.393Z</time></trkpt><trkpt lat="44.3277467" lon="11.0114567"><ele>829.0</ele><time>2026-04-25T10:55:14.395Z</time></trkpt><trkpt lat="44.3278067" lon="11.0114917"><ele>829.0</ele><time>2026-04-25T10:55:15.394Z</time></trkpt><trkpt lat="44.32786" lon="11.0115467"><ele>829.0</ele><time>2026-04-25T10:55:16.392Z</time></trkpt><trkpt lat="44.3279017" lon="11.011625"><ele>829.0</ele><time>2026-04-25T10:55:17.393Z</time></trkpt><trkpt lat="44.3279367" lon="11.0117233"><ele>829.0</ele><time>2026-04-25T10:55:18.394Z</time></trkpt><trkpt lat="44.32796" lon="11.0118333"><ele>828.8000000000001</ele><time>2026-04-25T10:55:19.394Z</time></trkpt><trkpt lat="44.327985" lon="11.0119367"><ele>828.6</ele><time>2026-04-25T10:55:20.394Z</time></trkpt><trkpt lat="44.328035" lon="11.01208"><ele>828.4</ele><time>2026-04-25T10:55:22.393Z</time></trkpt><trkpt lat="44.3281017" lon="11.0121233"><ele>828.2</ele><time>2026-04-25T10:55:24.394Z</time></trkpt><trkpt lat="44.3281783" lon="11.012005"><ele>828.0</ele><time>2026-04-25T10:55:25.393Z</time></trkpt><trkpt lat="44.3282483" lon="11.0119017"><ele>827.5999999999999</ele><time>2026-04-25T10:55:26.392Z</time></trkpt><trkpt lat="44.3283317" lon="11.0118017"><ele>827.1999999999999</ele><time>2026-04-25T10:55:27.393Z</time></trkpt><trkpt lat="44.328415" lon="11.0117133"><ele>826.8</ele><time>2026-04-25T10:55:28.393Z</time></trkpt><trkpt lat="44.3284983" lon="11.01164"><ele>826.4</ele><time>2026-04-25T10:55:29.393Z</time></trkpt><trkpt lat="44.3285717" lon="11.011565"><ele>826.0</ele><time>2026-04-25T10:55:30.394Z</time></trkpt><trkpt lat="44.3286383" lon="11.0114933"><ele>824.0</ele><time>2026-04-25T10:55:31.398Z</time></trkpt><trkpt lat="44.3287067" lon="11.0114333"><ele>822.0</ele><time>2026-04-25T10:55:32.394Z</time></trkpt><trkpt lat="44.3287767" lon="11.0113933"><ele>820.0</ele><time>2026-04-25T10:55:33.394Z</time></trkpt><trkpt lat="44.3288617" lon="11.0113733"><ele>818.0</ele><time>2026-04-25T10:55:34.395Z</time></trkpt><trkpt lat="44.32897" lon="11.01137"><ele>816.0</ele><time>2026-04-25T10:55:35.394Z</time></trkpt><trkpt lat="44.3290833" lon="11.01136"><ele>814.0</ele><time>2026-04-25T10:55:36.394Z</time></trkpt><trkpt lat="44.3291933" lon="11.011365"><ele>812.0</ele><time>2026-04-25T10:55:37.394Z</time></trkpt><trkpt lat="44.329305" lon="11.0113817"><ele>810.0</ele><time>2026-04-25T10:55:38.394Z</time></trkpt><trkpt lat="44.3294233" lon="11.0114183"><ele>808.0</ele><time>2026-04-25T10:55:39.393Z</time></trkpt><trkpt lat="44.32954" lon="11.0114733"><ele>808.0</ele><time>2026-04-25T10:55:40.392Z</time></trkpt><trkpt lat="44.3296683" lon="11.0115517"><ele>808.0</ele><time>2026-04-25T10:55:41.394Z</time></trkpt><trkpt lat="44.3297917" lon="11.0116183"><ele>808.0</ele><time>2026-04-25T10:55:42.395Z</time></trkpt><trkpt lat="44.329905" lon="11.0116683"><ele>808.0</ele><time>2026-04-25T10:55:43.394Z</time></trkpt><trkpt lat="44.33001" lon="11.0117117"><ele>809.4999999999999</ele><time>2026-04-25T10:55:44.395Z</time></trkpt><trkpt lat="44.3300933" lon="11.0117617"><ele>811.0</ele><time>2026-04-25T10:55:45.393Z</time></trkpt><trkpt lat="44.3301783" lon="11.01179"><ele>812.5</ele><time>2026-04-25T10:55:46.394Z</time></trkpt><trkpt lat="44.3302567" lon="11.0118417"><ele>814.0</ele><time>2026-04-25T10:55:47.393Z</time></trkpt><trkpt lat="44.330335" lon="11.0119017"><ele>815.4999999999999</ele><time>2026-04-25T10:55:48.395Z</time></trkpt><trkpt lat="44.33041" lon="11.0119767"><ele>817.0</ele><time>2026-04-25T10:55:49.394Z</time></trkpt><trkpt lat="44.3304783" lon="11.01206"><ele>817.0</ele><time>2026-04-25T10:55:50.394Z</time></trkpt><trkpt lat="44.3305267" lon="11.0121583"><ele>817.0</ele><time>2026-04-25T10:55:51.394Z</time></trkpt><trkpt lat="44.3305733" lon="11.0122567"><ele>817.0</ele><time>2026-04-25T10:55:52.393Z</time></trkpt><trkpt lat="44.3306133" lon="11.01235"><ele>817.0</ele><time>2026-04-25T10:55:53.394Z</time></trkpt><trkpt lat="44.3306883" lon="11.0124683"><ele>817.0</ele><time>2026-04-25T10:55:55.393Z</time></trkpt><trkpt lat="44.330825" lon="11.012465"><ele>815.8</ele><time>2026-04-25T10:55:57.393Z</time></trkpt><trkpt lat="44.33091" lon="11.01246"><ele>814.6</ele><time>2026-04-25T10:55:58.392Z</time></trkpt><trkpt lat="44.3310217" lon="11.0124783"><ele>813.4</ele><time>2026-04-25T10:55:59.392Z</time></trkpt><trkpt lat="44.3311367" lon="11.0125133"><ele>812.1999999999999</ele><time>2026-04-25T10:56:00.392Z</time></trkpt><trkpt lat="44.3312467" lon="11.0125467"><ele>811.0</ele><time>2026-04-25T10:56:01.391Z</time></trkpt><trkpt lat="44.3313533" lon="11.0125583"><ele>806.4</ele><time>2026-04-25T10:56:02.395Z</time></trkpt><trkpt lat="44.3314633" lon="11.0125467"><ele>801.8</ele><time>2026-04-25T10:56:03.393Z</time></trkpt><trkpt lat="44.33157" lon="11.0125217"><ele>797.1999999999999</ele><time>2026-04-25T10:56:04.393Z</time></trkpt><trkpt lat="44.3316717" lon="11.01249"><ele>792.5999999999999</ele><time>2026-04-25T10:56:05.393Z</time></trkpt><trkpt lat="44.3317717" lon="11.01247"><ele>788.0</ele><time>2026-04-25T10:56:06.393Z</time></trkpt><trkpt lat="44.331875" lon="11.0124733"><ele>788.0</ele><time>2026-04-25T10:56:07.396Z</time></trkpt><trkpt lat="44.331985" lon="11.0124967"><ele>788.0</ele><time>2026-04-25T10:56:08.394Z</time></trkpt><trkpt lat="44.3321083" lon="11.012535"><ele>788.0</ele><time>2026-04-25T10:56:09.394Z</time></trkpt><trkpt lat="44.3322367" lon="11.0125833"><ele>788.0</ele><time>2026-04-25T10:56:10.393Z</time></trkpt><trkpt lat="44.3323733" lon="11.01264"><ele>785.5</ele><time>2026-04-25T10:56:11.393Z</time></trkpt><trkpt lat="44.3325083" lon="11.0126917"><ele>783.0</ele><time>2026-04-25T10:56:12.394Z</time></trkpt><trkpt lat="44.3326317" lon="11.0127367"><ele>780.5</ele><time>2026-04-25T10:56:13.393Z</time></trkpt><trkpt lat="44.3327517" lon="11.0127867"><ele>778.0</ele><time>2026-04-25T10:56:14.394Z</time></trkpt><trkpt lat="44.3328683" lon="11.01284"><ele>778.0</ele><time>2026-04-25T10:56:15.392Z</time></trkpt><trkpt lat="44.332975" lon="11.0128967"><ele>778.0</ele><time>2026-04-25T10:56:16.393Z</time></trkpt><trkpt lat="44.33308" lon="11.012945"><ele>778.0</ele><time>2026-04-25T10:56:17.391Z</time></trkpt><trkpt lat="44.33319" lon="11.0129883"><ele>778.0</ele><time>2026-04-25T10:56:18.391Z</time></trkpt><trkpt lat="44.3333033" lon="11.01302"><ele>776.5</ele><time>2026-04-25T10:56:19.393Z</time></trkpt><trkpt lat="44.333425" lon="11.0130367"><ele>775.0</ele><time>2026-04-25T10:56:20.395Z</time></trkpt><trkpt lat="44.333545" lon="11.0130383"><ele>773.5</ele><time>2026-04-25T10:56:21.393Z</time></trkpt><trkpt lat="44.3336567" lon="11.0130317"><ele>772.0</ele><time>2026-04-25T10:56:22.394Z</time></trkpt><trkpt lat="44.33377" lon="11.0130133"><ele>772.0</ele><time>2026-04-25T10:56:23.393Z</time></trkpt><trkpt lat="44.33388" lon="11.012975"><ele>772.0</ele><time>2026-04-25T10:56:24.393Z</time></trkpt><trkpt lat="44.33398" lon="11.0129017"><ele>772.0</ele><time>2026-04-25T10:56:25.393Z</time></trkpt><trkpt lat="44.334075" lon="11.0127883"><ele>772.0</ele><time>2026-04-25T10:56:26.394Z</time></trkpt><trkpt lat="44.3341733" lon="11.0126567"><ele>771.75</ele><time>2026-04-25T10:56:27.394Z</time></trkpt><trkpt lat="44.33427" lon="11.0125233"><ele>771.5</ele><time>2026-04-25T10:56:28.391Z</time></trkpt><trkpt lat="44.334365" lon="11.0124117"><ele>771.25</ele><time>2026-04-25T10:56:29.393Z</time></trkpt><trkpt lat="44.3344683" lon="11.0123217"><ele>771.0</ele><time>2026-04-25T10:56:30.399Z</time></trkpt><trkpt lat="44.3345783" lon="11.01224"><ele>770.25</ele><time>2026-04-25T10:56:31.388Z</time></trkpt><trkpt lat="44.33469" lon="11.0121633"><ele>769.5</ele><time>2026-04-25T10:56:32.395Z</time></trkpt><trkpt lat="44.3347967" lon="11.0120833"><ele>768.75</ele><time>2026-04-25T10:56:33.394Z</time></trkpt><trkpt lat="44.3348983" lon="11.0120117"><ele>768.0</ele><time>2026-04-25T10:56:34.393Z</time></trkpt><trkpt lat="44.334985" lon="11.0119467"><ele>768.0</ele><time>2026-04-25T10:56:35.392Z</time></trkpt><trkpt lat="44.3350583" lon="11.01189"><ele>768.0</ele><time>2026-04-25T10:56:36.393Z</time></trkpt><trkpt lat="44.33512" lon="11.0118467"><ele>768.0</ele><time>2026-04-25T10:56:37.392Z</time></trkpt><trkpt lat="44.3351983" lon="11.0118133"><ele>768.0</ele><time>2026-04-25T10:56:39.393Z</time></trkpt><trkpt lat="44.3352867" lon="11.011785"><ele>768.0</ele><time>2026-04-25T10:56:57.393Z</time></trkpt><trkpt lat="44.3354017" lon="11.0117533"><ele>768.0</ele><time>2026-04-25T10:56:59.392Z</time></trkpt><trkpt lat="44.335495" lon="11.0117417"><ele>768.5</ele><time>2026-04-25T10:57:00.394Z</time></trkpt><trkpt lat="44.3356117" lon="11.0117467"><ele>769.0</ele><time>2026-04-25T10:57:01.393Z</time></trkpt><trkpt lat="44.3357367" lon="11.01178"><ele>769.5</ele><time>2026-04-25T10:57:02.395Z</time></trkpt><trkpt lat="44.3358583" lon="11.011825"><ele>770.0</ele><time>2026-04-25T10:57:03.393Z</time></trkpt><trkpt lat="44.3359683" lon="11.01187"><ele>770.0</ele><time>2026-04-25T10:57:04.393Z</time></trkpt><trkpt lat="44.3360783" lon="11.0119233"><ele>770.0</ele><time>2026-04-25T10:57:05.393Z</time></trkpt><trkpt lat="44.3361867" lon="11.0119833"><ele>770.0</ele><time>2026-04-25T10:57:06.393Z</time></trkpt><trkpt lat="44.3362867" lon="11.0120483"><ele>770.0</ele><time>2026-04-25T10:57:07.393Z</time></trkpt><trkpt lat="44.33638" lon="11.01212"><ele>770.4</ele><time>2026-04-25T10:57:08.395Z</time></trkpt><trkpt lat="44.33647" lon="11.0122"><ele>770.8</ele><time>2026-04-25T10:57:09.394Z</time></trkpt><trkpt lat="44.336565" lon="11.0122883"><ele>771.2</ele><time>2026-04-25T10:57:10.393Z</time></trkpt><trkpt lat="44.33666" lon="11.012375"><ele>771.6</ele><time>2026-04-25T10:57:11.397Z</time></trkpt><trkpt lat="44.3367417" lon="11.0124617"><ele>772.0</ele><time>2026-04-25T10:57:12.393Z</time></trkpt><trkpt lat="44.3368167" lon="11.0125417"><ele>770.9999999999999</ele><time>2026-04-25T10:57:13.392Z</time></trkpt><trkpt lat="44.33689" lon="11.0126167"><ele>770.0</ele><time>2026-04-25T10:57:14.395Z</time></trkpt><trkpt lat="44.33696" lon="11.0126767"><ele>769.0</ele><time>2026-04-25T10:57:15.393Z</time></trkpt><trkpt lat="44.33703" lon="11.012725"><ele>768.0</ele><time>2026-04-25T10:57:16.393Z</time></trkpt><trkpt lat="44.3371017" lon="11.0127533"><ele>767.0</ele><time>2026-04-25T10:57:17.392Z</time></trkpt><trkpt lat="44.3371833" lon="11.012755"><ele>766.0</ele><time>2026-04-25T10:57:18.391Z</time></trkpt><trkpt lat="44.3372783" lon="11.01273"><ele>765.5</ele><time>2026-04-25T10:57:19.392Z</time></trkpt><trkpt lat="44.33739" lon="11.0126867"><ele>765.0</ele><time>2026-04-25T10:57:20.395Z</time></trkpt><trkpt lat="44.3375083" lon="11.0126483"><ele>764.5</ele><time>2026-04-25T10:57:21.392Z</time></trkpt><trkpt lat="44.3376333" lon="11.0126083"><ele>764.0</ele><time>2026-04-25T10:57:22.391Z</time></trkpt><trkpt lat="44.3377617" lon="11.0125567"><ele>764.0</ele><time>2026-04-25T10:57:23.393Z</time></trkpt><trkpt lat="44.3378817" lon="11.01249"><ele>764.0</ele><time>2026-04-25T10:57:24.394Z</time></trkpt><trkpt lat="44.33799" lon="11.0124117"><ele>764.0</ele><time>2026-04-25T10:57:25.393Z</time></trkpt><trkpt lat="44.33809" lon="11.012335"><ele>764.0</ele><time>2026-04-25T10:57:26.394Z</time></trkpt><trkpt lat="44.338185" lon="11.0122633"><ele>767.0</ele><time>2026-04-25T10:57:27.392Z</time></trkpt><trkpt lat="44.338285" lon="11.0121933"><ele>770.0</ele><time>2026-04-25T10:57:28.391Z</time></trkpt><trkpt lat="44.3383867" lon="11.0121233"><ele>773.0</ele><time>2026-04-25T10:57:29.393Z</time></trkpt><trkpt lat="44.338485" lon="11.0120483"><ele>776.0</ele><time>2026-04-25T10:57:30.391Z</time></trkpt><trkpt lat="44.3385767" lon="11.0119717"><ele>779.0</ele><time>2026-04-25T10:57:31.393Z</time></trkpt><trkpt lat="44.3386633" lon="11.0118983"><ele>779.0</ele><time>2026-04-25T10:57:32.394Z</time></trkpt><trkpt lat="44.33875" lon="11.0118333"><ele>779.0</ele><time>2026-04-25T10:57:33.392Z</time></trkpt><trkpt lat="44.3388367" lon="11.011775"><ele>779.0</ele><time>2026-04-25T10:57:34.391Z</time></trkpt><trkpt lat="44.338925" lon="11.011725"><ele>779.0</ele><time>2026-04-25T10:57:35.393Z</time></trkpt><trkpt lat="44.3390167" lon="11.0116917"><ele>779.0</ele><time>2026-04-25T10:57:36.393Z</time></trkpt><trkpt lat="44.3391217" lon="11.0116667"><ele>783.0</ele><time>2026-04-25T10:57:37.392Z</time></trkpt><trkpt lat="44.3392383" lon="11.0116467"><ele>787.0</ele><time>2026-04-25T10:57:38.394Z</time></trkpt><trkpt lat="44.339355" lon="11.0116083"><ele>791.0</ele><time>2026-04-25T10:57:39.392Z</time></trkpt><trkpt lat="44.33947" lon="11.011555"><ele>795.0</ele><time>2026-04-25T10:57:40.392Z</time></trkpt><trkpt lat="44.33958" lon="11.0114917"><ele>795.0</ele><time>2026-04-25T10:57:41.393Z</time></trkpt><trkpt lat="44.3396867" lon="11.011415"><ele>795.0</ele><time>2026-04-25T10:57:42.392Z</time></trkpt><trkpt lat="44.33979" lon="11.0113217"><ele>795.0</ele><time>2026-04-25T10:57:43.394Z</time></trkpt><trkpt lat="44.3399033" lon="11.0112267"><ele>795.0</ele><time>2026-04-25T10:57:44.395Z</time></trkpt><trkpt lat="44.340015" lon="11.0111333"><ele>788.75</ele><time>2026-04-25T10:57:45.394Z</time></trkpt><trkpt lat="44.3401267" lon="11.011055"><ele>782.5</ele><time>2026-04-25T10:57:46.392Z</time></trkpt><trkpt lat="44.3402433" lon="11.0110017"><ele>776.25</ele><time>2026-04-25T10:57:47.392Z</time></trkpt><trkpt lat="44.340365" lon="11.0109683"><ele>770.0</ele><time>2026-04-25T10:57:48.392Z</time></trkpt><trkpt lat="44.3404883" lon="11.0109467"><ele>768.0</ele><time>2026-04-25T10:57:49.393Z</time></trkpt><trkpt lat="44.3406067" lon="11.0109133"><ele>766.0</ele><time>2026-04-25T10:57:50.395Z</time></trkpt><trkpt lat="44.34072" lon="11.01085"><ele>764.0</ele><time>2026-04-25T10:57:51.394Z</time></trkpt><trkpt lat="44.3408267" lon="11.0107617"><ele>762.0</ele><time>2026-04-25T10:57:52.396Z</time></trkpt><trkpt lat="44.340925" lon="11.0106483"><ele>762.0</ele><time>2026-04-25T10:57:53.396Z</time></trkpt><trkpt lat="44.34102" lon="11.0105267"><ele>762.0</ele><time>2026-04-25T10:57:54.395Z</time></trkpt><trkpt lat="44.341115" lon="11.0103983"><ele>762.0</ele><time>2026-04-25T10:57:55.395Z</time></trkpt><trkpt lat="44.3412033" lon="11.0102767"><ele>762.0</ele><time>2026-04-25T10:57:56.395Z</time></trkpt><trkpt lat="44.3412883" lon="11.0101733"><ele>762.6</ele><time>2026-04-25T10:57:57.395Z</time></trkpt><trkpt lat="44.3413833" lon="11.0101033"><ele>763.2</ele><time>2026-04-25T10:57:58.393Z</time></trkpt><trkpt lat="44.341485" lon="11.010065"><ele>763.8</ele><time>2026-04-25T10:57:59.398Z</time></trkpt><trkpt lat="44.3415917" lon="11.01007"><ele>764.4</ele><time>2026-04-25T10:58:00.394Z</time></trkpt><trkpt lat="44.3417017" lon="11.0101033"><ele>765.0</ele><time>2026-04-25T10:58:01.395Z</time></trkpt><trkpt lat="44.3418133" lon="11.010155"><ele>765.0</ele><time>2026-04-25T10:58:02.395Z</time></trkpt><trkpt lat="44.3419283" lon="11.01021"><ele>765.0</ele><time>2026-04-25T10:58:03.395Z</time></trkpt><trkpt lat="44.3420483" lon="11.010265"><ele>765.0</ele><time>2026-04-25T10:58:04.394Z</time></trkpt><trkpt lat="44.3421717" lon="11.0103183"><ele>765.0</ele><time>2026-04-25T10:58:05.396Z</time></trkpt><trkpt lat="44.3422967" lon="11.0103783"><ele>766.5</ele><time>2026-04-25T10:58:06.396Z</time></trkpt><trkpt lat="44.3424167" lon="11.010445"><ele>768.0</ele><time>2026-04-25T10:58:07.395Z</time></trkpt><trkpt lat="44.34253" lon="11.0105033"><ele>769.5</ele><time>2026-04-25T10:58:08.397Z</time></trkpt><trkpt lat="44.3426383" lon="11.0105383"><ele>771.0</ele><time>2026-04-25T10:58:09.396Z</time></trkpt><trkpt lat="44.3427483" lon="11.0105383"><ele>771.0</ele><time>2026-04-25T10:58:10.394Z</time></trkpt><trkpt lat="44.34286" lon="11.0105"><ele>771.0</ele><time>2026-04-25T10:58:11.396Z</time></trkpt><trkpt lat="44.342965" lon="11.0104367"><ele>771.0</ele><time>2026-04-25T10:58:12.396Z</time></trkpt><trkpt lat="44.3430717" lon="11.0103667"><ele>771.0</ele><time>2026-04-25T10:58:13.394Z</time></trkpt><trkpt lat="44.34319" lon="11.010305"><ele>773.25</ele><time>2026-04-25T10:58:14.395Z</time></trkpt><trkpt lat="44.3433133" lon="11.01026"><ele>775.5</ele><time>2026-04-25T10:58:15.393Z</time></trkpt><trkpt lat="44.3434433" lon="11.0102217"><ele>777.75</ele><time>2026-04-25T10:58:16.393Z</time></trkpt><trkpt lat="44.3435783" lon="11.0101817"><ele>780.0</ele><time>2026-04-25T10:58:17.393Z</time></trkpt><trkpt lat="44.3437183" lon="11.0101417"><ele>780.0</ele><time>2026-04-25T10:58:18.393Z</time></trkpt><trkpt lat="44.3438633" lon="11.0100983"><ele>780.0</ele><time>2026-04-25T10:58:19.392Z</time></trkpt><trkpt lat="44.34401" lon="11.0100583"><ele>780.0</ele><time>2026-04-25T10:58:20.396Z</time></trkpt><trkpt lat="44.3441567" lon="11.010025"><ele>780.0</ele><time>2026-04-25T10:58:21.394Z</time></trkpt><trkpt lat="44.344305" lon="11.0099983"><ele>780.75</ele><time>2026-04-25T10:58:22.394Z</time></trkpt><trkpt lat="44.34445" lon="11.0099783"><ele>781.5</ele><time>2026-04-25T10:58:23.393Z</time></trkpt><trkpt lat="44.3445967" lon="11.00997"><ele>782.25</ele><time>2026-04-25T10:58:24.393Z</time></trkpt><trkpt lat="44.3447417" lon="11.0099717"><ele>783.0</ele><time>2026-04-25T10:58:25.394Z</time></trkpt><trkpt lat="44.3448867" lon="11.00998"><ele>785.75</ele><time>2026-04-25T10:58:26.395Z</time></trkpt><trkpt lat="44.3450317" lon="11.009995"><ele>788.5</ele><time>2026-04-25T10:58:27.393Z</time></trkpt><trkpt lat="44.3451783" lon="11.01001"><ele>791.25</ele><time>2026-04-25T10:58:28.393Z</time></trkpt><trkpt lat="44.3453283" lon="11.0100183"><ele>794.0</ele><time>2026-04-25T10:58:29.395Z</time></trkpt><trkpt lat="44.3454783" lon="11.0100233"><ele>796.0</ele><time>2026-04-25T10:58:30.394Z</time></trkpt><trkpt lat="44.3456267" lon="11.0100233"><ele>798.0</ele><time>2026-04-25T10:58:31.394Z</time></trkpt><trkpt lat="44.345775" lon="11.0100167"><ele>800.0</ele><time>2026-04-25T10:58:32.395Z</time></trkpt><trkpt lat="44.3459233" lon="11.01001"><ele>802.0</ele><time>2026-04-25T10:58:33.394Z</time></trkpt><trkpt lat="44.3460633" lon="11.010005"><ele>802.0</ele><time>2026-04-25T10:58:34.393Z</time></trkpt><trkpt lat="44.34619" lon="11.0100017"><ele>802.0</ele><time>2026-04-25T10:58:35.394Z</time></trkpt><trkpt lat="44.34631" lon="11.0100067"><ele>802.0</ele><time>2026-04-25T10:58:36.398Z</time></trkpt><trkpt lat="44.346425" lon="11.0100383"><ele>802.0</ele><time>2026-04-25T10:58:37.395Z</time></trkpt><trkpt lat="44.34654" lon="11.010095"><ele>803.0</ele><time>2026-04-25T10:58:38.395Z</time></trkpt><trkpt lat="44.3466567" lon="11.0101733"><ele>804.0</ele><time>2026-04-25T10:58:39.395Z</time></trkpt><trkpt lat="44.3467683" lon="11.01026"><ele>805.0</ele><time>2026-04-25T10:58:40.391Z</time></trkpt><trkpt lat="44.3468633" lon="11.0103417"><ele>806.0</ele><time>2026-04-25T10:58:41.394Z</time></trkpt><trkpt lat="44.3469467" lon="11.0104167"><ele>806.0000000000001</ele><time>2026-04-25T10:58:42.394Z</time></trkpt><trkpt lat="44.3470133" lon="11.0104883"><ele>806.0</ele><time>2026-04-25T10:58:43.395Z</time></trkpt><trkpt lat="44.347075" lon="11.0105467"><ele>806.0</ele><time>2026-04-25T10:58:44.394Z</time></trkpt><trkpt lat="44.3471383" lon="11.0105817"><ele>806.0</ele><time>2026-04-25T10:58:45.395Z</time></trkpt><trkpt lat="44.3472067" lon="11.0105767"><ele>806.0000000000001</ele><time>2026-04-25T10:58:46.395Z</time></trkpt><trkpt lat="44.3472767" lon="11.0105317"><ele>806.0</ele><time>2026-04-25T10:58:47.397Z</time></trkpt><trkpt lat="44.3473583" lon="11.0104483"><ele>806.1999999999999</ele><time>2026-04-25T10:58:48.397Z</time></trkpt><trkpt lat="44.347445" lon="11.0103517"><ele>806.4</ele><time>2026-04-25T10:58:49.394Z</time></trkpt><trkpt lat="44.3475333" lon="11.0102617"><ele>806.6</ele><time>2026-04-25T10:58:50.394Z</time></trkpt><trkpt lat="44.34762" lon="11.010175"><ele>806.8</ele><time>2026-04-25T10:58:51.394Z</time></trkpt><trkpt lat="44.34771" lon="11.010085"><ele>807.0</ele><time>2026-04-25T10:58:52.393Z</time></trkpt><trkpt lat="44.3477933" lon="11.0099983"><ele>806.0</ele><time>2026-04-25T10:58:53.394Z</time></trkpt><trkpt lat="44.347875" lon="11.0099083"><ele>805.0</ele><time>2026-04-25T10:58:54.393Z</time></trkpt><trkpt lat="44.34796" lon="11.00982"><ele>804.0</ele><time>2026-04-25T10:58:55.393Z</time></trkpt><trkpt lat="44.3480483" lon="11.0097533"><ele>803.0</ele><time>2026-04-25T10:58:56.396Z</time></trkpt><trkpt lat="44.3481483" lon="11.00971"><ele>802.0</ele><time>2026-04-25T10:58:57.394Z</time></trkpt><trkpt lat="44.3482567" lon="11.0096833"><ele>801.25</ele><time>2026-04-25T10:58:58.395Z</time></trkpt><trkpt lat="44.34837" lon="11.0096617"><ele>800.5</ele><time>2026-04-25T10:58:59.394Z</time></trkpt><trkpt lat="44.3484883" lon="11.0096383"><ele>799.75</ele><time>2026-04-25T10:59:00.394Z</time></trkpt><trkpt lat="44.3486083" lon="11.0096167"><ele>799.0</ele><time>2026-04-25T10:59:01.39Z</time></trkpt><trkpt lat="44.3487283" lon="11.0095883"><ele>799.0</ele><time>2026-04-25T10:59:02.395Z</time></trkpt><trkpt lat="44.3488483" lon="11.00956"><ele>799.0</ele><time>2026-04-25T10:59:03.395Z</time></trkpt><trkpt lat="44.3489683" lon="11.0095317"><ele>799.0</ele><time>2026-04-25T10:59:04.393Z</time></trkpt><trkpt lat="44.3490833" lon="11.009505"><ele>799.0</ele><time>2026-04-25T10:59:05.394Z</time></trkpt><trkpt lat="44.3491933" lon="11.0094767"><ele>796.75</ele><time>2026-04-25T10:59:06.39Z</time></trkpt><trkpt lat="44.3493067" lon="11.0094533"><ele>794.5</ele><time>2026-04-25T10:59:07.396Z</time></trkpt><trkpt lat="44.3494233" lon="11.009435"><ele>792.25</ele><time>2026-04-25T10:59:08.396Z</time></trkpt><trkpt lat="44.3495433" lon="11.0094217"><ele>790.0</ele><time>2026-04-25T10:59:09.393Z</time></trkpt><trkpt lat="44.34967" lon="11.009405"><ele>788.5</ele><time>2026-04-25T10:59:10.392Z</time></trkpt><trkpt lat="44.349795" lon="11.0093817"><ele>787.0</ele><time>2026-04-25T10:59:11.395Z</time></trkpt><trkpt lat="44.349915" lon="11.0093617"><ele>785.5</ele><time>2026-04-25T10:59:12.394Z</time></trkpt><trkpt lat="44.3500417" lon="11.0093567"><ele>784.0</ele><time>2026-04-25T10:59:13.395Z</time></trkpt><trkpt lat="44.3501683" lon="11.0093533"><ele>784.0</ele><time>2026-04-25T10:59:14.397Z</time></trkpt><trkpt lat="44.3502967" lon="11.0093417"><ele>784.0</ele><time>2026-04-25T10:59:15.396Z</time></trkpt><trkpt lat="44.35043" lon="11.0093117"><ele>784.0</ele><time>2026-04-25T10:59:16.395Z</time></trkpt><trkpt lat="44.3505717" lon="11.0092633"><ele>784.0</ele><time>2026-04-25T10:59:17.394Z</time></trkpt><trkpt lat="44.350715" lon="11.0092033"><ele>780.3333333333333</ele><time>2026-04-25T10:59:18.394Z</time></trkpt><trkpt lat="44.3508617" lon="11.009135"><ele>776.6666666666667</ele><time>2026-04-25T10:59:19.393Z</time></trkpt><trkpt lat="44.35101" lon="11.0090683"><ele>773.0</ele><time>2026-04-25T10:59:20.395Z</time></trkpt><trkpt lat="44.3511533" lon="11.0090067"><ele>773.0</ele><time>2026-04-25T10:59:21.394Z</time></trkpt><trkpt lat="44.351285" lon="11.0089517"><ele>773.0</ele><time>2026-04-25T10:59:22.393Z</time></trkpt><trkpt lat="44.351405" lon="11.0088967"><ele>773.0</ele><time>2026-04-25T10:59:23.393Z</time></trkpt><trkpt lat="44.3515167" lon="11.0088367"><ele>773.0</ele><time>2026-04-25T10:59:24.394Z</time></trkpt><trkpt lat="44.35163" lon="11.008765"><ele>772.0</ele><time>2026-04-25T10:59:25.394Z</time></trkpt><trkpt lat="44.3517467" lon="11.0086983"><ele>771.0</ele><time>2026-04-25T10:59:26.393Z</time></trkpt><trkpt lat="44.3518667" lon="11.0086333"><ele>770.0</ele><time>2026-04-25T10:59:27.394Z</time></trkpt><trkpt lat="44.3519883" lon="11.0085783"><ele>769.0</ele><time>2026-04-25T10:59:28.395Z</time></trkpt><trkpt lat="44.352105" lon="11.0085383"><ele>767.4000000000001</ele><time>2026-04-25T10:59:29.395Z</time></trkpt><trkpt lat="44.3522183" lon="11.0085217"><ele>765.8</ele><time>2026-04-25T10:59:30.397Z</time></trkpt><trkpt lat="44.3523183" lon="11.0085183"><ele>764.2</ele><time>2026-04-25T10:59:31.395Z</time></trkpt><trkpt lat="44.35241" lon="11.00851"><ele>762.5999999999999</ele><time>2026-04-25T10:59:32.396Z</time></trkpt><trkpt lat="44.3525017" lon="11.0084783"><ele>761.0</ele><time>2026-04-25T10:59:33.394Z</time></trkpt><trkpt lat="44.3526" lon="11.0084167"><ele>761.0</ele><time>2026-04-25T10:59:34.395Z</time></trkpt><trkpt lat="44.3527017" lon="11.0083267"><ele>761.0</ele><time>2026-04-25T10:59:35.395Z</time></trkpt><trkpt lat="44.3528033" lon="11.0082283"><ele>761.0</ele><time>2026-04-25T10:59:36.394Z</time></trkpt><trkpt lat="44.3528983" lon="11.00813"><ele>761.0</ele><time>2026-04-25T10:59:37.395Z</time></trkpt><trkpt lat="44.3529867" lon="11.008035"><ele>759.0</ele><time>2026-04-25T10:59:38.394Z</time></trkpt><trkpt lat="44.3530683" lon="11.0079467"><ele>757.0</ele><time>2026-04-25T10:59:39.395Z</time></trkpt><trkpt lat="44.353145" lon="11.0078767"><ele>755.0</ele><time>2026-04-25T10:59:40.392Z</time></trkpt><trkpt lat="44.3532183" lon="11.00782"><ele>753.0</ele><time>2026-04-25T10:59:41.396Z</time></trkpt><trkpt lat="44.35329" lon="11.0077817"><ele>751.0</ele><time>2026-04-25T10:59:42.394Z</time></trkpt><trkpt lat="44.3533717" lon="11.0078017"><ele>749.0</ele><time>2026-04-25T10:59:43.396Z</time></trkpt><trkpt lat="44.353445" lon="11.007845"><ele>749.0</ele><time>2026-04-25T10:59:44.396Z</time></trkpt><trkpt lat="44.3535217" lon="11.0078817"><ele>749.0</ele><time>2026-04-25T10:59:45.391Z</time></trkpt><trkpt lat="44.353605" lon="11.007895"><ele>749.0</ele><time>2026-04-25T10:59:46.394Z</time></trkpt><trkpt lat="44.3537033" lon="11.007875"><ele>749.0</ele><time>2026-04-25T10:59:47.393Z</time></trkpt><trkpt lat="44.3538183" lon="11.0078083"><ele>749.0</ele><time>2026-04-25T10:59:48.393Z</time></trkpt><trkpt lat="44.3539333" lon="11.0077367"><ele>746.8000000000001</ele><time>2026-04-25T10:59:49.394Z</time></trkpt><trkpt lat="44.3540483" lon="11.0076683"><ele>744.6</ele><time>2026-04-25T10:59:50.394Z</time></trkpt><trkpt lat="44.354155" lon="11.0076217"><ele>742.4</ele><time>2026-04-25T10:59:51.394Z</time></trkpt><trkpt lat="44.354255" lon="11.007585"><ele>740.2</ele><time>2026-04-25T10:59:52.393Z</time></trkpt><trkpt lat="44.3543483" lon="11.007555"><ele>738.0</ele><time>2026-04-25T10:59:53.394Z</time></trkpt><trkpt lat="44.3544367" lon="11.0075317"><ele>738.0</ele><time>2026-04-25T10:59:54.394Z</time></trkpt><trkpt lat="44.3545183" lon="11.00751"><ele>738.0</ele><time>2026-04-25T10:59:55.394Z</time></trkpt><trkpt lat="44.3545883" lon="11.007485"><ele>738.0</ele><time>2026-04-25T10:59:56.396Z</time></trkpt><trkpt lat="44.354645" lon="11.0074417"><ele>738.0</ele><time>2026-04-25T10:59:57.395Z</time></trkpt><trkpt lat="44.3547" lon="11.007315"><ele>738.0</ele><time>2026-04-25T10:59:59.394Z</time></trkpt><trkpt lat="44.354725" lon="11.00721"><ele>738.0</ele><time>2026-04-25T11:00:01.39Z</time></trkpt><trkpt lat="44.354795" lon="11.0071667"><ele>734.2857142857142</ele><time>2026-04-25T11:00:03.395Z</time></trkpt><trkpt lat="44.3548583" lon="11.00717"><ele>730.5714285714286</ele><time>2026-04-25T11:00:04.39Z</time></trkpt><trkpt lat="44.3549267" lon="11.0071767"><ele>726.8571428571429</ele><time>2026-04-25T11:00:05.394Z</time></trkpt><trkpt lat="44.3550017" lon="11.00718"><ele>723.1428571428571</ele><time>2026-04-25T11:00:06.39Z</time></trkpt><trkpt lat="44.355075" lon="11.0071783"><ele>719.4285714285714</ele><time>2026-04-25T11:00:07.395Z</time></trkpt><trkpt lat="44.3551467" lon="11.00717"><ele>715.7142857142857</ele><time>2026-04-25T11:00:08.395Z</time></trkpt><trkpt lat="44.3552167" lon="11.0071633"><ele>712.0</ele><time>2026-04-25T11:00:09.395Z</time></trkpt><trkpt lat="44.355285" lon="11.0071467"><ele>712.0</ele><time>2026-04-25T11:00:10.393Z</time></trkpt><trkpt lat="44.3553567" lon="11.0071217"><ele>712.0</ele><time>2026-04-25T11:00:11.393Z</time></trkpt><trkpt lat="44.35543" lon="11.0070917"><ele>712.0</ele><time>2026-04-25T11:00:12.392Z</time></trkpt><trkpt lat="44.3554983" lon="11.0070717"><ele>712.0</ele><time>2026-04-25T11:00:13.393Z</time></trkpt><trkpt lat="44.3555617" lon="11.007055"><ele>712.0</ele><time>2026-04-25T11:00:14.395Z</time></trkpt><trkpt lat="44.355655" lon="11.0070083"><ele>712.0</ele><time>2026-04-25T11:00:16.389Z</time></trkpt><trkpt lat="44.35573" lon="11.0069417"><ele>710.4000000000001</ele><time>2026-04-25T11:00:18.395Z</time></trkpt><trkpt lat="44.3558083" lon="11.0069133"><ele>708.8000000000001</ele><time>2026-04-25T11:00:20.394Z</time></trkpt><trkpt lat="44.355895" lon="11.0069433"><ele>707.2</ele><time>2026-04-25T11:00:22.393Z</time></trkpt><trkpt lat="44.3559783" lon="11.00697"><ele>705.6</ele><time>2026-04-25T11:00:24.395Z</time></trkpt><trkpt lat="44.3560683" lon="11.0069467"><ele>704.0</ele><time>2026-04-25T11:00:26.395Z</time></trkpt><trkpt lat="44.3561667" lon="11.0069033"><ele>704.0</ele><time>2026-04-25T11:00:28.393Z</time></trkpt><trkpt lat="44.3562783" lon="11.0068483"><ele>704.0</ele><time>2026-04-25T11:00:30.395Z</time></trkpt><trkpt lat="44.3563783" lon="11.0067767"><ele>704.0</ele><time>2026-04-25T11:00:32.395Z</time></trkpt><trkpt lat="44.3564783" lon="11.00676"><ele>704.0</ele><time>2026-04-25T11:00:34.393Z</time></trkpt><trkpt lat="44.3565533" lon="11.0067633"><ele>704.0</ele><time>2026-04-25T11:00:36.395Z</time></trkpt><trkpt lat="44.3566333" lon="11.0067567"><ele>701.0</ele><time>2026-04-25T11:00:38.395Z</time></trkpt><trkpt lat="44.356705" lon="11.006755"><ele>698.0</ele><time>2026-04-25T11:00:39.394Z</time></trkpt><trkpt lat="44.3567917" lon="11.0067533"><ele>695.0</ele><time>2026-04-25T11:00:40.393Z</time></trkpt><trkpt lat="44.3568867" lon="11.0067433"><ele>692.0</ele><time>2026-04-25T11:00:41.395Z</time></trkpt><trkpt lat="44.356995" lon="11.0067183"><ele>689.0</ele><time>2026-04-25T11:00:42.395Z</time></trkpt><trkpt lat="44.3571" lon="11.00668"><ele>687.6</ele><time>2026-04-25T11:00:43.395Z</time></trkpt><trkpt lat="44.357195" lon="11.0066383"><ele>686.2</ele><time>2026-04-25T11:00:44.396Z</time></trkpt><trkpt lat="44.3572917" lon="11.006595"><ele>684.8000000000001</ele><time>2026-04-25T11:00:45.392Z</time></trkpt><trkpt lat="44.357385" lon="11.0065517"><ele>683.4000000000001</ele><time>2026-04-25T11:00:46.391Z</time></trkpt><trkpt lat="44.3574817" lon="11.0065167"><ele>682.0</ele><time>2026-04-25T11:00:47.394Z</time></trkpt><trkpt lat="44.3575733" lon="11.006495"><ele>680.8333333333334</ele><time>2026-04-25T11:00:48.398Z</time></trkpt><trkpt lat="44.3576617" lon="11.0064783"><ele>679.6666666666667</ele><time>2026-04-25T11:00:49.395Z</time></trkpt><trkpt lat="44.3577533" lon="11.0064683"><ele>678.5</ele><time>2026-04-25T11:00:50.396Z</time></trkpt><trkpt lat="44.3578367" lon="11.0064567"><ele>677.3333333333334</ele><time>2026-04-25T11:00:51.394Z</time></trkpt><trkpt lat="44.3579067" lon="11.00644"><ele>676.1666666666666</ele><time>2026-04-25T11:00:52.394Z</time></trkpt><trkpt lat="44.3580083" lon="11.0063967"><ele>675.0</ele><time>2026-04-25T11:00:54.394Z</time></trkpt><trkpt lat="44.3580967" lon="11.00634"><ele>675.0</ele><time>2026-04-25T11:00:56.393Z</time></trkpt><trkpt lat="44.3582033" lon="11.0062467"><ele>675.0</ele><time>2026-04-25T11:00:58.393Z</time></trkpt><trkpt lat="44.3582683" lon="11.0061833"><ele>675.0</ele><time>2026-04-25T11:00:59.394Z</time></trkpt><trkpt lat="44.3583467" lon="11.00612"><ele>675.0</ele><time>2026-04-25T11:01:00.393Z</time></trkpt><trkpt lat="44.358425" lon="11.0060483"><ele>675.0</ele><time>2026-04-25T11:01:01.395Z</time></trkpt><trkpt lat="44.3584967" lon="11.00597"><ele>675.0</ele><time>2026-04-25T11:01:02.394Z</time></trkpt><trkpt lat="44.3585683" lon="11.005885"><ele>675.0</ele><time>2026-04-25T11:01:03.392Z</time></trkpt><trkpt lat="44.3586367" lon="11.0057983"><ele>675.0</ele><time>2026-04-25T11:01:04.392Z</time></trkpt><trkpt lat="44.3587067" lon="11.0057067"><ele>675.0</ele><time>2026-04-25T11:01:05.394Z</time></trkpt><trkpt lat="44.3587783" lon="11.0056133"><ele>675.0</ele><time>2026-04-25T11:01:06.387Z</time></trkpt><trkpt lat="44.35884" lon="11.00552"><ele>673.1666666666666</ele><time>2026-04-25T11:01:07.393Z</time></trkpt><trkpt lat="44.3588983" lon="11.0054333"><ele>671.3333333333334</ele><time>2026-04-25T11:01:08.389Z</time></trkpt><trkpt lat="44.358965" lon="11.00535"><ele>669.5</ele><time>2026-04-25T11:01:09.394Z</time></trkpt><trkpt lat="44.3590333" lon="11.0052717"><ele>667.6666666666667</ele><time>2026-04-25T11:01:10.395Z</time></trkpt><trkpt lat="44.3590933" lon="11.0052"><ele>665.8333333333334</ele><time>2026-04-25T11:01:11.394Z</time></trkpt><trkpt lat="44.3591467" lon="11.0051217"><ele>664.0</ele><time>2026-04-25T11:01:12.394Z</time></trkpt><trkpt lat="44.35919" lon="11.00504"><ele>662.2</ele><time>2026-04-25T11:01:13.394Z</time></trkpt><trkpt lat="44.3592317" lon="11.0049467"><ele>660.4000000000001</ele><time>2026-04-25T11:01:14.395Z</time></trkpt><trkpt lat="44.35928" lon="11.0048383"><ele>658.6</ele><time>2026-04-25T11:01:15.394Z</time></trkpt><trkpt lat="44.3593383" lon="11.0047217"><ele>656.8</ele><time>2026-04-25T11:01:16.39Z</time></trkpt><trkpt lat="44.3594" lon="11.004595"><ele>655.0</ele><time>2026-04-25T11:01:17.39Z</time></trkpt><trkpt lat="44.3594567" lon="11.004465"><ele>655.0</ele><time>2026-04-25T11:01:18.391Z</time></trkpt><trkpt lat="44.3595133" lon="11.0043367"><ele>655.0</ele><time>2026-04-25T11:01:19.394Z</time></trkpt><trkpt lat="44.3595717" lon="11.004215"><ele>655.0</ele><time>2026-04-25T11:01:20.394Z</time></trkpt><trkpt lat="44.3596333" lon="11.0040933"><ele>655.0</ele><time>2026-04-25T11:01:21.394Z</time></trkpt><trkpt lat="44.3596983" lon="11.0039767"><ele>655.0</ele><time>2026-04-25T11:01:22.394Z</time></trkpt><trkpt lat="44.3597683" lon="11.0038733"><ele>652.6666666666667</ele><time>2026-04-25T11:01:23.393Z</time></trkpt><trkpt lat="44.359835" lon="11.0037833"><ele>650.3333333333334</ele><time>2026-04-25T11:01:24.395Z</time></trkpt><trkpt lat="44.359895" lon="11.0037083"><ele>648.0</ele><time>2026-04-25T11:01:25.394Z</time></trkpt><trkpt lat="44.3599583" lon="11.0036483"><ele>645.6666666666666</ele><time>2026-04-25T11:01:26.394Z</time></trkpt><trkpt lat="44.3600283" lon="11.00361"><ele>643.3333333333333</ele><time>2026-04-25T11:01:27.395Z</time></trkpt><trkpt lat="44.360135" lon="11.0035917"><ele>641.0</ele><time>2026-04-25T11:01:29.393Z</time></trkpt><trkpt lat="44.3602033" lon="11.0035433"><ele>641.0</ele><time>2026-04-25T11:01:31.393Z</time></trkpt><trkpt lat="44.3601467" lon="11.0035983"><ele>641.0</ele><time>2026-04-25T11:01:55.393Z</time></trkpt><trkpt lat="44.3600433" lon="11.0036333"><ele>641.0</ele><time>2026-04-25T11:01:57.392Z</time></trkpt><trkpt lat="44.3599783" lon="11.0036617"><ele>641.0</ele><time>2026-04-25T11:01:58.392Z</time></trkpt><trkpt lat="44.3599133" lon="11.003715"><ele>641.0</ele><time>2026-04-25T11:01:59.392Z</time></trkpt><trkpt lat="44.35985" lon="11.003785"><ele>641.0</ele><time>2026-04-25T11:02:00.392Z</time></trkpt><trkpt lat="44.3597833" lon="11.003865"><ele>641.0</ele><time>2026-04-25T11:02:01.393Z</time></trkpt><trkpt lat="44.35972" lon="11.003955"><ele>641.0</ele><time>2026-04-25T11:02:02.395Z</time></trkpt><trkpt lat="44.3596567" lon="11.0040517"><ele>641.0</ele><time>2026-04-25T11:02:03.394Z</time></trkpt><trkpt lat="44.3596017" lon="11.004155"><ele>641.0</ele><time>2026-04-25T11:02:04.391Z</time></trkpt><trkpt lat="44.35955" lon="11.0042617"><ele>641.0</ele><time>2026-04-25T11:02:05.393Z</time></trkpt><trkpt lat="44.3595017" lon="11.0043683"><ele>643.8</ele><time>2026-04-25T11:02:06.395Z</time></trkpt><trkpt lat="44.359455" lon="11.00448"><ele>646.5999999999999</ele><time>2026-04-25T11:02:07.395Z</time></trkpt><trkpt lat="44.3594067" lon="11.0045933"><ele>649.4</ele><time>2026-04-25T11:02:08.394Z</time></trkpt><trkpt lat="44.359355" lon="11.004705"><ele>652.2</ele><time>2026-04-25T11:02:09.394Z</time></trkpt><trkpt lat="44.359305" lon="11.0048083"><ele>655.0</ele><time>2026-04-25T11:02:10.393Z</time></trkpt><trkpt lat="44.3592567" lon="11.004905"><ele>655.0</ele><time>2026-04-25T11:02:11.392Z</time></trkpt><trkpt lat="44.3592133" lon="11.00499"><ele>655.0</ele><time>2026-04-25T11:02:12.392Z</time></trkpt><trkpt lat="44.3591833" lon="11.0050683"><ele>655.0</ele><time>2026-04-25T11:02:13.394Z</time></trkpt><trkpt lat="44.3591067" lon="11.00521"><ele>655.0</ele><time>2026-04-25T11:02:15.392Z</time></trkpt><trkpt lat="44.3590467" lon="11.0052783"><ele>655.0</ele><time>2026-04-25T11:02:16.392Z</time></trkpt><trkpt lat="44.3589767" lon="11.0053417"><ele>655.0</ele><time>2026-04-25T11:02:17.393Z</time></trkpt><trkpt lat="44.3589067" lon="11.0054033"><ele>656.0</ele><time>2026-04-25T11:02:18.392Z</time></trkpt><trkpt lat="44.3588417" lon="11.0054767"><ele>657.0</ele><time>2026-04-25T11:02:19.392Z</time></trkpt><trkpt lat="44.358785" lon="11.0055683"><ele>658.0</ele><time>2026-04-25T11:02:20.395Z</time></trkpt><trkpt lat="44.3587317" lon="11.0056633"><ele>659.0</ele><time>2026-04-25T11:02:21.393Z</time></trkpt><trkpt lat="44.3586683" lon="11.0057567"><ele>660.0</ele><time>2026-04-25T11:02:22.392Z</time></trkpt><trkpt lat="44.3586" lon="11.005845"><ele>661.0</ele><time>2026-04-25T11:02:23.392Z</time></trkpt><trkpt lat="44.358535" lon="11.005925"><ele>663.3333333333334</ele><time>2026-04-25T11:02:24.393Z</time></trkpt><trkpt lat="44.3584683" lon="11.0059983"><ele>665.6666666666667</ele><time>2026-04-25T11:02:25.393Z</time></trkpt><trkpt lat="44.3584067" lon="11.0060683"><ele>668.0</ele><time>2026-04-25T11:02:26.394Z</time></trkpt><trkpt lat="44.3583433" lon="11.0061317"><ele>670.3333333333334</ele><time>2026-04-25T11:02:27.392Z</time></trkpt><trkpt lat="44.35828" lon="11.0061867"><ele>672.6666666666666</ele><time>2026-04-25T11:02:28.393Z</time></trkpt><trkpt lat="44.358215" lon="11.0062383"><ele>675.0</ele><time>2026-04-25T11:02:29.393Z</time></trkpt><trkpt lat="44.358155" lon="11.0062867"><ele>675.0</ele><time>2026-04-25T11:02:30.395Z</time></trkpt><trkpt lat="44.3580733" lon="11.0063617"><ele>675.0</ele><time>2026-04-25T11:02:32.395Z</time></trkpt><trkpt lat="44.3580767" lon="11.0064767"><ele>675.0</ele><time>2026-04-25T11:02:35.394Z</time></trkpt><trkpt lat="44.3581433" lon="11.00657"><ele>675.0</ele><time>2026-04-25T11:02:37.395Z</time></trkpt><trkpt lat="44.3582267" lon="11.00667"><ele>675.0</ele><time>2026-04-25T11:02:39.394Z</time></trkpt><trkpt lat="44.358335" lon="11.00676"><ele>674.8333333333334</ele><time>2026-04-25T11:02:41.398Z</time></trkpt><trkpt lat="44.3583933" lon="11.006795"><ele>674.6666666666666</ele><time>2026-04-25T11:02:42.392Z</time></trkpt><trkpt lat="44.3584517" lon="11.00683"><ele>674.5</ele><time>2026-04-25T11:02:43.396Z</time></trkpt><trkpt lat="44.35851" lon="11.006865"><ele>674.3333333333333</ele><time>2026-04-25T11:02:44.395Z</time></trkpt><trkpt lat="44.3586183" lon="11.006955"><ele>674.1666666666666</ele><time>2026-04-25T11:02:46.394Z</time></trkpt><trkpt lat="44.3586733" lon="11.007015"><ele>674.0</ele><time>2026-04-25T11:02:47.394Z</time></trkpt><trkpt lat="44.358725" lon="11.0070917"><ele>674.0</ele><time>2026-04-25T11:02:48.393Z</time></trkpt><trkpt lat="44.3587817" lon="11.0071733"><ele>674.0</ele><time>2026-04-25T11:02:49.396Z</time></trkpt><trkpt lat="44.3588383" lon="11.007245"><ele>674.0</ele><time>2026-04-25T11:02:50.393Z</time></trkpt><trkpt lat="44.3588967" lon="11.0073033"><ele>674.0</ele><time>2026-04-25T11:02:51.393Z</time></trkpt><trkpt lat="44.3589517" lon="11.0073567"><ele>674.0</ele><time>2026-04-25T11:02:52.392Z</time></trkpt><trkpt lat="44.359045" lon="11.00747"><ele>674.0</ele><time>2026-04-25T11:02:54.394Z</time></trkpt><trkpt lat="44.3591233" lon="11.0075983"><ele>669.2</ele><time>2026-04-25T11:02:56.394Z</time></trkpt><trkpt lat="44.359195" lon="11.00773"><ele>664.4000000000001</ele><time>2026-04-25T11:02:58.392Z</time></trkpt><trkpt lat="44.359275" lon="11.0078433"><ele>659.6</ele><time>2026-04-25T11:03:00.393Z</time></trkpt><trkpt lat="44.3593567" lon="11.0079283"><ele>654.8</ele><time>2026-04-25T11:03:02.395Z</time></trkpt><trkpt lat="44.35944" lon="11.0079783"><ele>650.0</ele><time>2026-04-25T11:03:04.393Z</time></trkpt><trkpt lat="44.3595233" lon="11.007975"><ele>650.0</ele><time>2026-04-25T11:03:06.394Z</time></trkpt><trkpt lat="44.3595817" lon="11.007875"><ele>650.0</ele><time>2026-04-25T11:03:09.394Z</time></trkpt><trkpt lat="44.3596183" lon="11.0077083"><ele>650.0</ele><time>2026-04-25T11:03:11.393Z</time></trkpt><trkpt lat="44.35964" lon="11.0076217"><ele>650.0</ele><time>2026-04-25T11:03:12.393Z</time></trkpt><trkpt lat="44.35967" lon="11.0074567"><ele>650.0</ele><time>2026-04-25T11:03:14.394Z</time></trkpt><trkpt lat="44.3597033" lon="11.00729"><ele>647.5</ele><time>2026-04-25T11:03:16.393Z</time></trkpt><trkpt lat="44.3597267" lon="11.0072033"><ele>645.0</ele><time>2026-04-25T11:03:17.395Z</time></trkpt><trkpt lat="44.35976" lon="11.0071233"><ele>642.5</ele><time>2026-04-25T11:03:18.394Z</time></trkpt><trkpt lat="44.3598017" lon="11.0070533"><ele>640.0</ele><time>2026-04-25T11:03:19.391Z</time></trkpt><trkpt lat="44.3598817" lon="11.0069617"><ele>637.5</ele><time>2026-04-25T11:03:21.394Z</time></trkpt><trkpt lat="44.35998" lon="11.0069617"><ele>635.0</ele><time>2026-04-25T11:03:23.395Z</time></trkpt><trkpt lat="44.3600433" lon="11.0069883"><ele>635.0</ele><time>2026-04-25T11:03:24.394Z</time></trkpt><trkpt lat="44.360105" lon="11.007045"><ele>635.0</ele><time>2026-04-25T11:03:25.394Z</time></trkpt><trkpt lat="44.3601667" lon="11.0071033"><ele>635.0</ele><time>2026-04-25T11:03:26.395Z</time></trkpt><trkpt lat="44.36024" lon="11.0071767"><ele>635.0</ele><time>2026-04-25T11:03:27.393Z</time></trkpt><trkpt lat="44.3603133" lon="11.0072717"><ele>635.0</ele><time>2026-04-25T11:03:28.394Z</time></trkpt><trkpt lat="44.3603767" lon="11.0073567"><ele>635.0</ele><time>2026-04-25T11:03:29.394Z</time></trkpt><trkpt lat="44.360435" lon="11.00745"><ele>634.8333333333333</ele><time>2026-04-25T11:03:30.393Z</time></trkpt><trkpt lat="44.3604817" lon="11.00755"><ele>634.6666666666666</ele><time>2026-04-25T11:03:31.394Z</time></trkpt><trkpt lat="44.3605267" lon="11.0076483"><ele>634.5</ele><time>2026-04-25T11:03:32.395Z</time></trkpt><trkpt lat="44.3605633" lon="11.00775"><ele>634.3333333333334</ele><time>2026-04-25T11:03:33.393Z</time></trkpt><trkpt lat="44.360585" lon="11.007855"><ele>634.1666666666667</ele><time>2026-04-25T11:03:34.393Z</time></trkpt><trkpt lat="44.3605967" lon="11.00796"><ele>634.0</ele><time>2026-04-25T11:03:35.391Z</time></trkpt><trkpt lat="44.3605983" lon="11.00807"><ele>634.0</ele><time>2026-04-25T11:03:36.398Z</time></trkpt><trkpt lat="44.360575" lon="11.0081883"><ele>634.0</ele><time>2026-04-25T11:03:37.394Z</time></trkpt><trkpt lat="44.3605467" lon="11.008305"><ele>634.0</ele><time>2026-04-25T11:03:38.396Z</time></trkpt><trkpt lat="44.3605167" lon="11.008415"><ele>634.0</ele><time>2026-04-25T11:03:39.396Z</time></trkpt><trkpt lat="44.360485" lon="11.008515"><ele>634.0</ele><time>2026-04-25T11:03:40.394Z</time></trkpt><trkpt lat="44.360475" lon="11.008615"><ele>634.0</ele><time>2026-04-25T11:03:41.394Z</time></trkpt><trkpt lat="44.3604833" lon="11.0087217"><ele>634.0</ele><time>2026-04-25T11:03:42.393Z</time></trkpt><trkpt lat="44.3605133" lon="11.00883"><ele>634.0</ele><time>2026-04-25T11:03:43.393Z</time></trkpt><trkpt lat="44.3605467" lon="11.0089333"><ele>634.0</ele><time>2026-04-25T11:03:44.395Z</time></trkpt><trkpt lat="44.36059" lon="11.0090333"><ele>634.0</ele><time>2026-04-25T11:03:45.393Z</time></trkpt><trkpt lat="44.3606417" lon="11.0091183"><ele>634.0</ele><time>2026-04-25T11:03:46.393Z</time></trkpt><trkpt lat="44.36069" lon="11.0091933"><ele>634.0</ele><time>2026-04-25T11:03:47.393Z</time></trkpt><trkpt lat="44.3607317" lon="11.0092733"><ele>628.3333333333334</ele><time>2026-04-25T11:03:48.394Z</time></trkpt><trkpt lat="44.3607767" lon="11.0093617"><ele>622.6666666666667</ele><time>2026-04-25T11:03:49.393Z</time></trkpt><trkpt lat="44.36082" lon="11.0094517"><ele>617.0</ele><time>2026-04-25T11:03:50.392Z</time></trkpt><trkpt lat="44.36086" lon="11.0095367"><ele>611.3333333333334</ele><time>2026-04-25T11:03:51.393Z</time></trkpt><trkpt lat="44.360905" lon="11.009605"><ele>605.6666666666666</ele><time>2026-04-25T11:03:52.39Z</time></trkpt><trkpt lat="44.36099" lon="11.0096567"><ele>600.0</ele><time>2026-04-25T11:03:54.397Z</time></trkpt><trkpt lat="44.3610533" lon="11.009615"><ele>600.0</ele><time>2026-04-25T11:03:56.394Z</time></trkpt><trkpt lat="44.3611083" lon="11.0095117"><ele>600.0</ele><time>2026-04-25T11:03:58.392Z</time></trkpt><trkpt lat="44.3611417" lon="11.00943"><ele>600.0</ele><time>2026-04-25T11:03:59.399Z</time></trkpt><trkpt lat="44.3611817" lon="11.00935"><ele>600.0</ele><time>2026-04-25T11:04:00.394Z</time></trkpt><trkpt lat="44.3612167" lon="11.009275"><ele>600.0</ele><time>2026-04-25T11:04:01.393Z</time></trkpt><trkpt lat="44.3612533" lon="11.0092017"><ele>600.0</ele><time>2026-04-25T11:04:02.396Z</time></trkpt><trkpt lat="44.3613367" lon="11.0090967"><ele>596.3333333333334</ele><time>2026-04-25T11:04:04.393Z</time></trkpt><trkpt lat="44.3614217" lon="11.0091133"><ele>592.6666666666666</ele><time>2026-04-25T11:04:06.392Z</time></trkpt><trkpt lat="44.3615033" lon="11.009235"><ele>589.0</ele><time>2026-04-25T11:04:08.393Z</time></trkpt><trkpt lat="44.3615383" lon="11.0093233"><ele>585.3333333333333</ele><time>2026-04-25T11:04:09.393Z</time></trkpt><trkpt lat="44.3615767" lon="11.0094167"><ele>581.6666666666666</ele><time>2026-04-25T11:04:10.391Z</time></trkpt><trkpt lat="44.361615" lon="11.0094967"><ele>578.0</ele><time>2026-04-25T11:04:11.391Z</time></trkpt><trkpt lat="44.3616533" lon="11.0095667"><ele>577.5</ele><time>2026-04-25T11:04:12.392Z</time></trkpt><trkpt lat="44.3616967" lon="11.009635"><ele>577.0</ele><time>2026-04-25T11:04:13.393Z</time></trkpt><trkpt lat="44.3617367" lon="11.0097117"><ele>576.5</ele><time>2026-04-25T11:04:14.392Z</time></trkpt><trkpt lat="44.3618067" lon="11.0098483"><ele>576.0</ele><time>2026-04-25T11:04:16.393Z</time></trkpt><trkpt lat="44.36187" lon="11.0099133"><ele>575.5</ele><time>2026-04-25T11:04:18.395Z</time></trkpt><trkpt lat="44.36195" lon="11.00992"><ele>575.0</ele><time>2026-04-25T11:04:20.396Z</time></trkpt><trkpt lat="44.3620067" lon="11.00982"><ele>575.0</ele><time>2026-04-25T11:04:23.394Z</time></trkpt><trkpt lat="44.3619967" lon="11.0096667"><ele>575.0</ele><time>2026-04-25T11:04:25.394Z</time></trkpt><trkpt lat="44.36205" lon="11.009515"><ele>575.0</ele><time>2026-04-25T11:04:27.392Z</time></trkpt><trkpt lat="44.3621" lon="11.0094583"><ele>575.0</ele><time>2026-04-25T11:04:28.393Z</time></trkpt><trkpt lat="44.3621783" lon="11.0093883"><ele>575.0</ele><time>2026-04-25T11:04:30.394Z</time></trkpt><trkpt lat="44.3622167" lon="11.00931"><ele>571.3333333333333</ele><time>2026-04-25T11:04:32.397Z</time></trkpt><trkpt lat="44.36221" lon="11.0092033"><ele>567.6666666666666</ele><time>2026-04-25T11:04:34.392Z</time></trkpt><trkpt lat="44.3622" lon="11.0090517"><ele>564.0</ele><time>2026-04-25T11:04:36.394Z</time></trkpt><trkpt lat="44.362205" lon="11.0089567"><ele>560.3333333333334</ele><time>2026-04-25T11:04:37.394Z</time></trkpt><trkpt lat="44.3622033" lon="11.0088667"><ele>556.6666666666667</ele><time>2026-04-25T11:04:38.395Z</time></trkpt><trkpt lat="44.362215" lon="11.0087067"><ele>553.0</ele><time>2026-04-25T11:04:40.395Z</time></trkpt><trkpt lat="44.3622817" lon="11.008575"><ele>553.0</ele><time>2026-04-25T11:04:42.392Z</time></trkpt><trkpt lat="44.3623217" lon="11.0085017"><ele>553.0</ele><time>2026-04-25T11:04:43.395Z</time></trkpt><trkpt lat="44.3623667" lon="11.0083433"><ele>553.0</ele><time>2026-04-25T11:04:45.394Z</time></trkpt><trkpt lat="44.3624067" lon="11.008195"><ele>553.0</ele><time>2026-04-25T11:04:47.392Z</time></trkpt><trkpt lat="44.3624667" lon="11.00806"><ele>553.0</ele><time>2026-04-25T11:04:49.391Z</time></trkpt><trkpt lat="44.3625433" lon="11.007945"><ele>554.6</ele><time>2026-04-25T11:04:51.393Z</time></trkpt><trkpt lat="44.362615" lon="11.0078567"><ele>556.1999999999999</ele><time>2026-04-25T11:04:53.394Z</time></trkpt><trkpt lat="44.3627017" lon="11.0077933"><ele>557.8</ele><time>2026-04-25T11:04:55.392Z</time></trkpt><trkpt lat="44.3627983" lon="11.0077267"><ele>559.4</ele><time>2026-04-25T11:04:57.393Z</time></trkpt><trkpt lat="44.3628883" lon="11.00766"><ele>561.0</ele><time>2026-04-25T11:04:59.394Z</time></trkpt><trkpt lat="44.3629683" lon="11.0075783"><ele>558.8333333333334</ele><time>2026-04-25T11:05:01.393Z</time></trkpt><trkpt lat="44.363035" lon="11.0075033"><ele>556.6666666666666</ele><time>2026-04-25T11:05:03.394Z</time></trkpt><trkpt lat="44.3630917" lon="11.0074633"><ele>554.5</ele><time>2026-04-25T11:05:06.393Z</time></trkpt><trkpt lat="44.3631617" lon="11.0074217"><ele>552.3333333333333</ele><time>2026-04-25T11:05:09.392Z</time></trkpt><trkpt lat="44.3632533" lon="11.0073883"><ele>550.1666666666666</ele><time>2026-04-25T11:05:12.392Z</time></trkpt><trkpt lat="44.3633433" lon="11.0073633"><ele>548.0</ele><time>2026-04-25T11:05:14.395Z</time></trkpt><trkpt lat="44.3634283" lon="11.0073467"><ele>548.0</ele><time>2026-04-25T11:05:16.392Z</time></trkpt><trkpt lat="44.3635033" lon="11.007315"><ele>548.0</ele><time>2026-04-25T11:05:18.393Z</time></trkpt><trkpt lat="44.36358" lon="11.0072867"><ele>548.0</ele><time>2026-04-25T11:05:20.394Z</time></trkpt><trkpt lat="44.3636483" lon="11.0072683"><ele>548.0</ele><time>2026-04-25T11:05:22.394Z</time></trkpt><trkpt lat="44.36371" lon="11.0072883"><ele>548.0</ele><time>2026-04-25T11:05:25.392Z</time></trkpt><trkpt lat="44.3637983" lon="11.0072817"><ele>548.0</ele><time>2026-04-25T11:05:28.393Z</time></trkpt><trkpt lat="44.3638817" lon="11.00725"><ele>544.5</ele><time>2026-04-25T11:05:30.387Z</time></trkpt><trkpt lat="44.363955" lon="11.0071967"><ele>541.0</ele><time>2026-04-25T11:05:32.391Z</time></trkpt><trkpt lat="44.364" lon="11.0071283"><ele>537.5</ele><time>2026-04-25T11:05:34.393Z</time></trkpt><trkpt lat="44.3640483" lon="11.0070283"><ele>534.0</ele><time>2026-04-25T11:05:37.399Z</time></trkpt><trkpt lat="44.3641333" lon="11.007045"><ele>530.5</ele><time>2026-04-25T11:05:40.395Z</time></trkpt><trkpt lat="44.364165" lon="11.0071683"><ele>527.0</ele><time>2026-04-25T11:05:43.393Z</time></trkpt><trkpt lat="44.3642483" lon="11.007185"><ele>527.0</ele><time>2026-04-25T11:05:46.394Z</time></trkpt><trkpt lat="44.3643133" lon="11.0071017"><ele>527.0</ele><time>2026-04-25T11:05:48.394Z</time></trkpt><trkpt lat="44.3643733" lon="11.00706"><ele>527.0</ele><time>2026-04-25T11:05:50.395Z</time></trkpt><trkpt lat="44.3644033" lon="11.0071433"><ele>527.0</ele><time>2026-04-25T11:05:53.394Z</time></trkpt><trkpt lat="44.364415" lon="11.0072583"><ele>527.0</ele><time>2026-04-25T11:05:55.396Z</time></trkpt><trkpt lat="44.3644817" lon="11.0073333"><ele>527.0</ele><time>2026-04-25T11:05:57.395Z</time></trkpt><trkpt lat="44.3645483" lon="11.0073567"><ele>527.0</ele><time>2026-04-25T11:06:00.394Z</time></trkpt><trkpt lat="44.3646533" lon="11.0073867"><ele>527.0</ele><time>2026-04-25T11:06:03.395Z</time></trkpt><trkpt lat="44.3647433" lon="11.007445"><ele>527.0</ele><time>2026-04-25T11:06:05.394Z</time></trkpt><trkpt lat="44.3648533" lon="11.007495"><ele>527.0</ele><time>2026-04-25T11:06:07.394Z</time></trkpt><trkpt lat="44.36492" lon="11.007505"><ele>527.0</ele><time>2026-04-25T11:06:08.396Z</time></trkpt><trkpt lat="44.364995" lon="11.0075083"><ele>529.0</ele><time>2026-04-25T11:06:09.394Z</time></trkpt><trkpt lat="44.36507" lon="11.0075067"><ele>531.0</ele><time>2026-04-25T11:06:10.395Z</time></trkpt><trkpt lat="44.3651467" lon="11.0074933"><ele>533.0</ele><time>2026-04-25T11:06:11.395Z</time></trkpt><trkpt lat="44.3652283" lon="11.0074767"><ele>535.0</ele><time>2026-04-25T11:06:12.394Z</time></trkpt><trkpt lat="44.365315" lon="11.0074617"><ele>537.0</ele><time>2026-04-25T11:06:13.393Z</time></trkpt><trkpt lat="44.3654133" lon="11.0074467"><ele>539.0</ele><time>2026-04-25T11:06:14.395Z</time></trkpt><trkpt lat="44.3655033" lon="11.007425"><ele>543.1666666666666</ele><time>2026-04-25T11:06:15.394Z</time></trkpt><trkpt lat="44.3655817" lon="11.007405"><ele>547.3333333333333</ele><time>2026-04-25T11:06:16.394Z</time></trkpt><trkpt lat="44.365655" lon="11.0073933"><ele>551.5</ele><time>2026-04-25T11:06:17.392Z</time></trkpt><trkpt lat="44.3657267" lon="11.0073833"><ele>555.6666666666666</ele><time>2026-04-25T11:06:18.393Z</time></trkpt><trkpt lat="44.3658017" lon="11.0073583"><ele>559.8333333333334</ele><time>2026-04-25T11:06:19.394Z</time></trkpt><trkpt lat="44.365885" lon="11.0073317"><ele>564.0</ele><time>2026-04-25T11:06:20.395Z</time></trkpt><trkpt lat="44.3659717" lon="11.0073133"><ele>564.0</ele><time>2026-04-25T11:06:21.393Z</time></trkpt><trkpt lat="44.366055" lon="11.0073083"><ele>564.0</ele><time>2026-04-25T11:06:22.392Z</time></trkpt><trkpt lat="44.3661417" lon="11.007305"><ele>564.0</ele><time>2026-04-25T11:06:23.394Z</time></trkpt><trkpt lat="44.366235" lon="11.0072983"><ele>564.0</ele><time>2026-04-25T11:06:24.393Z</time></trkpt><trkpt lat="44.3663267" lon="11.0073033"><ele>564.0</ele><time>2026-04-25T11:06:25.394Z</time></trkpt><trkpt lat="44.36641" lon="11.00732"><ele>564.0</ele><time>2026-04-25T11:06:26.395Z</time></trkpt><trkpt lat="44.3664883" lon="11.0073483"><ele>564.1666666666666</ele><time>2026-04-25T11:06:27.392Z</time></trkpt><trkpt lat="44.366565" lon="11.007375"><ele>564.3333333333334</ele><time>2026-04-25T11:06:28.393Z</time></trkpt><trkpt lat="44.366635" lon="11.007395"><ele>564.5</ele><time>2026-04-25T11:06:29.393Z</time></trkpt><trkpt lat="44.3666983" lon="11.0074283"><ele>564.6666666666667</ele><time>2026-04-25T11:06:30.394Z</time></trkpt><trkpt lat="44.36676" lon="11.0074833"><ele>564.8333333333334</ele><time>2026-04-25T11:06:31.393Z</time></trkpt><trkpt lat="44.3668217" lon="11.00757"><ele>565.0</ele><time>2026-04-25T11:06:32.394Z</time></trkpt><trkpt lat="44.3668733" lon="11.0076833"><ele>565.0</ele><time>2026-04-25T11:06:33.394Z</time></trkpt><trkpt lat="44.36692" lon="11.0078017"><ele>565.0</ele><time>2026-04-25T11:06:34.393Z</time></trkpt><trkpt lat="44.3669633" lon="11.0079183"><ele>565.0</ele><time>2026-04-25T11:06:35.393Z</time></trkpt><trkpt lat="44.367015" lon="11.0080383"><ele>565.0</ele><time>2026-04-25T11:06:36.395Z</time></trkpt><trkpt lat="44.3670783" lon="11.0081617"><ele>565.0</ele><time>2026-04-25T11:06:37.394Z</time></trkpt><trkpt lat="44.36714" lon="11.008285"><ele>566.8</ele><time>2026-04-25T11:06:38.395Z</time></trkpt><trkpt lat="44.3671983" lon="11.0084033"><ele>568.6</ele><time>2026-04-25T11:06:39.396Z</time></trkpt><trkpt lat="44.367255" lon="11.00852"><ele>570.4</ele><time>2026-04-25T11:06:40.393Z</time></trkpt><trkpt lat="44.3673133" lon="11.00865"><ele>572.2</ele><time>2026-04-25T11:06:41.396Z</time></trkpt><trkpt lat="44.3673717" lon="11.00879"><ele>574.0</ele><time>2026-04-25T11:06:42.394Z</time></trkpt><trkpt lat="44.367435" lon="11.008935"><ele>574.0</ele><time>2026-04-25T11:06:43.395Z</time></trkpt><trkpt lat="44.367495" lon="11.009075"><ele>574.0</ele><time>2026-04-25T11:06:44.394Z</time></trkpt><trkpt lat="44.3675467" lon="11.00921"><ele>574.0</ele><time>2026-04-25T11:06:45.393Z</time></trkpt><trkpt lat="44.36759" lon="11.00933"><ele>574.0</ele><time>2026-04-25T11:06:46.392Z</time></trkpt><trkpt lat="44.3676267" lon="11.00943"><ele>574.0</ele><time>2026-04-25T11:06:47.392Z</time></trkpt><trkpt lat="44.3676667" lon="11.0095133"><ele>574.6666666666667</ele><time>2026-04-25T11:06:48.393Z</time></trkpt><trkpt lat="44.3677167" lon="11.0095833"><ele>575.3333333333334</ele><time>2026-04-25T11:06:49.393Z</time></trkpt><trkpt lat="44.3677833" lon="11.0096417"><ele>576.0</ele><time>2026-04-25T11:06:50.395Z</time></trkpt><trkpt lat="44.3678683" lon="11.009675"><ele>576.6666666666666</ele><time>2026-04-25T11:06:51.394Z</time></trkpt><trkpt lat="44.3679667" lon="11.0096917"><ele>577.3333333333333</ele><time>2026-04-25T11:06:52.394Z</time></trkpt><trkpt lat="44.36807" lon="11.0096867"><ele>578.0</ele><time>2026-04-25T11:06:53.394Z</time></trkpt><trkpt lat="44.3681767" lon="11.0096767"><ele>581.75</ele><time>2026-04-25T11:06:54.393Z</time></trkpt><trkpt lat="44.3682867" lon="11.0096783"><ele>585.5</ele><time>2026-04-25T11:06:55.393Z</time></trkpt><trkpt lat="44.3684017" lon="11.0096867"><ele>589.25</ele><time>2026-04-25T11:06:56.394Z</time></trkpt><trkpt lat="44.3685183" lon="11.0096833"><ele>593.0</ele><time>2026-04-25T11:06:57.393Z</time></trkpt><trkpt lat="44.368635" lon="11.00966"><ele>593.0</ele><time>2026-04-25T11:06:58.392Z</time></trkpt><trkpt lat="44.3687517" lon="11.00964"><ele>593.0</ele><time>2026-04-25T11:06:59.392Z</time></trkpt><trkpt lat="44.3688717" lon="11.0096417"><ele>593.0</ele><time>2026-04-25T11:07:00.393Z</time></trkpt><trkpt lat="44.368995" lon="11.00966"><ele>593.0</ele><time>2026-04-25T11:07:01.393Z</time></trkpt><trkpt lat="44.3691233" lon="11.0096733"><ele>597.0</ele><time>2026-04-25T11:07:02.394Z</time></trkpt><trkpt lat="44.3692567" lon="11.00967"><ele>601.0</ele><time>2026-04-25T11:07:03.392Z</time></trkpt><trkpt lat="44.3693867" lon="11.0096617"><ele>605.0</ele><time>2026-04-25T11:07:04.393Z</time></trkpt><trkpt lat="44.369515" lon="11.0096567"><ele>609.0</ele><time>2026-04-25T11:07:05.394Z</time></trkpt><trkpt lat="44.3696367" lon="11.0096517"><ele>613.0</ele><time>2026-04-25T11:07:06.394Z</time></trkpt><trkpt lat="44.3697517" lon="11.0096367"><ele>617.0</ele><time>2026-04-25T11:07:07.393Z</time></trkpt><trkpt lat="44.3698617" lon="11.0096067"><ele>621.0</ele><time>2026-04-25T11:07:08.394Z</time></trkpt><trkpt lat="44.36997" lon="11.0095583"><ele>625.0</ele><time>2026-04-25T11:07:09.394Z</time></trkpt><trkpt lat="44.3700683" lon="11.009505"><ele>629.0</ele><time>2026-04-25T11:07:10.393Z</time></trkpt><trkpt lat="44.3701583" lon="11.0094567"><ele>629.0</ele><time>2026-04-25T11:07:11.395Z</time></trkpt><trkpt lat="44.37025" lon="11.0094167"><ele>629.0</ele><time>2026-04-25T11:07:12.395Z</time></trkpt><trkpt lat="44.370335" lon="11.0094"><ele>629.0</ele><time>2026-04-25T11:07:13.393Z</time></trkpt><trkpt lat="44.3704183" lon="11.0093917"><ele>629.0</ele><time>2026-04-25T11:07:14.395Z</time></trkpt><trkpt lat="44.3705067" lon="11.0093933"><ele>629.0</ele><time>2026-04-25T11:07:15.391Z</time></trkpt><trkpt lat="44.37059" lon="11.009405"><ele>629.0</ele><time>2026-04-25T11:07:16.392Z</time></trkpt><trkpt lat="44.3706733" lon="11.00942"><ele>632.2</ele><time>2026-04-25T11:07:17.395Z</time></trkpt><trkpt lat="44.3707583" lon="11.0094483"><ele>635.4</ele><time>2026-04-25T11:07:18.393Z</time></trkpt><trkpt lat="44.3708433" lon="11.0094833"><ele>638.6</ele><time>2026-04-25T11:07:19.392Z</time></trkpt><trkpt lat="44.370935" lon="11.009525"><ele>641.8</ele><time>2026-04-25T11:07:20.396Z</time></trkpt><trkpt lat="44.3710267" lon="11.009565"><ele>645.0</ele><time>2026-04-25T11:07:21.391Z</time></trkpt><trkpt lat="44.3711217" lon="11.0095983"><ele>645.0</ele><time>2026-04-25T11:07:22.393Z</time></trkpt><trkpt lat="44.3712067" lon="11.009625"><ele>645.0</ele><time>2026-04-25T11:07:23.391Z</time></trkpt><trkpt lat="44.3712717" lon="11.0096467"><ele>645.0</ele><time>2026-04-25T11:07:24.393Z</time></trkpt><trkpt lat="44.3713317" lon="11.0096883"><ele>645.0</ele><time>2026-04-25T11:07:26.398Z</time></trkpt><trkpt lat="44.3713417" lon="11.0098067"><ele>645.0</ele><time>2026-04-25T11:07:40.394Z</time></trkpt><trkpt lat="44.3713583" lon="11.01"><ele>645.0</ele><time>2026-04-25T11:07:42.392Z</time></trkpt><trkpt lat="44.3713717" lon="11.01012"><ele>645.0</ele><time>2026-04-25T11:07:43.391Z</time></trkpt><trkpt lat="44.3713767" lon="11.0102417"><ele>645.0</ele><time>2026-04-25T11:07:44.393Z</time></trkpt><trkpt lat="44.37137" lon="11.0103583"><ele>645.0</ele><time>2026-04-25T11:07:45.393Z</time></trkpt><trkpt lat="44.3713533" lon="11.01047"><ele>645.0</ele><time>2026-04-25T11:07:46.395Z</time></trkpt><trkpt lat="44.3713417" lon="11.0105783"><ele>645.0</ele><time>2026-04-25T11:07:47.393Z</time></trkpt><trkpt lat="44.371345" lon="11.01069"><ele>645.0</ele><time>2026-04-25T11:07:48.391Z</time></trkpt><trkpt lat="44.3713633" lon="11.0108083"><ele>647.5</ele><time>2026-04-25T11:07:49.392Z</time></trkpt><trkpt lat="44.3713917" lon="11.0109233"><ele>650.0</ele><time>2026-04-25T11:07:50.394Z</time></trkpt><trkpt lat="44.3714183" lon="11.01103"><ele>652.5</ele><time>2026-04-25T11:07:51.394Z</time></trkpt><trkpt lat="44.3714367" lon="11.011135"><ele>655.0</ele><time>2026-04-25T11:07:52.393Z</time></trkpt><trkpt lat="44.37144" lon="11.0112417"><ele>657.5</ele><time>2026-04-25T11:07:53.393Z</time></trkpt><trkpt lat="44.3714283" lon="11.0113617"><ele>660.0</ele><time>2026-04-25T11:07:54.392Z</time></trkpt><trkpt lat="44.3714017" lon="11.011505"><ele>660.0</ele><time>2026-04-25T11:07:55.394Z</time></trkpt><trkpt lat="44.3713783" lon="11.0116533"><ele>660.0</ele><time>2026-04-25T11:07:56.394Z</time></trkpt><trkpt lat="44.3713433" lon="11.0117967"><ele>660.0</ele><time>2026-04-25T11:07:57.392Z</time></trkpt><trkpt lat="44.3713" lon="11.0119467"><ele>660.0</ele><time>2026-04-25T11:07:58.392Z</time></trkpt><trkpt lat="44.3712633" lon="11.0120983"><ele>660.0</ele><time>2026-04-25T11:07:59.393Z</time></trkpt><trkpt lat="44.371235" lon="11.0122467"><ele>655.2</ele><time>2026-04-25T11:08:00.393Z</time></trkpt><trkpt lat="44.3712133" lon="11.0123933"><ele>650.4</ele><time>2026-04-25T11:08:01.394Z</time></trkpt><trkpt lat="44.3712" lon="11.012545"><ele>645.6</ele><time>2026-04-25T11:08:02.395Z</time></trkpt><trkpt lat="44.3712" lon="11.0127"><ele>640.8</ele><time>2026-04-25T11:08:03.394Z</time></trkpt><trkpt lat="44.3712067" lon="11.0128633"><ele>636.0</ele><time>2026-04-25T11:08:04.393Z</time></trkpt><trkpt lat="44.3712133" lon="11.0130283"><ele>635.75</ele><time>2026-04-25T11:08:05.394Z</time></trkpt><trkpt lat="44.3712117" lon="11.0131917"><ele>635.5</ele><time>2026-04-25T11:08:06.393Z</time></trkpt><trkpt lat="44.3712117" lon="11.0133583"><ele>635.25</ele><time>2026-04-25T11:08:07.394Z</time></trkpt><trkpt lat="44.3712067" lon="11.0135183"><ele>635.0</ele><time>2026-04-25T11:08:08.394Z</time></trkpt><trkpt lat="44.3711983" lon="11.013675"><ele>634.0</ele><time>2026-04-25T11:08:09.392Z</time></trkpt><trkpt lat="44.37119" lon="11.01382"><ele>633.0</ele><time>2026-04-25T11:08:10.391Z</time></trkpt><trkpt lat="44.37116" lon="11.0139533"><ele>632.0</ele><time>2026-04-25T11:08:11.392Z</time></trkpt><trkpt lat="44.3711017" lon="11.0140917"><ele>631.0</ele><time>2026-04-25T11:08:12.388Z</time></trkpt><trkpt lat="44.3710283" lon="11.0142567"><ele>630.5</ele><time>2026-04-25T11:08:13.394Z</time></trkpt><trkpt lat="44.37095" lon="11.0144383"><ele>630.0</ele><time>2026-04-25T11:08:14.394Z</time></trkpt><trkpt lat="44.370875" lon="11.0146217"><ele>629.5</ele><time>2026-04-25T11:08:15.392Z</time></trkpt><trkpt lat="44.370805" lon="11.014785"><ele>629.0</ele><time>2026-04-25T11:08:16.393Z</time></trkpt><trkpt lat="44.3707433" lon="11.0149317"><ele>627.6</ele><time>2026-04-25T11:08:17.394Z</time></trkpt><trkpt lat="44.3706917" lon="11.015055"><ele>626.2</ele><time>2026-04-25T11:08:18.392Z</time></trkpt><trkpt lat="44.37065" lon="11.015165"><ele>624.8000000000001</ele><time>2026-04-25T11:08:19.393Z</time></trkpt><trkpt lat="44.3706133" lon="11.0152567"><ele>623.4</ele><time>2026-04-25T11:08:20.393Z</time></trkpt><trkpt lat="44.3705383" lon="11.0153933"><ele>622.0</ele><time>2026-04-25T11:08:22.392Z</time></trkpt><trkpt lat="44.370475" lon="11.01545"><ele>622.0</ele><time>2026-04-25T11:08:23.395Z</time></trkpt><trkpt lat="44.3703967" lon="11.0154983"><ele>622.0</ele><time>2026-04-25T11:08:24.393Z</time></trkpt><trkpt lat="44.3703183" lon="11.0155433"><ele>622.0</ele><time>2026-04-25T11:08:25.393Z</time></trkpt><trkpt lat="44.370245" lon="11.0156"><ele>622.0</ele><time>2026-04-25T11:08:26.39Z</time></trkpt><trkpt lat="44.3701783" lon="11.0156717"><ele>622.0</ele><time>2026-04-25T11:08:27.392Z</time></trkpt><trkpt lat="44.370125" lon="11.0157767"><ele>622.0</ele><time>2026-04-25T11:08:28.393Z</time></trkpt><trkpt lat="44.370075" lon="11.0158917"><ele>623.3333333333334</ele><time>2026-04-25T11:08:29.395Z</time></trkpt><trkpt lat="44.3700217" lon="11.016"><ele>624.6666666666667</ele><time>2026-04-25T11:08:30.393Z</time></trkpt><trkpt lat="44.3699683" lon="11.0160933"><ele>626.0</ele><time>2026-04-25T11:08:31.389Z</time></trkpt><trkpt lat="44.3699133" lon="11.01617"><ele>627.3333333333334</ele><time>2026-04-25T11:08:32.393Z</time></trkpt><trkpt lat="44.3698667" lon="11.01623"><ele>628.6666666666666</ele><time>2026-04-25T11:08:33.394Z</time></trkpt><trkpt lat="44.3698" lon="11.0163133"><ele>630.0</ele><time>2026-04-25T11:08:35.394Z</time></trkpt><trkpt lat="44.369775" lon="11.0164133"><ele>630.0</ele><time>2026-04-25T11:08:38.396Z</time></trkpt><trkpt lat="44.36981" lon="11.0165083"><ele>630.0</ele><time>2026-04-25T11:08:40.392Z</time></trkpt><trkpt lat="44.36991" lon="11.0166133"><ele>630.0</ele><time>2026-04-25T11:08:42.392Z</time></trkpt><trkpt lat="44.3699717" lon="11.016675"><ele>630.0</ele><time>2026-04-25T11:08:43.391Z</time></trkpt><trkpt lat="44.3700333" lon="11.01674"><ele>630.0</ele><time>2026-04-25T11:08:44.395Z</time></trkpt><trkpt lat="44.3701017" lon="11.016795"><ele>630.0</ele><time>2026-04-25T11:08:45.393Z</time></trkpt><trkpt lat="44.3701667" lon="11.0168383"><ele>630.6666666666666</ele><time>2026-04-25T11:08:46.394Z</time></trkpt><trkpt lat="44.3702917" lon="11.016875"><ele>631.3333333333334</ele><time>2026-04-25T11:08:48.396Z</time></trkpt><trkpt lat="44.3703667" lon="11.0168833"><ele>632.0</ele><time>2026-04-25T11:08:49.395Z</time></trkpt><trkpt lat="44.3704433" lon="11.0169017"><ele>632.6666666666667</ele><time>2026-04-25T11:08:50.395Z</time></trkpt><trkpt lat="44.3705267" lon="11.0169267"><ele>633.3333333333334</ele><time>2026-04-25T11:08:51.392Z</time></trkpt><trkpt lat="44.3705933" lon="11.0169683"><ele>634.0</ele><time>2026-04-25T11:08:52.392Z</time></trkpt><trkpt lat="44.3706583" lon="11.0170283"><ele>637.6</ele><time>2026-04-25T11:08:53.39Z</time></trkpt><trkpt lat="44.3707367" lon="11.0170867"><ele>641.2</ele><time>2026-04-25T11:08:54.393Z</time></trkpt><trkpt lat="44.3708133" lon="11.0171467"><ele>644.8000000000001</ele><time>2026-04-25T11:08:55.393Z</time></trkpt><trkpt lat="44.370885" lon="11.017195"><ele>648.4</ele><time>2026-04-25T11:08:56.395Z</time></trkpt><trkpt lat="44.370955" lon="11.0172383"><ele>652.0</ele><time>2026-04-25T11:08:57.394Z</time></trkpt><trkpt lat="44.371075" lon="11.0172233"><ele>652.0</ele><time>2026-04-25T11:08:59.394Z</time></trkpt><trkpt lat="44.3711567" lon="11.0171633"><ele>652.0</ele><time>2026-04-25T11:09:00.394Z</time></trkpt><trkpt lat="44.3712383" lon="11.0170833"><ele>652.0</ele><time>2026-04-25T11:09:01.394Z</time></trkpt><trkpt lat="44.3713117" lon="11.016995"><ele>652.0</ele><time>2026-04-25T11:09:02.394Z</time></trkpt><trkpt lat="44.3713867" lon="11.0168967"><ele>652.0</ele><time>2026-04-25T11:09:03.392Z</time></trkpt><trkpt lat="44.3714667" lon="11.016785"><ele>654.4000000000001</ele><time>2026-04-25T11:09:04.393Z</time></trkpt><trkpt lat="44.3715417" lon="11.0166717"><ele>656.8000000000001</ele><time>2026-04-25T11:09:05.393Z</time></trkpt><trkpt lat="44.37163" lon="11.016565"><ele>659.2</ele><time>2026-04-25T11:09:06.392Z</time></trkpt><trkpt lat="44.371715" lon="11.01646"><ele>661.6</ele><time>2026-04-25T11:09:07.392Z</time></trkpt><trkpt lat="44.371795" lon="11.0163683"><ele>664.0</ele><time>2026-04-25T11:09:08.394Z</time></trkpt><trkpt lat="44.3718733" lon="11.0162983"><ele>664.0</ele><time>2026-04-25T11:09:09.393Z</time></trkpt><trkpt lat="44.3719467" lon="11.01625"><ele>664.0</ele><time>2026-04-25T11:09:10.392Z</time></trkpt><trkpt lat="44.372025" lon="11.016225"><ele>664.0</ele><time>2026-04-25T11:09:11.392Z</time></trkpt><trkpt lat="44.3721183" lon="11.0162317"><ele>664.0</ele><time>2026-04-25T11:09:12.394Z</time></trkpt><trkpt lat="44.3722" lon="11.0162517"><ele>664.0</ele><time>2026-04-25T11:09:13.392Z</time></trkpt><trkpt lat="44.3722783" lon="11.016255"><ele>664.0</ele><time>2026-04-25T11:09:14.395Z</time></trkpt><trkpt lat="44.3723567" lon="11.0162167"><ele>663.8000000000001</ele><time>2026-04-25T11:09:15.393Z</time></trkpt><trkpt lat="44.3724367" lon="11.0161233"><ele>663.6</ele><time>2026-04-25T11:09:16.393Z</time></trkpt><trkpt lat="44.3725117" lon="11.016"><ele>663.4</ele><time>2026-04-25T11:09:17.392Z</time></trkpt><trkpt lat="44.372575" lon="11.0158933"><ele>663.2</ele><time>2026-04-25T11:09:18.392Z</time></trkpt><trkpt lat="44.3726317" lon="11.0158083"><ele>663.0</ele><time>2026-04-25T11:09:19.391Z</time></trkpt><trkpt lat="44.3726917" lon="11.015755"><ele>663.0</ele><time>2026-04-25T11:09:20.395Z</time></trkpt><trkpt lat="44.37277" lon="11.0157433"><ele>663.0</ele><time>2026-04-25T11:09:21.392Z</time></trkpt><trkpt lat="44.3728583" lon="11.0157717"><ele>663.0</ele><time>2026-04-25T11:09:22.393Z</time></trkpt><trkpt lat="44.372955" lon="11.0158033"><ele>663.0</ele><time>2026-04-25T11:09:23.393Z</time></trkpt><trkpt lat="44.3730533" lon="11.0158533"><ele>663.0</ele><time>2026-04-25T11:09:24.394Z</time></trkpt><trkpt lat="44.37315" lon="11.015905"><ele>667.5</ele><time>2026-04-25T11:09:25.392Z</time></trkpt><trkpt lat="44.373245" lon="11.0159583"><ele>672.0</ele><time>2026-04-25T11:09:26.394Z</time></trkpt><trkpt lat="44.37334" lon="11.016005"><ele>676.5</ele><time>2026-04-25T11:09:27.392Z</time></trkpt><trkpt lat="44.3734217" lon="11.016045"><ele>681.0</ele><time>2026-04-25T11:09:28.392Z</time></trkpt><trkpt lat="44.373495" lon="11.016075"><ele>685.5</ele><time>2026-04-25T11:09:29.392Z</time></trkpt><trkpt lat="44.3735717" lon="11.01611"><ele>690.0</ele><time>2026-04-25T11:09:30.391Z</time></trkpt><trkpt lat="44.3736517" lon="11.0161583"><ele>690.0</ele><time>2026-04-25T11:09:31.392Z</time></trkpt><trkpt lat="44.3737233" lon="11.016225"><ele>690.0</ele><time>2026-04-25T11:09:32.394Z</time></trkpt><trkpt lat="44.3737933" lon="11.016295"><ele>690.0</ele><time>2026-04-25T11:09:33.393Z</time></trkpt><trkpt lat="44.3738733" lon="11.01634"><ele>690.0</ele><time>2026-04-25T11:09:34.392Z</time></trkpt><trkpt lat="44.373955" lon="11.016345"><ele>690.0</ele><time>2026-04-25T11:09:35.394Z</time></trkpt><trkpt lat="44.3740317" lon="11.0163183"><ele>690.0</ele><time>2026-04-25T11:09:36.394Z</time></trkpt><trkpt lat="44.3741017" lon="11.0162533"><ele>692.1666666666666</ele><time>2026-04-25T11:09:37.397Z</time></trkpt><trkpt lat="44.374175" lon="11.0161917"><ele>694.3333333333334</ele><time>2026-04-25T11:09:38.395Z</time></trkpt><trkpt lat="44.3742567" lon="11.0161567"><ele>696.5</ele><time>2026-04-25T11:09:39.393Z</time></trkpt><trkpt lat="44.3743383" lon="11.016155"><ele>698.6666666666667</ele><time>2026-04-25T11:09:40.393Z</time></trkpt><trkpt lat="44.3744117" lon="11.01616"><ele>700.8333333333334</ele><time>2026-04-25T11:09:41.392Z</time></trkpt><trkpt lat="44.3745033" lon="11.016175"><ele>703.0</ele><time>2026-04-25T11:09:43.393Z</time></trkpt><trkpt lat="44.37448" lon="11.0163267"><ele>703.0</ele><time>2026-04-25T11:09:46.393Z</time></trkpt><trkpt lat="44.3744417" lon="11.016425"><ele>703.0</ele><time>2026-04-25T11:09:47.394Z</time></trkpt><trkpt lat="44.3744133" lon="11.016545"><ele>703.0</ele><time>2026-04-25T11:09:48.39Z</time></trkpt><trkpt lat="44.3744017" lon="11.0166683"><ele>703.0</ele><time>2026-04-25T11:09:49.391Z</time></trkpt><trkpt lat="44.374395" lon="11.01677"><ele>703.0</ele><time>2026-04-25T11:09:50.394Z</time></trkpt><trkpt lat="44.374395" lon="11.0169267"><ele>703.0</ele><time>2026-04-25T11:09:52.392Z</time></trkpt><trkpt lat="44.374415" lon="11.0170917"><ele>703.6666666666667</ele><time>2026-04-25T11:09:54.393Z</time></trkpt><trkpt lat="44.3744067" lon="11.0172167"><ele>704.3333333333334</ele><time>2026-04-25T11:09:56.393Z</time></trkpt><trkpt lat="44.3743667" lon="11.01732"><ele>705.0</ele><time>2026-04-25T11:09:59.395Z</time></trkpt><trkpt lat="44.374355" lon="11.0174333"><ele>705.6666666666666</ele><time>2026-04-25T11:10:10.394Z</time></trkpt><trkpt lat="44.37438" lon="11.017555"><ele>706.3333333333333</ele><time>2026-04-25T11:10:13.391Z</time></trkpt><trkpt lat="44.3744233" lon="11.01762"><ele>707.0</ele><time>2026-04-25T11:10:15.392Z</time></trkpt><trkpt lat="44.3744417" lon="11.0177533"><ele>708.1666666666666</ele><time>2026-04-25T11:10:17.392Z</time></trkpt><trkpt lat="44.37444" lon="11.01785"><ele>709.3333333333333</ele><time>2026-04-25T11:10:18.398Z</time></trkpt><trkpt lat="44.3744367" lon="11.0179567"><ele>710.5</ele><time>2026-04-25T11:10:19.394Z</time></trkpt><trkpt lat="44.3744317" lon="11.0180683"><ele>711.6666666666666</ele><time>2026-04-25T11:10:20.395Z</time></trkpt><trkpt lat="44.3744283" lon="11.0181867"><ele>712.8333333333334</ele><time>2026-04-25T11:10:21.393Z</time></trkpt><trkpt lat="44.3744183" lon="11.0183067"><ele>714.0</ele><time>2026-04-25T11:10:22.393Z</time></trkpt><trkpt lat="44.374415" lon="11.01843"><ele>715.4000000000001</ele><time>2026-04-25T11:10:23.393Z</time></trkpt><trkpt lat="44.3744017" lon="11.0185567"><ele>716.8</ele><time>2026-04-25T11:10:24.392Z</time></trkpt><trkpt lat="44.374385" lon="11.0186867"><ele>718.2</ele><time>2026-04-25T11:10:25.392Z</time></trkpt><trkpt lat="44.37436" lon="11.01882"><ele>719.5999999999999</ele><time>2026-04-25T11:10:26.394Z</time></trkpt><trkpt lat="44.3743317" lon="11.0189583"><ele>721.0</ele><time>2026-04-25T11:10:27.396Z</time></trkpt><trkpt lat="44.3742967" lon="11.0190883"><ele>723.0</ele><time>2026-04-25T11:10:28.395Z</time></trkpt><trkpt lat="44.3742617" lon="11.01921"><ele>725.0</ele><time>2026-04-25T11:10:29.393Z</time></trkpt><trkpt lat="44.3742367" lon="11.019335"><ele>727.0</ele><time>2026-04-25T11:10:30.392Z</time></trkpt><trkpt lat="44.374225" lon="11.0194617"><ele>729.0</ele><time>2026-04-25T11:10:31.393Z</time></trkpt><trkpt lat="44.374225" lon="11.0195933"><ele>731.0</ele><time>2026-04-25T11:10:32.395Z</time></trkpt><trkpt lat="44.37423" lon="11.01973"><ele>731.0</ele><time>2026-04-25T11:10:33.393Z</time></trkpt><trkpt lat="44.3742267" lon="11.019875"><ele>731.0</ele><time>2026-04-25T11:10:34.392Z</time></trkpt><trkpt lat="44.3742217" lon="11.02002"><ele>731.0</ele><time>2026-04-25T11:10:35.394Z</time></trkpt><trkpt lat="44.3742117" lon="11.0201617"><ele>731.0</ele><time>2026-04-25T11:10:36.393Z</time></trkpt><trkpt lat="44.374195" lon="11.0202983"><ele>731.0</ele><time>2026-04-25T11:10:37.393Z</time></trkpt><trkpt lat="44.3741733" lon="11.0204317"><ele>732.1666666666666</ele><time>2026-04-25T11:10:38.394Z</time></trkpt><trkpt lat="44.374145" lon="11.0205617"><ele>733.3333333333333</ele><time>2026-04-25T11:10:39.393Z</time></trkpt><trkpt lat="44.3741067" lon="11.0206783"><ele>734.5</ele><time>2026-04-25T11:10:40.394Z</time></trkpt><trkpt lat="44.3740583" lon="11.0207867"><ele>735.6666666666666</ele><time>2026-04-25T11:10:41.393Z</time></trkpt><trkpt lat="44.3739983" lon="11.02087"><ele>736.8333333333334</ele><time>2026-04-25T11:10:42.394Z</time></trkpt><trkpt lat="44.3739433" lon="11.020945"><ele>738.0</ele><time>2026-04-25T11:10:43.396Z</time></trkpt><trkpt lat="44.373905" lon="11.02103"><ele>737.8333333333334</ele><time>2026-04-25T11:10:44.395Z</time></trkpt><trkpt lat="44.3738767" lon="11.02113"><ele>737.6666666666666</ele><time>2026-04-25T11:10:45.393Z</time></trkpt><trkpt lat="44.3738567" lon="11.02124"><ele>737.5</ele><time>2026-04-25T11:10:46.393Z</time></trkpt><trkpt lat="44.3738517" lon="11.02136"><ele>737.3333333333333</ele><time>2026-04-25T11:10:47.394Z</time></trkpt><trkpt lat="44.3738633" lon="11.0214833"><ele>737.1666666666666</ele><time>2026-04-25T11:10:48.395Z</time></trkpt><trkpt lat="44.3738917" lon="11.021615"><ele>737.0</ele><time>2026-04-25T11:10:49.395Z</time></trkpt><trkpt lat="44.3739333" lon="11.02175"><ele>738.8</ele><time>2026-04-25T11:10:50.395Z</time></trkpt><trkpt lat="44.3739767" lon="11.0218933"><ele>740.6</ele><time>2026-04-25T11:10:51.394Z</time></trkpt><trkpt lat="44.3740067" lon="11.0220317"><ele>742.4</ele><time>2026-04-25T11:10:52.394Z</time></trkpt><trkpt lat="44.3740417" lon="11.0221567"><ele>744.1999999999999</ele><time>2026-04-25T11:10:53.394Z</time></trkpt><trkpt lat="44.3740767" lon="11.0222733"><ele>746.0</ele><time>2026-04-25T11:10:54.395Z</time></trkpt><trkpt lat="44.3741" lon="11.0224"><ele>746.8</ele><time>2026-04-25T11:10:55.395Z</time></trkpt><trkpt lat="44.3741233" lon="11.0225317"><ele>747.5999999999999</ele><time>2026-04-25T11:10:56.395Z</time></trkpt><trkpt lat="44.3741333" lon="11.0226583"><ele>748.4</ele><time>2026-04-25T11:10:57.394Z</time></trkpt><trkpt lat="44.3741367" lon="11.0227867"><ele>749.2</ele><time>2026-04-25T11:10:58.393Z</time></trkpt><trkpt lat="44.3741183" lon="11.0229233"><ele>750.0</ele><time>2026-04-25T11:10:59.392Z</time></trkpt><trkpt lat="44.3741083" lon="11.0230567"><ele>750.0</ele><time>2026-04-25T11:11:00.403Z</time></trkpt><trkpt lat="44.374085" lon="11.0231917"><ele>750.0</ele><time>2026-04-25T11:11:01.394Z</time></trkpt><trkpt lat="44.374085" lon="11.0233033"><ele>750.0</ele><time>2026-04-25T11:11:02.394Z</time></trkpt><trkpt lat="44.3740783" lon="11.0234117"><ele>750.0</ele><time>2026-04-25T11:11:03.394Z</time></trkpt><trkpt lat="44.3740167" lon="11.0235333"><ele>750.0</ele><time>2026-04-25T11:11:05.392Z</time></trkpt><trkpt lat="44.3739683" lon="11.0236333"><ele>749.4</ele><time>2026-04-25T11:11:07.393Z</time></trkpt><trkpt lat="44.3739167" lon="11.0237467"><ele>748.8</ele><time>2026-04-25T11:11:09.394Z</time></trkpt><trkpt lat="44.3738667" lon="11.0238533"><ele>748.2</ele><time>2026-04-25T11:11:11.393Z</time></trkpt><trkpt lat="44.373815" lon="11.02396"><ele>747.6</ele><time>2026-04-25T11:11:13.391Z</time></trkpt><trkpt lat="44.3737567" lon="11.0240867"><ele>747.0</ele><time>2026-04-25T11:11:15.392Z</time></trkpt><trkpt lat="44.373715" lon="11.0242517"><ele>743.6666666666666</ele><time>2026-04-25T11:11:17.394Z</time></trkpt><trkpt lat="44.373705" lon="11.0243417"><ele>740.3333333333334</ele><time>2026-04-25T11:11:18.394Z</time></trkpt><trkpt lat="44.3737067" lon="11.0244483"><ele>737.0</ele><time>2026-04-25T11:11:19.394Z</time></trkpt><trkpt lat="44.37372" lon="11.0245717"><ele>733.6666666666667</ele><time>2026-04-25T11:11:20.395Z</time></trkpt><trkpt lat="44.3737317" lon="11.0246883"><ele>730.3333333333334</ele><time>2026-04-25T11:11:21.396Z</time></trkpt><trkpt lat="44.3737417" lon="11.0247933"><ele>727.0</ele><time>2026-04-25T11:11:22.396Z</time></trkpt><trkpt lat="44.373745" lon="11.024895"><ele>725.5</ele><time>2026-04-25T11:11:23.396Z</time></trkpt><trkpt lat="44.37375" lon="11.0250033"><ele>724.0</ele><time>2026-04-25T11:11:24.393Z</time></trkpt><trkpt lat="44.3737517" lon="11.025125"><ele>722.5</ele><time>2026-04-25T11:11:25.393Z</time></trkpt><trkpt lat="44.3737583" lon="11.02525"><ele>721.0</ele><time>2026-04-25T11:11:26.395Z</time></trkpt><trkpt lat="44.37377" lon="11.0253617"><ele>719.5</ele><time>2026-04-25T11:11:27.394Z</time></trkpt><trkpt lat="44.3737983" lon="11.0255017"><ele>718.0</ele><time>2026-04-25T11:11:29.394Z</time></trkpt><trkpt lat="44.3738067" lon="11.0256167"><ele>718.0</ele><time>2026-04-25T11:11:31.394Z</time></trkpt><trkpt lat="44.37382" lon="11.02577"><ele>718.0</ele><time>2026-04-25T11:11:33.393Z</time></trkpt><trkpt lat="44.3738233" lon="11.0258617"><ele>718.0</ele><time>2026-04-25T11:11:34.395Z</time></trkpt><trkpt lat="44.3738067" lon="11.026035"><ele>718.0</ele><time>2026-04-25T11:11:36.396Z</time></trkpt><trkpt lat="44.3737967" lon="11.026125"><ele>718.0</ele><time>2026-04-25T11:11:37.393Z</time></trkpt><trkpt lat="44.3737967" lon="11.0262167"><ele>718.0</ele><time>2026-04-25T11:11:38.397Z</time></trkpt><trkpt lat="44.373805" lon="11.02631"><ele>716.8333333333334</ele><time>2026-04-25T11:11:39.394Z</time></trkpt><trkpt lat="44.373805" lon="11.0264083"><ele>715.6666666666667</ele><time>2026-04-25T11:11:40.392Z</time></trkpt><trkpt lat="44.3737967" lon="11.026515"><ele>714.5</ele><time>2026-04-25T11:11:41.393Z</time></trkpt><trkpt lat="44.3737783" lon="11.0266267"><ele>713.3333333333334</ele><time>2026-04-25T11:11:42.393Z</time></trkpt><trkpt lat="44.3737717" lon="11.02674"><ele>712.1666666666666</ele><time>2026-04-25T11:11:43.394Z</time></trkpt><trkpt lat="44.37377" lon="11.026845"><ele>711.0</ele><time>2026-04-25T11:11:44.395Z</time></trkpt><trkpt lat="44.3737683" lon="11.0269433"><ele>710.5</ele><time>2026-04-25T11:11:45.392Z</time></trkpt><trkpt lat="44.37376" lon="11.0271017"><ele>710.0</ele><time>2026-04-25T11:11:47.393Z</time></trkpt><trkpt lat="44.3737233" lon="11.0272367"><ele>709.5</ele><time>2026-04-25T11:11:49.395Z</time></trkpt><trkpt lat="44.3737" lon="11.02732"><ele>709.0</ele><time>2026-04-25T11:11:50.394Z</time></trkpt><trkpt lat="44.3736783" lon="11.02742"><ele>708.5</ele><time>2026-04-25T11:11:51.394Z</time></trkpt><trkpt lat="44.373655" lon="11.02753"><ele>708.0</ele><time>2026-04-25T11:11:52.393Z</time></trkpt><trkpt lat="44.37363" lon="11.02764"><ele>707.0</ele><time>2026-04-25T11:11:53.394Z</time></trkpt><trkpt lat="44.3736117" lon="11.0277583"><ele>706.0</ele><time>2026-04-25T11:11:54.393Z</time></trkpt><trkpt lat="44.3735917" lon="11.0278783"><ele>705.0</ele><time>2026-04-25T11:11:55.392Z</time></trkpt><trkpt lat="44.373575" lon="11.0280117"><ele>704.0</ele><time>2026-04-25T11:11:56.395Z</time></trkpt><trkpt lat="44.3735533" lon="11.0281617"><ele>703.0</ele><time>2026-04-25T11:11:57.393Z</time></trkpt><trkpt lat="44.3735383" lon="11.0283233"><ele>702.4</ele><time>2026-04-25T11:11:58.394Z</time></trkpt><trkpt lat="44.3735317" lon="11.0284917"><ele>701.8</ele><time>2026-04-25T11:11:59.394Z</time></trkpt><trkpt lat="44.3735333" lon="11.0286533"><ele>701.2</ele><time>2026-04-25T11:12:00.394Z</time></trkpt><trkpt lat="44.3735417" lon="11.028805"><ele>700.6</ele><time>2026-04-25T11:12:01.393Z</time></trkpt><trkpt lat="44.3735533" lon="11.0289483"><ele>700.0</ele><time>2026-04-25T11:12:02.394Z</time></trkpt><trkpt lat="44.3735633" lon="11.0290867"><ele>699.4</ele><time>2026-04-25T11:12:03.392Z</time></trkpt><trkpt lat="44.3735633" lon="11.02923"><ele>698.8</ele><time>2026-04-25T11:12:04.393Z</time></trkpt><trkpt lat="44.373545" lon="11.0293717"><ele>698.2</ele><time>2026-04-25T11:12:05.394Z</time></trkpt><trkpt lat="44.3735167" lon="11.0295033"><ele>697.6</ele><time>2026-04-25T11:12:06.395Z</time></trkpt><trkpt lat="44.37349" lon="11.0296183"><ele>697.0</ele><time>2026-04-25T11:12:07.395Z</time></trkpt><trkpt lat="44.3734733" lon="11.02972"><ele>697.0</ele><time>2026-04-25T11:12:08.395Z</time></trkpt><trkpt lat="44.3734733" lon="11.0298283"><ele>697.0</ele><time>2026-04-25T11:12:09.395Z</time></trkpt><trkpt lat="44.3734933" lon="11.0299467"><ele>697.0</ele><time>2026-04-25T11:12:10.395Z</time></trkpt><trkpt lat="44.373515" lon="11.0300667"><ele>697.0</ele><time>2026-04-25T11:12:11.395Z</time></trkpt><trkpt lat="44.3735433" lon="11.0302017"><ele>697.0</ele><time>2026-04-25T11:12:12.394Z</time></trkpt><trkpt lat="44.3735833" lon="11.030335"><ele>696.4000000000001</ele><time>2026-04-25T11:12:13.394Z</time></trkpt><trkpt lat="44.37363" lon="11.0304567"><ele>695.8000000000001</ele><time>2026-04-25T11:12:14.394Z</time></trkpt><trkpt lat="44.3736767" lon="11.0305817"><ele>695.2</ele><time>2026-04-25T11:12:15.392Z</time></trkpt><trkpt lat="44.373725" lon="11.0306983"><ele>694.6</ele><time>2026-04-25T11:12:16.394Z</time></trkpt><trkpt lat="44.373785" lon="11.0307967"><ele>694.0</ele><time>2026-04-25T11:12:17.394Z</time></trkpt><trkpt lat="44.3738517" lon="11.0308867"><ele>692.1666666666667</ele><time>2026-04-25T11:12:18.393Z</time></trkpt><trkpt lat="44.37391" lon="11.0309733"><ele>690.3333333333334</ele><time>2026-04-25T11:12:19.393Z</time></trkpt><trkpt lat="44.3739633" lon="11.0310533"><ele>688.5</ele><time>2026-04-25T11:12:20.395Z</time></trkpt><trkpt lat="44.37402" lon="11.0311333"><ele>686.6666666666666</ele><time>2026-04-25T11:12:21.394Z</time></trkpt><trkpt lat="44.37409" lon="11.0312117"><ele>684.8333333333333</ele><time>2026-04-25T11:12:22.393Z</time></trkpt><trkpt lat="44.3741833" lon="11.0312933"><ele>683.0</ele><time>2026-04-25T11:12:23.394Z</time></trkpt><trkpt lat="44.3742883" lon="11.03138"><ele>683.0</ele><time>2026-04-25T11:12:24.394Z</time></trkpt><trkpt lat="44.3743883" lon="11.0314683"><ele>683.0</ele><time>2026-04-25T11:12:25.391Z</time></trkpt><trkpt lat="44.3744817" lon="11.031545"><ele>683.0</ele><time>2026-04-25T11:12:26.393Z</time></trkpt><trkpt lat="44.37457" lon="11.0316267"><ele>683.0</ele><time>2026-04-25T11:12:27.391Z</time></trkpt><trkpt lat="44.3746517" lon="11.0317133"><ele>683.0</ele><time>2026-04-25T11:12:28.393Z</time></trkpt><trkpt lat="44.3747167" lon="11.031805"><ele>680.8</ele><time>2026-04-25T11:12:29.395Z</time></trkpt><trkpt lat="44.37477" lon="11.0319033"><ele>678.5999999999999</ele><time>2026-04-25T11:12:30.393Z</time></trkpt><trkpt lat="44.374805" lon="11.0320417"><ele>676.4000000000001</ele><time>2026-04-25T11:12:31.392Z</time></trkpt><trkpt lat="44.37483" lon="11.03218"><ele>674.2</ele><time>2026-04-25T11:12:32.398Z</time></trkpt><trkpt lat="44.3748533" lon="11.0323"><ele>672.0</ele><time>2026-04-25T11:12:33.394Z</time></trkpt><trkpt lat="44.3748817" lon="11.0324"><ele>672.4000000000001</ele><time>2026-04-25T11:12:34.393Z</time></trkpt><trkpt lat="44.3749217" lon="11.032485"><ele>672.8000000000001</ele><time>2026-04-25T11:12:35.395Z</time></trkpt><trkpt lat="44.3749667" lon="11.0325583"><ele>673.2</ele><time>2026-04-25T11:12:36.393Z</time></trkpt><trkpt lat="44.3750217" lon="11.032705"><ele>673.6</ele><time>2026-04-25T11:12:38.395Z</time></trkpt><trkpt lat="44.3750883" lon="11.0328467"><ele>674.0</ele><time>2026-04-25T11:12:40.393Z</time></trkpt><trkpt lat="44.3751367" lon="11.032925"><ele>674.0</ele><time>2026-04-25T11:12:41.392Z</time></trkpt><trkpt lat="44.3751817" lon="11.03302"><ele>674.0</ele><time>2026-04-25T11:12:42.393Z</time></trkpt><trkpt lat="44.3752183" lon="11.033115"><ele>674.0</ele><time>2026-04-25T11:12:43.391Z</time></trkpt><trkpt lat="44.3752617" lon="11.03321"><ele>674.0</ele><time>2026-04-25T11:12:44.394Z</time></trkpt><trkpt lat="44.3753133" lon="11.033305"><ele>674.0</ele><time>2026-04-25T11:12:45.393Z</time></trkpt><trkpt lat="44.3753583" lon="11.033415"><ele>674.0</ele><time>2026-04-25T11:12:46.393Z</time></trkpt><trkpt lat="44.3754" lon="11.03353"><ele>674.0</ele><time>2026-04-25T11:12:47.394Z</time></trkpt><trkpt lat="44.3754483" lon="11.033635"><ele>674.0</ele><time>2026-04-25T11:12:48.394Z</time></trkpt><trkpt lat="44.3755033" lon="11.033735"><ele>674.0</ele><time>2026-04-25T11:12:49.395Z</time></trkpt><trkpt lat="44.3755533" lon="11.0338433"><ele>674.0</ele><time>2026-04-25T11:12:50.396Z</time></trkpt><trkpt lat="44.3755967" lon="11.03395"><ele>674.0</ele><time>2026-04-25T11:12:51.393Z</time></trkpt><trkpt lat="44.3756333" lon="11.0340533"><ele>674.0</ele><time>2026-04-25T11:12:52.396Z</time></trkpt><trkpt lat="44.3756683" lon="11.0341583"><ele>673.0</ele><time>2026-04-25T11:12:53.397Z</time></trkpt><trkpt lat="44.3756967" lon="11.03426"><ele>672.0</ele><time>2026-04-25T11:12:54.396Z</time></trkpt><trkpt lat="44.3757267" lon="11.0343567"><ele>671.0</ele><time>2026-04-25T11:12:55.393Z</time></trkpt><trkpt lat="44.37576" lon="11.034445"><ele>670.0</ele><time>2026-04-25T11:12:56.393Z</time></trkpt><trkpt lat="44.375795" lon="11.034535"><ele>669.0</ele><time>2026-04-25T11:12:57.391Z</time></trkpt><trkpt lat="44.3758317" lon="11.0346283"><ele>668.0</ele><time>2026-04-25T11:12:58.393Z</time></trkpt><trkpt lat="44.3758667" lon="11.0347283"><ele>668.0</ele><time>2026-04-25T11:12:59.393Z</time></trkpt><trkpt lat="44.3759017" lon="11.0348333"><ele>668.0</ele><time>2026-04-25T11:13:00.394Z</time></trkpt><trkpt lat="44.3759367" lon="11.0349383"><ele>668.0</ele><time>2026-04-25T11:13:01.395Z</time></trkpt><trkpt lat="44.375975" lon="11.0350417"><ele>668.0</ele><time>2026-04-25T11:13:02.395Z</time></trkpt><trkpt lat="44.3760167" lon="11.0351433"><ele>668.0</ele><time>2026-04-25T11:13:03.392Z</time></trkpt><trkpt lat="44.3760583" lon="11.0352433"><ele>668.0</ele><time>2026-04-25T11:13:04.393Z</time></trkpt><trkpt lat="44.376095" lon="11.0353267"><ele>666.6666666666666</ele><time>2026-04-25T11:13:05.392Z</time></trkpt><trkpt lat="44.3761283" lon="11.0354017"><ele>665.3333333333333</ele><time>2026-04-25T11:13:06.393Z</time></trkpt><trkpt lat="44.3761667" lon="11.0354833"><ele>664.0</ele><time>2026-04-25T11:13:07.394Z</time></trkpt><trkpt lat="44.3762083" lon="11.0355667"><ele>662.6666666666666</ele><time>2026-04-25T11:13:08.395Z</time></trkpt><trkpt lat="44.3762483" lon="11.0356467"><ele>661.3333333333334</ele><time>2026-04-25T11:13:09.394Z</time></trkpt><trkpt lat="44.3762833" lon="11.035725"><ele>660.0</ele><time>2026-04-25T11:13:10.392Z</time></trkpt><trkpt lat="44.3763083" lon="11.0358767"><ele>658.0</ele><time>2026-04-25T11:13:12.394Z</time></trkpt><trkpt lat="44.3763067" lon="11.0360217"><ele>656.0</ele><time>2026-04-25T11:13:14.396Z</time></trkpt><trkpt lat="44.3763083" lon="11.0361117"><ele>654.0</ele><time>2026-04-25T11:13:16.392Z</time></trkpt><trkpt lat="44.3763233" lon="11.0362517"><ele>652.0</ele><time>2026-04-25T11:13:18.394Z</time></trkpt><trkpt lat="44.3763333" lon="11.0364367"><ele>650.0</ele><time>2026-04-25T11:13:20.393Z</time></trkpt><trkpt lat="44.37634" lon="11.0365433"><ele>649.1666666666666</ele><time>2026-04-25T11:13:21.393Z</time></trkpt><trkpt lat="44.3763483" lon="11.03666"><ele>648.3333333333333</ele><time>2026-04-25T11:13:22.394Z</time></trkpt><trkpt lat="44.3763533" lon="11.0367767"><ele>647.5</ele><time>2026-04-25T11:13:23.393Z</time></trkpt><trkpt lat="44.3763567" lon="11.0368883"><ele>646.6666666666666</ele><time>2026-04-25T11:13:24.393Z</time></trkpt><trkpt lat="44.3763617" lon="11.0369933"><ele>645.8333333333334</ele><time>2026-04-25T11:13:25.392Z</time></trkpt><trkpt lat="44.37637" lon="11.0371"><ele>645.0</ele><time>2026-04-25T11:13:26.394Z</time></trkpt><trkpt lat="44.3763833" lon="11.0372033"><ele>645.0</ele><time>2026-04-25T11:13:27.392Z</time></trkpt><trkpt lat="44.3764033" lon="11.0373033"><ele>645.0</ele><time>2026-04-25T11:13:28.393Z</time></trkpt><trkpt lat="44.376425" lon="11.0374"><ele>645.0</ele><time>2026-04-25T11:13:29.393Z</time></trkpt><trkpt lat="44.3764517" lon="11.037485"><ele>645.0</ele><time>2026-04-25T11:13:30.394Z</time></trkpt><trkpt lat="44.3764883" lon="11.0375617"><ele>645.0</ele><time>2026-04-25T11:13:31.392Z</time></trkpt><trkpt lat="44.376535" lon="11.037635"><ele>645.0</ele><time>2026-04-25T11:13:32.395Z</time></trkpt><trkpt lat="44.3765817" lon="11.037715"><ele>645.0</ele><time>2026-04-25T11:13:33.392Z</time></trkpt><trkpt lat="44.37662" lon="11.0378"><ele>645.6666666666666</ele><time>2026-04-25T11:13:34.392Z</time></trkpt><trkpt lat="44.3766533" lon="11.0378767"><ele>646.3333333333334</ele><time>2026-04-25T11:13:35.394Z</time></trkpt><trkpt lat="44.3767283" lon="11.0380117"><ele>647.0</ele><time>2026-04-25T11:13:37.394Z</time></trkpt><trkpt lat="44.3767883" lon="11.0380583"><ele>647.6666666666667</ele><time>2026-04-25T11:13:38.394Z</time></trkpt><trkpt lat="44.37685" lon="11.0380983"><ele>648.3333333333334</ele><time>2026-04-25T11:13:39.392Z</time></trkpt><trkpt lat="44.3769133" lon="11.038135"><ele>649.0</ele><time>2026-04-25T11:13:40.393Z</time></trkpt><trkpt lat="44.37698" lon="11.038155"><ele>648.9999999999999</ele><time>2026-04-25T11:13:41.396Z</time></trkpt><trkpt lat="44.377045" lon="11.038165"><ele>649.0</ele><time>2026-04-25T11:13:42.395Z</time></trkpt><trkpt lat="44.3771133" lon="11.0381567"><ele>649.0</ele><time>2026-04-25T11:13:43.394Z</time></trkpt><trkpt lat="44.3771833" lon="11.0381367"><ele>649.0</ele><time>2026-04-25T11:13:44.395Z</time></trkpt><trkpt lat="44.3772533" lon="11.0381183"><ele>649.0</ele><time>2026-04-25T11:13:45.397Z</time></trkpt><trkpt lat="44.37732" lon="11.0381133"><ele>648.9999999999999</ele><time>2026-04-25T11:13:46.394Z</time></trkpt><trkpt lat="44.3773833" lon="11.038125"><ele>649.0</ele><time>2026-04-25T11:13:47.393Z</time></trkpt><trkpt lat="44.37745" lon="11.0381367"><ele>647.3333333333334</ele><time>2026-04-25T11:13:48.395Z</time></trkpt><trkpt lat="44.377525" lon="11.03814"><ele>645.6666666666667</ele><time>2026-04-25T11:13:49.393Z</time></trkpt><trkpt lat="44.377605" lon="11.0381317"><ele>644.0</ele><time>2026-04-25T11:13:50.396Z</time></trkpt><trkpt lat="44.3776783" lon="11.0381217"><ele>642.3333333333334</ele><time>2026-04-25T11:13:51.395Z</time></trkpt><trkpt lat="44.3777433" lon="11.038115"><ele>640.6666666666666</ele><time>2026-04-25T11:13:52.396Z</time></trkpt><trkpt lat="44.3778483" lon="11.03808"><ele>639.0</ele><time>2026-04-25T11:13:54.394Z</time></trkpt><trkpt lat="44.3779583" lon="11.038005"><ele>638.2857142857143</ele><time>2026-04-25T11:13:56.395Z</time></trkpt><trkpt lat="44.3780267" lon="11.037965"><ele>637.5714285714286</ele><time>2026-04-25T11:13:57.392Z</time></trkpt><trkpt lat="44.3780883" lon="11.037935"><ele>636.8571428571429</ele><time>2026-04-25T11:13:58.394Z</time></trkpt><trkpt lat="44.3781683" lon="11.0379083"><ele>636.1428571428571</ele><time>2026-04-25T11:14:00.394Z</time></trkpt><trkpt lat="44.378235" lon="11.0379467"><ele>635.4285714285714</ele><time>2026-04-25T11:14:05.394Z</time></trkpt><trkpt lat="44.3782633" lon="11.0380267"><ele>634.7142857142858</ele><time>2026-04-25T11:14:10.393Z</time></trkpt><trkpt lat="44.3783167" lon="11.038095"><ele>634.0</ele><time>2026-04-25T11:14:16.391Z</time></trkpt><trkpt lat="44.378365" lon="11.03816"><ele>634.0</ele><time>2026-04-25T11:14:26.396Z</time></trkpt><trkpt lat="44.378415" lon="11.0382217"><ele>634.0</ele><time>2026-04-25T11:14:30.393Z</time></trkpt><trkpt lat="44.378465" lon="11.03828"><ele>634.0</ele><time>2026-04-25T11:14:34.395Z</time></trkpt><trkpt lat="44.3785233" lon="11.0383317"><ele>634.0</ele><time>2026-04-25T11:14:40.394Z</time></trkpt><trkpt lat="44.3785967" lon="11.038375"><ele>634.0</ele><time>2026-04-25T11:14:43.394Z</time></trkpt><trkpt lat="44.3786683" lon="11.0383967"><ele>634.0</ele><time>2026-04-25T11:14:45.394Z</time></trkpt><trkpt lat="44.3787367" lon="11.0384217"><ele>634.0</ele><time>2026-04-25T11:14:47.394Z</time></trkpt><trkpt lat="44.378805" lon="11.038445"><ele>632.1666666666667</ele><time>2026-04-25T11:14:49.394Z</time></trkpt><trkpt lat="44.3788767" lon="11.0384483"><ele>630.3333333333334</ele><time>2026-04-25T11:14:51.393Z</time></trkpt><trkpt lat="44.3789533" lon="11.03846"><ele>628.5</ele><time>2026-04-25T11:14:53.395Z</time></trkpt><trkpt lat="44.3790717" lon="11.0385233"><ele>626.6666666666666</ele><time>2026-04-25T11:14:55.394Z</time></trkpt><trkpt lat="44.3791467" lon="11.0385633"><ele>624.8333333333333</ele><time>2026-04-25T11:14:56.394Z</time></trkpt><trkpt lat="44.3792233" lon="11.0386083"><ele>623.0</ele><time>2026-04-25T11:14:57.394Z</time></trkpt><trkpt lat="44.379295" lon="11.0386483"><ele>623.0</ele><time>2026-04-25T11:14:58.394Z</time></trkpt><trkpt lat="44.3793617" lon="11.0386883"><ele>623.0</ele><time>2026-04-25T11:14:59.395Z</time></trkpt><trkpt lat="44.3794267" lon="11.03872"><ele>623.0</ele><time>2026-04-25T11:15:00.393Z</time></trkpt><trkpt lat="44.37949" lon="11.038745"><ele>623.0</ele><time>2026-04-25T11:15:01.396Z</time></trkpt><trkpt lat="44.37955" lon="11.0387767"><ele>623.0</ele><time>2026-04-25T11:15:02.395Z</time></trkpt><trkpt lat="44.3796367" lon="11.0388167"><ele>623.0</ele><time>2026-04-25T11:15:04.391Z</time></trkpt><trkpt lat="44.3797283" lon="11.0388317"><ele>621.0</ele><time>2026-04-25T11:15:06.399Z</time></trkpt><trkpt lat="44.3798367" lon="11.0388433"><ele>619.0</ele><time>2026-04-25T11:15:08.396Z</time></trkpt><trkpt lat="44.37993" lon="11.0388883"><ele>617.0</ele><time>2026-04-25T11:15:10.396Z</time></trkpt><trkpt lat="44.380015" lon="11.0389383"><ele>615.0</ele><time>2026-04-25T11:15:12.392Z</time></trkpt><trkpt lat="44.3801133" lon="11.0389733"><ele>613.0</ele><time>2026-04-25T11:15:14.393Z</time></trkpt><trkpt lat="44.3801967" lon="11.0390067"><ele>613.0</ele><time>2026-04-25T11:15:16.391Z</time></trkpt><trkpt lat="44.38028" lon="11.0390183"><ele>613.0</ele><time>2026-04-25T11:15:18.395Z</time></trkpt><trkpt lat="44.38036" lon="11.0390317"><ele>613.0</ele><time>2026-04-25T11:15:20.396Z</time></trkpt><trkpt lat="44.38044" lon="11.0390333"><ele>613.0</ele><time>2026-04-25T11:15:22.39Z</time></trkpt><trkpt lat="44.3805167" lon="11.039035"><ele>613.0</ele><time>2026-04-25T11:15:24.396Z</time></trkpt><trkpt lat="44.3806017" lon="11.0389883"><ele>613.0</ele><time>2026-04-25T11:15:26.394Z</time></trkpt><trkpt lat="44.3806967" lon="11.038955"><ele>611.1666666666667</ele><time>2026-04-25T11:15:28.393Z</time></trkpt><trkpt lat="44.380765" lon="11.0389517"><ele>609.3333333333334</ele><time>2026-04-25T11:15:29.393Z</time></trkpt><trkpt lat="44.3808417" lon="11.0389533"><ele>607.5</ele><time>2026-04-25T11:15:30.392Z</time></trkpt><trkpt lat="44.380915" lon="11.0389667"><ele>605.6666666666666</ele><time>2026-04-25T11:15:31.393Z</time></trkpt><trkpt lat="44.3809817" lon="11.038995"><ele>603.8333333333333</ele><time>2026-04-25T11:15:32.395Z</time></trkpt><trkpt lat="44.381065" lon="11.0390617"><ele>602.0</ele><time>2026-04-25T11:15:34.394Z</time></trkpt><trkpt lat="44.3811817" lon="11.0391267"><ele>602.8333333333333</ele><time>2026-04-25T11:15:36.394Z</time></trkpt><trkpt lat="44.38126" lon="11.0391517"><ele>603.6666666666666</ele><time>2026-04-25T11:15:37.394Z</time></trkpt><trkpt lat="44.38133" lon="11.0391783"><ele>604.5</ele><time>2026-04-25T11:15:38.395Z</time></trkpt><trkpt lat="44.3813967" lon="11.0392117"><ele>605.3333333333334</ele><time>2026-04-25T11:15:39.393Z</time></trkpt><trkpt lat="44.3814783" lon="11.03927"><ele>606.1666666666667</ele><time>2026-04-25T11:15:40.393Z</time></trkpt><trkpt lat="44.3815567" lon="11.0393267"><ele>607.0</ele><time>2026-04-25T11:15:41.395Z</time></trkpt><trkpt lat="44.3816183" lon="11.03938"><ele>607.0</ele><time>2026-04-25T11:15:42.395Z</time></trkpt><trkpt lat="44.381735" lon="11.0394333"><ele>607.0</ele><time>2026-04-25T11:15:44.396Z</time></trkpt><trkpt lat="44.3817933" lon="11.039475"><ele>607.0</ele><time>2026-04-25T11:15:45.394Z</time></trkpt><trkpt lat="44.3818517" lon="11.0395133"><ele>607.0</ele><time>2026-04-25T11:15:46.393Z</time></trkpt><trkpt lat="44.3819133" lon="11.0395433"><ele>607.0</ele><time>2026-04-25T11:15:47.392Z</time></trkpt><trkpt lat="44.3820183" lon="11.0395717"><ele>607.0</ele><time>2026-04-25T11:15:49.395Z</time></trkpt><trkpt lat="44.3821233" lon="11.039595"><ele>603.6</ele><time>2026-04-25T11:15:51.393Z</time></trkpt><trkpt lat="44.38223" lon="11.03962"><ele>600.2</ele><time>2026-04-25T11:15:53.396Z</time></trkpt><trkpt lat="44.382335" lon="11.039615"><ele>596.8</ele><time>2026-04-25T11:15:55.395Z</time></trkpt><trkpt lat="44.3824383" lon="11.03963"><ele>593.4</ele><time>2026-04-25T11:15:57.397Z</time></trkpt><trkpt lat="44.3824933" lon="11.0397"><ele>590.0</ele><time>2026-04-25T11:15:59.396Z</time></trkpt><trkpt lat="44.3824817" lon="11.0398483"><ele>590.0</ele><time>2026-04-25T11:16:01.389Z</time></trkpt><trkpt lat="44.3824533" lon="11.0399467"><ele>590.0</ele><time>2026-04-25T11:16:02.395Z</time></trkpt><trkpt lat="44.382425" lon="11.0400433"><ele>590.0</ele><time>2026-04-25T11:16:03.394Z</time></trkpt><trkpt lat="44.3824067" lon="11.04013"><ele>590.0</ele><time>2026-04-25T11:16:04.387Z</time></trkpt><trkpt lat="44.382415" lon="11.0402717"><ele>590.0</ele><time>2026-04-25T11:16:06.396Z</time></trkpt><trkpt lat="44.3824683" lon="11.0403367"><ele>590.0</ele><time>2026-04-25T11:16:08.396Z</time></trkpt><trkpt lat="44.3825883" lon="11.0404017"><ele>591.1666666666666</ele><time>2026-04-25T11:16:10.392Z</time></trkpt><trkpt lat="44.382665" lon="11.0404417"><ele>592.3333333333333</ele><time>2026-04-25T11:16:11.394Z</time></trkpt><trkpt lat="44.3827433" lon="11.04048"><ele>593.5</ele><time>2026-04-25T11:16:12.394Z</time></trkpt><trkpt lat="44.3828233" lon="11.040525"><ele>594.6666666666666</ele><time>2026-04-25T11:16:13.394Z</time></trkpt><trkpt lat="44.3828967" lon="11.0405817"><ele>595.8333333333334</ele><time>2026-04-25T11:16:14.395Z</time></trkpt><trkpt lat="44.3829717" lon="11.04066"><ele>597.0</ele><time>2026-04-25T11:16:15.394Z</time></trkpt><trkpt lat="44.383055" lon="11.0407367"><ele>593.5</ele><time>2026-04-25T11:16:16.394Z</time></trkpt><trkpt lat="44.3831517" lon="11.0407983"><ele>590.0</ele><time>2026-04-25T11:16:17.393Z</time></trkpt><trkpt lat="44.383255" lon="11.0408633"><ele>586.5</ele><time>2026-04-25T11:16:18.394Z</time></trkpt><trkpt lat="44.38336" lon="11.0409283"><ele>583.0</ele><time>2026-04-25T11:16:19.394Z</time></trkpt><trkpt lat="44.3834617" lon="11.0410067"><ele>581.75</ele><time>2026-04-25T11:16:20.394Z</time></trkpt><trkpt lat="44.3835633" lon="11.041095"><ele>580.5</ele><time>2026-04-25T11:16:21.397Z</time></trkpt><trkpt lat="44.3836667" lon="11.0411867"><ele>579.25</ele><time>2026-04-25T11:16:22.394Z</time></trkpt><trkpt lat="44.3837783" lon="11.041275"><ele>578.0</ele><time>2026-04-25T11:16:23.396Z</time></trkpt><trkpt lat="44.3838983" lon="11.04136"><ele>574.0</ele><time>2026-04-25T11:16:24.398Z</time></trkpt><trkpt lat="44.3840217" lon="11.0414383"><ele>570.0</ele><time>2026-04-25T11:16:25.399Z</time></trkpt><trkpt lat="44.3841467" lon="11.0415117"><ele>566.0</ele><time>2026-04-25T11:16:26.397Z</time></trkpt><trkpt lat="44.384275" lon="11.0415867"><ele>562.0</ele><time>2026-04-25T11:16:27.395Z</time></trkpt><trkpt lat="44.384405" lon="11.041665"><ele>562.0</ele><time>2026-04-25T11:16:28.395Z</time></trkpt><trkpt lat="44.38453" lon="11.0417517"><ele>562.0</ele><time>2026-04-25T11:16:29.393Z</time></trkpt><trkpt lat="44.3846467" lon="11.0418417"><ele>562.0</ele><time>2026-04-25T11:16:30.392Z</time></trkpt><trkpt lat="44.38476" lon="11.041925"><ele>562.0</ele><time>2026-04-25T11:16:31.392Z</time></trkpt><trkpt lat="44.3848767" lon="11.0419933"><ele>561.0</ele><time>2026-04-25T11:16:32.394Z</time></trkpt><trkpt lat="44.3849933" lon="11.04206"><ele>560.0</ele><time>2026-04-25T11:16:33.394Z</time></trkpt><trkpt lat="44.3851083" lon="11.0421417"><ele>559.0</ele><time>2026-04-25T11:16:34.393Z</time></trkpt><trkpt lat="44.38522" lon="11.0422483"><ele>558.0</ele><time>2026-04-25T11:16:35.393Z</time></trkpt><trkpt lat="44.385325" lon="11.042375"><ele>557.5</ele><time>2026-04-25T11:16:36.393Z</time></trkpt><trkpt lat="44.38542" lon="11.04251"><ele>557.0</ele><time>2026-04-25T11:16:37.393Z</time></trkpt><trkpt lat="44.3854983" lon="11.042665"><ele>556.5</ele><time>2026-04-25T11:16:38.395Z</time></trkpt><trkpt lat="44.3855617" lon="11.0428383"><ele>556.0</ele><time>2026-04-25T11:16:39.394Z</time></trkpt><trkpt lat="44.385615" lon="11.04299"><ele>555.6666666666667</ele><time>2026-04-25T11:16:40.393Z</time></trkpt><trkpt lat="44.3856633" lon="11.04311"><ele>555.3333333333334</ele><time>2026-04-25T11:16:41.393Z</time></trkpt><trkpt lat="44.3857033" lon="11.0432183"><ele>555.0</ele><time>2026-04-25T11:16:42.392Z</time></trkpt><trkpt lat="44.3857367" lon="11.0433217"><ele>554.6666666666666</ele><time>2026-04-25T11:16:43.393Z</time></trkpt><trkpt lat="44.38577" lon="11.0434133"><ele>554.3333333333333</ele><time>2026-04-25T11:16:44.395Z</time></trkpt><trkpt lat="44.3858017" lon="11.0434983"><ele>554.0</ele><time>2026-04-25T11:16:45.393Z</time></trkpt><trkpt lat="44.3858333" lon="11.0435767"><ele>555.1666666666666</ele><time>2026-04-25T11:16:46.393Z</time></trkpt><trkpt lat="44.3858683" lon="11.0436583"><ele>556.3333333333333</ele><time>2026-04-25T11:16:47.395Z</time></trkpt><trkpt lat="44.38591" lon="11.0437417"><ele>557.5</ele><time>2026-04-25T11:16:48.395Z</time></trkpt><trkpt lat="44.3859583" lon="11.0438167"><ele>558.6666666666666</ele><time>2026-04-25T11:16:49.397Z</time></trkpt><trkpt lat="44.3860217" lon="11.0438817"><ele>559.8333333333334</ele><time>2026-04-25T11:16:50.396Z</time></trkpt><trkpt lat="44.3861" lon="11.043935"><ele>561.0</ele><time>2026-04-25T11:16:51.396Z</time></trkpt><trkpt lat="44.3861917" lon="11.0439867"><ele>561.0</ele><time>2026-04-25T11:16:52.394Z</time></trkpt><trkpt lat="44.38629" lon="11.0440367"><ele>561.0</ele><time>2026-04-25T11:16:53.398Z</time></trkpt><trkpt lat="44.38639" lon="11.04408"><ele>561.0</ele><time>2026-04-25T11:16:54.395Z</time></trkpt><trkpt lat="44.3864967" lon="11.0441067"><ele>561.0</ele><time>2026-04-25T11:16:55.395Z</time></trkpt><trkpt lat="44.3866083" lon="11.0441217"><ele>561.0</ele><time>2026-04-25T11:16:56.394Z</time></trkpt><trkpt lat="44.3867217" lon="11.04413"><ele>562.0</ele><time>2026-04-25T11:16:57.395Z</time></trkpt><trkpt lat="44.386845" lon="11.044145"><ele>563.0</ele><time>2026-04-25T11:16:58.394Z</time></trkpt><trkpt lat="44.3869717" lon="11.04416"><ele>564.0</ele><time>2026-04-25T11:16:59.394Z</time></trkpt><trkpt lat="44.3870917" lon="11.0441733"><ele>565.0</ele><time>2026-04-25T11:17:00.391Z</time></trkpt><trkpt lat="44.3872083" lon="11.0441817"><ele>565.0</ele><time>2026-04-25T11:17:01.394Z</time></trkpt><trkpt lat="44.387325" lon="11.04419"><ele>565.0</ele><time>2026-04-25T11:17:02.393Z</time></trkpt><trkpt lat="44.3874367" lon="11.0441967"><ele>565.0</ele><time>2026-04-25T11:17:03.393Z</time></trkpt><trkpt lat="44.3875417" lon="11.0441933"><ele>565.0</ele><time>2026-04-25T11:17:04.394Z</time></trkpt><trkpt lat="44.3876467" lon="11.0441983"><ele>565.0</ele><time>2026-04-25T11:17:05.393Z</time></trkpt><trkpt lat="44.387755" lon="11.0442217"><ele>565.0</ele><time>2026-04-25T11:17:06.393Z</time></trkpt><trkpt lat="44.3878517" lon="11.044255"><ele>565.0</ele><time>2026-04-25T11:17:07.394Z</time></trkpt><trkpt lat="44.38793" lon="11.044285"><ele>565.0</ele><time>2026-04-25T11:17:08.395Z</time></trkpt><trkpt lat="44.3879917" lon="11.0443183"><ele>565.0</ele><time>2026-04-25T11:17:09.39Z</time></trkpt><trkpt lat="44.38805" lon="11.0443583"><ele>565.0</ele><time>2026-04-25T11:17:11.395Z</time></trkpt><trkpt lat="44.3881483" lon="11.0444083"><ele>565.0</ele><time>2026-04-25T11:17:14.398Z</time></trkpt><trkpt lat="44.38824" lon="11.0444367"><ele>561.8333333333334</ele><time>2026-04-25T11:17:16.393Z</time></trkpt><trkpt lat="44.388335" lon="11.0444317"><ele>558.6666666666667</ele><time>2026-04-25T11:17:18.394Z</time></trkpt><trkpt lat="44.388425" lon="11.0444083"><ele>555.5</ele><time>2026-04-25T11:17:20.395Z</time></trkpt><trkpt lat="44.3885" lon="11.044405"><ele>552.3333333333334</ele><time>2026-04-25T11:17:22.394Z</time></trkpt><trkpt lat="44.3885683" lon="11.04449"><ele>549.1666666666666</ele><time>2026-04-25T11:17:25.391Z</time></trkpt><trkpt lat="44.3886083" lon="11.04458"><ele>546.0</ele><time>2026-04-25T11:17:27.39Z</time></trkpt><trkpt lat="44.388645" lon="11.044685"><ele>546.0</ele><time>2026-04-25T11:17:29.393Z</time></trkpt><trkpt lat="44.38867" lon="11.0447817"><ele>546.0</ele><time>2026-04-25T11:17:31.395Z</time></trkpt><trkpt lat="44.388695" lon="11.0448717"><ele>546.0</ele><time>2026-04-25T11:17:33.393Z</time></trkpt><trkpt lat="44.388735" lon="11.045"><ele>546.0</ele><time>2026-04-25T11:17:36.394Z</time></trkpt><trkpt lat="44.38877" lon="11.045115"><ele>546.0</ele><time>2026-04-25T11:17:38.395Z</time></trkpt><trkpt lat="44.3888083" lon="11.0452383"><ele>546.0</ele><time>2026-04-25T11:17:40.394Z</time></trkpt><trkpt lat="44.388855" lon="11.04533"><ele>541.0</ele><time>2026-04-25T11:17:42.394Z</time></trkpt><trkpt lat="44.3889467" lon="11.0454067"><ele>536.0</ele><time>2026-04-25T11:17:44.395Z</time></trkpt><trkpt lat="44.3890083" lon="11.0454417"><ele>531.0</ele><time>2026-04-25T11:17:45.393Z</time></trkpt><trkpt lat="44.3890717" lon="11.04547"><ele>526.0</ele><time>2026-04-25T11:17:46.393Z</time></trkpt><trkpt lat="44.3891683" lon="11.045535"><ele>521.0</ele><time>2026-04-25T11:17:48.401Z</time></trkpt><trkpt lat="44.389245" lon="11.0456383"><ele>521.0</ele><time>2026-04-25T11:17:50.397Z</time></trkpt><trkpt lat="44.3893117" lon="11.0456933"><ele>521.0</ele><time>2026-04-25T11:17:52.397Z</time></trkpt><trkpt lat="44.3893833" lon="11.0457117"><ele>521.0</ele><time>2026-04-25T11:17:54.398Z</time></trkpt><trkpt lat="44.3894567" lon="11.04577"><ele>521.0</ele><time>2026-04-25T11:17:56.396Z</time></trkpt><trkpt lat="44.389525" lon="11.0458383"><ele>521.0</ele><time>2026-04-25T11:17:58.394Z</time></trkpt><trkpt lat="44.3896083" lon="11.045875"><ele>521.0</ele><time>2026-04-25T11:18:00.396Z</time></trkpt><trkpt lat="44.389685" lon="11.0459"><ele>517.4</ele><time>2026-04-25T11:18:02.394Z</time></trkpt><trkpt lat="44.3897883" lon="11.04596"><ele>513.8</ele><time>2026-04-25T11:18:05.393Z</time></trkpt><trkpt lat="44.3899" lon="11.0460467"><ele>510.19999999999993</ele><time>2026-04-25T11:18:07.394Z</time></trkpt><trkpt lat="44.389965" lon="11.0461083"><ele>506.59999999999997</ele><time>2026-04-25T11:18:08.395Z</time></trkpt><trkpt lat="44.3900333" lon="11.046175"><ele>503.0</ele><time>2026-04-25T11:18:09.392Z</time></trkpt><trkpt lat="44.3901" lon="11.0462367"><ele>503.0</ele><time>2026-04-25T11:18:10.394Z</time></trkpt><trkpt lat="44.39016" lon="11.0463083"><ele>502.99999999999994</ele><time>2026-04-25T11:18:11.394Z</time></trkpt><trkpt lat="44.39022" lon="11.0464"><ele>502.99999999999994</ele><time>2026-04-25T11:18:12.396Z</time></trkpt><trkpt lat="44.39029" lon="11.0465017"><ele>503.0</ele><time>2026-04-25T11:18:13.396Z</time></trkpt><trkpt lat="44.3903767" lon="11.0466067"><ele>503.0</ele><time>2026-04-25T11:18:14.396Z</time></trkpt><trkpt lat="44.3904667" lon="11.0467167"><ele>503.4</ele><time>2026-04-25T11:18:15.394Z</time></trkpt><trkpt lat="44.390545" lon="11.046825"><ele>503.79999999999995</ele><time>2026-04-25T11:18:16.396Z</time></trkpt><trkpt lat="44.3906183" lon="11.0469217"><ele>504.2</ele><time>2026-04-25T11:18:17.394Z</time></trkpt><trkpt lat="44.3906983" lon="11.0470033"><ele>504.6</ele><time>2026-04-25T11:18:18.394Z</time></trkpt><trkpt lat="44.39078" lon="11.047065"><ele>505.0</ele><time>2026-04-25T11:18:19.397Z</time></trkpt><trkpt lat="44.3908617" lon="11.0471033"><ele>505.00000000000006</ele><time>2026-04-25T11:18:20.398Z</time></trkpt><trkpt lat="44.39095" lon="11.047135"><ele>505.0</ele><time>2026-04-25T11:18:21.392Z</time></trkpt><trkpt lat="44.3910417" lon="11.0471567"><ele>505.0</ele><time>2026-04-25T11:18:22.394Z</time></trkpt><trkpt lat="44.3911283" lon="11.04717"><ele>505.0</ele><time>2026-04-25T11:18:23.393Z</time></trkpt><trkpt lat="44.3912033" lon="11.0471733"><ele>505.00000000000006</ele><time>2026-04-25T11:18:24.389Z</time></trkpt><trkpt lat="44.3912733" lon="11.0471717"><ele>505.0</ele><time>2026-04-25T11:18:25.395Z</time></trkpt><trkpt lat="44.3913433" lon="11.0471783"><ele>503.0</ele><time>2026-04-25T11:18:26.397Z</time></trkpt><trkpt lat="44.3914183" lon="11.0471933"><ele>501.0</ele><time>2026-04-25T11:18:27.393Z</time></trkpt><trkpt lat="44.391505" lon="11.0472067"><ele>499.0</ele><time>2026-04-25T11:18:28.394Z</time></trkpt><trkpt lat="44.3916017" lon="11.0472167"><ele>497.0</ele><time>2026-04-25T11:18:29.394Z</time></trkpt><trkpt lat="44.391705" lon="11.047215"><ele>495.0</ele><time>2026-04-25T11:18:30.399Z</time></trkpt><trkpt lat="44.3918117" lon="11.0471883"><ele>495.0</ele><time>2026-04-25T11:18:31.395Z</time></trkpt><trkpt lat="44.391925" lon="11.0471467"><ele>495.0</ele><time>2026-04-25T11:18:32.397Z</time></trkpt><trkpt lat="44.3920333" lon="11.047105"><ele>495.0</ele><time>2026-04-25T11:18:33.394Z</time></trkpt><trkpt lat="44.39212" lon="11.047085"><ele>495.0</ele><time>2026-04-25T11:18:34.395Z</time></trkpt><trkpt lat="44.392185" lon="11.0470883"><ele>495.0</ele><time>2026-04-25T11:18:35.394Z</time></trkpt><trkpt lat="44.3923083" lon="11.0471717"><ele>492.6</ele><time>2026-04-25T11:18:37.395Z</time></trkpt><trkpt lat="44.3923717" lon="11.0472217"><ele>490.2</ele><time>2026-04-25T11:18:38.395Z</time></trkpt><trkpt lat="44.3924283" lon="11.0472683"><ele>487.79999999999995</ele><time>2026-04-25T11:18:39.395Z</time></trkpt><trkpt lat="44.3925383" lon="11.04732"><ele>485.4</ele><time>2026-04-25T11:18:41.395Z</time></trkpt><trkpt lat="44.3926783" lon="11.0473167"><ele>483.0</ele><time>2026-04-25T11:18:43.394Z</time></trkpt><trkpt lat="44.392765" lon="11.0472917"><ele>483.0</ele><time>2026-04-25T11:18:44.395Z</time></trkpt><trkpt lat="44.3928583" lon="11.047255"><ele>482.99999999999994</ele><time>2026-04-25T11:18:45.394Z</time></trkpt><trkpt lat="44.3929583" lon="11.047215"><ele>482.99999999999994</ele><time>2026-04-25T11:18:46.393Z</time></trkpt><trkpt lat="44.3930733" lon="11.0471833"><ele>483.0</ele><time>2026-04-25T11:18:47.393Z</time></trkpt><trkpt lat="44.39319" lon="11.0471483"><ele>483.0</ele><time>2026-04-25T11:18:48.393Z</time></trkpt><trkpt lat="44.3932933" lon="11.0471083"><ele>481.2</ele><time>2026-04-25T11:18:49.394Z</time></trkpt><trkpt lat="44.3933867" lon="11.0470667"><ele>479.4</ele><time>2026-04-25T11:18:50.394Z</time></trkpt><trkpt lat="44.3934833" lon="11.0470383"><ele>477.59999999999997</ele><time>2026-04-25T11:18:51.393Z</time></trkpt><trkpt lat="44.39359" lon="11.0470283"><ele>475.79999999999995</ele><time>2026-04-25T11:18:52.393Z</time></trkpt><trkpt lat="44.3937017" lon="11.0470383"><ele>474.0</ele><time>2026-04-25T11:18:53.394Z</time></trkpt><trkpt lat="44.39381" lon="11.047045"><ele>474.5</ele><time>2026-04-25T11:18:54.394Z</time></trkpt><trkpt lat="44.3939083" lon="11.0470533"><ele>475.0</ele><time>2026-04-25T11:18:55.393Z</time></trkpt><trkpt lat="44.3939883" lon="11.047075"><ele>475.5</ele><time>2026-04-25T11:18:56.396Z</time></trkpt><trkpt lat="44.3940517" lon="11.04712"><ele>476.0</ele><time>2026-04-25T11:18:57.392Z</time></trkpt><trkpt lat="44.3941067" lon="11.0471883"><ele>476.5</ele><time>2026-04-25T11:18:58.393Z</time></trkpt><trkpt lat="44.3941633" lon="11.0472517"><ele>477.0</ele><time>2026-04-25T11:18:59.392Z</time></trkpt><trkpt lat="44.3942267" lon="11.0472883"><ele>477.0</ele><time>2026-04-25T11:19:00.389Z</time></trkpt><trkpt lat="44.394295" lon="11.0473167"><ele>477.0</ele><time>2026-04-25T11:19:01.393Z</time></trkpt><trkpt lat="44.3943633" lon="11.0473533"><ele>477.0</ele><time>2026-04-25T11:19:02.396Z</time></trkpt><trkpt lat="44.3944283" lon="11.0474067"><ele>477.0</ele><time>2026-04-25T11:19:03.393Z</time></trkpt><trkpt lat="44.3945017" lon="11.0474717"><ele>477.0</ele><time>2026-04-25T11:19:04.393Z</time></trkpt><trkpt lat="44.3945817" lon="11.04753"><ele>477.0</ele><time>2026-04-25T11:19:05.395Z</time></trkpt><trkpt lat="44.3946717" lon="11.0475583"><ele>478.6</ele><time>2026-04-25T11:19:06.393Z</time></trkpt><trkpt lat="44.3947667" lon="11.0475567"><ele>480.20000000000005</ele><time>2026-04-25T11:19:07.394Z</time></trkpt><trkpt lat="44.3948667" lon="11.04753"><ele>481.8</ele><time>2026-04-25T11:19:08.395Z</time></trkpt><trkpt lat="44.3949617" lon="11.0474817"><ele>483.4</ele><time>2026-04-25T11:19:09.392Z</time></trkpt><trkpt lat="44.395045" lon="11.0474283"><ele>485.0</ele><time>2026-04-25T11:19:10.392Z</time></trkpt><trkpt lat="44.3951317" lon="11.0473767"><ele>484.99999999999994</ele><time>2026-04-25T11:19:11.393Z</time></trkpt><trkpt lat="44.3952117" lon="11.0473267"><ele>485.0</ele><time>2026-04-25T11:19:12.393Z</time></trkpt><trkpt lat="44.3952833" lon="11.047285"><ele>485.0</ele><time>2026-04-25T11:19:13.393Z</time></trkpt><trkpt lat="44.3953517" lon="11.0472667"><ele>485.0</ele><time>2026-04-25T11:19:14.394Z</time></trkpt><trkpt lat="44.3954217" lon="11.0472517"><ele>484.99999999999994</ele><time>2026-04-25T11:19:15.394Z</time></trkpt><trkpt lat="44.3954933" lon="11.047235"><ele>485.0</ele><time>2026-04-25T11:19:16.392Z</time></trkpt><trkpt lat="44.395565" lon="11.0472067"><ele>487.49999999999994</ele><time>2026-04-25T11:19:17.393Z</time></trkpt><trkpt lat="44.395635" lon="11.0471833"><ele>490.0</ele><time>2026-04-25T11:19:18.393Z</time></trkpt><trkpt lat="44.395705" lon="11.0471767"><ele>492.5</ele><time>2026-04-25T11:19:19.394Z</time></trkpt><trkpt lat="44.395775" lon="11.0471933"><ele>495.0</ele><time>2026-04-25T11:19:20.395Z</time></trkpt><trkpt lat="44.3958467" lon="11.0472367"><ele>497.49999999999994</ele><time>2026-04-25T11:19:21.394Z</time></trkpt><trkpt lat="44.3959183" lon="11.0472967"><ele>500.0</ele><time>2026-04-25T11:19:22.392Z</time></trkpt><trkpt lat="44.3959833" lon="11.0473783"><ele>502.8</ele><time>2026-04-25T11:19:23.393Z</time></trkpt><trkpt lat="44.396045" lon="11.0474633"><ele>505.6</ele><time>2026-04-25T11:19:24.435Z</time></trkpt><trkpt lat="44.3961083" lon="11.047555"><ele>508.4</ele><time>2026-04-25T11:19:25.396Z</time></trkpt><trkpt lat="44.39617" lon="11.047655"><ele>511.2</ele><time>2026-04-25T11:19:26.394Z</time></trkpt><trkpt lat="44.3962367" lon="11.0477617"><ele>514.0</ele><time>2026-04-25T11:19:27.394Z</time></trkpt><trkpt lat="44.3963117" lon="11.0478583"><ele>513.6</ele><time>2026-04-25T11:19:28.394Z</time></trkpt><trkpt lat="44.3963933" lon="11.047935"><ele>513.2</ele><time>2026-04-25T11:19:29.393Z</time></trkpt><trkpt lat="44.39647" lon="11.04802"><ele>512.8000000000001</ele><time>2026-04-25T11:19:30.394Z</time></trkpt><trkpt lat="44.396535" lon="11.0481167"><ele>512.4</ele><time>2026-04-25T11:19:31.393Z</time></trkpt><trkpt lat="44.39659" lon="11.04821"><ele>512.0</ele><time>2026-04-25T11:19:32.393Z</time></trkpt><trkpt lat="44.3966467" lon="11.0482933"><ele>513.0</ele><time>2026-04-25T11:19:33.393Z</time></trkpt><trkpt lat="44.3967083" lon="11.04837"><ele>514.0</ele><time>2026-04-25T11:19:34.392Z</time></trkpt><trkpt lat="44.39678" lon="11.0484483"><ele>515.0</ele><time>2026-04-25T11:19:35.392Z</time></trkpt><trkpt lat="44.396855" lon="11.0485267"><ele>516.0</ele><time>2026-04-25T11:19:36.393Z</time></trkpt><trkpt lat="44.39693" lon="11.048605"><ele>517.0</ele><time>2026-04-25T11:19:37.393Z</time></trkpt><trkpt lat="44.396995" lon="11.0486933"><ele>517.0</ele><time>2026-04-25T11:19:38.395Z</time></trkpt><trkpt lat="44.397045" lon="11.048795"><ele>517.0</ele><time>2026-04-25T11:19:39.392Z</time></trkpt><trkpt lat="44.39708" lon="11.0489017"><ele>517.0</ele><time>2026-04-25T11:19:40.395Z</time></trkpt><trkpt lat="44.397115" lon="11.0490117"><ele>517.0</ele><time>2026-04-25T11:19:41.393Z</time></trkpt><trkpt lat="44.3971583" lon="11.0491183"><ele>517.0</ele><time>2026-04-25T11:19:42.395Z</time></trkpt><trkpt lat="44.3971983" lon="11.0492283"><ele>517.0</ele><time>2026-04-25T11:19:43.394Z</time></trkpt><trkpt lat="44.397235" lon="11.0493483"><ele>515.4</ele><time>2026-04-25T11:19:44.394Z</time></trkpt><trkpt lat="44.3972733" lon="11.04947"><ele>513.8000000000001</ele><time>2026-04-25T11:19:45.395Z</time></trkpt><trkpt lat="44.3973117" lon="11.04959"><ele>512.2</ele><time>2026-04-25T11:19:46.393Z</time></trkpt><trkpt lat="44.3973467" lon="11.0497217"><ele>510.6</ele><time>2026-04-25T11:19:47.392Z</time></trkpt><trkpt lat="44.3973817" lon="11.049875"><ele>509.0</ele><time>2026-04-25T11:19:48.393Z</time></trkpt><trkpt lat="44.3974167" lon="11.050035"><ele>508.79999999999995</ele><time>2026-04-25T11:19:49.392Z</time></trkpt><trkpt lat="44.3974533" lon="11.0501917"><ele>508.59999999999997</ele><time>2026-04-25T11:19:50.397Z</time></trkpt><trkpt lat="44.3974917" lon="11.05033"><ele>508.4</ele><time>2026-04-25T11:19:51.393Z</time></trkpt><trkpt lat="44.3975333" lon="11.0504533"><ele>508.2</ele><time>2026-04-25T11:19:52.393Z</time></trkpt><trkpt lat="44.39759" lon="11.0505667"><ele>508.0</ele><time>2026-04-25T11:19:53.393Z</time></trkpt><trkpt lat="44.3976667" lon="11.050665"><ele>508.0</ele><time>2026-04-25T11:19:54.393Z</time></trkpt><trkpt lat="44.3977533" lon="11.0507567"><ele>507.99999999999994</ele><time>2026-04-25T11:19:55.392Z</time></trkpt><trkpt lat="44.3978483" lon="11.0508567"><ele>507.99999999999994</ele><time>2026-04-25T11:19:56.396Z</time></trkpt><trkpt lat="44.397945" lon="11.0509517"><ele>508.0</ele><time>2026-04-25T11:19:57.393Z</time></trkpt><trkpt lat="44.3980283" lon="11.0510383"><ele>508.0</ele><time>2026-04-25T11:19:58.394Z</time></trkpt><trkpt lat="44.3980933" lon="11.0511233"><ele>506.0</ele><time>2026-04-25T11:19:59.393Z</time></trkpt><trkpt lat="44.398145" lon="11.0512067"><ele>504.0</ele><time>2026-04-25T11:20:00.389Z</time></trkpt><trkpt lat="44.3981833" lon="11.0512933"><ele>502.0</ele><time>2026-04-25T11:20:01.393Z</time></trkpt><trkpt lat="44.3982033" lon="11.0513867"><ele>500.0</ele><time>2026-04-25T11:20:02.395Z</time></trkpt><trkpt lat="44.39821" lon="11.05148"><ele>498.0</ele><time>2026-04-25T11:20:03.393Z</time></trkpt><trkpt lat="44.3982" lon="11.0515883"><ele>496.0</ele><time>2026-04-25T11:20:04.392Z</time></trkpt><trkpt lat="44.3981933" lon="11.0516933"><ele>494.0</ele><time>2026-04-25T11:20:05.394Z</time></trkpt><trkpt lat="44.398195" lon="11.0517883"><ele>493.3333333333333</ele><time>2026-04-25T11:20:06.394Z</time></trkpt><trkpt lat="44.3982017" lon="11.05196"><ele>492.66666666666663</ele><time>2026-04-25T11:20:08.395Z</time></trkpt><trkpt lat="44.3982017" lon="11.052055"><ele>492.0</ele><time>2026-04-25T11:20:09.393Z</time></trkpt><trkpt lat="44.3982033" lon="11.0521533"><ele>491.33333333333337</ele><time>2026-04-25T11:20:10.393Z</time></trkpt><trkpt lat="44.3982133" lon="11.0522633"><ele>490.6666666666667</ele><time>2026-04-25T11:20:11.392Z</time></trkpt><trkpt lat="44.398235" lon="11.05238"><ele>490.0</ele><time>2026-04-25T11:20:12.393Z</time></trkpt><trkpt lat="44.3982583" lon="11.0525067"><ele>487.5</ele><time>2026-04-25T11:20:13.394Z</time></trkpt><trkpt lat="44.398285" lon="11.0526483"><ele>485.0</ele><time>2026-04-25T11:20:14.394Z</time></trkpt><trkpt lat="44.3983117" lon="11.052795"><ele>482.5</ele><time>2026-04-25T11:20:15.392Z</time></trkpt><trkpt lat="44.3983333" lon="11.0529533"><ele>480.0</ele><time>2026-04-25T11:20:16.393Z</time></trkpt><trkpt lat="44.39836" lon="11.053125"><ele>478.6</ele><time>2026-04-25T11:20:17.393Z</time></trkpt><trkpt lat="44.39838" lon="11.05329"><ele>477.2</ele><time>2026-04-25T11:20:18.393Z</time></trkpt><trkpt lat="44.3983933" lon="11.0534483"><ele>475.79999999999995</ele><time>2026-04-25T11:20:19.392Z</time></trkpt><trkpt lat="44.3984017" lon="11.053585"><ele>474.4</ele><time>2026-04-25T11:20:20.395Z</time></trkpt><trkpt lat="44.398405" lon="11.0537"><ele>473.0</ele><time>2026-04-25T11:20:21.395Z</time></trkpt><trkpt lat="44.3984033" lon="11.0537967"><ele>472.99999999999994</ele><time>2026-04-25T11:20:22.393Z</time></trkpt><trkpt lat="44.3984017" lon="11.0538917"><ele>473.0</ele><time>2026-04-25T11:20:23.394Z</time></trkpt><trkpt lat="44.398405" lon="11.0539867"><ele>473.0</ele><time>2026-04-25T11:20:24.392Z</time></trkpt><trkpt lat="44.39843" lon="11.054085"><ele>473.0</ele><time>2026-04-25T11:20:25.393Z</time></trkpt><trkpt lat="44.3984617" lon="11.054195"><ele>472.99999999999994</ele><time>2026-04-25T11:20:26.395Z</time></trkpt><trkpt lat="44.3984967" lon="11.0543133"><ele>473.0</ele><time>2026-04-25T11:20:27.392Z</time></trkpt><trkpt lat="44.3985333" lon="11.0544517"><ele>471.79999999999995</ele><time>2026-04-25T11:20:28.393Z</time></trkpt><trkpt lat="44.3985683" lon="11.0545917"><ele>470.59999999999997</ele><time>2026-04-25T11:20:29.393Z</time></trkpt><trkpt lat="44.3986" lon="11.0547133"><ele>469.40000000000003</ele><time>2026-04-25T11:20:30.393Z</time></trkpt><trkpt lat="44.3986283" lon="11.0548183"><ele>468.20000000000005</ele><time>2026-04-25T11:20:31.392Z</time></trkpt><trkpt lat="44.3986567" lon="11.0549267"><ele>467.0</ele><time>2026-04-25T11:20:32.394Z</time></trkpt><trkpt lat="44.3986867" lon="11.05505"><ele>465.49999999999994</ele><time>2026-04-25T11:20:33.393Z</time></trkpt><trkpt lat="44.3987183" lon="11.05519"><ele>464.0</ele><time>2026-04-25T11:20:34.392Z</time></trkpt><trkpt lat="44.3987533" lon="11.0553233"><ele>462.5</ele><time>2026-04-25T11:20:35.394Z</time></trkpt><trkpt lat="44.3987867" lon="11.0554317"><ele>461.0</ele><time>2026-04-25T11:20:36.393Z</time></trkpt><trkpt lat="44.3988083" lon="11.05552"><ele>459.49999999999994</ele><time>2026-04-25T11:20:37.393Z</time></trkpt><trkpt lat="44.39882" lon="11.0556183"><ele>458.0</ele><time>2026-04-25T11:20:38.393Z</time></trkpt><trkpt lat="44.39882" lon="11.0557433"><ele>456.79999999999995</ele><time>2026-04-25T11:20:39.393Z</time></trkpt><trkpt lat="44.3988167" lon="11.0558733"><ele>455.59999999999997</ele><time>2026-04-25T11:20:40.393Z</time></trkpt><trkpt lat="44.3988083" lon="11.0559983"><ele>454.40000000000003</ele><time>2026-04-25T11:20:41.394Z</time></trkpt><trkpt lat="44.398795" lon="11.0561217"><ele>453.20000000000005</ele><time>2026-04-25T11:20:42.393Z</time></trkpt><trkpt lat="44.3987717" lon="11.0562667"><ele>452.0</ele><time>2026-04-25T11:20:43.392Z</time></trkpt><trkpt lat="44.3987417" lon="11.0564233"><ele>452.0</ele><time>2026-04-25T11:20:44.395Z</time></trkpt><trkpt lat="44.398715" lon="11.0565867"><ele>452.00000000000006</ele><time>2026-04-25T11:20:45.392Z</time></trkpt><trkpt lat="44.3987017" lon="11.0567433"><ele>452.00000000000006</ele><time>2026-04-25T11:20:46.392Z</time></trkpt><trkpt lat="44.39869" lon="11.0568917"><ele>452.0</ele><time>2026-04-25T11:20:47.393Z</time></trkpt><trkpt lat="44.3986617" lon="11.0570317"><ele>452.0</ele><time>2026-04-25T11:20:48.392Z</time></trkpt><trkpt lat="44.39862" lon="11.05717"><ele>452.20000000000005</ele><time>2026-04-25T11:20:49.393Z</time></trkpt><trkpt lat="44.3985667" lon="11.0573017"><ele>452.40000000000003</ele><time>2026-04-25T11:20:50.394Z</time></trkpt><trkpt lat="44.3985167" lon="11.0574233"><ele>452.59999999999997</ele><time>2026-04-25T11:20:51.393Z</time></trkpt><trkpt lat="44.3984833" lon="11.05754"><ele>452.79999999999995</ele><time>2026-04-25T11:20:52.393Z</time></trkpt><trkpt lat="44.39847" lon="11.057665"><ele>453.0</ele><time>2026-04-25T11:20:53.394Z</time></trkpt><trkpt lat="44.3984667" lon="11.057795"><ele>453.0</ele><time>2026-04-25T11:20:54.392Z</time></trkpt><trkpt lat="44.3984717" lon="11.05793"><ele>452.99999999999994</ele><time>2026-04-25T11:20:55.393Z</time></trkpt><trkpt lat="44.3984933" lon="11.0580717"><ele>452.99999999999994</ele><time>2026-04-25T11:20:56.395Z</time></trkpt><trkpt lat="44.398525" lon="11.058225"><ele>453.0</ele><time>2026-04-25T11:20:57.393Z</time></trkpt><trkpt lat="44.3985667" lon="11.05839"><ele>453.0</ele><time>2026-04-25T11:20:58.392Z</time></trkpt><trkpt lat="44.3986183" lon="11.058565"><ele>452.59999999999997</ele><time>2026-04-25T11:20:59.392Z</time></trkpt><trkpt lat="44.398675" lon="11.0587183"><ele>452.19999999999993</ele><time>2026-04-25T11:21:00.388Z</time></trkpt><trkpt lat="44.39872" lon="11.05884"><ele>451.8</ele><time>2026-04-25T11:21:01.393Z</time></trkpt><trkpt lat="44.3987617" lon="11.0589433"><ele>451.4</ele><time>2026-04-25T11:21:02.394Z</time></trkpt><trkpt lat="44.3988083" lon="11.0590483"><ele>451.0</ele><time>2026-04-25T11:21:03.392Z</time></trkpt><trkpt lat="44.3988567" lon="11.0591633"><ele>450.33333333333337</ele><time>2026-04-25T11:21:04.392Z</time></trkpt><trkpt lat="44.3988933" lon="11.0592817"><ele>449.6666666666667</ele><time>2026-04-25T11:21:05.389Z</time></trkpt><trkpt lat="44.3989233" lon="11.0593933"><ele>449.0</ele><time>2026-04-25T11:21:06.392Z</time></trkpt><trkpt lat="44.3989467" lon="11.0595017"><ele>448.33333333333337</ele><time>2026-04-25T11:21:07.394Z</time></trkpt><trkpt lat="44.3989667" lon="11.05962"><ele>447.6666666666667</ele><time>2026-04-25T11:21:08.395Z</time></trkpt><trkpt lat="44.3989733" lon="11.0597433"><ele>447.0</ele><time>2026-04-25T11:21:09.391Z</time></trkpt><trkpt lat="44.3989783" lon="11.05985"><ele>447.5</ele><time>2026-04-25T11:21:10.394Z</time></trkpt><trkpt lat="44.39898" lon="11.0599517"><ele>448.0</ele><time>2026-04-25T11:21:11.393Z</time></trkpt><trkpt lat="44.3990183" lon="11.0601083"><ele>448.5</ele><time>2026-04-25T11:21:13.393Z</time></trkpt><trkpt lat="44.3990933" lon="11.060195"><ele>449.0</ele><time>2026-04-25T11:21:15.394Z</time></trkpt><trkpt lat="44.3991567" lon="11.0602133"><ele>449.5</ele><time>2026-04-25T11:25:16.392Z</time></trkpt><trkpt lat="44.3991633" lon="11.0603033"><ele>450.0</ele><time>2026-04-25T11:25:22.39Z</time></trkpt><trkpt lat="44.39918" lon="11.06021"><ele>450.0</ele><time>2026-04-25T11:40:31.39Z</time></trkpt><trkpt lat="44.399275" lon="11.060185"><ele>450.0</ele><time>2026-04-25T11:40:34.391Z</time></trkpt><trkpt lat="44.3993717" lon="11.0601917"><ele>450.0</ele><time>2026-04-25T11:40:36.39Z</time></trkpt><trkpt lat="44.3994683" lon="11.0602383"><ele>450.0</ele><time>2026-04-25T11:40:38.392Z</time></trkpt><trkpt lat="44.3995717" lon="11.060295"><ele>450.0</ele><time>2026-04-25T11:40:40.39Z</time></trkpt><trkpt lat="44.399685" lon="11.0603583"><ele>448.1428571428572</ele><time>2026-04-25T11:40:42.39Z</time></trkpt><trkpt lat="44.399745" lon="11.0603867"><ele>446.28571428571433</ele><time>2026-04-25T11:40:43.39Z</time></trkpt><trkpt lat="44.3998067" lon="11.06041"><ele>444.42857142857144</ele><time>2026-04-25T11:40:44.391Z</time></trkpt><trkpt lat="44.39987" lon="11.060435"><ele>442.5714285714286</ele><time>2026-04-25T11:40:45.391Z</time></trkpt><trkpt lat="44.3999317" lon="11.06046"><ele>440.7142857142858</ele><time>2026-04-25T11:40:46.391Z</time></trkpt><trkpt lat="44.3999967" lon="11.0604783"><ele>438.85714285714283</ele><time>2026-04-25T11:40:47.39Z</time></trkpt><trkpt lat="44.4000633" lon="11.0604933"><ele>437.0</ele><time>2026-04-25T11:40:48.389Z</time></trkpt><trkpt lat="44.4001283" lon="11.0605083"><ele>436.99999999999994</ele><time>2026-04-25T11:40:49.389Z</time></trkpt><trkpt lat="44.4001967" lon="11.0605333"><ele>437.0</ele><time>2026-04-25T11:40:50.391Z</time></trkpt><trkpt lat="44.4002717" lon="11.06057"><ele>437.0</ele><time>2026-04-25T11:40:51.39Z</time></trkpt><trkpt lat="44.4003483" lon="11.0606267"><ele>437.0</ele><time>2026-04-25T11:40:52.391Z</time></trkpt><trkpt lat="44.4004233" lon="11.0606933"><ele>436.99999999999994</ele><time>2026-04-25T11:40:53.391Z</time></trkpt><trkpt lat="44.4004883" lon="11.0607567"><ele>437.0</ele><time>2026-04-25T11:40:54.405Z</time></trkpt><trkpt lat="44.4005917" lon="11.0608333"><ele>436.0</ele><time>2026-04-25T11:40:56.391Z</time></trkpt><trkpt lat="44.4006867" lon="11.060875"><ele>435.00000000000006</ele><time>2026-04-25T11:40:58.39Z</time></trkpt><trkpt lat="44.4007583" lon="11.0609133"><ele>434.00000000000006</ele><time>2026-04-25T11:40:59.391Z</time></trkpt><trkpt lat="44.4008483" lon="11.060965"><ele>433.0</ele><time>2026-04-25T11:41:00.389Z</time></trkpt><trkpt lat="44.4009333" lon="11.0610133"><ele>432.0</ele><time>2026-04-25T11:41:01.389Z</time></trkpt><trkpt lat="44.4010133" lon="11.0610633"><ele>432.0</ele><time>2026-04-25T11:41:02.389Z</time></trkpt><trkpt lat="44.4010883" lon="11.0611233"><ele>432.00000000000006</ele><time>2026-04-25T11:41:03.39Z</time></trkpt><trkpt lat="44.4011633" lon="11.0611967"><ele>432.00000000000006</ele><time>2026-04-25T11:41:04.389Z</time></trkpt><trkpt lat="44.4012317" lon="11.0612683"><ele>432.0</ele><time>2026-04-25T11:41:05.392Z</time></trkpt><trkpt lat="44.4012867" lon="11.0613267"><ele>432.0</ele><time>2026-04-25T11:41:06.391Z</time></trkpt><trkpt lat="44.4014" lon="11.0613883"><ele>431.0</ele><time>2026-04-25T11:41:08.39Z</time></trkpt><trkpt lat="44.4014683" lon="11.0614217"><ele>430.00000000000006</ele><time>2026-04-25T11:41:09.389Z</time></trkpt><trkpt lat="44.40155" lon="11.0614683"><ele>429.00000000000006</ele><time>2026-04-25T11:41:10.389Z</time></trkpt><trkpt lat="44.4016417" lon="11.0615083"><ele>428.0</ele><time>2026-04-25T11:41:11.39Z</time></trkpt><trkpt lat="44.4017417" lon="11.0615367"><ele>427.0</ele><time>2026-04-25T11:41:12.39Z</time></trkpt><trkpt lat="44.4018383" lon="11.06155"><ele>427.0</ele><time>2026-04-25T11:41:13.389Z</time></trkpt><trkpt lat="44.4019283" lon="11.061555"><ele>427.00000000000006</ele><time>2026-04-25T11:41:14.389Z</time></trkpt><trkpt lat="44.4020017" lon="11.0615617"><ele>427.00000000000006</ele><time>2026-04-25T11:41:15.391Z</time></trkpt><trkpt lat="44.4020983" lon="11.061585"><ele>427.0</ele><time>2026-04-25T11:41:17.39Z</time></trkpt><trkpt lat="44.4022" lon="11.0615733"><ele>427.0</ele><time>2026-04-25T11:41:19.389Z</time></trkpt><trkpt lat="44.40231" lon="11.0615667"><ele>426.8</ele><time>2026-04-25T11:41:21.39Z</time></trkpt><trkpt lat="44.40242" lon="11.06157"><ele>426.6</ele><time>2026-04-25T11:41:23.39Z</time></trkpt><trkpt lat="44.4025133" lon="11.061535"><ele>426.40000000000003</ele><time>2026-04-25T11:41:25.39Z</time></trkpt><trkpt lat="44.4025767" lon="11.061495"><ele>426.20000000000005</ele><time>2026-04-25T11:41:27.389Z</time></trkpt><trkpt lat="44.4026167" lon="11.0614167"><ele>426.0</ele><time>2026-04-25T11:41:30.39Z</time></trkpt><trkpt lat="44.4027167" lon="11.0613333"><ele>426.0</ele><time>2026-04-25T11:41:53.391Z</time></trkpt><trkpt lat="44.40282" lon="11.0612717"><ele>426.0</ele><time>2026-04-25T11:41:55.39Z</time></trkpt><trkpt lat="44.402885" lon="11.0612533"><ele>426.0</ele><time>2026-04-25T11:41:56.391Z</time></trkpt><trkpt lat="44.40295" lon="11.0612467"><ele>426.0</ele><time>2026-04-25T11:41:57.39Z</time></trkpt><trkpt lat="44.4030133" lon="11.0612567"><ele>426.0</ele><time>2026-04-25T11:41:58.389Z</time></trkpt><trkpt lat="44.4031033" lon="11.061355"><ele>426.0</ele><time>2026-04-25T11:42:00.389Z</time></trkpt><trkpt lat="44.4031267" lon="11.0614467"><ele>426.0</ele><time>2026-04-25T11:42:01.39Z</time></trkpt><trkpt lat="44.40314" lon="11.0615467"><ele>426.0</ele><time>2026-04-25T11:42:02.391Z</time></trkpt><trkpt lat="44.4031533" lon="11.0616517"><ele>426.0</ele><time>2026-04-25T11:42:03.39Z</time></trkpt><trkpt lat="44.4031733" lon="11.061755"><ele>426.0</ele><time>2026-04-25T11:42:04.389Z</time></trkpt><trkpt lat="44.403205" lon="11.0618467"><ele>426.0</ele><time>2026-04-25T11:42:05.39Z</time></trkpt><trkpt lat="44.403235" lon="11.06194"><ele>426.0</ele><time>2026-04-25T11:42:06.389Z</time></trkpt><trkpt lat="44.4032583" lon="11.062045"><ele>425.6666666666667</ele><time>2026-04-25T11:42:07.391Z</time></trkpt><trkpt lat="44.4032783" lon="11.0621483"><ele>425.33333333333337</ele><time>2026-04-25T11:42:08.391Z</time></trkpt><trkpt lat="44.4032983" lon="11.0622583"><ele>425.0</ele><time>2026-04-25T11:42:09.389Z</time></trkpt><trkpt lat="44.4033117" lon="11.06235"><ele>424.6666666666667</ele><time>2026-04-25T11:42:10.389Z</time></trkpt><trkpt lat="44.4033583" lon="11.0625033"><ele>424.33333333333337</ele><time>2026-04-25T11:42:12.391Z</time></trkpt><trkpt lat="44.4034" lon="11.0625733"><ele>424.0</ele><time>2026-04-25T11:42:13.39Z</time></trkpt><trkpt lat="44.4034717" lon="11.0626867"><ele>424.00000000000006</ele><time>2026-04-25T11:42:15.388Z</time></trkpt><trkpt lat="44.4035067" lon="11.062795"><ele>424.0</ele><time>2026-04-25T11:42:17.391Z</time></trkpt><trkpt lat="44.403545" lon="11.0629283"><ele>424.0</ele><time>2026-04-25T11:42:19.392Z</time></trkpt><trkpt lat="44.4035817" lon="11.0630017"><ele>424.0</ele><time>2026-04-25T11:42:20.392Z</time></trkpt><trkpt lat="44.403625" lon="11.0630683"><ele>424.00000000000006</ele><time>2026-04-25T11:42:21.39Z</time></trkpt><trkpt lat="44.403675" lon="11.063145"><ele>424.0</ele><time>2026-04-25T11:42:22.39Z</time></trkpt><trkpt lat="44.4037183" lon="11.0632133"><ele>422.50000000000006</ele><time>2026-04-25T11:42:23.391Z</time></trkpt><trkpt lat="44.4037633" lon="11.0632983"><ele>421.0</ele><time>2026-04-25T11:42:24.39Z</time></trkpt><trkpt lat="44.4038033" lon="11.06341"><ele>419.5</ele><time>2026-04-25T11:42:25.39Z</time></trkpt><trkpt lat="44.40384" lon="11.0635267"><ele>418.0</ele><time>2026-04-25T11:42:26.391Z</time></trkpt><trkpt lat="44.4038717" lon="11.0636383"><ele>416.50000000000006</ele><time>2026-04-25T11:42:27.39Z</time></trkpt><trkpt lat="44.4039017" lon="11.0637617"><ele>415.0</ele><time>2026-04-25T11:42:28.391Z</time></trkpt><trkpt lat="44.4039383" lon="11.0638733"><ele>413.83333333333337</ele><time>2026-04-25T11:42:29.39Z</time></trkpt><trkpt lat="44.403985" lon="11.06397"><ele>412.6666666666667</ele><time>2026-04-25T11:42:30.389Z</time></trkpt><trkpt lat="44.40404" lon="11.0640533"><ele>411.5</ele><time>2026-04-25T11:42:31.39Z</time></trkpt><trkpt lat="44.4040933" lon="11.0641367"><ele>410.33333333333337</ele><time>2026-04-25T11:42:32.391Z</time></trkpt><trkpt lat="44.4041417" lon="11.0642183"><ele>409.1666666666667</ele><time>2026-04-25T11:42:33.388Z</time></trkpt><trkpt lat="44.404175" lon="11.064305"><ele>408.0</ele><time>2026-04-25T11:42:34.389Z</time></trkpt><trkpt lat="44.4041983" lon="11.064395"><ele>407.7142857142857</ele><time>2026-04-25T11:42:35.389Z</time></trkpt><trkpt lat="44.4042183" lon="11.0644833"><ele>407.42857142857144</ele><time>2026-04-25T11:42:36.39Z</time></trkpt><trkpt lat="44.4042417" lon="11.0645667"><ele>407.1428571428571</ele><time>2026-04-25T11:42:37.39Z</time></trkpt><trkpt lat="44.4042717" lon="11.064645"><ele>406.8571428571429</ele><time>2026-04-25T11:42:38.392Z</time></trkpt><trkpt lat="44.4043083" lon="11.0647267"><ele>406.57142857142856</ele><time>2026-04-25T11:42:39.389Z</time></trkpt><trkpt lat="44.4043383" lon="11.0648117"><ele>406.2857142857143</ele><time>2026-04-25T11:42:40.391Z</time></trkpt><trkpt lat="44.40436" lon="11.0649"><ele>406.0</ele><time>2026-04-25T11:42:41.39Z</time></trkpt><trkpt lat="44.4043667" lon="11.064995"><ele>404.6666666666667</ele><time>2026-04-25T11:42:42.39Z</time></trkpt><trkpt lat="44.4043633" lon="11.0651067"><ele>403.33333333333337</ele><time>2026-04-25T11:42:43.389Z</time></trkpt><trkpt lat="44.4043617" lon="11.0652233"><ele>402.0</ele><time>2026-04-25T11:42:44.39Z</time></trkpt><trkpt lat="44.4043617" lon="11.065335"><ele>400.66666666666663</ele><time>2026-04-25T11:42:45.389Z</time></trkpt><trkpt lat="44.404365" lon="11.065445"><ele>399.3333333333333</ele><time>2026-04-25T11:42:46.39Z</time></trkpt><trkpt lat="44.404375" lon="11.065565"><ele>398.0</ele><time>2026-04-25T11:42:47.388Z</time></trkpt><trkpt lat="44.40439" lon="11.0656933"><ele>395.2</ele><time>2026-04-25T11:42:48.39Z</time></trkpt><trkpt lat="44.40441" lon="11.0658167"><ele>392.4</ele><time>2026-04-25T11:42:49.39Z</time></trkpt><trkpt lat="44.4044333" lon="11.065935"><ele>389.59999999999997</ele><time>2026-04-25T11:42:50.391Z</time></trkpt><trkpt lat="44.4044567" lon="11.0660533"><ele>386.79999999999995</ele><time>2026-04-25T11:42:51.39Z</time></trkpt><trkpt lat="44.40448" lon="11.0661783"><ele>384.0</ele><time>2026-04-25T11:42:52.389Z</time></trkpt><trkpt lat="44.4045" lon="11.0663033"><ele>384.0</ele><time>2026-04-25T11:42:53.389Z</time></trkpt><trkpt lat="44.40452" lon="11.06643"><ele>384.0</ele><time>2026-04-25T11:42:54.39Z</time></trkpt><trkpt lat="44.4045417" lon="11.066565"><ele>384.0</ele><time>2026-04-25T11:42:55.389Z</time></trkpt><trkpt lat="44.4045617" lon="11.0667083"><ele>384.0</ele><time>2026-04-25T11:42:56.389Z</time></trkpt><trkpt lat="44.40458" lon="11.06685"><ele>384.0</ele><time>2026-04-25T11:42:57.39Z</time></trkpt><trkpt lat="44.4045917" lon="11.0669817"><ele>382.0</ele><time>2026-04-25T11:42:58.39Z</time></trkpt><trkpt lat="44.4046017" lon="11.0670967"><ele>380.0</ele><time>2026-04-25T11:42:59.388Z</time></trkpt><trkpt lat="44.404615" lon="11.0672"><ele>378.0</ele><time>2026-04-25T11:43:00.39Z</time></trkpt><trkpt lat="44.404665" lon="11.06733"><ele>376.0</ele><time>2026-04-25T11:43:02.391Z</time></trkpt><trkpt lat="44.4048" lon="11.067345"><ele>374.0</ele><time>2026-04-25T11:43:04.389Z</time></trkpt><trkpt lat="44.40488" lon="11.06734"><ele>374.0</ele><time>2026-04-25T11:43:05.389Z</time></trkpt><trkpt lat="44.404955" lon="11.06734"><ele>374.0</ele><time>2026-04-25T11:43:06.39Z</time></trkpt><trkpt lat="44.405025" lon="11.0673433"><ele>374.0</ele><time>2026-04-25T11:43:07.39Z</time></trkpt><trkpt lat="44.4051317" lon="11.0673583"><ele>374.0</ele><time>2026-04-25T11:43:09.39Z</time></trkpt><trkpt lat="44.405195" lon="11.067405"><ele>374.0</ele><time>2026-04-25T11:43:12.389Z</time></trkpt><trkpt lat="44.405145" lon="11.06732"><ele>374.0</ele><time>2026-04-25T11:43:18.389Z</time></trkpt><trkpt lat="44.40511" lon="11.06722"><ele>374.0</ele><time>2026-04-25T11:43:20.39Z</time></trkpt><trkpt lat="44.405125" lon="11.0670683"><ele>374.0</ele><time>2026-04-25T11:43:22.388Z</time></trkpt><trkpt lat="44.4051733" lon="11.0669733"><ele>374.0</ele><time>2026-04-25T11:43:24.39Z</time></trkpt><trkpt lat="44.405295" lon="11.066925"><ele>374.0</ele><time>2026-04-25T11:43:26.389Z</time></trkpt><trkpt lat="44.4053683" lon="11.0669183"><ele>374.0</ele><time>2026-04-25T11:43:27.389Z</time></trkpt><trkpt lat="44.4054383" lon="11.066915"><ele>372.4</ele><time>2026-04-25T11:43:28.389Z</time></trkpt><trkpt lat="44.4055567" lon="11.0668783"><ele>370.79999999999995</ele><time>2026-04-25T11:43:30.39Z</time></trkpt><trkpt lat="44.405615" lon="11.0668167"><ele>369.20000000000005</ele><time>2026-04-25T11:43:31.39Z</time></trkpt><trkpt lat="44.405675" lon="11.066735"><ele>367.6</ele><time>2026-04-25T11:43:32.39Z</time></trkpt><trkpt lat="44.4057317" lon="11.0666417"><ele>366.0</ele><time>2026-04-25T11:43:33.389Z</time></trkpt><trkpt lat="44.40579" lon="11.066545"><ele>365.8</ele><time>2026-04-25T11:43:34.389Z</time></trkpt><trkpt lat="44.40585" lon="11.0664467"><ele>365.6</ele><time>2026-04-25T11:43:35.389Z</time></trkpt><trkpt lat="44.405905" lon="11.0663433"><ele>365.4</ele><time>2026-04-25T11:43:36.39Z</time></trkpt><trkpt lat="44.4059733" lon="11.06623"><ele>365.2</ele><time>2026-04-25T11:43:37.39Z</time></trkpt><trkpt lat="44.406045" lon="11.066105"><ele>365.0</ele><time>2026-04-25T11:43:38.39Z</time></trkpt><trkpt lat="44.4061233" lon="11.06598"><ele>365.0</ele><time>2026-04-25T11:43:39.389Z</time></trkpt><trkpt lat="44.4062033" lon="11.0658567"><ele>365.0</ele><time>2026-04-25T11:43:40.389Z</time></trkpt><trkpt lat="44.4062867" lon="11.0657283"><ele>365.0</ele><time>2026-04-25T11:43:41.39Z</time></trkpt><trkpt lat="44.4063683" lon="11.0655967"><ele>365.0</ele><time>2026-04-25T11:43:42.388Z</time></trkpt><trkpt lat="44.4064433" lon="11.0654733"><ele>361.2</ele><time>2026-04-25T11:43:43.39Z</time></trkpt><trkpt lat="44.406515" lon="11.0653617"><ele>357.4</ele><time>2026-04-25T11:43:44.389Z</time></trkpt><trkpt lat="44.406585" lon="11.065255"><ele>353.6</ele><time>2026-04-25T11:43:45.389Z</time></trkpt><trkpt lat="44.4066533" lon="11.06516"><ele>349.8</ele><time>2026-04-25T11:43:46.39Z</time></trkpt><trkpt lat="44.4067117" lon="11.06507"><ele>346.0</ele><time>2026-04-25T11:43:47.389Z</time></trkpt><trkpt lat="44.4067633" lon="11.0649983"><ele>346.0</ele><time>2026-04-25T11:43:48.39Z</time></trkpt><trkpt lat="44.40682" lon="11.0649433"><ele>346.0</ele><time>2026-04-25T11:43:49.391Z</time></trkpt><trkpt lat="44.4069317" lon="11.0649367"><ele>346.0</ele><time>2026-04-25T11:43:51.392Z</time></trkpt><trkpt lat="44.4069983" lon="11.0649717"><ele>346.0</ele><time>2026-04-25T11:43:52.389Z</time></trkpt><trkpt lat="44.4070633" lon="11.0650383"><ele>346.0</ele><time>2026-04-25T11:43:53.389Z</time></trkpt><trkpt lat="44.4071317" lon="11.06513"><ele>346.0</ele><time>2026-04-25T11:43:54.39Z</time></trkpt><trkpt lat="44.4072183" lon="11.065235"><ele>344.25</ele><time>2026-04-25T11:43:55.39Z</time></trkpt><trkpt lat="44.4073183" lon="11.0653333"><ele>342.5</ele><time>2026-04-25T11:43:56.392Z</time></trkpt><trkpt lat="44.4074167" lon="11.0654383"><ele>340.75</ele><time>2026-04-25T11:43:57.391Z</time></trkpt><trkpt lat="44.4074983" lon="11.0655633"><ele>339.0</ele><time>2026-04-25T11:43:58.389Z</time></trkpt><trkpt lat="44.4075733" lon="11.0657033"><ele>339.75</ele><time>2026-04-25T11:43:59.39Z</time></trkpt><trkpt lat="44.407645" lon="11.0658483"><ele>340.5</ele><time>2026-04-25T11:44:00.389Z</time></trkpt><trkpt lat="44.4077233" lon="11.0659883"><ele>341.25</ele><time>2026-04-25T11:44:01.393Z</time></trkpt><trkpt lat="44.40781" lon="11.06612"><ele>342.0</ele><time>2026-04-25T11:44:02.39Z</time></trkpt><trkpt lat="44.4079083" lon="11.066235"><ele>342.0</ele><time>2026-04-25T11:44:03.39Z</time></trkpt><trkpt lat="44.408015" lon="11.06633"><ele>342.0</ele><time>2026-04-25T11:44:04.39Z</time></trkpt><trkpt lat="44.40813" lon="11.0664067"><ele>342.0</ele><time>2026-04-25T11:44:05.39Z</time></trkpt><trkpt lat="44.408255" lon="11.0664733"><ele>342.0</ele><time>2026-04-25T11:44:06.389Z</time></trkpt><trkpt lat="44.4083833" lon="11.066535"><ele>342.0</ele><time>2026-04-25T11:44:07.389Z</time></trkpt><trkpt lat="44.4085167" lon="11.0665867"><ele>342.0</ele><time>2026-04-25T11:44:08.391Z</time></trkpt><trkpt lat="44.4086567" lon="11.0666283"><ele>342.0</ele><time>2026-04-25T11:44:09.389Z</time></trkpt><trkpt lat="44.4087983" lon="11.0666583"><ele>342.0</ele><time>2026-04-25T11:44:10.39Z</time></trkpt><trkpt lat="44.4089317" lon="11.06669"><ele>345.5</ele><time>2026-04-25T11:44:11.389Z</time></trkpt><trkpt lat="44.4090583" lon="11.0667383"><ele>349.0</ele><time>2026-04-25T11:44:12.39Z</time></trkpt><trkpt lat="44.4091767" lon="11.0668117"><ele>352.5</ele><time>2026-04-25T11:44:13.39Z</time></trkpt><trkpt lat="44.4092917" lon="11.0669033"><ele>356.0</ele><time>2026-04-25T11:44:14.39Z</time></trkpt><trkpt lat="44.409405" lon="11.0670067"><ele>356.0</ele><time>2026-04-25T11:44:15.391Z</time></trkpt><trkpt lat="44.4095183" lon="11.0671067"><ele>356.0</ele><time>2026-04-25T11:44:16.39Z</time></trkpt><trkpt lat="44.4096283" lon="11.0672"><ele>356.0</ele><time>2026-04-25T11:44:17.389Z</time></trkpt><trkpt lat="44.40972" lon="11.06728"><ele>356.0</ele><time>2026-04-25T11:44:18.39Z</time></trkpt><trkpt lat="44.4097933" lon="11.0673383"><ele>358.1666666666667</ele><time>2026-04-25T11:44:19.389Z</time></trkpt><trkpt lat="44.4098617" lon="11.06738"><ele>360.33333333333337</ele><time>2026-04-25T11:44:20.389Z</time></trkpt><trkpt lat="44.4099333" lon="11.0673967"><ele>362.5</ele><time>2026-04-25T11:44:21.39Z</time></trkpt><trkpt lat="44.410015" lon="11.0673867"><ele>364.6666666666667</ele><time>2026-04-25T11:44:22.39Z</time></trkpt><trkpt lat="44.4101067" lon="11.067345"><ele>366.8333333333333</ele><time>2026-04-25T11:44:23.39Z</time></trkpt><trkpt lat="44.4102033" lon="11.0673"><ele>369.0</ele><time>2026-04-25T11:44:24.394Z</time></trkpt><trkpt lat="44.4103033" lon="11.0672567"><ele>369.0</ele><time>2026-04-25T11:44:25.389Z</time></trkpt><trkpt lat="44.4104067" lon="11.0672217"><ele>369.0</ele><time>2026-04-25T11:44:26.39Z</time></trkpt><trkpt lat="44.4105133" lon="11.06719"><ele>369.0</ele><time>2026-04-25T11:44:27.389Z</time></trkpt><trkpt lat="44.4106233" lon="11.0671617"><ele>369.0</ele><time>2026-04-25T11:44:28.39Z</time></trkpt><trkpt lat="44.410725" lon="11.0671283"><ele>369.0</ele><time>2026-04-25T11:44:29.389Z</time></trkpt><trkpt lat="44.41081" lon="11.0670967"><ele>370.4</ele><time>2026-04-25T11:44:30.39Z</time></trkpt><trkpt lat="44.41088" lon="11.0670683"><ele>371.79999999999995</ele><time>2026-04-25T11:44:31.389Z</time></trkpt><trkpt lat="44.4109783" lon="11.0670633"><ele>373.20000000000005</ele><time>2026-04-25T11:44:33.39Z</time></trkpt><trkpt lat="44.4110133" lon="11.067155"><ele>374.6</ele><time>2026-04-25T11:44:35.389Z</time></trkpt><trkpt lat="44.41101" lon="11.067335"><ele>376.0</ele><time>2026-04-25T11:44:37.39Z</time></trkpt><trkpt lat="44.4110133" lon="11.0674417"><ele>375.8</ele><time>2026-04-25T11:44:38.391Z</time></trkpt><trkpt lat="44.4110267" lon="11.0675633"><ele>375.6</ele><time>2026-04-25T11:44:39.388Z</time></trkpt><trkpt lat="44.4110533" lon="11.0677033"><ele>375.4</ele><time>2026-04-25T11:44:40.39Z</time></trkpt><trkpt lat="44.4110883" lon="11.0678433"><ele>375.2</ele><time>2026-04-25T11:44:41.39Z</time></trkpt><trkpt lat="44.4111233" lon="11.0679683"><ele>375.0</ele><time>2026-04-25T11:44:42.389Z</time></trkpt><trkpt lat="44.4111467" lon="11.068085"><ele>375.0</ele><time>2026-04-25T11:44:43.39Z</time></trkpt><trkpt lat="44.4111567" lon="11.0681917"><ele>375.0</ele><time>2026-04-25T11:44:44.39Z</time></trkpt><trkpt lat="44.4111483" lon="11.0682967"><ele>375.0</ele><time>2026-04-25T11:44:45.389Z</time></trkpt><trkpt lat="44.41111" lon="11.0684"><ele>375.0</ele><time>2026-04-25T11:44:46.39Z</time></trkpt><trkpt lat="44.4110517" lon="11.0685117"><ele>375.0</ele><time>2026-04-25T11:44:47.39Z</time></trkpt><trkpt lat="44.4109917" lon="11.0686367"><ele>375.0</ele><time>2026-04-25T11:44:48.39Z</time></trkpt><trkpt lat="44.4109433" lon="11.0687733"><ele>374.0</ele><time>2026-04-25T11:44:49.389Z</time></trkpt><trkpt lat="44.4109083" lon="11.0689083"><ele>373.0</ele><time>2026-04-25T11:44:50.391Z</time></trkpt><trkpt lat="44.4108767" lon="11.0690417"><ele>372.0</ele><time>2026-04-25T11:44:51.389Z</time></trkpt><trkpt lat="44.4108517" lon="11.0691733"><ele>371.0</ele><time>2026-04-25T11:44:52.39Z</time></trkpt><trkpt lat="44.410845" lon="11.0693033"><ele>370.0</ele><time>2026-04-25T11:44:53.39Z</time></trkpt><trkpt lat="44.4108567" lon="11.0694317"><ele>370.0</ele><time>2026-04-25T11:44:54.39Z</time></trkpt><trkpt lat="44.41089" lon="11.0695667"><ele>370.0</ele><time>2026-04-25T11:44:55.39Z</time></trkpt><trkpt lat="44.410935" lon="11.0696933"><ele>370.0</ele><time>2026-04-25T11:44:56.391Z</time></trkpt><trkpt lat="44.4109783" lon="11.0698167"><ele>370.0</ele><time>2026-04-25T11:44:57.391Z</time></trkpt><trkpt lat="44.4110167" lon="11.0699433"><ele>370.0</ele><time>2026-04-25T11:44:58.39Z</time></trkpt><trkpt lat="44.4110433" lon="11.07007"><ele>369.0</ele><time>2026-04-25T11:44:59.39Z</time></trkpt><trkpt lat="44.4110567" lon="11.070185"><ele>368.0</ele><time>2026-04-25T11:45:00.389Z</time></trkpt><trkpt lat="44.41106" lon="11.0702917"><ele>367.0</ele><time>2026-04-25T11:45:01.388Z</time></trkpt><trkpt lat="44.4110533" lon="11.0704017"><ele>366.0</ele><time>2026-04-25T11:45:02.39Z</time></trkpt><trkpt lat="44.4110417" lon="11.07051"><ele>365.0</ele><time>2026-04-25T11:45:03.389Z</time></trkpt><trkpt lat="44.4110217" lon="11.07061"><ele>364.0</ele><time>2026-04-25T11:45:04.389Z</time></trkpt><trkpt lat="44.410995" lon="11.070705"><ele>364.42857142857144</ele><time>2026-04-25T11:45:05.389Z</time></trkpt><trkpt lat="44.4109567" lon="11.0707883"><ele>364.8571428571429</ele><time>2026-04-25T11:45:06.39Z</time></trkpt><trkpt lat="44.4109217" lon="11.070865"><ele>365.2857142857143</ele><time>2026-04-25T11:45:07.39Z</time></trkpt><trkpt lat="44.410895" lon="11.070945"><ele>365.7142857142857</ele><time>2026-04-25T11:45:08.392Z</time></trkpt><trkpt lat="44.4108917" lon="11.0710433"><ele>366.14285714285717</ele><time>2026-04-25T11:45:09.39Z</time></trkpt><trkpt lat="44.4109033" lon="11.0711517"><ele>366.57142857142856</ele><time>2026-04-25T11:45:10.39Z</time></trkpt><trkpt lat="44.4109317" lon="11.07127"><ele>367.0</ele><time>2026-04-25T11:45:11.389Z</time></trkpt><trkpt lat="44.41097" lon="11.071395"><ele>367.0</ele><time>2026-04-25T11:45:12.389Z</time></trkpt><trkpt lat="44.4110117" lon="11.0715167"><ele>367.0</ele><time>2026-04-25T11:45:13.389Z</time></trkpt><trkpt lat="44.41105" lon="11.0716217"><ele>367.0</ele><time>2026-04-25T11:45:14.39Z</time></trkpt><trkpt lat="44.411085" lon="11.0717067"><ele>367.0</ele><time>2026-04-25T11:45:15.39Z</time></trkpt><trkpt lat="44.4111267" lon="11.0718233"><ele>367.0</ele><time>2026-04-25T11:45:17.39Z</time></trkpt><trkpt lat="44.4111017" lon="11.0719233"><ele>367.0</ele><time>2026-04-25T11:45:20.391Z</time></trkpt><trkpt lat="44.4109917" lon="11.0719733"><ele>368.0</ele><time>2026-04-25T11:45:22.389Z</time></trkpt><trkpt lat="44.41091" lon="11.0719933"><ele>369.0</ele><time>2026-04-25T11:45:23.39Z</time></trkpt><trkpt lat="44.4108233" lon="11.0720317"><ele>370.0</ele><time>2026-04-25T11:45:24.388Z</time></trkpt><trkpt lat="44.4107333" lon="11.072095"><ele>371.0</ele><time>2026-04-25T11:45:25.389Z</time></trkpt><trkpt lat="44.4106483" lon="11.0721683"><ele>372.0</ele><time>2026-04-25T11:45:26.39Z</time></trkpt><trkpt lat="44.4105683" lon="11.0722517"><ele>370.6</ele><time>2026-04-25T11:45:27.387Z</time></trkpt><trkpt lat="44.410485" lon="11.0723433"><ele>369.20000000000005</ele><time>2026-04-25T11:45:28.39Z</time></trkpt><trkpt lat="44.4104033" lon="11.072445"><ele>367.8</ele><time>2026-04-25T11:45:29.39Z</time></trkpt><trkpt lat="44.4103183" lon="11.0725467"><ele>366.4</ele><time>2026-04-25T11:45:30.39Z</time></trkpt><trkpt lat="44.4102383" lon="11.07264"><ele>365.0</ele><time>2026-04-25T11:45:31.391Z</time></trkpt><trkpt lat="44.41016" lon="11.0727333"><ele>365.0</ele><time>2026-04-25T11:45:32.39Z</time></trkpt><trkpt lat="44.41008" lon="11.0728267"><ele>365.0</ele><time>2026-04-25T11:45:33.39Z</time></trkpt><trkpt lat="44.4099967" lon="11.0729183"><ele>365.0</ele><time>2026-04-25T11:45:34.39Z</time></trkpt><trkpt lat="44.40991" lon="11.0730067"><ele>365.0</ele><time>2026-04-25T11:45:35.39Z</time></trkpt><trkpt lat="44.40983" lon="11.07309"><ele>365.0</ele><time>2026-04-25T11:45:36.391Z</time></trkpt><trkpt lat="44.4097583" lon="11.07317"><ele>365.0</ele><time>2026-04-25T11:45:37.389Z</time></trkpt><trkpt lat="44.4096833" lon="11.0732517"><ele>365.0</ele><time>2026-04-25T11:45:38.389Z</time></trkpt><trkpt lat="44.409605" lon="11.073335"><ele>365.0</ele><time>2026-04-25T11:45:39.39Z</time></trkpt><trkpt lat="44.409515" lon="11.0734183"><ele>365.0</ele><time>2026-04-25T11:45:40.389Z</time></trkpt><trkpt lat="44.4094117" lon="11.0734917"><ele>365.0</ele><time>2026-04-25T11:45:41.39Z</time></trkpt><trkpt lat="44.4092933" lon="11.07356"><ele>363.0</ele><time>2026-04-25T11:45:42.389Z</time></trkpt><trkpt lat="44.4091717" lon="11.0736317"><ele>361.0</ele><time>2026-04-25T11:45:43.389Z</time></trkpt><trkpt lat="44.4090483" lon="11.073705"><ele>359.0</ele><time>2026-04-25T11:45:44.39Z</time></trkpt><trkpt lat="44.4089217" lon="11.0737717"><ele>357.0</ele><time>2026-04-25T11:45:45.39Z</time></trkpt><trkpt lat="44.4088017" lon="11.073835"><ele>353.0</ele><time>2026-04-25T11:45:46.39Z</time></trkpt><trkpt lat="44.4086833" lon="11.0739"><ele>349.0</ele><time>2026-04-25T11:45:47.39Z</time></trkpt><trkpt lat="44.4085617" lon="11.0739683"><ele>345.0</ele><time>2026-04-25T11:45:48.389Z</time></trkpt><trkpt lat="44.408445" lon="11.0740367"><ele>341.0</ele><time>2026-04-25T11:45:49.39Z</time></trkpt><trkpt lat="44.4083267" lon="11.0740917"><ele>341.25</ele><time>2026-04-25T11:45:50.39Z</time></trkpt><trkpt lat="44.4082083" lon="11.07414"><ele>341.5</ele><time>2026-04-25T11:45:51.39Z</time></trkpt><trkpt lat="44.4080917" lon="11.0741817"><ele>341.75</ele><time>2026-04-25T11:45:52.39Z</time></trkpt><trkpt lat="44.40798" lon="11.074225"><ele>342.0</ele><time>2026-04-25T11:45:53.39Z</time></trkpt><trkpt lat="44.4078883" lon="11.0742717"><ele>342.0</ele><time>2026-04-25T11:45:54.39Z</time></trkpt><trkpt lat="44.4078117" lon="11.0743167"><ele>342.0</ele><time>2026-04-25T11:45:55.389Z</time></trkpt><trkpt lat="44.407745" lon="11.07436"><ele>342.0</ele><time>2026-04-25T11:45:56.39Z</time></trkpt><trkpt lat="44.4076517" lon="11.0744767"><ele>342.0</ele><time>2026-04-25T11:45:58.39Z</time></trkpt><trkpt lat="44.40758" lon="11.0745833"><ele>342.0</ele><time>2026-04-25T11:46:00.389Z</time></trkpt><trkpt lat="44.4075233" lon="11.074675"><ele>342.0</ele><time>2026-04-25T11:46:02.39Z</time></trkpt><trkpt lat="44.40748" lon="11.0747467"><ele>342.0</ele><time>2026-04-25T11:46:03.39Z</time></trkpt><trkpt lat="44.4074317" lon="11.0748333"><ele>342.0</ele><time>2026-04-25T11:46:04.389Z</time></trkpt><trkpt lat="44.4073767" lon="11.0749367"><ele>342.0</ele><time>2026-04-25T11:46:05.391Z</time></trkpt><trkpt lat="44.40733" lon="11.0750367"><ele>342.0</ele><time>2026-04-25T11:46:06.391Z</time></trkpt><trkpt lat="44.40729" lon="11.0751317"><ele>342.0</ele><time>2026-04-25T11:46:07.391Z</time></trkpt><trkpt lat="44.4072533" lon="11.0752267"><ele>343.1666666666667</ele><time>2026-04-25T11:46:08.391Z</time></trkpt><trkpt lat="44.407215" lon="11.07532"><ele>344.3333333333333</ele><time>2026-04-25T11:46:09.391Z</time></trkpt><trkpt lat="44.4071767" lon="11.0754167"><ele>345.5</ele><time>2026-04-25T11:46:10.39Z</time></trkpt><trkpt lat="44.407145" lon="11.0755033"><ele>346.66666666666663</ele><time>2026-04-25T11:46:11.391Z</time></trkpt><trkpt lat="44.4071233" lon="11.0755867"><ele>347.8333333333333</ele><time>2026-04-25T11:46:12.393Z</time></trkpt><trkpt lat="44.407095" lon="11.075735"><ele>349.0</ele><time>2026-04-25T11:46:14.391Z</time></trkpt><trkpt lat="44.4070683" lon="11.0758717"><ele>349.66666666666663</ele><time>2026-04-25T11:46:16.392Z</time></trkpt><trkpt lat="44.4070317" lon="11.0760217"><ele>350.3333333333333</ele><time>2026-04-25T11:46:18.391Z</time></trkpt><trkpt lat="44.4069883" lon="11.07619"><ele>351.0</ele><time>2026-04-25T11:46:20.39Z</time></trkpt><trkpt lat="44.4069617" lon="11.07628"><ele>351.6666666666667</ele><time>2026-04-25T11:46:21.39Z</time></trkpt><trkpt lat="44.4069367" lon="11.0763633"><ele>352.33333333333337</ele><time>2026-04-25T11:46:22.39Z</time></trkpt><trkpt lat="44.406905" lon="11.0764417"><ele>353.0</ele><time>2026-04-25T11:46:23.39Z</time></trkpt><trkpt lat="44.40687" lon="11.076515"><ele>353.0</ele><time>2026-04-25T11:46:24.392Z</time></trkpt><trkpt lat="44.40683" lon="11.0765917"><ele>353.0</ele><time>2026-04-25T11:46:25.39Z</time></trkpt><trkpt lat="44.4067867" lon="11.07667"><ele>353.0</ele><time>2026-04-25T11:46:26.391Z</time></trkpt><trkpt lat="44.4067433" lon="11.07675"><ele>353.0</ele><time>2026-04-25T11:46:27.391Z</time></trkpt><trkpt lat="44.4067017" lon="11.0768267"><ele>353.0</ele><time>2026-04-25T11:46:28.39Z</time></trkpt><trkpt lat="44.40666" lon="11.0769017"><ele>353.0</ele><time>2026-04-25T11:46:29.391Z</time></trkpt><trkpt lat="44.4065883" lon="11.077025"><ele>350.2</ele><time>2026-04-25T11:46:31.389Z</time></trkpt><trkpt lat="44.4065083" lon="11.077145"><ele>347.4</ele><time>2026-04-25T11:46:33.39Z</time></trkpt><trkpt lat="44.4064317" lon="11.0772583"><ele>344.59999999999997</ele><time>2026-04-25T11:46:35.39Z</time></trkpt><trkpt lat="44.40637" lon="11.0773633"><ele>341.79999999999995</ele><time>2026-04-25T11:46:37.39Z</time></trkpt><trkpt lat="44.4063467" lon="11.0774833"><ele>339.0</ele><time>2026-04-25T11:46:39.389Z</time></trkpt><trkpt lat="44.406375" lon="11.0776083"><ele>335.2</ele><time>2026-04-25T11:46:41.389Z</time></trkpt><trkpt lat="44.4063983" lon="11.07776"><ele>331.4</ele><time>2026-04-25T11:46:43.391Z</time></trkpt><trkpt lat="44.406405" lon="11.0779117"><ele>327.6</ele><time>2026-04-25T11:46:45.39Z</time></trkpt><trkpt lat="44.4064167" lon="11.078065"><ele>323.8</ele><time>2026-04-25T11:46:47.392Z</time></trkpt><trkpt lat="44.4064267" lon="11.07822"><ele>320.0</ele><time>2026-04-25T11:46:49.393Z</time></trkpt><trkpt lat="44.4064267" lon="11.0783683"><ele>317.2</ele><time>2026-04-25T11:46:51.392Z</time></trkpt><trkpt lat="44.4064033" lon="11.0785083"><ele>314.4</ele><time>2026-04-25T11:46:53.391Z</time></trkpt><trkpt lat="44.4063683" lon="11.078645"><ele>311.6</ele><time>2026-04-25T11:46:55.39Z</time></trkpt><trkpt lat="44.4063267" lon="11.0787717"><ele>308.8</ele><time>2026-04-25T11:46:57.39Z</time></trkpt><trkpt lat="44.406295" lon="11.0788833"><ele>306.0</ele><time>2026-04-25T11:46:59.39Z</time></trkpt><trkpt lat="44.4062617" lon="11.0789983"><ele>301.8</ele><time>2026-04-25T11:47:01.392Z</time></trkpt><trkpt lat="44.4062217" lon="11.0791267"><ele>297.6</ele><time>2026-04-25T11:47:03.392Z</time></trkpt><trkpt lat="44.4061667" lon="11.0792367"><ele>293.4</ele><time>2026-04-25T11:47:05.391Z</time></trkpt><trkpt lat="44.4061017" lon="11.0793267"><ele>289.2</ele><time>2026-04-25T11:47:07.39Z</time></trkpt><trkpt lat="44.4060317" lon="11.07943"><ele>285.0</ele><time>2026-04-25T11:47:09.39Z</time></trkpt><trkpt lat="44.4059633" lon="11.079555"><ele>285.0</ele><time>2026-04-25T11:47:11.389Z</time></trkpt><trkpt lat="44.4059117" lon="11.0796917"><ele>285.0</ele><time>2026-04-25T11:47:13.39Z</time></trkpt><trkpt lat="44.4058667" lon="11.07986"><ele>285.0</ele><time>2026-04-25T11:47:15.39Z</time></trkpt><trkpt lat="44.405845" lon="11.0799517"><ele>285.0</ele><time>2026-04-25T11:47:16.389Z</time></trkpt><trkpt lat="44.4058167" lon="11.08004"><ele>285.0</ele><time>2026-04-25T11:47:17.392Z</time></trkpt><trkpt lat="44.4057867" lon="11.080125"><ele>285.0</ele><time>2026-04-25T11:47:18.391Z</time></trkpt><trkpt lat="44.405755" lon="11.0802067"><ele>283.2857142857143</ele><time>2026-04-25T11:47:19.391Z</time></trkpt><trkpt lat="44.4057217" lon="11.080285"><ele>281.57142857142856</ele><time>2026-04-25T11:47:20.391Z</time></trkpt><trkpt lat="44.4056883" lon="11.0803633"><ele>279.8571428571429</ele><time>2026-04-25T11:47:21.39Z</time></trkpt><trkpt lat="44.405655" lon="11.0804383"><ele>278.1428571428571</ele><time>2026-04-25T11:47:22.391Z</time></trkpt><trkpt lat="44.4056233" lon="11.080515"><ele>276.42857142857144</ele><time>2026-04-25T11:47:23.391Z</time></trkpt><trkpt lat="44.4055633" lon="11.0806717"><ele>274.7142857142857</ele><time>2026-04-25T11:47:25.391Z</time></trkpt><trkpt lat="44.4055333" lon="11.0807517"><ele>273.0</ele><time>2026-04-25T11:47:26.391Z</time></trkpt><trkpt lat="44.4055033" lon="11.0808367"><ele>269.8</ele><time>2026-04-25T11:47:27.391Z</time></trkpt><trkpt lat="44.4054733" lon="11.08092"><ele>266.6</ele><time>2026-04-25T11:47:28.39Z</time></trkpt><trkpt lat="44.4054167" lon="11.08107"><ele>263.4</ele><time>2026-04-25T11:47:30.39Z</time></trkpt><trkpt lat="44.4053617" lon="11.08122"><ele>260.2</ele><time>2026-04-25T11:47:32.391Z</time></trkpt><trkpt lat="44.40529" lon="11.0813517"><ele>257.0</ele><time>2026-04-25T11:47:34.39Z</time></trkpt><trkpt lat="44.4052017" lon="11.081435"><ele>257.0</ele><time>2026-04-25T11:47:36.389Z</time></trkpt><trkpt lat="44.4051017" lon="11.0815017"><ele>257.0</ele><time>2026-04-25T11:47:38.39Z</time></trkpt><trkpt lat="44.4049867" lon="11.08156"><ele>257.0</ele><time>2026-04-25T11:47:40.389Z</time></trkpt><trkpt lat="44.4048867" lon="11.0816383"><ele>257.0</ele><time>2026-04-25T11:47:42.39Z</time></trkpt><trkpt lat="44.4048033" lon="11.0817583"><ele>255.75</ele><time>2026-04-25T11:47:44.392Z</time></trkpt><trkpt lat="44.4047417" lon="11.0819033"><ele>254.5</ele><time>2026-04-25T11:47:46.391Z</time></trkpt><trkpt lat="44.4047017" lon="11.0820633"><ele>253.25</ele><time>2026-04-25T11:47:48.393Z</time></trkpt><trkpt lat="44.404675" lon="11.0822167"><ele>252.0</ele><time>2026-04-25T11:47:50.393Z</time></trkpt><trkpt lat="44.40467" lon="11.0823567"><ele>249.8</ele><time>2026-04-25T11:47:52.39Z</time></trkpt><trkpt lat="44.4046767" lon="11.082505"><ele>247.6</ele><time>2026-04-25T11:47:54.39Z</time></trkpt><trkpt lat="44.4046883" lon="11.0826567"><ele>245.40000000000003</ele><time>2026-04-25T11:47:56.392Z</time></trkpt><trkpt lat="44.404695" lon="11.08282"><ele>243.20000000000002</ele><time>2026-04-25T11:47:58.39Z</time></trkpt><trkpt lat="44.4046983" lon="11.08296"><ele>241.0</ele><time>2026-04-25T11:48:00.391Z</time></trkpt><trkpt lat="44.404685" lon="11.0830733"><ele>239.99999999999997</ele><time>2026-04-25T11:48:02.395Z</time></trkpt><trkpt lat="44.4046283" lon="11.0831783"><ele>239.0</ele><time>2026-04-25T11:48:04.391Z</time></trkpt><trkpt lat="44.4045333" lon="11.08327"><ele>238.0</ele><time>2026-04-25T11:48:06.39Z</time></trkpt><trkpt lat="44.40448" lon="11.0833283"><ele>237.0</ele><time>2026-04-25T11:48:08.393Z</time></trkpt><trkpt lat="44.4044667" lon="11.0834533"><ele>235.99999999999997</ele><time>2026-04-25T11:48:11.39Z</time></trkpt><trkpt lat="44.4044983" lon="11.0835317"><ele>235.0</ele><time>2026-04-25T11:48:12.391Z</time></trkpt><trkpt lat="44.4045467" lon="11.0836233"><ele>235.0</ele><time>2026-04-25T11:48:13.391Z</time></trkpt><trkpt lat="44.4046067" lon="11.08373"><ele>235.0</ele><time>2026-04-25T11:48:14.392Z</time></trkpt><trkpt lat="44.4046733" lon="11.08385"><ele>235.0</ele><time>2026-04-25T11:48:15.393Z</time></trkpt><trkpt lat="44.4047483" lon="11.0839783"><ele>235.0</ele><time>2026-04-25T11:48:16.389Z</time></trkpt><trkpt lat="44.4048283" lon="11.0841217"><ele>234.25</ele><time>2026-04-25T11:48:17.393Z</time></trkpt><trkpt lat="44.4049133" lon="11.084275"><ele>233.5</ele><time>2026-04-25T11:48:18.391Z</time></trkpt><trkpt lat="44.4050017" lon="11.0844367"><ele>232.75</ele><time>2026-04-25T11:48:19.392Z</time></trkpt><trkpt lat="44.4050967" lon="11.0846033"><ele>232.0</ele><time>2026-04-25T11:48:20.393Z</time></trkpt><trkpt lat="44.405195" lon="11.084775"><ele>230.66666666666666</ele><time>2026-04-25T11:48:21.392Z</time></trkpt><trkpt lat="44.405295" lon="11.08495"><ele>229.33333333333331</ele><time>2026-04-25T11:48:22.391Z</time></trkpt><trkpt lat="44.4053933" lon="11.0851267"><ele>228.0</ele><time>2026-04-25T11:48:23.392Z</time></trkpt><trkpt lat="44.405495" lon="11.0852983"><ele>227.33333333333331</ele><time>2026-04-25T11:48:24.389Z</time></trkpt><trkpt lat="44.4055933" lon="11.0854683"><ele>226.66666666666666</ele><time>2026-04-25T11:48:25.39Z</time></trkpt><trkpt lat="44.4056933" lon="11.0856383"><ele>226.0</ele><time>2026-04-25T11:48:26.39Z</time></trkpt><trkpt lat="44.4057933" lon="11.08581"><ele>226.0</ele><time>2026-04-25T11:48:27.39Z</time></trkpt><trkpt lat="44.4058933" lon="11.0859833"><ele>226.0</ele><time>2026-04-25T11:48:28.392Z</time></trkpt><trkpt lat="44.40599" lon="11.08616"><ele>226.0</ele><time>2026-04-25T11:48:29.393Z</time></trkpt><trkpt lat="44.40609" lon="11.086335"><ele>226.0</ele><time>2026-04-25T11:48:30.39Z</time></trkpt><trkpt lat="44.4061933" lon="11.086505"><ele>226.0</ele><time>2026-04-25T11:48:31.392Z</time></trkpt><trkpt lat="44.4063" lon="11.0866733"><ele>226.0</ele><time>2026-04-25T11:48:32.393Z</time></trkpt><trkpt lat="44.40641" lon="11.08684"><ele>228.0</ele><time>2026-04-25T11:48:33.392Z</time></trkpt><trkpt lat="44.4065233" lon="11.087005"><ele>230.0</ele><time>2026-04-25T11:48:34.389Z</time></trkpt><trkpt lat="44.4066367" lon="11.08717"><ele>232.0</ele><time>2026-04-25T11:48:35.393Z</time></trkpt><trkpt lat="44.4067533" lon="11.0873383"><ele>229.0</ele><time>2026-04-25T11:48:36.39Z</time></trkpt><trkpt lat="44.40687" lon="11.0875067"><ele>226.0</ele><time>2026-04-25T11:48:37.393Z</time></trkpt><trkpt lat="44.40699" lon="11.0876767"><ele>223.0</ele><time>2026-04-25T11:48:38.39Z</time></trkpt><trkpt lat="44.4071133" lon="11.08785"><ele>223.0</ele><time>2026-04-25T11:48:39.39Z</time></trkpt><trkpt lat="44.4072367" lon="11.0880267"><ele>223.0</ele><time>2026-04-25T11:48:40.39Z</time></trkpt><trkpt lat="44.407355" lon="11.0881983"><ele>223.0</ele><time>2026-04-25T11:48:41.39Z</time></trkpt><trkpt lat="44.4074667" lon="11.0883567"><ele>223.0</ele><time>2026-04-25T11:48:42.391Z</time></trkpt><trkpt lat="44.4075817" lon="11.088515"><ele>223.0</ele><time>2026-04-25T11:48:43.392Z</time></trkpt><trkpt lat="44.4077" lon="11.088665"><ele>223.0</ele><time>2026-04-25T11:48:44.392Z</time></trkpt><trkpt lat="44.407825" lon="11.0888117"><ele>223.0</ele><time>2026-04-25T11:48:45.39Z</time></trkpt><trkpt lat="44.4079583" lon="11.08895"><ele>223.0</ele><time>2026-04-25T11:48:46.389Z</time></trkpt><trkpt lat="44.4080967" lon="11.0890817"><ele>223.0</ele><time>2026-04-25T11:48:47.393Z</time></trkpt><trkpt lat="44.408235" lon="11.0892117"><ele>222.66666666666666</ele><time>2026-04-25T11:48:48.392Z</time></trkpt><trkpt lat="44.408375" lon="11.0893417"><ele>222.33333333333331</ele><time>2026-04-25T11:48:49.391Z</time></trkpt><trkpt lat="44.408515" lon="11.0894733"><ele>222.0</ele><time>2026-04-25T11:48:50.392Z</time></trkpt><trkpt lat="44.4086583" lon="11.089605"><ele>222.0</ele><time>2026-04-25T11:48:51.39Z</time></trkpt><trkpt lat="44.4088" lon="11.0897367"><ele>222.0</ele><time>2026-04-25T11:48:52.392Z</time></trkpt><trkpt lat="44.40894" lon="11.0898667"><ele>222.0</ele><time>2026-04-25T11:48:53.392Z</time></trkpt><trkpt lat="44.4090817" lon="11.09"><ele>220.66666666666669</ele><time>2026-04-25T11:48:54.391Z</time></trkpt><trkpt lat="44.409225" lon="11.0901333"><ele>219.33333333333334</ele><time>2026-04-25T11:48:55.391Z</time></trkpt><trkpt lat="44.40937" lon="11.09027"><ele>218.0</ele><time>2026-04-25T11:48:56.392Z</time></trkpt><trkpt lat="44.4095167" lon="11.090405"><ele>218.0</ele><time>2026-04-25T11:48:57.392Z</time></trkpt><trkpt lat="44.40965" lon="11.0905333"><ele>218.0</ele><time>2026-04-25T11:48:58.392Z</time></trkpt><trkpt lat="44.40977" lon="11.0906533"><ele>218.0</ele><time>2026-04-25T11:48:59.39Z</time></trkpt><trkpt lat="44.4098733" lon="11.09076"><ele>218.0</ele><time>2026-04-25T11:49:00.39Z</time></trkpt><trkpt lat="44.4099567" lon="11.0908583"><ele>218.83333333333334</ele><time>2026-04-25T11:49:01.39Z</time></trkpt><trkpt lat="44.410015" lon="11.0909483"><ele>219.66666666666669</ele><time>2026-04-25T11:49:02.392Z</time></trkpt><trkpt lat="44.4100467" lon="11.0910417"><ele>220.5</ele><time>2026-04-25T11:49:03.39Z</time></trkpt><trkpt lat="44.41005" lon="11.091145"><ele>221.33333333333331</ele><time>2026-04-25T11:49:04.39Z</time></trkpt><trkpt lat="44.41002" lon="11.0912433"><ele>222.16666666666666</ele><time>2026-04-25T11:49:05.39Z</time></trkpt><trkpt lat="44.4099467" lon="11.0913467"><ele>223.0</ele><time>2026-04-25T11:49:06.391Z</time></trkpt><trkpt lat="44.4098417" lon="11.0914567"><ele>223.0</ele><time>2026-04-25T11:49:07.39Z</time></trkpt><trkpt lat="44.4097367" lon="11.0915717"><ele>223.0</ele><time>2026-04-25T11:49:08.391Z</time></trkpt><trkpt lat="44.4096283" lon="11.0917017"><ele>223.0</ele><time>2026-04-25T11:49:09.39Z</time></trkpt><trkpt lat="44.4095183" lon="11.09184"><ele>223.0</ele><time>2026-04-25T11:49:10.391Z</time></trkpt><trkpt lat="44.4094033" lon="11.0919783"><ele>221.0</ele><time>2026-04-25T11:49:11.39Z</time></trkpt><trkpt lat="44.4092867" lon="11.0921217"><ele>219.0</ele><time>2026-04-25T11:49:12.39Z</time></trkpt><trkpt lat="44.4091667" lon="11.09227"><ele>217.0</ele><time>2026-04-25T11:49:13.393Z</time></trkpt><trkpt lat="44.4090467" lon="11.0924233"><ele>216.66666666666666</ele><time>2026-04-25T11:49:14.391Z</time></trkpt><trkpt lat="44.40893" lon="11.0925817"><ele>216.33333333333331</ele><time>2026-04-25T11:49:15.39Z</time></trkpt><trkpt lat="44.408815" lon="11.0927433"><ele>216.0</ele><time>2026-04-25T11:49:16.391Z</time></trkpt><trkpt lat="44.4087033" lon="11.0929133"><ele>216.33333333333331</ele><time>2026-04-25T11:49:17.39Z</time></trkpt><trkpt lat="44.408595" lon="11.0930883"><ele>216.66666666666666</ele><time>2026-04-25T11:49:18.392Z</time></trkpt><trkpt lat="44.4084917" lon="11.0932717"><ele>217.0</ele><time>2026-04-25T11:49:19.392Z</time></trkpt><trkpt lat="44.40839" lon="11.09346"><ele>217.0</ele><time>2026-04-25T11:49:20.394Z</time></trkpt><trkpt lat="44.4082883" lon="11.0936517"><ele>217.0</ele><time>2026-04-25T11:49:21.392Z</time></trkpt><trkpt lat="44.4081833" lon="11.0938367"><ele>217.0</ele><time>2026-04-25T11:49:22.391Z</time></trkpt><trkpt lat="44.4080883" lon="11.0940133"><ele>216.75</ele><time>2026-04-25T11:49:23.389Z</time></trkpt><trkpt lat="44.4079883" lon="11.094185"><ele>216.5</ele><time>2026-04-25T11:49:24.391Z</time></trkpt><trkpt lat="44.4079017" lon="11.0943533"><ele>216.25</ele><time>2026-04-25T11:49:25.391Z</time></trkpt><trkpt lat="44.4078183" lon="11.0945083"><ele>216.0</ele><time>2026-04-25T11:49:26.392Z</time></trkpt><trkpt lat="44.4077383" lon="11.0946483"><ele>216.0</ele><time>2026-04-25T11:49:27.391Z</time></trkpt><trkpt lat="44.4076667" lon="11.0947767"><ele>216.00000000000003</ele><time>2026-04-25T11:49:28.39Z</time></trkpt><trkpt lat="44.4076033" lon="11.0949017"><ele>216.00000000000003</ele><time>2026-04-25T11:49:29.392Z</time></trkpt><trkpt lat="44.407555" lon="11.09504"><ele>216.0</ele><time>2026-04-25T11:49:30.393Z</time></trkpt><trkpt lat="44.40753" lon="11.095195"><ele>216.0</ele><time>2026-04-25T11:49:31.391Z</time></trkpt><trkpt lat="44.4075367" lon="11.09536"><ele>216.0</ele><time>2026-04-25T11:49:32.394Z</time></trkpt><trkpt lat="44.40757" lon="11.0955317"><ele>216.0</ele><time>2026-04-25T11:49:33.392Z</time></trkpt><trkpt lat="44.4076317" lon="11.0957"><ele>216.0</ele><time>2026-04-25T11:49:34.39Z</time></trkpt><trkpt lat="44.4077167" lon="11.0958667"><ele>216.0</ele><time>2026-04-25T11:49:35.393Z</time></trkpt><trkpt lat="44.4078133" lon="11.0960333"><ele>216.0</ele><time>2026-04-25T11:49:36.39Z</time></trkpt><trkpt lat="44.4079117" lon="11.0962017"><ele>216.0</ele><time>2026-04-25T11:49:37.393Z</time></trkpt><trkpt lat="44.4080117" lon="11.0963717"><ele>216.0</ele><time>2026-04-25T11:49:38.394Z</time></trkpt><trkpt lat="44.4081133" lon="11.0965483"><ele>214.66666666666669</ele><time>2026-04-25T11:49:39.391Z</time></trkpt><trkpt lat="44.408215" lon="11.09673"><ele>213.33333333333334</ele><time>2026-04-25T11:49:40.391Z</time></trkpt><trkpt lat="44.4083183" lon="11.096915"><ele>212.0</ele><time>2026-04-25T11:49:41.392Z</time></trkpt><trkpt lat="44.408425" lon="11.0970983"><ele>212.0</ele><time>2026-04-25T11:49:42.391Z</time></trkpt><trkpt lat="44.408525" lon="11.097275"><ele>212.0</ele><time>2026-04-25T11:49:43.391Z</time></trkpt><trkpt lat="44.408625" lon="11.0974467"><ele>212.0</ele><time>2026-04-25T11:49:44.391Z</time></trkpt><trkpt lat="44.4087233" lon="11.0976133"><ele>212.0</ele><time>2026-04-25T11:49:45.391Z</time></trkpt><trkpt lat="44.4088183" lon="11.097775"><ele>212.0</ele><time>2026-04-25T11:49:46.391Z</time></trkpt><trkpt lat="44.4089117" lon="11.097945"><ele>212.0</ele><time>2026-04-25T11:49:47.39Z</time></trkpt><trkpt lat="44.409" lon="11.0981233"><ele>211.33333333333334</ele><time>2026-04-25T11:49:48.391Z</time></trkpt><trkpt lat="44.40908" lon="11.0983117"><ele>210.66666666666669</ele><time>2026-04-25T11:49:49.389Z</time></trkpt><trkpt lat="44.4091533" lon="11.0985133"><ele>210.0</ele><time>2026-04-25T11:49:50.391Z</time></trkpt><trkpt lat="44.4092217" lon="11.0987267"><ele>210.0</ele><time>2026-04-25T11:49:51.39Z</time></trkpt><trkpt lat="44.4092833" lon="11.0989467"><ele>210.0</ele><time>2026-04-25T11:49:52.39Z</time></trkpt><trkpt lat="44.4093383" lon="11.099155"><ele>210.0</ele><time>2026-04-25T11:49:53.391Z</time></trkpt><trkpt lat="44.409385" lon="11.0993483"><ele>210.5</ele><time>2026-04-25T11:49:54.389Z</time></trkpt><trkpt lat="44.4094233" lon="11.0995283"><ele>211.0</ele><time>2026-04-25T11:49:55.392Z</time></trkpt><trkpt lat="44.409455" lon="11.0996883"><ele>211.5</ele><time>2026-04-25T11:49:56.391Z</time></trkpt><trkpt lat="44.4094783" lon="11.099835"><ele>212.0</ele><time>2026-04-25T11:49:57.39Z</time></trkpt><trkpt lat="44.4094917" lon="11.0999733"><ele>212.33333333333334</ele><time>2026-04-25T11:49:58.391Z</time></trkpt><trkpt lat="44.4094933" lon="11.100095"><ele>212.66666666666669</ele><time>2026-04-25T11:49:59.39Z</time></trkpt><trkpt lat="44.4095" lon="11.1001983"><ele>213.0</ele><time>2026-04-25T11:50:00.39Z</time></trkpt><trkpt lat="44.4095283" lon="11.1002783"><ele>213.33333333333331</ele><time>2026-04-25T11:50:01.39Z</time></trkpt><trkpt lat="44.4095817" lon="11.1003283"><ele>213.66666666666666</ele><time>2026-04-25T11:50:02.392Z</time></trkpt><trkpt lat="44.4096567" lon="11.100345"><ele>214.0</ele><time>2026-04-25T11:50:03.39Z</time></trkpt><trkpt lat="44.40976" lon="11.100325"><ele>213.0</ele><time>2026-04-25T11:50:04.389Z</time></trkpt><trkpt lat="44.4098817" lon="11.1002933"><ele>212.0</ele><time>2026-04-25T11:50:05.391Z</time></trkpt><trkpt lat="44.4100083" lon="11.10026"><ele>211.0</ele><time>2026-04-25T11:50:06.391Z</time></trkpt><trkpt lat="44.4101417" lon="11.1002267"><ele>210.0</ele><time>2026-04-25T11:50:07.391Z</time></trkpt><trkpt lat="44.41028" lon="11.1001967"><ele>210.0</ele><time>2026-04-25T11:50:08.391Z</time></trkpt><trkpt lat="44.4104283" lon="11.1001617"><ele>210.0</ele><time>2026-04-25T11:50:09.391Z</time></trkpt><trkpt lat="44.4105783" lon="11.1001217"><ele>210.0</ele><time>2026-04-25T11:50:10.391Z</time></trkpt><trkpt lat="44.4107233" lon="11.100085"><ele>209.5</ele><time>2026-04-25T11:50:11.39Z</time></trkpt><trkpt lat="44.4108567" lon="11.100055"><ele>209.0</ele><time>2026-04-25T11:50:12.39Z</time></trkpt><trkpt lat="44.410985" lon="11.1000267"><ele>208.5</ele><time>2026-04-25T11:50:13.391Z</time></trkpt><trkpt lat="44.4111067" lon="11.1000183"><ele>208.0</ele><time>2026-04-25T11:50:14.392Z</time></trkpt><trkpt lat="44.41123" lon="11.100045"><ele>206.5</ele><time>2026-04-25T11:50:15.39Z</time></trkpt><trkpt lat="44.41135" lon="11.1001117"><ele>205.0</ele><time>2026-04-25T11:50:16.39Z</time></trkpt><trkpt lat="44.4114683" lon="11.1002117"><ele>203.5</ele><time>2026-04-25T11:50:17.39Z</time></trkpt><trkpt lat="44.4115867" lon="11.1003367"><ele>202.0</ele><time>2026-04-25T11:50:18.391Z</time></trkpt><trkpt lat="44.41171" lon="11.1004733"><ele>202.0</ele><time>2026-04-25T11:50:19.391Z</time></trkpt><trkpt lat="44.4118383" lon="11.1006117"><ele>202.0</ele><time>2026-04-25T11:50:20.39Z</time></trkpt><trkpt lat="44.4119633" lon="11.10076"><ele>202.0</ele><time>2026-04-25T11:50:21.39Z</time></trkpt><trkpt lat="44.4120883" lon="11.1009117"><ele>201.66666666666666</ele><time>2026-04-25T11:50:22.39Z</time></trkpt><trkpt lat="44.4122133" lon="11.1010733"><ele>201.33333333333331</ele><time>2026-04-25T11:50:23.39Z</time></trkpt><trkpt lat="44.4123333" lon="11.1012383"><ele>201.0</ele><time>2026-04-25T11:50:24.39Z</time></trkpt><trkpt lat="44.41245" lon="11.1014017"><ele>201.0</ele><time>2026-04-25T11:50:25.39Z</time></trkpt><trkpt lat="44.4125717" lon="11.1015517"><ele>201.0</ele><time>2026-04-25T11:50:26.391Z</time></trkpt><trkpt lat="44.4127033" lon="11.10169"><ele>201.0</ele><time>2026-04-25T11:50:27.39Z</time></trkpt><trkpt lat="44.41285" lon="11.101815"><ele>201.33333333333331</ele><time>2026-04-25T11:50:28.39Z</time></trkpt><trkpt lat="44.4130033" lon="11.101925"><ele>201.66666666666666</ele><time>2026-04-25T11:50:29.39Z</time></trkpt><trkpt lat="44.4131533" lon="11.1020283"><ele>202.0</ele><time>2026-04-25T11:50:30.39Z</time></trkpt><trkpt lat="44.4133" lon="11.10214"><ele>202.0</ele><time>2026-04-25T11:50:31.39Z</time></trkpt><trkpt lat="44.41344" lon="11.1022733"><ele>202.0</ele><time>2026-04-25T11:50:32.391Z</time></trkpt><trkpt lat="44.4135783" lon="11.1024183"><ele>202.0</ele><time>2026-04-25T11:50:33.39Z</time></trkpt><trkpt lat="44.4137167" lon="11.1025733"><ele>201.0</ele><time>2026-04-25T11:50:34.39Z</time></trkpt><trkpt lat="44.4138567" lon="11.1027317"><ele>200.0</ele><time>2026-04-25T11:50:35.39Z</time></trkpt><trkpt lat="44.4139983" lon="11.1028883"><ele>199.0</ele><time>2026-04-25T11:50:36.39Z</time></trkpt><trkpt lat="44.4141333" lon="11.1030417"><ele>199.0</ele><time>2026-04-25T11:50:37.391Z</time></trkpt><trkpt lat="44.4142717" lon="11.1031933"><ele>199.0</ele><time>2026-04-25T11:50:38.391Z</time></trkpt><trkpt lat="44.41441" lon="11.10334"><ele>199.0</ele><time>2026-04-25T11:50:39.39Z</time></trkpt><trkpt lat="44.4145517" lon="11.10348"><ele>199.66666666666666</ele><time>2026-04-25T11:50:40.39Z</time></trkpt><trkpt lat="44.4146967" lon="11.1036083"><ele>200.33333333333331</ele><time>2026-04-25T11:50:41.391Z</time></trkpt><trkpt lat="44.4148467" lon="11.1037283"><ele>201.0</ele><time>2026-04-25T11:50:42.39Z</time></trkpt><trkpt lat="44.4150033" lon="11.1038317"><ele>201.0</ele><time>2026-04-25T11:50:43.389Z</time></trkpt><trkpt lat="44.4151633" lon="11.1039183"><ele>201.0</ele><time>2026-04-25T11:50:44.391Z</time></trkpt><trkpt lat="44.41533" lon="11.1039933"><ele>201.0</ele><time>2026-04-25T11:50:45.39Z</time></trkpt><trkpt lat="44.4155" lon="11.1040667"><ele>200.66666666666669</ele><time>2026-04-25T11:50:46.39Z</time></trkpt><trkpt lat="44.41567" lon="11.10415"><ele>200.33333333333334</ele><time>2026-04-25T11:50:47.39Z</time></trkpt><trkpt lat="44.4158333" lon="11.1042233"><ele>200.0</ele><time>2026-04-25T11:50:48.389Z</time></trkpt><trkpt lat="44.41599" lon="11.1042967"><ele>200.0</ele><time>2026-04-25T11:50:49.39Z</time></trkpt><trkpt lat="44.4161483" lon="11.1043733"><ele>200.0</ele><time>2026-04-25T11:50:50.391Z</time></trkpt><trkpt lat="44.4163083" lon="11.1044517"><ele>200.0</ele><time>2026-04-25T11:50:51.391Z</time></trkpt><trkpt lat="44.4164717" lon="11.1045283"><ele>199.66666666666669</ele><time>2026-04-25T11:50:52.39Z</time></trkpt><trkpt lat="44.4166283" lon="11.104605"><ele>199.33333333333331</ele><time>2026-04-25T11:50:53.39Z</time></trkpt><trkpt lat="44.416775" lon="11.1046817"><ele>199.0</ele><time>2026-04-25T11:50:54.389Z</time></trkpt><trkpt lat="44.416915" lon="11.1047483"><ele>199.0</ele><time>2026-04-25T11:50:55.391Z</time></trkpt><trkpt lat="44.417055" lon="11.104805"><ele>199.0</ele><time>2026-04-25T11:50:56.392Z</time></trkpt><trkpt lat="44.4171967" lon="11.1048383"><ele>199.0</ele><time>2026-04-25T11:50:57.392Z</time></trkpt><trkpt lat="44.4173433" lon="11.1048433"><ele>199.0</ele><time>2026-04-25T11:50:58.39Z</time></trkpt><trkpt lat="44.41748" lon="11.1048283"><ele>198.75</ele><time>2026-04-25T11:50:59.389Z</time></trkpt><trkpt lat="44.417615" lon="11.1048267"><ele>198.5</ele><time>2026-04-25T11:51:00.389Z</time></trkpt><trkpt lat="44.41775" lon="11.1048583"><ele>198.25</ele><time>2026-04-25T11:51:01.39Z</time></trkpt><trkpt lat="44.417885" lon="11.1049283"><ele>198.0</ele><time>2026-04-25T11:51:02.391Z</time></trkpt><trkpt lat="44.418025" lon="11.1050183"><ele>196.33333333333331</ele><time>2026-04-25T11:51:03.39Z</time></trkpt><trkpt lat="44.41817" lon="11.1051133"><ele>194.66666666666666</ele><time>2026-04-25T11:51:04.39Z</time></trkpt><trkpt lat="44.4183217" lon="11.1052083"><ele>193.0</ele><time>2026-04-25T11:51:05.391Z</time></trkpt><trkpt lat="44.41847" lon="11.1053"><ele>193.0</ele><time>2026-04-25T11:51:06.393Z</time></trkpt><trkpt lat="44.418615" lon="11.1053867"><ele>193.0</ele><time>2026-04-25T11:51:07.391Z</time></trkpt><trkpt lat="44.4187567" lon="11.1054717"><ele>193.0</ele><time>2026-04-25T11:51:08.39Z</time></trkpt><trkpt lat="44.41889" lon="11.1055533"><ele>193.0</ele><time>2026-04-25T11:51:09.391Z</time></trkpt><trkpt lat="44.4190117" lon="11.1056267"><ele>193.0</ele><time>2026-04-25T11:51:10.392Z</time></trkpt><trkpt lat="44.4191267" lon="11.1056967"><ele>193.0</ele><time>2026-04-25T11:51:11.389Z</time></trkpt><trkpt lat="44.4192333" lon="11.1057633"><ele>193.0</ele><time>2026-04-25T11:51:12.389Z</time></trkpt><trkpt lat="44.4193317" lon="11.1058283"><ele>192.8</ele><time>2026-04-25T11:51:13.392Z</time></trkpt><trkpt lat="44.4194167" lon="11.1058917"><ele>192.60000000000002</ele><time>2026-04-25T11:51:14.392Z</time></trkpt><trkpt lat="44.419485" lon="11.105965"><ele>192.39999999999998</ele><time>2026-04-25T11:51:15.392Z</time></trkpt><trkpt lat="44.41954" lon="11.1060767"><ele>192.2</ele><time>2026-04-25T11:51:16.392Z</time></trkpt><trkpt lat="44.41956" lon="11.1062117"><ele>192.0</ele><time>2026-04-25T11:51:17.39Z</time></trkpt><trkpt lat="44.4195467" lon="11.10635"><ele>192.0</ele><time>2026-04-25T11:51:18.392Z</time></trkpt><trkpt lat="44.419465" lon="11.106495"><ele>192.0</ele><time>2026-04-25T11:51:19.392Z</time></trkpt><trkpt lat="44.419415" lon="11.106625"><ele>192.0</ele><time>2026-04-25T11:51:20.393Z</time></trkpt><trkpt lat="44.419385" lon="11.1067433"><ele>192.0</ele><time>2026-04-25T11:51:21.392Z</time></trkpt><trkpt lat="44.4193717" lon="11.10686"><ele>192.0</ele><time>2026-04-25T11:51:22.392Z</time></trkpt><trkpt lat="44.4193917" lon="11.1069783"><ele>192.0</ele><time>2026-04-25T11:51:23.391Z</time></trkpt><trkpt lat="44.4194317" lon="11.10709"><ele>192.0</ele><time>2026-04-25T11:51:24.392Z</time></trkpt><trkpt lat="44.4194933" lon="11.1071917"><ele>192.0</ele><time>2026-04-25T11:51:25.392Z</time></trkpt><trkpt lat="44.4195717" lon="11.1073017"><ele>192.0</ele><time>2026-04-25T11:51:26.393Z</time></trkpt><trkpt lat="44.419655" lon="11.1074233"><ele>192.0</ele><time>2026-04-25T11:51:27.393Z</time></trkpt><trkpt lat="44.4197383" lon="11.1075533"><ele>192.0</ele><time>2026-04-25T11:51:28.389Z</time></trkpt><trkpt lat="44.4198233" lon="11.1076917"><ele>192.0</ele><time>2026-04-25T11:51:29.39Z</time></trkpt><trkpt lat="44.4199117" lon="11.1078433"><ele>192.0</ele><time>2026-04-25T11:51:30.39Z</time></trkpt><trkpt lat="44.4200017" lon="11.108005"><ele>192.0</ele><time>2026-04-25T11:51:31.39Z</time></trkpt><trkpt lat="44.4200917" lon="11.1081683"><ele>192.5</ele><time>2026-04-25T11:51:32.391Z</time></trkpt><trkpt lat="44.4201817" lon="11.1083133"><ele>193.0</ele><time>2026-04-25T11:51:33.39Z</time></trkpt><trkpt lat="44.4202767" lon="11.1084483"><ele>193.5</ele><time>2026-04-25T11:51:34.389Z</time></trkpt><trkpt lat="44.420375" lon="11.1085767"><ele>194.0</ele><time>2026-04-25T11:51:35.391Z</time></trkpt><trkpt lat="44.4204767" lon="11.108705"><ele>193.5</ele><time>2026-04-25T11:51:36.39Z</time></trkpt><trkpt lat="44.42058" lon="11.1088333"><ele>193.0</ele><time>2026-04-25T11:51:37.391Z</time></trkpt><trkpt lat="44.420685" lon="11.1089667"><ele>192.5</ele><time>2026-04-25T11:51:38.392Z</time></trkpt><trkpt lat="44.4207917" lon="11.109105"><ele>192.0</ele><time>2026-04-25T11:51:39.39Z</time></trkpt><trkpt lat="44.4209017" lon="11.1092483"><ele>192.0</ele><time>2026-04-25T11:51:40.389Z</time></trkpt><trkpt lat="44.4210117" lon="11.1094017"><ele>192.0</ele><time>2026-04-25T11:51:41.39Z</time></trkpt><trkpt lat="44.4211233" lon="11.1095683"><ele>192.0</ele><time>2026-04-25T11:51:42.389Z</time></trkpt><trkpt lat="44.4212483" lon="11.1097383"><ele>191.33333333333334</ele><time>2026-04-25T11:51:43.389Z</time></trkpt><trkpt lat="44.4213817" lon="11.1099017"><ele>190.66666666666669</ele><time>2026-04-25T11:51:44.391Z</time></trkpt><trkpt lat="44.4215133" lon="11.11005"><ele>190.0</ele><time>2026-04-25T11:51:45.391Z</time></trkpt><trkpt lat="44.4216417" lon="11.1101883"><ele>190.0</ele><time>2026-04-25T11:51:46.391Z</time></trkpt><trkpt lat="44.42177" lon="11.110325"><ele>190.0</ele><time>2026-04-25T11:51:47.391Z</time></trkpt><trkpt lat="44.4219017" lon="11.110455"><ele>190.0</ele><time>2026-04-25T11:51:48.393Z</time></trkpt><trkpt lat="44.422025" lon="11.1105833"><ele>190.0</ele><time>2026-04-25T11:51:49.392Z</time></trkpt><trkpt lat="44.4221433" lon="11.1107217"><ele>190.0</ele><time>2026-04-25T11:51:50.393Z</time></trkpt><trkpt lat="44.4222533" lon="11.11088"><ele>190.0</ele><time>2026-04-25T11:51:51.391Z</time></trkpt><trkpt lat="44.4223583" lon="11.11106"><ele>189.0</ele><time>2026-04-25T11:51:52.391Z</time></trkpt><trkpt lat="44.42245" lon="11.111245"><ele>188.0</ele><time>2026-04-25T11:51:53.391Z</time></trkpt><trkpt lat="44.4225383" lon="11.1114183"><ele>187.0</ele><time>2026-04-25T11:51:54.391Z</time></trkpt><trkpt lat="44.4226383" lon="11.1115683"><ele>187.25</ele><time>2026-04-25T11:51:55.391Z</time></trkpt><trkpt lat="44.4227533" lon="11.111695"><ele>187.5</ele><time>2026-04-25T11:51:56.39Z</time></trkpt><trkpt lat="44.4228767" lon="11.1117933"><ele>187.75</ele><time>2026-04-25T11:51:57.391Z</time></trkpt><trkpt lat="44.4229983" lon="11.111875"><ele>188.0</ele><time>2026-04-25T11:51:58.39Z</time></trkpt><trkpt lat="44.423115" lon="11.1119617"><ele>188.0</ele><time>2026-04-25T11:51:59.39Z</time></trkpt><trkpt lat="44.423225" lon="11.11207"><ele>188.0</ele><time>2026-04-25T11:52:00.389Z</time></trkpt><trkpt lat="44.4233333" lon="11.11219"><ele>188.0</ele><time>2026-04-25T11:52:01.39Z</time></trkpt><trkpt lat="44.4234283" lon="11.1123133"><ele>188.0</ele><time>2026-04-25T11:52:02.391Z</time></trkpt><trkpt lat="44.4235167" lon="11.1124217"><ele>188.0</ele><time>2026-04-25T11:52:03.389Z</time></trkpt><trkpt lat="44.4236067" lon="11.1125317"><ele>188.0</ele><time>2026-04-25T11:52:04.39Z</time></trkpt><trkpt lat="44.423705" lon="11.1126417"><ele>188.0</ele><time>2026-04-25T11:52:05.391Z</time></trkpt><trkpt lat="44.4238083" lon="11.1127583"><ele>188.0</ele><time>2026-04-25T11:52:06.39Z</time></trkpt><trkpt lat="44.4239183" lon="11.1128783"><ele>188.0</ele><time>2026-04-25T11:52:07.39Z</time></trkpt><trkpt lat="44.4240367" lon="11.1130033"><ele>188.0</ele><time>2026-04-25T11:52:08.391Z</time></trkpt><trkpt lat="44.4241567" lon="11.113135"><ele>188.0</ele><time>2026-04-25T11:52:09.39Z</time></trkpt><trkpt lat="44.42427" lon="11.1132733"><ele>187.75</ele><time>2026-04-25T11:52:10.39Z</time></trkpt><trkpt lat="44.424375" lon="11.1134083"><ele>187.5</ele><time>2026-04-25T11:52:11.391Z</time></trkpt><trkpt lat="44.4244783" lon="11.11354"><ele>187.25</ele><time>2026-04-25T11:52:12.39Z</time></trkpt><trkpt lat="44.424575" lon="11.11367"><ele>187.0</ele><time>2026-04-25T11:52:13.39Z</time></trkpt><trkpt lat="44.4246633" lon="11.1137883"><ele>187.0</ele><time>2026-04-25T11:52:14.391Z</time></trkpt><trkpt lat="44.4247433" lon="11.1138967"><ele>187.0</ele><time>2026-04-25T11:52:15.39Z</time></trkpt><trkpt lat="44.4248217" lon="11.114"><ele>187.0</ele><time>2026-04-25T11:52:16.39Z</time></trkpt><trkpt lat="44.4249083" lon="11.1141017"><ele>187.0</ele><time>2026-04-25T11:52:17.39Z</time></trkpt><trkpt lat="44.4250067" lon="11.114205"><ele>187.25</ele><time>2026-04-25T11:52:18.392Z</time></trkpt><trkpt lat="44.4251083" lon="11.1143133"><ele>187.5</ele><time>2026-04-25T11:52:19.391Z</time></trkpt><trkpt lat="44.4252117" lon="11.1144317"><ele>187.75</ele><time>2026-04-25T11:52:20.391Z</time></trkpt><trkpt lat="44.4253067" lon="11.1145517"><ele>188.0</ele><time>2026-04-25T11:52:21.392Z</time></trkpt><trkpt lat="44.4254083" lon="11.1146733"><ele>186.75</ele><time>2026-04-25T11:52:22.391Z</time></trkpt><trkpt lat="44.4255183" lon="11.1147883"><ele>185.5</ele><time>2026-04-25T11:52:23.39Z</time></trkpt><trkpt lat="44.4256333" lon="11.1149"><ele>184.25</ele><time>2026-04-25T11:52:24.392Z</time></trkpt><trkpt lat="44.4257517" lon="11.11502"><ele>183.0</ele><time>2026-04-25T11:52:25.392Z</time></trkpt><trkpt lat="44.4258717" lon="11.11515"><ele>183.0</ele><time>2026-04-25T11:52:26.393Z</time></trkpt><trkpt lat="44.4259917" lon="11.1152883"><ele>183.0</ele><time>2026-04-25T11:52:27.391Z</time></trkpt><trkpt lat="44.426115" lon="11.1154333"><ele>183.0</ele><time>2026-04-25T11:52:28.391Z</time></trkpt><trkpt lat="44.4262417" lon="11.1155783"><ele>183.33333333333334</ele><time>2026-04-25T11:52:29.39Z</time></trkpt><trkpt lat="44.4263717" lon="11.115725"><ele>183.66666666666669</ele><time>2026-04-25T11:52:30.391Z</time></trkpt><trkpt lat="44.4265033" lon="11.115875"><ele>184.0</ele><time>2026-04-25T11:52:31.39Z</time></trkpt><trkpt lat="44.426625" lon="11.1160133"><ele>184.0</ele><time>2026-04-25T11:52:32.391Z</time></trkpt><trkpt lat="44.4267333" lon="11.1161317"><ele>184.0</ele><time>2026-04-25T11:52:33.39Z</time></trkpt><trkpt lat="44.4268383" lon="11.1162283"><ele>184.0</ele><time>2026-04-25T11:52:34.389Z</time></trkpt><trkpt lat="44.4269533" lon="11.1163017"><ele>184.0</ele><time>2026-04-25T11:52:35.389Z</time></trkpt><trkpt lat="44.427075" lon="11.1163617"><ele>183.79999999999998</ele><time>2026-04-25T11:52:36.39Z</time></trkpt><trkpt lat="44.42719" lon="11.1164117"><ele>183.6</ele><time>2026-04-25T11:52:37.391Z</time></trkpt><trkpt lat="44.42729" lon="11.1164583"><ele>183.4</ele><time>2026-04-25T11:52:38.391Z</time></trkpt><trkpt lat="44.4273733" lon="11.1165267"><ele>183.2</ele><time>2026-04-25T11:52:39.39Z</time></trkpt><trkpt lat="44.4274483" lon="11.1166233"><ele>183.0</ele><time>2026-04-25T11:52:40.39Z</time></trkpt><trkpt lat="44.4275117" lon="11.116745"><ele>184.8</ele><time>2026-04-25T11:52:41.391Z</time></trkpt><trkpt lat="44.4275633" lon="11.1168717"><ele>186.60000000000002</ele><time>2026-04-25T11:52:42.39Z</time></trkpt><trkpt lat="44.4276033" lon="11.116995"><ele>188.39999999999998</ele><time>2026-04-25T11:52:43.391Z</time></trkpt><trkpt lat="44.427615" lon="11.1171183"><ele>190.2</ele><time>2026-04-25T11:52:44.391Z</time></trkpt><trkpt lat="44.4276083" lon="11.1172383"><ele>192.0</ele><time>2026-04-25T11:52:45.391Z</time></trkpt><trkpt lat="44.4276083" lon="11.1173617"><ele>194.0</ele><time>2026-04-25T11:52:46.39Z</time></trkpt><trkpt lat="44.42762" lon="11.1174833"><ele>196.0</ele><time>2026-04-25T11:52:47.391Z</time></trkpt><trkpt lat="44.4276583" lon="11.1175933"><ele>198.0</ele><time>2026-04-25T11:52:48.39Z</time></trkpt><trkpt lat="44.4277233" lon="11.1176933"><ele>200.0</ele><time>2026-04-25T11:52:49.389Z</time></trkpt><trkpt lat="44.4278" lon="11.1177867"><ele>202.0</ele><time>2026-04-25T11:52:50.391Z</time></trkpt><trkpt lat="44.4278767" lon="11.1178867"><ele>202.0</ele><time>2026-04-25T11:52:51.39Z</time></trkpt><trkpt lat="44.4279567" lon="11.11799"><ele>202.0</ele><time>2026-04-25T11:52:52.391Z</time></trkpt><trkpt lat="44.4280317" lon="11.1181083"><ele>202.0</ele><time>2026-04-25T11:52:53.39Z</time></trkpt><trkpt lat="44.4281033" lon="11.11823"><ele>202.0</ele><time>2026-04-25T11:52:54.391Z</time></trkpt><trkpt lat="44.428185" lon="11.1183533"><ele>201.75</ele><time>2026-04-25T11:52:55.391Z</time></trkpt><trkpt lat="44.4282817" lon="11.1184617"><ele>201.5</ele><time>2026-04-25T11:52:56.39Z</time></trkpt><trkpt lat="44.4283933" lon="11.1185517"><ele>201.25</ele><time>2026-04-25T11:52:57.391Z</time></trkpt><trkpt lat="44.4285067" lon="11.11863"><ele>201.0</ele><time>2026-04-25T11:52:58.389Z</time></trkpt><trkpt lat="44.4286167" lon="11.118705"><ele>201.0</ele><time>2026-04-25T11:52:59.39Z</time></trkpt><trkpt lat="44.4287217" lon="11.118785"><ele>201.0</ele><time>2026-04-25T11:53:00.393Z</time></trkpt><trkpt lat="44.428825" lon="11.1188667"><ele>201.0</ele><time>2026-04-25T11:53:01.392Z</time></trkpt><trkpt lat="44.428925" lon="11.1189583"><ele>201.0</ele><time>2026-04-25T11:53:02.393Z</time></trkpt><trkpt lat="44.4290267" lon="11.1190617"><ele>202.25</ele><time>2026-04-25T11:53:03.392Z</time></trkpt><trkpt lat="44.4291367" lon="11.11917"><ele>203.5</ele><time>2026-04-25T11:53:04.39Z</time></trkpt><trkpt lat="44.4292617" lon="11.1192833"><ele>204.75</ele><time>2026-04-25T11:53:05.391Z</time></trkpt><trkpt lat="44.4293933" lon="11.1194067"><ele>206.0</ele><time>2026-04-25T11:53:06.391Z</time></trkpt><trkpt lat="44.4295283" lon="11.1195217"><ele>203.0</ele><time>2026-04-25T11:53:07.391Z</time></trkpt><trkpt lat="44.4296617" lon="11.1196217"><ele>200.0</ele><time>2026-04-25T11:53:08.391Z</time></trkpt><trkpt lat="44.4298017" lon="11.1197167"><ele>197.0</ele><time>2026-04-25T11:53:09.391Z</time></trkpt><trkpt lat="44.42994" lon="11.1198067"><ele>197.0</ele><time>2026-04-25T11:53:10.39Z</time></trkpt><trkpt lat="44.43007" lon="11.1198917"><ele>197.0</ele><time>2026-04-25T11:53:11.389Z</time></trkpt><trkpt lat="44.4302" lon="11.1199783"><ele>197.0</ele><time>2026-04-25T11:53:12.39Z</time></trkpt><trkpt lat="44.4303333" lon="11.1200683"><ele>197.0</ele><time>2026-04-25T11:53:13.39Z</time></trkpt><trkpt lat="44.4304717" lon="11.1201633"><ele>196.75</ele><time>2026-04-25T11:53:14.391Z</time></trkpt><trkpt lat="44.4306083" lon="11.1202567"><ele>196.5</ele><time>2026-04-25T11:53:15.389Z</time></trkpt><trkpt lat="44.4307333" lon="11.1203467"><ele>196.25</ele><time>2026-04-25T11:53:16.391Z</time></trkpt><trkpt lat="44.4308533" lon="11.12043"><ele>196.0</ele><time>2026-04-25T11:53:17.392Z</time></trkpt><trkpt lat="44.4309667" lon="11.1205083"><ele>196.0</ele><time>2026-04-25T11:53:18.392Z</time></trkpt><trkpt lat="44.4310717" lon="11.1205817"><ele>196.0</ele><time>2026-04-25T11:53:19.393Z</time></trkpt><trkpt lat="44.4311733" lon="11.12065"><ele>196.0</ele><time>2026-04-25T11:53:20.393Z</time></trkpt><trkpt lat="44.431275" lon="11.1207067"><ele>196.0</ele><time>2026-04-25T11:53:21.391Z</time></trkpt><trkpt lat="44.4313833" lon="11.1207483"><ele>195.75</ele><time>2026-04-25T11:53:22.39Z</time></trkpt><trkpt lat="44.43151" lon="11.120755"><ele>195.5</ele><time>2026-04-25T11:53:23.39Z</time></trkpt><trkpt lat="44.4316483" lon="11.1207367"><ele>195.25</ele><time>2026-04-25T11:53:24.39Z</time></trkpt><trkpt lat="44.4318" lon="11.1207083"><ele>195.0</ele><time>2026-04-25T11:53:25.39Z</time></trkpt><trkpt lat="44.4319617" lon="11.1206767"><ele>194.66666666666669</ele><time>2026-04-25T11:53:26.391Z</time></trkpt><trkpt lat="44.4321267" lon="11.120655"><ele>194.33333333333334</ele><time>2026-04-25T11:53:27.39Z</time></trkpt><trkpt lat="44.4322933" lon="11.120635"><ele>194.0</ele><time>2026-04-25T11:53:28.391Z</time></trkpt><trkpt lat="44.43245" lon="11.1206167"><ele>193.0</ele><time>2026-04-25T11:53:29.39Z</time></trkpt><trkpt lat="44.4325867" lon="11.1205967"><ele>192.0</ele><time>2026-04-25T11:53:30.39Z</time></trkpt><trkpt lat="44.4327083" lon="11.1205817"><ele>191.0</ele><time>2026-04-25T11:53:31.39Z</time></trkpt><trkpt lat="44.4328217" lon="11.1205667"><ele>190.0</ele><time>2026-04-25T11:53:32.391Z</time></trkpt><trkpt lat="44.4329383" lon="11.1205467"><ele>189.5</ele><time>2026-04-25T11:53:33.39Z</time></trkpt><trkpt lat="44.4330633" lon="11.12053"><ele>189.0</ele><time>2026-04-25T11:53:34.39Z</time></trkpt><trkpt lat="44.433195" lon="11.1205133"><ele>188.5</ele><time>2026-04-25T11:53:35.39Z</time></trkpt><trkpt lat="44.433335" lon="11.1204933"><ele>188.0</ele><time>2026-04-25T11:53:36.389Z</time></trkpt><trkpt lat="44.4334817" lon="11.1204717"><ele>188.0</ele><time>2026-04-25T11:53:37.39Z</time></trkpt><trkpt lat="44.4336317" lon="11.1204467"><ele>188.0</ele><time>2026-04-25T11:53:38.391Z</time></trkpt><trkpt lat="44.4337867" lon="11.120425"><ele>188.0</ele><time>2026-04-25T11:53:39.39Z</time></trkpt><trkpt lat="44.4339483" lon="11.1204017"><ele>187.33333333333331</ele><time>2026-04-25T11:53:40.39Z</time></trkpt><trkpt lat="44.4341133" lon="11.1203783"><ele>186.66666666666666</ele><time>2026-04-25T11:53:41.39Z</time></trkpt><trkpt lat="44.434285" lon="11.120355"><ele>186.0</ele><time>2026-04-25T11:53:42.391Z</time></trkpt><trkpt lat="44.4344583" lon="11.120335"><ele>186.0</ele><time>2026-04-25T11:53:43.389Z</time></trkpt><trkpt lat="44.434635" lon="11.1203117"><ele>186.0</ele><time>2026-04-25T11:53:44.391Z</time></trkpt><trkpt lat="44.4348167" lon="11.12029"><ele>186.0</ele><time>2026-04-25T11:53:45.39Z</time></trkpt><trkpt lat="44.435" lon="11.1202667"><ele>185.33333333333334</ele><time>2026-04-25T11:53:46.39Z</time></trkpt><trkpt lat="44.4351833" lon="11.120245"><ele>184.66666666666669</ele><time>2026-04-25T11:53:47.392Z</time></trkpt><trkpt lat="44.4353583" lon="11.1202217"><ele>184.0</ele><time>2026-04-25T11:53:48.391Z</time></trkpt><trkpt lat="44.43553" lon="11.1201983"><ele>183.33333333333334</ele><time>2026-04-25T11:53:49.39Z</time></trkpt><trkpt lat="44.4357" lon="11.120175"><ele>182.66666666666666</ele><time>2026-04-25T11:53:50.391Z</time></trkpt><trkpt lat="44.4358733" lon="11.1201517"><ele>182.0</ele><time>2026-04-25T11:53:51.389Z</time></trkpt><trkpt lat="44.4360433" lon="11.1201317"><ele>182.0</ele><time>2026-04-25T11:53:52.391Z</time></trkpt><trkpt lat="44.4362067" lon="11.1201083"><ele>182.0</ele><time>2026-04-25T11:53:53.391Z</time></trkpt><trkpt lat="44.4363667" lon="11.1200883"><ele>182.0</ele><time>2026-04-25T11:53:54.389Z</time></trkpt><trkpt lat="44.4365217" lon="11.12007"><ele>183.25</ele><time>2026-04-25T11:53:55.39Z</time></trkpt><trkpt lat="44.43667" lon="11.1200467"><ele>184.5</ele><time>2026-04-25T11:53:56.392Z</time></trkpt><trkpt lat="44.43682" lon="11.12003"><ele>185.75</ele><time>2026-04-25T11:53:57.39Z</time></trkpt><trkpt lat="44.4369667" lon="11.1200167"><ele>187.0</ele><time>2026-04-25T11:53:58.39Z</time></trkpt><trkpt lat="44.4371083" lon="11.120005"><ele>186.0</ele><time>2026-04-25T11:53:59.389Z</time></trkpt><trkpt lat="44.4372417" lon="11.1199933"><ele>185.0</ele><time>2026-04-25T11:54:00.389Z</time></trkpt><trkpt lat="44.4373717" lon="11.1199833"><ele>184.0</ele><time>2026-04-25T11:54:01.39Z</time></trkpt><trkpt lat="44.4374867" lon="11.119975"><ele>183.0</ele><time>2026-04-25T11:54:02.39Z</time></trkpt><trkpt lat="44.4375867" lon="11.1199683"><ele>183.0</ele><time>2026-04-25T11:54:03.39Z</time></trkpt><trkpt lat="44.4376733" lon="11.1199483"><ele>183.0</ele><time>2026-04-25T11:54:04.39Z</time></trkpt><trkpt lat="44.4377483" lon="11.1198967"><ele>183.0</ele><time>2026-04-25T11:54:05.391Z</time></trkpt><trkpt lat="44.4378133" lon="11.1198017"><ele>183.0</ele><time>2026-04-25T11:54:06.39Z</time></trkpt><trkpt lat="44.4378583" lon="11.11967"><ele>183.0</ele><time>2026-04-25T11:54:07.39Z</time></trkpt><trkpt lat="44.4378817" lon="11.11951"><ele>182.0</ele><time>2026-04-25T11:54:08.393Z</time></trkpt><trkpt lat="44.437905" lon="11.1193383"><ele>181.0</ele><time>2026-04-25T11:54:09.391Z</time></trkpt><trkpt lat="44.4379233" lon="11.11916"><ele>180.0</ele><time>2026-04-25T11:54:10.39Z</time></trkpt><trkpt lat="44.4379417" lon="11.11899"><ele>179.0</ele><time>2026-04-25T11:54:11.39Z</time></trkpt><trkpt lat="44.4379617" lon="11.118835"><ele>178.0</ele><time>2026-04-25T11:54:12.391Z</time></trkpt><trkpt lat="44.4379783" lon="11.1186833"><ele>177.0</ele><time>2026-04-25T11:54:13.392Z</time></trkpt><trkpt lat="44.4379933" lon="11.118525"><ele>176.0</ele><time>2026-04-25T11:54:14.392Z</time></trkpt><trkpt lat="44.43801" lon="11.1183617"><ele>175.0</ele><time>2026-04-25T11:54:15.392Z</time></trkpt><trkpt lat="44.4380317" lon="11.1181917"><ele>174.5</ele><time>2026-04-25T11:54:16.391Z</time></trkpt><trkpt lat="44.438055" lon="11.1180217"><ele>174.0</ele><time>2026-04-25T11:54:17.392Z</time></trkpt><trkpt lat="44.438085" lon="11.11786"><ele>173.5</ele><time>2026-04-25T11:54:18.391Z</time></trkpt><trkpt lat="44.4381217" lon="11.11771"><ele>173.0</ele><time>2026-04-25T11:54:19.39Z</time></trkpt><trkpt lat="44.4381617" lon="11.117565"><ele>173.0</ele><time>2026-04-25T11:54:20.391Z</time></trkpt><trkpt lat="44.4381933" lon="11.11743"><ele>173.0</ele><time>2026-04-25T11:54:21.389Z</time></trkpt><trkpt lat="44.4382183" lon="11.1173083"><ele>173.0</ele><time>2026-04-25T11:54:22.391Z</time></trkpt><trkpt lat="44.4382483" lon="11.1172117"><ele>173.0</ele><time>2026-04-25T11:54:23.39Z</time></trkpt><trkpt lat="44.4382833" lon="11.1171317"><ele>173.0</ele><time>2026-04-25T11:54:24.391Z</time></trkpt><trkpt lat="44.4383733" lon="11.1170417"><ele>173.0</ele><time>2026-04-25T11:54:26.39Z</time></trkpt><trkpt lat="44.43844" lon="11.1170433"><ele>171.25</ele><time>2026-04-25T11:54:27.39Z</time></trkpt><trkpt lat="44.4385267" lon="11.1170717"><ele>169.5</ele><time>2026-04-25T11:54:28.39Z</time></trkpt><trkpt lat="44.4386233" lon="11.1171067"><ele>167.75</ele><time>2026-04-25T11:54:29.39Z</time></trkpt><trkpt lat="44.4387517" lon="11.1171517"><ele>166.0</ele><time>2026-04-25T11:54:30.39Z</time></trkpt><trkpt lat="44.43888" lon="11.11719"><ele>165.25</ele><time>2026-04-25T11:54:31.389Z</time></trkpt><trkpt lat="44.439015" lon="11.1172317"><ele>164.5</ele><time>2026-04-25T11:54:32.39Z</time></trkpt><trkpt lat="44.4391533" lon="11.1172817"><ele>163.75</ele><time>2026-04-25T11:54:33.391Z</time></trkpt><trkpt lat="44.4392967" lon="11.1173333"><ele>163.0</ele><time>2026-04-25T11:54:34.39Z</time></trkpt><trkpt lat="44.4394467" lon="11.117385"><ele>164.0</ele><time>2026-04-25T11:54:35.391Z</time></trkpt><trkpt lat="44.4395967" lon="11.1174333"><ele>165.0</ele><time>2026-04-25T11:54:36.392Z</time></trkpt><trkpt lat="44.4397417" lon="11.1174867"><ele>166.0</ele><time>2026-04-25T11:54:37.392Z</time></trkpt><trkpt lat="44.4398883" lon="11.1175467"><ele>166.0</ele><time>2026-04-25T11:54:38.391Z</time></trkpt><trkpt lat="44.4400333" lon="11.1176167"><ele>166.0</ele><time>2026-04-25T11:54:39.39Z</time></trkpt><trkpt lat="44.44018" lon="11.1176917"><ele>166.0</ele><time>2026-04-25T11:54:40.39Z</time></trkpt><trkpt lat="44.4403267" lon="11.1177683"><ele>164.33333333333334</ele><time>2026-04-25T11:54:41.391Z</time></trkpt><trkpt lat="44.4404783" lon="11.11783"><ele>162.66666666666666</ele><time>2026-04-25T11:54:42.391Z</time></trkpt><trkpt lat="44.4406283" lon="11.1178767"><ele>161.0</ele><time>2026-04-25T11:54:43.392Z</time></trkpt><trkpt lat="44.4407867" lon="11.1179033"><ele>161.0</ele><time>2026-04-25T11:54:44.39Z</time></trkpt><trkpt lat="44.44095" lon="11.1179167"><ele>161.0</ele><time>2026-04-25T11:54:45.39Z</time></trkpt><trkpt lat="44.441115" lon="11.11792"><ele>161.0</ele><time>2026-04-25T11:54:46.39Z</time></trkpt><trkpt lat="44.4412767" lon="11.1179267"><ele>161.0</ele><time>2026-04-25T11:54:47.39Z</time></trkpt><trkpt lat="44.4414383" lon="11.1179383"><ele>161.0</ele><time>2026-04-25T11:54:48.39Z</time></trkpt><trkpt lat="44.441605" lon="11.1179533"><ele>161.0</ele><time>2026-04-25T11:54:49.39Z</time></trkpt><trkpt lat="44.4417717" lon="11.1179667"><ele>161.0</ele><time>2026-04-25T11:54:50.391Z</time></trkpt><trkpt lat="44.44194" lon="11.1179783"><ele>161.0</ele><time>2026-04-25T11:54:51.39Z</time></trkpt><trkpt lat="44.4421067" lon="11.1179883"><ele>161.0</ele><time>2026-04-25T11:54:52.389Z</time></trkpt><trkpt lat="44.442275" lon="11.1179967"><ele>160.33333333333331</ele><time>2026-04-25T11:54:53.39Z</time></trkpt><trkpt lat="44.4424417" lon="11.118005"><ele>159.66666666666666</ele><time>2026-04-25T11:54:54.389Z</time></trkpt><trkpt lat="44.4426083" lon="11.1180067"><ele>159.0</ele><time>2026-04-25T11:54:55.39Z</time></trkpt><trkpt lat="44.44278" lon="11.1180133"><ele>159.0</ele><time>2026-04-25T11:54:56.39Z</time></trkpt><trkpt lat="44.4429583" lon="11.1180217"><ele>159.0</ele><time>2026-04-25T11:54:57.39Z</time></trkpt><trkpt lat="44.443145" lon="11.1180283"><ele>159.0</ele><time>2026-04-25T11:54:58.39Z</time></trkpt><trkpt lat="44.44333" lon="11.1180367"><ele>159.0</ele><time>2026-04-25T11:54:59.389Z</time></trkpt><trkpt lat="44.4435067" lon="11.1180433"><ele>159.0</ele><time>2026-04-25T11:55:00.39Z</time></trkpt><trkpt lat="44.4436733" lon="11.11805"><ele>159.0</ele><time>2026-04-25T11:55:01.389Z</time></trkpt><trkpt lat="44.4438367" lon="11.1180583"><ele>158.33333333333334</ele><time>2026-04-25T11:55:02.391Z</time></trkpt><trkpt lat="44.4439983" lon="11.1180717"><ele>157.66666666666669</ele><time>2026-04-25T11:55:03.39Z</time></trkpt><trkpt lat="44.44415" lon="11.1180883"><ele>157.0</ele><time>2026-04-25T11:55:04.39Z</time></trkpt><trkpt lat="44.444295" lon="11.118115"><ele>157.0</ele><time>2026-04-25T11:55:05.39Z</time></trkpt><trkpt lat="44.44444" lon="11.11816"><ele>157.0</ele><time>2026-04-25T11:55:06.395Z</time></trkpt><trkpt lat="44.4445833" lon="11.1182283"><ele>157.0</ele><time>2026-04-25T11:55:07.389Z</time></trkpt><trkpt lat="44.4447233" lon="11.1183117"><ele>158.33333333333334</ele><time>2026-04-25T11:55:08.391Z</time></trkpt><trkpt lat="44.44486" lon="11.118405"><ele>159.66666666666666</ele><time>2026-04-25T11:55:09.39Z</time></trkpt><trkpt lat="44.4450017" lon="11.1185067"><ele>161.0</ele><time>2026-04-25T11:55:10.39Z</time></trkpt><trkpt lat="44.445145" lon="11.1186083"><ele>161.0</ele><time>2026-04-25T11:55:11.392Z</time></trkpt><trkpt lat="44.4452933" lon="11.1187083"><ele>161.0</ele><time>2026-04-25T11:55:12.39Z</time></trkpt><trkpt lat="44.44544" lon="11.1188017"><ele>161.0</ele><time>2026-04-25T11:55:13.391Z</time></trkpt><trkpt lat="44.4455833" lon="11.1188983"><ele>159.66666666666666</ele><time>2026-04-25T11:55:14.392Z</time></trkpt><trkpt lat="44.4457267" lon="11.119"><ele>158.33333333333334</ele><time>2026-04-25T11:55:15.39Z</time></trkpt><trkpt lat="44.44587" lon="11.1191217"><ele>157.0</ele><time>2026-04-25T11:55:16.39Z</time></trkpt><trkpt lat="44.4460133" lon="11.1192583"><ele>157.0</ele><time>2026-04-25T11:55:17.389Z</time></trkpt><trkpt lat="44.4461533" lon="11.1194"><ele>157.0</ele><time>2026-04-25T11:55:18.393Z</time></trkpt><trkpt lat="44.446285" lon="11.1195367"><ele>157.0</ele><time>2026-04-25T11:55:19.391Z</time></trkpt><trkpt lat="44.4464133" lon="11.119675"><ele>157.0</ele><time>2026-04-25T11:55:20.392Z</time></trkpt><trkpt lat="44.4465383" lon="11.1198083"><ele>157.0</ele><time>2026-04-25T11:55:21.392Z</time></trkpt><trkpt lat="44.4466633" lon="11.1199367"><ele>157.0</ele><time>2026-04-25T11:55:22.391Z</time></trkpt><trkpt lat="44.44679" lon="11.120045"><ele>157.33333333333334</ele><time>2026-04-25T11:55:23.392Z</time></trkpt><trkpt lat="44.446925" lon="11.1201217"><ele>157.66666666666666</ele><time>2026-04-25T11:55:24.392Z</time></trkpt><trkpt lat="44.44707" lon="11.120165"><ele>158.0</ele><time>2026-04-25T11:55:25.39Z</time></trkpt><trkpt lat="44.4472267" lon="11.1201817"><ele>158.0</ele><time>2026-04-25T11:55:26.391Z</time></trkpt><trkpt lat="44.4473917" lon="11.1201817"><ele>158.0</ele><time>2026-04-25T11:55:27.391Z</time></trkpt><trkpt lat="44.4475633" lon="11.1201733"><ele>158.0</ele><time>2026-04-25T11:55:28.39Z</time></trkpt><trkpt lat="44.4477333" lon="11.120165"><ele>158.0</ele><time>2026-04-25T11:55:29.391Z</time></trkpt><trkpt lat="44.4479" lon="11.12015"><ele>158.0</ele><time>2026-04-25T11:55:30.39Z</time></trkpt><trkpt lat="44.4480683" lon="11.12012"><ele>158.0</ele><time>2026-04-25T11:55:31.39Z</time></trkpt><trkpt lat="44.4482317" lon="11.12007"><ele>157.33333333333331</ele><time>2026-04-25T11:55:32.391Z</time></trkpt><trkpt lat="44.4483933" lon="11.1200033"><ele>156.66666666666666</ele><time>2026-04-25T11:55:33.39Z</time></trkpt><trkpt lat="44.448555" lon="11.1199283"><ele>156.0</ele><time>2026-04-25T11:55:34.389Z</time></trkpt><trkpt lat="44.448715" lon="11.1198517"><ele>154.33333333333334</ele><time>2026-04-25T11:55:35.39Z</time></trkpt><trkpt lat="44.4488717" lon="11.1197783"><ele>152.66666666666669</ele><time>2026-04-25T11:55:36.39Z</time></trkpt><trkpt lat="44.4490283" lon="11.1197133"><ele>151.0</ele><time>2026-04-25T11:55:37.39Z</time></trkpt><trkpt lat="44.4491883" lon="11.1196667"><ele>151.0</ele><time>2026-04-25T11:55:38.39Z</time></trkpt><trkpt lat="44.44935" lon="11.119635"><ele>151.0</ele><time>2026-04-25T11:55:39.39Z</time></trkpt><trkpt lat="44.4495133" lon="11.1196233"><ele>151.0</ele><time>2026-04-25T11:55:40.39Z</time></trkpt><trkpt lat="44.4496783" lon="11.1196167"><ele>150.33333333333334</ele><time>2026-04-25T11:55:41.39Z</time></trkpt><trkpt lat="44.4498467" lon="11.1196117"><ele>149.66666666666666</ele><time>2026-04-25T11:55:42.39Z</time></trkpt><trkpt lat="44.4500167" lon="11.1196083"><ele>149.0</ele><time>2026-04-25T11:55:43.39Z</time></trkpt><trkpt lat="44.4501883" lon="11.1196083"><ele>149.0</ele><time>2026-04-25T11:55:44.393Z</time></trkpt><trkpt lat="44.4503617" lon="11.1196083"><ele>149.0</ele><time>2026-04-25T11:55:45.391Z</time></trkpt><trkpt lat="44.4505367" lon="11.1196067"><ele>149.0</ele><time>2026-04-25T11:55:46.39Z</time></trkpt><trkpt lat="44.450715" lon="11.1196033"><ele>149.33333333333331</ele><time>2026-04-25T11:55:47.39Z</time></trkpt><trkpt lat="44.450895" lon="11.1196033"><ele>149.66666666666666</ele><time>2026-04-25T11:55:48.39Z</time></trkpt><trkpt lat="44.451075" lon="11.1196033"><ele>150.0</ele><time>2026-04-25T11:55:49.39Z</time></trkpt><trkpt lat="44.4512567" lon="11.1196017"><ele>149.66666666666666</ele><time>2026-04-25T11:55:50.39Z</time></trkpt><trkpt lat="44.451435" lon="11.1195983"><ele>149.33333333333331</ele><time>2026-04-25T11:55:51.392Z</time></trkpt><trkpt lat="44.451615" lon="11.1195883"><ele>149.0</ele><time>2026-04-25T11:55:52.389Z</time></trkpt><trkpt lat="44.4517983" lon="11.119575"><ele>149.0</ele><time>2026-04-25T11:55:53.387Z</time></trkpt><trkpt lat="44.45198" lon="11.11957"><ele>149.0</ele><time>2026-04-25T11:55:54.388Z</time></trkpt><trkpt lat="44.4521633" lon="11.11957"><ele>149.0</ele><time>2026-04-25T11:55:55.387Z</time></trkpt><trkpt lat="44.4523467" lon="11.1195667"><ele>148.66666666666666</ele><time>2026-04-25T11:55:56.39Z</time></trkpt><trkpt lat="44.4525267" lon="11.1195667"><ele>148.33333333333334</ele><time>2026-04-25T11:55:57.396Z</time></trkpt><trkpt lat="44.4527083" lon="11.119565"><ele>148.0</ele><time>2026-04-25T11:55:58.391Z</time></trkpt><trkpt lat="44.4528833" lon="11.1195617"><ele>147.33333333333334</ele><time>2026-04-25T11:55:59.396Z</time></trkpt><trkpt lat="44.4530517" lon="11.1195583"><ele>146.66666666666666</ele><time>2026-04-25T11:56:00.39Z</time></trkpt><trkpt lat="44.4532183" lon="11.1195567"><ele>146.0</ele><time>2026-04-25T11:56:01.39Z</time></trkpt><trkpt lat="44.45338" lon="11.1195567"><ele>146.0</ele><time>2026-04-25T11:56:02.391Z</time></trkpt><trkpt lat="44.4535317" lon="11.11955"><ele>146.0</ele><time>2026-04-25T11:56:03.392Z</time></trkpt><trkpt lat="44.4536717" lon="11.1195433"><ele>146.0</ele><time>2026-04-25T11:56:04.391Z</time></trkpt><trkpt lat="44.45381" lon="11.119545"><ele>146.0</ele><time>2026-04-25T11:56:05.391Z</time></trkpt><trkpt lat="44.4539483" lon="11.1195483"><ele>145.75</ele><time>2026-04-25T11:56:06.391Z</time></trkpt><trkpt lat="44.4540917" lon="11.119545"><ele>145.5</ele><time>2026-04-25T11:56:07.393Z</time></trkpt><trkpt lat="44.4542367" lon="11.119545"><ele>145.25</ele><time>2026-04-25T11:56:08.393Z</time></trkpt><trkpt lat="44.4543733" lon="11.1195433"><ele>145.0</ele><time>2026-04-25T11:56:09.391Z</time></trkpt><trkpt lat="44.4545" lon="11.1195417"><ele>145.0</ele><time>2026-04-25T11:56:10.396Z</time></trkpt><trkpt lat="44.4546167" lon="11.1195417"><ele>145.0</ele><time>2026-04-25T11:56:11.392Z</time></trkpt><trkpt lat="44.4547333" lon="11.1195383"><ele>145.0</ele><time>2026-04-25T11:56:12.39Z</time></trkpt><trkpt lat="44.4548483" lon="11.119535"><ele>145.0</ele><time>2026-04-25T11:56:13.391Z</time></trkpt><trkpt lat="44.4549567" lon="11.1195317"><ele>145.16666666666669</ele><time>2026-04-25T11:56:14.392Z</time></trkpt><trkpt lat="44.455055" lon="11.119525"><ele>145.33333333333334</ele><time>2026-04-25T11:56:15.391Z</time></trkpt><trkpt lat="44.4551433" lon="11.11952"><ele>145.5</ele><time>2026-04-25T11:56:16.391Z</time></trkpt><trkpt lat="44.4552183" lon="11.1195267"><ele>145.66666666666666</ele><time>2026-04-25T11:56:17.389Z</time></trkpt><trkpt lat="44.455285" lon="11.119545"><ele>145.83333333333331</ele><time>2026-04-25T11:56:18.39Z</time></trkpt><trkpt lat="44.455375" lon="11.11962"><ele>146.0</ele><time>2026-04-25T11:56:20.389Z</time></trkpt><trkpt lat="44.4554233" lon="11.1197017"><ele>146.0</ele><time>2026-04-25T11:56:22.39Z</time></trkpt><trkpt lat="44.4553683" lon="11.1196167"><ele>146.0</ele><time>2026-04-25T12:00:55.395Z</time></trkpt><trkpt lat="44.455315" lon="11.1195483"><ele>146.0</ele><time>2026-04-25T12:00:58.394Z</time></trkpt><trkpt lat="44.4552383" lon="11.1195217"><ele>146.0</ele><time>2026-04-25T12:01:00.396Z</time></trkpt><trkpt lat="44.4550967" lon="11.1195067"><ele>146.0</ele><time>2026-04-25T12:01:02.395Z</time></trkpt><trkpt lat="44.454985" lon="11.11951"><ele>146.0</ele><time>2026-04-25T12:01:03.395Z</time></trkpt><trkpt lat="44.454875" lon="11.1195117"><ele>146.0</ele><time>2026-04-25T12:01:04.393Z</time></trkpt><trkpt lat="44.4547567" lon="11.11951"><ele>146.0</ele><time>2026-04-25T12:01:05.388Z</time></trkpt><trkpt lat="44.4546317" lon="11.119505"><ele>146.0</ele><time>2026-04-25T12:01:06.395Z</time></trkpt><trkpt lat="44.4544983" lon="11.1195067"><ele>145.75</ele><time>2026-04-25T12:01:07.393Z</time></trkpt><trkpt lat="44.45436" lon="11.1195117"><ele>145.5</ele><time>2026-04-25T12:01:08.396Z</time></trkpt><trkpt lat="44.4542167" lon="11.11952"><ele>145.25</ele><time>2026-04-25T12:01:09.394Z</time></trkpt><trkpt lat="44.45407" lon="11.1195283"><ele>145.0</ele><time>2026-04-25T12:01:10.395Z</time></trkpt><trkpt lat="44.4539183" lon="11.1195317"><ele>145.33333333333334</ele><time>2026-04-25T12:01:11.402Z</time></trkpt><trkpt lat="44.4537633" lon="11.11953"><ele>145.66666666666666</ele><time>2026-04-25T12:01:12.395Z</time></trkpt><trkpt lat="44.4536017" lon="11.11953"><ele>146.0</ele><time>2026-04-25T12:01:13.395Z</time></trkpt><trkpt lat="44.453435" lon="11.1195317"><ele>146.0</ele><time>2026-04-25T12:01:14.391Z</time></trkpt><trkpt lat="44.4532633" lon="11.1195333"><ele>146.0</ele><time>2026-04-25T12:01:15.393Z</time></trkpt><trkpt lat="44.4530883" lon="11.119535"><ele>146.0</ele><time>2026-04-25T12:01:16.395Z</time></trkpt><trkpt lat="44.4529117" lon="11.1195383"><ele>146.66666666666666</ele><time>2026-04-25T12:01:17.394Z</time></trkpt><trkpt lat="44.452735" lon="11.1195417"><ele>147.33333333333334</ele><time>2026-04-25T12:01:18.395Z</time></trkpt><trkpt lat="44.452555" lon="11.1195467"><ele>148.0</ele><time>2026-04-25T12:01:19.395Z</time></trkpt><trkpt lat="44.4523767" lon="11.1195533"><ele>148.0</ele><time>2026-04-25T12:01:20.395Z</time></trkpt><trkpt lat="44.4522" lon="11.1195567"><ele>148.0</ele><time>2026-04-25T12:01:21.394Z</time></trkpt><trkpt lat="44.4520233" lon="11.11956"><ele>148.0</ele><time>2026-04-25T12:01:22.393Z</time></trkpt><trkpt lat="44.4518467" lon="11.1195667"><ele>148.33333333333334</ele><time>2026-04-25T12:01:23.396Z</time></trkpt><trkpt lat="44.4516683" lon="11.1195717"><ele>148.66666666666666</ele><time>2026-04-25T12:01:24.393Z</time></trkpt><trkpt lat="44.45149" lon="11.1195733"><ele>149.0</ele><time>2026-04-25T12:01:25.395Z</time></trkpt><trkpt lat="44.4513083" lon="11.119575"><ele>149.33333333333331</ele><time>2026-04-25T12:01:26.395Z</time></trkpt><trkpt lat="44.45113" lon="11.1195783"><ele>149.66666666666666</ele><time>2026-04-25T12:01:27.394Z</time></trkpt><trkpt lat="44.4509533" lon="11.1195817"><ele>150.0</ele><time>2026-04-25T12:01:28.393Z</time></trkpt><trkpt lat="44.4507783" lon="11.1195817"><ele>150.0</ele><time>2026-04-25T12:01:29.394Z</time></trkpt><trkpt lat="44.4506" lon="11.1195817"><ele>150.0</ele><time>2026-04-25T12:01:30.395Z</time></trkpt><trkpt lat="44.45042" lon="11.11958"><ele>150.0</ele><time>2026-04-25T12:01:31.394Z</time></trkpt><trkpt lat="44.4502383" lon="11.11958"><ele>149.66666666666666</ele><time>2026-04-25T12:01:32.395Z</time></trkpt><trkpt lat="44.450055" lon="11.1195783"><ele>149.33333333333331</ele><time>2026-04-25T12:01:33.396Z</time></trkpt><trkpt lat="44.4498717" lon="11.1195767"><ele>149.0</ele><time>2026-04-25T12:01:34.394Z</time></trkpt><trkpt lat="44.4496867" lon="11.1195783"><ele>149.66666666666666</ele><time>2026-04-25T12:01:35.397Z</time></trkpt><trkpt lat="44.4495033" lon="11.11959"><ele>150.33333333333334</ele><time>2026-04-25T12:01:36.394Z</time></trkpt><trkpt lat="44.4493183" lon="11.1196167"><ele>151.0</ele><time>2026-04-25T12:01:37.396Z</time></trkpt><trkpt lat="44.449135" lon="11.1196633"><ele>151.0</ele><time>2026-04-25T12:01:38.395Z</time></trkpt><trkpt lat="44.4489517" lon="11.119725"><ele>151.0</ele><time>2026-04-25T12:01:39.396Z</time></trkpt><trkpt lat="44.4487683" lon="11.1197967"><ele>151.0</ele><time>2026-04-25T12:01:40.395Z</time></trkpt><trkpt lat="44.448585" lon="11.1198733"><ele>152.66666666666669</ele><time>2026-04-25T12:01:41.395Z</time></trkpt><trkpt lat="44.4484133" lon="11.1199467"><ele>154.33333333333334</ele><time>2026-04-25T12:01:42.394Z</time></trkpt><trkpt lat="44.44825" lon="11.12001"><ele>156.0</ele><time>2026-04-25T12:01:43.396Z</time></trkpt><trkpt lat="44.44809" lon="11.1200583"><ele>156.66666666666666</ele><time>2026-04-25T12:01:44.396Z</time></trkpt><trkpt lat="44.4479267" lon="11.1200983"><ele>157.33333333333331</ele><time>2026-04-25T12:01:45.394Z</time></trkpt><trkpt lat="44.4477583" lon="11.1201217"><ele>158.0</ele><time>2026-04-25T12:01:46.393Z</time></trkpt><trkpt lat="44.4475867" lon="11.1201367"><ele>158.0</ele><time>2026-04-25T12:01:47.395Z</time></trkpt><trkpt lat="44.4474117" lon="11.1201467"><ele>158.0</ele><time>2026-04-25T12:01:48.395Z</time></trkpt><trkpt lat="44.4472417" lon="11.120145"><ele>158.0</ele><time>2026-04-25T12:01:49.396Z</time></trkpt><trkpt lat="44.4470817" lon="11.12013"><ele>160.66666666666666</ele><time>2026-04-25T12:01:50.396Z</time></trkpt><trkpt lat="44.44693" lon="11.1200933"><ele>163.33333333333334</ele><time>2026-04-25T12:01:51.395Z</time></trkpt><trkpt lat="44.4467917" lon="11.1200217"><ele>166.0</ele><time>2026-04-25T12:01:52.395Z</time></trkpt><trkpt lat="44.4466583" lon="11.1199183"><ele>166.66666666666669</ele><time>2026-04-25T12:01:53.395Z</time></trkpt><trkpt lat="44.446525" lon="11.1197833"><ele>167.33333333333334</ele><time>2026-04-25T12:01:54.394Z</time></trkpt><trkpt lat="44.44639" lon="11.11963"><ele>168.0</ele><time>2026-04-25T12:01:55.394Z</time></trkpt><trkpt lat="44.4462483" lon="11.1194783"><ele>168.0</ele><time>2026-04-25T12:01:56.396Z</time></trkpt><trkpt lat="44.4460967" lon="11.11933"><ele>168.0</ele><time>2026-04-25T12:01:57.395Z</time></trkpt><trkpt lat="44.445945" lon="11.11919"><ele>168.0</ele><time>2026-04-25T12:01:58.395Z</time></trkpt><trkpt lat="44.4457917" lon="11.119055"><ele>165.66666666666666</ele><time>2026-04-25T12:01:59.396Z</time></trkpt><trkpt lat="44.4456333" lon="11.1189333"><ele>163.33333333333331</ele><time>2026-04-25T12:02:00.396Z</time></trkpt><trkpt lat="44.445475" lon="11.1188217"><ele>161.0</ele><time>2026-04-25T12:02:01.395Z</time></trkpt><trkpt lat="44.4453183" lon="11.1187217"><ele>161.0</ele><time>2026-04-25T12:02:02.395Z</time></trkpt><trkpt lat="44.4451667" lon="11.11862"><ele>161.0</ele><time>2026-04-25T12:02:03.395Z</time></trkpt><trkpt lat="44.4450217" lon="11.118515"><ele>161.0</ele><time>2026-04-25T12:02:04.393Z</time></trkpt><trkpt lat="44.44488" lon="11.1184083"><ele>161.0</ele><time>2026-04-25T12:02:05.394Z</time></trkpt><trkpt lat="44.44474" lon="11.1183"><ele>161.0</ele><time>2026-04-25T12:02:06.395Z</time></trkpt><trkpt lat="44.4445917" lon="11.11821"><ele>161.0</ele><time>2026-04-25T12:02:07.395Z</time></trkpt><trkpt lat="44.4444367" lon="11.11814"><ele>159.66666666666666</ele><time>2026-04-25T12:02:08.395Z</time></trkpt><trkpt lat="44.4442683" lon="11.1180917"><ele>158.33333333333334</ele><time>2026-04-25T12:02:09.395Z</time></trkpt><trkpt lat="44.4440883" lon="11.1180617"><ele>157.0</ele><time>2026-04-25T12:02:10.393Z</time></trkpt><trkpt lat="44.443905" lon="11.1180467"><ele>157.66666666666669</ele><time>2026-04-25T12:02:11.394Z</time></trkpt><trkpt lat="44.44372" lon="11.1180333"><ele>158.33333333333334</ele><time>2026-04-25T12:02:12.394Z</time></trkpt><trkpt lat="44.4435333" lon="11.1180233"><ele>159.0</ele><time>2026-04-25T12:02:13.395Z</time></trkpt><trkpt lat="44.443345" lon="11.118015"><ele>159.0</ele><time>2026-04-25T12:02:14.395Z</time></trkpt><trkpt lat="44.4431533" lon="11.1180083"><ele>159.0</ele><time>2026-04-25T12:02:15.396Z</time></trkpt><trkpt lat="44.4429633" lon="11.1180033"><ele>159.0</ele><time>2026-04-25T12:02:16.394Z</time></trkpt><trkpt lat="44.442775" lon="11.1179933"><ele>159.0</ele><time>2026-04-25T12:02:17.396Z</time></trkpt><trkpt lat="44.4425883" lon="11.117985"><ele>159.0</ele><time>2026-04-25T12:02:18.394Z</time></trkpt><trkpt lat="44.4424" lon="11.1179767"><ele>159.0</ele><time>2026-04-25T12:02:19.394Z</time></trkpt><trkpt lat="44.4422117" lon="11.1179717"><ele>159.66666666666666</ele><time>2026-04-25T12:02:20.396Z</time></trkpt><trkpt lat="44.4420233" lon="11.11796"><ele>160.33333333333331</ele><time>2026-04-25T12:02:21.396Z</time></trkpt><trkpt lat="44.4418333" lon="11.11795"><ele>161.0</ele><time>2026-04-25T12:02:22.392Z</time></trkpt><trkpt lat="44.441645" lon="11.1179417"><ele>161.0</ele><time>2026-04-25T12:02:23.395Z</time></trkpt><trkpt lat="44.4414567" lon="11.1179317"><ele>161.0</ele><time>2026-04-25T12:02:24.393Z</time></trkpt><trkpt lat="44.4412683" lon="11.117925"><ele>161.0</ele><time>2026-04-25T12:02:25.394Z</time></trkpt><trkpt lat="44.4410817" lon="11.117915"><ele>161.0</ele><time>2026-04-25T12:02:26.395Z</time></trkpt><trkpt lat="44.440895" lon="11.1179017"><ele>161.0</ele><time>2026-04-25T12:02:27.402Z</time></trkpt><trkpt lat="44.44071" lon="11.1178833"><ele>161.0</ele><time>2026-04-25T12:02:28.393Z</time></trkpt><trkpt lat="44.44053" lon="11.11784"><ele>162.66666666666666</ele><time>2026-04-25T12:02:29.397Z</time></trkpt><trkpt lat="44.4403583" lon="11.11777"><ele>164.33333333333334</ele><time>2026-04-25T12:02:30.393Z</time></trkpt><trkpt lat="44.4401933" lon="11.117685"><ele>166.0</ele><time>2026-04-25T12:02:31.394Z</time></trkpt><trkpt lat="44.44003" lon="11.1175967"><ele>166.0</ele><time>2026-04-25T12:02:32.396Z</time></trkpt><trkpt lat="44.4398633" lon="11.1175167"><ele>166.0</ele><time>2026-04-25T12:02:33.394Z</time></trkpt><trkpt lat="44.4396983" lon="11.1174417"><ele>166.0</ele><time>2026-04-25T12:02:34.394Z</time></trkpt><trkpt lat="44.43953" lon="11.1173767"><ele>165.0</ele><time>2026-04-25T12:02:35.394Z</time></trkpt><trkpt lat="44.43936" lon="11.117315"><ele>164.0</ele><time>2026-04-25T12:02:36.393Z</time></trkpt><trkpt lat="44.439195" lon="11.1172533"><ele>163.0</ele><time>2026-04-25T12:02:37.395Z</time></trkpt><trkpt lat="44.4390333" lon="11.117195"><ele>163.0</ele><time>2026-04-25T12:02:38.396Z</time></trkpt><trkpt lat="44.4388833" lon="11.1171433"><ele>163.0</ele><time>2026-04-25T12:02:39.395Z</time></trkpt><trkpt lat="44.4387483" lon="11.1171017"><ele>163.0</ele><time>2026-04-25T12:02:40.395Z</time></trkpt><trkpt lat="44.43863" lon="11.117065"><ele>163.0</ele><time>2026-04-25T12:02:41.397Z</time></trkpt><trkpt lat="44.4385233" lon="11.1170333"><ele>163.5</ele><time>2026-04-25T12:02:42.394Z</time></trkpt><trkpt lat="44.438425" lon="11.1170067"><ele>164.0</ele><time>2026-04-25T12:02:43.395Z</time></trkpt><trkpt lat="44.4383417" lon="11.1170117"><ele>164.5</ele><time>2026-04-25T12:02:44.395Z</time></trkpt><trkpt lat="44.4382717" lon="11.1170667"><ele>165.0</ele><time>2026-04-25T12:02:45.394Z</time></trkpt><trkpt lat="44.4382167" lon="11.1171583"><ele>165.5</ele><time>2026-04-25T12:02:46.394Z</time></trkpt><trkpt lat="44.4381833" lon="11.117285"><ele>166.0</ele><time>2026-04-25T12:02:47.394Z</time></trkpt><trkpt lat="44.438155" lon="11.117425"><ele>167.75</ele><time>2026-04-25T12:02:48.396Z</time></trkpt><trkpt lat="44.438125" lon="11.117575"><ele>169.5</ele><time>2026-04-25T12:02:49.395Z</time></trkpt><trkpt lat="44.43809" lon="11.11773"><ele>171.25</ele><time>2026-04-25T12:02:50.394Z</time></trkpt><trkpt lat="44.4380533" lon="11.117895"><ele>173.0</ele><time>2026-04-25T12:02:51.394Z</time></trkpt><trkpt lat="44.4380267" lon="11.11807"><ele>173.5</ele><time>2026-04-25T12:02:52.392Z</time></trkpt><trkpt lat="44.438" lon="11.1182533"><ele>174.0</ele><time>2026-04-25T12:02:53.393Z</time></trkpt><trkpt lat="44.4379733" lon="11.118445"><ele>174.5</ele><time>2026-04-25T12:02:54.394Z</time></trkpt><trkpt lat="44.43795" lon="11.1186433"><ele>175.0</ele><time>2026-04-25T12:02:55.391Z</time></trkpt><trkpt lat="44.4379217" lon="11.1188433"><ele>175.25</ele><time>2026-04-25T12:02:56.395Z</time></trkpt><trkpt lat="44.4378983" lon="11.1190433"><ele>175.5</ele><time>2026-04-25T12:02:57.393Z</time></trkpt><trkpt lat="44.43788" lon="11.1192367"><ele>175.75</ele><time>2026-04-25T12:02:58.392Z</time></trkpt><trkpt lat="44.4378617" lon="11.1194117"><ele>176.0</ele><time>2026-04-25T12:02:59.394Z</time></trkpt><trkpt lat="44.4378433" lon="11.1195633"><ele>176.5</ele><time>2026-04-25T12:03:00.395Z</time></trkpt><trkpt lat="44.4378117" lon="11.1196917"><ele>177.0</ele><time>2026-04-25T12:03:01.394Z</time></trkpt><trkpt lat="44.437765" lon="11.1198017"><ele>177.5</ele><time>2026-04-25T12:03:02.397Z</time></trkpt><trkpt lat="44.4377033" lon="11.119885"><ele>178.0</ele><time>2026-04-25T12:03:03.394Z</time></trkpt><trkpt lat="44.437635" lon="11.1199483"><ele>178.5</ele><time>2026-04-25T12:03:04.393Z</time></trkpt><trkpt lat="44.4375583" lon="11.119975"><ele>179.0</ele><time>2026-04-25T12:03:05.394Z</time></trkpt><trkpt lat="44.4374583" lon="11.1199783"><ele>180.0</ele><time>2026-04-25T12:03:06.394Z</time></trkpt><trkpt lat="44.4373433" lon="11.119975"><ele>181.0</ele><time>2026-04-25T12:03:07.394Z</time></trkpt><trkpt lat="44.43722" lon="11.119975"><ele>182.0</ele><time>2026-04-25T12:03:08.395Z</time></trkpt><trkpt lat="44.437095" lon="11.1199833"><ele>183.0</ele><time>2026-04-25T12:03:09.394Z</time></trkpt><trkpt lat="44.4369533" lon="11.1200017"><ele>184.0</ele><time>2026-04-25T12:03:10.393Z</time></trkpt><trkpt lat="44.4368133" lon="11.1200167"><ele>185.0</ele><time>2026-04-25T12:03:11.393Z</time></trkpt><trkpt lat="44.436665" lon="11.1200317"><ele>186.0</ele><time>2026-04-25T12:03:12.394Z</time></trkpt><trkpt lat="44.4365083" lon="11.1200483"><ele>187.0</ele><time>2026-04-25T12:03:13.394Z</time></trkpt><trkpt lat="44.43635" lon="11.1200667"><ele>185.33333333333334</ele><time>2026-04-25T12:03:14.395Z</time></trkpt><trkpt lat="44.4361917" lon="11.1200867"><ele>183.66666666666666</ele><time>2026-04-25T12:03:15.393Z</time></trkpt><trkpt lat="44.4360283" lon="11.1201083"><ele>182.0</ele><time>2026-04-25T12:03:16.392Z</time></trkpt><trkpt lat="44.4358617" lon="11.1201283"><ele>182.0</ele><time>2026-04-25T12:03:17.393Z</time></trkpt><trkpt lat="44.4356917" lon="11.12015"><ele>182.0</ele><time>2026-04-25T12:03:18.396Z</time></trkpt><trkpt lat="44.4355183" lon="11.1201733"><ele>182.0</ele><time>2026-04-25T12:03:19.395Z</time></trkpt><trkpt lat="44.4353467" lon="11.120195"><ele>182.66666666666666</ele><time>2026-04-25T12:03:20.395Z</time></trkpt><trkpt lat="44.4351717" lon="11.1202183"><ele>183.33333333333334</ele><time>2026-04-25T12:03:21.395Z</time></trkpt><trkpt lat="44.4349933" lon="11.1202383"><ele>184.0</ele><time>2026-04-25T12:03:22.393Z</time></trkpt><trkpt lat="44.4348183" lon="11.12026"><ele>184.66666666666669</ele><time>2026-04-25T12:03:23.394Z</time></trkpt><trkpt lat="44.4346367" lon="11.1202817"><ele>185.33333333333334</ele><time>2026-04-25T12:03:24.395Z</time></trkpt><trkpt lat="44.4344583" lon="11.1203017"><ele>186.0</ele><time>2026-04-25T12:03:25.394Z</time></trkpt><trkpt lat="44.4342783" lon="11.1203217"><ele>186.0</ele><time>2026-04-25T12:03:26.395Z</time></trkpt><trkpt lat="44.4341" lon="11.1203433"><ele>186.0</ele><time>2026-04-25T12:03:27.395Z</time></trkpt><trkpt lat="44.4339233" lon="11.1203617"><ele>186.0</ele><time>2026-04-25T12:03:28.394Z</time></trkpt><trkpt lat="44.43376" lon="11.1203833"><ele>186.66666666666666</ele><time>2026-04-25T12:03:29.396Z</time></trkpt><trkpt lat="44.4336067" lon="11.1204017"><ele>187.33333333333331</ele><time>2026-04-25T12:03:30.395Z</time></trkpt><trkpt lat="44.433455" lon="11.1204217"><ele>188.0</ele><time>2026-04-25T12:03:31.394Z</time></trkpt><trkpt lat="44.4333033" lon="11.1204433"><ele>188.0</ele><time>2026-04-25T12:03:32.393Z</time></trkpt><trkpt lat="44.4331517" lon="11.1204667"><ele>188.0</ele><time>2026-04-25T12:03:33.395Z</time></trkpt><trkpt lat="44.4329983" lon="11.12049"><ele>188.0</ele><time>2026-04-25T12:03:34.393Z</time></trkpt><trkpt lat="44.4328317" lon="11.1205167"><ele>188.66666666666666</ele><time>2026-04-25T12:03:35.394Z</time></trkpt><trkpt lat="44.4326633" lon="11.1205367"><ele>189.33333333333334</ele><time>2026-04-25T12:03:36.393Z</time></trkpt><trkpt lat="44.4324867" lon="11.1205583"><ele>190.0</ele><time>2026-04-25T12:03:37.393Z</time></trkpt><trkpt lat="44.4323083" lon="11.1205767"><ele>191.33333333333334</ele><time>2026-04-25T12:03:38.395Z</time></trkpt><trkpt lat="44.4321317" lon="11.120595"><ele>192.66666666666669</ele><time>2026-04-25T12:03:39.394Z</time></trkpt><trkpt lat="44.4319667" lon="11.1206133"><ele>194.0</ele><time>2026-04-25T12:03:40.391Z</time></trkpt><trkpt lat="44.431815" lon="11.12064"><ele>194.0</ele><time>2026-04-25T12:03:41.393Z</time></trkpt><trkpt lat="44.431675" lon="11.1206667"><ele>194.0</ele><time>2026-04-25T12:03:42.394Z</time></trkpt><trkpt lat="44.431545" lon="11.1206883"><ele>194.0</ele><time>2026-04-25T12:03:43.393Z</time></trkpt><trkpt lat="44.43142" lon="11.1206883"><ele>194.0</ele><time>2026-04-25T12:03:44.394Z</time></trkpt><trkpt lat="44.4312883" lon="11.1206433"><ele>194.5</ele><time>2026-04-25T12:03:45.395Z</time></trkpt><trkpt lat="44.4311567" lon="11.1205733"><ele>195.0</ele><time>2026-04-25T12:03:46.393Z</time></trkpt><trkpt lat="44.431025" lon="11.1204867"><ele>195.5</ele><time>2026-04-25T12:03:47.394Z</time></trkpt><trkpt lat="44.43089" lon="11.1203917"><ele>196.0</ele><time>2026-04-25T12:03:48.395Z</time></trkpt><trkpt lat="44.43075" lon="11.120295"><ele>196.0</ele><time>2026-04-25T12:03:49.395Z</time></trkpt><trkpt lat="44.430605" lon="11.1201983"><ele>196.0</ele><time>2026-04-25T12:03:50.395Z</time></trkpt><trkpt lat="44.4304567" lon="11.1200967"><ele>196.0</ele><time>2026-04-25T12:03:51.393Z</time></trkpt><trkpt lat="44.4303017" lon="11.1199917"><ele>196.33333333333331</ele><time>2026-04-25T12:03:52.394Z</time></trkpt><trkpt lat="44.430145" lon="11.1198833"><ele>196.66666666666669</ele><time>2026-04-25T12:03:53.394Z</time></trkpt><trkpt lat="44.4299817" lon="11.1197767"><ele>197.0</ele><time>2026-04-25T12:03:54.396Z</time></trkpt><trkpt lat="44.4298167" lon="11.1196667"><ele>197.0</ele><time>2026-04-25T12:03:55.394Z</time></trkpt><trkpt lat="44.4296567" lon="11.1195567"><ele>197.0</ele><time>2026-04-25T12:03:56.395Z</time></trkpt><trkpt lat="44.4295033" lon="11.1194433"><ele>197.0</ele><time>2026-04-25T12:03:57.396Z</time></trkpt><trkpt lat="44.42936" lon="11.1193183"><ele>197.33333333333334</ele><time>2026-04-25T12:03:58.394Z</time></trkpt><trkpt lat="44.4292267" lon="11.11919"><ele>197.66666666666669</ele><time>2026-04-25T12:03:59.397Z</time></trkpt><trkpt lat="44.4291067" lon="11.1190667"><ele>198.0</ele><time>2026-04-25T12:04:00.395Z</time></trkpt><trkpt lat="44.42899" lon="11.11895"><ele>198.0</ele><time>2026-04-25T12:04:01.395Z</time></trkpt><trkpt lat="44.4288717" lon="11.1188333"><ele>198.0</ele><time>2026-04-25T12:04:02.396Z</time></trkpt><trkpt lat="44.428745" lon="11.1187233"><ele>198.0</ele><time>2026-04-25T12:04:03.395Z</time></trkpt><trkpt lat="44.42861" lon="11.1186167"><ele>198.0</ele><time>2026-04-25T12:04:04.394Z</time></trkpt><trkpt lat="44.4284767" lon="11.118515"><ele>197.75</ele><time>2026-04-25T12:04:05.395Z</time></trkpt><trkpt lat="44.4283533" lon="11.11843"><ele>197.5</ele><time>2026-04-25T12:04:06.396Z</time></trkpt><trkpt lat="44.428245" lon="11.118335"><ele>197.25</ele><time>2026-04-25T12:04:07.395Z</time></trkpt><trkpt lat="44.4281517" lon="11.1182083"><ele>197.0</ele><time>2026-04-25T12:04:08.396Z</time></trkpt><trkpt lat="44.428065" lon="11.1180717"><ele>197.0</ele><time>2026-04-25T12:04:09.394Z</time></trkpt><trkpt lat="44.4279783" lon="11.1179333"><ele>197.0</ele><time>2026-04-25T12:04:10.393Z</time></trkpt><trkpt lat="44.4278933" lon="11.11781"><ele>197.0</ele><time>2026-04-25T12:04:11.394Z</time></trkpt><trkpt lat="44.4278067" lon="11.1176933"><ele>197.0</ele><time>2026-04-25T12:04:12.393Z</time></trkpt><trkpt lat="44.427725" lon="11.1175867"><ele>197.83333333333334</ele><time>2026-04-25T12:04:13.394Z</time></trkpt><trkpt lat="44.42766" lon="11.1174933"><ele>198.66666666666669</ele><time>2026-04-25T12:04:14.395Z</time></trkpt><trkpt lat="44.42761" lon="11.1173967"><ele>199.5</ele><time>2026-04-25T12:04:15.395Z</time></trkpt><trkpt lat="44.42758" lon="11.1172867"><ele>200.33333333333331</ele><time>2026-04-25T12:04:16.394Z</time></trkpt><trkpt lat="44.4275783" lon="11.117165"><ele>201.16666666666666</ele><time>2026-04-25T12:04:17.395Z</time></trkpt><trkpt lat="44.42758" lon="11.1170433"><ele>202.0</ele><time>2026-04-25T12:04:18.395Z</time></trkpt><trkpt lat="44.4275583" lon="11.1169183"><ele>200.0</ele><time>2026-04-25T12:04:19.393Z</time></trkpt><trkpt lat="44.4275267" lon="11.1167933"><ele>198.0</ele><time>2026-04-25T12:04:20.395Z</time></trkpt><trkpt lat="44.4274733" lon="11.1166633"><ele>196.0</ele><time>2026-04-25T12:04:21.395Z</time></trkpt><trkpt lat="44.42741" lon="11.1165483"><ele>194.0</ele><time>2026-04-25T12:04:22.393Z</time></trkpt><trkpt lat="44.4273267" lon="11.1164533"><ele>192.0</ele><time>2026-04-25T12:04:23.394Z</time></trkpt><trkpt lat="44.4272217" lon="11.1163767"><ele>190.0</ele><time>2026-04-25T12:04:24.394Z</time></trkpt><trkpt lat="44.4270967" lon="11.11632"><ele>188.0</ele><time>2026-04-25T12:04:25.395Z</time></trkpt><trkpt lat="44.4269667" lon="11.1162617"><ele>186.0</ele><time>2026-04-25T12:04:26.395Z</time></trkpt><trkpt lat="44.4268467" lon="11.1161933"><ele>184.0</ele><time>2026-04-25T12:04:27.393Z</time></trkpt><trkpt lat="44.4267317" lon="11.1160983"><ele>184.0</ele><time>2026-04-25T12:04:28.393Z</time></trkpt><trkpt lat="44.4266133" lon="11.11598"><ele>184.0</ele><time>2026-04-25T12:04:29.395Z</time></trkpt><trkpt lat="44.4264933" lon="11.11585"><ele>184.0</ele><time>2026-04-25T12:04:30.395Z</time></trkpt><trkpt lat="44.4263733" lon="11.11571"><ele>183.66666666666669</ele><time>2026-04-25T12:04:31.396Z</time></trkpt><trkpt lat="44.4262517" lon="11.115565"><ele>183.33333333333334</ele><time>2026-04-25T12:04:32.396Z</time></trkpt><trkpt lat="44.4261283" lon="11.1154233"><ele>183.0</ele><time>2026-04-25T12:04:33.394Z</time></trkpt><trkpt lat="44.4260067" lon="11.1152867"><ele>183.0</ele><time>2026-04-25T12:04:34.393Z</time></trkpt><trkpt lat="44.4258817" lon="11.1151483"><ele>183.0</ele><time>2026-04-25T12:04:35.394Z</time></trkpt><trkpt lat="44.42575" lon="11.1150083"><ele>183.0</ele><time>2026-04-25T12:04:36.394Z</time></trkpt><trkpt lat="44.4256167" lon="11.11487"><ele>183.0</ele><time>2026-04-25T12:04:37.395Z</time></trkpt><trkpt lat="44.4254817" lon="11.1147317"><ele>183.0</ele><time>2026-04-25T12:04:38.395Z</time></trkpt><trkpt lat="44.4253517" lon="11.1145833"><ele>183.0</ele><time>2026-04-25T12:04:39.393Z</time></trkpt><trkpt lat="44.42522" lon="11.1144283"><ele>184.33333333333334</ele><time>2026-04-25T12:04:40.393Z</time></trkpt><trkpt lat="44.425085" lon="11.1142733"><ele>185.66666666666669</ele><time>2026-04-25T12:04:41.394Z</time></trkpt><trkpt lat="44.4249467" lon="11.1141183"><ele>187.0</ele><time>2026-04-25T12:04:42.394Z</time></trkpt><trkpt lat="44.424815" lon="11.11395"><ele>187.0</ele><time>2026-04-25T12:04:43.396Z</time></trkpt><trkpt lat="44.42469" lon="11.113785"><ele>187.0</ele><time>2026-04-25T12:04:44.394Z</time></trkpt><trkpt lat="44.4245683" lon="11.1136217"><ele>187.0</ele><time>2026-04-25T12:04:45.394Z</time></trkpt><trkpt lat="44.424445" lon="11.11346"><ele>187.33333333333334</ele><time>2026-04-25T12:04:46.393Z</time></trkpt><trkpt lat="44.4243167" lon="11.1133033"><ele>187.66666666666666</ele><time>2026-04-25T12:04:47.395Z</time></trkpt><trkpt lat="44.42418" lon="11.113145"><ele>188.0</ele><time>2026-04-25T12:04:48.396Z</time></trkpt><trkpt lat="44.4240433" lon="11.1129917"><ele>188.0</ele><time>2026-04-25T12:04:49.395Z</time></trkpt><trkpt lat="44.4239117" lon="11.1128483"><ele>188.0</ele><time>2026-04-25T12:04:50.396Z</time></trkpt><trkpt lat="44.4237867" lon="11.11271"><ele>188.0</ele><time>2026-04-25T12:04:51.395Z</time></trkpt><trkpt lat="44.4236683" lon="11.1125733"><ele>188.0</ele><time>2026-04-25T12:04:52.392Z</time></trkpt><trkpt lat="44.4235483" lon="11.11243"><ele>188.0</ele><time>2026-04-25T12:04:53.394Z</time></trkpt><trkpt lat="44.4234333" lon="11.112285"><ele>188.0</ele><time>2026-04-25T12:04:54.395Z</time></trkpt><trkpt lat="44.423325" lon="11.1121467"><ele>188.0</ele><time>2026-04-25T12:04:55.395Z</time></trkpt><trkpt lat="44.42322" lon="11.1120217"><ele>188.0</ele><time>2026-04-25T12:04:56.396Z</time></trkpt><trkpt lat="44.4231067" lon="11.1119117"><ele>188.0</ele><time>2026-04-25T12:04:57.397Z</time></trkpt><trkpt lat="44.422975" lon="11.1118183"><ele>188.0</ele><time>2026-04-25T12:04:58.395Z</time></trkpt><trkpt lat="44.4228417" lon="11.1117283"><ele>187.75</ele><time>2026-04-25T12:04:59.397Z</time></trkpt><trkpt lat="44.4227183" lon="11.111625"><ele>187.5</ele><time>2026-04-25T12:05:00.393Z</time></trkpt><trkpt lat="44.4226067" lon="11.1115"><ele>187.25</ele><time>2026-04-25T12:05:01.394Z</time></trkpt><trkpt lat="44.4225083" lon="11.1113433"><ele>187.0</ele><time>2026-04-25T12:05:02.395Z</time></trkpt><trkpt lat="44.42242" lon="11.111165"><ele>187.0</ele><time>2026-04-25T12:05:03.394Z</time></trkpt><trkpt lat="44.4223317" lon="11.1109867"><ele>187.0</ele><time>2026-04-25T12:05:04.394Z</time></trkpt><trkpt lat="44.42223" lon="11.1108167"><ele>187.0</ele><time>2026-04-25T12:05:05.394Z</time></trkpt><trkpt lat="44.4221133" lon="11.110655"><ele>188.0</ele><time>2026-04-25T12:05:06.397Z</time></trkpt><trkpt lat="44.4219833" lon="11.1105083"><ele>189.0</ele><time>2026-04-25T12:05:07.394Z</time></trkpt><trkpt lat="44.421845" lon="11.1103683"><ele>190.0</ele><time>2026-04-25T12:05:08.396Z</time></trkpt><trkpt lat="44.4217117" lon="11.1102317"><ele>190.0</ele><time>2026-04-25T12:05:09.396Z</time></trkpt><trkpt lat="44.4215883" lon="11.1100967"><ele>190.0</ele><time>2026-04-25T12:05:10.394Z</time></trkpt><trkpt lat="44.4214683" lon="11.10996"><ele>190.0</ele><time>2026-04-25T12:05:11.395Z</time></trkpt><trkpt lat="44.4213483" lon="11.1098133"><ele>190.66666666666669</ele><time>2026-04-25T12:05:12.394Z</time></trkpt><trkpt lat="44.4212267" lon="11.10966"><ele>191.33333333333334</ele><time>2026-04-25T12:05:13.394Z</time></trkpt><trkpt lat="44.4211067" lon="11.1095"><ele>192.0</ele><time>2026-04-25T12:05:14.394Z</time></trkpt><trkpt lat="44.42099" lon="11.1093367"><ele>192.0</ele><time>2026-04-25T12:05:15.393Z</time></trkpt><trkpt lat="44.4208717" lon="11.1091733"><ele>192.0</ele><time>2026-04-25T12:05:16.393Z</time></trkpt><trkpt lat="44.4207483" lon="11.10901"><ele>192.0</ele><time>2026-04-25T12:05:17.395Z</time></trkpt><trkpt lat="44.42062" lon="11.1088483"><ele>191.66666666666666</ele><time>2026-04-25T12:05:18.394Z</time></trkpt><trkpt lat="44.420495" lon="11.108695"><ele>191.33333333333331</ele><time>2026-04-25T12:05:19.394Z</time></trkpt><trkpt lat="44.4203733" lon="11.1085417"><ele>191.0</ele><time>2026-04-25T12:05:20.395Z</time></trkpt><trkpt lat="44.4202533" lon="11.10838"><ele>191.33333333333331</ele><time>2026-04-25T12:05:21.396Z</time></trkpt><trkpt lat="44.4201433" lon="11.10822"><ele>191.66666666666666</ele><time>2026-04-25T12:05:22.395Z</time></trkpt><trkpt lat="44.4200367" lon="11.1080483"><ele>192.0</ele><time>2026-04-25T12:05:23.394Z</time></trkpt><trkpt lat="44.4199333" lon="11.1078633"><ele>192.0</ele><time>2026-04-25T12:05:24.395Z</time></trkpt><trkpt lat="44.419835" lon="11.1076883"><ele>192.0</ele><time>2026-04-25T12:05:25.394Z</time></trkpt><trkpt lat="44.4197433" lon="11.1075267"><ele>192.0</ele><time>2026-04-25T12:05:26.395Z</time></trkpt><trkpt lat="44.419655" lon="11.10738"><ele>192.0</ele><time>2026-04-25T12:05:27.394Z</time></trkpt><trkpt lat="44.4195683" lon="11.10725"><ele>192.2</ele><time>2026-04-25T12:05:28.393Z</time></trkpt><trkpt lat="44.4194917" lon="11.1071333"><ele>192.39999999999998</ele><time>2026-04-25T12:05:29.394Z</time></trkpt><trkpt lat="44.4194333" lon="11.1070167"><ele>192.60000000000002</ele><time>2026-04-25T12:05:30.394Z</time></trkpt><trkpt lat="44.4194" lon="11.10689"><ele>192.8</ele><time>2026-04-25T12:05:31.394Z</time></trkpt><trkpt lat="44.41939" lon="11.1067467"><ele>193.0</ele><time>2026-04-25T12:05:32.396Z</time></trkpt><trkpt lat="44.4194117" lon="11.1066033"><ele>192.8</ele><time>2026-04-25T12:05:33.394Z</time></trkpt><trkpt lat="44.419455" lon="11.106465"><ele>192.60000000000002</ele><time>2026-04-25T12:05:34.394Z</time></trkpt><trkpt lat="44.419505" lon="11.10633"><ele>192.39999999999998</ele><time>2026-04-25T12:05:35.394Z</time></trkpt><trkpt lat="44.419535" lon="11.1061917"><ele>192.2</ele><time>2026-04-25T12:05:36.393Z</time></trkpt><trkpt lat="44.4195383" lon="11.10606"><ele>192.0</ele><time>2026-04-25T12:05:37.394Z</time></trkpt><trkpt lat="44.4195133" lon="11.1059517"><ele>192.0</ele><time>2026-04-25T12:05:38.396Z</time></trkpt><trkpt lat="44.4194617" lon="11.1058633"><ele>192.0</ele><time>2026-04-25T12:05:39.395Z</time></trkpt><trkpt lat="44.4193783" lon="11.105785"><ele>192.0</ele><time>2026-04-25T12:05:40.394Z</time></trkpt><trkpt lat="44.41927" lon="11.1057133"><ele>192.0</ele><time>2026-04-25T12:05:41.393Z</time></trkpt><trkpt lat="44.4191367" lon="11.105645"><ele>192.0</ele><time>2026-04-25T12:05:42.393Z</time></trkpt><trkpt lat="44.4189983" lon="11.1055783"><ele>192.33333333333331</ele><time>2026-04-25T12:05:43.393Z</time></trkpt><trkpt lat="44.4188617" lon="11.1055133"><ele>192.66666666666666</ele><time>2026-04-25T12:05:44.396Z</time></trkpt><trkpt lat="44.41872" lon="11.105435"><ele>193.0</ele><time>2026-04-25T12:05:45.392Z</time></trkpt><trkpt lat="44.418575" lon="11.1053567"><ele>193.0</ele><time>2026-04-25T12:05:46.394Z</time></trkpt><trkpt lat="44.4184283" lon="11.10527"><ele>193.0</ele><time>2026-04-25T12:05:47.394Z</time></trkpt><trkpt lat="44.41828" lon="11.1051767"><ele>193.0</ele><time>2026-04-25T12:05:48.395Z</time></trkpt><trkpt lat="44.4181333" lon="11.1050667"><ele>193.0</ele><time>2026-04-25T12:05:49.395Z</time></trkpt><trkpt lat="44.4179867" lon="11.1049617"><ele>193.0</ele><time>2026-04-25T12:05:50.393Z</time></trkpt><trkpt lat="44.41785" lon="11.1048717"><ele>193.0</ele><time>2026-04-25T12:05:51.394Z</time></trkpt><trkpt lat="44.417715" lon="11.1048133"><ele>193.5</ele><time>2026-04-25T12:05:52.394Z</time></trkpt><trkpt lat="44.4175733" lon="11.1047983"><ele>194.0</ele><time>2026-04-25T12:05:53.395Z</time></trkpt><trkpt lat="44.4174267" lon="11.10481"><ele>194.5</ele><time>2026-04-25T12:05:54.393Z</time></trkpt><trkpt lat="44.4172733" lon="11.1048133"><ele>195.0</ele><time>2026-04-25T12:05:55.393Z</time></trkpt><trkpt lat="44.417115" lon="11.1047883"><ele>196.33333333333331</ele><time>2026-04-25T12:05:56.394Z</time></trkpt><trkpt lat="44.41695" lon="11.1047283"><ele>197.66666666666666</ele><time>2026-04-25T12:05:57.394Z</time></trkpt><trkpt lat="44.4167867" lon="11.1046567"><ele>199.0</ele><time>2026-04-25T12:05:58.395Z</time></trkpt><trkpt lat="44.41662" lon="11.1045783"><ele>199.0</ele><time>2026-04-25T12:05:59.393Z</time></trkpt><trkpt lat="44.4164517" lon="11.1044983"><ele>199.0</ele><time>2026-04-25T12:06:00.394Z</time></trkpt><trkpt lat="44.416285" lon="11.104415"><ele>199.0</ele><time>2026-04-25T12:06:01.393Z</time></trkpt><trkpt lat="44.4161167" lon="11.104335"><ele>199.33333333333331</ele><time>2026-04-25T12:06:02.396Z</time></trkpt><trkpt lat="44.4159483" lon="11.1042567"><ele>199.66666666666669</ele><time>2026-04-25T12:06:03.395Z</time></trkpt><trkpt lat="44.4157783" lon="11.10418"><ele>200.0</ele><time>2026-04-25T12:06:04.394Z</time></trkpt><trkpt lat="44.4156067" lon="11.1041067"><ele>200.33333333333334</ele><time>2026-04-25T12:06:05.394Z</time></trkpt><trkpt lat="44.415435" lon="11.10403"><ele>200.66666666666669</ele><time>2026-04-25T12:06:06.394Z</time></trkpt><trkpt lat="44.4152617" lon="11.10395"><ele>201.0</ele><time>2026-04-25T12:06:07.395Z</time></trkpt><trkpt lat="44.4150917" lon="11.1038617"><ele>201.0</ele><time>2026-04-25T12:06:08.395Z</time></trkpt><trkpt lat="44.41493" lon="11.1037633"><ele>201.0</ele><time>2026-04-25T12:06:09.395Z</time></trkpt><trkpt lat="44.4147717" lon="11.1036483"><ele>201.0</ele><time>2026-04-25T12:06:10.394Z</time></trkpt><trkpt lat="44.4146183" lon="11.1035183"><ele>201.33333333333331</ele><time>2026-04-25T12:06:11.394Z</time></trkpt><trkpt lat="44.4144667" lon="11.1033767"><ele>201.66666666666666</ele><time>2026-04-25T12:06:12.393Z</time></trkpt><trkpt lat="44.41432" lon="11.1032233"><ele>202.0</ele><time>2026-04-25T12:06:13.393Z</time></trkpt><trkpt lat="44.4141717" lon="11.103065"><ele>202.0</ele><time>2026-04-25T12:06:14.396Z</time></trkpt><trkpt lat="44.4140233" lon="11.1029"><ele>202.0</ele><time>2026-04-25T12:06:15.393Z</time></trkpt><trkpt lat="44.4138733" lon="11.1027333"><ele>202.0</ele><time>2026-04-25T12:06:16.394Z</time></trkpt><trkpt lat="44.4137233" lon="11.102565"><ele>202.0</ele><time>2026-04-25T12:06:17.393Z</time></trkpt><trkpt lat="44.41357" lon="11.1023983"><ele>202.0</ele><time>2026-04-25T12:06:18.394Z</time></trkpt><trkpt lat="44.4134117" lon="11.1022417"><ele>202.0</ele><time>2026-04-25T12:06:19.393Z</time></trkpt><trkpt lat="44.4132467" lon="11.1021017"><ele>202.0</ele><time>2026-04-25T12:06:20.395Z</time></trkpt><trkpt lat="44.41308" lon="11.101975"><ele>202.0</ele><time>2026-04-25T12:06:21.395Z</time></trkpt><trkpt lat="44.4129183" lon="11.10185"><ele>202.0</ele><time>2026-04-25T12:06:22.395Z</time></trkpt><trkpt lat="44.4127617" lon="11.101715"><ele>201.66666666666666</ele><time>2026-04-25T12:06:23.394Z</time></trkpt><trkpt lat="44.4126083" lon="11.1015633"><ele>201.33333333333331</ele><time>2026-04-25T12:06:24.394Z</time></trkpt><trkpt lat="44.4124633" lon="11.1013883"><ele>201.0</ele><time>2026-04-25T12:06:25.393Z</time></trkpt><trkpt lat="44.4123217" lon="11.1012017"><ele>201.0</ele><time>2026-04-25T12:06:26.394Z</time></trkpt><trkpt lat="44.41218" lon="11.1010133"><ele>201.0</ele><time>2026-04-25T12:06:27.393Z</time></trkpt><trkpt lat="44.412035" lon="11.1008283"><ele>201.0</ele><time>2026-04-25T12:06:28.394Z</time></trkpt><trkpt lat="44.4118867" lon="11.1006517"><ele>201.33333333333331</ele><time>2026-04-25T12:06:29.392Z</time></trkpt><trkpt lat="44.4117367" lon="11.1004833"><ele>201.66666666666666</ele><time>2026-04-25T12:06:30.393Z</time></trkpt><trkpt lat="44.4115983" lon="11.1003333"><ele>202.0</ele><time>2026-04-25T12:06:31.393Z</time></trkpt><trkpt lat="44.41147" lon="11.1002"><ele>202.0</ele><time>2026-04-25T12:06:32.395Z</time></trkpt><trkpt lat="44.4113483" lon="11.1000883"><ele>202.0</ele><time>2026-04-25T12:06:33.394Z</time></trkpt><trkpt lat="44.41123" lon="11.10001"><ele>202.0</ele><time>2026-04-25T12:06:34.393Z</time></trkpt><trkpt lat="44.4111" lon="11.09998"><ele>202.0</ele><time>2026-04-25T12:06:35.393Z</time></trkpt><trkpt lat="44.4109583" lon="11.0999967"><ele>204.0</ele><time>2026-04-25T12:06:36.394Z</time></trkpt><trkpt lat="44.4108067" lon="11.1000383"><ele>206.0</ele><time>2026-04-25T12:06:37.394Z</time></trkpt><trkpt lat="44.410645" lon="11.100085"><ele>208.0</ele><time>2026-04-25T12:06:38.396Z</time></trkpt><trkpt lat="44.410475" lon="11.10013"><ele>208.66666666666666</ele><time>2026-04-25T12:06:39.393Z</time></trkpt><trkpt lat="44.4103033" lon="11.1001733"><ele>209.33333333333331</ele><time>2026-04-25T12:06:40.393Z</time></trkpt><trkpt lat="44.41014" lon="11.1002117"><ele>210.0</ele><time>2026-04-25T12:06:41.394Z</time></trkpt><trkpt lat="44.409995" lon="11.1002417"><ele>210.0</ele><time>2026-04-25T12:06:42.394Z</time></trkpt><trkpt lat="44.4098683" lon="11.10027"><ele>210.0</ele><time>2026-04-25T12:06:43.394Z</time></trkpt><trkpt lat="44.4097533" lon="11.100295"><ele>210.0</ele><time>2026-04-25T12:06:44.395Z</time></trkpt><trkpt lat="44.4096583" lon="11.10031"><ele>210.0</ele><time>2026-04-25T12:06:45.393Z</time></trkpt><trkpt lat="44.4095733" lon="11.10031"><ele>210.0</ele><time>2026-04-25T12:06:46.393Z</time></trkpt><trkpt lat="44.4095083" lon="11.100285"><ele>210.5</ele><time>2026-04-25T12:06:47.393Z</time></trkpt><trkpt lat="44.409475" lon="11.1000967"><ele>211.0</ele><time>2026-04-25T12:06:49.394Z</time></trkpt><trkpt lat="44.4094833" lon="11.0999417"><ele>211.5</ele><time>2026-04-25T12:06:50.396Z</time></trkpt><trkpt lat="44.4094767" lon="11.099775"><ele>212.0</ele><time>2026-04-25T12:06:51.393Z</time></trkpt><trkpt lat="44.409455" lon="11.099595"><ele>212.0</ele><time>2026-04-25T12:06:52.393Z</time></trkpt><trkpt lat="44.409415" lon="11.0993933"><ele>212.0</ele><time>2026-04-25T12:06:53.394Z</time></trkpt><trkpt lat="44.4093683" lon="11.0991867"><ele>212.0</ele><time>2026-04-25T12:06:54.393Z</time></trkpt><trkpt lat="44.4093167" lon="11.0989783"><ele>211.33333333333334</ele><time>2026-04-25T12:06:55.393Z</time></trkpt><trkpt lat="44.409265" lon="11.0987633"><ele>210.66666666666669</ele><time>2026-04-25T12:06:56.395Z</time></trkpt><trkpt lat="44.4092017" lon="11.0985417"><ele>210.0</ele><time>2026-04-25T12:06:57.389Z</time></trkpt><trkpt lat="44.4091217" lon="11.098325"><ele>209.66666666666669</ele><time>2026-04-25T12:06:58.393Z</time></trkpt><trkpt lat="44.4090267" lon="11.0981117"><ele>209.33333333333334</ele><time>2026-04-25T12:06:59.393Z</time></trkpt><trkpt lat="44.40892" lon="11.0979033"><ele>209.0</ele><time>2026-04-25T12:07:00.393Z</time></trkpt><trkpt lat="44.4088083" lon="11.0977017"><ele>210.0</ele><time>2026-04-25T12:07:01.395Z</time></trkpt><trkpt lat="44.4086933" lon="11.097505"><ele>211.0</ele><time>2026-04-25T12:07:02.395Z</time></trkpt><trkpt lat="44.4085767" lon="11.0973033"><ele>212.0</ele><time>2026-04-25T12:07:03.393Z</time></trkpt><trkpt lat="44.4084567" lon="11.0971"><ele>212.0</ele><time>2026-04-25T12:07:04.395Z</time></trkpt><trkpt lat="44.40834" lon="11.0968933"><ele>212.0</ele><time>2026-04-25T12:07:05.393Z</time></trkpt><trkpt lat="44.408225" lon="11.0966867"><ele>212.0</ele><time>2026-04-25T12:07:06.394Z</time></trkpt><trkpt lat="44.4081117" lon="11.0964817"><ele>211.66666666666669</ele><time>2026-04-25T12:07:07.394Z</time></trkpt><trkpt lat="44.408005" lon="11.0962867"><ele>211.33333333333331</ele><time>2026-04-25T12:07:08.394Z</time></trkpt><trkpt lat="44.4078967" lon="11.0961"><ele>211.0</ele><time>2026-04-25T12:07:09.394Z</time></trkpt><trkpt lat="44.4077917" lon="11.0959333"><ele>211.75</ele><time>2026-04-25T12:07:10.393Z</time></trkpt><trkpt lat="44.4077" lon="11.095775"><ele>212.5</ele><time>2026-04-25T12:07:11.393Z</time></trkpt><trkpt lat="44.4076267" lon="11.0956233"><ele>213.25</ele><time>2026-04-25T12:07:12.393Z</time></trkpt><trkpt lat="44.407575" lon="11.0954617"><ele>214.0</ele><time>2026-04-25T12:07:13.393Z</time></trkpt><trkpt lat="44.4075467" lon="11.0952917"><ele>214.0</ele><time>2026-04-25T12:07:14.394Z</time></trkpt><trkpt lat="44.4075533" lon="11.09513"><ele>214.0</ele><time>2026-04-25T12:07:15.394Z</time></trkpt><trkpt lat="44.4075917" lon="11.0949683"><ele>214.0</ele><time>2026-04-25T12:07:16.394Z</time></trkpt><trkpt lat="44.407655" lon="11.0948083"><ele>214.0</ele><time>2026-04-25T12:07:17.393Z</time></trkpt><trkpt lat="44.4077367" lon="11.09465"><ele>214.0</ele><time>2026-04-25T12:07:18.393Z</time></trkpt><trkpt lat="44.4078317" lon="11.094485"><ele>214.0</ele><time>2026-04-25T12:07:19.392Z</time></trkpt><trkpt lat="44.40793" lon="11.0943133"><ele>214.0</ele><time>2026-04-25T12:07:20.395Z</time></trkpt><trkpt lat="44.4080267" lon="11.0941317"><ele>215.0</ele><time>2026-04-25T12:07:21.394Z</time></trkpt><trkpt lat="44.4081267" lon="11.093945"><ele>216.0</ele><time>2026-04-25T12:07:22.393Z</time></trkpt><trkpt lat="44.4082267" lon="11.0937567"><ele>217.0</ele><time>2026-04-25T12:07:23.394Z</time></trkpt><trkpt lat="44.4083317" lon="11.0935683"><ele>217.0</ele><time>2026-04-25T12:07:24.393Z</time></trkpt><trkpt lat="44.4084417" lon="11.093375"><ele>217.0</ele><time>2026-04-25T12:07:25.394Z</time></trkpt><trkpt lat="44.408555" lon="11.093175"><ele>217.0</ele><time>2026-04-25T12:07:26.394Z</time></trkpt><trkpt lat="44.4086733" lon="11.0929767"><ele>217.0</ele><time>2026-04-25T12:07:27.393Z</time></trkpt><trkpt lat="44.4088033" lon="11.0927867"><ele>217.0</ele><time>2026-04-25T12:07:28.394Z</time></trkpt><trkpt lat="44.4089367" lon="11.0925967"><ele>217.0</ele><time>2026-04-25T12:07:29.393Z</time></trkpt><trkpt lat="44.409075" lon="11.0924083"><ele>217.0</ele><time>2026-04-25T12:07:30.394Z</time></trkpt><trkpt lat="44.4092133" lon="11.0922367"><ele>217.0</ele><time>2026-04-25T12:07:31.395Z</time></trkpt><trkpt lat="44.4093433" lon="11.0920767"><ele>217.0</ele><time>2026-04-25T12:07:32.396Z</time></trkpt><trkpt lat="44.4094633" lon="11.0919233"><ele>217.0</ele><time>2026-04-25T12:07:33.395Z</time></trkpt><trkpt lat="44.4095767" lon="11.0917817"><ele>217.0</ele><time>2026-04-25T12:07:34.394Z</time></trkpt><trkpt lat="44.4096783" lon="11.091655"><ele>217.0</ele><time>2026-04-25T12:07:35.395Z</time></trkpt><trkpt lat="44.40977" lon="11.091535"><ele>217.0</ele><time>2026-04-25T12:07:36.395Z</time></trkpt><trkpt lat="44.4098567" lon="11.091425"><ele>217.99999999999997</ele><time>2026-04-25T12:07:37.395Z</time></trkpt><trkpt lat="44.409935" lon="11.0913317"><ele>219.0</ele><time>2026-04-25T12:07:38.395Z</time></trkpt><trkpt lat="44.41" lon="11.0912517"><ele>220.0</ele><time>2026-04-25T12:07:39.395Z</time></trkpt><trkpt lat="44.4100483" lon="11.0911733"><ele>221.0</ele><time>2026-04-25T12:07:40.394Z</time></trkpt><trkpt lat="44.410065" lon="11.091085"><ele>221.99999999999997</ele><time>2026-04-25T12:07:41.393Z</time></trkpt><trkpt lat="44.4100467" lon="11.0909783"><ele>223.0</ele><time>2026-04-25T12:07:42.394Z</time></trkpt><trkpt lat="44.41" lon="11.09086"><ele>224.25</ele><time>2026-04-25T12:07:43.392Z</time></trkpt><trkpt lat="44.4099133" lon="11.0907433"><ele>225.5</ele><time>2026-04-25T12:07:44.394Z</time></trkpt><trkpt lat="44.4098017" lon="11.0906267"><ele>226.75</ele><time>2026-04-25T12:07:45.393Z</time></trkpt><trkpt lat="44.4096767" lon="11.0905017"><ele>228.0</ele><time>2026-04-25T12:07:46.393Z</time></trkpt><trkpt lat="44.4095433" lon="11.0903733"><ele>224.66666666666669</ele><time>2026-04-25T12:07:47.393Z</time></trkpt><trkpt lat="44.4093967" lon="11.0902433"><ele>221.33333333333334</ele><time>2026-04-25T12:07:48.394Z</time></trkpt><trkpt lat="44.409245" lon="11.0901067"><ele>218.0</ele><time>2026-04-25T12:07:49.391Z</time></trkpt><trkpt lat="44.4090933" lon="11.0899667"><ele>219.33333333333334</ele><time>2026-04-25T12:07:50.396Z</time></trkpt><trkpt lat="44.4089417" lon="11.0898267"><ele>220.66666666666669</ele><time>2026-04-25T12:07:51.392Z</time></trkpt><trkpt lat="44.4087883" lon="11.0896883"><ele>222.0</ele><time>2026-04-25T12:07:52.392Z</time></trkpt><trkpt lat="44.4086367" lon="11.0895467"><ele>222.0</ele><time>2026-04-25T12:07:53.393Z</time></trkpt><trkpt lat="44.408485" lon="11.0894033"><ele>222.0</ele><time>2026-04-25T12:07:54.393Z</time></trkpt><trkpt lat="44.4083333" lon="11.08926"><ele>222.0</ele><time>2026-04-25T12:07:55.393Z</time></trkpt><trkpt lat="44.4081817" lon="11.089115"><ele>222.33333333333331</ele><time>2026-04-25T12:07:56.395Z</time></trkpt><trkpt lat="44.4080283" lon="11.0889667"><ele>222.66666666666666</ele><time>2026-04-25T12:07:57.394Z</time></trkpt><trkpt lat="44.4078817" lon="11.0888133"><ele>223.0</ele><time>2026-04-25T12:07:58.393Z</time></trkpt><trkpt lat="44.40774" lon="11.0886533"><ele>223.0</ele><time>2026-04-25T12:07:59.393Z</time></trkpt><trkpt lat="44.4076017" lon="11.08848"><ele>223.0</ele><time>2026-04-25T12:08:00.393Z</time></trkpt><trkpt lat="44.40747" lon="11.0882967"><ele>223.0</ele><time>2026-04-25T12:08:01.393Z</time></trkpt><trkpt lat="44.4073383" lon="11.088115"><ele>223.0</ele><time>2026-04-25T12:08:02.395Z</time></trkpt><trkpt lat="44.4072083" lon="11.0879333"><ele>223.0</ele><time>2026-04-25T12:08:03.394Z</time></trkpt><trkpt lat="44.4070783" lon="11.0877533"><ele>223.0</ele><time>2026-04-25T12:08:04.392Z</time></trkpt><trkpt lat="44.4069483" lon="11.087575"><ele>226.0</ele><time>2026-04-25T12:08:05.393Z</time></trkpt><trkpt lat="44.406815" lon="11.087395"><ele>229.0</ele><time>2026-04-25T12:08:06.394Z</time></trkpt><trkpt lat="44.4066817" lon="11.0872133"><ele>232.0</ele><time>2026-04-25T12:08:07.395Z</time></trkpt><trkpt lat="44.4065517" lon="11.0870267"><ele>232.0</ele><time>2026-04-25T12:08:08.395Z</time></trkpt><trkpt lat="44.4064233" lon="11.0868383"><ele>232.0</ele><time>2026-04-25T12:08:09.393Z</time></trkpt><trkpt lat="44.4063" lon="11.0866433"><ele>232.0</ele><time>2026-04-25T12:08:10.393Z</time></trkpt><trkpt lat="44.4061817" lon="11.0864417"><ele>230.0</ele><time>2026-04-25T12:08:11.393Z</time></trkpt><trkpt lat="44.4060617" lon="11.0862367"><ele>228.0</ele><time>2026-04-25T12:08:12.394Z</time></trkpt><trkpt lat="44.4059433" lon="11.08603"><ele>226.0</ele><time>2026-04-25T12:08:13.393Z</time></trkpt><trkpt lat="44.4058233" lon="11.0858267"><ele>226.66666666666666</ele><time>2026-04-25T12:08:14.394Z</time></trkpt><trkpt lat="44.405705" lon="11.0856233"><ele>227.33333333333331</ele><time>2026-04-25T12:08:15.393Z</time></trkpt><trkpt lat="44.405585" lon="11.08542"><ele>228.0</ele><time>2026-04-25T12:08:16.392Z</time></trkpt><trkpt lat="44.4054667" lon="11.0852117"><ele>228.0</ele><time>2026-04-25T12:08:17.394Z</time></trkpt><trkpt lat="44.40535" lon="11.0850017"><ele>228.0</ele><time>2026-04-25T12:08:18.394Z</time></trkpt><trkpt lat="44.4052317" lon="11.0847917"><ele>228.0</ele><time>2026-04-25T12:08:19.393Z</time></trkpt><trkpt lat="44.4051117" lon="11.0845817"><ele>229.33333333333331</ele><time>2026-04-25T12:08:20.395Z</time></trkpt><trkpt lat="44.4049933" lon="11.0843717"><ele>230.66666666666666</ele><time>2026-04-25T12:08:21.394Z</time></trkpt><trkpt lat="44.404875" lon="11.0841617"><ele>232.0</ele><time>2026-04-25T12:08:22.394Z</time></trkpt><trkpt lat="44.4047583" lon="11.0839517"><ele>232.0</ele><time>2026-04-25T12:08:23.392Z</time></trkpt><trkpt lat="44.4046383" lon="11.0837433"><ele>232.0</ele><time>2026-04-25T12:08:24.394Z</time></trkpt><trkpt lat="44.4045217" lon="11.0835367"><ele>232.0</ele><time>2026-04-25T12:08:25.394Z</time></trkpt><trkpt lat="44.4044033" lon="11.0833317"><ele>233.0</ele><time>2026-04-25T12:08:26.394Z</time></trkpt><trkpt lat="44.4042867" lon="11.0831333"><ele>234.0</ele><time>2026-04-25T12:08:27.394Z</time></trkpt><trkpt lat="44.40416" lon="11.082945"><ele>235.0</ele><time>2026-04-25T12:08:28.394Z</time></trkpt><trkpt lat="44.4040217" lon="11.082765"><ele>235.0</ele><time>2026-04-25T12:08:29.394Z</time></trkpt><trkpt lat="44.4038717" lon="11.0825983"><ele>235.0</ele><time>2026-04-25T12:08:30.392Z</time></trkpt><trkpt lat="44.4037133" lon="11.08244"><ele>235.0</ele><time>2026-04-25T12:08:31.393Z</time></trkpt><trkpt lat="44.4035483" lon="11.0822867"><ele>236.0</ele><time>2026-04-25T12:08:32.394Z</time></trkpt><trkpt lat="44.4033833" lon="11.0821333"><ele>237.0</ele><time>2026-04-25T12:08:33.394Z</time></trkpt><trkpt lat="44.4032167" lon="11.0819817"><ele>238.0</ele><time>2026-04-25T12:08:34.393Z</time></trkpt><trkpt lat="44.4030517" lon="11.0818267"><ele>238.0</ele><time>2026-04-25T12:08:35.393Z</time></trkpt><trkpt lat="44.4028867" lon="11.08167"><ele>238.0</ele><time>2026-04-25T12:08:36.394Z</time></trkpt><trkpt lat="44.40272" lon="11.081515"><ele>238.0</ele><time>2026-04-25T12:08:37.393Z</time></trkpt><trkpt lat="44.40255" lon="11.0813583"><ele>238.0</ele><time>2026-04-25T12:08:38.395Z</time></trkpt><trkpt lat="44.40239" lon="11.081205"><ele>238.0</ele><time>2026-04-25T12:08:39.39Z</time></trkpt><trkpt lat="44.4022333" lon="11.0810567"><ele>238.0</ele><time>2026-04-25T12:08:40.393Z</time></trkpt><trkpt lat="44.402075" lon="11.08091"><ele>239.33333333333331</ele><time>2026-04-25T12:08:41.393Z</time></trkpt><trkpt lat="44.401915" lon="11.0807617"><ele>240.66666666666669</ele><time>2026-04-25T12:08:42.392Z</time></trkpt><trkpt lat="44.401755" lon="11.08061"><ele>242.0</ele><time>2026-04-25T12:08:43.394Z</time></trkpt><trkpt lat="44.4015933" lon="11.0804617"><ele>242.0</ele><time>2026-04-25T12:08:44.395Z</time></trkpt><trkpt lat="44.4014333" lon="11.0803117"><ele>242.0</ele><time>2026-04-25T12:08:45.392Z</time></trkpt><trkpt lat="44.40128" lon="11.0801633"><ele>242.0</ele><time>2026-04-25T12:08:46.394Z</time></trkpt><trkpt lat="44.4011383" lon="11.0800167"><ele>244.0</ele><time>2026-04-25T12:08:47.392Z</time></trkpt><trkpt lat="44.400995" lon="11.0798633"><ele>246.0</ele><time>2026-04-25T12:08:48.394Z</time></trkpt><trkpt lat="44.4008583" lon="11.0796983"><ele>248.0</ele><time>2026-04-25T12:08:49.393Z</time></trkpt><trkpt lat="44.400725" lon="11.0795217"><ele>248.0</ele><time>2026-04-25T12:08:50.396Z</time></trkpt><trkpt lat="44.4005967" lon="11.079335"><ele>248.0</ele><time>2026-04-25T12:08:51.393Z</time></trkpt><trkpt lat="44.4004683" lon="11.07914"><ele>248.0</ele><time>2026-04-25T12:08:52.393Z</time></trkpt><trkpt lat="44.4003433" lon="11.0789367"><ele>247.0</ele><time>2026-04-25T12:08:53.395Z</time></trkpt><trkpt lat="44.400215" lon="11.0787317"><ele>246.0</ele><time>2026-04-25T12:08:54.394Z</time></trkpt><trkpt lat="44.4000833" lon="11.0785233"><ele>245.0</ele><time>2026-04-25T12:08:55.396Z</time></trkpt><trkpt lat="44.3999583" lon="11.0783267"><ele>245.0</ele><time>2026-04-25T12:08:56.395Z</time></trkpt><trkpt lat="44.3998483" lon="11.0781417"><ele>245.0</ele><time>2026-04-25T12:08:57.392Z</time></trkpt><trkpt lat="44.399745" lon="11.07798"><ele>245.0</ele><time>2026-04-25T12:08:58.394Z</time></trkpt><trkpt lat="44.3996583" lon="11.0778417"><ele>245.0</ele><time>2026-04-25T12:08:59.393Z</time></trkpt><trkpt lat="44.399585" lon="11.07772"><ele>245.0</ele><time>2026-04-25T12:09:00.392Z</time></trkpt><trkpt lat="44.3995183" lon="11.0776267"><ele>245.0</ele><time>2026-04-25T12:09:01.394Z</time></trkpt><trkpt lat="44.3994633" lon="11.0775483"><ele>245.0</ele><time>2026-04-25T12:09:02.394Z</time></trkpt><trkpt lat="44.3994383" lon="11.0773883"><ele>245.0</ele><time>2026-04-25T12:09:04.393Z</time></trkpt><trkpt lat="44.39945" lon="11.0772967"><ele>246.5</ele><time>2026-04-25T12:09:05.393Z</time></trkpt><trkpt lat="44.3994983" lon="11.0771867"><ele>248.0</ele><time>2026-04-25T12:09:06.393Z</time></trkpt><trkpt lat="44.39957" lon="11.0770617"><ele>249.5</ele><time>2026-04-25T12:09:07.393Z</time></trkpt><trkpt lat="44.399665" lon="11.0769333"><ele>251.0</ele><time>2026-04-25T12:09:08.397Z</time></trkpt><trkpt lat="44.3997683" lon="11.076805"><ele>252.0</ele><time>2026-04-25T12:09:09.394Z</time></trkpt><trkpt lat="44.39986" lon="11.0766717"><ele>253.0</ele><time>2026-04-25T12:09:10.392Z</time></trkpt><trkpt lat="44.3999133" lon="11.0765333"><ele>254.0</ele><time>2026-04-25T12:09:11.395Z</time></trkpt><trkpt lat="44.3999317" lon="11.0763833"><ele>255.0</ele><time>2026-04-25T12:09:12.393Z</time></trkpt><trkpt lat="44.39992" lon="11.0762183"><ele>256.4</ele><time>2026-04-25T12:09:13.392Z</time></trkpt><trkpt lat="44.399885" lon="11.0760533"><ele>257.8</ele><time>2026-04-25T12:09:14.388Z</time></trkpt><trkpt lat="44.399845" lon="11.0758967"><ele>259.2</ele><time>2026-04-25T12:09:15.394Z</time></trkpt><trkpt lat="44.399815" lon="11.0757483"><ele>260.6</ele><time>2026-04-25T12:09:16.393Z</time></trkpt><trkpt lat="44.399805" lon="11.0756233"><ele>262.0</ele><time>2026-04-25T12:09:17.39Z</time></trkpt><trkpt lat="44.399815" lon="11.075515"><ele>262.0</ele><time>2026-04-25T12:09:18.394Z</time></trkpt><trkpt lat="44.3998517" lon="11.075425"><ele>262.0</ele><time>2026-04-25T12:09:19.393Z</time></trkpt><trkpt lat="44.3999333" lon="11.0754167"><ele>262.0</ele><time>2026-04-25T12:09:20.395Z</time></trkpt><trkpt lat="44.4000033" lon="11.07545"><ele>262.0</ele><time>2026-04-25T12:09:21.392Z</time></trkpt><trkpt lat="44.4000617" lon="11.0755317"><ele>262.0</ele><time>2026-04-25T12:09:22.393Z</time></trkpt><trkpt lat="44.4000983" lon="11.075665"><ele>262.0</ele><time>2026-04-25T12:09:23.393Z</time></trkpt><trkpt lat="44.40013" lon="11.07581"><ele>262.0</ele><time>2026-04-25T12:09:24.394Z</time></trkpt><trkpt lat="44.400165" lon="11.0759533"><ele>262.0</ele><time>2026-04-25T12:09:25.392Z</time></trkpt><trkpt lat="44.4002217" lon="11.07608"><ele>262.0</ele><time>2026-04-25T12:09:26.393Z</time></trkpt><trkpt lat="44.400305" lon="11.0761933"><ele>262.0</ele><time>2026-04-25T12:09:27.393Z</time></trkpt><trkpt lat="44.4004067" lon="11.07629"><ele>266.25</ele><time>2026-04-25T12:09:28.391Z</time></trkpt><trkpt lat="44.4005183" lon="11.076385"><ele>270.5</ele><time>2026-04-25T12:09:29.393Z</time></trkpt><trkpt lat="44.4006367" lon="11.0764667"><ele>274.75</ele><time>2026-04-25T12:09:30.394Z</time></trkpt><trkpt lat="44.4007633" lon="11.0765317"><ele>279.0</ele><time>2026-04-25T12:09:31.394Z</time></trkpt><trkpt lat="44.4009017" lon="11.07658"><ele>279.5</ele><time>2026-04-25T12:09:32.395Z</time></trkpt><trkpt lat="44.4010417" lon="11.076615"><ele>280.0</ele><time>2026-04-25T12:09:33.394Z</time></trkpt><trkpt lat="44.4011817" lon="11.0766367"><ele>280.5</ele><time>2026-04-25T12:09:34.39Z</time></trkpt><trkpt lat="44.4013283" lon="11.0766583"><ele>281.0</ele><time>2026-04-25T12:09:35.394Z</time></trkpt><trkpt lat="44.4014783" lon="11.0766867"><ele>281.0</ele><time>2026-04-25T12:09:36.393Z</time></trkpt><trkpt lat="44.4016217" lon="11.0767217"><ele>281.0</ele><time>2026-04-25T12:09:37.394Z</time></trkpt><trkpt lat="44.4017583" lon="11.076755"><ele>281.0</ele><time>2026-04-25T12:09:38.392Z</time></trkpt><trkpt lat="44.4018817" lon="11.0767733"><ele>281.0</ele><time>2026-04-25T12:09:39.392Z</time></trkpt><trkpt lat="44.4019883" lon="11.07677"><ele>281.0</ele><time>2026-04-25T12:09:40.394Z</time></trkpt><trkpt lat="44.4020767" lon="11.0767267"><ele>281.0</ele><time>2026-04-25T12:09:41.395Z</time></trkpt><trkpt lat="44.4021433" lon="11.0766417"><ele>281.0</ele><time>2026-04-25T12:09:42.396Z</time></trkpt><trkpt lat="44.402185" lon="11.076535"><ele>281.0</ele><time>2026-04-25T12:09:43.392Z</time></trkpt><trkpt lat="44.4021983" lon="11.0764183"><ele>281.0</ele><time>2026-04-25T12:09:44.395Z</time></trkpt><trkpt lat="44.4021617" lon="11.0763017"><ele>281.0</ele><time>2026-04-25T12:09:45.395Z</time></trkpt><trkpt lat="44.4021117" lon="11.0761917"><ele>284.0</ele><time>2026-04-25T12:09:46.392Z</time></trkpt><trkpt lat="44.4020317" lon="11.076085"><ele>287.0</ele><time>2026-04-25T12:09:47.394Z</time></trkpt><trkpt lat="44.401905" lon="11.0759833"><ele>290.0</ele><time>2026-04-25T12:09:48.394Z</time></trkpt><trkpt lat="44.4017767" lon="11.0758867"><ele>293.0</ele><time>2026-04-25T12:09:49.393Z</time></trkpt><trkpt lat="44.40166" lon="11.0758033"><ele>293.33333333333337</ele><time>2026-04-25T12:09:50.396Z</time></trkpt><trkpt lat="44.4015667" lon="11.075725"><ele>293.6666666666667</ele><time>2026-04-25T12:09:51.393Z</time></trkpt><trkpt lat="44.401505" lon="11.0756417"><ele>294.0</ele><time>2026-04-25T12:09:52.392Z</time></trkpt><trkpt lat="44.4014783" lon="11.0755483"><ele>294.3333333333333</ele><time>2026-04-25T12:09:53.394Z</time></trkpt><trkpt lat="44.4014783" lon="11.0754433"><ele>294.66666666666663</ele><time>2026-04-25T12:09:54.393Z</time></trkpt><trkpt lat="44.4015383" lon="11.07536"><ele>295.0</ele><time>2026-04-25T12:09:55.394Z</time></trkpt><trkpt lat="44.4016167" lon="11.0752967"><ele>295.0</ele><time>2026-04-25T12:09:56.394Z</time></trkpt><trkpt lat="44.4017217" lon="11.075265"><ele>295.0</ele><time>2026-04-25T12:09:57.393Z</time></trkpt><trkpt lat="44.4018583" lon="11.075245"><ele>295.0</ele><time>2026-04-25T12:09:58.394Z</time></trkpt><trkpt lat="44.401985" lon="11.0752183"><ele>295.0</ele><time>2026-04-25T12:09:59.393Z</time></trkpt><trkpt lat="44.402115" lon="11.0752017"><ele>297.75</ele><time>2026-04-25T12:10:00.394Z</time></trkpt><trkpt lat="44.40225" lon="11.075205"><ele>300.5</ele><time>2026-04-25T12:10:01.393Z</time></trkpt><trkpt lat="44.4023867" lon="11.0752383"><ele>303.25</ele><time>2026-04-25T12:10:02.395Z</time></trkpt><trkpt lat="44.402525" lon="11.0752883"><ele>306.0</ele><time>2026-04-25T12:10:03.393Z</time></trkpt><trkpt lat="44.4026683" lon="11.0753317"><ele>306.0</ele><time>2026-04-25T12:10:04.393Z</time></trkpt><trkpt lat="44.402815" lon="11.07537"><ele>306.0</ele><time>2026-04-25T12:10:05.395Z</time></trkpt><trkpt lat="44.40296" lon="11.0754017"><ele>306.0</ele><time>2026-04-25T12:10:06.394Z</time></trkpt><trkpt lat="44.4031117" lon="11.0754167"><ele>306.0</ele><time>2026-04-25T12:10:07.395Z</time></trkpt><trkpt lat="44.4032667" lon="11.0754217"><ele>309.0</ele><time>2026-04-25T12:10:08.396Z</time></trkpt><trkpt lat="44.4034217" lon="11.07542"><ele>312.0</ele><time>2026-04-25T12:10:09.395Z</time></trkpt><trkpt lat="44.4035783" lon="11.0753983"><ele>315.0</ele><time>2026-04-25T12:10:10.394Z</time></trkpt><trkpt lat="44.4037317" lon="11.0753617"><ele>317.25</ele><time>2026-04-25T12:10:11.394Z</time></trkpt><trkpt lat="44.4038767" lon="11.0753283"><ele>319.5</ele><time>2026-04-25T12:10:12.394Z</time></trkpt><trkpt lat="44.4040233" lon="11.07531"><ele>321.75</ele><time>2026-04-25T12:10:13.394Z</time></trkpt><trkpt lat="44.4041717" lon="11.075315"><ele>324.0</ele><time>2026-04-25T12:10:14.395Z</time></trkpt><trkpt lat="44.40432" lon="11.07533"><ele>324.0</ele><time>2026-04-25T12:10:15.395Z</time></trkpt><trkpt lat="44.40447" lon="11.0753533"><ele>324.0</ele><time>2026-04-25T12:10:16.394Z</time></trkpt><trkpt lat="44.4046133" lon="11.0753717"><ele>324.0</ele><time>2026-04-25T12:10:17.392Z</time></trkpt><trkpt lat="44.404745" lon="11.0753733"><ele>324.0</ele><time>2026-04-25T12:10:18.395Z</time></trkpt><trkpt lat="44.40487" lon="11.0753433"><ele>327.25</ele><time>2026-04-25T12:10:19.393Z</time></trkpt><trkpt lat="44.4049967" lon="11.07528"><ele>330.5</ele><time>2026-04-25T12:10:20.395Z</time></trkpt><trkpt lat="44.4051133" lon="11.0751833"><ele>333.75</ele><time>2026-04-25T12:10:21.393Z</time></trkpt><trkpt lat="44.4052217" lon="11.0750783"><ele>337.0</ele><time>2026-04-25T12:10:22.395Z</time></trkpt><trkpt lat="44.40533" lon="11.07499"><ele>336.75</ele><time>2026-04-25T12:10:23.394Z</time></trkpt><trkpt lat="44.40544" lon="11.0749183"><ele>336.5</ele><time>2026-04-25T12:10:24.394Z</time></trkpt><trkpt lat="44.405565" lon="11.0748683"><ele>336.25</ele><time>2026-04-25T12:10:25.394Z</time></trkpt><trkpt lat="44.4057033" lon="11.0748217"><ele>336.0</ele><time>2026-04-25T12:10:26.395Z</time></trkpt><trkpt lat="44.4058533" lon="11.07478"><ele>336.0</ele><time>2026-04-25T12:10:27.393Z</time></trkpt><trkpt lat="44.40601" lon="11.0747367"><ele>336.0</ele><time>2026-04-25T12:10:28.393Z</time></trkpt><trkpt lat="44.406165" lon="11.0746917"><ele>336.0</ele><time>2026-04-25T12:10:29.393Z</time></trkpt><trkpt lat="44.40631" lon="11.074635"><ele>336.5</ele><time>2026-04-25T12:10:30.396Z</time></trkpt><trkpt lat="44.4064433" lon="11.0745883"><ele>337.0</ele><time>2026-04-25T12:10:31.394Z</time></trkpt><trkpt lat="44.4065717" lon="11.0745583"><ele>337.5</ele><time>2026-04-25T12:10:32.395Z</time></trkpt><trkpt lat="44.4067083" lon="11.0745517"><ele>338.0</ele><time>2026-04-25T12:10:33.392Z</time></trkpt><trkpt lat="44.406855" lon="11.074565"><ele>338.0</ele><time>2026-04-25T12:10:34.394Z</time></trkpt><trkpt lat="44.407" lon="11.0745733"><ele>338.0</ele><time>2026-04-25T12:10:35.399Z</time></trkpt><trkpt lat="44.4071517" lon="11.07456"><ele>338.0</ele><time>2026-04-25T12:10:36.394Z</time></trkpt><trkpt lat="44.4073067" lon="11.0745233"><ele>339.33333333333337</ele><time>2026-04-25T12:10:37.395Z</time></trkpt><trkpt lat="44.4074617" lon="11.0744733"><ele>340.6666666666667</ele><time>2026-04-25T12:10:38.395Z</time></trkpt><trkpt lat="44.4076183" lon="11.074405"><ele>342.0</ele><time>2026-04-25T12:10:39.394Z</time></trkpt><trkpt lat="44.4077733" lon="11.074325"><ele>342.0</ele><time>2026-04-25T12:10:40.395Z</time></trkpt><trkpt lat="44.4079283" lon="11.074255"><ele>342.0</ele><time>2026-04-25T12:10:41.395Z</time></trkpt><trkpt lat="44.4080867" lon="11.0741867"><ele>342.0</ele><time>2026-04-25T12:10:42.395Z</time></trkpt><trkpt lat="44.408245" lon="11.074125"><ele>341.6666666666667</ele><time>2026-04-25T12:10:43.394Z</time></trkpt><trkpt lat="44.4084033" lon="11.074055"><ele>341.33333333333337</ele><time>2026-04-25T12:10:44.396Z</time></trkpt><trkpt lat="44.408565" lon="11.073975"><ele>341.0</ele><time>2026-04-25T12:10:45.395Z</time></trkpt><trkpt lat="44.408725" lon="11.07389"><ele>346.33333333333337</ele><time>2026-04-25T12:10:46.393Z</time></trkpt><trkpt lat="44.40888" lon="11.0738033"><ele>351.6666666666667</ele><time>2026-04-25T12:10:47.396Z</time></trkpt><trkpt lat="44.4090317" lon="11.07372"><ele>357.0</ele><time>2026-04-25T12:10:48.395Z</time></trkpt><trkpt lat="44.4091767" lon="11.073645"><ele>357.0</ele><time>2026-04-25T12:10:49.391Z</time></trkpt><trkpt lat="44.4093217" lon="11.0735667"><ele>357.0</ele><time>2026-04-25T12:10:50.396Z</time></trkpt><trkpt lat="44.4094583" lon="11.073485"><ele>357.0</ele><time>2026-04-25T12:10:51.398Z</time></trkpt><trkpt lat="44.4095833" lon="11.0733933"><ele>357.0</ele><time>2026-04-25T12:10:52.393Z</time></trkpt><trkpt lat="44.4097" lon="11.07328"><ele>359.0</ele><time>2026-04-25T12:10:53.396Z</time></trkpt><trkpt lat="44.4098133" lon="11.0731567"><ele>361.0</ele><time>2026-04-25T12:10:54.393Z</time></trkpt><trkpt lat="44.4099217" lon="11.0730317"><ele>363.0</ele><time>2026-04-25T12:10:55.395Z</time></trkpt><trkpt lat="44.41003" lon="11.072905"><ele>365.0</ele><time>2026-04-25T12:10:56.398Z</time></trkpt><trkpt lat="44.410145" lon="11.0727717"><ele>365.0</ele><time>2026-04-25T12:10:57.396Z</time></trkpt><trkpt lat="44.4102633" lon="11.0726267"><ele>365.0</ele><time>2026-04-25T12:10:58.396Z</time></trkpt><trkpt lat="44.4103817" lon="11.07248"><ele>365.0</ele><time>2026-04-25T12:10:59.394Z</time></trkpt><trkpt lat="44.4104983" lon="11.0723367"><ele>366.75</ele><time>2026-04-25T12:11:00.391Z</time></trkpt><trkpt lat="44.41061" lon="11.07221"><ele>368.5</ele><time>2026-04-25T12:11:01.394Z</time></trkpt><trkpt lat="44.41072" lon="11.0721033"><ele>370.25</ele><time>2026-04-25T12:11:02.396Z</time></trkpt><trkpt lat="44.4108233" lon="11.072025"><ele>372.0</ele><time>2026-04-25T12:11:03.395Z</time></trkpt><trkpt lat="44.4109183" lon="11.07197"><ele>372.0</ele><time>2026-04-25T12:11:04.394Z</time></trkpt><trkpt lat="44.411005" lon="11.07194"><ele>372.0</ele><time>2026-04-25T12:11:05.398Z</time></trkpt><trkpt lat="44.4110767" lon="11.07192"><ele>372.0</ele><time>2026-04-25T12:11:06.396Z</time></trkpt><trkpt lat="44.4111383" lon="11.0718383"><ele>372.0</ele><time>2026-04-25T12:11:08.396Z</time></trkpt><trkpt lat="44.41111" lon="11.0716733"><ele>372.0</ele><time>2026-04-25T12:11:10.394Z</time></trkpt><trkpt lat="44.4110617" lon="11.071555"><ele>371.0</ele><time>2026-04-25T12:11:11.393Z</time></trkpt><trkpt lat="44.411" lon="11.0714217"><ele>370.0</ele><time>2026-04-25T12:11:12.394Z</time></trkpt><trkpt lat="44.41096" lon="11.0713"><ele>369.0</ele><time>2026-04-25T12:11:13.394Z</time></trkpt><trkpt lat="44.410925" lon="11.0711833"><ele>368.0</ele><time>2026-04-25T12:11:14.395Z</time></trkpt><trkpt lat="44.410905" lon="11.0710733"><ele>367.0</ele><time>2026-04-25T12:11:15.394Z</time></trkpt><trkpt lat="44.4109" lon="11.0709733"><ele>367.0</ele><time>2026-04-25T12:11:16.394Z</time></trkpt><trkpt lat="44.4109117" lon="11.0708767"><ele>367.0</ele><time>2026-04-25T12:11:17.394Z</time></trkpt><trkpt lat="44.4109433" lon="11.0707767"><ele>367.0</ele><time>2026-04-25T12:11:18.393Z</time></trkpt><trkpt lat="44.4109883" lon="11.070675"><ele>367.0</ele><time>2026-04-25T12:11:19.394Z</time></trkpt><trkpt lat="44.411025" lon="11.0705617"><ele>367.0</ele><time>2026-04-25T12:11:20.395Z</time></trkpt><trkpt lat="44.4110433" lon="11.0704317"><ele>367.0</ele><time>2026-04-25T12:11:21.395Z</time></trkpt><trkpt lat="44.4110517" lon="11.0702883"><ele>366.40000000000003</ele><time>2026-04-25T12:11:22.394Z</time></trkpt><trkpt lat="44.41105" lon="11.0701467"><ele>365.8</ele><time>2026-04-25T12:11:23.395Z</time></trkpt><trkpt lat="44.4110417" lon="11.0700133"><ele>365.2</ele><time>2026-04-25T12:11:24.402Z</time></trkpt><trkpt lat="44.4110217" lon="11.069885"><ele>364.6</ele><time>2026-04-25T12:11:25.395Z</time></trkpt><trkpt lat="44.4109883" lon="11.0697617"><ele>364.0</ele><time>2026-04-25T12:11:26.395Z</time></trkpt><trkpt lat="44.410945" lon="11.0696417"><ele>365.0</ele><time>2026-04-25T12:11:27.394Z</time></trkpt><trkpt lat="44.4109" lon="11.0695217"><ele>366.0</ele><time>2026-04-25T12:11:28.393Z</time></trkpt><trkpt lat="44.4108683" lon="11.0694083"><ele>367.0</ele><time>2026-04-25T12:11:29.395Z</time></trkpt><trkpt lat="44.4108533" lon="11.069295"><ele>368.0</ele><time>2026-04-25T12:11:30.394Z</time></trkpt><trkpt lat="44.410855" lon="11.0691767"><ele>369.0</ele><time>2026-04-25T12:11:31.395Z</time></trkpt><trkpt lat="44.4108717" lon="11.069055"><ele>370.0</ele><time>2026-04-25T12:11:32.395Z</time></trkpt><trkpt lat="44.4109033" lon="11.0689217"><ele>370.0</ele><time>2026-04-25T12:11:33.395Z</time></trkpt><trkpt lat="44.4109433" lon="11.0687833"><ele>370.0</ele><time>2026-04-25T12:11:34.394Z</time></trkpt><trkpt lat="44.410985" lon="11.06865"><ele>370.0</ele><time>2026-04-25T12:11:35.389Z</time></trkpt><trkpt lat="44.41103" lon="11.0685283"><ele>370.0</ele><time>2026-04-25T12:11:36.394Z</time></trkpt><trkpt lat="44.4110817" lon="11.0684183"><ele>370.0</ele><time>2026-04-25T12:11:37.395Z</time></trkpt><trkpt lat="44.4111283" lon="11.0683083"><ele>371.0</ele><time>2026-04-25T12:11:38.395Z</time></trkpt><trkpt lat="44.4111583" lon="11.0681983"><ele>372.0</ele><time>2026-04-25T12:11:39.396Z</time></trkpt><trkpt lat="44.4111633" lon="11.0680817"><ele>373.0</ele><time>2026-04-25T12:11:40.394Z</time></trkpt><trkpt lat="44.4111483" lon="11.06796"><ele>374.0</ele><time>2026-04-25T12:11:41.394Z</time></trkpt><trkpt lat="44.411115" lon="11.0678317"><ele>375.0</ele><time>2026-04-25T12:11:42.395Z</time></trkpt><trkpt lat="44.4110767" lon="11.0677"><ele>375.0</ele><time>2026-04-25T12:11:43.39Z</time></trkpt><trkpt lat="44.411045" lon="11.0675767"><ele>375.0</ele><time>2026-04-25T12:11:44.395Z</time></trkpt><trkpt lat="44.411015" lon="11.0674633"><ele>375.0</ele><time>2026-04-25T12:11:45.394Z</time></trkpt><trkpt lat="44.4109967" lon="11.0673567"><ele>375.0</ele><time>2026-04-25T12:11:46.394Z</time></trkpt><trkpt lat="44.4109917" lon="11.0672533"><ele>375.0</ele><time>2026-04-25T12:11:47.395Z</time></trkpt><trkpt lat="44.410995" lon="11.0671617"><ele>375.0</ele><time>2026-04-25T12:11:48.394Z</time></trkpt><trkpt lat="44.41101" lon="11.067015"><ele>375.1666666666667</ele><time>2026-04-25T12:11:50.397Z</time></trkpt><trkpt lat="44.411025" lon="11.0668683"><ele>375.3333333333333</ele><time>2026-04-25T12:11:52.393Z</time></trkpt><trkpt lat="44.4110467" lon="11.0667083"><ele>375.5</ele><time>2026-04-25T12:11:54.394Z</time></trkpt><trkpt lat="44.4110733" lon="11.0666267"><ele>375.66666666666663</ele><time>2026-04-25T12:11:55.393Z</time></trkpt><trkpt lat="44.4111033" lon="11.066545"><ele>375.8333333333333</ele><time>2026-04-25T12:11:56.395Z</time></trkpt><trkpt lat="44.41114" lon="11.0664617"><ele>376.0</ele><time>2026-04-25T12:11:57.394Z</time></trkpt><trkpt lat="44.4111767" lon="11.066385"><ele>375.75</ele><time>2026-04-25T12:11:58.394Z</time></trkpt><trkpt lat="44.4112483" lon="11.0662417"><ele>375.5</ele><time>2026-04-25T12:12:00.393Z</time></trkpt><trkpt lat="44.411315" lon="11.0661017"><ele>375.25</ele><time>2026-04-25T12:12:02.394Z</time></trkpt><trkpt lat="44.41138" lon="11.0659533"><ele>375.0</ele><time>2026-04-25T12:12:04.394Z</time></trkpt><trkpt lat="44.41144" lon="11.065805"><ele>371.8333333333333</ele><time>2026-04-25T12:12:06.394Z</time></trkpt><trkpt lat="44.4114917" lon="11.0656467"><ele>368.6666666666667</ele><time>2026-04-25T12:12:08.394Z</time></trkpt><trkpt lat="44.4115183" lon="11.065565"><ele>365.5</ele><time>2026-04-25T12:12:09.395Z</time></trkpt><trkpt lat="44.411545" lon="11.0654833"><ele>362.33333333333337</ele><time>2026-04-25T12:12:10.394Z</time></trkpt><trkpt lat="44.4115717" lon="11.0654033"><ele>359.1666666666667</ele><time>2026-04-25T12:12:11.395Z</time></trkpt><trkpt lat="44.4116383" lon="11.0652667"><ele>356.0</ele><time>2026-04-25T12:12:13.395Z</time></trkpt><trkpt lat="44.4117167" lon="11.0651517"><ele>356.0</ele><time>2026-04-25T12:12:15.397Z</time></trkpt><trkpt lat="44.411815" lon="11.0650783"><ele>356.0</ele><time>2026-04-25T12:12:17.395Z</time></trkpt><trkpt lat="44.4119217" lon="11.0650533"><ele>356.0</ele><time>2026-04-25T12:12:19.393Z</time></trkpt><trkpt lat="44.4120367" lon="11.0650233"><ele>356.0</ele><time>2026-04-25T12:12:21.394Z</time></trkpt><trkpt lat="44.4121383" lon="11.06495"><ele>355.4</ele><time>2026-04-25T12:12:23.395Z</time></trkpt><trkpt lat="44.412195" lon="11.0648333"><ele>354.8</ele><time>2026-04-25T12:12:25.394Z</time></trkpt><trkpt lat="44.4122133" lon="11.0647"><ele>354.2</ele><time>2026-04-25T12:12:27.394Z</time></trkpt><trkpt lat="44.4121983" lon="11.0645567"><ele>353.59999999999997</ele><time>2026-04-25T12:12:29.394Z</time></trkpt><trkpt lat="44.4121933" lon="11.0644333"><ele>353.0</ele><time>2026-04-25T12:12:31.395Z</time></trkpt><trkpt lat="44.4122383" lon="11.0643217"><ele>353.0</ele><time>2026-04-25T12:12:33.395Z</time></trkpt><trkpt lat="44.412305" lon="11.0642033"><ele>353.0</ele><time>2026-04-25T12:12:35.394Z</time></trkpt><trkpt lat="44.412375" lon="11.0640833"><ele>353.0</ele><time>2026-04-25T12:12:37.393Z</time></trkpt><trkpt lat="44.4124433" lon="11.06396"><ele>353.0</ele><time>2026-04-25T12:12:39.393Z</time></trkpt><trkpt lat="44.41251" lon="11.0638483"><ele>353.0</ele><time>2026-04-25T12:12:41.396Z</time></trkpt><trkpt lat="44.4125617" lon="11.0637367"><ele>351.1666666666667</ele><time>2026-04-25T12:12:43.393Z</time></trkpt><trkpt lat="44.4126283" lon="11.0636233"><ele>349.33333333333337</ele><time>2026-04-25T12:12:45.393Z</time></trkpt><trkpt lat="44.412695" lon="11.0635167"><ele>347.5</ele><time>2026-04-25T12:12:47.396Z</time></trkpt><trkpt lat="44.41275" lon="11.063445"><ele>345.6666666666667</ele><time>2026-04-25T12:12:49.395Z</time></trkpt><trkpt lat="44.41283" lon="11.0633867"><ele>343.8333333333333</ele><time>2026-04-25T12:12:52.393Z</time></trkpt><trkpt lat="44.41289" lon="11.063325"><ele>342.0</ele><time>2026-04-25T12:12:54.394Z</time></trkpt><trkpt lat="44.4129567" lon="11.063215"><ele>339.0</ele><time>2026-04-25T12:12:56.396Z</time></trkpt><trkpt lat="44.4130083" lon="11.0631017"><ele>336.0</ele><time>2026-04-25T12:12:58.397Z</time></trkpt><trkpt lat="44.4130467" lon="11.0629767"><ele>333.0</ele><time>2026-04-25T12:13:00.393Z</time></trkpt><trkpt lat="44.4130817" lon="11.0628283"><ele>330.0</ele><time>2026-04-25T12:13:02.394Z</time></trkpt><trkpt lat="44.4131133" lon="11.06268"><ele>327.0</ele><time>2026-04-25T12:13:04.394Z</time></trkpt><trkpt lat="44.413145" lon="11.0625317"><ele>327.25</ele><time>2026-04-25T12:13:06.395Z</time></trkpt><trkpt lat="44.4131767" lon="11.0623783"><ele>327.5</ele><time>2026-04-25T12:13:08.395Z</time></trkpt><trkpt lat="44.4132083" lon="11.0622333"><ele>327.75</ele><time>2026-04-25T12:13:10.393Z</time></trkpt><trkpt lat="44.4132533" lon="11.0620967"><ele>328.0</ele><time>2026-04-25T12:13:12.395Z</time></trkpt><trkpt lat="44.4133117" lon="11.0619467"><ele>327.99999999999994</ele><time>2026-04-25T12:13:14.395Z</time></trkpt><trkpt lat="44.4133433" lon="11.0618617"><ele>328.0</ele><time>2026-04-25T12:13:15.398Z</time></trkpt><trkpt lat="44.4133783" lon="11.0617733"><ele>328.0</ele><time>2026-04-25T12:13:16.391Z</time></trkpt><trkpt lat="44.4134133" lon="11.0616783"><ele>328.0</ele><time>2026-04-25T12:13:17.395Z</time></trkpt><trkpt lat="44.4134467" lon="11.061585"><ele>328.0</ele><time>2026-04-25T12:13:18.395Z</time></trkpt><trkpt lat="44.4134767" lon="11.0614983"><ele>327.99999999999994</ele><time>2026-04-25T12:13:19.396Z</time></trkpt><trkpt lat="44.413505" lon="11.0614183"><ele>328.0</ele><time>2026-04-25T12:13:20.396Z</time></trkpt><trkpt lat="44.4135633" lon="11.061265"><ele>327.3333333333333</ele><time>2026-04-25T12:13:22.394Z</time></trkpt><trkpt lat="44.413595" lon="11.0611783"><ele>326.66666666666663</ele><time>2026-04-25T12:13:23.394Z</time></trkpt><trkpt lat="44.41363" lon="11.0610867"><ele>326.0</ele><time>2026-04-25T12:13:24.395Z</time></trkpt><trkpt lat="44.4136583" lon="11.0609983"><ele>325.3333333333333</ele><time>2026-04-25T12:13:25.393Z</time></trkpt><trkpt lat="44.413685" lon="11.0609167"><ele>324.6666666666667</ele><time>2026-04-25T12:13:26.395Z</time></trkpt><trkpt lat="44.4137133" lon="11.0607633"><ele>324.0</ele><time>2026-04-25T12:13:28.395Z</time></trkpt><trkpt lat="44.4137233" lon="11.0606383"><ele>321.59999999999997</ele><time>2026-04-25T12:13:30.395Z</time></trkpt><trkpt lat="44.4137383" lon="11.0605117"><ele>319.2</ele><time>2026-04-25T12:13:32.396Z</time></trkpt><trkpt lat="44.41377" lon="11.0603683"><ele>316.79999999999995</ele><time>2026-04-25T12:13:34.395Z</time></trkpt><trkpt lat="44.413805" lon="11.060225"><ele>314.4</ele><time>2026-04-25T12:13:36.394Z</time></trkpt><trkpt lat="44.4138167" lon="11.0600917"><ele>312.0</ele><time>2026-04-25T12:13:38.396Z</time></trkpt><trkpt lat="44.4138217" lon="11.0599467"><ele>311.0</ele><time>2026-04-25T12:13:40.395Z</time></trkpt><trkpt lat="44.413835" lon="11.05979"><ele>310.0</ele><time>2026-04-25T12:13:42.394Z</time></trkpt><trkpt lat="44.4138583" lon="11.0596517"><ele>309.0</ele><time>2026-04-25T12:13:44.395Z</time></trkpt><trkpt lat="44.4139067" lon="11.0595483"><ele>308.0</ele><time>2026-04-25T12:13:46.394Z</time></trkpt><trkpt lat="44.41398" lon="11.059475"><ele>307.0</ele><time>2026-04-25T12:13:48.395Z</time></trkpt><trkpt lat="44.4140783" lon="11.0593967"><ele>307.0</ele><time>2026-04-25T12:13:50.396Z</time></trkpt><trkpt lat="44.414135" lon="11.0593567"><ele>307.0</ele><time>2026-04-25T12:13:51.393Z</time></trkpt><trkpt lat="44.414235" lon="11.0592983"><ele>307.0</ele><time>2026-04-25T12:13:53.396Z</time></trkpt><trkpt lat="44.4143067" lon="11.0592233"><ele>307.0</ele><time>2026-04-25T12:13:55.396Z</time></trkpt><trkpt lat="44.414355" lon="11.059105"><ele>307.0</ele><time>2026-04-25T12:13:57.394Z</time></trkpt><trkpt lat="44.4144117" lon="11.058945"><ele>306.2</ele><time>2026-04-25T12:13:59.397Z</time></trkpt><trkpt lat="44.4144367" lon="11.0588583"><ele>305.4</ele><time>2026-04-25T12:14:00.395Z</time></trkpt><trkpt lat="44.41446" lon="11.058775"><ele>304.6</ele><time>2026-04-25T12:14:01.395Z</time></trkpt><trkpt lat="44.4144983" lon="11.0586167"><ele>303.8</ele><time>2026-04-25T12:14:03.393Z</time></trkpt><trkpt lat="44.4145517" lon="11.058465"><ele>303.0</ele><time>2026-04-25T12:14:05.394Z</time></trkpt><trkpt lat="44.4145933" lon="11.0583133"><ele>300.7142857142857</ele><time>2026-04-25T12:14:07.394Z</time></trkpt><trkpt lat="44.4146233" lon="11.0582333"><ele>298.42857142857144</ele><time>2026-04-25T12:14:08.395Z</time></trkpt><trkpt lat="44.4146583" lon="11.058155"><ele>296.1428571428571</ele><time>2026-04-25T12:14:09.393Z</time></trkpt><trkpt lat="44.4147" lon="11.0580817"><ele>293.8571428571429</ele><time>2026-04-25T12:14:10.394Z</time></trkpt><trkpt lat="44.41475" lon="11.0580167"><ele>291.57142857142856</ele><time>2026-04-25T12:14:11.395Z</time></trkpt><trkpt lat="44.4148017" lon="11.05796"><ele>289.2857142857143</ele><time>2026-04-25T12:14:12.394Z</time></trkpt><trkpt lat="44.4148583" lon="11.0579067"><ele>287.0</ele><time>2026-04-25T12:14:13.394Z</time></trkpt><trkpt lat="44.4149283" lon="11.0578733"><ele>286.6666666666667</ele><time>2026-04-25T12:14:14.396Z</time></trkpt><trkpt lat="44.4149967" lon="11.057835"><ele>286.33333333333337</ele><time>2026-04-25T12:14:15.395Z</time></trkpt><trkpt lat="44.4150667" lon="11.0577983"><ele>286.0</ele><time>2026-04-25T12:14:16.395Z</time></trkpt><trkpt lat="44.41513" lon="11.0577617"><ele>285.6666666666667</ele><time>2026-04-25T12:14:17.395Z</time></trkpt><trkpt lat="44.4151933" lon="11.0577183"><ele>285.3333333333333</ele><time>2026-04-25T12:14:18.394Z</time></trkpt><trkpt lat="44.4152467" lon="11.0576667"><ele>285.0</ele><time>2026-04-25T12:14:19.392Z</time></trkpt><trkpt lat="44.4153283" lon="11.057545"><ele>283.3333333333333</ele><time>2026-04-25T12:14:21.393Z</time></trkpt><trkpt lat="44.415405" lon="11.05741"><ele>281.6666666666667</ele><time>2026-04-25T12:14:23.393Z</time></trkpt><trkpt lat="44.4154433" lon="11.0573283"><ele>280.0</ele><time>2026-04-25T12:14:24.393Z</time></trkpt><trkpt lat="44.4154817" lon="11.0572383"><ele>278.33333333333337</ele><time>2026-04-25T12:14:25.394Z</time></trkpt><trkpt lat="44.4155167" lon="11.0571533"><ele>276.6666666666667</ele><time>2026-04-25T12:14:26.397Z</time></trkpt><trkpt lat="44.4155567" lon="11.0570733"><ele>275.0</ele><time>2026-04-25T12:14:27.395Z</time></trkpt><trkpt lat="44.415595" lon="11.0569983"><ele>275.0</ele><time>2026-04-25T12:14:28.394Z</time></trkpt><trkpt lat="44.4156533" lon="11.0568583"><ele>275.0</ele><time>2026-04-25T12:14:30.395Z</time></trkpt><trkpt lat="44.4156933" lon="11.0567583"><ele>275.0</ele><time>2026-04-25T12:14:32.395Z</time></trkpt><trkpt lat="44.4157483" lon="11.0566767"><ele>275.0</ele><time>2026-04-25T12:14:34.394Z</time></trkpt><trkpt lat="44.4157767" lon="11.05659"><ele>275.0</ele><time>2026-04-25T12:14:36.395Z</time></trkpt><trkpt lat="44.415815" lon="11.056455"><ele>272.83333333333337</ele><time>2026-04-25T12:15:09.394Z</time></trkpt><trkpt lat="44.415815" lon="11.0562917"><ele>270.6666666666667</ele><time>2026-04-25T12:16:19.394Z</time></trkpt><trkpt lat="44.4157967" lon="11.0561983"><ele>268.5</ele><time>2026-04-25T12:16:26.394Z</time></trkpt><trkpt lat="44.4158083" lon="11.0562867"><ele>266.3333333333333</ele><time>2026-04-25T12:17:11.394Z</time></trkpt><trkpt lat="44.4158" lon="11.0564167"><ele>264.16666666666663</ele><time>2026-04-25T12:17:14.395Z</time></trkpt><trkpt lat="44.4157867" lon="11.056505"><ele>262.0</ele><time>2026-04-25T12:17:16.393Z</time></trkpt><trkpt lat="44.4158333" lon="11.0563517"><ele>262.0</ele><time>2026-04-25T12:26:16.394Z</time></trkpt><trkpt lat="44.4158333" lon="11.0562117"><ele>262.0</ele><time>2026-04-25T12:26:19.394Z</time></trkpt><trkpt lat="44.4158233" lon="11.0560567"><ele>262.0</ele><time>2026-04-25T12:26:21.394Z</time></trkpt><trkpt lat="44.41579" lon="11.0558917"><ele>262.0</ele><time>2026-04-25T12:26:23.394Z</time></trkpt><trkpt lat="44.41576" lon="11.05574"><ele>262.0</ele><time>2026-04-25T12:26:25.393Z</time></trkpt><trkpt lat="44.415735" lon="11.0555933"><ele>258.2</ele><time>2026-04-25T12:26:27.393Z</time></trkpt><trkpt lat="44.4157083" lon="11.055435"><ele>254.39999999999998</ele><time>2026-04-25T12:26:29.393Z</time></trkpt><trkpt lat="44.4156783" lon="11.0552683"><ele>250.60000000000002</ele><time>2026-04-25T12:26:31.393Z</time></trkpt><trkpt lat="44.415645" lon="11.055095"><ele>246.8</ele><time>2026-04-25T12:26:33.391Z</time></trkpt><trkpt lat="44.4156283" lon="11.055005"><ele>243.0</ele><time>2026-04-25T12:26:34.393Z</time></trkpt><trkpt lat="44.4156117" lon="11.054915"><ele>241.28571428571428</ele><time>2026-04-25T12:26:35.393Z</time></trkpt><trkpt lat="44.4155983" lon="11.05482"><ele>239.57142857142858</ele><time>2026-04-25T12:26:36.392Z</time></trkpt><trkpt lat="44.4155833" lon="11.054725"><ele>237.85714285714286</ele><time>2026-04-25T12:26:37.394Z</time></trkpt><trkpt lat="44.4155683" lon="11.0546283"><ele>236.14285714285714</ele><time>2026-04-25T12:26:38.394Z</time></trkpt><trkpt lat="44.4155533" lon="11.05453"><ele>234.42857142857144</ele><time>2026-04-25T12:26:39.393Z</time></trkpt><trkpt lat="44.4155383" lon="11.0544417"><ele>232.71428571428572</ele><time>2026-04-25T12:26:40.394Z</time></trkpt><trkpt lat="44.415495" lon="11.054315"><ele>231.0</ele><time>2026-04-25T12:26:42.394Z</time></trkpt><trkpt lat="44.4154083" lon="11.0542433"><ele>231.0</ele><time>2026-04-25T12:26:44.393Z</time></trkpt><trkpt lat="44.415315" lon="11.0541583"><ele>231.0</ele><time>2026-04-25T12:26:46.394Z</time></trkpt><trkpt lat="44.4152717" lon="11.05406"><ele>231.0</ele><time>2026-04-25T12:26:48.395Z</time></trkpt><trkpt lat="44.4152833" lon="11.0539617"><ele>231.0</ele><time>2026-04-25T12:26:52.393Z</time></trkpt><trkpt lat="44.4153783" lon="11.0539317"><ele>231.0</ele><time>2026-04-25T12:27:14.399Z</time></trkpt><trkpt lat="44.4154517" lon="11.05387"><ele>231.0</ele><time>2026-04-25T12:27:16.393Z</time></trkpt><trkpt lat="44.4154983" lon="11.053805"><ele>231.5</ele><time>2026-04-25T12:27:18.395Z</time></trkpt><trkpt lat="44.4155467" lon="11.05369"><ele>232.0</ele><time>2026-04-25T12:27:34.394Z</time></trkpt><trkpt lat="44.4155617" lon="11.0535583"><ele>232.5</ele><time>2026-04-25T12:27:38.395Z</time></trkpt><trkpt lat="44.4155917" lon="11.0534633"><ele>233.0</ele><time>2026-04-25T12:27:40.394Z</time></trkpt><trkpt lat="44.415635" lon="11.0533617"><ele>233.5</ele><time>2026-04-25T12:27:42.393Z</time></trkpt><trkpt lat="44.4156983" lon="11.0532683"><ele>234.0</ele><time>2026-04-25T12:27:44.395Z</time></trkpt><trkpt lat="44.4157917" lon="11.0532183"><ele>234.0</ele><time>2026-04-25T12:27:46.394Z</time></trkpt><trkpt lat="44.41591" lon="11.0532083"><ele>233.99999999999997</ele><time>2026-04-25T12:27:48.391Z</time></trkpt><trkpt lat="44.4160417" lon="11.0532017"><ele>233.99999999999997</ele><time>2026-04-25T12:27:50.4Z</time></trkpt><trkpt lat="44.41611" lon="11.0532017"><ele>234.0</ele><time>2026-04-25T12:27:51.395Z</time></trkpt><trkpt lat="44.4161733" lon="11.0532"><ele>234.0</ele><time>2026-04-25T12:27:52.394Z</time></trkpt><trkpt lat="44.4162867" lon="11.053205"><ele>232.0</ele><time>2026-04-25T12:27:54.391Z</time></trkpt><trkpt lat="44.416355" lon="11.0532217"><ele>229.99999999999997</ele><time>2026-04-25T12:27:55.395Z</time></trkpt><trkpt lat="44.4164383" lon="11.0532367"><ele>227.99999999999997</ele><time>2026-04-25T12:27:56.389Z</time></trkpt><trkpt lat="44.4165383" lon="11.053245"><ele>226.0</ele><time>2026-04-25T12:27:57.395Z</time></trkpt><trkpt lat="44.4166417" lon="11.0532417"><ele>224.0</ele><time>2026-04-25T12:27:58.396Z</time></trkpt><trkpt lat="44.4167433" lon="11.0532283"><ele>224.0</ele><time>2026-04-25T12:27:59.393Z</time></trkpt><trkpt lat="44.4168483" lon="11.053215"><ele>224.0</ele><time>2026-04-25T12:28:00.393Z</time></trkpt><trkpt lat="44.41696" lon="11.0531867"><ele>224.0</ele><time>2026-04-25T12:28:01.394Z</time></trkpt><trkpt lat="44.4170767" lon="11.053155"><ele>224.0</ele><time>2026-04-25T12:28:02.395Z</time></trkpt><trkpt lat="44.4171933" lon="11.05313"><ele>222.25</ele><time>2026-04-25T12:28:03.395Z</time></trkpt><trkpt lat="44.4173083" lon="11.0531267"><ele>220.5</ele><time>2026-04-25T12:28:04.388Z</time></trkpt><trkpt lat="44.4174267" lon="11.05315"><ele>218.75</ele><time>2026-04-25T12:28:05.394Z</time></trkpt><trkpt lat="44.4175467" lon="11.0531983"><ele>217.0</ele><time>2026-04-25T12:28:06.394Z</time></trkpt><trkpt lat="44.417665" lon="11.05327"><ele>217.5</ele><time>2026-04-25T12:28:07.394Z</time></trkpt><trkpt lat="44.4177817" lon="11.0533667"><ele>218.0</ele><time>2026-04-25T12:28:08.396Z</time></trkpt><trkpt lat="44.4178983" lon="11.0534717"><ele>218.5</ele><time>2026-04-25T12:28:09.395Z</time></trkpt><trkpt lat="44.4180183" lon="11.0535817"><ele>219.0</ele><time>2026-04-25T12:28:10.393Z</time></trkpt><trkpt lat="44.4181367" lon="11.05369"><ele>218.2</ele><time>2026-04-25T12:28:11.393Z</time></trkpt><trkpt lat="44.4182417" lon="11.0537917"><ele>217.39999999999998</ele><time>2026-04-25T12:28:12.394Z</time></trkpt><trkpt lat="44.4183333" lon="11.0538817"><ele>216.6</ele><time>2026-04-25T12:28:13.394Z</time></trkpt><trkpt lat="44.4184133" lon="11.0539633"><ele>215.8</ele><time>2026-04-25T12:28:14.396Z</time></trkpt><trkpt lat="44.4184817" lon="11.0540267"><ele>215.0</ele><time>2026-04-25T12:28:15.394Z</time></trkpt><trkpt lat="44.418545" lon="11.0540633"><ele>215.0</ele><time>2026-04-25T12:28:16.393Z</time></trkpt><trkpt lat="44.418625" lon="11.054085"><ele>215.0</ele><time>2026-04-25T12:28:17.394Z</time></trkpt><trkpt lat="44.41871" lon="11.0541167"><ele>215.0</ele><time>2026-04-25T12:28:18.395Z</time></trkpt><trkpt lat="44.4188" lon="11.054165"><ele>215.0</ele><time>2026-04-25T12:28:19.394Z</time></trkpt><trkpt lat="44.4188917" lon="11.0542217"><ele>215.0</ele><time>2026-04-25T12:28:20.395Z</time></trkpt><trkpt lat="44.4189783" lon="11.0542733"><ele>215.00000000000003</ele><time>2026-04-25T12:28:21.395Z</time></trkpt><trkpt lat="44.4190583" lon="11.05432"><ele>215.0</ele><time>2026-04-25T12:28:22.393Z</time></trkpt><trkpt lat="44.4191267" lon="11.0543583"><ele>215.0</ele><time>2026-04-25T12:28:23.394Z</time></trkpt><trkpt lat="44.41919" lon="11.054385"><ele>215.0</ele><time>2026-04-25T12:28:24.394Z</time></trkpt><trkpt lat="44.41927" lon="11.0543883"><ele>215.00000000000003</ele><time>2026-04-25T12:28:25.396Z</time></trkpt><trkpt lat="44.4193533" lon="11.054385"><ele>215.0</ele><time>2026-04-25T12:28:26.394Z</time></trkpt><trkpt lat="44.4194367" lon="11.054385"><ele>215.0</ele><time>2026-04-25T12:28:27.395Z</time></trkpt><trkpt lat="44.4195133" lon="11.0543833"><ele>215.0</ele><time>2026-04-25T12:28:28.389Z</time></trkpt><trkpt lat="44.419585" lon="11.0543717"><ele>215.0</ele><time>2026-04-25T12:28:29.393Z</time></trkpt><trkpt lat="44.4196433" lon="11.0543283"><ele>215.0</ele><time>2026-04-25T12:28:30.394Z</time></trkpt><trkpt lat="44.4196833" lon="11.054255"><ele>215.0</ele><time>2026-04-25T12:28:31.395Z</time></trkpt><trkpt lat="44.4197133" lon="11.0541583"><ele>215.0</ele><time>2026-04-25T12:28:32.394Z</time></trkpt><trkpt lat="44.4197533" lon="11.0540833"><ele>215.0</ele><time>2026-04-25T12:28:33.394Z</time></trkpt><trkpt lat="44.4198217" lon="11.0539883"><ele>215.2</ele><time>2026-04-25T12:28:35.393Z</time></trkpt><trkpt lat="44.419885" lon="11.05401"><ele>215.4</ele><time>2026-04-25T12:28:37.393Z</time></trkpt><trkpt lat="44.4199417" lon="11.0540717"><ele>215.60000000000002</ele><time>2026-04-25T12:28:38.395Z</time></trkpt><trkpt lat="44.4200183" lon="11.0541667"><ele>215.8</ele><time>2026-04-25T12:28:39.392Z</time></trkpt><trkpt lat="44.4201067" lon="11.054255"><ele>216.0</ele><time>2026-04-25T12:28:40.393Z</time></trkpt><trkpt lat="44.4202167" lon="11.0543583"><ele>216.0</ele><time>2026-04-25T12:28:41.393Z</time></trkpt><trkpt lat="44.42033" lon="11.054475"><ele>216.0</ele><time>2026-04-25T12:28:42.393Z</time></trkpt><trkpt lat="44.4204533" lon="11.0546"><ele>216.0</ele><time>2026-04-25T12:28:43.394Z</time></trkpt><trkpt lat="44.4205817" lon="11.0547267"><ele>215.66666666666669</ele><time>2026-04-25T12:28:44.394Z</time></trkpt><trkpt lat="44.4207117" lon="11.0548517"><ele>215.33333333333334</ele><time>2026-04-25T12:28:45.394Z</time></trkpt><trkpt lat="44.4208383" lon="11.0549783"><ele>215.0</ele><time>2026-04-25T12:28:46.394Z</time></trkpt><trkpt lat="44.42096" lon="11.055125"><ele>215.0</ele><time>2026-04-25T12:28:47.396Z</time></trkpt><trkpt lat="44.4210767" lon="11.0552933"><ele>215.0</ele><time>2026-04-25T12:28:48.396Z</time></trkpt><trkpt lat="44.42118" lon="11.0554817"><ele>215.0</ele><time>2026-04-25T12:28:49.395Z</time></trkpt><trkpt lat="44.4212733" lon="11.0556733"><ele>213.33333333333334</ele><time>2026-04-25T12:28:50.396Z</time></trkpt><trkpt lat="44.4213667" lon="11.05586"><ele>211.66666666666669</ele><time>2026-04-25T12:28:51.394Z</time></trkpt><trkpt lat="44.4214683" lon="11.0560333"><ele>210.0</ele><time>2026-04-25T12:28:52.393Z</time></trkpt><trkpt lat="44.42159" lon="11.0561983"><ele>210.0</ele><time>2026-04-25T12:28:53.394Z</time></trkpt><trkpt lat="44.421725" lon="11.0563567"><ele>210.0</ele><time>2026-04-25T12:28:54.394Z</time></trkpt><trkpt lat="44.42187" lon="11.056515"><ele>210.0</ele><time>2026-04-25T12:28:55.394Z</time></trkpt><trkpt lat="44.4220167" lon="11.056675"><ele>210.33333333333331</ele><time>2026-04-25T12:28:56.396Z</time></trkpt><trkpt lat="44.4221567" lon="11.0568317"><ele>210.66666666666666</ele><time>2026-04-25T12:28:57.394Z</time></trkpt><trkpt lat="44.4222933" lon="11.0569867"><ele>211.0</ele><time>2026-04-25T12:28:58.393Z</time></trkpt><trkpt lat="44.422425" lon="11.05713"><ele>211.0</ele><time>2026-04-25T12:28:59.395Z</time></trkpt><trkpt lat="44.4225533" lon="11.0572733"><ele>211.0</ele><time>2026-04-25T12:29:00.395Z</time></trkpt><trkpt lat="44.4226767" lon="11.0574183"><ele>211.0</ele><time>2026-04-25T12:29:01.394Z</time></trkpt><trkpt lat="44.4227983" lon="11.05757"><ele>210.66666666666666</ele><time>2026-04-25T12:29:02.394Z</time></trkpt><trkpt lat="44.4229233" lon="11.0577167"><ele>210.33333333333331</ele><time>2026-04-25T12:29:03.395Z</time></trkpt><trkpt lat="44.4230467" lon="11.0578583"><ele>210.0</ele><time>2026-04-25T12:29:04.393Z</time></trkpt><trkpt lat="44.42316" lon="11.05799"><ele>209.25</ele><time>2026-04-25T12:29:05.394Z</time></trkpt><trkpt lat="44.423265" lon="11.05811"><ele>208.5</ele><time>2026-04-25T12:29:06.397Z</time></trkpt><trkpt lat="44.42336" lon="11.058225"><ele>207.75</ele><time>2026-04-25T12:29:07.393Z</time></trkpt><trkpt lat="44.4234567" lon="11.0583317"><ele>207.0</ele><time>2026-04-25T12:29:08.396Z</time></trkpt><trkpt lat="44.423555" lon="11.0584417"><ele>207.0</ele><time>2026-04-25T12:29:09.393Z</time></trkpt><trkpt lat="44.4236517" lon="11.0585467"><ele>207.0</ele><time>2026-04-25T12:29:10.393Z</time></trkpt><trkpt lat="44.4237417" lon="11.0586383"><ele>207.0</ele><time>2026-04-25T12:29:11.394Z</time></trkpt><trkpt lat="44.4238333" lon="11.0587217"><ele>207.0</ele><time>2026-04-25T12:29:12.394Z</time></trkpt><trkpt lat="44.4239417" lon="11.058785"><ele>207.0</ele><time>2026-04-25T12:29:13.394Z</time></trkpt><trkpt lat="44.4240517" lon="11.0588167"><ele>207.0</ele><time>2026-04-25T12:29:14.394Z</time></trkpt><trkpt lat="44.424165" lon="11.0588133"><ele>207.0</ele><time>2026-04-25T12:29:15.394Z</time></trkpt><trkpt lat="44.424275" lon="11.0587783"><ele>207.0</ele><time>2026-04-25T12:29:16.394Z</time></trkpt><trkpt lat="44.42438" lon="11.0587183"><ele>207.0</ele><time>2026-04-25T12:29:17.395Z</time></trkpt><trkpt lat="44.4244867" lon="11.0586617"><ele>207.0</ele><time>2026-04-25T12:29:18.396Z</time></trkpt><trkpt lat="44.4245917" lon="11.058605"><ele>207.0</ele><time>2026-04-25T12:29:19.396Z</time></trkpt><trkpt lat="44.4247" lon="11.0585483"><ele>207.0</ele><time>2026-04-25T12:29:20.395Z</time></trkpt><trkpt lat="44.4248183" lon="11.058485"><ele>207.5</ele><time>2026-04-25T12:29:21.394Z</time></trkpt><trkpt lat="44.4249467" lon="11.0584217"><ele>208.0</ele><time>2026-04-25T12:29:22.394Z</time></trkpt><trkpt lat="44.4250817" lon="11.0583533"><ele>208.5</ele><time>2026-04-25T12:29:23.395Z</time></trkpt><trkpt lat="44.4252267" lon="11.0582833"><ele>209.0</ele><time>2026-04-25T12:29:24.394Z</time></trkpt><trkpt lat="44.4253767" lon="11.058215"><ele>212.33333333333334</ele><time>2026-04-25T12:29:25.394Z</time></trkpt><trkpt lat="44.4255267" lon="11.0581583"><ele>215.66666666666669</ele><time>2026-04-25T12:29:26.396Z</time></trkpt><trkpt lat="44.425685" lon="11.0581017"><ele>219.0</ele><time>2026-04-25T12:29:27.394Z</time></trkpt><trkpt lat="44.4258533" lon="11.0580667"><ele>219.0</ele><time>2026-04-25T12:29:28.392Z</time></trkpt><trkpt lat="44.4260267" lon="11.0580433"><ele>219.0</ele><time>2026-04-25T12:29:29.394Z</time></trkpt><trkpt lat="44.4262067" lon="11.0580333"><ele>219.0</ele><time>2026-04-25T12:29:30.394Z</time></trkpt><trkpt lat="44.4263917" lon="11.0580517"><ele>220.0</ele><time>2026-04-25T12:29:31.393Z</time></trkpt><trkpt lat="44.4265783" lon="11.0580933"><ele>221.0</ele><time>2026-04-25T12:29:32.394Z</time></trkpt><trkpt lat="44.4267683" lon="11.0581417"><ele>222.0</ele><time>2026-04-25T12:29:33.395Z</time></trkpt><trkpt lat="44.426955" lon="11.058175"><ele>222.0</ele><time>2026-04-25T12:29:34.394Z</time></trkpt><trkpt lat="44.4271367" lon="11.0581933"><ele>222.0</ele><time>2026-04-25T12:29:35.395Z</time></trkpt><trkpt lat="44.4273167" lon="11.0581983"><ele>222.0</ele><time>2026-04-25T12:29:36.396Z</time></trkpt><trkpt lat="44.4275033" lon="11.0581983"><ele>223.33333333333331</ele><time>2026-04-25T12:29:37.397Z</time></trkpt><trkpt lat="44.4276883" lon="11.058185"><ele>224.66666666666666</ele><time>2026-04-25T12:29:38.396Z</time></trkpt><trkpt lat="44.4278683" lon="11.058185"><ele>226.0</ele><time>2026-04-25T12:29:39.397Z</time></trkpt><trkpt lat="44.4280483" lon="11.0581867"><ele>227.33333333333331</ele><time>2026-04-25T12:29:40.395Z</time></trkpt><trkpt lat="44.4282267" lon="11.0582017"><ele>228.66666666666669</ele><time>2026-04-25T12:29:41.396Z</time></trkpt><trkpt lat="44.4284067" lon="11.0582433"><ele>230.0</ele><time>2026-04-25T12:29:42.396Z</time></trkpt><trkpt lat="44.4285883" lon="11.0583083"><ele>226.33333333333334</ele><time>2026-04-25T12:29:43.397Z</time></trkpt><trkpt lat="44.4287733" lon="11.05839"><ele>222.66666666666669</ele><time>2026-04-25T12:29:44.394Z</time></trkpt><trkpt lat="44.42896" lon="11.0584783"><ele>219.0</ele><time>2026-04-25T12:29:45.394Z</time></trkpt><trkpt lat="44.4291467" lon="11.0585667"><ele>219.0</ele><time>2026-04-25T12:29:46.394Z</time></trkpt><trkpt lat="44.4293367" lon="11.0586567"><ele>219.0</ele><time>2026-04-25T12:29:47.394Z</time></trkpt><trkpt lat="44.4295283" lon="11.0587517"><ele>219.0</ele><time>2026-04-25T12:29:48.396Z</time></trkpt><trkpt lat="44.42972" lon="11.0588433"><ele>221.66666666666669</ele><time>2026-04-25T12:29:49.393Z</time></trkpt><trkpt lat="44.42991" lon="11.058935"><ele>224.33333333333334</ele><time>2026-04-25T12:29:50.396Z</time></trkpt><trkpt lat="44.43009" lon="11.0590233"><ele>227.0</ele><time>2026-04-25T12:29:51.395Z</time></trkpt><trkpt lat="44.4302583" lon="11.059105"><ele>224.0</ele><time>2026-04-25T12:29:52.395Z</time></trkpt><trkpt lat="44.4304167" lon="11.0591833"><ele>221.0</ele><time>2026-04-25T12:29:53.396Z</time></trkpt><trkpt lat="44.4305767" lon="11.0592583"><ele>218.0</ele><time>2026-04-25T12:29:54.394Z</time></trkpt><trkpt lat="44.4307467" lon="11.05933"><ele>218.0</ele><time>2026-04-25T12:29:55.394Z</time></trkpt><trkpt lat="44.4309217" lon="11.0594033"><ele>218.0</ele><time>2026-04-25T12:29:56.393Z</time></trkpt><trkpt lat="44.4311033" lon="11.0594783"><ele>218.0</ele><time>2026-04-25T12:29:57.39Z</time></trkpt><trkpt lat="44.4312933" lon="11.05955"><ele>220.0</ele><time>2026-04-25T12:29:58.393Z</time></trkpt><trkpt lat="44.43148" lon="11.0596167"><ele>222.0</ele><time>2026-04-25T12:29:59.395Z</time></trkpt><trkpt lat="44.4316583" lon="11.0596767"><ele>224.0</ele><time>2026-04-25T12:30:00.395Z</time></trkpt><trkpt lat="44.4318333" lon="11.0597367"><ele>224.0</ele><time>2026-04-25T12:30:01.395Z</time></trkpt><trkpt lat="44.4320117" lon="11.0597817"><ele>224.0</ele><time>2026-04-25T12:30:02.395Z</time></trkpt><trkpt lat="44.4321883" lon="11.0598317"><ele>224.0</ele><time>2026-04-25T12:30:03.395Z</time></trkpt><trkpt lat="44.4323667" lon="11.059895"><ele>219.0</ele><time>2026-04-25T12:30:04.394Z</time></trkpt><trkpt lat="44.43255" lon="11.059965"><ele>214.0</ele><time>2026-04-25T12:30:05.394Z</time></trkpt><trkpt lat="44.4327333" lon="11.0600367"><ele>209.0</ele><time>2026-04-25T12:30:06.394Z</time></trkpt><trkpt lat="44.4329217" lon="11.0601017"><ele>209.33333333333334</ele><time>2026-04-25T12:30:07.395Z</time></trkpt><trkpt lat="44.433115" lon="11.060155"><ele>209.66666666666669</ele><time>2026-04-25T12:30:08.396Z</time></trkpt><trkpt lat="44.4333083" lon="11.0602"><ele>210.0</ele><time>2026-04-25T12:30:09.394Z</time></trkpt><trkpt lat="44.4335017" lon="11.0602367"><ele>210.0</ele><time>2026-04-25T12:30:10.394Z</time></trkpt><trkpt lat="44.4336817" lon="11.0602683"><ele>210.0</ele><time>2026-04-25T12:30:11.394Z</time></trkpt><trkpt lat="44.43385" lon="11.0602983"><ele>210.0</ele><time>2026-04-25T12:30:12.393Z</time></trkpt><trkpt lat="44.43401" lon="11.06033"><ele>208.75</ele><time>2026-04-25T12:30:13.394Z</time></trkpt><trkpt lat="44.4341617" lon="11.060375"><ele>207.5</ele><time>2026-04-25T12:30:14.396Z</time></trkpt><trkpt lat="44.4343017" lon="11.0604283"><ele>206.25</ele><time>2026-04-25T12:30:15.393Z</time></trkpt><trkpt lat="44.4344267" lon="11.0604833"><ele>205.0</ele><time>2026-04-25T12:30:16.394Z</time></trkpt><trkpt lat="44.43453" lon="11.0605517"><ele>205.0</ele><time>2026-04-25T12:30:17.395Z</time></trkpt><trkpt lat="44.4346183" lon="11.0606383"><ele>205.0</ele><time>2026-04-25T12:30:18.389Z</time></trkpt><trkpt lat="44.434695" lon="11.0607433"><ele>205.0</ele><time>2026-04-25T12:30:19.396Z</time></trkpt><trkpt lat="44.4347717" lon="11.060855"><ele>205.0</ele><time>2026-04-25T12:30:20.397Z</time></trkpt><trkpt lat="44.4348583" lon="11.060965"><ele>205.0</ele><time>2026-04-25T12:30:21.394Z</time></trkpt><trkpt lat="44.4349583" lon="11.0610783"><ele>203.0</ele><time>2026-04-25T12:30:22.398Z</time></trkpt><trkpt lat="44.4350633" lon="11.0611983"><ele>201.0</ele><time>2026-04-25T12:30:23.389Z</time></trkpt><trkpt lat="44.4351767" lon="11.0613283"><ele>199.0</ele><time>2026-04-25T12:30:24.395Z</time></trkpt><trkpt lat="44.4352967" lon="11.06147"><ele>197.0</ele><time>2026-04-25T12:30:25.395Z</time></trkpt><trkpt lat="44.435425" lon="11.06162"><ele>196.33333333333334</ele><time>2026-04-25T12:30:26.397Z</time></trkpt><trkpt lat="44.4355633" lon="11.0617817"><ele>195.66666666666669</ele><time>2026-04-25T12:30:27.396Z</time></trkpt><trkpt lat="44.4357117" lon="11.06195"><ele>195.0</ele><time>2026-04-25T12:30:28.394Z</time></trkpt><trkpt lat="44.4358717" lon="11.062115"><ele>195.0</ele><time>2026-04-25T12:30:29.394Z</time></trkpt><trkpt lat="44.436035" lon="11.0622767"><ele>195.0</ele><time>2026-04-25T12:30:30.394Z</time></trkpt><trkpt lat="44.4362017" lon="11.0624333"><ele>195.0</ele><time>2026-04-25T12:30:31.396Z</time></trkpt><trkpt lat="44.436365" lon="11.062585"><ele>194.33333333333331</ele><time>2026-04-25T12:30:32.397Z</time></trkpt><trkpt lat="44.4365267" lon="11.06274"><ele>193.66666666666666</ele><time>2026-04-25T12:30:33.394Z</time></trkpt><trkpt lat="44.436685" lon="11.06289"><ele>193.0</ele><time>2026-04-25T12:30:34.392Z</time></trkpt><trkpt lat="44.4368417" lon="11.0630417"><ele>193.0</ele><time>2026-04-25T12:30:35.394Z</time></trkpt><trkpt lat="44.437" lon="11.0631833"><ele>193.0</ele><time>2026-04-25T12:30:36.394Z</time></trkpt><trkpt lat="44.4371633" lon="11.063325"><ele>193.0</ele><time>2026-04-25T12:30:37.396Z</time></trkpt><trkpt lat="44.4373283" lon="11.0634617"><ele>193.0</ele><time>2026-04-25T12:30:38.395Z</time></trkpt><trkpt lat="44.43749" lon="11.0636"><ele>193.0</ele><time>2026-04-25T12:30:39.397Z</time></trkpt><trkpt lat="44.4376433" lon="11.0637317"><ele>193.0</ele><time>2026-04-25T12:30:40.4Z</time></trkpt><trkpt lat="44.43778" lon="11.0638483"><ele>193.0</ele><time>2026-04-25T12:30:41.393Z</time></trkpt><trkpt lat="44.437905" lon="11.063965"><ele>193.0</ele><time>2026-04-25T12:30:42.393Z</time></trkpt><trkpt lat="44.43803" lon="11.064085"><ele>193.0</ele><time>2026-04-25T12:30:43.395Z</time></trkpt><trkpt lat="44.4381583" lon="11.0642167"><ele>191.66666666666666</ele><time>2026-04-25T12:30:44.396Z</time></trkpt><trkpt lat="44.4382967" lon="11.0643467"><ele>190.33333333333331</ele><time>2026-04-25T12:30:45.395Z</time></trkpt><trkpt lat="44.43844" lon="11.0644833"><ele>189.0</ele><time>2026-04-25T12:30:46.392Z</time></trkpt><trkpt lat="44.4385817" lon="11.0646267"><ele>189.0</ele><time>2026-04-25T12:30:47.394Z</time></trkpt><trkpt lat="44.4387217" lon="11.0647817"><ele>189.0</ele><time>2026-04-25T12:30:48.395Z</time></trkpt><trkpt lat="44.4388517" lon="11.0649283"><ele>189.0</ele><time>2026-04-25T12:30:49.393Z</time></trkpt><trkpt lat="44.43898" lon="11.0650667"><ele>187.66666666666666</ele><time>2026-04-25T12:30:50.395Z</time></trkpt><trkpt lat="44.4391117" lon="11.0651967"><ele>186.33333333333331</ele><time>2026-04-25T12:30:51.394Z</time></trkpt><trkpt lat="44.439245" lon="11.0653183"><ele>185.0</ele><time>2026-04-25T12:30:52.394Z</time></trkpt><trkpt lat="44.4393833" lon="11.0654433"><ele>185.0</ele><time>2026-04-25T12:30:53.394Z</time></trkpt><trkpt lat="44.4395267" lon="11.0655733"><ele>185.0</ele><time>2026-04-25T12:30:54.394Z</time></trkpt><trkpt lat="44.43967" lon="11.0657067"><ele>185.0</ele><time>2026-04-25T12:30:55.392Z</time></trkpt><trkpt lat="44.439815" lon="11.065845"><ele>183.0</ele><time>2026-04-25T12:30:56.395Z</time></trkpt><trkpt lat="44.4399633" lon="11.065985"><ele>181.0</ele><time>2026-04-25T12:30:57.394Z</time></trkpt><trkpt lat="44.4401133" lon="11.06612"><ele>179.0</ele><time>2026-04-25T12:30:58.393Z</time></trkpt><trkpt lat="44.44026" lon="11.0662483"><ele>179.0</ele><time>2026-04-25T12:30:59.394Z</time></trkpt><trkpt lat="44.4404017" lon="11.06637"><ele>179.0</ele><time>2026-04-25T12:31:00.395Z</time></trkpt><trkpt lat="44.4405383" lon="11.0664833"><ele>179.0</ele><time>2026-04-25T12:31:01.395Z</time></trkpt><trkpt lat="44.440665" lon="11.0665933"><ele>178.75</ele><time>2026-04-25T12:31:02.394Z</time></trkpt><trkpt lat="44.44078" lon="11.06672"><ele>178.5</ele><time>2026-04-25T12:31:03.395Z</time></trkpt><trkpt lat="44.44089" lon="11.0668533"><ele>178.25</ele><time>2026-04-25T12:31:04.393Z</time></trkpt><trkpt lat="44.4409983" lon="11.0670017"><ele>178.0</ele><time>2026-04-25T12:31:05.395Z</time></trkpt><trkpt lat="44.4410983" lon="11.067175"><ele>178.0</ele><time>2026-04-25T12:31:06.395Z</time></trkpt><trkpt lat="44.441195" lon="11.06735"><ele>178.0</ele><time>2026-04-25T12:31:07.393Z</time></trkpt><trkpt lat="44.4412833" lon="11.0675133"><ele>178.0</ele><time>2026-04-25T12:31:08.396Z</time></trkpt><trkpt lat="44.4413633" lon="11.0676583"><ele>178.0</ele><time>2026-04-25T12:31:09.393Z</time></trkpt><trkpt lat="44.4414367" lon="11.0677867"><ele>178.2</ele><time>2026-04-25T12:31:10.394Z</time></trkpt><trkpt lat="44.4414933" lon="11.0679017"><ele>178.4</ele><time>2026-04-25T12:31:11.395Z</time></trkpt><trkpt lat="44.4415317" lon="11.0680167"><ele>178.6</ele><time>2026-04-25T12:31:12.394Z</time></trkpt><trkpt lat="44.4415533" lon="11.0681433"><ele>178.79999999999998</ele><time>2026-04-25T12:31:13.393Z</time></trkpt><trkpt lat="44.4415483" lon="11.068295"><ele>179.0</ele><time>2026-04-25T12:31:14.395Z</time></trkpt><trkpt lat="44.4415283" lon="11.0684733"><ele>177.0</ele><time>2026-04-25T12:31:15.395Z</time></trkpt><trkpt lat="44.4415017" lon="11.0686733"><ele>175.0</ele><time>2026-04-25T12:31:16.394Z</time></trkpt><trkpt lat="44.441465" lon="11.068885"><ele>173.0</ele><time>2026-04-25T12:31:17.395Z</time></trkpt><trkpt lat="44.4414317" lon="11.0691033"><ele>172.33333333333331</ele><time>2026-04-25T12:31:18.392Z</time></trkpt><trkpt lat="44.4414" lon="11.069325"><ele>171.66666666666666</ele><time>2026-04-25T12:31:19.395Z</time></trkpt><trkpt lat="44.4413633" lon="11.0695567"><ele>171.0</ele><time>2026-04-25T12:31:20.395Z</time></trkpt><trkpt lat="44.4413267" lon="11.0697967"><ele>171.33333333333334</ele><time>2026-04-25T12:31:21.394Z</time></trkpt><trkpt lat="44.4412867" lon="11.0700467"><ele>171.66666666666669</ele><time>2026-04-25T12:31:22.394Z</time></trkpt><trkpt lat="44.44125" lon="11.0702983"><ele>172.0</ele><time>2026-04-25T12:31:23.393Z</time></trkpt><trkpt lat="44.4412133" lon="11.0705517"><ele>173.0</ele><time>2026-04-25T12:31:24.394Z</time></trkpt><trkpt lat="44.4411817" lon="11.0708"><ele>174.0</ele><time>2026-04-25T12:31:25.394Z</time></trkpt><trkpt lat="44.44115" lon="11.0710433"><ele>175.0</ele><time>2026-04-25T12:31:26.395Z</time></trkpt><trkpt lat="44.4411183" lon="11.0712833"><ele>175.0</ele><time>2026-04-25T12:31:27.394Z</time></trkpt><trkpt lat="44.4410883" lon="11.0715217"><ele>175.0</ele><time>2026-04-25T12:31:28.394Z</time></trkpt><trkpt lat="44.441065" lon="11.0717567"><ele>175.0</ele><time>2026-04-25T12:31:29.394Z</time></trkpt><trkpt lat="44.441045" lon="11.071985"><ele>176.33333333333334</ele><time>2026-04-25T12:31:30.395Z</time></trkpt><trkpt lat="44.4410217" lon="11.07221"><ele>177.66666666666666</ele><time>2026-04-25T12:31:31.394Z</time></trkpt><trkpt lat="44.44101" lon="11.0724383"><ele>179.0</ele><time>2026-04-25T12:31:32.396Z</time></trkpt><trkpt lat="44.4410017" lon="11.0726767"><ele>181.0</ele><time>2026-04-25T12:31:33.393Z</time></trkpt><trkpt lat="44.4409983" lon="11.07292"><ele>183.0</ele><time>2026-04-25T12:31:34.395Z</time></trkpt><trkpt lat="44.4409983" lon="11.0731617"><ele>185.0</ele><time>2026-04-25T12:31:35.394Z</time></trkpt><trkpt lat="44.4410067" lon="11.073395"><ele>185.33333333333331</ele><time>2026-04-25T12:31:36.396Z</time></trkpt><trkpt lat="44.4410083" lon="11.073625"><ele>185.66666666666666</ele><time>2026-04-25T12:31:37.396Z</time></trkpt><trkpt lat="44.4410133" lon="11.0738433"><ele>186.0</ele><time>2026-04-25T12:31:38.394Z</time></trkpt><trkpt lat="44.441015" lon="11.074065"><ele>186.0</ele><time>2026-04-25T12:31:39.395Z</time></trkpt><trkpt lat="44.4410233" lon="11.0742683"><ele>186.0</ele><time>2026-04-25T12:31:40.395Z</time></trkpt><trkpt lat="44.4410267" lon="11.07444"><ele>186.0</ele><time>2026-04-25T12:31:41.397Z</time></trkpt><trkpt lat="44.441035" lon="11.074585"><ele>186.0</ele><time>2026-04-25T12:31:42.394Z</time></trkpt><trkpt lat="44.441045" lon="11.0747017"><ele>186.0</ele><time>2026-04-25T12:31:43.393Z</time></trkpt><trkpt lat="44.4410567" lon="11.07479"><ele>186.0</ele><time>2026-04-25T12:31:44.394Z</time></trkpt><trkpt lat="44.4411167" lon="11.074905"><ele>186.0</ele><time>2026-04-25T12:31:46.394Z</time></trkpt><trkpt lat="44.44115" lon="11.07499"><ele>186.0</ele><time>2026-04-25T12:31:48.395Z</time></trkpt><trkpt lat="44.4411167" lon="11.075065"><ele>186.0</ele><time>2026-04-25T12:31:57.393Z</time></trkpt><trkpt lat="44.4410417" lon="11.0752"><ele>186.0</ele><time>2026-04-25T12:32:05.395Z</time></trkpt><trkpt lat="44.441035" lon="11.0753067"><ele>185.8</ele><time>2026-04-25T12:32:06.394Z</time></trkpt><trkpt lat="44.44104" lon="11.0754383"><ele>185.60000000000002</ele><time>2026-04-25T12:32:07.394Z</time></trkpt><trkpt lat="44.4410483" lon="11.0755733"><ele>185.4</ele><time>2026-04-25T12:32:08.396Z</time></trkpt><trkpt lat="44.44106" lon="11.0757167"><ele>185.2</ele><time>2026-04-25T12:32:09.394Z</time></trkpt><trkpt lat="44.4410667" lon="11.075865"><ele>185.0</ele><time>2026-04-25T12:32:10.394Z</time></trkpt><trkpt lat="44.4410717" lon="11.0760183"><ele>184.8</ele><time>2026-04-25T12:32:11.396Z</time></trkpt><trkpt lat="44.4410733" lon="11.0761733"><ele>184.6</ele><time>2026-04-25T12:32:12.395Z</time></trkpt><trkpt lat="44.441075" lon="11.0763133"><ele>184.39999999999998</ele><time>2026-04-25T12:32:13.395Z</time></trkpt><trkpt lat="44.441075" lon="11.0764483"><ele>184.2</ele><time>2026-04-25T12:32:14.395Z</time></trkpt><trkpt lat="44.4410733" lon="11.0765833"><ele>184.0</ele><time>2026-04-25T12:32:15.394Z</time></trkpt><trkpt lat="44.4410717" lon="11.0767083"><ele>183.79999999999998</ele><time>2026-04-25T12:32:16.394Z</time></trkpt><trkpt lat="44.4410667" lon="11.0768333"><ele>183.6</ele><time>2026-04-25T12:32:17.395Z</time></trkpt><trkpt lat="44.4410583" lon="11.076965"><ele>183.4</ele><time>2026-04-25T12:32:18.394Z</time></trkpt><trkpt lat="44.4410467" lon="11.077115"><ele>183.2</ele><time>2026-04-25T12:32:19.394Z</time></trkpt><trkpt lat="44.4410333" lon="11.07729"><ele>183.0</ele><time>2026-04-25T12:32:20.397Z</time></trkpt><trkpt lat="44.4410183" lon="11.0774767"><ele>182.75</ele><time>2026-04-25T12:32:21.394Z</time></trkpt><trkpt lat="44.4410017" lon="11.077665"><ele>182.5</ele><time>2026-04-25T12:32:22.394Z</time></trkpt><trkpt lat="44.440985" lon="11.077865"><ele>182.25</ele><time>2026-04-25T12:32:23.395Z</time></trkpt><trkpt lat="44.440965" lon="11.0780783"><ele>182.0</ele><time>2026-04-25T12:32:24.396Z</time></trkpt><trkpt lat="44.4409467" lon="11.0783033"><ele>182.0</ele><time>2026-04-25T12:32:25.394Z</time></trkpt><trkpt lat="44.4409267" lon="11.0785333"><ele>182.0</ele><time>2026-04-25T12:32:26.395Z</time></trkpt><trkpt lat="44.4409133" lon="11.078765"><ele>182.0</ele><time>2026-04-25T12:32:27.393Z</time></trkpt><trkpt lat="44.4408933" lon="11.0789967"><ele>181.66666666666666</ele><time>2026-04-25T12:32:28.393Z</time></trkpt><trkpt lat="44.4408733" lon="11.0792167"><ele>181.33333333333334</ele><time>2026-04-25T12:32:29.394Z</time></trkpt><trkpt lat="44.4408583" lon="11.07943"><ele>181.0</ele><time>2026-04-25T12:32:30.395Z</time></trkpt><trkpt lat="44.4408583" lon="11.0796433"><ele>181.0</ele><time>2026-04-25T12:32:31.395Z</time></trkpt><trkpt lat="44.4408783" lon="11.079855"><ele>181.0</ele><time>2026-04-25T12:32:32.394Z</time></trkpt><trkpt lat="44.4409217" lon="11.0800617"><ele>181.0</ele><time>2026-04-25T12:32:33.394Z</time></trkpt><trkpt lat="44.4409883" lon="11.0802783"><ele>180.33333333333334</ele><time>2026-04-25T12:32:34.394Z</time></trkpt><trkpt lat="44.4410733" lon="11.0804933"><ele>179.66666666666666</ele><time>2026-04-25T12:32:35.395Z</time></trkpt><trkpt lat="44.4411733" lon="11.08071"><ele>179.0</ele><time>2026-04-25T12:32:36.395Z</time></trkpt><trkpt lat="44.4412767" lon="11.0809183"><ele>178.66666666666666</ele><time>2026-04-25T12:32:37.396Z</time></trkpt><trkpt lat="44.4413817" lon="11.0811133"><ele>178.33333333333334</ele><time>2026-04-25T12:32:38.396Z</time></trkpt><trkpt lat="44.4414883" lon="11.0813033"><ele>178.0</ele><time>2026-04-25T12:32:39.396Z</time></trkpt><trkpt lat="44.4415883" lon="11.0814917"><ele>178.0</ele><time>2026-04-25T12:32:40.394Z</time></trkpt><trkpt lat="44.441685" lon="11.0816783"><ele>178.0</ele><time>2026-04-25T12:32:41.388Z</time></trkpt><trkpt lat="44.441775" lon="11.0818733"><ele>178.0</ele><time>2026-04-25T12:32:42.395Z</time></trkpt><trkpt lat="44.4418533" lon="11.0820783"><ele>178.0</ele><time>2026-04-25T12:32:43.395Z</time></trkpt><trkpt lat="44.4419217" lon="11.0822933"><ele>178.0</ele><time>2026-04-25T12:32:44.396Z</time></trkpt><trkpt lat="44.44198" lon="11.082515"><ele>178.0</ele><time>2026-04-25T12:32:45.396Z</time></trkpt><trkpt lat="44.4420283" lon="11.0827383"><ele>177.33333333333334</ele><time>2026-04-25T12:32:46.393Z</time></trkpt><trkpt lat="44.442065" lon="11.0829617"><ele>176.66666666666666</ele><time>2026-04-25T12:32:47.395Z</time></trkpt><trkpt lat="44.4420983" lon="11.0831833"><ele>176.0</ele><time>2026-04-25T12:32:48.395Z</time></trkpt><trkpt lat="44.4421233" lon="11.0834083"><ele>173.33333333333331</ele><time>2026-04-25T12:32:49.394Z</time></trkpt><trkpt lat="44.4421467" lon="11.083635"><ele>170.66666666666666</ele><time>2026-04-25T12:32:50.394Z</time></trkpt><trkpt lat="44.442165" lon="11.0838667"><ele>168.0</ele><time>2026-04-25T12:32:51.395Z</time></trkpt><trkpt lat="44.4421883" lon="11.0840933"><ele>167.66666666666666</ele><time>2026-04-25T12:32:52.394Z</time></trkpt><trkpt lat="44.4422067" lon="11.08432"><ele>167.33333333333331</ele><time>2026-04-25T12:32:53.394Z</time></trkpt><trkpt lat="44.4422167" lon="11.0845517"><ele>167.0</ele><time>2026-04-25T12:32:54.395Z</time></trkpt><trkpt lat="44.4422217" lon="11.0847867"><ele>166.0</ele><time>2026-04-25T12:32:55.395Z</time></trkpt><trkpt lat="44.4422233" lon="11.08503"><ele>165.0</ele><time>2026-04-25T12:32:56.396Z</time></trkpt><trkpt lat="44.442215" lon="11.0852767"><ele>164.0</ele><time>2026-04-25T12:32:57.395Z</time></trkpt><trkpt lat="44.4422" lon="11.0855283"><ele>163.66666666666666</ele><time>2026-04-25T12:32:58.396Z</time></trkpt><trkpt lat="44.4421867" lon="11.085785"><ele>163.33333333333334</ele><time>2026-04-25T12:32:59.393Z</time></trkpt><trkpt lat="44.4421717" lon="11.0860417"><ele>163.0</ele><time>2026-04-25T12:33:00.396Z</time></trkpt><trkpt lat="44.4421583" lon="11.0862983"><ele>163.0</ele><time>2026-04-25T12:33:01.395Z</time></trkpt><trkpt lat="44.4421483" lon="11.0865633"><ele>163.0</ele><time>2026-04-25T12:33:02.396Z</time></trkpt><trkpt lat="44.4421367" lon="11.0868317"><ele>163.0</ele><time>2026-04-25T12:33:03.397Z</time></trkpt><trkpt lat="44.4421283" lon="11.087105"><ele>164.0</ele><time>2026-04-25T12:33:04.394Z</time></trkpt><trkpt lat="44.4421267" lon="11.087375"><ele>165.0</ele><time>2026-04-25T12:33:05.394Z</time></trkpt><trkpt lat="44.442135" lon="11.0876333"><ele>166.0</ele><time>2026-04-25T12:33:06.395Z</time></trkpt><trkpt lat="44.442155" lon="11.08789"><ele>163.0</ele><time>2026-04-25T12:33:07.395Z</time></trkpt><trkpt lat="44.4421983" lon="11.0881483"><ele>160.0</ele><time>2026-04-25T12:33:08.397Z</time></trkpt><trkpt lat="44.4422517" lon="11.0884083"><ele>157.0</ele><time>2026-04-25T12:33:09.395Z</time></trkpt><trkpt lat="44.4423117" lon="11.0886733"><ele>157.0</ele><time>2026-04-25T12:33:10.396Z</time></trkpt><trkpt lat="44.442375" lon="11.088935"><ele>157.0</ele><time>2026-04-25T12:33:11.397Z</time></trkpt><trkpt lat="44.442435" lon="11.089195"><ele>157.0</ele><time>2026-04-25T12:33:12.396Z</time></trkpt><trkpt lat="44.4424917" lon="11.089455"><ele>155.66666666666669</ele><time>2026-04-25T12:33:13.396Z</time></trkpt><trkpt lat="44.4425383" lon="11.08972"><ele>154.33333333333334</ele><time>2026-04-25T12:33:14.396Z</time></trkpt><trkpt lat="44.442575" lon="11.089985"><ele>153.0</ele><time>2026-04-25T12:33:15.397Z</time></trkpt><trkpt lat="44.4425917" lon="11.0902467"><ele>151.66666666666666</ele><time>2026-04-25T12:33:16.395Z</time></trkpt><trkpt lat="44.4425867" lon="11.09051"><ele>150.33333333333331</ele><time>2026-04-25T12:33:17.393Z</time></trkpt><trkpt lat="44.442565" lon="11.090775"><ele>149.0</ele><time>2026-04-25T12:33:18.394Z</time></trkpt><trkpt lat="44.442535" lon="11.091045"><ele>148.33333333333331</ele><time>2026-04-25T12:33:19.394Z</time></trkpt><trkpt lat="44.4425017" lon="11.091315"><ele>147.66666666666666</ele><time>2026-04-25T12:33:20.395Z</time></trkpt><trkpt lat="44.4424667" lon="11.091585"><ele>147.0</ele><time>2026-04-25T12:33:21.394Z</time></trkpt><trkpt lat="44.4424283" lon="11.0918517"><ele>146.33333333333334</ele><time>2026-04-25T12:33:22.392Z</time></trkpt><trkpt lat="44.4423933" lon="11.0921167"><ele>145.66666666666669</ele><time>2026-04-25T12:33:23.393Z</time></trkpt><trkpt lat="44.4423617" lon="11.092385"><ele>145.0</ele><time>2026-04-25T12:33:24.394Z</time></trkpt><trkpt lat="44.4423267" lon="11.092655"><ele>144.0</ele><time>2026-04-25T12:33:25.394Z</time></trkpt><trkpt lat="44.442295" lon="11.0929233"><ele>143.0</ele><time>2026-04-25T12:33:26.396Z</time></trkpt><trkpt lat="44.44226" lon="11.0931917"><ele>142.0</ele><time>2026-04-25T12:33:27.394Z</time></trkpt><trkpt lat="44.442225" lon="11.0934633"><ele>141.33333333333334</ele><time>2026-04-25T12:33:28.394Z</time></trkpt><trkpt lat="44.442185" lon="11.0937317"><ele>140.66666666666666</ele><time>2026-04-25T12:33:29.394Z</time></trkpt><trkpt lat="44.4421483" lon="11.0940067"><ele>140.0</ele><time>2026-04-25T12:33:30.395Z</time></trkpt><trkpt lat="44.44211" lon="11.09428"><ele>140.0</ele><time>2026-04-25T12:33:31.394Z</time></trkpt><trkpt lat="44.442075" lon="11.094545"><ele>140.0</ele><time>2026-04-25T12:33:32.396Z</time></trkpt><trkpt lat="44.4420367" lon="11.0947933"><ele>140.0</ele><time>2026-04-25T12:33:33.395Z</time></trkpt><trkpt lat="44.4419983" lon="11.09503"><ele>140.33333333333331</ele><time>2026-04-25T12:33:34.394Z</time></trkpt><trkpt lat="44.4419667" lon="11.0952667"><ele>140.66666666666666</ele><time>2026-04-25T12:33:35.396Z</time></trkpt><trkpt lat="44.4419467" lon="11.09551"><ele>141.0</ele><time>2026-04-25T12:33:36.395Z</time></trkpt><trkpt lat="44.4419333" lon="11.095765"><ele>141.66666666666666</ele><time>2026-04-25T12:33:37.396Z</time></trkpt><trkpt lat="44.4419333" lon="11.096025"><ele>142.33333333333331</ele><time>2026-04-25T12:33:38.396Z</time></trkpt><trkpt lat="44.4419383" lon="11.09628"><ele>143.0</ele><time>2026-04-25T12:33:39.394Z</time></trkpt><trkpt lat="44.441945" lon="11.0965417"><ele>143.66666666666666</ele><time>2026-04-25T12:33:40.395Z</time></trkpt><trkpt lat="44.4419483" lon="11.0968017"><ele>144.33333333333334</ele><time>2026-04-25T12:33:41.396Z</time></trkpt><trkpt lat="44.44195" lon="11.0970533"><ele>145.0</ele><time>2026-04-25T12:33:42.394Z</time></trkpt><trkpt lat="44.44196" lon="11.0973017"><ele>145.33333333333334</ele><time>2026-04-25T12:33:43.393Z</time></trkpt><trkpt lat="44.44198" lon="11.0975417"><ele>145.66666666666666</ele><time>2026-04-25T12:33:44.395Z</time></trkpt><trkpt lat="44.442015" lon="11.097765"><ele>146.0</ele><time>2026-04-25T12:33:45.394Z</time></trkpt><trkpt lat="44.44206" lon="11.0979567"><ele>146.0</ele><time>2026-04-25T12:33:46.395Z</time></trkpt><trkpt lat="44.442105" lon="11.0981183"><ele>146.0</ele><time>2026-04-25T12:33:47.394Z</time></trkpt><trkpt lat="44.4421483" lon="11.0982567"><ele>146.0</ele><time>2026-04-25T12:33:48.395Z</time></trkpt><trkpt lat="44.4421783" lon="11.0983783"><ele>146.0</ele><time>2026-04-25T12:33:49.394Z</time></trkpt><trkpt lat="44.4422067" lon="11.0984867"><ele>146.0</ele><time>2026-04-25T12:33:50.396Z</time></trkpt><trkpt lat="44.4422483" lon="11.0985783"><ele>146.0</ele><time>2026-04-25T12:33:51.395Z</time></trkpt><trkpt lat="44.4423033" lon="11.0986483"><ele>146.0</ele><time>2026-04-25T12:33:52.393Z</time></trkpt><trkpt lat="44.4423833" lon="11.0986917"><ele>146.0</ele><time>2026-04-25T12:33:53.393Z</time></trkpt><trkpt lat="44.442475" lon="11.0987233"><ele>146.0</ele><time>2026-04-25T12:33:54.396Z</time></trkpt><trkpt lat="44.44257" lon="11.0987517"><ele>146.0</ele><time>2026-04-25T12:33:55.393Z</time></trkpt><trkpt lat="44.442675" lon="11.098785"><ele>146.0</ele><time>2026-04-25T12:33:56.394Z</time></trkpt><trkpt lat="44.4427833" lon="11.0988183"><ele>146.0</ele><time>2026-04-25T12:33:57.395Z</time></trkpt><trkpt lat="44.442895" lon="11.0988567"><ele>146.0</ele><time>2026-04-25T12:33:58.395Z</time></trkpt><trkpt lat="44.4430133" lon="11.0988867"><ele>146.0</ele><time>2026-04-25T12:33:59.395Z</time></trkpt><trkpt lat="44.44313" lon="11.0989183"><ele>146.2</ele><time>2026-04-25T12:34:00.394Z</time></trkpt><trkpt lat="44.4432517" lon="11.0989483"><ele>146.39999999999998</ele><time>2026-04-25T12:34:01.394Z</time></trkpt><trkpt lat="44.44337" lon="11.0989733"><ele>146.6</ele><time>2026-04-25T12:34:02.396Z</time></trkpt><trkpt lat="44.44347" lon="11.0990033"><ele>146.79999999999998</ele><time>2026-04-25T12:34:03.395Z</time></trkpt><trkpt lat="44.44355" lon="11.0990383"><ele>147.0</ele><time>2026-04-25T12:34:04.394Z</time></trkpt><trkpt lat="44.4436133" lon="11.09909"><ele>147.0</ele><time>2026-04-25T12:34:05.394Z</time></trkpt><trkpt lat="44.4436667" lon="11.0991417"><ele>147.0</ele><time>2026-04-25T12:34:06.39Z</time></trkpt><trkpt lat="44.4437517" lon="11.099195"><ele>147.0</ele><time>2026-04-25T12:34:08.396Z</time></trkpt><trkpt lat="44.443855" lon="11.0992983"><ele>147.0</ele><time>2026-04-25T12:37:19.395Z</time></trkpt><trkpt lat="44.4439233" lon="11.0992733"><ele>147.0</ele><time>2026-04-25T12:37:21.396Z</time></trkpt><trkpt lat="44.4439683" lon="11.0991467"><ele>145.79999999999998</ele><time>2026-04-25T12:37:26.394Z</time></trkpt><trkpt lat="44.44391" lon="11.0990833"><ele>144.6</ele><time>2026-04-25T12:37:28.392Z</time></trkpt><trkpt lat="44.443835" lon="11.09906"><ele>143.39999999999998</ele><time>2026-04-25T12:37:29.395Z</time></trkpt><trkpt lat="44.4437267" lon="11.0990433"><ele>142.2</ele><time>2026-04-25T12:37:30.396Z</time></trkpt><trkpt lat="44.4436" lon="11.0990183"><ele>141.0</ele><time>2026-04-25T12:37:31.396Z</time></trkpt><trkpt lat="44.4434683" lon="11.09898"><ele>141.0</ele><time>2026-04-25T12:37:32.395Z</time></trkpt><trkpt lat="44.4433283" lon="11.09894"><ele>141.0</ele><time>2026-04-25T12:37:33.394Z</time></trkpt><trkpt lat="44.4431867" lon="11.0989"><ele>141.0</ele><time>2026-04-25T12:37:34.393Z</time></trkpt><trkpt lat="44.4430483" lon="11.0988583"><ele>141.0</ele><time>2026-04-25T12:37:35.394Z</time></trkpt><trkpt lat="44.4429167" lon="11.0988217"><ele>142.25</ele><time>2026-04-25T12:37:36.396Z</time></trkpt><trkpt lat="44.44279" lon="11.0987867"><ele>143.5</ele><time>2026-04-25T12:37:37.393Z</time></trkpt><trkpt lat="44.4426733" lon="11.0987533"><ele>144.75</ele><time>2026-04-25T12:37:38.395Z</time></trkpt><trkpt lat="44.4425717" lon="11.0987167"><ele>146.0</ele><time>2026-04-25T12:37:39.393Z</time></trkpt><trkpt lat="44.4424783" lon="11.098675"><ele>146.0</ele><time>2026-04-25T12:37:40.393Z</time></trkpt><trkpt lat="44.442395" lon="11.0986267"><ele>146.0</ele><time>2026-04-25T12:37:41.393Z</time></trkpt><trkpt lat="44.4423217" lon="11.0985783"><ele>146.0</ele><time>2026-04-25T12:37:42.392Z</time></trkpt><trkpt lat="44.4422267" lon="11.0985267"><ele>146.0</ele><time>2026-04-25T12:37:44.396Z</time></trkpt><trkpt lat="44.4421683" lon="11.09857"><ele>146.0</ele><time>2026-04-25T12:37:46.392Z</time></trkpt><trkpt lat="44.4421267" lon="11.0987183"><ele>146.8</ele><time>2026-04-25T12:37:48.393Z</time></trkpt><trkpt lat="44.4421117" lon="11.0988333"><ele>147.6</ele><time>2026-04-25T12:37:49.394Z</time></trkpt><trkpt lat="44.44211" lon="11.0989733"><ele>148.4</ele><time>2026-04-25T12:37:50.395Z</time></trkpt><trkpt lat="44.4421267" lon="11.099145"><ele>149.2</ele><time>2026-04-25T12:37:51.393Z</time></trkpt><trkpt lat="44.44215" lon="11.0993117"><ele>150.0</ele><time>2026-04-25T12:37:52.394Z</time></trkpt><trkpt lat="44.44218" lon="11.0994867"><ele>150.0</ele><time>2026-04-25T12:37:53.392Z</time></trkpt><trkpt lat="44.4422117" lon="11.0996667"><ele>150.0</ele><time>2026-04-25T12:37:54.393Z</time></trkpt><trkpt lat="44.4422433" lon="11.099855"><ele>150.0</ele><time>2026-04-25T12:37:55.394Z</time></trkpt><trkpt lat="44.4422767" lon="11.100055"><ele>150.0</ele><time>2026-04-25T12:37:56.393Z</time></trkpt><trkpt lat="44.4423033" lon="11.1002683"><ele>151.0</ele><time>2026-04-25T12:37:57.394Z</time></trkpt><trkpt lat="44.4423283" lon="11.1004783"><ele>152.0</ele><time>2026-04-25T12:37:58.394Z</time></trkpt><trkpt lat="44.442355" lon="11.10066"><ele>153.0</ele><time>2026-04-25T12:37:59.392Z</time></trkpt><trkpt lat="44.4424017" lon="11.1008183"><ele>154.0</ele><time>2026-04-25T12:38:00.393Z</time></trkpt><trkpt lat="44.4424733" lon="11.1009367"><ele>155.5</ele><time>2026-04-25T12:38:01.394Z</time></trkpt><trkpt lat="44.4425667" lon="11.1010267"><ele>157.0</ele><time>2026-04-25T12:38:02.395Z</time></trkpt><trkpt lat="44.44268" lon="11.1010883"><ele>158.5</ele><time>2026-04-25T12:38:03.392Z</time></trkpt><trkpt lat="44.4428033" lon="11.10114"><ele>160.0</ele><time>2026-04-25T12:38:04.393Z</time></trkpt><trkpt lat="44.44293" lon="11.101205"><ele>160.5</ele><time>2026-04-25T12:38:05.394Z</time></trkpt><trkpt lat="44.443055" lon="11.1012833"><ele>161.0</ele><time>2026-04-25T12:38:06.394Z</time></trkpt><trkpt lat="44.443175" lon="11.101375"><ele>161.5</ele><time>2026-04-25T12:38:07.393Z</time></trkpt><trkpt lat="44.4432733" lon="11.101495"><ele>162.0</ele><time>2026-04-25T12:38:08.394Z</time></trkpt><trkpt lat="44.44335" lon="11.1016383"><ele>162.0</ele><time>2026-04-25T12:38:09.393Z</time></trkpt><trkpt lat="44.4434017" lon="11.1018067"><ele>162.0</ele><time>2026-04-25T12:38:10.392Z</time></trkpt><trkpt lat="44.4434367" lon="11.10199"><ele>162.0</ele><time>2026-04-25T12:38:11.394Z</time></trkpt><trkpt lat="44.4434733" lon="11.1021667"><ele>162.0</ele><time>2026-04-25T12:38:12.394Z</time></trkpt><trkpt lat="44.4435133" lon="11.1023167"><ele>162.6</ele><time>2026-04-25T12:38:13.393Z</time></trkpt><trkpt lat="44.4435633" lon="11.1024417"><ele>163.2</ele><time>2026-04-25T12:38:14.396Z</time></trkpt><trkpt lat="44.443625" lon="11.1025467"><ele>163.8</ele><time>2026-04-25T12:38:15.396Z</time></trkpt><trkpt lat="44.443695" lon="11.1026283"><ele>164.4</ele><time>2026-04-25T12:38:16.394Z</time></trkpt><trkpt lat="44.4437667" lon="11.1026917"><ele>165.0</ele><time>2026-04-25T12:38:17.394Z</time></trkpt><trkpt lat="44.44383" lon="11.10275"><ele>165.00000000000003</ele><time>2026-04-25T12:38:18.395Z</time></trkpt><trkpt lat="44.4438833" lon="11.1028183"><ele>165.0</ele><time>2026-04-25T12:38:19.393Z</time></trkpt><trkpt lat="44.4438967" lon="11.1029083"><ele>165.0</ele><time>2026-04-25T12:38:20.395Z</time></trkpt><trkpt lat="44.44389" lon="11.1029967"><ele>165.0</ele><time>2026-04-25T12:38:21.394Z</time></trkpt><trkpt lat="44.4438333" lon="11.103065"><ele>165.0</ele><time>2026-04-25T12:38:22.393Z</time></trkpt><trkpt lat="44.4437617" lon="11.10311"><ele>165.00000000000003</ele><time>2026-04-25T12:38:23.392Z</time></trkpt><trkpt lat="44.4436833" lon="11.1031167"><ele>165.0</ele><time>2026-04-25T12:38:24.396Z</time></trkpt><trkpt lat="44.443605" lon="11.1030983"><ele>166.4</ele><time>2026-04-25T12:38:25.395Z</time></trkpt><trkpt lat="44.4435267" lon="11.1030367"><ele>167.8</ele><time>2026-04-25T12:38:26.396Z</time></trkpt><trkpt lat="44.4434517" lon="11.1029567"><ele>169.2</ele><time>2026-04-25T12:38:27.395Z</time></trkpt><trkpt lat="44.4433817" lon="11.1028717"><ele>170.6</ele><time>2026-04-25T12:38:28.395Z</time></trkpt><trkpt lat="44.4433133" lon="11.1027733"><ele>172.0</ele><time>2026-04-25T12:38:29.395Z</time></trkpt><trkpt lat="44.4432433" lon="11.1026617"><ele>172.0</ele><time>2026-04-25T12:38:30.394Z</time></trkpt><trkpt lat="44.4431833" lon="11.1025433"><ele>172.0</ele><time>2026-04-25T12:38:31.395Z</time></trkpt><trkpt lat="44.4431283" lon="11.1024167"><ele>172.0</ele><time>2026-04-25T12:38:32.395Z</time></trkpt><trkpt lat="44.4430733" lon="11.1022917"><ele>172.0</ele><time>2026-04-25T12:38:33.395Z</time></trkpt><trkpt lat="44.4430067" lon="11.1021783"><ele>172.0</ele><time>2026-04-25T12:38:34.393Z</time></trkpt><trkpt lat="44.4429333" lon="11.1020933"><ele>171.2</ele><time>2026-04-25T12:38:35.395Z</time></trkpt><trkpt lat="44.44285" lon="11.1020517"><ele>170.39999999999998</ele><time>2026-04-25T12:38:36.394Z</time></trkpt><trkpt lat="44.4427583" lon="11.1020483"><ele>169.60000000000002</ele><time>2026-04-25T12:38:37.394Z</time></trkpt><trkpt lat="44.4426667" lon="11.1021033"><ele>168.8</ele><time>2026-04-25T12:38:38.396Z</time></trkpt><trkpt lat="44.4425833" lon="11.102205"><ele>168.0</ele><time>2026-04-25T12:38:39.394Z</time></trkpt><trkpt lat="44.44251" lon="11.1023217"><ele>169.8</ele><time>2026-04-25T12:38:40.393Z</time></trkpt><trkpt lat="44.442445" lon="11.10245"><ele>171.60000000000002</ele><time>2026-04-25T12:38:41.394Z</time></trkpt><trkpt lat="44.4423867" lon="11.1025783"><ele>173.39999999999998</ele><time>2026-04-25T12:38:42.391Z</time></trkpt><trkpt lat="44.44234" lon="11.1027083"><ele>175.2</ele><time>2026-04-25T12:38:43.395Z</time></trkpt><trkpt lat="44.4422933" lon="11.1028417"><ele>177.0</ele><time>2026-04-25T12:38:44.396Z</time></trkpt><trkpt lat="44.4422383" lon="11.1029783"><ele>177.0</ele><time>2026-04-25T12:38:45.396Z</time></trkpt><trkpt lat="44.4421833" lon="11.10311"><ele>177.0</ele><time>2026-04-25T12:38:46.393Z</time></trkpt><trkpt lat="44.442115" lon="11.10323"><ele>177.0</ele><time>2026-04-25T12:38:47.396Z</time></trkpt><trkpt lat="44.4420367" lon="11.103335"><ele>177.0</ele><time>2026-04-25T12:38:48.395Z</time></trkpt><trkpt lat="44.4419417" lon="11.103415"><ele>177.0</ele><time>2026-04-25T12:38:49.394Z</time></trkpt><trkpt lat="44.4418283" lon="11.103465"><ele>178.75</ele><time>2026-04-25T12:38:50.395Z</time></trkpt><trkpt lat="44.4417083" lon="11.1034967"><ele>180.5</ele><time>2026-04-25T12:38:51.393Z</time></trkpt><trkpt lat="44.4415867" lon="11.1035083"><ele>182.25</ele><time>2026-04-25T12:38:52.394Z</time></trkpt><trkpt lat="44.4414717" lon="11.103525"><ele>184.0</ele><time>2026-04-25T12:38:53.393Z</time></trkpt><trkpt lat="44.4413617" lon="11.1035467"><ele>184.2</ele><time>2026-04-25T12:38:54.394Z</time></trkpt><trkpt lat="44.44125" lon="11.103575"><ele>184.39999999999998</ele><time>2026-04-25T12:38:55.395Z</time></trkpt><trkpt lat="44.4411417" lon="11.1036283"><ele>184.6</ele><time>2026-04-25T12:38:56.394Z</time></trkpt><trkpt lat="44.4410383" lon="11.1036883"><ele>184.8</ele><time>2026-04-25T12:38:57.393Z</time></trkpt><trkpt lat="44.4409483" lon="11.1037683"><ele>185.0</ele><time>2026-04-25T12:38:58.395Z</time></trkpt><trkpt lat="44.44087" lon="11.1038683"><ele>185.0</ele><time>2026-04-25T12:38:59.394Z</time></trkpt><trkpt lat="44.4407983" lon="11.1039817"><ele>185.0</ele><time>2026-04-25T12:39:00.395Z</time></trkpt><trkpt lat="44.440725" lon="11.1040967"><ele>185.0</ele><time>2026-04-25T12:39:01.394Z</time></trkpt><trkpt lat="44.440655" lon="11.104215"><ele>185.0</ele><time>2026-04-25T12:39:02.395Z</time></trkpt><trkpt lat="44.4405817" lon="11.1043383"><ele>185.0</ele><time>2026-04-25T12:39:03.394Z</time></trkpt><trkpt lat="44.4405" lon="11.104455"><ele>187.5</ele><time>2026-04-25T12:39:04.393Z</time></trkpt><trkpt lat="44.4404133" lon="11.1045667"><ele>190.0</ele><time>2026-04-25T12:39:05.394Z</time></trkpt><trkpt lat="44.4403167" lon="11.1046667"><ele>192.5</ele><time>2026-04-25T12:39:06.394Z</time></trkpt><trkpt lat="44.440205" lon="11.1047567"><ele>195.0</ele><time>2026-04-25T12:39:07.393Z</time></trkpt><trkpt lat="44.4400917" lon="11.10485"><ele>197.5</ele><time>2026-04-25T12:39:08.393Z</time></trkpt><trkpt lat="44.4399783" lon="11.1049583"><ele>200.0</ele><time>2026-04-25T12:39:09.394Z</time></trkpt><trkpt lat="44.4398683" lon="11.10507"><ele>202.5</ele><time>2026-04-25T12:39:10.392Z</time></trkpt><trkpt lat="44.4397633" lon="11.1051867"><ele>205.0</ele><time>2026-04-25T12:39:11.394Z</time></trkpt><trkpt lat="44.4396633" lon="11.1053083"><ele>203.0</ele><time>2026-04-25T12:39:12.393Z</time></trkpt><trkpt lat="44.4395617" lon="11.1054283"><ele>201.0</ele><time>2026-04-25T12:39:13.394Z</time></trkpt><trkpt lat="44.4394567" lon="11.1055383"><ele>199.0</ele><time>2026-04-25T12:39:14.393Z</time></trkpt><trkpt lat="44.43935" lon="11.1056333"><ele>197.0</ele><time>2026-04-25T12:39:15.394Z</time></trkpt><trkpt lat="44.43924" lon="11.1057233"><ele>201.5</ele><time>2026-04-25T12:39:16.393Z</time></trkpt><trkpt lat="44.4391267" lon="11.1058067"><ele>206.0</ele><time>2026-04-25T12:39:17.393Z</time></trkpt><trkpt lat="44.4390167" lon="11.1059"><ele>210.5</ele><time>2026-04-25T12:39:18.394Z</time></trkpt><trkpt lat="44.438915" lon="11.106005"><ele>215.0</ele><time>2026-04-25T12:39:19.393Z</time></trkpt><trkpt lat="44.4388183" lon="11.1061117"><ele>212.0</ele><time>2026-04-25T12:39:20.394Z</time></trkpt><trkpt lat="44.4387283" lon="11.1062183"><ele>209.0</ele><time>2026-04-25T12:39:21.394Z</time></trkpt><trkpt lat="44.438635" lon="11.106315"><ele>206.0</ele><time>2026-04-25T12:39:22.395Z</time></trkpt><trkpt lat="44.4385367" lon="11.106395"><ele>203.0</ele><time>2026-04-25T12:39:23.396Z</time></trkpt><trkpt lat="44.4384283" lon="11.1064583"><ele>203.0</ele><time>2026-04-25T12:39:24.393Z</time></trkpt><trkpt lat="44.438315" lon="11.10651"><ele>203.0</ele><time>2026-04-25T12:39:25.395Z</time></trkpt><trkpt lat="44.4382033" lon="11.1065483"><ele>203.0</ele><time>2026-04-25T12:39:26.395Z</time></trkpt><trkpt lat="44.4381" lon="11.1065867"><ele>203.0</ele><time>2026-04-25T12:39:27.395Z</time></trkpt><trkpt lat="44.4379933" lon="11.1066267"><ele>207.0</ele><time>2026-04-25T12:39:28.395Z</time></trkpt><trkpt lat="44.4378867" lon="11.10667"><ele>211.0</ele><time>2026-04-25T12:39:29.395Z</time></trkpt><trkpt lat="44.4377767" lon="11.1067167"><ele>215.0</ele><time>2026-04-25T12:39:30.396Z</time></trkpt><trkpt lat="44.4376683" lon="11.10677"><ele>219.0</ele><time>2026-04-25T12:39:31.395Z</time></trkpt><trkpt lat="44.4375633" lon="11.1068317"><ele>219.0</ele><time>2026-04-25T12:39:32.394Z</time></trkpt><trkpt lat="44.4374633" lon="11.1069033"><ele>218.99999999999997</ele><time>2026-04-25T12:39:33.394Z</time></trkpt><trkpt lat="44.4373617" lon="11.1069767"><ele>218.99999999999997</ele><time>2026-04-25T12:39:34.394Z</time></trkpt><trkpt lat="44.4372633" lon="11.1070467"><ele>219.0</ele><time>2026-04-25T12:39:35.395Z</time></trkpt><trkpt lat="44.4371633" lon="11.1071"><ele>219.0</ele><time>2026-04-25T12:39:36.391Z</time></trkpt><trkpt lat="44.4370617" lon="11.1071433"><ele>218.2</ele><time>2026-04-25T12:39:37.395Z</time></trkpt><trkpt lat="44.436955" lon="11.1071817"><ele>217.39999999999998</ele><time>2026-04-25T12:39:38.394Z</time></trkpt><trkpt lat="44.4368517" lon="11.10722"><ele>216.6</ele><time>2026-04-25T12:39:39.395Z</time></trkpt><trkpt lat="44.43676" lon="11.1072717"><ele>215.8</ele><time>2026-04-25T12:39:40.394Z</time></trkpt><trkpt lat="44.4366783" lon="11.1073417"><ele>215.0</ele><time>2026-04-25T12:39:41.395Z</time></trkpt><trkpt lat="44.4365967" lon="11.1074283"><ele>218.4</ele><time>2026-04-25T12:39:42.396Z</time></trkpt><trkpt lat="44.4365167" lon="11.1075217"><ele>221.8</ele><time>2026-04-25T12:39:43.393Z</time></trkpt><trkpt lat="44.4364417" lon="11.1076067"><ele>225.2</ele><time>2026-04-25T12:39:44.395Z</time></trkpt><trkpt lat="44.4363733" lon="11.1076883"><ele>228.6</ele><time>2026-04-25T12:39:45.392Z</time></trkpt><trkpt lat="44.4363083" lon="11.1077817"><ele>232.0</ele><time>2026-04-25T12:39:46.394Z</time></trkpt><trkpt lat="44.43625" lon="11.1078833"><ele>232.16666666666666</ele><time>2026-04-25T12:39:47.395Z</time></trkpt><trkpt lat="44.4362" lon="11.10798"><ele>232.33333333333331</ele><time>2026-04-25T12:39:48.394Z</time></trkpt><trkpt lat="44.4361483" lon="11.108065"><ele>232.5</ele><time>2026-04-25T12:39:49.394Z</time></trkpt><trkpt lat="44.4361" lon="11.108165"><ele>232.66666666666669</ele><time>2026-04-25T12:39:50.396Z</time></trkpt><trkpt lat="44.4360433" lon="11.1082567"><ele>232.83333333333334</ele><time>2026-04-25T12:39:51.394Z</time></trkpt><trkpt lat="44.4359767" lon="11.10834"><ele>233.0</ele><time>2026-04-25T12:39:52.394Z</time></trkpt><trkpt lat="44.4359" lon="11.1084233"><ele>233.0</ele><time>2026-04-25T12:39:53.393Z</time></trkpt><trkpt lat="44.43582" lon="11.1085033"><ele>233.0</ele><time>2026-04-25T12:39:54.395Z</time></trkpt><trkpt lat="44.43574" lon="11.1085767"><ele>233.0</ele><time>2026-04-25T12:39:55.394Z</time></trkpt><trkpt lat="44.4356683" lon="11.1086367"><ele>233.0</ele><time>2026-04-25T12:39:56.396Z</time></trkpt><trkpt lat="44.4356117" lon="11.1086967"><ele>233.0</ele><time>2026-04-25T12:39:57.389Z</time></trkpt><trkpt lat="44.4355433" lon="11.108835"><ele>233.0</ele><time>2026-04-25T12:39:59.393Z</time></trkpt><trkpt lat="44.4355417" lon="11.108935"><ele>233.0</ele><time>2026-04-25T12:40:00.395Z</time></trkpt><trkpt lat="44.43554" lon="11.10906"><ele>233.0</ele><time>2026-04-25T12:40:01.395Z</time></trkpt><trkpt lat="44.4355267" lon="11.109195"><ele>233.0</ele><time>2026-04-25T12:40:02.392Z</time></trkpt><trkpt lat="44.4354883" lon="11.1093317"><ele>233.0</ele><time>2026-04-25T12:40:03.395Z</time></trkpt><trkpt lat="44.4354233" lon="11.1094667"><ele>232.0</ele><time>2026-04-25T12:40:04.393Z</time></trkpt><trkpt lat="44.435355" lon="11.109605"><ele>231.0</ele><time>2026-04-25T12:40:05.394Z</time></trkpt><trkpt lat="44.435285" lon="11.1097383"><ele>230.0</ele><time>2026-04-25T12:40:06.395Z</time></trkpt><trkpt lat="44.43521" lon="11.1098667"><ele>229.0</ele><time>2026-04-25T12:40:07.393Z</time></trkpt><trkpt lat="44.4351583" lon="11.1100117"><ele>227.79999999999998</ele><time>2026-04-25T12:40:08.395Z</time></trkpt><trkpt lat="44.4351383" lon="11.11017"><ele>226.59999999999997</ele><time>2026-04-25T12:40:09.393Z</time></trkpt><trkpt lat="44.4351533" lon="11.1103267"><ele>225.4</ele><time>2026-04-25T12:40:10.393Z</time></trkpt><trkpt lat="44.4351983" lon="11.1104683"><ele>224.2</ele><time>2026-04-25T12:40:11.394Z</time></trkpt><trkpt lat="44.4352717" lon="11.11058"><ele>223.0</ele><time>2026-04-25T12:40:12.394Z</time></trkpt><trkpt lat="44.4353767" lon="11.1106583"><ele>220.75</ele><time>2026-04-25T12:40:13.394Z</time></trkpt><trkpt lat="44.4354967" lon="11.1106967"><ele>218.5</ele><time>2026-04-25T12:40:14.396Z</time></trkpt><trkpt lat="44.4356283" lon="11.1107133"><ele>216.25</ele><time>2026-04-25T12:40:15.395Z</time></trkpt><trkpt lat="44.4357633" lon="11.1107283"><ele>214.0</ele><time>2026-04-25T12:40:16.392Z</time></trkpt><trkpt lat="44.435895" lon="11.1107433"><ele>212.5</ele><time>2026-04-25T12:40:17.393Z</time></trkpt><trkpt lat="44.4360133" lon="11.1107633"><ele>211.0</ele><time>2026-04-25T12:40:18.394Z</time></trkpt><trkpt lat="44.436125" lon="11.1108117"><ele>209.5</ele><time>2026-04-25T12:40:19.394Z</time></trkpt><trkpt lat="44.4362217" lon="11.1108933"><ele>208.0</ele><time>2026-04-25T12:40:20.396Z</time></trkpt><trkpt lat="44.4362967" lon="11.1110133"><ele>207.0</ele><time>2026-04-25T12:40:21.394Z</time></trkpt><trkpt lat="44.4363533" lon="11.11117"><ele>206.0</ele><time>2026-04-25T12:40:22.394Z</time></trkpt><trkpt lat="44.4363917" lon="11.1113483"><ele>205.0</ele><time>2026-04-25T12:40:23.393Z</time></trkpt><trkpt lat="44.43641" lon="11.11153"><ele>204.0</ele><time>2026-04-25T12:40:24.394Z</time></trkpt><trkpt lat="44.4364033" lon="11.111705"><ele>204.25</ele><time>2026-04-25T12:40:25.394Z</time></trkpt><trkpt lat="44.43637" lon="11.111865"><ele>204.5</ele><time>2026-04-25T12:40:26.395Z</time></trkpt><trkpt lat="44.4363117" lon="11.1120117"><ele>204.75</ele><time>2026-04-25T12:40:27.394Z</time></trkpt><trkpt lat="44.4362267" lon="11.1121383"><ele>205.0</ele><time>2026-04-25T12:40:28.395Z</time></trkpt><trkpt lat="44.436125" lon="11.1122467"><ele>205.0</ele><time>2026-04-25T12:40:29.394Z</time></trkpt><trkpt lat="44.4360067" lon="11.1123383"><ele>205.0</ele><time>2026-04-25T12:40:30.394Z</time></trkpt><trkpt lat="44.4358767" lon="11.11242"><ele>205.0</ele><time>2026-04-25T12:40:31.396Z</time></trkpt><trkpt lat="44.4357533" lon="11.1125033"><ele>205.0</ele><time>2026-04-25T12:40:32.398Z</time></trkpt><trkpt lat="44.435635" lon="11.1125817"><ele>203.6</ele><time>2026-04-25T12:40:33.396Z</time></trkpt><trkpt lat="44.4355383" lon="11.1126717"><ele>202.2</ele><time>2026-04-25T12:40:34.394Z</time></trkpt><trkpt lat="44.435465" lon="11.1127917"><ele>200.8</ele><time>2026-04-25T12:40:35.393Z</time></trkpt><trkpt lat="44.43541" lon="11.1129267"><ele>199.4</ele><time>2026-04-25T12:40:36.394Z</time></trkpt><trkpt lat="44.4353867" lon="11.113075"><ele>198.0</ele><time>2026-04-25T12:40:37.394Z</time></trkpt><trkpt lat="44.435385" lon="11.113225"><ele>195.5</ele><time>2026-04-25T12:40:38.395Z</time></trkpt><trkpt lat="44.43542" lon="11.1133717"><ele>193.0</ele><time>2026-04-25T12:40:39.393Z</time></trkpt><trkpt lat="44.4354833" lon="11.1135017"><ele>190.5</ele><time>2026-04-25T12:40:40.393Z</time></trkpt><trkpt lat="44.4355717" lon="11.113605"><ele>188.0</ele><time>2026-04-25T12:40:41.394Z</time></trkpt><trkpt lat="44.4356767" lon="11.1136783"><ele>187.5</ele><time>2026-04-25T12:40:42.393Z</time></trkpt><trkpt lat="44.4357983" lon="11.1137217"><ele>187.0</ele><time>2026-04-25T12:40:43.394Z</time></trkpt><trkpt lat="44.43594" lon="11.1137367"><ele>186.5</ele><time>2026-04-25T12:40:44.395Z</time></trkpt><trkpt lat="44.4360933" lon="11.1137417"><ele>186.0</ele><time>2026-04-25T12:40:45.393Z</time></trkpt><trkpt lat="44.4362467" lon="11.1137517"><ele>184.75</ele><time>2026-04-25T12:40:46.393Z</time></trkpt><trkpt lat="44.4363967" lon="11.11376"><ele>183.5</ele><time>2026-04-25T12:40:47.394Z</time></trkpt><trkpt lat="44.4365467" lon="11.1137717"><ele>182.25</ele><time>2026-04-25T12:40:48.394Z</time></trkpt><trkpt lat="44.4366833" lon="11.1137783"><ele>181.0</ele><time>2026-04-25T12:40:49.395Z</time></trkpt><trkpt lat="44.4368117" lon="11.11378"><ele>181.0</ele><time>2026-04-25T12:40:50.395Z</time></trkpt><trkpt lat="44.4369367" lon="11.1137683"><ele>181.0</ele><time>2026-04-25T12:40:51.394Z</time></trkpt><trkpt lat="44.43706" lon="11.1137217"><ele>181.0</ele><time>2026-04-25T12:40:52.393Z</time></trkpt><trkpt lat="44.4371717" lon="11.11365"><ele>181.0</ele><time>2026-04-25T12:40:53.394Z</time></trkpt><trkpt lat="44.4372767" lon="11.1135833"><ele>179.20000000000002</ele><time>2026-04-25T12:40:54.395Z</time></trkpt><trkpt lat="44.4373717" lon="11.11354"><ele>177.4</ele><time>2026-04-25T12:40:55.393Z</time></trkpt><trkpt lat="44.4374567" lon="11.1135283"><ele>175.6</ele><time>2026-04-25T12:40:56.397Z</time></trkpt><trkpt lat="44.43754" lon="11.11354"><ele>173.8</ele><time>2026-04-25T12:40:57.394Z</time></trkpt><trkpt lat="44.4376033" lon="11.11363"><ele>172.0</ele><time>2026-04-25T12:40:58.394Z</time></trkpt><trkpt lat="44.43765" lon="11.113755"><ele>172.0</ele><time>2026-04-25T12:40:59.393Z</time></trkpt><trkpt lat="44.4376717" lon="11.1139133"><ele>172.0</ele><time>2026-04-25T12:41:00.394Z</time></trkpt><trkpt lat="44.4376833" lon="11.114095"><ele>172.0</ele><time>2026-04-25T12:41:01.393Z</time></trkpt><trkpt lat="44.437695" lon="11.114285"><ele>172.0</ele><time>2026-04-25T12:41:02.394Z</time></trkpt><trkpt lat="44.4377133" lon="11.114485"><ele>170.75</ele><time>2026-04-25T12:41:03.394Z</time></trkpt><trkpt lat="44.4377383" lon="11.1146867"><ele>169.5</ele><time>2026-04-25T12:41:04.393Z</time></trkpt><trkpt lat="44.4377717" lon="11.1148917"><ele>168.25</ele><time>2026-04-25T12:41:05.393Z</time></trkpt><trkpt lat="44.4378067" lon="11.115095"><ele>167.0</ele><time>2026-04-25T12:41:06.393Z</time></trkpt><trkpt lat="44.4378417" lon="11.11529"><ele>166.75</ele><time>2026-04-25T12:41:07.395Z</time></trkpt><trkpt lat="44.4378717" lon="11.11548"><ele>166.5</ele><time>2026-04-25T12:41:08.397Z</time></trkpt><trkpt lat="44.4378967" lon="11.115665"><ele>166.25</ele><time>2026-04-25T12:41:09.395Z</time></trkpt><trkpt lat="44.43792" lon="11.1158517"><ele>166.0</ele><time>2026-04-25T12:41:10.393Z</time></trkpt><trkpt lat="44.4379283" lon="11.11604"><ele>165.75</ele><time>2026-04-25T12:41:11.394Z</time></trkpt><trkpt lat="44.4379233" lon="11.1162317"><ele>165.5</ele><time>2026-04-25T12:41:12.395Z</time></trkpt><trkpt lat="44.4379133" lon="11.1164083"><ele>165.25</ele><time>2026-04-25T12:41:13.395Z</time></trkpt><trkpt lat="44.4379" lon="11.116565"><ele>165.0</ele><time>2026-04-25T12:41:14.396Z</time></trkpt><trkpt lat="44.4379" lon="11.1166967"><ele>165.16666666666666</ele><time>2026-04-25T12:41:15.393Z</time></trkpt><trkpt lat="44.4379133" lon="11.1168133"><ele>165.33333333333334</ele><time>2026-04-25T12:41:16.393Z</time></trkpt><trkpt lat="44.4379433" lon="11.1169117"><ele>165.5</ele><time>2026-04-25T12:41:17.395Z</time></trkpt><trkpt lat="44.4380017" lon="11.1169933"><ele>165.66666666666669</ele><time>2026-04-25T12:41:18.393Z</time></trkpt><trkpt lat="44.4380883" lon="11.117045"><ele>165.83333333333334</ele><time>2026-04-25T12:41:19.394Z</time></trkpt><trkpt lat="44.4381917" lon="11.1170717"><ele>166.0</ele><time>2026-04-25T12:41:20.395Z</time></trkpt><trkpt lat="44.4383083" lon="11.1170883"><ele>166.0</ele><time>2026-04-25T12:41:21.394Z</time></trkpt><trkpt lat="44.4384267" lon="11.1171167"><ele>166.0</ele><time>2026-04-25T12:41:22.394Z</time></trkpt><trkpt lat="44.4385517" lon="11.1171517"><ele>166.0</ele><time>2026-04-25T12:41:23.394Z</time></trkpt><trkpt lat="44.4386867" lon="11.117185"><ele>166.0</ele><time>2026-04-25T12:41:24.395Z</time></trkpt><trkpt lat="44.4388283" lon="11.1172133"><ele>165.0</ele><time>2026-04-25T12:41:25.394Z</time></trkpt><trkpt lat="44.43897" lon="11.1172517"><ele>164.0</ele><time>2026-04-25T12:41:26.394Z</time></trkpt><trkpt lat="44.439115" lon="11.1172967"><ele>163.0</ele><time>2026-04-25T12:41:27.394Z</time></trkpt><trkpt lat="44.4392767" lon="11.1173483"><ele>164.0</ele><time>2026-04-25T12:41:28.394Z</time></trkpt><trkpt lat="44.43944" lon="11.1174083"><ele>165.0</ele><time>2026-04-25T12:41:29.395Z</time></trkpt><trkpt lat="44.4396" lon="11.1174667"><ele>166.0</ele><time>2026-04-25T12:41:30.394Z</time></trkpt><trkpt lat="44.439755" lon="11.1175283"><ele>166.0</ele><time>2026-04-25T12:41:31.394Z</time></trkpt><trkpt lat="44.43991" lon="11.117595"><ele>166.0</ele><time>2026-04-25T12:41:32.395Z</time></trkpt><trkpt lat="44.4400667" lon="11.1176717"><ele>166.0</ele><time>2026-04-25T12:41:33.395Z</time></trkpt><trkpt lat="44.440225" lon="11.1177517"><ele>166.0</ele><time>2026-04-25T12:41:34.394Z</time></trkpt><trkpt lat="44.4403867" lon="11.11783"><ele>166.0</ele><time>2026-04-25T12:41:35.395Z</time></trkpt><trkpt lat="44.4405483" lon="11.1178917"><ele>166.0</ele><time>2026-04-25T12:41:36.395Z</time></trkpt><trkpt lat="44.4407117" lon="11.1179333"><ele>164.33333333333334</ele><time>2026-04-25T12:41:37.394Z</time></trkpt><trkpt lat="44.4408767" lon="11.11795"><ele>162.66666666666666</ele><time>2026-04-25T12:41:38.395Z</time></trkpt><trkpt lat="44.4410417" lon="11.1179583"><ele>161.0</ele><time>2026-04-25T12:41:39.394Z</time></trkpt><trkpt lat="44.4412067" lon="11.11796"><ele>161.0</ele><time>2026-04-25T12:41:40.395Z</time></trkpt><trkpt lat="44.441375" lon="11.117965"><ele>161.0</ele><time>2026-04-25T12:41:41.395Z</time></trkpt><trkpt lat="44.44154" lon="11.117975"><ele>161.0</ele><time>2026-04-25T12:41:42.394Z</time></trkpt><trkpt lat="44.4417067" lon="11.117985"><ele>161.0</ele><time>2026-04-25T12:41:43.394Z</time></trkpt><trkpt lat="44.4418767" lon="11.1179933"><ele>161.0</ele><time>2026-04-25T12:41:44.394Z</time></trkpt><trkpt lat="44.4420467" lon="11.1179967"><ele>161.0</ele><time>2026-04-25T12:41:45.393Z</time></trkpt><trkpt lat="44.4422167" lon="11.118"><ele>160.33333333333331</ele><time>2026-04-25T12:41:46.394Z</time></trkpt><trkpt lat="44.44239" lon="11.11801"><ele>159.66666666666666</ele><time>2026-04-25T12:41:47.395Z</time></trkpt><trkpt lat="44.4425633" lon="11.1180217"><ele>159.0</ele><time>2026-04-25T12:41:48.394Z</time></trkpt><trkpt lat="44.44274" lon="11.1180233"><ele>159.0</ele><time>2026-04-25T12:41:49.394Z</time></trkpt><trkpt lat="44.4429183" lon="11.118025"><ele>159.0</ele><time>2026-04-25T12:41:50.396Z</time></trkpt><trkpt lat="44.4430967" lon="11.1180333"><ele>159.0</ele><time>2026-04-25T12:41:51.394Z</time></trkpt><trkpt lat="44.4432783" lon="11.1180433"><ele>159.0</ele><time>2026-04-25T12:41:52.393Z</time></trkpt><trkpt lat="44.443465" lon="11.1180517"><ele>159.0</ele><time>2026-04-25T12:41:53.397Z</time></trkpt><trkpt lat="44.443655" lon="11.1180617"><ele>159.0</ele><time>2026-04-25T12:41:54.394Z</time></trkpt><trkpt lat="44.44384" lon="11.1180733"><ele>158.33333333333334</ele><time>2026-04-25T12:41:55.395Z</time></trkpt><trkpt lat="44.4440117" lon="11.1180867"><ele>157.66666666666669</ele><time>2026-04-25T12:41:56.396Z</time></trkpt><trkpt lat="44.4441733" lon="11.1181017"><ele>157.0</ele><time>2026-04-25T12:41:57.395Z</time></trkpt><trkpt lat="44.4443283" lon="11.11813"><ele>157.0</ele><time>2026-04-25T12:41:58.393Z</time></trkpt><trkpt lat="44.4444783" lon="11.118175"><ele>157.0</ele><time>2026-04-25T12:41:59.394Z</time></trkpt><trkpt lat="44.4446233" lon="11.11825"><ele>157.0</ele><time>2026-04-25T12:42:00.395Z</time></trkpt><trkpt lat="44.4447717" lon="11.11835"><ele>158.33333333333334</ele><time>2026-04-25T12:42:01.396Z</time></trkpt><trkpt lat="44.4449233" lon="11.1184617"><ele>159.66666666666666</ele><time>2026-04-25T12:42:02.395Z</time></trkpt><trkpt lat="44.4450767" lon="11.1185783"><ele>161.0</ele><time>2026-04-25T12:42:03.396Z</time></trkpt><trkpt lat="44.4452317" lon="11.1186867"><ele>161.0</ele><time>2026-04-25T12:42:04.395Z</time></trkpt><trkpt lat="44.4453867" lon="11.1187883"><ele>161.0</ele><time>2026-04-25T12:42:05.392Z</time></trkpt><trkpt lat="44.4455367" lon="11.1188833"><ele>161.0</ele><time>2026-04-25T12:42:06.394Z</time></trkpt><trkpt lat="44.445685" lon="11.1189833"><ele>163.33333333333331</ele><time>2026-04-25T12:42:07.393Z</time></trkpt><trkpt lat="44.4458367" lon="11.1190933"><ele>165.66666666666666</ele><time>2026-04-25T12:42:08.395Z</time></trkpt><trkpt lat="44.445985" lon="11.1192233"><ele>168.0</ele><time>2026-04-25T12:42:09.395Z</time></trkpt><trkpt lat="44.446135" lon="11.11937"><ele>168.0</ele><time>2026-04-25T12:42:10.393Z</time></trkpt><trkpt lat="44.4462717" lon="11.1195217"><ele>168.0</ele><time>2026-04-25T12:42:11.395Z</time></trkpt><trkpt lat="44.4464033" lon="11.1196633"><ele>168.0</ele><time>2026-04-25T12:42:12.392Z</time></trkpt><trkpt lat="44.4465283" lon="11.1198083"><ele>167.33333333333334</ele><time>2026-04-25T12:42:13.393Z</time></trkpt><trkpt lat="44.4466517" lon="11.1199417"><ele>166.66666666666669</ele><time>2026-04-25T12:42:14.394Z</time></trkpt><trkpt lat="44.44678" lon="11.1200517"><ele>166.0</ele><time>2026-04-25T12:42:15.394Z</time></trkpt><trkpt lat="44.4469217" lon="11.12013"><ele>166.0</ele><time>2026-04-25T12:42:16.392Z</time></trkpt><trkpt lat="44.4470733" lon="11.1201783"><ele>166.0</ele><time>2026-04-25T12:42:17.394Z</time></trkpt><trkpt lat="44.44724" lon="11.1201983"><ele>166.0</ele><time>2026-04-25T12:42:18.392Z</time></trkpt><trkpt lat="44.4474133" lon="11.120195"><ele>163.33333333333334</ele><time>2026-04-25T12:42:19.395Z</time></trkpt><trkpt lat="44.4475883" lon="11.1201833"><ele>160.66666666666666</ele><time>2026-04-25T12:42:20.395Z</time></trkpt><trkpt lat="44.447765" lon="11.1201717"><ele>158.0</ele><time>2026-04-25T12:42:21.395Z</time></trkpt><trkpt lat="44.44794" lon="11.1201533"><ele>157.33333333333331</ele><time>2026-04-25T12:42:22.392Z</time></trkpt><trkpt lat="44.4481167" lon="11.1201133"><ele>156.66666666666666</ele><time>2026-04-25T12:42:23.394Z</time></trkpt><trkpt lat="44.44829" lon="11.12005"><ele>156.0</ele><time>2026-04-25T12:42:24.394Z</time></trkpt><trkpt lat="44.4484617" lon="11.11997"><ele>154.66666666666666</ele><time>2026-04-25T12:42:25.394Z</time></trkpt><trkpt lat="44.4486333" lon="11.1198883"><ele>153.33333333333331</ele><time>2026-04-25T12:42:26.394Z</time></trkpt><trkpt lat="44.448805" lon="11.1198067"><ele>152.0</ele><time>2026-04-25T12:42:27.394Z</time></trkpt><trkpt lat="44.44898" lon="11.119735"><ele>151.66666666666666</ele><time>2026-04-25T12:42:28.394Z</time></trkpt><trkpt lat="44.4491583" lon="11.1196767"><ele>151.33333333333334</ele><time>2026-04-25T12:42:29.394Z</time></trkpt><trkpt lat="44.44934" lon="11.11964"><ele>151.0</ele><time>2026-04-25T12:42:30.394Z</time></trkpt><trkpt lat="44.4495217" lon="11.1196233"><ele>150.33333333333334</ele><time>2026-04-25T12:42:31.395Z</time></trkpt><trkpt lat="44.4497033" lon="11.1196183"><ele>149.66666666666666</ele><time>2026-04-25T12:42:32.395Z</time></trkpt><trkpt lat="44.4498833" lon="11.1196183"><ele>149.0</ele><time>2026-04-25T12:42:33.395Z</time></trkpt><trkpt lat="44.4500633" lon="11.1196183"><ele>149.0</ele><time>2026-04-25T12:42:34.395Z</time></trkpt><trkpt lat="44.450245" lon="11.119615"><ele>149.0</ele><time>2026-04-25T12:42:35.395Z</time></trkpt><trkpt lat="44.45043" lon="11.1196083"><ele>149.0</ele><time>2026-04-25T12:42:36.392Z</time></trkpt><trkpt lat="44.450615" lon="11.1196067"><ele>149.33333333333331</ele><time>2026-04-25T12:42:37.395Z</time></trkpt><trkpt lat="44.4508033" lon="11.1196033"><ele>149.66666666666666</ele><time>2026-04-25T12:42:38.395Z</time></trkpt><trkpt lat="44.4509967" lon="11.1196017"><ele>150.0</ele><time>2026-04-25T12:42:39.393Z</time></trkpt><trkpt lat="44.4511933" lon="11.1196017"><ele>149.66666666666666</ele><time>2026-04-25T12:42:40.392Z</time></trkpt><trkpt lat="44.4513933" lon="11.1196033"><ele>149.33333333333331</ele><time>2026-04-25T12:42:41.395Z</time></trkpt><trkpt lat="44.4515983" lon="11.1195967"><ele>149.0</ele><time>2026-04-25T12:42:42.394Z</time></trkpt><trkpt lat="44.4518017" lon="11.1195933"><ele>149.0</ele><time>2026-04-25T12:42:43.395Z</time></trkpt><trkpt lat="44.452" lon="11.1195917"><ele>149.0</ele><time>2026-04-25T12:42:44.396Z</time></trkpt><trkpt lat="44.4521917" lon="11.1195867"><ele>149.0</ele><time>2026-04-25T12:42:45.394Z</time></trkpt><trkpt lat="44.4523817" lon="11.11958"><ele>148.66666666666666</ele><time>2026-04-25T12:42:46.394Z</time></trkpt><trkpt lat="44.4525717" lon="11.11957"><ele>148.33333333333334</ele><time>2026-04-25T12:42:47.397Z</time></trkpt><trkpt lat="44.45276" lon="11.119565"><ele>148.0</ele><time>2026-04-25T12:42:48.394Z</time></trkpt><trkpt lat="44.4529467" lon="11.1195617"><ele>147.33333333333334</ele><time>2026-04-25T12:42:49.396Z</time></trkpt><trkpt lat="44.4531383" lon="11.119555"><ele>146.66666666666666</ele><time>2026-04-25T12:42:50.396Z</time></trkpt><trkpt lat="44.45333" lon="11.1195533"><ele>146.0</ele><time>2026-04-25T12:42:51.395Z</time></trkpt><trkpt lat="44.4535233" lon="11.119555"><ele>146.0</ele><time>2026-04-25T12:42:52.393Z</time></trkpt><trkpt lat="44.45371" lon="11.1195483"><ele>146.0</ele><time>2026-04-25T12:42:53.393Z</time></trkpt><trkpt lat="44.4538867" lon="11.1195433"><ele>146.0</ele><time>2026-04-25T12:42:54.393Z</time></trkpt><trkpt lat="44.4540617" lon="11.1195433"><ele>145.66666666666666</ele><time>2026-04-25T12:42:55.392Z</time></trkpt><trkpt lat="44.454225" lon="11.1195417"><ele>145.33333333333334</ele><time>2026-04-25T12:42:56.394Z</time></trkpt><trkpt lat="44.4543817" lon="11.11954"><ele>145.0</ele><time>2026-04-25T12:42:57.396Z</time></trkpt><trkpt lat="44.4545317" lon="11.1195417"><ele>145.25</ele><time>2026-04-25T12:42:58.397Z</time></trkpt><trkpt lat="44.4546717" lon="11.11954"><ele>145.5</ele><time>2026-04-25T12:42:59.394Z</time></trkpt><trkpt lat="44.4548017" lon="11.119535"><ele>145.75</ele><time>2026-04-25T12:43:00.394Z</time></trkpt><trkpt lat="44.45492" lon="11.1195367"><ele>146.0</ele><time>2026-04-25T12:43:01.393Z</time></trkpt><trkpt lat="44.455025" lon="11.119535"><ele>146.0</ele><time>2026-04-25T12:43:02.395Z</time></trkpt><trkpt lat="44.4551183" lon="11.119535"><ele>146.0</ele><time>2026-04-25T12:43:03.394Z</time></trkpt><trkpt lat="44.4551933" lon="11.11954"><ele>146.0</ele><time>2026-04-25T12:43:04.393Z</time></trkpt><trkpt lat="44.4552567" lon="11.1195567"><ele>146.0</ele><time>2026-04-25T12:43:05.392Z</time></trkpt><trkpt lat="44.455345" lon="11.1196317"><ele>146.0</ele><time>2026-04-25T12:43:07.394Z</time></trkpt><trkpt lat="44.45539" lon="11.119715"><ele>146.0</ele><time>2026-04-25T12:43:09.396Z</time></trkpt></trkseg></trk></gpx>